<?xml version="1.0" encoding="UTF-8" standalone="no" ?>
<gpx xmlns="http://www.topografix.com/GPX/1/1" xmlns:xsi="http://www.w3.org/2001/XMLSchema-instance" xsi:schemaLocation="http://www.topografix.com/GPX/1/1 http://www.topografix.com/GPX/1/1/gpx.xsd" version="1.1" creator="VisuGPX - https://www.visugpx.com">
  <metadata>
    <name>vovray Sart 1.7</name>
  </metadata>
  <trk>
    <name><![CDATA[vovray Sart 1.7_1]]></name>
    <trkseg>
      <trkpt lat="48.63727" lon="7.43204">
        <ele>232.2</ele>
        <time>2020-09-24T08:22:32Z</time>
      </trkpt>
      <trkpt lat="48.63746" lon="7.43205">
        <ele>232</ele>
        <time>2020-09-24T08:22:39Z</time>
      </trkpt>
      <trkpt lat="48.63762" lon="7.43206">
        <ele>231.8</ele>
        <time>2020-09-24T08:22:46Z</time>
      </trkpt>
      <trkpt lat="48.63781" lon="7.43207">
        <ele>231.8</ele>
        <time>2020-09-24T08:22:54Z</time>
      </trkpt>
      <trkpt lat="48.63797" lon="7.43208">
        <ele>231.8</ele>
        <time>2020-09-24T08:23:01Z</time>
      </trkpt>
      <trkpt lat="48.63806" lon="7.43208">
        <ele>231.8</ele>
        <time>2020-09-24T08:23:05Z</time>
      </trkpt>
      <trkpt lat="48.63822" lon="7.43209">
        <ele>232.4</ele>
        <time>2020-09-24T08:23:12Z</time>
      </trkpt>
      <trkpt lat="48.63837" lon="7.4321">
        <ele>232.6</ele>
        <time>2020-09-24T08:23:19Z</time>
      </trkpt>
      <trkpt lat="48.63842" lon="7.43216">
        <ele>232.8</ele>
        <time>2020-09-24T08:23:24Z</time>
      </trkpt>
      <trkpt lat="48.63842" lon="7.4321">
        <ele>232.8</ele>
        <time>2020-09-24T08:23:26Z</time>
      </trkpt>
      <trkpt lat="48.63843" lon="7.4321">
        <ele>233</ele>
        <time>2020-09-24T08:23:28Z</time>
      </trkpt>
      <trkpt lat="48.63844" lon="7.43194">
        <ele>233</ele>
        <time>2020-09-24T08:23:32Z</time>
      </trkpt>
      <trkpt lat="48.63846" lon="7.43162">
        <ele>233.4</ele>
        <time>2020-09-24T08:23:38Z</time>
      </trkpt>
      <trkpt lat="48.63848" lon="7.43125">
        <ele>233.8</ele>
        <time>2020-09-24T08:23:44Z</time>
      </trkpt>
      <trkpt lat="48.63849" lon="7.43113">
        <ele>233.8</ele>
        <time>2020-09-24T08:23:46Z</time>
      </trkpt>
      <trkpt lat="48.63858" lon="7.43074">
        <ele>234.2</ele>
        <time>2020-09-24T08:23:52Z</time>
      </trkpt>
      <trkpt lat="48.63858" lon="7.43068">
        <ele>234.2</ele>
        <time>2020-09-24T08:23:53Z</time>
      </trkpt>
      <trkpt lat="48.63859" lon="7.43062">
        <ele>234.4</ele>
        <time>2020-09-24T08:23:54Z</time>
      </trkpt>
      <trkpt lat="48.6386" lon="7.43043">
        <ele>234.6</ele>
        <time>2020-09-24T08:23:57Z</time>
      </trkpt>
      <trkpt lat="48.6386" lon="7.43024">
        <ele>234.6</ele>
        <time>2020-09-24T08:24:00Z</time>
      </trkpt>
      <trkpt lat="48.63861" lon="7.4301">
        <ele>234.6</ele>
        <time>2020-09-24T08:24:02Z</time>
      </trkpt>
      <trkpt lat="48.6386" lon="7.42954">
        <ele>235</ele>
        <time>2020-09-24T08:24:10Z</time>
      </trkpt>
      <trkpt lat="48.63856" lon="7.42896">
        <ele>235.4</ele>
        <time>2020-09-24T08:24:19Z</time>
      </trkpt>
      <trkpt lat="48.63856" lon="7.4289">
        <ele>235.4</ele>
        <time>2020-09-24T08:24:20Z</time>
      </trkpt>
      <trkpt lat="48.63855" lon="7.42877">
        <ele>235.6</ele>
        <time>2020-09-24T08:24:22Z</time>
      </trkpt>
      <trkpt lat="48.63854" lon="7.42825">
        <ele>235.8</ele>
        <time>2020-09-24T08:24:30Z</time>
      </trkpt>
      <trkpt lat="48.63853" lon="7.42773">
        <ele>236.2</ele>
        <time>2020-09-24T08:24:38Z</time>
      </trkpt>
      <trkpt lat="48.63852" lon="7.42716">
        <ele>236.6</ele>
        <time>2020-09-24T08:24:47Z</time>
      </trkpt>
      <trkpt lat="48.63852" lon="7.42673">
        <ele>237</ele>
        <time>2020-09-24T08:24:54Z</time>
      </trkpt>
      <trkpt lat="48.63851" lon="7.42631">
        <ele>237.4</ele>
        <time>2020-09-24T08:25:01Z</time>
      </trkpt>
      <trkpt lat="48.63851" lon="7.42625">
        <ele>237.4</ele>
        <time>2020-09-24T08:25:02Z</time>
      </trkpt>
      <trkpt lat="48.6385" lon="7.42593">
        <ele>237.8</ele>
        <time>2020-09-24T08:25:07Z</time>
      </trkpt>
      <trkpt lat="48.6385" lon="7.42533">
        <ele>238</ele>
        <time>2020-09-24T08:25:16Z</time>
      </trkpt>
      <trkpt lat="48.63856" lon="7.42469">
        <ele>238</ele>
        <time>2020-09-24T08:25:24Z</time>
      </trkpt>
      <trkpt lat="48.63865" lon="7.42425">
        <ele>238</ele>
        <time>2020-09-24T08:25:29Z</time>
      </trkpt>
      <trkpt lat="48.63884" lon="7.42358">
        <ele>237.6</ele>
        <time>2020-09-24T08:25:36Z</time>
      </trkpt>
      <trkpt lat="48.63906" lon="7.423">
        <ele>236.8</ele>
        <time>2020-09-24T08:25:42Z</time>
      </trkpt>
      <trkpt lat="48.63944" lon="7.42235">
        <ele>235.6</ele>
        <time>2020-09-24T08:25:49Z</time>
      </trkpt>
      <trkpt lat="48.63972" lon="7.42206">
        <ele>234.6</ele>
        <time>2020-09-24T08:25:53Z</time>
      </trkpt>
      <trkpt lat="48.6398" lon="7.422">
        <ele>234.4</ele>
        <time>2020-09-24T08:25:54Z</time>
      </trkpt>
      <trkpt lat="48.64025" lon="7.42167">
        <ele>233.8</ele>
        <time>2020-09-24T08:26:00Z</time>
      </trkpt>
      <trkpt lat="48.64029" lon="7.42158">
        <ele>233.6</ele>
        <time>2020-09-24T08:26:01Z</time>
      </trkpt>
      <trkpt lat="48.64044" lon="7.42133">
        <ele>233.4</ele>
        <time>2020-09-24T08:26:04Z</time>
      </trkpt>
      <trkpt lat="48.64048" lon="7.42125">
        <ele>233.2</ele>
        <time>2020-09-24T08:26:05Z</time>
      </trkpt>
      <trkpt lat="48.64062" lon="7.42092">
        <ele>233</ele>
        <time>2020-09-24T08:26:09Z</time>
      </trkpt>
      <trkpt lat="48.64086" lon="7.42041">
        <ele>232</ele>
        <time>2020-09-24T08:26:15Z</time>
      </trkpt>
      <trkpt lat="48.64126" lon="7.41978">
        <ele>230.4</ele>
        <time>2020-09-24T08:26:23Z</time>
      </trkpt>
      <trkpt lat="48.64141" lon="7.41956">
        <ele>230</ele>
        <time>2020-09-24T08:26:26Z</time>
      </trkpt>
      <trkpt lat="48.64167" lon="7.41911">
        <ele>229.2</ele>
        <time>2020-09-24T08:26:32Z</time>
      </trkpt>
      <trkpt lat="48.64194" lon="7.4186">
        <ele>228.4</ele>
        <time>2020-09-24T08:26:39Z</time>
      </trkpt>
      <trkpt lat="48.64216" lon="7.41808">
        <ele>227.6</ele>
        <time>2020-09-24T08:26:46Z</time>
      </trkpt>
      <trkpt lat="48.6424" lon="7.4175">
        <ele>227</ele>
        <time>2020-09-24T08:26:54Z</time>
      </trkpt>
      <trkpt lat="48.64258" lon="7.41705">
        <ele>226.4</ele>
        <time>2020-09-24T08:27:00Z</time>
      </trkpt>
      <trkpt lat="48.64261" lon="7.41697">
        <ele>226.4</ele>
        <time>2020-09-24T08:27:01Z</time>
      </trkpt>
      <trkpt lat="48.64286" lon="7.41637">
        <ele>225.6</ele>
        <time>2020-09-24T08:27:09Z</time>
      </trkpt>
      <trkpt lat="48.64313" lon="7.41574">
        <ele>224.6</ele>
        <time>2020-09-24T08:27:17Z</time>
      </trkpt>
      <trkpt lat="48.64346" lon="7.41506">
        <ele>224</ele>
        <time>2020-09-24T08:27:26Z</time>
      </trkpt>
      <trkpt lat="48.64348" lon="7.41498">
        <ele>223.8</ele>
        <time>2020-09-24T08:27:27Z</time>
      </trkpt>
      <trkpt lat="48.64353" lon="7.41483">
        <ele>223.8</ele>
        <time>2020-09-24T08:27:29Z</time>
      </trkpt>
      <trkpt lat="48.64357" lon="7.41465">
        <ele>223.8</ele>
        <time>2020-09-24T08:27:31Z</time>
      </trkpt>
      <trkpt lat="48.64364" lon="7.41404">
        <ele>223.2</ele>
        <time>2020-09-24T08:27:38Z</time>
      </trkpt>
      <trkpt lat="48.64368" lon="7.41351">
        <ele>223</ele>
        <time>2020-09-24T08:27:44Z</time>
      </trkpt>
      <trkpt lat="48.64382" lon="7.4131">
        <ele>222.4</ele>
        <time>2020-09-24T08:27:50Z</time>
      </trkpt>
      <trkpt lat="48.64388" lon="7.41292">
        <ele>222.2</ele>
        <time>2020-09-24T08:27:53Z</time>
      </trkpt>
      <trkpt lat="48.64393" lon="7.41278">
        <ele>222.2</ele>
        <time>2020-09-24T08:27:55Z</time>
      </trkpt>
      <trkpt lat="48.64415" lon="7.41218">
        <ele>221.8</ele>
        <time>2020-09-24T08:28:04Z</time>
      </trkpt>
      <trkpt lat="48.64436" lon="7.41167">
        <ele>221.6</ele>
        <time>2020-09-24T08:28:12Z</time>
      </trkpt>
      <trkpt lat="48.64448" lon="7.41136">
        <ele>221.6</ele>
        <time>2020-09-24T08:28:17Z</time>
      </trkpt>
      <trkpt lat="48.64452" lon="7.41123">
        <ele>221.6</ele>
        <time>2020-09-24T08:28:19Z</time>
      </trkpt>
      <trkpt lat="48.64449" lon="7.41081">
        <ele>221.4</ele>
        <time>2020-09-24T08:28:25Z</time>
      </trkpt>
      <trkpt lat="48.64444" lon="7.4102">
        <ele>221.6</ele>
        <time>2020-09-24T08:28:34Z</time>
      </trkpt>
      <trkpt lat="48.64442" lon="7.40976">
        <ele>221.6</ele>
        <time>2020-09-24T08:28:40Z</time>
      </trkpt>
      <trkpt lat="48.64443" lon="7.40968">
        <ele>221.6</ele>
        <time>2020-09-24T08:28:41Z</time>
      </trkpt>
      <trkpt lat="48.64446" lon="7.40915">
        <ele>221.4</ele>
        <time>2020-09-24T08:28:48Z</time>
      </trkpt>
      <trkpt lat="48.64449" lon="7.40855">
        <ele>221.2</ele>
        <time>2020-09-24T08:28:55Z</time>
      </trkpt>
      <trkpt lat="48.6445" lon="7.40811">
        <ele>221.2</ele>
        <time>2020-09-24T08:29:02Z</time>
      </trkpt>
      <trkpt lat="48.64455" lon="7.40782">
        <ele>221.2</ele>
        <time>2020-09-24T08:29:06Z</time>
      </trkpt>
      <trkpt lat="48.64454" lon="7.40776">
        <ele>221</ele>
        <time>2020-09-24T08:29:07Z</time>
      </trkpt>
      <trkpt lat="48.64445" lon="7.40727">
        <ele>221.2</ele>
        <time>2020-09-24T08:29:14Z</time>
      </trkpt>
      <trkpt lat="48.64438" lon="7.40687">
        <ele>221</ele>
        <time>2020-09-24T08:29:20Z</time>
      </trkpt>
      <trkpt lat="48.64436" lon="7.4068">
        <ele>221.2</ele>
        <time>2020-09-24T08:29:21Z</time>
      </trkpt>
      <trkpt lat="48.64424" lon="7.40629">
        <ele>221.2</ele>
        <time>2020-09-24T08:29:29Z</time>
      </trkpt>
      <trkpt lat="48.64421" lon="7.40616">
        <ele>221.2</ele>
        <time>2020-09-24T08:29:31Z</time>
      </trkpt>
      <trkpt lat="48.64414" lon="7.40596">
        <ele>221.2</ele>
        <time>2020-09-24T08:29:34Z</time>
      </trkpt>
      <trkpt lat="48.64392" lon="7.40554">
        <ele>221.2</ele>
        <time>2020-09-24T08:29:41Z</time>
      </trkpt>
      <trkpt lat="48.64389" lon="7.40548">
        <ele>221.2</ele>
        <time>2020-09-24T08:29:42Z</time>
      </trkpt>
      <trkpt lat="48.64367" lon="7.40508">
        <ele>221.4</ele>
        <time>2020-09-24T08:29:49Z</time>
      </trkpt>
      <trkpt lat="48.6434" lon="7.40462">
        <ele>221.4</ele>
        <time>2020-09-24T08:29:57Z</time>
      </trkpt>
      <trkpt lat="48.64336" lon="7.40457">
        <ele>221.4</ele>
        <time>2020-09-24T08:29:58Z</time>
      </trkpt>
      <trkpt lat="48.64334" lon="7.40441">
        <ele>221.2</ele>
        <time>2020-09-24T08:30:01Z</time>
      </trkpt>
      <trkpt lat="48.64337" lon="7.40421">
        <ele>221.2</ele>
        <time>2020-09-24T08:30:05Z</time>
      </trkpt>
      <trkpt lat="48.64348" lon="7.4038">
        <ele>220.6</ele>
        <time>2020-09-24T08:30:13Z</time>
      </trkpt>
      <trkpt lat="48.64355" lon="7.40349">
        <ele>221</ele>
        <time>2020-09-24T08:30:19Z</time>
      </trkpt>
      <trkpt lat="48.64364" lon="7.403">
        <ele>221.2</ele>
        <time>2020-09-24T08:30:29Z</time>
      </trkpt>
      <trkpt lat="48.64367" lon="7.40259">
        <ele>221.4</ele>
        <time>2020-09-24T08:30:37Z</time>
      </trkpt>
      <trkpt lat="48.64368" lon="7.40242">
        <ele>221.6</ele>
        <time>2020-09-24T08:30:42Z</time>
      </trkpt>
      <trkpt lat="48.64368" lon="7.40209">
        <ele>222.4</ele>
        <time>2020-09-24T08:30:50Z</time>
      </trkpt>
      <trkpt lat="48.64369" lon="7.40177">
        <ele>223</ele>
        <time>2020-09-24T08:30:58Z</time>
      </trkpt>
      <trkpt lat="48.6437" lon="7.40153">
        <ele>223.6</ele>
        <time>2020-09-24T08:31:04Z</time>
      </trkpt>
      <trkpt lat="48.64371" lon="7.40125">
        <ele>224</ele>
        <time>2020-09-24T08:31:11Z</time>
      </trkpt>
      <trkpt lat="48.64372" lon="7.40095">
        <ele>225</ele>
        <time>2020-09-24T08:31:19Z</time>
      </trkpt>
      <trkpt lat="48.64372" lon="7.40089">
        <ele>225.2</ele>
        <time>2020-09-24T08:31:21Z</time>
      </trkpt>
      <trkpt lat="48.64372" lon="7.40082">
        <ele>225.4</ele>
        <time>2020-09-24T08:31:23Z</time>
      </trkpt>
      <trkpt lat="48.64373" lon="7.4006">
        <ele>225.6</ele>
        <time>2020-09-24T08:31:29Z</time>
      </trkpt>
      <trkpt lat="48.64371" lon="7.40036">
        <ele>226.6</ele>
        <time>2020-09-24T08:31:36Z</time>
      </trkpt>
      <trkpt lat="48.64368" lon="7.4001">
        <ele>227.4</ele>
        <time>2020-09-24T08:31:43Z</time>
      </trkpt>
      <trkpt lat="48.64365" lon="7.39996">
        <ele>228</ele>
        <time>2020-09-24T08:31:48Z</time>
      </trkpt>
      <trkpt lat="48.64362" lon="7.39979">
        <ele>228.6</ele>
        <time>2020-09-24T08:31:53Z</time>
      </trkpt>
      <trkpt lat="48.64357" lon="7.39955">
        <ele>229</ele>
        <time>2020-09-24T08:31:58Z</time>
      </trkpt>
      <trkpt lat="48.64353" lon="7.39939">
        <ele>229.4</ele>
        <time>2020-09-24T08:32:02Z</time>
      </trkpt>
      <trkpt lat="48.64345" lon="7.399">
        <ele>230.4</ele>
        <time>2020-09-24T08:32:10Z</time>
      </trkpt>
      <trkpt lat="48.64336" lon="7.39857">
        <ele>231.4</ele>
        <time>2020-09-24T08:32:18Z</time>
      </trkpt>
      <trkpt lat="48.64334" lon="7.39813">
        <ele>232</ele>
        <time>2020-09-24T08:32:25Z</time>
      </trkpt>
      <trkpt lat="48.64333" lon="7.39807">
        <ele>232</ele>
        <time>2020-09-24T08:32:26Z</time>
      </trkpt>
      <trkpt lat="48.64333" lon="7.39795">
        <ele>232.2</ele>
        <time>2020-09-24T08:32:28Z</time>
      </trkpt>
      <trkpt lat="48.64332" lon="7.39788">
        <ele>232.2</ele>
        <time>2020-09-24T08:32:29Z</time>
      </trkpt>
      <trkpt lat="48.64331" lon="7.39763">
        <ele>232.6</ele>
        <time>2020-09-24T08:32:33Z</time>
      </trkpt>
      <trkpt lat="48.6433" lon="7.39745">
        <ele>233</ele>
        <time>2020-09-24T08:32:36Z</time>
      </trkpt>
      <trkpt lat="48.64329" lon="7.39718">
        <ele>233</ele>
        <time>2020-09-24T08:32:41Z</time>
      </trkpt>
      <trkpt lat="48.64322" lon="7.3967">
        <ele>233.4</ele>
        <time>2020-09-24T08:32:48Z</time>
      </trkpt>
      <trkpt lat="48.64314" lon="7.39622">
        <ele>233.6</ele>
        <time>2020-09-24T08:32:55Z</time>
      </trkpt>
      <trkpt lat="48.64313" lon="7.39614">
        <ele>233.6</ele>
        <time>2020-09-24T08:32:56Z</time>
      </trkpt>
      <trkpt lat="48.64306" lon="7.39594">
        <ele>233.8</ele>
        <time>2020-09-24T08:32:59Z</time>
      </trkpt>
      <trkpt lat="48.64303" lon="7.39588">
        <ele>233.8</ele>
        <time>2020-09-24T08:33:00Z</time>
      </trkpt>
      <trkpt lat="48.64292" lon="7.39569">
        <ele>233.8</ele>
        <time>2020-09-24T08:33:03Z</time>
      </trkpt>
      <trkpt lat="48.64281" lon="7.3955">
        <ele>233.8</ele>
        <time>2020-09-24T08:33:06Z</time>
      </trkpt>
      <trkpt lat="48.64256" lon="7.39506">
        <ele>233.6</ele>
        <time>2020-09-24T08:33:13Z</time>
      </trkpt>
      <trkpt lat="48.64248" lon="7.39492">
        <ele>234</ele>
        <time>2020-09-24T08:33:15Z</time>
      </trkpt>
      <trkpt lat="48.6424" lon="7.39479">
        <ele>233.4</ele>
        <time>2020-09-24T08:33:17Z</time>
      </trkpt>
      <trkpt lat="48.64244" lon="7.39457">
        <ele>233.4</ele>
        <time>2020-09-24T08:33:19Z</time>
      </trkpt>
      <trkpt lat="48.64249" lon="7.3945">
        <ele>233.4</ele>
        <time>2020-09-24T08:33:20Z</time>
      </trkpt>
      <trkpt lat="48.64282" lon="7.39405">
        <ele>233</ele>
        <time>2020-09-24T08:33:26Z</time>
      </trkpt>
      <trkpt lat="48.64293" lon="7.39389">
        <ele>232.8</ele>
        <time>2020-09-24T08:33:28Z</time>
      </trkpt>
      <trkpt lat="48.64304" lon="7.39374">
        <ele>232.4</ele>
        <time>2020-09-24T08:33:30Z</time>
      </trkpt>
      <trkpt lat="48.64325" lon="7.39348">
        <ele>232.2</ele>
        <time>2020-09-24T08:33:34Z</time>
      </trkpt>
      <trkpt lat="48.64345" lon="7.39341">
        <ele>232.2</ele>
        <time>2020-09-24T08:33:37Z</time>
      </trkpt>
      <trkpt lat="48.64358" lon="7.39338">
        <ele>232.2</ele>
        <time>2020-09-24T08:33:39Z</time>
      </trkpt>
      <trkpt lat="48.64371" lon="7.39335">
        <ele>232</ele>
        <time>2020-09-24T08:33:41Z</time>
      </trkpt>
      <trkpt lat="48.64384" lon="7.3933">
        <ele>232</ele>
        <time>2020-09-24T08:33:43Z</time>
      </trkpt>
      <trkpt lat="48.64396" lon="7.39318">
        <ele>232</ele>
        <time>2020-09-24T08:33:46Z</time>
      </trkpt>
      <trkpt lat="48.64396" lon="7.39318">
        <ele>231.8</ele>
        <time>2020-09-24T08:33:47Z</time>
      </trkpt>
      <trkpt lat="48.6441" lon="7.39307">
        <ele>231.8</ele>
        <time>2020-09-24T08:33:48Z</time>
      </trkpt>
      <trkpt lat="48.64431" lon="7.3932">
        <ele>231.8</ele>
        <time>2020-09-24T08:33:52Z</time>
      </trkpt>
      <trkpt lat="48.64464" lon="7.39334">
        <ele>231.4</ele>
        <time>2020-09-24T08:33:58Z</time>
      </trkpt>
      <trkpt lat="48.64508" lon="7.39352">
        <ele>231.2</ele>
        <time>2020-09-24T08:34:06Z</time>
      </trkpt>
      <trkpt lat="48.64552" lon="7.39366">
        <ele>230.8</ele>
        <time>2020-09-24T08:34:14Z</time>
      </trkpt>
      <trkpt lat="48.64589" lon="7.39378">
        <ele>230.6</ele>
        <time>2020-09-24T08:34:21Z</time>
      </trkpt>
      <trkpt lat="48.64608" lon="7.39382">
        <ele>230.4</ele>
        <time>2020-09-24T08:34:25Z</time>
      </trkpt>
      <trkpt lat="48.64617" lon="7.39379">
        <ele>230.4</ele>
        <time>2020-09-24T08:34:27Z</time>
      </trkpt>
      <trkpt lat="48.64652" lon="7.39364">
        <ele>230.4</ele>
        <time>2020-09-24T08:34:35Z</time>
      </trkpt>
      <trkpt lat="48.64674" lon="7.39353">
        <ele>230.4</ele>
        <time>2020-09-24T08:34:41Z</time>
      </trkpt>
      <trkpt lat="48.6468" lon="7.39345">
        <ele>230.4</ele>
        <time>2020-09-24T08:34:43Z</time>
      </trkpt>
      <trkpt lat="48.64692" lon="7.39328">
        <ele>230.6</ele>
        <time>2020-09-24T08:34:47Z</time>
      </trkpt>
      <trkpt lat="48.64708" lon="7.39293">
        <ele>230.8</ele>
        <time>2020-09-24T08:34:54Z</time>
      </trkpt>
      <trkpt lat="48.64722" lon="7.3926">
        <ele>231</ele>
        <time>2020-09-24T08:35:01Z</time>
      </trkpt>
      <trkpt lat="48.64739" lon="7.39208">
        <ele>231</ele>
        <time>2020-09-24T08:35:10Z</time>
      </trkpt>
      <trkpt lat="48.64756" lon="7.39158">
        <ele>231</ele>
        <time>2020-09-24T08:35:18Z</time>
      </trkpt>
      <trkpt lat="48.64763" lon="7.39139">
        <ele>231.2</ele>
        <time>2020-09-24T08:35:21Z</time>
      </trkpt>
      <trkpt lat="48.64769" lon="7.39128">
        <ele>231</ele>
        <time>2020-09-24T08:35:23Z</time>
      </trkpt>
      <trkpt lat="48.64772" lon="7.39121">
        <ele>231</ele>
        <time>2020-09-24T08:35:24Z</time>
      </trkpt>
      <trkpt lat="48.64792" lon="7.39088">
        <ele>231.2</ele>
        <time>2020-09-24T08:35:30Z</time>
      </trkpt>
      <trkpt lat="48.64798" lon="7.39078">
        <ele>231.2</ele>
        <time>2020-09-24T08:35:32Z</time>
      </trkpt>
      <trkpt lat="48.64821" lon="7.39044">
        <ele>231.2</ele>
        <time>2020-09-24T08:35:39Z</time>
      </trkpt>
      <trkpt lat="48.6484" lon="7.39015">
        <ele>231.4</ele>
        <time>2020-09-24T08:35:46Z</time>
      </trkpt>
      <trkpt lat="48.64865" lon="7.38977">
        <ele>231.6</ele>
        <time>2020-09-24T08:35:56Z</time>
      </trkpt>
      <trkpt lat="48.64882" lon="7.38945">
        <ele>232</ele>
        <time>2020-09-24T08:36:04Z</time>
      </trkpt>
      <trkpt lat="48.64895" lon="7.38916">
        <ele>232.6</ele>
        <time>2020-09-24T08:36:11Z</time>
      </trkpt>
      <trkpt lat="48.6491" lon="7.38875">
        <ele>233.2</ele>
        <time>2020-09-24T08:36:21Z</time>
      </trkpt>
      <trkpt lat="48.64919" lon="7.38835">
        <ele>234.2</ele>
        <time>2020-09-24T08:36:31Z</time>
      </trkpt>
      <trkpt lat="48.64923" lon="7.38812">
        <ele>235</ele>
        <time>2020-09-24T08:36:37Z</time>
      </trkpt>
      <trkpt lat="48.64926" lon="7.38786">
        <ele>235.8</ele>
        <time>2020-09-24T08:36:44Z</time>
      </trkpt>
      <trkpt lat="48.64929" lon="7.38761">
        <ele>236.8</ele>
        <time>2020-09-24T08:36:51Z</time>
      </trkpt>
      <trkpt lat="48.64932" lon="7.38739">
        <ele>237.4</ele>
        <time>2020-09-24T08:36:57Z</time>
      </trkpt>
      <trkpt lat="48.6494" lon="7.38704">
        <ele>238.8</ele>
        <time>2020-09-24T08:37:07Z</time>
      </trkpt>
      <trkpt lat="48.64947" lon="7.38676">
        <ele>239.8</ele>
        <time>2020-09-24T08:37:15Z</time>
      </trkpt>
      <trkpt lat="48.64957" lon="7.38649">
        <ele>240.8</ele>
        <time>2020-09-24T08:37:23Z</time>
      </trkpt>
      <trkpt lat="48.64975" lon="7.38617">
        <ele>242.4</ele>
        <time>2020-09-24T08:37:34Z</time>
      </trkpt>
      <trkpt lat="48.64996" lon="7.38586">
        <ele>244</ele>
        <time>2020-09-24T08:37:44Z</time>
      </trkpt>
      <trkpt lat="48.65016" lon="7.38557">
        <ele>244.8</ele>
        <time>2020-09-24T08:37:52Z</time>
      </trkpt>
      <trkpt lat="48.65036" lon="7.38527">
        <ele>245.4</ele>
        <time>2020-09-24T08:37:59Z</time>
      </trkpt>
      <trkpt lat="48.6506" lon="7.38491">
        <ele>245.6</ele>
        <time>2020-09-24T08:38:06Z</time>
      </trkpt>
      <trkpt lat="48.65066" lon="7.38487">
        <ele>245.6</ele>
        <time>2020-09-24T08:38:07Z</time>
      </trkpt>
      <trkpt lat="48.65088" lon="7.38476">
        <ele>245.8</ele>
        <time>2020-09-24T08:38:11Z</time>
      </trkpt>
      <trkpt lat="48.65137" lon="7.38454">
        <ele>245.6</ele>
        <time>2020-09-24T08:38:19Z</time>
      </trkpt>
      <trkpt lat="48.65154" lon="7.3844">
        <ele>245.6</ele>
        <time>2020-09-24T08:38:22Z</time>
      </trkpt>
      <trkpt lat="48.65165" lon="7.3843">
        <ele>246</ele>
        <time>2020-09-24T08:38:24Z</time>
      </trkpt>
      <trkpt lat="48.65179" lon="7.38397">
        <ele>245.4</ele>
        <time>2020-09-24T08:38:29Z</time>
      </trkpt>
      <trkpt lat="48.65196" lon="7.3834">
        <ele>245.8</ele>
        <time>2020-09-24T08:38:37Z</time>
      </trkpt>
      <trkpt lat="48.6521" lon="7.38293">
        <ele>246</ele>
        <time>2020-09-24T08:38:45Z</time>
      </trkpt>
      <trkpt lat="48.65226" lon="7.3824">
        <ele>246.2</ele>
        <time>2020-09-24T08:38:54Z</time>
      </trkpt>
      <trkpt lat="48.65245" lon="7.38187">
        <ele>246</ele>
        <time>2020-09-24T08:39:02Z</time>
      </trkpt>
      <trkpt lat="48.65269" lon="7.38129">
        <ele>245.8</ele>
        <time>2020-09-24T08:39:10Z</time>
      </trkpt>
      <trkpt lat="48.65296" lon="7.38073">
        <ele>245.2</ele>
        <time>2020-09-24T08:39:18Z</time>
      </trkpt>
      <trkpt lat="48.6532" lon="7.38025">
        <ele>244.8</ele>
        <time>2020-09-24T08:39:26Z</time>
      </trkpt>
      <trkpt lat="48.65344" lon="7.37982">
        <ele>244.6</ele>
        <time>2020-09-24T08:39:34Z</time>
      </trkpt>
      <trkpt lat="48.65372" lon="7.37945">
        <ele>244.2</ele>
        <time>2020-09-24T08:39:42Z</time>
      </trkpt>
      <trkpt lat="48.65398" lon="7.37919">
        <ele>244</ele>
        <time>2020-09-24T08:39:49Z</time>
      </trkpt>
      <trkpt lat="48.65434" lon="7.37895">
        <ele>243.8</ele>
        <time>2020-09-24T08:39:58Z</time>
      </trkpt>
      <trkpt lat="48.65472" lon="7.37883">
        <ele>243.8</ele>
        <time>2020-09-24T08:40:07Z</time>
      </trkpt>
      <trkpt lat="48.65476" lon="7.37882">
        <ele>243.8</ele>
        <time>2020-09-24T08:40:08Z</time>
      </trkpt>
      <trkpt lat="48.65484" lon="7.37879">
        <ele>243.8</ele>
        <time>2020-09-24T08:40:10Z</time>
      </trkpt>
      <trkpt lat="48.65491" lon="7.37874">
        <ele>243.8</ele>
        <time>2020-09-24T08:40:12Z</time>
      </trkpt>
      <trkpt lat="48.65501" lon="7.37863">
        <ele>243.8</ele>
        <time>2020-09-24T08:40:15Z</time>
      </trkpt>
      <trkpt lat="48.65514" lon="7.37847">
        <ele>243.8</ele>
        <time>2020-09-24T08:40:19Z</time>
      </trkpt>
      <trkpt lat="48.65537" lon="7.3782">
        <ele>244</ele>
        <time>2020-09-24T08:40:26Z</time>
      </trkpt>
      <trkpt lat="48.65562" lon="7.3779">
        <ele>244.2</ele>
        <time>2020-09-24T08:40:33Z</time>
      </trkpt>
      <trkpt lat="48.6557" lon="7.3778">
        <ele>244.2</ele>
        <time>2020-09-24T08:40:35Z</time>
      </trkpt>
      <trkpt lat="48.65579" lon="7.37772">
        <ele>244.2</ele>
        <time>2020-09-24T08:40:37Z</time>
      </trkpt>
      <trkpt lat="48.65588" lon="7.37768">
        <ele>244.2</ele>
        <time>2020-09-24T08:40:39Z</time>
      </trkpt>
      <trkpt lat="48.65597" lon="7.37764">
        <ele>244.2</ele>
        <time>2020-09-24T08:40:41Z</time>
      </trkpt>
      <trkpt lat="48.65609" lon="7.37759">
        <ele>244.4</ele>
        <time>2020-09-24T08:40:44Z</time>
      </trkpt>
      <trkpt lat="48.65634" lon="7.37733">
        <ele>244.4</ele>
        <time>2020-09-24T08:40:52Z</time>
      </trkpt>
      <trkpt lat="48.65647" lon="7.37718">
        <ele>244.4</ele>
        <time>2020-09-24T08:40:56Z</time>
      </trkpt>
      <trkpt lat="48.65657" lon="7.37707">
        <ele>244.4</ele>
        <time>2020-09-24T08:40:59Z</time>
      </trkpt>
      <trkpt lat="48.65673" lon="7.37682">
        <ele>244.8</ele>
        <time>2020-09-24T08:41:05Z</time>
      </trkpt>
      <trkpt lat="48.65696" lon="7.37648">
        <ele>244.8</ele>
        <time>2020-09-24T08:41:13Z</time>
      </trkpt>
      <trkpt lat="48.65724" lon="7.3761">
        <ele>245</ele>
        <time>2020-09-24T08:41:22Z</time>
      </trkpt>
      <trkpt lat="48.65754" lon="7.37571">
        <ele>245.6</ele>
        <time>2020-09-24T08:41:31Z</time>
      </trkpt>
      <trkpt lat="48.65782" lon="7.37536">
        <ele>245.8</ele>
        <time>2020-09-24T08:41:39Z</time>
      </trkpt>
      <trkpt lat="48.65809" lon="7.375">
        <ele>246.2</ele>
        <time>2020-09-24T08:41:47Z</time>
      </trkpt>
      <trkpt lat="48.65813" lon="7.37495">
        <ele>246.4</ele>
        <time>2020-09-24T08:41:48Z</time>
      </trkpt>
      <trkpt lat="48.6584" lon="7.3746">
        <ele>247</ele>
        <time>2020-09-24T08:41:56Z</time>
      </trkpt>
      <trkpt lat="48.65861" lon="7.37425">
        <ele>247.4</ele>
        <time>2020-09-24T08:42:03Z</time>
      </trkpt>
      <trkpt lat="48.65864" lon="7.3742">
        <ele>247.4</ele>
        <time>2020-09-24T08:42:04Z</time>
      </trkpt>
      <trkpt lat="48.65892" lon="7.37369">
        <ele>248</ele>
        <time>2020-09-24T08:42:14Z</time>
      </trkpt>
      <trkpt lat="48.65898" lon="7.37359">
        <ele>248.2</ele>
        <time>2020-09-24T08:42:16Z</time>
      </trkpt>
      <trkpt lat="48.65912" lon="7.37336">
        <ele>248.6</ele>
        <time>2020-09-24T08:42:21Z</time>
      </trkpt>
      <trkpt lat="48.65932" lon="7.37312">
        <ele>249.2</ele>
        <time>2020-09-24T08:42:28Z</time>
      </trkpt>
      <trkpt lat="48.65962" lon="7.37288">
        <ele>250</ele>
        <time>2020-09-24T08:42:37Z</time>
      </trkpt>
      <trkpt lat="48.65991" lon="7.37273">
        <ele>250.6</ele>
        <time>2020-09-24T08:42:45Z</time>
      </trkpt>
      <trkpt lat="48.66017" lon="7.37258">
        <ele>251.2</ele>
        <time>2020-09-24T08:42:53Z</time>
      </trkpt>
      <trkpt lat="48.66041" lon="7.37245">
        <ele>252</ele>
        <time>2020-09-24T08:43:00Z</time>
      </trkpt>
      <trkpt lat="48.66066" lon="7.37232">
        <ele>252.6</ele>
        <time>2020-09-24T08:43:07Z</time>
      </trkpt>
      <trkpt lat="48.66092" lon="7.37215">
        <ele>253.2</ele>
        <time>2020-09-24T08:43:15Z</time>
      </trkpt>
      <trkpt lat="48.66116" lon="7.37192">
        <ele>254</ele>
        <time>2020-09-24T08:43:23Z</time>
      </trkpt>
      <trkpt lat="48.66147" lon="7.37163">
        <ele>254.8</ele>
        <time>2020-09-24T08:43:32Z</time>
      </trkpt>
      <trkpt lat="48.66178" lon="7.37134">
        <ele>255.4</ele>
        <time>2020-09-24T08:43:41Z</time>
      </trkpt>
      <trkpt lat="48.66206" lon="7.37109">
        <ele>256</ele>
        <time>2020-09-24T08:43:49Z</time>
      </trkpt>
      <trkpt lat="48.66236" lon="7.37097">
        <ele>256.8</ele>
        <time>2020-09-24T08:43:57Z</time>
      </trkpt>
      <trkpt lat="48.66272" lon="7.37082">
        <ele>257.6</ele>
        <time>2020-09-24T08:44:07Z</time>
      </trkpt>
      <trkpt lat="48.66307" lon="7.37068">
        <ele>258.6</ele>
        <time>2020-09-24T08:44:17Z</time>
      </trkpt>
      <trkpt lat="48.66336" lon="7.37064">
        <ele>259.6</ele>
        <time>2020-09-24T08:44:26Z</time>
      </trkpt>
      <trkpt lat="48.66348" lon="7.37063">
        <ele>260</ele>
        <time>2020-09-24T08:44:31Z</time>
      </trkpt>
      <trkpt lat="48.66369" lon="7.37063">
        <ele>260.6</ele>
        <time>2020-09-24T08:44:38Z</time>
      </trkpt>
      <trkpt lat="48.66401" lon="7.37071">
        <ele>261.6</ele>
        <time>2020-09-24T08:44:49Z</time>
      </trkpt>
      <trkpt lat="48.66422" lon="7.37077">
        <ele>262.4</ele>
        <time>2020-09-24T08:44:56Z</time>
      </trkpt>
      <trkpt lat="48.66446" lon="7.37083">
        <ele>263.2</ele>
        <time>2020-09-24T08:45:04Z</time>
      </trkpt>
      <trkpt lat="48.66472" lon="7.37091">
        <ele>264</ele>
        <time>2020-09-24T08:45:13Z</time>
      </trkpt>
      <trkpt lat="48.66501" lon="7.37099">
        <ele>265</ele>
        <time>2020-09-24T08:45:23Z</time>
      </trkpt>
      <trkpt lat="48.66526" lon="7.37105">
        <ele>266</ele>
        <time>2020-09-24T08:45:32Z</time>
      </trkpt>
      <trkpt lat="48.66547" lon="7.37104">
        <ele>266.8</ele>
        <time>2020-09-24T08:45:39Z</time>
      </trkpt>
      <trkpt lat="48.6657" lon="7.37103">
        <ele>268</ele>
        <time>2020-09-24T08:45:47Z</time>
      </trkpt>
      <trkpt lat="48.66596" lon="7.37102">
        <ele>269.2</ele>
        <time>2020-09-24T08:45:56Z</time>
      </trkpt>
      <trkpt lat="48.66616" lon="7.37101">
        <ele>270.2</ele>
        <time>2020-09-24T08:46:03Z</time>
      </trkpt>
      <trkpt lat="48.66645" lon="7.37096">
        <ele>271.6</ele>
        <time>2020-09-24T08:46:13Z</time>
      </trkpt>
      <trkpt lat="48.66667" lon="7.37091">
        <ele>272.8</ele>
        <time>2020-09-24T08:46:21Z</time>
      </trkpt>
      <trkpt lat="48.66676" lon="7.37074">
        <ele>273.2</ele>
        <time>2020-09-24T08:46:26Z</time>
      </trkpt>
      <trkpt lat="48.66692" lon="7.37044">
        <ele>274</ele>
        <time>2020-09-24T08:46:34Z</time>
      </trkpt>
      <trkpt lat="48.66705" lon="7.37038">
        <ele>274.4</ele>
        <time>2020-09-24T08:46:39Z</time>
      </trkpt>
      <trkpt lat="48.66728" lon="7.37043">
        <ele>275</ele>
        <time>2020-09-24T08:46:47Z</time>
      </trkpt>
      <trkpt lat="48.6675" lon="7.37051">
        <ele>275.8</ele>
        <time>2020-09-24T08:46:56Z</time>
      </trkpt>
      <trkpt lat="48.6677" lon="7.37061">
        <ele>276.6</ele>
        <time>2020-09-24T08:47:05Z</time>
      </trkpt>
      <trkpt lat="48.66785" lon="7.37067">
        <ele>277.4</ele>
        <time>2020-09-24T08:47:12Z</time>
      </trkpt>
      <trkpt lat="48.66797" lon="7.37072">
        <ele>278.2</ele>
        <time>2020-09-24T08:47:18Z</time>
      </trkpt>
      <trkpt lat="48.6681" lon="7.37078">
        <ele>279</ele>
        <time>2020-09-24T08:47:25Z</time>
      </trkpt>
      <trkpt lat="48.66825" lon="7.37084">
        <ele>280</ele>
        <time>2020-09-24T08:47:32Z</time>
      </trkpt>
      <trkpt lat="48.6684" lon="7.3709">
        <ele>280.8</ele>
        <time>2020-09-24T08:47:39Z</time>
      </trkpt>
      <trkpt lat="48.66853" lon="7.37096">
        <ele>281.8</ele>
        <time>2020-09-24T08:47:46Z</time>
      </trkpt>
      <trkpt lat="48.66866" lon="7.37101">
        <ele>282.2</ele>
        <time>2020-09-24T08:47:52Z</time>
      </trkpt>
      <trkpt lat="48.66881" lon="7.37107">
        <ele>283</ele>
        <time>2020-09-24T08:47:58Z</time>
      </trkpt>
      <trkpt lat="48.66897" lon="7.37114">
        <ele>283.8</ele>
        <time>2020-09-24T08:48:05Z</time>
      </trkpt>
      <trkpt lat="48.66912" lon="7.37121">
        <ele>285</ele>
        <time>2020-09-24T08:48:12Z</time>
      </trkpt>
      <trkpt lat="48.66929" lon="7.3713">
        <ele>286</ele>
        <time>2020-09-24T08:48:20Z</time>
      </trkpt>
      <trkpt lat="48.66944" lon="7.37137">
        <ele>287</ele>
        <time>2020-09-24T08:48:27Z</time>
      </trkpt>
      <trkpt lat="48.66956" lon="7.37144">
        <ele>287.8</ele>
        <time>2020-09-24T08:48:33Z</time>
      </trkpt>
      <trkpt lat="48.66968" lon="7.3715">
        <ele>289</ele>
        <time>2020-09-24T08:48:39Z</time>
      </trkpt>
      <trkpt lat="48.6698" lon="7.37157">
        <ele>289.8</ele>
        <time>2020-09-24T08:48:45Z</time>
      </trkpt>
      <trkpt lat="48.66983" lon="7.37155">
        <ele>290</ele>
        <time>2020-09-24T08:48:46Z</time>
      </trkpt>
      <trkpt lat="48.66994" lon="7.37151">
        <ele>290.6</ele>
        <time>2020-09-24T08:48:50Z</time>
      </trkpt>
      <trkpt lat="48.67009" lon="7.37153">
        <ele>291.4</ele>
        <time>2020-09-24T08:48:56Z</time>
      </trkpt>
      <trkpt lat="48.67028" lon="7.37156">
        <ele>293</ele>
        <time>2020-09-24T08:49:04Z</time>
      </trkpt>
      <trkpt lat="48.67045" lon="7.3716">
        <ele>294</ele>
        <time>2020-09-24T08:49:11Z</time>
      </trkpt>
      <trkpt lat="48.67062" lon="7.37167">
        <ele>295.4</ele>
        <time>2020-09-24T08:49:19Z</time>
      </trkpt>
      <trkpt lat="48.67081" lon="7.37175">
        <ele>296.4</ele>
        <time>2020-09-24T08:49:27Z</time>
      </trkpt>
      <trkpt lat="48.67105" lon="7.37186">
        <ele>298.4</ele>
        <time>2020-09-24T08:49:38Z</time>
      </trkpt>
      <trkpt lat="48.67124" lon="7.37196">
        <ele>299.8</ele>
        <time>2020-09-24T08:49:47Z</time>
      </trkpt>
      <trkpt lat="48.67134" lon="7.37203">
        <ele>300.8</ele>
        <time>2020-09-24T08:49:53Z</time>
      </trkpt>
      <trkpt lat="48.6715" lon="7.37213">
        <ele>302</ele>
        <time>2020-09-24T08:50:01Z</time>
      </trkpt>
      <trkpt lat="48.67172" lon="7.37228">
        <ele>304</ele>
        <time>2020-09-24T08:50:12Z</time>
      </trkpt>
      <trkpt lat="48.6719" lon="7.37239">
        <ele>305.2</ele>
        <time>2020-09-24T08:50:21Z</time>
      </trkpt>
      <trkpt lat="48.67207" lon="7.37253">
        <ele>306.4</ele>
        <time>2020-09-24T08:50:30Z</time>
      </trkpt>
      <trkpt lat="48.67219" lon="7.37264">
        <ele>307.2</ele>
        <time>2020-09-24T08:50:37Z</time>
      </trkpt>
      <trkpt lat="48.67235" lon="7.3728">
        <ele>308.8</ele>
        <time>2020-09-24T08:50:46Z</time>
      </trkpt>
      <trkpt lat="48.67252" lon="7.37296">
        <ele>310.2</ele>
        <time>2020-09-24T08:50:55Z</time>
      </trkpt>
      <trkpt lat="48.67268" lon="7.3731">
        <ele>311.4</ele>
        <time>2020-09-24T08:51:04Z</time>
      </trkpt>
      <trkpt lat="48.67283" lon="7.37321">
        <ele>312.8</ele>
        <time>2020-09-24T08:51:12Z</time>
      </trkpt>
      <trkpt lat="48.67287" lon="7.37324">
        <ele>313.6</ele>
        <time>2020-09-24T08:51:18Z</time>
      </trkpt>
      <trkpt lat="48.67293" lon="7.37329">
        <ele>314.6</ele>
        <time>2020-09-24T08:51:27Z</time>
      </trkpt>
      <trkpt lat="48.673" lon="7.37333">
        <ele>315.4</ele>
        <time>2020-09-24T08:51:34Z</time>
      </trkpt>
      <trkpt lat="48.67311" lon="7.37341">
        <ele>316.2</ele>
        <time>2020-09-24T08:51:41Z</time>
      </trkpt>
      <trkpt lat="48.67327" lon="7.37354">
        <ele>316.8</ele>
        <time>2020-09-24T08:51:47Z</time>
      </trkpt>
      <trkpt lat="48.67343" lon="7.37365">
        <ele>317.2</ele>
        <time>2020-09-24T08:51:52Z</time>
      </trkpt>
      <trkpt lat="48.6735" lon="7.37371">
        <ele>317.4</ele>
        <time>2020-09-24T08:51:54Z</time>
      </trkpt>
      <trkpt lat="48.67362" lon="7.37385">
        <ele>317.6</ele>
        <time>2020-09-24T08:51:57Z</time>
      </trkpt>
      <trkpt lat="48.67377" lon="7.37404">
        <ele>317.8</ele>
        <time>2020-09-24T08:52:01Z</time>
      </trkpt>
      <trkpt lat="48.67389" lon="7.37418">
        <ele>318</ele>
        <time>2020-09-24T08:52:04Z</time>
      </trkpt>
      <trkpt lat="48.67418" lon="7.3745">
        <ele>318</ele>
        <time>2020-09-24T08:52:10Z</time>
      </trkpt>
      <trkpt lat="48.67456" lon="7.37486">
        <ele>317.8</ele>
        <time>2020-09-24T08:52:16Z</time>
      </trkpt>
      <trkpt lat="48.67476" lon="7.37505">
        <ele>318.2</ele>
        <time>2020-09-24T08:52:19Z</time>
      </trkpt>
      <trkpt lat="48.67497" lon="7.37525">
        <ele>317.4</ele>
        <time>2020-09-24T08:52:22Z</time>
      </trkpt>
      <trkpt lat="48.67505" lon="7.37532">
        <ele>317.4</ele>
        <time>2020-09-24T08:52:23Z</time>
      </trkpt>
      <trkpt lat="48.67522" lon="7.37544">
        <ele>317.2</ele>
        <time>2020-09-24T08:52:25Z</time>
      </trkpt>
      <trkpt lat="48.67531" lon="7.37547">
        <ele>317</ele>
        <time>2020-09-24T08:52:26Z</time>
      </trkpt>
      <trkpt lat="48.67551" lon="7.37552">
        <ele>316.8</ele>
        <time>2020-09-24T08:52:28Z</time>
      </trkpt>
      <trkpt lat="48.67561" lon="7.37555">
        <ele>316.6</ele>
        <time>2020-09-24T08:52:29Z</time>
      </trkpt>
      <trkpt lat="48.67603" lon="7.37579">
        <ele>316.2</ele>
        <time>2020-09-24T08:52:34Z</time>
      </trkpt>
      <trkpt lat="48.67646" lon="7.37608">
        <ele>315.4</ele>
        <time>2020-09-24T08:52:39Z</time>
      </trkpt>
      <trkpt lat="48.67697" lon="7.37641">
        <ele>313.8</ele>
        <time>2020-09-24T08:52:44Z</time>
      </trkpt>
      <trkpt lat="48.67708" lon="7.37648">
        <ele>313.6</ele>
        <time>2020-09-24T08:52:45Z</time>
      </trkpt>
      <trkpt lat="48.67731" lon="7.37655">
        <ele>313</ele>
        <time>2020-09-24T08:52:47Z</time>
      </trkpt>
      <trkpt lat="48.67754" lon="7.37656">
        <ele>312.2</ele>
        <time>2020-09-24T08:52:49Z</time>
      </trkpt>
      <trkpt lat="48.67766" lon="7.37656">
        <ele>311.8</ele>
        <time>2020-09-24T08:52:50Z</time>
      </trkpt>
      <trkpt lat="48.67778" lon="7.37658">
        <ele>311.4</ele>
        <time>2020-09-24T08:52:51Z</time>
      </trkpt>
      <trkpt lat="48.67799" lon="7.37676">
        <ele>310.4</ele>
        <time>2020-09-24T08:52:53Z</time>
      </trkpt>
      <trkpt lat="48.67855" lon="7.37721">
        <ele>308.2</ele>
        <time>2020-09-24T08:52:58Z</time>
      </trkpt>
      <trkpt lat="48.67867" lon="7.37729">
        <ele>307.8</ele>
        <time>2020-09-24T08:52:59Z</time>
      </trkpt>
      <trkpt lat="48.67917" lon="7.37763">
        <ele>305.6</ele>
        <time>2020-09-24T08:53:03Z</time>
      </trkpt>
      <trkpt lat="48.67956" lon="7.37783">
        <ele>303.8</ele>
        <time>2020-09-24T08:53:06Z</time>
      </trkpt>
      <trkpt lat="48.68009" lon="7.37805">
        <ele>301.4</ele>
        <time>2020-09-24T08:53:10Z</time>
      </trkpt>
      <trkpt lat="48.68022" lon="7.37811">
        <ele>300.8</ele>
        <time>2020-09-24T08:53:11Z</time>
      </trkpt>
      <trkpt lat="48.68083" lon="7.37836">
        <ele>298</ele>
        <time>2020-09-24T08:53:16Z</time>
      </trkpt>
      <trkpt lat="48.68094" lon="7.37841">
        <ele>297.6</ele>
        <time>2020-09-24T08:53:17Z</time>
      </trkpt>
      <trkpt lat="48.68147" lon="7.37866">
        <ele>295.2</ele>
        <time>2020-09-24T08:53:22Z</time>
      </trkpt>
      <trkpt lat="48.68157" lon="7.37871">
        <ele>294.8</ele>
        <time>2020-09-24T08:53:23Z</time>
      </trkpt>
      <trkpt lat="48.68186" lon="7.37885">
        <ele>293.4</ele>
        <time>2020-09-24T08:53:26Z</time>
      </trkpt>
      <trkpt lat="48.68195" lon="7.37889">
        <ele>292.8</ele>
        <time>2020-09-24T08:53:27Z</time>
      </trkpt>
      <trkpt lat="48.68244" lon="7.37932">
        <ele>290.2</ele>
        <time>2020-09-24T08:53:33Z</time>
      </trkpt>
      <trkpt lat="48.68252" lon="7.37939">
        <ele>289.6</ele>
        <time>2020-09-24T08:53:34Z</time>
      </trkpt>
      <trkpt lat="48.683" lon="7.37976">
        <ele>287</ele>
        <time>2020-09-24T08:53:40Z</time>
      </trkpt>
      <trkpt lat="48.68309" lon="7.3798">
        <ele>286.4</ele>
        <time>2020-09-24T08:53:41Z</time>
      </trkpt>
      <trkpt lat="48.68358" lon="7.38002">
        <ele>284</ele>
        <time>2020-09-24T08:53:46Z</time>
      </trkpt>
      <trkpt lat="48.68379" lon="7.38011">
        <ele>283</ele>
        <time>2020-09-24T08:53:48Z</time>
      </trkpt>
      <trkpt lat="48.68389" lon="7.38018">
        <ele>282.6</ele>
        <time>2020-09-24T08:53:49Z</time>
      </trkpt>
      <trkpt lat="48.684" lon="7.38039">
        <ele>281.8</ele>
        <time>2020-09-24T08:53:51Z</time>
      </trkpt>
      <trkpt lat="48.68402" lon="7.38045">
        <ele>281.4</ele>
        <time>2020-09-24T08:53:52Z</time>
      </trkpt>
      <trkpt lat="48.68418" lon="7.3805">
        <ele>280.6</ele>
        <time>2020-09-24T08:53:54Z</time>
      </trkpt>
      <trkpt lat="48.68434" lon="7.38057">
        <ele>279.6</ele>
        <time>2020-09-24T08:53:56Z</time>
      </trkpt>
      <trkpt lat="48.68472" lon="7.38096">
        <ele>277.2</ele>
        <time>2020-09-24T08:54:01Z</time>
      </trkpt>
      <trkpt lat="48.6848" lon="7.38105">
        <ele>276.6</ele>
        <time>2020-09-24T08:54:02Z</time>
      </trkpt>
      <trkpt lat="48.68505" lon="7.38126">
        <ele>274.8</ele>
        <time>2020-09-24T08:54:05Z</time>
      </trkpt>
      <trkpt lat="48.68543" lon="7.38138">
        <ele>272.6</ele>
        <time>2020-09-24T08:54:09Z</time>
      </trkpt>
      <trkpt lat="48.68606" lon="7.38146">
        <ele>269.2</ele>
        <time>2020-09-24T08:54:15Z</time>
      </trkpt>
      <trkpt lat="48.68636" lon="7.38149">
        <ele>267.4</ele>
        <time>2020-09-24T08:54:18Z</time>
      </trkpt>
      <trkpt lat="48.68653" lon="7.38156">
        <ele>266.4</ele>
        <time>2020-09-24T08:54:20Z</time>
      </trkpt>
      <trkpt lat="48.68669" lon="7.3818">
        <ele>265</ele>
        <time>2020-09-24T08:54:23Z</time>
      </trkpt>
      <trkpt lat="48.68672" lon="7.38189">
        <ele>263.8</ele>
        <time>2020-09-24T08:54:25Z</time>
      </trkpt>
      <trkpt lat="48.68672" lon="7.3819">
        <ele>263.4</ele>
        <time>2020-09-24T08:54:26Z</time>
      </trkpt>
      <trkpt lat="48.68671" lon="7.3817">
        <ele>261.4</ele>
        <time>2020-09-24T08:54:30Z</time>
      </trkpt>
      <trkpt lat="48.68674" lon="7.38159">
        <ele>260.6</ele>
        <time>2020-09-24T08:54:32Z</time>
      </trkpt>
      <trkpt lat="48.68678" lon="7.38141">
        <ele>259.4</ele>
        <time>2020-09-24T08:54:35Z</time>
      </trkpt>
      <trkpt lat="48.6868" lon="7.38135">
        <ele>258.8</ele>
        <time>2020-09-24T08:54:36Z</time>
      </trkpt>
      <trkpt lat="48.68684" lon="7.38124">
        <ele>258</ele>
        <time>2020-09-24T08:54:38Z</time>
      </trkpt>
      <trkpt lat="48.68687" lon="7.3812">
        <ele>257.4</ele>
        <time>2020-09-24T08:54:39Z</time>
      </trkpt>
      <trkpt lat="48.68699" lon="7.38106">
        <ele>256</ele>
        <time>2020-09-24T08:54:42Z</time>
      </trkpt>
      <trkpt lat="48.68724" lon="7.38077">
        <ele>253.4</ele>
        <time>2020-09-24T08:54:48Z</time>
      </trkpt>
      <trkpt lat="48.68724" lon="7.38077">
        <ele>253</ele>
        <time>2020-09-24T08:54:49Z</time>
      </trkpt>
      <trkpt lat="48.68724" lon="7.38077">
        <ele>252.2</ele>
        <time>2020-09-24T08:54:51Z</time>
      </trkpt>
      <trkpt lat="48.68724" lon="7.38077">
        <ele>251.4</ele>
        <time>2020-09-24T08:54:53Z</time>
      </trkpt>
      <trkpt lat="48.68724" lon="7.38077">
        <ele>251</ele>
        <time>2020-09-24T08:54:54Z</time>
      </trkpt>
      <trkpt lat="48.68748" lon="7.38053">
        <ele>250.6</ele>
        <time>2020-09-24T08:54:55Z</time>
      </trkpt>
      <trkpt lat="48.6875" lon="7.38053">
        <ele>250.2</ele>
        <time>2020-09-24T08:54:56Z</time>
      </trkpt>
      <trkpt lat="48.68758" lon="7.38059">
        <ele>249.2</ele>
        <time>2020-09-24T08:54:58Z</time>
      </trkpt>
      <trkpt lat="48.6876" lon="7.38063">
        <ele>248.6</ele>
        <time>2020-09-24T08:54:59Z</time>
      </trkpt>
      <trkpt lat="48.68764" lon="7.38067">
        <ele>247.6</ele>
        <time>2020-09-24T08:55:01Z</time>
      </trkpt>
      <trkpt lat="48.68768" lon="7.38068">
        <ele>247</ele>
        <time>2020-09-24T08:55:02Z</time>
      </trkpt>
      <trkpt lat="48.68772" lon="7.38063">
        <ele>246</ele>
        <time>2020-09-24T08:55:04Z</time>
      </trkpt>
      <trkpt lat="48.68777" lon="7.38058">
        <ele>245</ele>
        <time>2020-09-24T08:55:06Z</time>
      </trkpt>
      <trkpt lat="48.68779" lon="7.38057">
        <ele>244</ele>
        <time>2020-09-24T08:55:08Z</time>
      </trkpt>
      <trkpt lat="48.68787" lon="7.3807">
        <ele>242.8</ele>
        <time>2020-09-24T08:55:11Z</time>
      </trkpt>
      <trkpt lat="48.68797" lon="7.38086">
        <ele>242.2</ele>
        <time>2020-09-24T08:55:13Z</time>
      </trkpt>
      <trkpt lat="48.688" lon="7.38091">
        <ele>241.6</ele>
        <time>2020-09-24T08:55:15Z</time>
      </trkpt>
      <trkpt lat="48.68803" lon="7.38096">
        <ele>241.2</ele>
        <time>2020-09-24T08:55:16Z</time>
      </trkpt>
      <trkpt lat="48.68812" lon="7.38091">
        <ele>240.6</ele>
        <time>2020-09-24T08:55:18Z</time>
      </trkpt>
      <trkpt lat="48.68815" lon="7.38086">
        <ele>240.2</ele>
        <time>2020-09-24T08:55:19Z</time>
      </trkpt>
      <trkpt lat="48.68837" lon="7.38045">
        <ele>238</ele>
        <time>2020-09-24T08:55:27Z</time>
      </trkpt>
      <trkpt lat="48.68853" lon="7.38014">
        <ele>236.4</ele>
        <time>2020-09-24T08:55:33Z</time>
      </trkpt>
      <trkpt lat="48.68863" lon="7.37999">
        <ele>236</ele>
        <time>2020-09-24T08:55:36Z</time>
      </trkpt>
      <trkpt lat="48.68876" lon="7.37978">
        <ele>235.6</ele>
        <time>2020-09-24T08:55:40Z</time>
      </trkpt>
      <trkpt lat="48.68898" lon="7.37947">
        <ele>234.4</ele>
        <time>2020-09-24T08:55:47Z</time>
      </trkpt>
      <trkpt lat="48.68918" lon="7.37923">
        <ele>234.2</ele>
        <time>2020-09-24T08:55:53Z</time>
      </trkpt>
      <trkpt lat="48.68924" lon="7.37915">
        <ele>234</ele>
        <time>2020-09-24T08:55:55Z</time>
      </trkpt>
      <trkpt lat="48.68943" lon="7.37893">
        <ele>233.8</ele>
        <time>2020-09-24T08:56:02Z</time>
      </trkpt>
      <trkpt lat="48.68966" lon="7.37909">
        <ele>233.6</ele>
        <time>2020-09-24T08:56:06Z</time>
      </trkpt>
      <trkpt lat="48.68988" lon="7.37941">
        <ele>233</ele>
        <time>2020-09-24T08:56:14Z</time>
      </trkpt>
      <trkpt lat="48.69008" lon="7.37966">
        <ele>232.2</ele>
        <time>2020-09-24T08:56:20Z</time>
      </trkpt>
      <trkpt lat="48.69036" lon="7.38006">
        <ele>231.4</ele>
        <time>2020-09-24T08:56:28Z</time>
      </trkpt>
      <trkpt lat="48.69064" lon="7.38038">
        <ele>230.8</ele>
        <time>2020-09-24T08:56:34Z</time>
      </trkpt>
      <trkpt lat="48.69083" lon="7.38065">
        <ele>229.8</ele>
        <time>2020-09-24T08:56:39Z</time>
      </trkpt>
      <trkpt lat="48.69087" lon="7.3807">
        <ele>229.4</ele>
        <time>2020-09-24T08:56:41Z</time>
      </trkpt>
      <trkpt lat="48.69093" lon="7.38077">
        <ele>228.8</ele>
        <time>2020-09-24T08:56:45Z</time>
      </trkpt>
      <trkpt lat="48.69103" lon="7.38082">
        <ele>228.6</ele>
        <time>2020-09-24T08:56:48Z</time>
      </trkpt>
      <trkpt lat="48.69104" lon="7.3808">
        <ele>228.4</ele>
        <time>2020-09-24T08:56:50Z</time>
      </trkpt>
      <trkpt lat="48.69107" lon="7.38074">
        <ele>228.2</ele>
        <time>2020-09-24T08:56:53Z</time>
      </trkpt>
      <trkpt lat="48.69108" lon="7.38071">
        <ele>228</ele>
        <time>2020-09-24T08:56:55Z</time>
      </trkpt>
      <trkpt lat="48.69112" lon="7.38063">
        <ele>227.8</ele>
        <time>2020-09-24T08:56:57Z</time>
      </trkpt>
      <trkpt lat="48.69118" lon="7.38052">
        <ele>227.6</ele>
        <time>2020-09-24T08:56:59Z</time>
      </trkpt>
      <trkpt lat="48.69138" lon="7.3801">
        <ele>226.8</ele>
        <time>2020-09-24T08:57:06Z</time>
      </trkpt>
      <trkpt lat="48.69158" lon="7.37954">
        <ele>226</ele>
        <time>2020-09-24T08:57:14Z</time>
      </trkpt>
      <trkpt lat="48.6916" lon="7.37947">
        <ele>226</ele>
        <time>2020-09-24T08:57:15Z</time>
      </trkpt>
      <trkpt lat="48.69172" lon="7.3792">
        <ele>225.8</ele>
        <time>2020-09-24T08:57:19Z</time>
      </trkpt>
      <trkpt lat="48.69178" lon="7.37907">
        <ele>225.6</ele>
        <time>2020-09-24T08:57:21Z</time>
      </trkpt>
      <trkpt lat="48.69187" lon="7.37888">
        <ele>225.6</ele>
        <time>2020-09-24T08:57:24Z</time>
      </trkpt>
      <trkpt lat="48.69211" lon="7.37834">
        <ele>225.8</ele>
        <time>2020-09-24T08:57:32Z</time>
      </trkpt>
      <trkpt lat="48.6922" lon="7.37813">
        <ele>225.6</ele>
        <time>2020-09-24T08:57:35Z</time>
      </trkpt>
      <trkpt lat="48.6923" lon="7.37792">
        <ele>225.4</ele>
        <time>2020-09-24T08:57:38Z</time>
      </trkpt>
      <trkpt lat="48.69261" lon="7.37742">
        <ele>225.2</ele>
        <time>2020-09-24T08:57:46Z</time>
      </trkpt>
      <trkpt lat="48.69299" lon="7.37694">
        <ele>225</ele>
        <time>2020-09-24T08:57:55Z</time>
      </trkpt>
      <trkpt lat="48.69313" lon="7.37678">
        <ele>224.8</ele>
        <time>2020-09-24T08:57:58Z</time>
      </trkpt>
      <trkpt lat="48.69329" lon="7.37666">
        <ele>224.8</ele>
        <time>2020-09-24T08:58:01Z</time>
      </trkpt>
      <trkpt lat="48.69368" lon="7.37641">
        <ele>224</ele>
        <time>2020-09-24T08:58:08Z</time>
      </trkpt>
      <trkpt lat="48.69403" lon="7.37631">
        <ele>223.4</ele>
        <time>2020-09-24T08:58:14Z</time>
      </trkpt>
      <trkpt lat="48.69415" lon="7.37628">
        <ele>223.2</ele>
        <time>2020-09-24T08:58:16Z</time>
      </trkpt>
      <trkpt lat="48.69428" lon="7.37601">
        <ele>223.2</ele>
        <time>2020-09-24T08:58:18Z</time>
      </trkpt>
      <trkpt lat="48.6946" lon="7.37558">
        <ele>222.6</ele>
        <time>2020-09-24T08:58:26Z</time>
      </trkpt>
      <trkpt lat="48.69491" lon="7.37518">
        <ele>222.2</ele>
        <time>2020-09-24T08:58:33Z</time>
      </trkpt>
      <trkpt lat="48.69519" lon="7.37481">
        <ele>221.8</ele>
        <time>2020-09-24T08:58:40Z</time>
      </trkpt>
      <trkpt lat="48.6955" lon="7.37441">
        <ele>221.4</ele>
        <time>2020-09-24T08:58:48Z</time>
      </trkpt>
      <trkpt lat="48.69577" lon="7.37409">
        <ele>221.2</ele>
        <time>2020-09-24T08:58:55Z</time>
      </trkpt>
      <trkpt lat="48.69615" lon="7.37377">
        <ele>221.2</ele>
        <time>2020-09-24T08:59:04Z</time>
      </trkpt>
      <trkpt lat="48.69652" lon="7.37345">
        <ele>221.2</ele>
        <time>2020-09-24T08:59:13Z</time>
      </trkpt>
      <trkpt lat="48.69678" lon="7.37323">
        <ele>221.4</ele>
        <time>2020-09-24T08:59:20Z</time>
      </trkpt>
      <trkpt lat="48.69701" lon="7.37302">
        <ele>221.8</ele>
        <time>2020-09-24T08:59:27Z</time>
      </trkpt>
      <trkpt lat="48.69717" lon="7.37283">
        <ele>222</ele>
        <time>2020-09-24T08:59:34Z</time>
      </trkpt>
      <trkpt lat="48.69731" lon="7.37268">
        <ele>222.2</ele>
        <time>2020-09-24T08:59:40Z</time>
      </trkpt>
      <trkpt lat="48.69752" lon="7.37245">
        <ele>222.6</ele>
        <time>2020-09-24T08:59:49Z</time>
      </trkpt>
      <trkpt lat="48.69776" lon="7.37221">
        <ele>223</ele>
        <time>2020-09-24T08:59:58Z</time>
      </trkpt>
      <trkpt lat="48.69796" lon="7.37199">
        <ele>223.6</ele>
        <time>2020-09-24T09:00:05Z</time>
      </trkpt>
      <trkpt lat="48.69818" lon="7.37177">
        <ele>224</ele>
        <time>2020-09-24T09:00:12Z</time>
      </trkpt>
      <trkpt lat="48.69839" lon="7.37161">
        <ele>224</ele>
        <time>2020-09-24T09:00:18Z</time>
      </trkpt>
      <trkpt lat="48.69862" lon="7.37147">
        <ele>224.6</ele>
        <time>2020-09-24T09:00:25Z</time>
      </trkpt>
      <trkpt lat="48.69895" lon="7.37135">
        <ele>225.6</ele>
        <time>2020-09-24T09:00:35Z</time>
      </trkpt>
      <trkpt lat="48.69923" lon="7.37125">
        <ele>226.2</ele>
        <time>2020-09-24T09:00:43Z</time>
      </trkpt>
      <trkpt lat="48.6995" lon="7.37115">
        <ele>226.8</ele>
        <time>2020-09-24T09:00:51Z</time>
      </trkpt>
      <trkpt lat="48.69976" lon="7.371">
        <ele>228</ele>
        <time>2020-09-24T09:00:59Z</time>
      </trkpt>
      <trkpt lat="48.7" lon="7.37087">
        <ele>228.8</ele>
        <time>2020-09-24T09:01:06Z</time>
      </trkpt>
      <trkpt lat="48.70015" lon="7.37078">
        <ele>229.2</ele>
        <time>2020-09-24T09:01:10Z</time>
      </trkpt>
      <trkpt lat="48.70024" lon="7.37074">
        <ele>229.2</ele>
        <time>2020-09-24T09:01:12Z</time>
      </trkpt>
      <trkpt lat="48.70036" lon="7.37067">
        <ele>229.4</ele>
        <time>2020-09-24T09:01:15Z</time>
      </trkpt>
      <trkpt lat="48.70049" lon="7.37059">
        <ele>229.4</ele>
        <time>2020-09-24T09:01:18Z</time>
      </trkpt>
      <trkpt lat="48.70053" lon="7.37057">
        <ele>229.6</ele>
        <time>2020-09-24T09:01:19Z</time>
      </trkpt>
      <trkpt lat="48.70078" lon="7.37045">
        <ele>229.8</ele>
        <time>2020-09-24T09:01:25Z</time>
      </trkpt>
      <trkpt lat="48.70109" lon="7.37045">
        <ele>230</ele>
        <time>2020-09-24T09:01:32Z</time>
      </trkpt>
      <trkpt lat="48.70114" lon="7.37044">
        <ele>230.2</ele>
        <time>2020-09-24T09:01:33Z</time>
      </trkpt>
      <trkpt lat="48.70121" lon="7.37037">
        <ele>230.4</ele>
        <time>2020-09-24T09:01:35Z</time>
      </trkpt>
      <trkpt lat="48.70125" lon="7.37033">
        <ele>230.4</ele>
        <time>2020-09-24T09:01:36Z</time>
      </trkpt>
      <trkpt lat="48.70128" lon="7.3703">
        <ele>230.4</ele>
        <time>2020-09-24T09:01:37Z</time>
      </trkpt>
      <trkpt lat="48.70143" lon="7.37005">
        <ele>230.8</ele>
        <time>2020-09-24T09:01:42Z</time>
      </trkpt>
      <trkpt lat="48.70147" lon="7.37001">
        <ele>230.8</ele>
        <time>2020-09-24T09:01:43Z</time>
      </trkpt>
      <trkpt lat="48.7015" lon="7.36999">
        <ele>230.8</ele>
        <time>2020-09-24T09:01:44Z</time>
      </trkpt>
      <trkpt lat="48.70169" lon="7.36986">
        <ele>231</ele>
        <time>2020-09-24T09:01:49Z</time>
      </trkpt>
      <trkpt lat="48.70197" lon="7.36967">
        <ele>231.4</ele>
        <time>2020-09-24T09:01:57Z</time>
      </trkpt>
      <trkpt lat="48.70221" lon="7.36951">
        <ele>231.8</ele>
        <time>2020-09-24T09:02:05Z</time>
      </trkpt>
      <trkpt lat="48.70246" lon="7.36935">
        <ele>232.4</ele>
        <time>2020-09-24T09:02:13Z</time>
      </trkpt>
      <trkpt lat="48.70276" lon="7.36915">
        <ele>232.6</ele>
        <time>2020-09-24T09:02:21Z</time>
      </trkpt>
      <trkpt lat="48.70323" lon="7.36883">
        <ele>233</ele>
        <time>2020-09-24T09:02:31Z</time>
      </trkpt>
      <trkpt lat="48.70361" lon="7.36857">
        <ele>233.2</ele>
        <time>2020-09-24T09:02:39Z</time>
      </trkpt>
      <trkpt lat="48.7037" lon="7.36851">
        <ele>233.2</ele>
        <time>2020-09-24T09:02:41Z</time>
      </trkpt>
      <trkpt lat="48.7039" lon="7.36838">
        <ele>233.4</ele>
        <time>2020-09-24T09:02:45Z</time>
      </trkpt>
      <trkpt lat="48.7042" lon="7.36818">
        <ele>233.8</ele>
        <time>2020-09-24T09:02:52Z</time>
      </trkpt>
      <trkpt lat="48.7044" lon="7.36804">
        <ele>233.8</ele>
        <time>2020-09-24T09:02:58Z</time>
      </trkpt>
      <trkpt lat="48.70462" lon="7.3679">
        <ele>234.4</ele>
        <time>2020-09-24T09:03:06Z</time>
      </trkpt>
      <trkpt lat="48.7048" lon="7.36776">
        <ele>234.6</ele>
        <time>2020-09-24T09:03:14Z</time>
      </trkpt>
      <trkpt lat="48.70497" lon="7.36762">
        <ele>235</ele>
        <time>2020-09-24T09:03:21Z</time>
      </trkpt>
      <trkpt lat="48.7052" lon="7.36744">
        <ele>235.6</ele>
        <time>2020-09-24T09:03:29Z</time>
      </trkpt>
      <trkpt lat="48.70523" lon="7.36741">
        <ele>235.6</ele>
        <time>2020-09-24T09:03:30Z</time>
      </trkpt>
      <trkpt lat="48.70527" lon="7.36738">
        <ele>235.8</ele>
        <time>2020-09-24T09:03:32Z</time>
      </trkpt>
      <trkpt lat="48.70527" lon="7.36738">
        <ele>236.4</ele>
        <time>2020-09-24T09:03:36Z</time>
      </trkpt>
      <trkpt lat="48.70527" lon="7.36738">
        <ele>237.6</ele>
        <time>2020-09-24T09:03:59Z</time>
      </trkpt>
      <trkpt lat="48.70527" lon="7.36738">
        <ele>238.6</ele>
        <time>2020-09-24T09:04:25Z</time>
      </trkpt>
      <trkpt lat="48.70527" lon="7.36738">
        <ele>239.4</ele>
        <time>2020-09-24T09:04:48Z</time>
      </trkpt>
      <trkpt lat="48.70527" lon="7.36738">
        <ele>239.6</ele>
        <time>2020-09-24T09:05:09Z</time>
      </trkpt>
      <trkpt lat="48.70527" lon="7.36738">
        <ele>239.8</ele>
        <time>2020-09-24T09:05:10Z</time>
      </trkpt>
      <trkpt lat="48.70531" lon="7.36735">
        <ele>240</ele>
        <time>2020-09-24T09:05:16Z</time>
      </trkpt>
      <trkpt lat="48.70532" lon="7.36734">
        <ele>240</ele>
        <time>2020-09-24T09:05:20Z</time>
      </trkpt>
      <trkpt lat="48.70535" lon="7.36732">
        <ele>240</ele>
        <time>2020-09-24T09:05:22Z</time>
      </trkpt>
      <trkpt lat="48.70545" lon="7.36724">
        <ele>240</ele>
        <time>2020-09-24T09:05:26Z</time>
      </trkpt>
      <trkpt lat="48.70567" lon="7.36706">
        <ele>240.2</ele>
        <time>2020-09-24T09:05:33Z</time>
      </trkpt>
      <trkpt lat="48.7058" lon="7.36696">
        <ele>240.2</ele>
        <time>2020-09-24T09:05:37Z</time>
      </trkpt>
      <trkpt lat="48.70587" lon="7.36689">
        <ele>240</ele>
        <time>2020-09-24T09:05:39Z</time>
      </trkpt>
      <trkpt lat="48.7061" lon="7.36671">
        <ele>239.8</ele>
        <time>2020-09-24T09:05:45Z</time>
      </trkpt>
      <trkpt lat="48.70646" lon="7.36642">
        <ele>239.6</ele>
        <time>2020-09-24T09:05:54Z</time>
      </trkpt>
      <trkpt lat="48.70673" lon="7.36614">
        <ele>239</ele>
        <time>2020-09-24T09:06:00Z</time>
      </trkpt>
      <trkpt lat="48.70712" lon="7.36584">
        <ele>238.4</ele>
        <time>2020-09-24T09:06:07Z</time>
      </trkpt>
      <trkpt lat="48.70762" lon="7.36542">
        <ele>237.4</ele>
        <time>2020-09-24T09:06:15Z</time>
      </trkpt>
      <trkpt lat="48.70815" lon="7.36497">
        <ele>236.4</ele>
        <time>2020-09-24T09:06:23Z</time>
      </trkpt>
      <trkpt lat="48.70828" lon="7.36486">
        <ele>236.2</ele>
        <time>2020-09-24T09:06:25Z</time>
      </trkpt>
      <trkpt lat="48.70879" lon="7.36443">
        <ele>235.2</ele>
        <time>2020-09-24T09:06:33Z</time>
      </trkpt>
      <trkpt lat="48.70918" lon="7.36413">
        <ele>234.6</ele>
        <time>2020-09-24T09:06:40Z</time>
      </trkpt>
      <trkpt lat="48.70942" lon="7.36405">
        <ele>234</ele>
        <time>2020-09-24T09:06:44Z</time>
      </trkpt>
      <trkpt lat="48.70954" lon="7.36401">
        <ele>233.8</ele>
        <time>2020-09-24T09:06:46Z</time>
      </trkpt>
      <trkpt lat="48.70966" lon="7.364">
        <ele>233.6</ele>
        <time>2020-09-24T09:06:48Z</time>
      </trkpt>
      <trkpt lat="48.70978" lon="7.36401">
        <ele>233.6</ele>
        <time>2020-09-24T09:06:50Z</time>
      </trkpt>
      <trkpt lat="48.70984" lon="7.36401">
        <ele>233.4</ele>
        <time>2020-09-24T09:06:51Z</time>
      </trkpt>
      <trkpt lat="48.70998" lon="7.36402">
        <ele>233</ele>
        <time>2020-09-24T09:06:54Z</time>
      </trkpt>
      <trkpt lat="48.71002" lon="7.36402">
        <ele>233</ele>
        <time>2020-09-24T09:06:55Z</time>
      </trkpt>
      <trkpt lat="48.71006" lon="7.36402">
        <ele>232.8</ele>
        <time>2020-09-24T09:06:56Z</time>
      </trkpt>
      <trkpt lat="48.71015" lon="7.36402">
        <ele>232.6</ele>
        <time>2020-09-24T09:06:58Z</time>
      </trkpt>
      <trkpt lat="48.71046" lon="7.36402">
        <ele>232</ele>
        <time>2020-09-24T09:07:04Z</time>
      </trkpt>
      <trkpt lat="48.71097" lon="7.36402">
        <ele>231.4</ele>
        <time>2020-09-24T09:07:13Z</time>
      </trkpt>
      <trkpt lat="48.71103" lon="7.36402">
        <ele>231.2</ele>
        <time>2020-09-24T09:07:14Z</time>
      </trkpt>
      <trkpt lat="48.71131" lon="7.36402">
        <ele>230.8</ele>
        <time>2020-09-24T09:07:19Z</time>
      </trkpt>
      <trkpt lat="48.7118" lon="7.36402">
        <ele>230.2</ele>
        <time>2020-09-24T09:07:27Z</time>
      </trkpt>
      <trkpt lat="48.71237" lon="7.36402">
        <ele>229</ele>
        <time>2020-09-24T09:07:36Z</time>
      </trkpt>
      <trkpt lat="48.71286" lon="7.36402">
        <ele>228.2</ele>
        <time>2020-09-24T09:07:43Z</time>
      </trkpt>
      <trkpt lat="48.71343" lon="7.364">
        <ele>227</ele>
        <time>2020-09-24T09:07:51Z</time>
      </trkpt>
      <trkpt lat="48.71398" lon="7.36389">
        <ele>225.8</ele>
        <time>2020-09-24T09:07:58Z</time>
      </trkpt>
      <trkpt lat="48.71414" lon="7.36386">
        <ele>225.4</ele>
        <time>2020-09-24T09:08:00Z</time>
      </trkpt>
      <trkpt lat="48.71465" lon="7.36365">
        <ele>223.8</ele>
        <time>2020-09-24T09:08:06Z</time>
      </trkpt>
      <trkpt lat="48.71519" lon="7.36342">
        <ele>222</ele>
        <time>2020-09-24T09:08:12Z</time>
      </trkpt>
      <trkpt lat="48.71538" lon="7.36333">
        <ele>221.4</ele>
        <time>2020-09-24T09:08:14Z</time>
      </trkpt>
      <trkpt lat="48.716" lon="7.36307">
        <ele>219.2</ele>
        <time>2020-09-24T09:08:20Z</time>
      </trkpt>
      <trkpt lat="48.7161" lon="7.36303">
        <ele>218.8</ele>
        <time>2020-09-24T09:08:21Z</time>
      </trkpt>
      <trkpt lat="48.71663" lon="7.36282">
        <ele>217</ele>
        <time>2020-09-24T09:08:26Z</time>
      </trkpt>
      <trkpt lat="48.71683" lon="7.36275">
        <ele>216.2</ele>
        <time>2020-09-24T09:08:28Z</time>
      </trkpt>
      <trkpt lat="48.71733" lon="7.36247">
        <ele>214.4</ele>
        <time>2020-09-24T09:08:34Z</time>
      </trkpt>
      <trkpt lat="48.71778" lon="7.36223">
        <ele>212.4</ele>
        <time>2020-09-24T09:08:40Z</time>
      </trkpt>
      <trkpt lat="48.71804" lon="7.36209">
        <ele>211</ele>
        <time>2020-09-24T09:08:44Z</time>
      </trkpt>
      <trkpt lat="48.7181" lon="7.36206">
        <ele>210.8</ele>
        <time>2020-09-24T09:08:45Z</time>
      </trkpt>
      <trkpt lat="48.71818" lon="7.36203">
        <ele>210.4</ele>
        <time>2020-09-24T09:08:46Z</time>
      </trkpt>
      <trkpt lat="48.71836" lon="7.36214">
        <ele>209.8</ele>
        <time>2020-09-24T09:08:49Z</time>
      </trkpt>
      <trkpt lat="48.7189" lon="7.36247">
        <ele>207.8</ele>
        <time>2020-09-24T09:08:58Z</time>
      </trkpt>
      <trkpt lat="48.71902" lon="7.36254">
        <ele>207.4</ele>
        <time>2020-09-24T09:08:59Z</time>
      </trkpt>
      <trkpt lat="48.71919" lon="7.36264">
        <ele>206.4</ele>
        <time>2020-09-24T09:09:03Z</time>
      </trkpt>
      <trkpt lat="48.71931" lon="7.36271">
        <ele>205.8</ele>
        <time>2020-09-24T09:09:05Z</time>
      </trkpt>
      <trkpt lat="48.71942" lon="7.36278">
        <ele>205.2</ele>
        <time>2020-09-24T09:09:07Z</time>
      </trkpt>
      <trkpt lat="48.71958" lon="7.36288">
        <ele>204.4</ele>
        <time>2020-09-24T09:09:10Z</time>
      </trkpt>
      <trkpt lat="48.71969" lon="7.36289">
        <ele>204</ele>
        <time>2020-09-24T09:09:12Z</time>
      </trkpt>
      <trkpt lat="48.71975" lon="7.3629">
        <ele>204</ele>
        <time>2020-09-24T09:09:13Z</time>
      </trkpt>
      <trkpt lat="48.72009" lon="7.36278">
        <ele>202.6</ele>
        <time>2020-09-24T09:09:20Z</time>
      </trkpt>
      <trkpt lat="48.72035" lon="7.36262">
        <ele>202.2</ele>
        <time>2020-09-24T09:09:26Z</time>
      </trkpt>
      <trkpt lat="48.72058" lon="7.36246">
        <ele>202</ele>
        <time>2020-09-24T09:09:33Z</time>
      </trkpt>
      <trkpt lat="48.72075" lon="7.36231">
        <ele>202.2</ele>
        <time>2020-09-24T09:09:40Z</time>
      </trkpt>
      <trkpt lat="48.72097" lon="7.36213">
        <ele>202.6</ele>
        <time>2020-09-24T09:09:50Z</time>
      </trkpt>
      <trkpt lat="48.72111" lon="7.36203">
        <ele>202.8</ele>
        <time>2020-09-24T09:09:56Z</time>
      </trkpt>
      <trkpt lat="48.72128" lon="7.36194">
        <ele>203.2</ele>
        <time>2020-09-24T09:10:03Z</time>
      </trkpt>
      <trkpt lat="48.72149" lon="7.36184">
        <ele>203.4</ele>
        <time>2020-09-24T09:10:12Z</time>
      </trkpt>
      <trkpt lat="48.72168" lon="7.36174">
        <ele>204</ele>
        <time>2020-09-24T09:10:20Z</time>
      </trkpt>
      <trkpt lat="48.72184" lon="7.36162">
        <ele>204.4</ele>
        <time>2020-09-24T09:10:27Z</time>
      </trkpt>
      <trkpt lat="48.72199" lon="7.3615">
        <ele>205</ele>
        <time>2020-09-24T09:10:34Z</time>
      </trkpt>
      <trkpt lat="48.72216" lon="7.36137">
        <ele>205.4</ele>
        <time>2020-09-24T09:10:41Z</time>
      </trkpt>
      <trkpt lat="48.72237" lon="7.36121">
        <ele>205.8</ele>
        <time>2020-09-24T09:10:48Z</time>
      </trkpt>
      <trkpt lat="48.72254" lon="7.36112">
        <ele>206</ele>
        <time>2020-09-24T09:10:53Z</time>
      </trkpt>
      <trkpt lat="48.72263" lon="7.36111">
        <ele>206.2</ele>
        <time>2020-09-24T09:10:55Z</time>
      </trkpt>
      <trkpt lat="48.72273" lon="7.36109">
        <ele>206.2</ele>
        <time>2020-09-24T09:10:57Z</time>
      </trkpt>
      <trkpt lat="48.72279" lon="7.36108">
        <ele>206.2</ele>
        <time>2020-09-24T09:10:58Z</time>
      </trkpt>
      <trkpt lat="48.72303" lon="7.36119">
        <ele>206</ele>
        <time>2020-09-24T09:11:02Z</time>
      </trkpt>
      <trkpt lat="48.72343" lon="7.36136">
        <ele>206</ele>
        <time>2020-09-24T09:11:09Z</time>
      </trkpt>
      <trkpt lat="48.72363" lon="7.36145">
        <ele>206.2</ele>
        <time>2020-09-24T09:11:13Z</time>
      </trkpt>
      <trkpt lat="48.72372" lon="7.36148">
        <ele>206.2</ele>
        <time>2020-09-24T09:11:15Z</time>
      </trkpt>
      <trkpt lat="48.72386" lon="7.36153">
        <ele>206.2</ele>
        <time>2020-09-24T09:11:19Z</time>
      </trkpt>
      <trkpt lat="48.72405" lon="7.36161">
        <ele>206.4</ele>
        <time>2020-09-24T09:11:25Z</time>
      </trkpt>
      <trkpt lat="48.72424" lon="7.36168">
        <ele>206.8</ele>
        <time>2020-09-24T09:11:32Z</time>
      </trkpt>
      <trkpt lat="48.72436" lon="7.36172">
        <ele>207.4</ele>
        <time>2020-09-24T09:11:38Z</time>
      </trkpt>
      <trkpt lat="48.7245" lon="7.36178">
        <ele>208.2</ele>
        <time>2020-09-24T09:11:45Z</time>
      </trkpt>
      <trkpt lat="48.72462" lon="7.36182">
        <ele>209</ele>
        <time>2020-09-24T09:11:51Z</time>
      </trkpt>
      <trkpt lat="48.72474" lon="7.36185">
        <ele>209.6</ele>
        <time>2020-09-24T09:11:57Z</time>
      </trkpt>
      <trkpt lat="48.72491" lon="7.3619">
        <ele>210.6</ele>
        <time>2020-09-24T09:12:05Z</time>
      </trkpt>
      <trkpt lat="48.72505" lon="7.36194">
        <ele>211.4</ele>
        <time>2020-09-24T09:12:12Z</time>
      </trkpt>
      <trkpt lat="48.72523" lon="7.362">
        <ele>212.4</ele>
        <time>2020-09-24T09:12:21Z</time>
      </trkpt>
      <trkpt lat="48.72537" lon="7.36204">
        <ele>213.4</ele>
        <time>2020-09-24T09:12:28Z</time>
      </trkpt>
      <trkpt lat="48.7255" lon="7.36208">
        <ele>214.4</ele>
        <time>2020-09-24T09:12:35Z</time>
      </trkpt>
      <trkpt lat="48.72563" lon="7.36212">
        <ele>215.4</ele>
        <time>2020-09-24T09:12:42Z</time>
      </trkpt>
      <trkpt lat="48.72573" lon="7.36215">
        <ele>216.4</ele>
        <time>2020-09-24T09:12:48Z</time>
      </trkpt>
      <trkpt lat="48.7259" lon="7.3622">
        <ele>217.8</ele>
        <time>2020-09-24T09:12:56Z</time>
      </trkpt>
      <trkpt lat="48.72609" lon="7.36225">
        <ele>219.6</ele>
        <time>2020-09-24T09:13:05Z</time>
      </trkpt>
      <trkpt lat="48.72625" lon="7.3623">
        <ele>221</ele>
        <time>2020-09-24T09:13:13Z</time>
      </trkpt>
      <trkpt lat="48.72635" lon="7.36233">
        <ele>222.2</ele>
        <time>2020-09-24T09:13:19Z</time>
      </trkpt>
      <trkpt lat="48.72637" lon="7.36233">
        <ele>222.4</ele>
        <time>2020-09-24T09:13:20Z</time>
      </trkpt>
      <trkpt lat="48.72649" lon="7.36237">
        <ele>223.8</ele>
        <time>2020-09-24T09:13:27Z</time>
      </trkpt>
      <trkpt lat="48.72666" lon="7.36242">
        <ele>225.2</ele>
        <time>2020-09-24T09:13:35Z</time>
      </trkpt>
      <trkpt lat="48.72684" lon="7.36247">
        <ele>226.6</ele>
        <time>2020-09-24T09:13:44Z</time>
      </trkpt>
      <trkpt lat="48.72698" lon="7.36252">
        <ele>228</ele>
        <time>2020-09-24T09:13:51Z</time>
      </trkpt>
      <trkpt lat="48.72714" lon="7.36256">
        <ele>229.4</ele>
        <time>2020-09-24T09:13:58Z</time>
      </trkpt>
      <trkpt lat="48.72737" lon="7.36263">
        <ele>230.8</ele>
        <time>2020-09-24T09:14:08Z</time>
      </trkpt>
      <trkpt lat="48.72753" lon="7.36266">
        <ele>231.6</ele>
        <time>2020-09-24T09:14:15Z</time>
      </trkpt>
      <trkpt lat="48.72765" lon="7.36266">
        <ele>232</ele>
        <time>2020-09-24T09:14:20Z</time>
      </trkpt>
      <trkpt lat="48.72781" lon="7.36266">
        <ele>232.8</ele>
        <time>2020-09-24T09:14:26Z</time>
      </trkpt>
      <trkpt lat="48.72807" lon="7.36266">
        <ele>234</ele>
        <time>2020-09-24T09:14:36Z</time>
      </trkpt>
      <trkpt lat="48.72821" lon="7.36266">
        <ele>235</ele>
        <time>2020-09-24T09:14:42Z</time>
      </trkpt>
      <trkpt lat="48.72823" lon="7.36266">
        <ele>235</ele>
        <time>2020-09-24T09:14:43Z</time>
      </trkpt>
      <trkpt lat="48.72829" lon="7.36266">
        <ele>235.2</ele>
        <time>2020-09-24T09:14:45Z</time>
      </trkpt>
      <trkpt lat="48.7284" lon="7.36254">
        <ele>235.8</ele>
        <time>2020-09-24T09:14:51Z</time>
      </trkpt>
      <trkpt lat="48.72854" lon="7.36237">
        <ele>236.4</ele>
        <time>2020-09-24T09:14:58Z</time>
      </trkpt>
      <trkpt lat="48.72864" lon="7.36219">
        <ele>236.6</ele>
        <time>2020-09-24T09:15:03Z</time>
      </trkpt>
      <trkpt lat="48.72877" lon="7.36193">
        <ele>237</ele>
        <time>2020-09-24T09:15:10Z</time>
      </trkpt>
      <trkpt lat="48.72896" lon="7.36157">
        <ele>237.4</ele>
        <time>2020-09-24T09:15:17Z</time>
      </trkpt>
      <trkpt lat="48.72929" lon="7.36103">
        <ele>237.8</ele>
        <time>2020-09-24T09:15:27Z</time>
      </trkpt>
      <trkpt lat="48.72952" lon="7.36064">
        <ele>237.8</ele>
        <time>2020-09-24T09:15:34Z</time>
      </trkpt>
      <trkpt lat="48.72955" lon="7.36058">
        <ele>237.8</ele>
        <time>2020-09-24T09:15:35Z</time>
      </trkpt>
      <trkpt lat="48.72966" lon="7.36032">
        <ele>238</ele>
        <time>2020-09-24T09:15:39Z</time>
      </trkpt>
      <trkpt lat="48.7298" lon="7.35993">
        <ele>238</ele>
        <time>2020-09-24T09:15:45Z</time>
      </trkpt>
      <trkpt lat="48.72989" lon="7.35965">
        <ele>238</ele>
        <time>2020-09-24T09:15:49Z</time>
      </trkpt>
      <trkpt lat="48.72998" lon="7.35937">
        <ele>238</ele>
        <time>2020-09-24T09:15:53Z</time>
      </trkpt>
      <trkpt lat="48.73013" lon="7.35881">
        <ele>238</ele>
        <time>2020-09-24T09:16:01Z</time>
      </trkpt>
      <trkpt lat="48.73024" lon="7.35831">
        <ele>238</ele>
        <time>2020-09-24T09:16:08Z</time>
      </trkpt>
      <trkpt lat="48.73035" lon="7.35773">
        <ele>238</ele>
        <time>2020-09-24T09:16:16Z</time>
      </trkpt>
      <trkpt lat="48.73043" lon="7.35732">
        <ele>238</ele>
        <time>2020-09-24T09:16:22Z</time>
      </trkpt>
      <trkpt lat="48.73046" lon="7.35719">
        <ele>238</ele>
        <time>2020-09-24T09:16:24Z</time>
      </trkpt>
      <trkpt lat="48.73053" lon="7.357">
        <ele>238</ele>
        <time>2020-09-24T09:16:27Z</time>
      </trkpt>
      <trkpt lat="48.73056" lon="7.35694">
        <ele>238</ele>
        <time>2020-09-24T09:16:28Z</time>
      </trkpt>
      <trkpt lat="48.7306" lon="7.35682">
        <ele>238</ele>
        <time>2020-09-24T09:16:30Z</time>
      </trkpt>
      <trkpt lat="48.7307" lon="7.35666">
        <ele>238.2</ele>
        <time>2020-09-24T09:16:32Z</time>
      </trkpt>
      <trkpt lat="48.7307" lon="7.35666">
        <ele>238.2</ele>
        <time>2020-09-24T09:16:33Z</time>
      </trkpt>
      <trkpt lat="48.73101" lon="7.35632">
        <ele>238.2</ele>
        <time>2020-09-24T09:16:41Z</time>
      </trkpt>
      <trkpt lat="48.73131" lon="7.35604">
        <ele>238</ele>
        <time>2020-09-24T09:16:48Z</time>
      </trkpt>
      <trkpt lat="48.7314" lon="7.35597">
        <ele>238</ele>
        <time>2020-09-24T09:16:50Z</time>
      </trkpt>
      <trkpt lat="48.73158" lon="7.35585">
        <ele>237.8</ele>
        <time>2020-09-24T09:16:53Z</time>
      </trkpt>
      <trkpt lat="48.73167" lon="7.3558">
        <ele>237.8</ele>
        <time>2020-09-24T09:16:56Z</time>
      </trkpt>
      <trkpt lat="48.73175" lon="7.35574">
        <ele>237.8</ele>
        <time>2020-09-24T09:16:58Z</time>
      </trkpt>
      <trkpt lat="48.73184" lon="7.35568">
        <ele>237.6</ele>
        <time>2020-09-24T09:17:00Z</time>
      </trkpt>
      <trkpt lat="48.73193" lon="7.35563">
        <ele>237.6</ele>
        <time>2020-09-24T09:17:02Z</time>
      </trkpt>
      <trkpt lat="48.73201" lon="7.35581">
        <ele>237.2</ele>
        <time>2020-09-24T09:17:04Z</time>
      </trkpt>
      <trkpt lat="48.73201" lon="7.35581">
        <ele>237.2</ele>
        <time>2020-09-24T09:17:05Z</time>
      </trkpt>
      <trkpt lat="48.73204" lon="7.35592">
        <ele>237</ele>
        <time>2020-09-24T09:17:07Z</time>
      </trkpt>
      <trkpt lat="48.73204" lon="7.35595">
        <ele>237</ele>
        <time>2020-09-24T09:17:08Z</time>
      </trkpt>
      <trkpt lat="48.73214" lon="7.35595">
        <ele>236.8</ele>
        <time>2020-09-24T09:17:10Z</time>
      </trkpt>
      <trkpt lat="48.73216" lon="7.35592">
        <ele>236.8</ele>
        <time>2020-09-24T09:17:11Z</time>
      </trkpt>
      <trkpt lat="48.73232" lon="7.35566">
        <ele>236.6</ele>
        <time>2020-09-24T09:17:17Z</time>
      </trkpt>
      <trkpt lat="48.73247" lon="7.35543">
        <ele>236.8</ele>
        <time>2020-09-24T09:17:24Z</time>
      </trkpt>
      <trkpt lat="48.73258" lon="7.35526">
        <ele>237.2</ele>
        <time>2020-09-24T09:17:30Z</time>
      </trkpt>
      <trkpt lat="48.73273" lon="7.35506">
        <ele>237.2</ele>
        <time>2020-09-24T09:17:38Z</time>
      </trkpt>
      <trkpt lat="48.7329" lon="7.35495">
        <ele>237.6</ele>
        <time>2020-09-24T09:17:46Z</time>
      </trkpt>
      <trkpt lat="48.73305" lon="7.35485">
        <ele>237.8</ele>
        <time>2020-09-24T09:17:53Z</time>
      </trkpt>
      <trkpt lat="48.7332" lon="7.35475">
        <ele>238.4</ele>
        <time>2020-09-24T09:18:00Z</time>
      </trkpt>
      <trkpt lat="48.73336" lon="7.35463">
        <ele>239</ele>
        <time>2020-09-24T09:18:08Z</time>
      </trkpt>
      <trkpt lat="48.73351" lon="7.35453">
        <ele>239.6</ele>
        <time>2020-09-24T09:18:15Z</time>
      </trkpt>
      <trkpt lat="48.73363" lon="7.35445">
        <ele>240.2</ele>
        <time>2020-09-24T09:18:21Z</time>
      </trkpt>
      <trkpt lat="48.73378" lon="7.35433">
        <ele>241.2</ele>
        <time>2020-09-24T09:18:28Z</time>
      </trkpt>
      <trkpt lat="48.73397" lon="7.35419">
        <ele>242.2</ele>
        <time>2020-09-24T09:18:36Z</time>
      </trkpt>
      <trkpt lat="48.73397" lon="7.35405">
        <ele>242.8</ele>
        <time>2020-09-24T09:18:41Z</time>
      </trkpt>
      <trkpt lat="48.7339" lon="7.35375">
        <ele>243.2</ele>
        <time>2020-09-24T09:18:47Z</time>
      </trkpt>
      <trkpt lat="48.73381" lon="7.35338">
        <ele>244</ele>
        <time>2020-09-24T09:18:55Z</time>
      </trkpt>
      <trkpt lat="48.73365" lon="7.35275">
        <ele>245</ele>
        <time>2020-09-24T09:19:06Z</time>
      </trkpt>
      <trkpt lat="48.73361" lon="7.35232">
        <ele>245.4</ele>
        <time>2020-09-24T09:19:13Z</time>
      </trkpt>
      <trkpt lat="48.73361" lon="7.35192">
        <ele>246</ele>
        <time>2020-09-24T09:19:21Z</time>
      </trkpt>
      <trkpt lat="48.73361" lon="7.35166">
        <ele>246.8</ele>
        <time>2020-09-24T09:19:27Z</time>
      </trkpt>
      <trkpt lat="48.7337" lon="7.35138">
        <ele>247.4</ele>
        <time>2020-09-24T09:19:34Z</time>
      </trkpt>
      <trkpt lat="48.73372" lon="7.35103">
        <ele>248.4</ele>
        <time>2020-09-24T09:19:44Z</time>
      </trkpt>
      <trkpt lat="48.73373" lon="7.35065">
        <ele>249.6</ele>
        <time>2020-09-24T09:19:54Z</time>
      </trkpt>
      <trkpt lat="48.73374" lon="7.35039">
        <ele>250.4</ele>
        <time>2020-09-24T09:20:01Z</time>
      </trkpt>
      <trkpt lat="48.73374" lon="7.35009">
        <ele>251.4</ele>
        <time>2020-09-24T09:20:09Z</time>
      </trkpt>
      <trkpt lat="48.73375" lon="7.34986">
        <ele>252.4</ele>
        <time>2020-09-24T09:20:16Z</time>
      </trkpt>
      <trkpt lat="48.73378" lon="7.34966">
        <ele>253</ele>
        <time>2020-09-24T09:20:22Z</time>
      </trkpt>
      <trkpt lat="48.73385" lon="7.34936">
        <ele>253.8</ele>
        <time>2020-09-24T09:20:30Z</time>
      </trkpt>
      <trkpt lat="48.734" lon="7.34931">
        <ele>254.2</ele>
        <time>2020-09-24T09:20:36Z</time>
      </trkpt>
      <trkpt lat="48.73411" lon="7.3493">
        <ele>254.6</ele>
        <time>2020-09-24T09:20:41Z</time>
      </trkpt>
      <trkpt lat="48.73429" lon="7.34928">
        <ele>255.2</ele>
        <time>2020-09-24T09:20:49Z</time>
      </trkpt>
      <trkpt lat="48.73445" lon="7.34927">
        <ele>255.4</ele>
        <time>2020-09-24T09:20:55Z</time>
      </trkpt>
      <trkpt lat="48.73458" lon="7.34925">
        <ele>255.4</ele>
        <time>2020-09-24T09:21:00Z</time>
      </trkpt>
      <trkpt lat="48.73479" lon="7.34928">
        <ele>255.4</ele>
        <time>2020-09-24T09:21:07Z</time>
      </trkpt>
      <trkpt lat="48.73495" lon="7.34932">
        <ele>255.4</ele>
        <time>2020-09-24T09:21:11Z</time>
      </trkpt>
      <trkpt lat="48.73517" lon="7.34945">
        <ele>255.4</ele>
        <time>2020-09-24T09:21:15Z</time>
      </trkpt>
      <trkpt lat="48.7355" lon="7.34964">
        <ele>254.6</ele>
        <time>2020-09-24T09:21:19Z</time>
      </trkpt>
      <trkpt lat="48.73611" lon="7.34998">
        <ele>253.2</ele>
        <time>2020-09-24T09:21:25Z</time>
      </trkpt>
      <trkpt lat="48.7367" lon="7.35032">
        <ele>252.2</ele>
        <time>2020-09-24T09:21:29Z</time>
      </trkpt>
      <trkpt lat="48.7367" lon="7.35032">
        <ele>251.8</ele>
        <time>2020-09-24T09:21:30Z</time>
      </trkpt>
      <trkpt lat="48.73719" lon="7.35068">
        <ele>250.6</ele>
        <time>2020-09-24T09:21:34Z</time>
      </trkpt>
      <trkpt lat="48.73743" lon="7.3509">
        <ele>249.8</ele>
        <time>2020-09-24T09:21:36Z</time>
      </trkpt>
      <trkpt lat="48.73791" lon="7.35139">
        <ele>247.8</ele>
        <time>2020-09-24T09:21:40Z</time>
      </trkpt>
      <trkpt lat="48.7384" lon="7.35198">
        <ele>245.6</ele>
        <time>2020-09-24T09:21:44Z</time>
      </trkpt>
      <trkpt lat="48.73865" lon="7.35228">
        <ele>244.2</ele>
        <time>2020-09-24T09:21:46Z</time>
      </trkpt>
      <trkpt lat="48.73905" lon="7.35277">
        <ele>241.4</ele>
        <time>2020-09-24T09:21:50Z</time>
      </trkpt>
      <trkpt lat="48.73922" lon="7.35298">
        <ele>239.8</ele>
        <time>2020-09-24T09:21:52Z</time>
      </trkpt>
      <trkpt lat="48.73937" lon="7.35328">
        <ele>239</ele>
        <time>2020-09-24T09:21:53Z</time>
      </trkpt>
      <trkpt lat="48.73946" lon="7.35341">
        <ele>238.2</ele>
        <time>2020-09-24T09:21:54Z</time>
      </trkpt>
      <trkpt lat="48.73956" lon="7.35353">
        <ele>236.8</ele>
        <time>2020-09-24T09:21:56Z</time>
      </trkpt>
      <trkpt lat="48.74013" lon="7.35422">
        <ele>233.4</ele>
        <time>2020-09-24T09:22:01Z</time>
      </trkpt>
      <trkpt lat="48.74013" lon="7.35422">
        <ele>232.8</ele>
        <time>2020-09-24T09:22:02Z</time>
      </trkpt>
      <trkpt lat="48.74037" lon="7.3545">
        <ele>231.6</ele>
        <time>2020-09-24T09:22:04Z</time>
      </trkpt>
      <trkpt lat="48.74037" lon="7.3545">
        <ele>231</ele>
        <time>2020-09-24T09:22:05Z</time>
      </trkpt>
      <trkpt lat="48.74038" lon="7.35462">
        <ele>230.4</ele>
        <time>2020-09-24T09:22:06Z</time>
      </trkpt>
      <trkpt lat="48.7404" lon="7.3548">
        <ele>229.4</ele>
        <time>2020-09-24T09:22:08Z</time>
      </trkpt>
      <trkpt lat="48.74041" lon="7.35503">
        <ele>226.6</ele>
        <time>2020-09-24T09:22:13Z</time>
      </trkpt>
      <trkpt lat="48.74043" lon="7.35516">
        <ele>226</ele>
        <time>2020-09-24T09:22:14Z</time>
      </trkpt>
      <trkpt lat="48.74043" lon="7.35516">
        <ele>225.6</ele>
        <time>2020-09-24T09:22:15Z</time>
      </trkpt>
      <trkpt lat="48.74052" lon="7.35547">
        <ele>223</ele>
        <time>2020-09-24T09:22:20Z</time>
      </trkpt>
      <trkpt lat="48.74058" lon="7.35563">
        <ele>221.6</ele>
        <time>2020-09-24T09:22:23Z</time>
      </trkpt>
      <trkpt lat="48.74072" lon="7.35604">
        <ele>219</ele>
        <time>2020-09-24T09:22:30Z</time>
      </trkpt>
      <trkpt lat="48.74076" lon="7.35615">
        <ele>218.2</ele>
        <time>2020-09-24T09:22:32Z</time>
      </trkpt>
      <trkpt lat="48.74077" lon="7.3566">
        <ele>215.6</ele>
        <time>2020-09-24T09:22:39Z</time>
      </trkpt>
      <trkpt lat="48.74076" lon="7.35704">
        <ele>213.2</ele>
        <time>2020-09-24T09:22:46Z</time>
      </trkpt>
      <trkpt lat="48.74076" lon="7.3572">
        <ele>211.6</ele>
        <time>2020-09-24T09:22:50Z</time>
      </trkpt>
      <trkpt lat="48.74074" lon="7.35756">
        <ele>210.2</ele>
        <time>2020-09-24T09:22:56Z</time>
      </trkpt>
      <trkpt lat="48.74071" lon="7.35781">
        <ele>209.2</ele>
        <time>2020-09-24T09:23:00Z</time>
      </trkpt>
      <trkpt lat="48.74071" lon="7.35793">
        <ele>208.6</ele>
        <time>2020-09-24T09:23:02Z</time>
      </trkpt>
      <trkpt lat="48.74071" lon="7.358">
        <ele>208.4</ele>
        <time>2020-09-24T09:23:03Z</time>
      </trkpt>
      <trkpt lat="48.7407" lon="7.35826">
        <ele>207.8</ele>
        <time>2020-09-24T09:23:07Z</time>
      </trkpt>
      <trkpt lat="48.74069" lon="7.35838">
        <ele>207.6</ele>
        <time>2020-09-24T09:23:09Z</time>
      </trkpt>
      <trkpt lat="48.74069" lon="7.35851">
        <ele>207.2</ele>
        <time>2020-09-24T09:23:11Z</time>
      </trkpt>
      <trkpt lat="48.74069" lon="7.35864">
        <ele>207</ele>
        <time>2020-09-24T09:23:13Z</time>
      </trkpt>
      <trkpt lat="48.74069" lon="7.35877">
        <ele>206.6</ele>
        <time>2020-09-24T09:23:15Z</time>
      </trkpt>
      <trkpt lat="48.74069" lon="7.3589">
        <ele>206.2</ele>
        <time>2020-09-24T09:23:17Z</time>
      </trkpt>
      <trkpt lat="48.74069" lon="7.35896">
        <ele>206</ele>
        <time>2020-09-24T09:23:18Z</time>
      </trkpt>
      <trkpt lat="48.74069" lon="7.35923">
        <ele>205.6</ele>
        <time>2020-09-24T09:23:22Z</time>
      </trkpt>
      <trkpt lat="48.74072" lon="7.35936">
        <ele>205.2</ele>
        <time>2020-09-24T09:23:24Z</time>
      </trkpt>
      <trkpt lat="48.74079" lon="7.35948">
        <ele>205</ele>
        <time>2020-09-24T09:23:26Z</time>
      </trkpt>
      <trkpt lat="48.74083" lon="7.35954">
        <ele>204.6</ele>
        <time>2020-09-24T09:23:27Z</time>
      </trkpt>
      <trkpt lat="48.74091" lon="7.35968">
        <ele>204.2</ele>
        <time>2020-09-24T09:23:30Z</time>
      </trkpt>
      <trkpt lat="48.74093" lon="7.35971">
        <ele>203.6</ele>
        <time>2020-09-24T09:23:34Z</time>
      </trkpt>
      <trkpt lat="48.74093" lon="7.35971">
        <ele>203</ele>
        <time>2020-09-24T09:23:38Z</time>
      </trkpt>
      <trkpt lat="48.74095" lon="7.35973">
        <ele>203</ele>
        <time>2020-09-24T09:23:39Z</time>
      </trkpt>
      <trkpt lat="48.74095" lon="7.35975">
        <ele>202.6</ele>
        <time>2020-09-24T09:23:43Z</time>
      </trkpt>
      <trkpt lat="48.74098" lon="7.35972">
        <ele>202.6</ele>
        <time>2020-09-24T09:23:44Z</time>
      </trkpt>
      <trkpt lat="48.74098" lon="7.35972">
        <ele>201.6</ele>
        <time>2020-09-24T09:23:53Z</time>
      </trkpt>
      <trkpt lat="48.74098" lon="7.35972">
        <ele>200</ele>
        <time>2020-09-24T09:24:11Z</time>
      </trkpt>
      <trkpt lat="48.74098" lon="7.35972">
        <ele>199</ele>
        <time>2020-09-24T09:24:28Z</time>
      </trkpt>
      <trkpt lat="48.74095" lon="7.35975">
        <ele>199.4</ele>
        <time>2020-09-24T09:24:32Z</time>
      </trkpt>
      <trkpt lat="48.74092" lon="7.35977">
        <ele>199.4</ele>
        <time>2020-09-24T09:24:33Z</time>
      </trkpt>
      <trkpt lat="48.74089" lon="7.35981">
        <ele>199.2</ele>
        <time>2020-09-24T09:24:37Z</time>
      </trkpt>
      <trkpt lat="48.74088" lon="7.35982">
        <ele>199.2</ele>
        <time>2020-09-24T09:24:38Z</time>
      </trkpt>
      <trkpt lat="48.74076" lon="7.35994">
        <ele>198.8</ele>
        <time>2020-09-24T09:24:44Z</time>
      </trkpt>
      <trkpt lat="48.74072" lon="7.35998">
        <ele>198.8</ele>
        <time>2020-09-24T09:24:46Z</time>
      </trkpt>
      <trkpt lat="48.74068" lon="7.36001">
        <ele>198.6</ele>
        <time>2020-09-24T09:24:48Z</time>
      </trkpt>
      <trkpt lat="48.74059" lon="7.36011">
        <ele>198.4</ele>
        <time>2020-09-24T09:24:53Z</time>
      </trkpt>
      <trkpt lat="48.74057" lon="7.36013">
        <ele>198.2</ele>
        <time>2020-09-24T09:24:54Z</time>
      </trkpt>
      <trkpt lat="48.74053" lon="7.36025">
        <ele>198.4</ele>
        <time>2020-09-24T09:24:56Z</time>
      </trkpt>
      <trkpt lat="48.74054" lon="7.36028">
        <ele>198.4</ele>
        <time>2020-09-24T09:24:57Z</time>
      </trkpt>
      <trkpt lat="48.74062" lon="7.36042">
        <ele>198.4</ele>
        <time>2020-09-24T09:25:03Z</time>
      </trkpt>
      <trkpt lat="48.74072" lon="7.36062">
        <ele>198.4</ele>
        <time>2020-09-24T09:25:09Z</time>
      </trkpt>
      <trkpt lat="48.74084" lon="7.36084">
        <ele>198.6</ele>
        <time>2020-09-24T09:25:15Z</time>
      </trkpt>
      <trkpt lat="48.74094" lon="7.36101">
        <ele>198.6</ele>
        <time>2020-09-24T09:25:19Z</time>
      </trkpt>
      <trkpt lat="48.74097" lon="7.36105">
        <ele>198.6</ele>
        <time>2020-09-24T09:25:20Z</time>
      </trkpt>
      <trkpt lat="48.74106" lon="7.36119">
        <ele>198.2</ele>
        <time>2020-09-24T09:25:23Z</time>
      </trkpt>
      <trkpt lat="48.7411" lon="7.36127">
        <ele>198.2</ele>
        <time>2020-09-24T09:25:25Z</time>
      </trkpt>
      <trkpt lat="48.74115" lon="7.36133">
        <ele>198.2</ele>
        <time>2020-09-24T09:25:27Z</time>
      </trkpt>
      <trkpt lat="48.74123" lon="7.36141">
        <ele>197.8</ele>
        <time>2020-09-24T09:25:31Z</time>
      </trkpt>
      <trkpt lat="48.74125" lon="7.36144">
        <ele>197.8</ele>
        <time>2020-09-24T09:25:32Z</time>
      </trkpt>
      <trkpt lat="48.74136" lon="7.36156">
        <ele>197.4</ele>
        <time>2020-09-24T09:25:35Z</time>
      </trkpt>
      <trkpt lat="48.74146" lon="7.36169">
        <ele>196.8</ele>
        <time>2020-09-24T09:25:38Z</time>
      </trkpt>
      <trkpt lat="48.74152" lon="7.36177">
        <ele>196.4</ele>
        <time>2020-09-24T09:25:40Z</time>
      </trkpt>
      <trkpt lat="48.74163" lon="7.36192">
        <ele>195.6</ele>
        <time>2020-09-24T09:25:44Z</time>
      </trkpt>
      <trkpt lat="48.74165" lon="7.36194">
        <ele>195.6</ele>
        <time>2020-09-24T09:25:45Z</time>
      </trkpt>
      <trkpt lat="48.74173" lon="7.36189">
        <ele>195.2</ele>
        <time>2020-09-24T09:25:47Z</time>
      </trkpt>
      <trkpt lat="48.74183" lon="7.3617">
        <ele>194.8</ele>
        <time>2020-09-24T09:25:52Z</time>
      </trkpt>
      <trkpt lat="48.74194" lon="7.36149">
        <ele>194.4</ele>
        <time>2020-09-24T09:25:56Z</time>
      </trkpt>
      <trkpt lat="48.74197" lon="7.36143">
        <ele>194</ele>
        <time>2020-09-24T09:25:59Z</time>
      </trkpt>
      <trkpt lat="48.74198" lon="7.3614">
        <ele>194</ele>
        <time>2020-09-24T09:26:00Z</time>
      </trkpt>
      <trkpt lat="48.74208" lon="7.3615">
        <ele>193.8</ele>
        <time>2020-09-24T09:26:04Z</time>
      </trkpt>
      <trkpt lat="48.74227" lon="7.36187">
        <ele>193</ele>
        <time>2020-09-24T09:26:11Z</time>
      </trkpt>
      <trkpt lat="48.74248" lon="7.36227">
        <ele>192.4</ele>
        <time>2020-09-24T09:26:17Z</time>
      </trkpt>
      <trkpt lat="48.74276" lon="7.36282">
        <ele>191.6</ele>
        <time>2020-09-24T09:26:24Z</time>
      </trkpt>
      <trkpt lat="48.74309" lon="7.36344">
        <ele>190.8</ele>
        <time>2020-09-24T09:26:32Z</time>
      </trkpt>
      <trkpt lat="48.74338" lon="7.364">
        <ele>190.4</ele>
        <time>2020-09-24T09:26:40Z</time>
      </trkpt>
      <trkpt lat="48.74355" lon="7.36432">
        <ele>190.4</ele>
        <time>2020-09-24T09:26:45Z</time>
      </trkpt>
      <trkpt lat="48.7436" lon="7.36446">
        <ele>190.2</ele>
        <time>2020-09-24T09:26:47Z</time>
      </trkpt>
      <trkpt lat="48.74359" lon="7.3646">
        <ele>190.2</ele>
        <time>2020-09-24T09:26:49Z</time>
      </trkpt>
      <trkpt lat="48.74355" lon="7.36465">
        <ele>190</ele>
        <time>2020-09-24T09:26:50Z</time>
      </trkpt>
      <trkpt lat="48.74351" lon="7.36471">
        <ele>190</ele>
        <time>2020-09-24T09:26:51Z</time>
      </trkpt>
      <trkpt lat="48.74328" lon="7.36499">
        <ele>189.8</ele>
        <time>2020-09-24T09:26:56Z</time>
      </trkpt>
      <trkpt lat="48.74294" lon="7.36541">
        <ele>189.2</ele>
        <time>2020-09-24T09:27:03Z</time>
      </trkpt>
      <trkpt lat="48.74269" lon="7.36572">
        <ele>189</ele>
        <time>2020-09-24T09:27:09Z</time>
      </trkpt>
      <trkpt lat="48.74243" lon="7.366">
        <ele>188.8</ele>
        <time>2020-09-24T09:27:16Z</time>
      </trkpt>
      <trkpt lat="48.74239" lon="7.36605">
        <ele>188.8</ele>
        <time>2020-09-24T09:27:17Z</time>
      </trkpt>
      <trkpt lat="48.74224" lon="7.36624">
        <ele>188.8</ele>
        <time>2020-09-24T09:27:21Z</time>
      </trkpt>
      <trkpt lat="48.7419" lon="7.36666">
        <ele>188.6</ele>
        <time>2020-09-24T09:27:30Z</time>
      </trkpt>
      <trkpt lat="48.74167" lon="7.36694">
        <ele>188.6</ele>
        <time>2020-09-24T09:27:36Z</time>
      </trkpt>
      <trkpt lat="48.74144" lon="7.36723">
        <ele>188.6</ele>
        <time>2020-09-24T09:27:42Z</time>
      </trkpt>
      <trkpt lat="48.74113" lon="7.36762">
        <ele>188.8</ele>
        <time>2020-09-24T09:27:49Z</time>
      </trkpt>
      <trkpt lat="48.741" lon="7.36778">
        <ele>188.8</ele>
        <time>2020-09-24T09:27:52Z</time>
      </trkpt>
      <trkpt lat="48.74099" lon="7.36796">
        <ele>188.6</ele>
        <time>2020-09-24T09:27:54Z</time>
      </trkpt>
      <trkpt lat="48.74099" lon="7.36803">
        <ele>188.4</ele>
        <time>2020-09-24T09:27:56Z</time>
      </trkpt>
      <trkpt lat="48.74101" lon="7.36806">
        <ele>188.4</ele>
        <time>2020-09-24T09:27:57Z</time>
      </trkpt>
      <trkpt lat="48.74116" lon="7.36834">
        <ele>188.2</ele>
        <time>2020-09-24T09:28:01Z</time>
      </trkpt>
      <trkpt lat="48.74123" lon="7.36846">
        <ele>188.2</ele>
        <time>2020-09-24T09:28:03Z</time>
      </trkpt>
      <trkpt lat="48.74134" lon="7.36865">
        <ele>188.2</ele>
        <time>2020-09-24T09:28:06Z</time>
      </trkpt>
      <trkpt lat="48.74138" lon="7.36871">
        <ele>188.2</ele>
        <time>2020-09-24T09:28:07Z</time>
      </trkpt>
      <trkpt lat="48.74151" lon="7.36887">
        <ele>188</ele>
        <time>2020-09-24T09:28:10Z</time>
      </trkpt>
      <trkpt lat="48.74158" lon="7.36908">
        <ele>188</ele>
        <time>2020-09-24T09:28:13Z</time>
      </trkpt>
      <trkpt lat="48.74161" lon="7.36915">
        <ele>188</ele>
        <time>2020-09-24T09:28:14Z</time>
      </trkpt>
      <trkpt lat="48.74164" lon="7.36923">
        <ele>188</ele>
        <time>2020-09-24T09:28:15Z</time>
      </trkpt>
      <trkpt lat="48.74171" lon="7.36936">
        <ele>188</ele>
        <time>2020-09-24T09:28:17Z</time>
      </trkpt>
      <trkpt lat="48.74201" lon="7.36993">
        <ele>187.8</ele>
        <time>2020-09-24T09:28:26Z</time>
      </trkpt>
      <trkpt lat="48.74229" lon="7.37046">
        <ele>188.2</ele>
        <time>2020-09-24T09:28:34Z</time>
      </trkpt>
      <trkpt lat="48.74257" lon="7.37099">
        <ele>188.2</ele>
        <time>2020-09-24T09:28:42Z</time>
      </trkpt>
      <trkpt lat="48.74286" lon="7.37153">
        <ele>188.4</ele>
        <time>2020-09-24T09:28:49Z</time>
      </trkpt>
      <trkpt lat="48.74307" lon="7.37193">
        <ele>188.6</ele>
        <time>2020-09-24T09:28:56Z</time>
      </trkpt>
      <trkpt lat="48.74335" lon="7.37246">
        <ele>188.6</ele>
        <time>2020-09-24T09:29:04Z</time>
      </trkpt>
      <trkpt lat="48.74364" lon="7.37299">
        <ele>188.8</ele>
        <time>2020-09-24T09:29:12Z</time>
      </trkpt>
      <trkpt lat="48.74393" lon="7.37353">
        <ele>188.6</ele>
        <time>2020-09-24T09:29:20Z</time>
      </trkpt>
      <trkpt lat="48.74423" lon="7.37408">
        <ele>188.4</ele>
        <time>2020-09-24T09:29:28Z</time>
      </trkpt>
      <trkpt lat="48.74459" lon="7.37474">
        <ele>188.4</ele>
        <time>2020-09-24T09:29:38Z</time>
      </trkpt>
      <trkpt lat="48.74495" lon="7.37541">
        <ele>188.4</ele>
        <time>2020-09-24T09:29:48Z</time>
      </trkpt>
      <trkpt lat="48.74518" lon="7.37579">
        <ele>188.6</ele>
        <time>2020-09-24T09:29:54Z</time>
      </trkpt>
      <trkpt lat="48.74528" lon="7.3759">
        <ele>188.4</ele>
        <time>2020-09-24T09:29:56Z</time>
      </trkpt>
      <trkpt lat="48.74534" lon="7.37602">
        <ele>188.4</ele>
        <time>2020-09-24T09:29:58Z</time>
      </trkpt>
      <trkpt lat="48.74541" lon="7.37614">
        <ele>188.4</ele>
        <time>2020-09-24T09:30:00Z</time>
      </trkpt>
      <trkpt lat="48.74545" lon="7.3762">
        <ele>188.4</ele>
        <time>2020-09-24T09:30:01Z</time>
      </trkpt>
      <trkpt lat="48.74557" lon="7.37642">
        <ele>188.4</ele>
        <time>2020-09-24T09:30:04Z</time>
      </trkpt>
      <trkpt lat="48.74561" lon="7.37659">
        <ele>188.2</ele>
        <time>2020-09-24T09:30:06Z</time>
      </trkpt>
      <trkpt lat="48.74563" lon="7.37668">
        <ele>188.2</ele>
        <time>2020-09-24T09:30:07Z</time>
      </trkpt>
      <trkpt lat="48.74571" lon="7.37683">
        <ele>188</ele>
        <time>2020-09-24T09:30:09Z</time>
      </trkpt>
      <trkpt lat="48.74597" lon="7.37733">
        <ele>187.6</ele>
        <time>2020-09-24T09:30:15Z</time>
      </trkpt>
      <trkpt lat="48.74621" lon="7.37779">
        <ele>187.4</ele>
        <time>2020-09-24T09:30:21Z</time>
      </trkpt>
      <trkpt lat="48.74652" lon="7.37838">
        <ele>187.2</ele>
        <time>2020-09-24T09:30:29Z</time>
      </trkpt>
      <trkpt lat="48.7468" lon="7.3789">
        <ele>187</ele>
        <time>2020-09-24T09:30:36Z</time>
      </trkpt>
      <trkpt lat="48.74715" lon="7.37953">
        <ele>186.8</ele>
        <time>2020-09-24T09:30:45Z</time>
      </trkpt>
      <trkpt lat="48.74742" lon="7.38001">
        <ele>186.8</ele>
        <time>2020-09-24T09:30:52Z</time>
      </trkpt>
      <trkpt lat="48.74777" lon="7.38064">
        <ele>186.6</ele>
        <time>2020-09-24T09:31:01Z</time>
      </trkpt>
      <trkpt lat="48.74786" lon="7.38077">
        <ele>186.6</ele>
        <time>2020-09-24T09:31:03Z</time>
      </trkpt>
      <trkpt lat="48.7482" lon="7.38131">
        <ele>186.6</ele>
        <time>2020-09-24T09:31:11Z</time>
      </trkpt>
      <trkpt lat="48.74829" lon="7.38145">
        <ele>186.6</ele>
        <time>2020-09-24T09:31:13Z</time>
      </trkpt>
      <trkpt lat="48.74838" lon="7.38159">
        <ele>186.6</ele>
        <time>2020-09-24T09:31:15Z</time>
      </trkpt>
      <trkpt lat="48.7486" lon="7.38193">
        <ele>186.6</ele>
        <time>2020-09-24T09:31:20Z</time>
      </trkpt>
      <trkpt lat="48.74891" lon="7.38241">
        <ele>186.6</ele>
        <time>2020-09-24T09:31:27Z</time>
      </trkpt>
      <trkpt lat="48.74934" lon="7.38301">
        <ele>186.6</ele>
        <time>2020-09-24T09:31:36Z</time>
      </trkpt>
      <trkpt lat="48.74939" lon="7.38307">
        <ele>186.6</ele>
        <time>2020-09-24T09:31:37Z</time>
      </trkpt>
      <trkpt lat="48.7497" lon="7.38346">
        <ele>186.8</ele>
        <time>2020-09-24T09:31:43Z</time>
      </trkpt>
      <trkpt lat="48.75017" lon="7.384">
        <ele>186.8</ele>
        <time>2020-09-24T09:31:51Z</time>
      </trkpt>
      <trkpt lat="48.75017" lon="7.384">
        <ele>186.8</ele>
        <time>2020-09-24T09:31:52Z</time>
      </trkpt>
      <trkpt lat="48.75067" lon="7.38449">
        <ele>186.8</ele>
        <time>2020-09-24T09:32:00Z</time>
      </trkpt>
      <trkpt lat="48.75099" lon="7.38481">
        <ele>187</ele>
        <time>2020-09-24T09:32:07Z</time>
      </trkpt>
      <trkpt lat="48.75104" lon="7.38486">
        <ele>187</ele>
        <time>2020-09-24T09:32:08Z</time>
      </trkpt>
      <trkpt lat="48.75113" lon="7.38498">
        <ele>187</ele>
        <time>2020-09-24T09:32:10Z</time>
      </trkpt>
      <trkpt lat="48.75122" lon="7.38513">
        <ele>187</ele>
        <time>2020-09-24T09:32:13Z</time>
      </trkpt>
      <trkpt lat="48.7513" lon="7.38522">
        <ele>187.2</ele>
        <time>2020-09-24T09:32:17Z</time>
      </trkpt>
      <trkpt lat="48.75145" lon="7.38536">
        <ele>187.2</ele>
        <time>2020-09-24T09:32:21Z</time>
      </trkpt>
      <trkpt lat="48.75181" lon="7.38571">
        <ele>186.6</ele>
        <time>2020-09-24T09:32:27Z</time>
      </trkpt>
      <trkpt lat="48.7521" lon="7.38599">
        <ele>186.4</ele>
        <time>2020-09-24T09:32:32Z</time>
      </trkpt>
      <trkpt lat="48.75251" lon="7.38638">
        <ele>186.4</ele>
        <time>2020-09-24T09:32:39Z</time>
      </trkpt>
      <trkpt lat="48.75284" lon="7.38672">
        <ele>185.8</ele>
        <time>2020-09-24T09:32:45Z</time>
      </trkpt>
      <trkpt lat="48.75316" lon="7.38708">
        <ele>185.4</ele>
        <time>2020-09-24T09:32:51Z</time>
      </trkpt>
      <trkpt lat="48.75346" lon="7.38747">
        <ele>185.2</ele>
        <time>2020-09-24T09:32:57Z</time>
      </trkpt>
      <trkpt lat="48.7537" lon="7.38786">
        <ele>185</ele>
        <time>2020-09-24T09:33:02Z</time>
      </trkpt>
      <trkpt lat="48.75407" lon="7.38851">
        <ele>185</ele>
        <time>2020-09-24T09:33:10Z</time>
      </trkpt>
      <trkpt lat="48.75442" lon="7.38931">
        <ele>184.8</ele>
        <time>2020-09-24T09:33:18Z</time>
      </trkpt>
      <trkpt lat="48.75445" lon="7.3894">
        <ele>184.8</ele>
        <time>2020-09-24T09:33:19Z</time>
      </trkpt>
      <trkpt lat="48.75469" lon="7.39009">
        <ele>184.6</ele>
        <time>2020-09-24T09:33:26Z</time>
      </trkpt>
      <trkpt lat="48.7549" lon="7.39068">
        <ele>184.4</ele>
        <time>2020-09-24T09:33:33Z</time>
      </trkpt>
      <trkpt lat="48.75514" lon="7.3915">
        <ele>183.8</ele>
        <time>2020-09-24T09:33:41Z</time>
      </trkpt>
      <trkpt lat="48.75536" lon="7.39221">
        <ele>183.6</ele>
        <time>2020-09-24T09:33:48Z</time>
      </trkpt>
      <trkpt lat="48.75561" lon="7.39303">
        <ele>183.4</ele>
        <time>2020-09-24T09:33:56Z</time>
      </trkpt>
      <trkpt lat="48.75564" lon="7.39313">
        <ele>183.4</ele>
        <time>2020-09-24T09:33:57Z</time>
      </trkpt>
      <trkpt lat="48.75588" lon="7.39394">
        <ele>183.2</ele>
        <time>2020-09-24T09:34:05Z</time>
      </trkpt>
      <trkpt lat="48.75594" lon="7.39413">
        <ele>183</ele>
        <time>2020-09-24T09:34:07Z</time>
      </trkpt>
      <trkpt lat="48.75615" lon="7.39483">
        <ele>182.8</ele>
        <time>2020-09-24T09:34:14Z</time>
      </trkpt>
      <trkpt lat="48.7564" lon="7.39565">
        <ele>182.8</ele>
        <time>2020-09-24T09:34:22Z</time>
      </trkpt>
      <trkpt lat="48.75643" lon="7.39576">
        <ele>182.8</ele>
        <time>2020-09-24T09:34:23Z</time>
      </trkpt>
      <trkpt lat="48.75649" lon="7.39597">
        <ele>182.6</ele>
        <time>2020-09-24T09:34:25Z</time>
      </trkpt>
      <trkpt lat="48.75655" lon="7.39618">
        <ele>182.6</ele>
        <time>2020-09-24T09:34:27Z</time>
      </trkpt>
      <trkpt lat="48.75658" lon="7.39627">
        <ele>182.6</ele>
        <time>2020-09-24T09:34:28Z</time>
      </trkpt>
      <trkpt lat="48.75665" lon="7.39648">
        <ele>182.4</ele>
        <time>2020-09-24T09:34:30Z</time>
      </trkpt>
      <trkpt lat="48.75684" lon="7.39714">
        <ele>182.4</ele>
        <time>2020-09-24T09:34:37Z</time>
      </trkpt>
      <trkpt lat="48.75704" lon="7.39779">
        <ele>182.4</ele>
        <time>2020-09-24T09:34:45Z</time>
      </trkpt>
      <trkpt lat="48.75718" lon="7.39825">
        <ele>182.4</ele>
        <time>2020-09-24T09:34:51Z</time>
      </trkpt>
      <trkpt lat="48.7572" lon="7.39831">
        <ele>182.4</ele>
        <time>2020-09-24T09:34:52Z</time>
      </trkpt>
      <trkpt lat="48.75727" lon="7.39854">
        <ele>182.2</ele>
        <time>2020-09-24T09:34:56Z</time>
      </trkpt>
      <trkpt lat="48.75744" lon="7.39911">
        <ele>181.8</ele>
        <time>2020-09-24T09:35:02Z</time>
      </trkpt>
      <trkpt lat="48.75761" lon="7.39965">
        <ele>181.6</ele>
        <time>2020-09-24T09:35:08Z</time>
      </trkpt>
      <trkpt lat="48.75784" lon="7.40042">
        <ele>181.4</ele>
        <time>2020-09-24T09:35:16Z</time>
      </trkpt>
      <trkpt lat="48.7579" lon="7.40061">
        <ele>181.4</ele>
        <time>2020-09-24T09:35:18Z</time>
      </trkpt>
      <trkpt lat="48.75815" lon="7.40143">
        <ele>181.2</ele>
        <time>2020-09-24T09:35:26Z</time>
      </trkpt>
      <trkpt lat="48.75818" lon="7.40153">
        <ele>181.2</ele>
        <time>2020-09-24T09:35:27Z</time>
      </trkpt>
      <trkpt lat="48.75831" lon="7.40197">
        <ele>181</ele>
        <time>2020-09-24T09:35:31Z</time>
      </trkpt>
      <trkpt lat="48.75838" lon="7.40219">
        <ele>180.8</ele>
        <time>2020-09-24T09:35:33Z</time>
      </trkpt>
      <trkpt lat="48.75856" lon="7.40278">
        <ele>180.4</ele>
        <time>2020-09-24T09:35:38Z</time>
      </trkpt>
      <trkpt lat="48.75882" lon="7.40363">
        <ele>180</ele>
        <time>2020-09-24T09:35:45Z</time>
      </trkpt>
      <trkpt lat="48.75889" lon="7.40386">
        <ele>179.8</ele>
        <time>2020-09-24T09:35:47Z</time>
      </trkpt>
      <trkpt lat="48.75915" lon="7.40471">
        <ele>179.4</ele>
        <time>2020-09-24T09:35:54Z</time>
      </trkpt>
      <trkpt lat="48.75919" lon="7.40483">
        <ele>179.4</ele>
        <time>2020-09-24T09:35:55Z</time>
      </trkpt>
      <trkpt lat="48.75945" lon="7.40568">
        <ele>179.2</ele>
        <time>2020-09-24T09:36:02Z</time>
      </trkpt>
      <trkpt lat="48.75953" lon="7.40593">
        <ele>179.2</ele>
        <time>2020-09-24T09:36:03Z</time>
      </trkpt>
      <trkpt lat="48.75972" lon="7.40656">
        <ele>178.8</ele>
        <time>2020-09-24T09:36:09Z</time>
      </trkpt>
      <trkpt lat="48.75995" lon="7.40732">
        <ele>178.4</ele>
        <time>2020-09-24T09:36:15Z</time>
      </trkpt>
      <trkpt lat="48.76003" lon="7.40757">
        <ele>178.2</ele>
        <time>2020-09-24T09:36:17Z</time>
      </trkpt>
      <trkpt lat="48.76026" lon="7.40833">
        <ele>178</ele>
        <time>2020-09-24T09:36:22Z</time>
      </trkpt>
      <trkpt lat="48.76038" lon="7.40871">
        <ele>178</ele>
        <time>2020-09-24T09:36:25Z</time>
      </trkpt>
      <trkpt lat="48.7606" lon="7.40946">
        <ele>177.8</ele>
        <time>2020-09-24T09:36:31Z</time>
      </trkpt>
      <trkpt lat="48.76064" lon="7.40957">
        <ele>177.8</ele>
        <time>2020-09-24T09:36:33Z</time>
      </trkpt>
      <trkpt lat="48.76086" lon="7.41031">
        <ele>177.8</ele>
        <time>2020-09-24T09:36:40Z</time>
      </trkpt>
      <trkpt lat="48.76108" lon="7.41103">
        <ele>177.6</ele>
        <time>2020-09-24T09:36:48Z</time>
      </trkpt>
      <trkpt lat="48.76127" lon="7.41163">
        <ele>177.4</ele>
        <time>2020-09-24T09:36:55Z</time>
      </trkpt>
      <trkpt lat="48.76147" lon="7.41231">
        <ele>177.4</ele>
        <time>2020-09-24T09:37:03Z</time>
      </trkpt>
      <trkpt lat="48.7617" lon="7.41305">
        <ele>177.4</ele>
        <time>2020-09-24T09:37:12Z</time>
      </trkpt>
      <trkpt lat="48.76189" lon="7.41368">
        <ele>177.4</ele>
        <time>2020-09-24T09:37:20Z</time>
      </trkpt>
      <trkpt lat="48.76206" lon="7.41423">
        <ele>177.4</ele>
        <time>2020-09-24T09:37:27Z</time>
      </trkpt>
      <trkpt lat="48.76218" lon="7.41463">
        <ele>177.2</ele>
        <time>2020-09-24T09:37:32Z</time>
      </trkpt>
      <trkpt lat="48.76223" lon="7.41478">
        <ele>177.2</ele>
        <time>2020-09-24T09:37:34Z</time>
      </trkpt>
      <trkpt lat="48.76245" lon="7.41549">
        <ele>177.2</ele>
        <time>2020-09-24T09:37:43Z</time>
      </trkpt>
      <trkpt lat="48.76258" lon="7.41598">
        <ele>177.4</ele>
        <time>2020-09-24T09:37:49Z</time>
      </trkpt>
      <trkpt lat="48.76259" lon="7.41606">
        <ele>177.4</ele>
        <time>2020-09-24T09:37:50Z</time>
      </trkpt>
      <trkpt lat="48.76266" lon="7.41636">
        <ele>177.4</ele>
        <time>2020-09-24T09:37:54Z</time>
      </trkpt>
      <trkpt lat="48.76261" lon="7.41646">
        <ele>177.2</ele>
        <time>2020-09-24T09:37:57Z</time>
      </trkpt>
      <trkpt lat="48.76238" lon="7.41663">
        <ele>177</ele>
        <time>2020-09-24T09:38:02Z</time>
      </trkpt>
      <trkpt lat="48.76228" lon="7.41671">
        <ele>176.8</ele>
        <time>2020-09-24T09:38:04Z</time>
      </trkpt>
      <trkpt lat="48.76229" lon="7.41699">
        <ele>176.6</ele>
        <time>2020-09-24T09:38:06Z</time>
      </trkpt>
      <trkpt lat="48.76239" lon="7.41705">
        <ele>176.6</ele>
        <time>2020-09-24T09:38:07Z</time>
      </trkpt>
      <trkpt lat="48.76238" lon="7.41705">
        <ele>176.6</ele>
        <time>2020-09-24T09:38:08Z</time>
      </trkpt>
      <trkpt lat="48.76257" lon="7.41711">
        <ele>176.6</ele>
        <time>2020-09-24T09:38:11Z</time>
      </trkpt>
      <trkpt lat="48.76273" lon="7.41715">
        <ele>177.6</ele>
        <time>2020-09-24T09:38:16Z</time>
      </trkpt>
      <trkpt lat="48.76291" lon="7.41716">
        <ele>177.6</ele>
        <time>2020-09-24T09:38:23Z</time>
      </trkpt>
      <trkpt lat="48.76313" lon="7.41715">
        <ele>177.8</ele>
        <time>2020-09-24T09:38:30Z</time>
      </trkpt>
      <trkpt lat="48.76341" lon="7.41714">
        <ele>178.2</ele>
        <time>2020-09-24T09:38:38Z</time>
      </trkpt>
      <trkpt lat="48.76375" lon="7.41714">
        <ele>178.6</ele>
        <time>2020-09-24T09:38:46Z</time>
      </trkpt>
      <trkpt lat="48.76404" lon="7.4171">
        <ele>178.8</ele>
        <time>2020-09-24T09:38:52Z</time>
      </trkpt>
      <trkpt lat="48.76409" lon="7.41706">
        <ele>178.6</ele>
        <time>2020-09-24T09:38:53Z</time>
      </trkpt>
      <trkpt lat="48.7643" lon="7.41688">
        <ele>178.6</ele>
        <time>2020-09-24T09:38:57Z</time>
      </trkpt>
      <trkpt lat="48.76434" lon="7.41682">
        <ele>178.4</ele>
        <time>2020-09-24T09:38:58Z</time>
      </trkpt>
      <trkpt lat="48.76446" lon="7.4166">
        <ele>178.2</ele>
        <time>2020-09-24T09:39:01Z</time>
      </trkpt>
      <trkpt lat="48.76448" lon="7.41651">
        <ele>178.2</ele>
        <time>2020-09-24T09:39:02Z</time>
      </trkpt>
      <trkpt lat="48.7646" lon="7.41591">
        <ele>177.6</ele>
        <time>2020-09-24T09:39:08Z</time>
      </trkpt>
      <trkpt lat="48.76463" lon="7.41572">
        <ele>177.4</ele>
        <time>2020-09-24T09:39:10Z</time>
      </trkpt>
      <trkpt lat="48.76467" lon="7.41554">
        <ele>177.2</ele>
        <time>2020-09-24T09:39:12Z</time>
      </trkpt>
      <trkpt lat="48.76484" lon="7.4154">
        <ele>177</ele>
        <time>2020-09-24T09:39:14Z</time>
      </trkpt>
      <trkpt lat="48.76484" lon="7.4154">
        <ele>177</ele>
        <time>2020-09-24T09:39:15Z</time>
      </trkpt>
      <trkpt lat="48.76486" lon="7.41529">
        <ele>177</ele>
        <time>2020-09-24T09:39:16Z</time>
      </trkpt>
      <trkpt lat="48.76484" lon="7.41499">
        <ele>176.8</ele>
        <time>2020-09-24T09:39:18Z</time>
      </trkpt>
      <trkpt lat="48.76484" lon="7.41499">
        <ele>176.8</ele>
        <time>2020-09-24T09:39:19Z</time>
      </trkpt>
      <trkpt lat="48.76488" lon="7.41493">
        <ele>176.8</ele>
        <time>2020-09-24T09:39:20Z</time>
      </trkpt>
      <trkpt lat="48.76502" lon="7.41477">
        <ele>176.6</ele>
        <time>2020-09-24T09:39:23Z</time>
      </trkpt>
      <trkpt lat="48.76534" lon="7.41454">
        <ele>176.4</ele>
        <time>2020-09-24T09:39:28Z</time>
      </trkpt>
      <trkpt lat="48.76565" lon="7.41431">
        <ele>176</ele>
        <time>2020-09-24T09:39:35Z</time>
      </trkpt>
      <trkpt lat="48.76601" lon="7.41405">
        <ele>175.6</ele>
        <time>2020-09-24T09:39:42Z</time>
      </trkpt>
      <trkpt lat="48.76648" lon="7.41371">
        <ele>175.2</ele>
        <time>2020-09-24T09:39:51Z</time>
      </trkpt>
      <trkpt lat="48.76678" lon="7.4135">
        <ele>174.8</ele>
        <time>2020-09-24T09:39:57Z</time>
      </trkpt>
      <trkpt lat="48.76724" lon="7.41316">
        <ele>174.6</ele>
        <time>2020-09-24T09:40:06Z</time>
      </trkpt>
      <trkpt lat="48.76762" lon="7.41289">
        <ele>174.4</ele>
        <time>2020-09-24T09:40:15Z</time>
      </trkpt>
      <trkpt lat="48.7679" lon="7.41271">
        <ele>174.6</ele>
        <time>2020-09-24T09:40:22Z</time>
      </trkpt>
      <trkpt lat="48.76811" lon="7.4126">
        <ele>175</ele>
        <time>2020-09-24T09:40:28Z</time>
      </trkpt>
      <trkpt lat="48.76834" lon="7.41256">
        <ele>175.2</ele>
        <time>2020-09-24T09:40:36Z</time>
      </trkpt>
      <trkpt lat="48.76853" lon="7.41253">
        <ele>176</ele>
        <time>2020-09-24T09:40:45Z</time>
      </trkpt>
      <trkpt lat="48.76873" lon="7.41249">
        <ele>177</ele>
        <time>2020-09-24T09:40:54Z</time>
      </trkpt>
      <trkpt lat="48.76892" lon="7.41246">
        <ele>178</ele>
        <time>2020-09-24T09:41:02Z</time>
      </trkpt>
      <trkpt lat="48.7691" lon="7.41243">
        <ele>179</ele>
        <time>2020-09-24T09:41:09Z</time>
      </trkpt>
      <trkpt lat="48.76911" lon="7.41243">
        <ele>179.2</ele>
        <time>2020-09-24T09:41:11Z</time>
      </trkpt>
      <trkpt lat="48.76917" lon="7.41251">
        <ele>179.6</ele>
        <time>2020-09-24T09:41:14Z</time>
      </trkpt>
      <trkpt lat="48.76918" lon="7.41253">
        <ele>180.2</ele>
        <time>2020-09-24T09:41:19Z</time>
      </trkpt>
      <trkpt lat="48.76919" lon="7.41258">
        <ele>181</ele>
        <time>2020-09-24T09:41:26Z</time>
      </trkpt>
      <trkpt lat="48.76923" lon="7.41277">
        <ele>182</ele>
        <time>2020-09-24T09:41:32Z</time>
      </trkpt>
      <trkpt lat="48.76925" lon="7.41289">
        <ele>182.6</ele>
        <time>2020-09-24T09:41:38Z</time>
      </trkpt>
      <trkpt lat="48.76925" lon="7.4129">
        <ele>183</ele>
        <time>2020-09-24T09:41:43Z</time>
      </trkpt>
      <trkpt lat="48.76925" lon="7.4129">
        <ele>184.4</ele>
        <time>2020-09-24T09:41:59Z</time>
      </trkpt>
      <trkpt lat="48.76925" lon="7.4129">
        <ele>185.6</ele>
        <time>2020-09-24T09:42:15Z</time>
      </trkpt>
      <trkpt lat="48.76925" lon="7.4129">
        <ele>186.4</ele>
        <time>2020-09-24T09:42:32Z</time>
      </trkpt>
      <trkpt lat="48.76925" lon="7.4129">
        <ele>187.2</ele>
        <time>2020-09-24T09:42:52Z</time>
      </trkpt>
      <trkpt lat="48.76925" lon="7.4129">
        <ele>187.8</ele>
        <time>2020-09-24T09:43:11Z</time>
      </trkpt>
      <trkpt lat="48.76925" lon="7.4129">
        <ele>188.4</ele>
        <time>2020-09-24T09:43:34Z</time>
      </trkpt>
      <trkpt lat="48.76925" lon="7.4129">
        <ele>188.6</ele>
        <time>2020-09-24T09:43:53Z</time>
      </trkpt>
      <trkpt lat="48.76925" lon="7.4129">
        <ele>189</ele>
        <time>2020-09-24T09:44:14Z</time>
      </trkpt>
      <trkpt lat="48.76925" lon="7.4129">
        <ele>189</ele>
        <time>2020-09-24T09:44:34Z</time>
      </trkpt>
      <trkpt lat="48.76925" lon="7.4129">
        <ele>189.2</ele>
        <time>2020-09-24T09:44:54Z</time>
      </trkpt>
      <trkpt lat="48.76925" lon="7.4129">
        <ele>189.2</ele>
        <time>2020-09-24T09:45:16Z</time>
      </trkpt>
      <trkpt lat="48.76925" lon="7.4129">
        <ele>189.4</ele>
        <time>2020-09-24T09:45:38Z</time>
      </trkpt>
      <trkpt lat="48.76925" lon="7.4129">
        <ele>189.4</ele>
        <time>2020-09-24T09:45:59Z</time>
      </trkpt>
      <trkpt lat="48.76925" lon="7.4129">
        <ele>189.4</ele>
        <time>2020-09-24T09:46:19Z</time>
      </trkpt>
      <trkpt lat="48.76925" lon="7.4129">
        <ele>189.4</ele>
        <time>2020-09-24T09:46:42Z</time>
      </trkpt>
      <trkpt lat="48.76925" lon="7.4129">
        <ele>189.4</ele>
        <time>2020-09-24T09:47:04Z</time>
      </trkpt>
      <trkpt lat="48.76925" lon="7.4129">
        <ele>189.4</ele>
        <time>2020-09-24T09:47:26Z</time>
      </trkpt>
      <trkpt lat="48.76925" lon="7.4129">
        <ele>189.2</ele>
        <time>2020-09-24T09:47:49Z</time>
      </trkpt>
      <trkpt lat="48.76925" lon="7.4129">
        <ele>189.2</ele>
        <time>2020-09-24T09:48:05Z</time>
      </trkpt>
      <trkpt lat="48.76925" lon="7.4129">
        <ele>189.2</ele>
        <time>2020-09-24T09:48:26Z</time>
      </trkpt>
      <trkpt lat="48.76925" lon="7.4129">
        <ele>189.2</ele>
        <time>2020-09-24T09:48:48Z</time>
      </trkpt>
      <trkpt lat="48.76925" lon="7.4129">
        <ele>189.2</ele>
        <time>2020-09-24T09:49:07Z</time>
      </trkpt>
      <trkpt lat="48.76925" lon="7.4129">
        <ele>189.2</ele>
        <time>2020-09-24T09:49:23Z</time>
      </trkpt>
      <trkpt lat="48.76925" lon="7.4129">
        <ele>189.2</ele>
        <time>2020-09-24T09:49:42Z</time>
      </trkpt>
      <trkpt lat="48.76925" lon="7.4129">
        <ele>189.2</ele>
        <time>2020-09-24T09:50:02Z</time>
      </trkpt>
      <trkpt lat="48.76925" lon="7.4129">
        <ele>189.4</ele>
        <time>2020-09-24T09:50:25Z</time>
      </trkpt>
      <trkpt lat="48.76925" lon="7.4129">
        <ele>189.4</ele>
        <time>2020-09-24T09:50:43Z</time>
      </trkpt>
      <trkpt lat="48.76925" lon="7.4129">
        <ele>189.4</ele>
        <time>2020-09-24T09:51:00Z</time>
      </trkpt>
      <trkpt lat="48.76925" lon="7.4129">
        <ele>189.6</ele>
        <time>2020-09-24T09:51:20Z</time>
      </trkpt>
      <trkpt lat="48.76925" lon="7.4129">
        <ele>189.6</ele>
        <time>2020-09-24T09:51:36Z</time>
      </trkpt>
      <trkpt lat="48.76925" lon="7.4129">
        <ele>189.6</ele>
        <time>2020-09-24T09:51:53Z</time>
      </trkpt>
      <trkpt lat="48.76925" lon="7.4129">
        <ele>189.6</ele>
        <time>2020-09-24T09:52:12Z</time>
      </trkpt>
      <trkpt lat="48.76925" lon="7.4129">
        <ele>189.8</ele>
        <time>2020-09-24T09:52:34Z</time>
      </trkpt>
      <trkpt lat="48.76925" lon="7.4129">
        <ele>189.8</ele>
        <time>2020-09-24T09:52:50Z</time>
      </trkpt>
      <trkpt lat="48.76926" lon="7.41294">
        <ele>189.8</ele>
        <time>2020-09-24T09:52:55Z</time>
      </trkpt>
      <trkpt lat="48.76926" lon="7.41318">
        <ele>189.8</ele>
        <time>2020-09-24T09:52:56Z</time>
      </trkpt>
      <trkpt lat="48.76927" lon="7.41298">
        <ele>189.6</ele>
        <time>2020-09-24T09:52:58Z</time>
      </trkpt>
      <trkpt lat="48.76927" lon="7.413">
        <ele>189.6</ele>
        <time>2020-09-24T09:52:59Z</time>
      </trkpt>
      <trkpt lat="48.7693" lon="7.41318">
        <ele>190</ele>
        <time>2020-09-24T09:53:04Z</time>
      </trkpt>
      <trkpt lat="48.76936" lon="7.41348">
        <ele>190.4</ele>
        <time>2020-09-24T09:53:12Z</time>
      </trkpt>
      <trkpt lat="48.76946" lon="7.4135">
        <ele>190.2</ele>
        <time>2020-09-24T09:53:17Z</time>
      </trkpt>
      <trkpt lat="48.76962" lon="7.41338">
        <ele>190</ele>
        <time>2020-09-24T09:53:23Z</time>
      </trkpt>
      <trkpt lat="48.76982" lon="7.41323">
        <ele>190.2</ele>
        <time>2020-09-24T09:53:30Z</time>
      </trkpt>
      <trkpt lat="48.77002" lon="7.41314">
        <ele>190.4</ele>
        <time>2020-09-24T09:53:36Z</time>
      </trkpt>
      <trkpt lat="48.7701" lon="7.41337">
        <ele>190.4</ele>
        <time>2020-09-24T09:53:42Z</time>
      </trkpt>
      <trkpt lat="48.7702" lon="7.4137">
        <ele>190.6</ele>
        <time>2020-09-24T09:53:50Z</time>
      </trkpt>
      <trkpt lat="48.77031" lon="7.41402">
        <ele>190.8</ele>
        <time>2020-09-24T09:53:57Z</time>
      </trkpt>
      <trkpt lat="48.77042" lon="7.41438">
        <ele>191.4</ele>
        <time>2020-09-24T09:54:04Z</time>
      </trkpt>
      <trkpt lat="48.77057" lon="7.41483">
        <ele>191.6</ele>
        <time>2020-09-24T09:54:12Z</time>
      </trkpt>
      <trkpt lat="48.77067" lon="7.41515">
        <ele>192</ele>
        <time>2020-09-24T09:54:18Z</time>
      </trkpt>
      <trkpt lat="48.77075" lon="7.41517">
        <ele>192.2</ele>
        <time>2020-09-24T09:54:20Z</time>
      </trkpt>
      <trkpt lat="48.77078" lon="7.41515">
        <ele>192.2</ele>
        <time>2020-09-24T09:54:21Z</time>
      </trkpt>
      <trkpt lat="48.77099" lon="7.415">
        <ele>192.4</ele>
        <time>2020-09-24T09:54:27Z</time>
      </trkpt>
      <trkpt lat="48.77135" lon="7.41474">
        <ele>192.6</ele>
        <time>2020-09-24T09:54:37Z</time>
      </trkpt>
      <trkpt lat="48.77161" lon="7.41454">
        <ele>193</ele>
        <time>2020-09-24T09:54:45Z</time>
      </trkpt>
      <trkpt lat="48.77166" lon="7.4145">
        <ele>193</ele>
        <time>2020-09-24T09:54:47Z</time>
      </trkpt>
      <trkpt lat="48.7717" lon="7.41458">
        <ele>193.2</ele>
        <time>2020-09-24T09:54:49Z</time>
      </trkpt>
      <trkpt lat="48.77178" lon="7.41491">
        <ele>193.6</ele>
        <time>2020-09-24T09:54:55Z</time>
      </trkpt>
      <trkpt lat="48.7719" lon="7.41546">
        <ele>193.8</ele>
        <time>2020-09-24T09:55:04Z</time>
      </trkpt>
      <trkpt lat="48.77199" lon="7.41598">
        <ele>193.8</ele>
        <time>2020-09-24T09:55:11Z</time>
      </trkpt>
      <trkpt lat="48.77201" lon="7.41624">
        <ele>193.8</ele>
        <time>2020-09-24T09:55:14Z</time>
      </trkpt>
      <trkpt lat="48.77203" lon="7.41654">
        <ele>193.8</ele>
        <time>2020-09-24T09:55:17Z</time>
      </trkpt>
      <trkpt lat="48.77209" lon="7.41742">
        <ele>193.2</ele>
        <time>2020-09-24T09:55:25Z</time>
      </trkpt>
      <trkpt lat="48.77215" lon="7.41815">
        <ele>193</ele>
        <time>2020-09-24T09:55:31Z</time>
      </trkpt>
      <trkpt lat="48.77221" lon="7.4185">
        <ele>192.8</ele>
        <time>2020-09-24T09:55:34Z</time>
      </trkpt>
      <trkpt lat="48.77225" lon="7.41873">
        <ele>192.6</ele>
        <time>2020-09-24T09:55:36Z</time>
      </trkpt>
      <trkpt lat="48.77229" lon="7.41883">
        <ele>192.6</ele>
        <time>2020-09-24T09:55:37Z</time>
      </trkpt>
      <trkpt lat="48.77241" lon="7.41911">
        <ele>192.4</ele>
        <time>2020-09-24T09:55:40Z</time>
      </trkpt>
      <trkpt lat="48.77271" lon="7.41982">
        <ele>191.6</ele>
        <time>2020-09-24T09:55:47Z</time>
      </trkpt>
      <trkpt lat="48.77302" lon="7.42047">
        <ele>190.4</ele>
        <time>2020-09-24T09:55:53Z</time>
      </trkpt>
      <trkpt lat="48.77337" lon="7.42115">
        <ele>189</ele>
        <time>2020-09-24T09:55:59Z</time>
      </trkpt>
      <trkpt lat="48.77345" lon="7.42141">
        <ele>188.6</ele>
        <time>2020-09-24T09:56:01Z</time>
      </trkpt>
      <trkpt lat="48.7737" lon="7.42215">
        <ele>187.6</ele>
        <time>2020-09-24T09:56:07Z</time>
      </trkpt>
      <trkpt lat="48.7738" lon="7.42252">
        <ele>187</ele>
        <time>2020-09-24T09:56:10Z</time>
      </trkpt>
      <trkpt lat="48.77396" lon="7.42323">
        <ele>186.2</ele>
        <time>2020-09-24T09:56:16Z</time>
      </trkpt>
      <trkpt lat="48.77404" lon="7.42382">
        <ele>185.6</ele>
        <time>2020-09-24T09:56:21Z</time>
      </trkpt>
      <trkpt lat="48.77408" lon="7.42391">
        <ele>185.4</ele>
        <time>2020-09-24T09:56:22Z</time>
      </trkpt>
      <trkpt lat="48.77419" lon="7.42417">
        <ele>185</ele>
        <time>2020-09-24T09:56:25Z</time>
      </trkpt>
      <trkpt lat="48.77427" lon="7.42434">
        <ele>184.8</ele>
        <time>2020-09-24T09:56:27Z</time>
      </trkpt>
      <trkpt lat="48.7744" lon="7.42455">
        <ele>184.4</ele>
        <time>2020-09-24T09:56:30Z</time>
      </trkpt>
      <trkpt lat="48.77449" lon="7.42466">
        <ele>184.2</ele>
        <time>2020-09-24T09:56:32Z</time>
      </trkpt>
      <trkpt lat="48.77474" lon="7.42496">
        <ele>183.8</ele>
        <time>2020-09-24T09:56:37Z</time>
      </trkpt>
      <trkpt lat="48.77509" lon="7.42527">
        <ele>183.4</ele>
        <time>2020-09-24T09:56:44Z</time>
      </trkpt>
      <trkpt lat="48.77531" lon="7.42544">
        <ele>183.4</ele>
        <time>2020-09-24T09:56:50Z</time>
      </trkpt>
      <trkpt lat="48.77552" lon="7.42558">
        <ele>183.2</ele>
        <time>2020-09-24T09:56:57Z</time>
      </trkpt>
      <trkpt lat="48.77582" lon="7.42559">
        <ele>183.2</ele>
        <time>2020-09-24T09:57:07Z</time>
      </trkpt>
      <trkpt lat="48.77609" lon="7.42559">
        <ele>183.6</ele>
        <time>2020-09-24T09:57:16Z</time>
      </trkpt>
      <trkpt lat="48.77628" lon="7.4256">
        <ele>183.6</ele>
        <time>2020-09-24T09:57:23Z</time>
      </trkpt>
      <trkpt lat="48.77652" lon="7.42561">
        <ele>184</ele>
        <time>2020-09-24T09:57:31Z</time>
      </trkpt>
      <trkpt lat="48.77682" lon="7.42562">
        <ele>184.4</ele>
        <time>2020-09-24T09:57:40Z</time>
      </trkpt>
      <trkpt lat="48.77704" lon="7.42569">
        <ele>184.6</ele>
        <time>2020-09-24T09:57:46Z</time>
      </trkpt>
      <trkpt lat="48.77708" lon="7.42573">
        <ele>184.6</ele>
        <time>2020-09-24T09:57:47Z</time>
      </trkpt>
      <trkpt lat="48.77711" lon="7.42578">
        <ele>184.6</ele>
        <time>2020-09-24T09:57:48Z</time>
      </trkpt>
      <trkpt lat="48.77718" lon="7.42589">
        <ele>184.8</ele>
        <time>2020-09-24T09:57:50Z</time>
      </trkpt>
      <trkpt lat="48.77721" lon="7.42596">
        <ele>184.6</ele>
        <time>2020-09-24T09:57:51Z</time>
      </trkpt>
      <trkpt lat="48.77735" lon="7.42639">
        <ele>184.6</ele>
        <time>2020-09-24T09:57:56Z</time>
      </trkpt>
      <trkpt lat="48.77745" lon="7.42656">
        <ele>184.4</ele>
        <time>2020-09-24T09:57:58Z</time>
      </trkpt>
      <trkpt lat="48.77758" lon="7.42666">
        <ele>184.6</ele>
        <time>2020-09-24T09:58:00Z</time>
      </trkpt>
      <trkpt lat="48.77774" lon="7.4267">
        <ele>183.8</ele>
        <time>2020-09-24T09:58:02Z</time>
      </trkpt>
      <trkpt lat="48.77781" lon="7.42672">
        <ele>184.2</ele>
        <time>2020-09-24T09:58:03Z</time>
      </trkpt>
      <trkpt lat="48.77795" lon="7.42673">
        <ele>184</ele>
        <time>2020-09-24T09:58:05Z</time>
      </trkpt>
      <trkpt lat="48.77808" lon="7.42671">
        <ele>183.8</ele>
        <time>2020-09-24T09:58:07Z</time>
      </trkpt>
      <trkpt lat="48.7782" lon="7.4267">
        <ele>183.6</ele>
        <time>2020-09-24T09:58:09Z</time>
      </trkpt>
      <trkpt lat="48.77829" lon="7.42663">
        <ele>183.6</ele>
        <time>2020-09-24T09:58:11Z</time>
      </trkpt>
      <trkpt lat="48.77846" lon="7.42647">
        <ele>183.8</ele>
        <time>2020-09-24T09:58:16Z</time>
      </trkpt>
      <trkpt lat="48.77864" lon="7.42627">
        <ele>183.8</ele>
        <time>2020-09-24T09:58:23Z</time>
      </trkpt>
      <trkpt lat="48.77887" lon="7.42594">
        <ele>184.2</ele>
        <time>2020-09-24T09:58:33Z</time>
      </trkpt>
      <trkpt lat="48.77907" lon="7.42568">
        <ele>184</ele>
        <time>2020-09-24T09:58:41Z</time>
      </trkpt>
      <trkpt lat="48.77925" lon="7.42568">
        <ele>184</ele>
        <time>2020-09-24T09:58:47Z</time>
      </trkpt>
      <trkpt lat="48.7795" lon="7.42569">
        <ele>183.4</ele>
        <time>2020-09-24T09:58:54Z</time>
      </trkpt>
      <trkpt lat="48.77975" lon="7.42573">
        <ele>183</ele>
        <time>2020-09-24T09:59:00Z</time>
      </trkpt>
      <trkpt lat="48.77994" lon="7.42577">
        <ele>183</ele>
        <time>2020-09-24T09:59:05Z</time>
      </trkpt>
      <trkpt lat="48.78019" lon="7.4259">
        <ele>183.2</ele>
        <time>2020-09-24T09:59:11Z</time>
      </trkpt>
      <trkpt lat="48.78053" lon="7.42612">
        <ele>183.8</ele>
        <time>2020-09-24T09:59:19Z</time>
      </trkpt>
      <trkpt lat="48.78064" lon="7.42624">
        <ele>184</ele>
        <time>2020-09-24T09:59:22Z</time>
      </trkpt>
      <trkpt lat="48.78075" lon="7.42635">
        <ele>184</ele>
        <time>2020-09-24T09:59:25Z</time>
      </trkpt>
      <trkpt lat="48.7811" lon="7.42671">
        <ele>184.8</ele>
        <time>2020-09-24T09:59:34Z</time>
      </trkpt>
      <trkpt lat="48.78137" lon="7.42697">
        <ele>185</ele>
        <time>2020-09-24T09:59:40Z</time>
      </trkpt>
      <trkpt lat="48.78167" lon="7.4272">
        <ele>184.8</ele>
        <time>2020-09-24T09:59:45Z</time>
      </trkpt>
      <trkpt lat="48.7821" lon="7.42743">
        <ele>184.6</ele>
        <time>2020-09-24T09:59:51Z</time>
      </trkpt>
      <trkpt lat="48.78265" lon="7.42763">
        <ele>184.2</ele>
        <time>2020-09-24T09:59:59Z</time>
      </trkpt>
      <trkpt lat="48.78306" lon="7.42778">
        <ele>184.8</ele>
        <time>2020-09-24T10:00:06Z</time>
      </trkpt>
      <trkpt lat="48.78359" lon="7.42797">
        <ele>185.4</ele>
        <time>2020-09-24T10:00:16Z</time>
      </trkpt>
      <trkpt lat="48.78397" lon="7.42808">
        <ele>184.8</ele>
        <time>2020-09-24T10:00:23Z</time>
      </trkpt>
      <trkpt lat="48.78429" lon="7.42816">
        <ele>184.4</ele>
        <time>2020-09-24T10:00:29Z</time>
      </trkpt>
      <trkpt lat="48.78454" lon="7.42821">
        <ele>184.2</ele>
        <time>2020-09-24T10:00:34Z</time>
      </trkpt>
      <trkpt lat="48.78473" lon="7.42825">
        <ele>183.8</ele>
        <time>2020-09-24T10:00:38Z</time>
      </trkpt>
      <trkpt lat="48.78477" lon="7.42826">
        <ele>183.8</ele>
        <time>2020-09-24T10:00:39Z</time>
      </trkpt>
      <trkpt lat="48.78481" lon="7.42827">
        <ele>183.8</ele>
        <time>2020-09-24T10:00:40Z</time>
      </trkpt>
      <trkpt lat="48.78499" lon="7.4283">
        <ele>183.4</ele>
        <time>2020-09-24T10:00:44Z</time>
      </trkpt>
      <trkpt lat="48.78515" lon="7.42831">
        <ele>182.8</ele>
        <time>2020-09-24T10:00:48Z</time>
      </trkpt>
      <trkpt lat="48.78534" lon="7.42832">
        <ele>182.2</ele>
        <time>2020-09-24T10:00:52Z</time>
      </trkpt>
      <trkpt lat="48.78539" lon="7.42832">
        <ele>182</ele>
        <time>2020-09-24T10:00:53Z</time>
      </trkpt>
      <trkpt lat="48.78559" lon="7.42832">
        <ele>181.8</ele>
        <time>2020-09-24T10:00:57Z</time>
      </trkpt>
      <trkpt lat="48.78574" lon="7.4283">
        <ele>181.8</ele>
        <time>2020-09-24T10:01:00Z</time>
      </trkpt>
      <trkpt lat="48.78579" lon="7.42828">
        <ele>181.8</ele>
        <time>2020-09-24T10:01:01Z</time>
      </trkpt>
      <trkpt lat="48.78591" lon="7.42821">
        <ele>182.2</ele>
        <time>2020-09-24T10:01:04Z</time>
      </trkpt>
      <trkpt lat="48.78598" lon="7.42815">
        <ele>181.2</ele>
        <time>2020-09-24T10:01:06Z</time>
      </trkpt>
      <trkpt lat="48.7861" lon="7.42792">
        <ele>182.6</ele>
        <time>2020-09-24T10:01:10Z</time>
      </trkpt>
      <trkpt lat="48.78613" lon="7.42786">
        <ele>182.8</ele>
        <time>2020-09-24T10:01:11Z</time>
      </trkpt>
      <trkpt lat="48.78623" lon="7.42767">
        <ele>183.2</ele>
        <time>2020-09-24T10:01:14Z</time>
      </trkpt>
      <trkpt lat="48.78629" lon="7.42755">
        <ele>183.4</ele>
        <time>2020-09-24T10:01:16Z</time>
      </trkpt>
      <trkpt lat="48.7865" lon="7.42714">
        <ele>182.8</ele>
        <time>2020-09-24T10:01:23Z</time>
      </trkpt>
      <trkpt lat="48.78678" lon="7.42658">
        <ele>183.4</ele>
        <time>2020-09-24T10:01:33Z</time>
      </trkpt>
      <trkpt lat="48.78699" lon="7.42619">
        <ele>183.8</ele>
        <time>2020-09-24T10:01:40Z</time>
      </trkpt>
      <trkpt lat="48.78731" lon="7.42567">
        <ele>183.6</ele>
        <time>2020-09-24T10:01:49Z</time>
      </trkpt>
      <trkpt lat="48.78766" lon="7.42512">
        <ele>183.2</ele>
        <time>2020-09-24T10:01:58Z</time>
      </trkpt>
      <trkpt lat="48.78795" lon="7.42465">
        <ele>183</ele>
        <time>2020-09-24T10:02:06Z</time>
      </trkpt>
      <trkpt lat="48.78809" lon="7.42443">
        <ele>183</ele>
        <time>2020-09-24T10:02:10Z</time>
      </trkpt>
      <trkpt lat="48.78816" lon="7.42432">
        <ele>183.2</ele>
        <time>2020-09-24T10:02:12Z</time>
      </trkpt>
      <trkpt lat="48.78832" lon="7.4241">
        <ele>183.2</ele>
        <time>2020-09-24T10:02:17Z</time>
      </trkpt>
      <trkpt lat="48.78836" lon="7.42406">
        <ele>183.2</ele>
        <time>2020-09-24T10:02:18Z</time>
      </trkpt>
      <trkpt lat="48.78861" lon="7.42384">
        <ele>182.6</ele>
        <time>2020-09-24T10:02:24Z</time>
      </trkpt>
      <trkpt lat="48.78884" lon="7.42374">
        <ele>182.8</ele>
        <time>2020-09-24T10:02:29Z</time>
      </trkpt>
      <trkpt lat="48.78905" lon="7.42363">
        <ele>182.6</ele>
        <time>2020-09-24T10:02:34Z</time>
      </trkpt>
      <trkpt lat="48.78917" lon="7.42358">
        <ele>182.6</ele>
        <time>2020-09-24T10:02:37Z</time>
      </trkpt>
      <trkpt lat="48.78925" lon="7.42354">
        <ele>182.6</ele>
        <time>2020-09-24T10:02:39Z</time>
      </trkpt>
      <trkpt lat="48.78954" lon="7.42336">
        <ele>182.6</ele>
        <time>2020-09-24T10:02:46Z</time>
      </trkpt>
      <trkpt lat="48.78983" lon="7.42316">
        <ele>182.8</ele>
        <time>2020-09-24T10:02:53Z</time>
      </trkpt>
      <trkpt lat="48.78991" lon="7.42311">
        <ele>182.8</ele>
        <time>2020-09-24T10:02:55Z</time>
      </trkpt>
      <trkpt lat="48.78998" lon="7.42306">
        <ele>182.8</ele>
        <time>2020-09-24T10:02:57Z</time>
      </trkpt>
      <trkpt lat="48.79002" lon="7.42303">
        <ele>182.8</ele>
        <time>2020-09-24T10:02:58Z</time>
      </trkpt>
      <trkpt lat="48.79014" lon="7.42295">
        <ele>182.8</ele>
        <time>2020-09-24T10:03:01Z</time>
      </trkpt>
      <trkpt lat="48.79028" lon="7.42286">
        <ele>182.8</ele>
        <time>2020-09-24T10:03:04Z</time>
      </trkpt>
      <trkpt lat="48.7906" lon="7.42265">
        <ele>182.4</ele>
        <time>2020-09-24T10:03:10Z</time>
      </trkpt>
      <trkpt lat="48.79095" lon="7.42246">
        <ele>181.6</ele>
        <time>2020-09-24T10:03:16Z</time>
      </trkpt>
      <trkpt lat="48.79114" lon="7.42237">
        <ele>181</ele>
        <time>2020-09-24T10:03:20Z</time>
      </trkpt>
      <trkpt lat="48.79116" lon="7.42236">
        <ele>180.8</ele>
        <time>2020-09-24T10:03:21Z</time>
      </trkpt>
      <trkpt lat="48.7912" lon="7.4222">
        <ele>180.6</ele>
        <time>2020-09-24T10:03:23Z</time>
      </trkpt>
      <trkpt lat="48.7913" lon="7.42204">
        <ele>180.4</ele>
        <time>2020-09-24T10:03:26Z</time>
      </trkpt>
      <trkpt lat="48.79138" lon="7.42189">
        <ele>180.4</ele>
        <time>2020-09-24T10:03:29Z</time>
      </trkpt>
      <trkpt lat="48.7916" lon="7.42157">
        <ele>180.4</ele>
        <time>2020-09-24T10:03:37Z</time>
      </trkpt>
      <trkpt lat="48.79174" lon="7.42133">
        <ele>180.2</ele>
        <time>2020-09-24T10:03:43Z</time>
      </trkpt>
      <trkpt lat="48.79182" lon="7.42109">
        <ele>179.8</ele>
        <time>2020-09-24T10:03:48Z</time>
      </trkpt>
      <trkpt lat="48.79194" lon="7.42075">
        <ele>180.8</ele>
        <time>2020-09-24T10:03:56Z</time>
      </trkpt>
      <trkpt lat="48.79207" lon="7.42046">
        <ele>181.2</ele>
        <time>2020-09-24T10:04:03Z</time>
      </trkpt>
      <trkpt lat="48.79215" lon="7.42028">
        <ele>181.2</ele>
        <time>2020-09-24T10:04:08Z</time>
      </trkpt>
      <trkpt lat="48.79226" lon="7.42009">
        <ele>181</ele>
        <time>2020-09-24T10:04:14Z</time>
      </trkpt>
      <trkpt lat="48.79242" lon="7.41998">
        <ele>180.6</ele>
        <time>2020-09-24T10:04:19Z</time>
      </trkpt>
      <trkpt lat="48.79255" lon="7.41999">
        <ele>180.2</ele>
        <time>2020-09-24T10:04:23Z</time>
      </trkpt>
      <trkpt lat="48.79274" lon="7.42004">
        <ele>180.6</ele>
        <time>2020-09-24T10:04:29Z</time>
      </trkpt>
      <trkpt lat="48.79299" lon="7.42007">
        <ele>181.6</ele>
        <time>2020-09-24T10:04:36Z</time>
      </trkpt>
      <trkpt lat="48.79311" lon="7.42008">
        <ele>181.8</ele>
        <time>2020-09-24T10:04:39Z</time>
      </trkpt>
      <trkpt lat="48.79323" lon="7.42008">
        <ele>182</ele>
        <time>2020-09-24T10:04:42Z</time>
      </trkpt>
      <trkpt lat="48.79338" lon="7.42007">
        <ele>182</ele>
        <time>2020-09-24T10:04:45Z</time>
      </trkpt>
      <trkpt lat="48.79354" lon="7.42005">
        <ele>182</ele>
        <time>2020-09-24T10:04:48Z</time>
      </trkpt>
      <trkpt lat="48.79392" lon="7.4199">
        <ele>182</ele>
        <time>2020-09-24T10:04:55Z</time>
      </trkpt>
      <trkpt lat="48.79428" lon="7.41969">
        <ele>182.6</ele>
        <time>2020-09-24T10:05:02Z</time>
      </trkpt>
      <trkpt lat="48.79449" lon="7.41958">
        <ele>182</ele>
        <time>2020-09-24T10:05:06Z</time>
      </trkpt>
      <trkpt lat="48.79463" lon="7.41951">
        <ele>182.2</ele>
        <time>2020-09-24T10:05:09Z</time>
      </trkpt>
      <trkpt lat="48.79495" lon="7.41934">
        <ele>182.2</ele>
        <time>2020-09-24T10:05:16Z</time>
      </trkpt>
      <trkpt lat="48.79527" lon="7.41909">
        <ele>182.2</ele>
        <time>2020-09-24T10:05:24Z</time>
      </trkpt>
      <trkpt lat="48.7956" lon="7.41882">
        <ele>182.2</ele>
        <time>2020-09-24T10:05:33Z</time>
      </trkpt>
      <trkpt lat="48.79597" lon="7.41851">
        <ele>182.8</ele>
        <time>2020-09-24T10:05:43Z</time>
      </trkpt>
      <trkpt lat="48.79626" lon="7.41825">
        <ele>183</ele>
        <time>2020-09-24T10:05:51Z</time>
      </trkpt>
      <trkpt lat="48.79656" lon="7.41799">
        <ele>183.2</ele>
        <time>2020-09-24T10:05:58Z</time>
      </trkpt>
      <trkpt lat="48.79673" lon="7.41783">
        <ele>183.2</ele>
        <time>2020-09-24T10:06:02Z</time>
      </trkpt>
      <trkpt lat="48.7968" lon="7.41772">
        <ele>183.2</ele>
        <time>2020-09-24T10:06:04Z</time>
      </trkpt>
      <trkpt lat="48.79693" lon="7.4175">
        <ele>183.2</ele>
        <time>2020-09-24T10:06:08Z</time>
      </trkpt>
      <trkpt lat="48.797" lon="7.41739">
        <ele>183.2</ele>
        <time>2020-09-24T10:06:10Z</time>
      </trkpt>
      <trkpt lat="48.79727" lon="7.41694">
        <ele>183.4</ele>
        <time>2020-09-24T10:06:18Z</time>
      </trkpt>
      <trkpt lat="48.79733" lon="7.41683">
        <ele>183.4</ele>
        <time>2020-09-24T10:06:20Z</time>
      </trkpt>
      <trkpt lat="48.79745" lon="7.41662">
        <ele>183.2</ele>
        <time>2020-09-24T10:06:24Z</time>
      </trkpt>
      <trkpt lat="48.7977" lon="7.41622">
        <ele>183.2</ele>
        <time>2020-09-24T10:06:32Z</time>
      </trkpt>
      <trkpt lat="48.79776" lon="7.41611">
        <ele>183</ele>
        <time>2020-09-24T10:06:34Z</time>
      </trkpt>
      <trkpt lat="48.79786" lon="7.41595">
        <ele>182.8</ele>
        <time>2020-09-24T10:06:37Z</time>
      </trkpt>
      <trkpt lat="48.79801" lon="7.41569">
        <ele>182.4</ele>
        <time>2020-09-24T10:06:42Z</time>
      </trkpt>
      <trkpt lat="48.79805" lon="7.41563">
        <ele>182.4</ele>
        <time>2020-09-24T10:06:43Z</time>
      </trkpt>
      <trkpt lat="48.79831" lon="7.41519">
        <ele>181.8</ele>
        <time>2020-09-24T10:06:51Z</time>
      </trkpt>
      <trkpt lat="48.7985" lon="7.41483">
        <ele>181.8</ele>
        <time>2020-09-24T10:06:58Z</time>
      </trkpt>
      <trkpt lat="48.79859" lon="7.41465">
        <ele>181.6</ele>
        <time>2020-09-24T10:07:02Z</time>
      </trkpt>
      <trkpt lat="48.79872" lon="7.41436">
        <ele>181.8</ele>
        <time>2020-09-24T10:07:08Z</time>
      </trkpt>
      <trkpt lat="48.79883" lon="7.414">
        <ele>182.2</ele>
        <time>2020-09-24T10:07:15Z</time>
      </trkpt>
      <trkpt lat="48.79893" lon="7.41357">
        <ele>183</ele>
        <time>2020-09-24T10:07:23Z</time>
      </trkpt>
      <trkpt lat="48.799" lon="7.41329">
        <ele>183.4</ele>
        <time>2020-09-24T10:07:29Z</time>
      </trkpt>
      <trkpt lat="48.79906" lon="7.41305">
        <ele>183.8</ele>
        <time>2020-09-24T10:07:34Z</time>
      </trkpt>
      <trkpt lat="48.79914" lon="7.4127">
        <ele>184.4</ele>
        <time>2020-09-24T10:07:41Z</time>
      </trkpt>
      <trkpt lat="48.79917" lon="7.41258">
        <ele>184.6</ele>
        <time>2020-09-24T10:07:43Z</time>
      </trkpt>
      <trkpt lat="48.79921" lon="7.41235">
        <ele>184.8</ele>
        <time>2020-09-24T10:07:47Z</time>
      </trkpt>
      <trkpt lat="48.79928" lon="7.4119">
        <ele>185.6</ele>
        <time>2020-09-24T10:07:55Z</time>
      </trkpt>
      <trkpt lat="48.79935" lon="7.41133">
        <ele>186.6</ele>
        <time>2020-09-24T10:08:05Z</time>
      </trkpt>
      <trkpt lat="48.79937" lon="7.41109">
        <ele>187</ele>
        <time>2020-09-24T10:08:10Z</time>
      </trkpt>
      <trkpt lat="48.79966" lon="7.41094">
        <ele>187.2</ele>
        <time>2020-09-24T10:08:14Z</time>
      </trkpt>
      <trkpt lat="48.79969" lon="7.41081">
        <ele>187.2</ele>
        <time>2020-09-24T10:08:16Z</time>
      </trkpt>
      <trkpt lat="48.79965" lon="7.4107">
        <ele>187.2</ele>
        <time>2020-09-24T10:08:18Z</time>
      </trkpt>
      <trkpt lat="48.79963" lon="7.41065">
        <ele>187.4</ele>
        <time>2020-09-24T10:08:19Z</time>
      </trkpt>
      <trkpt lat="48.79949" lon="7.41024">
        <ele>188</ele>
        <time>2020-09-24T10:08:27Z</time>
      </trkpt>
      <trkpt lat="48.79936" lon="7.40984">
        <ele>188.6</ele>
        <time>2020-09-24T10:08:35Z</time>
      </trkpt>
      <trkpt lat="48.79934" lon="7.40932">
        <ele>189</ele>
        <time>2020-09-24T10:08:44Z</time>
      </trkpt>
      <trkpt lat="48.79934" lon="7.40876">
        <ele>189.6</ele>
        <time>2020-09-24T10:08:53Z</time>
      </trkpt>
      <trkpt lat="48.79934" lon="7.40821">
        <ele>190.2</ele>
        <time>2020-09-24T10:09:02Z</time>
      </trkpt>
      <trkpt lat="48.79934" lon="7.40763">
        <ele>190.8</ele>
        <time>2020-09-24T10:09:11Z</time>
      </trkpt>
      <trkpt lat="48.79938" lon="7.40726">
        <ele>191</ele>
        <time>2020-09-24T10:09:17Z</time>
      </trkpt>
      <trkpt lat="48.79939" lon="7.40712">
        <ele>191.2</ele>
        <time>2020-09-24T10:09:19Z</time>
      </trkpt>
      <trkpt lat="48.79943" lon="7.40673">
        <ele>191.6</ele>
        <time>2020-09-24T10:09:26Z</time>
      </trkpt>
      <trkpt lat="48.79947" lon="7.40629">
        <ele>192</ele>
        <time>2020-09-24T10:09:34Z</time>
      </trkpt>
      <trkpt lat="48.79947" lon="7.40572">
        <ele>192.6</ele>
        <time>2020-09-24T10:09:44Z</time>
      </trkpt>
      <trkpt lat="48.79947" lon="7.40546">
        <ele>192.8</ele>
        <time>2020-09-24T10:09:49Z</time>
      </trkpt>
      <trkpt lat="48.79947" lon="7.4053">
        <ele>193</ele>
        <time>2020-09-24T10:09:52Z</time>
      </trkpt>
      <trkpt lat="48.79947" lon="7.40518">
        <ele>193</ele>
        <time>2020-09-24T10:09:54Z</time>
      </trkpt>
      <trkpt lat="48.79983" lon="7.40479">
        <ele>193.4</ele>
        <time>2020-09-24T10:10:00Z</time>
      </trkpt>
      <trkpt lat="48.79986" lon="7.40474">
        <ele>193.4</ele>
        <time>2020-09-24T10:10:01Z</time>
      </trkpt>
      <trkpt lat="48.80012" lon="7.40427">
        <ele>193.8</ele>
        <time>2020-09-24T10:10:11Z</time>
      </trkpt>
      <trkpt lat="48.80037" lon="7.40383">
        <ele>194.4</ele>
        <time>2020-09-24T10:10:20Z</time>
      </trkpt>
      <trkpt lat="48.80065" lon="7.40348">
        <ele>194.6</ele>
        <time>2020-09-24T10:10:28Z</time>
      </trkpt>
      <trkpt lat="48.80098" lon="7.4032">
        <ele>194.6</ele>
        <time>2020-09-24T10:10:36Z</time>
      </trkpt>
      <trkpt lat="48.80127" lon="7.40287">
        <ele>194.6</ele>
        <time>2020-09-24T10:10:43Z</time>
      </trkpt>
      <trkpt lat="48.80165" lon="7.40284">
        <ele>194.4</ele>
        <time>2020-09-24T10:10:49Z</time>
      </trkpt>
      <trkpt lat="48.80214" lon="7.4028">
        <ele>193.6</ele>
        <time>2020-09-24T10:10:55Z</time>
      </trkpt>
      <trkpt lat="48.80263" lon="7.40273">
        <ele>192.6</ele>
        <time>2020-09-24T10:11:00Z</time>
      </trkpt>
      <trkpt lat="48.80325" lon="7.40266">
        <ele>191.6</ele>
        <time>2020-09-24T10:11:06Z</time>
      </trkpt>
      <trkpt lat="48.80334" lon="7.40266">
        <ele>191.6</ele>
        <time>2020-09-24T10:11:07Z</time>
      </trkpt>
      <trkpt lat="48.80385" lon="7.40263">
        <ele>191.2</ele>
        <time>2020-09-24T10:11:13Z</time>
      </trkpt>
      <trkpt lat="48.80411" lon="7.40263">
        <ele>190.8</ele>
        <time>2020-09-24T10:11:17Z</time>
      </trkpt>
      <trkpt lat="48.80421" lon="7.40263">
        <ele>190.8</ele>
        <time>2020-09-24T10:11:19Z</time>
      </trkpt>
      <trkpt lat="48.80433" lon="7.40264">
        <ele>190.6</ele>
        <time>2020-09-24T10:11:22Z</time>
      </trkpt>
      <trkpt lat="48.80461" lon="7.40261">
        <ele>190.4</ele>
        <time>2020-09-24T10:11:29Z</time>
      </trkpt>
      <trkpt lat="48.80484" lon="7.40256">
        <ele>189.8</ele>
        <time>2020-09-24T10:11:35Z</time>
      </trkpt>
      <trkpt lat="48.80507" lon="7.4025">
        <ele>189.2</ele>
        <time>2020-09-24T10:11:41Z</time>
      </trkpt>
      <trkpt lat="48.80531" lon="7.40231">
        <ele>188.6</ele>
        <time>2020-09-24T10:11:48Z</time>
      </trkpt>
      <trkpt lat="48.80539" lon="7.40225">
        <ele>188.4</ele>
        <time>2020-09-24T10:11:50Z</time>
      </trkpt>
      <trkpt lat="48.80547" lon="7.40219">
        <ele>188.2</ele>
        <time>2020-09-24T10:11:52Z</time>
      </trkpt>
      <trkpt lat="48.80552" lon="7.40217">
        <ele>188</ele>
        <time>2020-09-24T10:11:53Z</time>
      </trkpt>
      <trkpt lat="48.80581" lon="7.40215">
        <ele>187.8</ele>
        <time>2020-09-24T10:11:59Z</time>
      </trkpt>
      <trkpt lat="48.80621" lon="7.4022">
        <ele>187.2</ele>
        <time>2020-09-24T10:12:06Z</time>
      </trkpt>
      <trkpt lat="48.80659" lon="7.40232">
        <ele>186.6</ele>
        <time>2020-09-24T10:12:12Z</time>
      </trkpt>
      <trkpt lat="48.80684" lon="7.40242">
        <ele>186.4</ele>
        <time>2020-09-24T10:12:16Z</time>
      </trkpt>
      <trkpt lat="48.80689" lon="7.40253">
        <ele>186.4</ele>
        <time>2020-09-24T10:12:17Z</time>
      </trkpt>
      <trkpt lat="48.80692" lon="7.40261">
        <ele>186.4</ele>
        <time>2020-09-24T10:12:18Z</time>
      </trkpt>
      <trkpt lat="48.80697" lon="7.40276">
        <ele>186.2</ele>
        <time>2020-09-24T10:12:20Z</time>
      </trkpt>
      <trkpt lat="48.80712" lon="7.40315">
        <ele>186</ele>
        <time>2020-09-24T10:12:25Z</time>
      </trkpt>
      <trkpt lat="48.80733" lon="7.40373">
        <ele>186.2</ele>
        <time>2020-09-24T10:12:33Z</time>
      </trkpt>
      <trkpt lat="48.80757" lon="7.40416">
        <ele>186.8</ele>
        <time>2020-09-24T10:12:40Z</time>
      </trkpt>
      <trkpt lat="48.80771" lon="7.40438">
        <ele>186.6</ele>
        <time>2020-09-24T10:12:44Z</time>
      </trkpt>
      <trkpt lat="48.80778" lon="7.40447">
        <ele>186.6</ele>
        <time>2020-09-24T10:12:46Z</time>
      </trkpt>
      <trkpt lat="48.80782" lon="7.40451">
        <ele>186.6</ele>
        <time>2020-09-24T10:12:47Z</time>
      </trkpt>
      <trkpt lat="48.80799" lon="7.4047">
        <ele>187.2</ele>
        <time>2020-09-24T10:12:52Z</time>
      </trkpt>
      <trkpt lat="48.80809" lon="7.40482">
        <ele>187.4</ele>
        <time>2020-09-24T10:12:55Z</time>
      </trkpt>
      <trkpt lat="48.80815" lon="7.40489">
        <ele>187.4</ele>
        <time>2020-09-24T10:12:57Z</time>
      </trkpt>
      <trkpt lat="48.80822" lon="7.40497">
        <ele>187.6</ele>
        <time>2020-09-24T10:12:59Z</time>
      </trkpt>
      <trkpt lat="48.80842" lon="7.40526">
        <ele>188</ele>
        <time>2020-09-24T10:13:06Z</time>
      </trkpt>
      <trkpt lat="48.80854" lon="7.40545">
        <ele>188.2</ele>
        <time>2020-09-24T10:13:11Z</time>
      </trkpt>
      <trkpt lat="48.80869" lon="7.40565">
        <ele>188.6</ele>
        <time>2020-09-24T10:13:16Z</time>
      </trkpt>
      <trkpt lat="48.80888" lon="7.40584">
        <ele>189.2</ele>
        <time>2020-09-24T10:13:22Z</time>
      </trkpt>
      <trkpt lat="48.80894" lon="7.40591">
        <ele>189.2</ele>
        <time>2020-09-24T10:13:24Z</time>
      </trkpt>
      <trkpt lat="48.80911" lon="7.40598">
        <ele>189.4</ele>
        <time>2020-09-24T10:13:28Z</time>
      </trkpt>
      <trkpt lat="48.80939" lon="7.40607">
        <ele>189.6</ele>
        <time>2020-09-24T10:13:35Z</time>
      </trkpt>
      <trkpt lat="48.8096" lon="7.40613">
        <ele>190</ele>
        <time>2020-09-24T10:13:41Z</time>
      </trkpt>
      <trkpt lat="48.80974" lon="7.40618">
        <ele>190.2</ele>
        <time>2020-09-24T10:13:45Z</time>
      </trkpt>
      <trkpt lat="48.80982" lon="7.40622">
        <ele>190.4</ele>
        <time>2020-09-24T10:13:47Z</time>
      </trkpt>
      <trkpt lat="48.80993" lon="7.40628">
        <ele>190.8</ele>
        <time>2020-09-24T10:13:50Z</time>
      </trkpt>
      <trkpt lat="48.81005" lon="7.40634">
        <ele>190.8</ele>
        <time>2020-09-24T10:13:53Z</time>
      </trkpt>
      <trkpt lat="48.81027" lon="7.40645">
        <ele>191.2</ele>
        <time>2020-09-24T10:13:59Z</time>
      </trkpt>
      <trkpt lat="48.81052" lon="7.40652">
        <ele>191.6</ele>
        <time>2020-09-24T10:14:06Z</time>
      </trkpt>
      <trkpt lat="48.81077" lon="7.40658">
        <ele>191.6</ele>
        <time>2020-09-24T10:14:12Z</time>
      </trkpt>
      <trkpt lat="48.81096" lon="7.40663">
        <ele>191.4</ele>
        <time>2020-09-24T10:14:16Z</time>
      </trkpt>
      <trkpt lat="48.81121" lon="7.4067">
        <ele>190.8</ele>
        <time>2020-09-24T10:14:21Z</time>
      </trkpt>
      <trkpt lat="48.81136" lon="7.40674">
        <ele>191</ele>
        <time>2020-09-24T10:14:24Z</time>
      </trkpt>
      <trkpt lat="48.81144" lon="7.4068">
        <ele>190.8</ele>
        <time>2020-09-24T10:14:26Z</time>
      </trkpt>
      <trkpt lat="48.81165" lon="7.40696">
        <ele>190.6</ele>
        <time>2020-09-24T10:14:32Z</time>
      </trkpt>
      <trkpt lat="48.81179" lon="7.40717">
        <ele>190.8</ele>
        <time>2020-09-24T10:14:38Z</time>
      </trkpt>
      <trkpt lat="48.81187" lon="7.40727">
        <ele>191</ele>
        <time>2020-09-24T10:14:43Z</time>
      </trkpt>
      <trkpt lat="48.81198" lon="7.40734">
        <ele>191.4</ele>
        <time>2020-09-24T10:14:48Z</time>
      </trkpt>
      <trkpt lat="48.81213" lon="7.40737">
        <ele>191.6</ele>
        <time>2020-09-24T10:14:53Z</time>
      </trkpt>
      <trkpt lat="48.81228" lon="7.4074">
        <ele>191.8</ele>
        <time>2020-09-24T10:14:57Z</time>
      </trkpt>
      <trkpt lat="48.81247" lon="7.40743">
        <ele>192</ele>
        <time>2020-09-24T10:15:02Z</time>
      </trkpt>
      <trkpt lat="48.81281" lon="7.40749">
        <ele>192.6</ele>
        <time>2020-09-24T10:15:10Z</time>
      </trkpt>
      <trkpt lat="48.81317" lon="7.40755">
        <ele>193.2</ele>
        <time>2020-09-24T10:15:18Z</time>
      </trkpt>
      <trkpt lat="48.8133" lon="7.40759">
        <ele>193.2</ele>
        <time>2020-09-24T10:15:21Z</time>
      </trkpt>
      <trkpt lat="48.81351" lon="7.40765">
        <ele>193.6</ele>
        <time>2020-09-24T10:15:26Z</time>
      </trkpt>
      <trkpt lat="48.81368" lon="7.4077">
        <ele>193.6</ele>
        <time>2020-09-24T10:15:30Z</time>
      </trkpt>
      <trkpt lat="48.81401" lon="7.4078">
        <ele>193.8</ele>
        <time>2020-09-24T10:15:37Z</time>
      </trkpt>
      <trkpt lat="48.81419" lon="7.40785">
        <ele>193.8</ele>
        <time>2020-09-24T10:15:41Z</time>
      </trkpt>
      <trkpt lat="48.81428" lon="7.40788">
        <ele>193.8</ele>
        <time>2020-09-24T10:15:43Z</time>
      </trkpt>
      <trkpt lat="48.81432" lon="7.40789">
        <ele>193.8</ele>
        <time>2020-09-24T10:15:44Z</time>
      </trkpt>
      <trkpt lat="48.81446" lon="7.40793">
        <ele>194</ele>
        <time>2020-09-24T10:15:47Z</time>
      </trkpt>
      <trkpt lat="48.81455" lon="7.40795">
        <ele>194</ele>
        <time>2020-09-24T10:15:49Z</time>
      </trkpt>
      <trkpt lat="48.81482" lon="7.40801">
        <ele>194</ele>
        <time>2020-09-24T10:15:55Z</time>
      </trkpt>
      <trkpt lat="48.81492" lon="7.40804">
        <ele>193.8</ele>
        <time>2020-09-24T10:15:57Z</time>
      </trkpt>
      <trkpt lat="48.815" lon="7.40805">
        <ele>193.6</ele>
        <time>2020-09-24T10:15:59Z</time>
      </trkpt>
      <trkpt lat="48.81504" lon="7.40806">
        <ele>193.6</ele>
        <time>2020-09-24T10:16:00Z</time>
      </trkpt>
      <trkpt lat="48.81509" lon="7.40807">
        <ele>193.6</ele>
        <time>2020-09-24T10:16:01Z</time>
      </trkpt>
      <trkpt lat="48.81528" lon="7.40812">
        <ele>193.4</ele>
        <time>2020-09-24T10:16:05Z</time>
      </trkpt>
      <trkpt lat="48.81563" lon="7.4082">
        <ele>192.8</ele>
        <time>2020-09-24T10:16:12Z</time>
      </trkpt>
      <trkpt lat="48.81598" lon="7.40827">
        <ele>192.2</ele>
        <time>2020-09-24T10:16:19Z</time>
      </trkpt>
      <trkpt lat="48.81635" lon="7.40836">
        <ele>192.4</ele>
        <time>2020-09-24T10:16:26Z</time>
      </trkpt>
      <trkpt lat="48.81666" lon="7.40842">
        <ele>192</ele>
        <time>2020-09-24T10:16:32Z</time>
      </trkpt>
      <trkpt lat="48.81696" lon="7.4085">
        <ele>193</ele>
        <time>2020-09-24T10:16:38Z</time>
      </trkpt>
      <trkpt lat="48.81706" lon="7.40854">
        <ele>193.2</ele>
        <time>2020-09-24T10:16:40Z</time>
      </trkpt>
      <trkpt lat="48.81752" lon="7.40872">
        <ele>193.8</ele>
        <time>2020-09-24T10:16:49Z</time>
      </trkpt>
      <trkpt lat="48.81799" lon="7.4089">
        <ele>194.6</ele>
        <time>2020-09-24T10:16:58Z</time>
      </trkpt>
      <trkpt lat="48.81821" lon="7.40904">
        <ele>195</ele>
        <time>2020-09-24T10:17:03Z</time>
      </trkpt>
      <trkpt lat="48.81828" lon="7.4091">
        <ele>195.4</ele>
        <time>2020-09-24T10:17:05Z</time>
      </trkpt>
      <trkpt lat="48.81845" lon="7.40928">
        <ele>196.2</ele>
        <time>2020-09-24T10:17:11Z</time>
      </trkpt>
      <trkpt lat="48.81849" lon="7.40938">
        <ele>196.6</ele>
        <time>2020-09-24T10:17:13Z</time>
      </trkpt>
      <trkpt lat="48.81859" lon="7.40951">
        <ele>196.8</ele>
        <time>2020-09-24T10:17:16Z</time>
      </trkpt>
      <trkpt lat="48.81863" lon="7.40955">
        <ele>197</ele>
        <time>2020-09-24T10:17:17Z</time>
      </trkpt>
      <trkpt lat="48.81892" lon="7.40988">
        <ele>198</ele>
        <time>2020-09-24T10:17:25Z</time>
      </trkpt>
      <trkpt lat="48.81908" lon="7.41006">
        <ele>198.4</ele>
        <time>2020-09-24T10:17:29Z</time>
      </trkpt>
      <trkpt lat="48.81916" lon="7.41015">
        <ele>198.6</ele>
        <time>2020-09-24T10:17:31Z</time>
      </trkpt>
      <trkpt lat="48.8192" lon="7.4102">
        <ele>198.6</ele>
        <time>2020-09-24T10:17:32Z</time>
      </trkpt>
      <trkpt lat="48.81932" lon="7.41034">
        <ele>198.8</ele>
        <time>2020-09-24T10:17:35Z</time>
      </trkpt>
      <trkpt lat="48.81936" lon="7.41039">
        <ele>199</ele>
        <time>2020-09-24T10:17:36Z</time>
      </trkpt>
      <trkpt lat="48.81972" lon="7.41079">
        <ele>199.6</ele>
        <time>2020-09-24T10:17:44Z</time>
      </trkpt>
      <trkpt lat="48.81997" lon="7.41108">
        <ele>200</ele>
        <time>2020-09-24T10:17:50Z</time>
      </trkpt>
      <trkpt lat="48.82001" lon="7.41112">
        <ele>200</ele>
        <time>2020-09-24T10:17:51Z</time>
      </trkpt>
      <trkpt lat="48.82025" lon="7.4114">
        <ele>200.4</ele>
        <time>2020-09-24T10:17:57Z</time>
      </trkpt>
      <trkpt lat="48.82049" lon="7.41168">
        <ele>201</ele>
        <time>2020-09-24T10:18:04Z</time>
      </trkpt>
      <trkpt lat="48.82063" lon="7.41177">
        <ele>201.2</ele>
        <time>2020-09-24T10:18:08Z</time>
      </trkpt>
      <trkpt lat="48.82067" lon="7.41177">
        <ele>201.4</ele>
        <time>2020-09-24T10:18:09Z</time>
      </trkpt>
      <trkpt lat="48.82072" lon="7.41175">
        <ele>201.4</ele>
        <time>2020-09-24T10:18:10Z</time>
      </trkpt>
      <trkpt lat="48.82082" lon="7.41163">
        <ele>201.4</ele>
        <time>2020-09-24T10:18:13Z</time>
      </trkpt>
      <trkpt lat="48.82093" lon="7.41121">
        <ele>201.6</ele>
        <time>2020-09-24T10:18:19Z</time>
      </trkpt>
      <trkpt lat="48.82103" lon="7.41103">
        <ele>201.6</ele>
        <time>2020-09-24T10:18:22Z</time>
      </trkpt>
      <trkpt lat="48.82114" lon="7.41075">
        <ele>201.6</ele>
        <time>2020-09-24T10:18:26Z</time>
      </trkpt>
      <trkpt lat="48.8213" lon="7.41028">
        <ele>201.8</ele>
        <time>2020-09-24T10:18:33Z</time>
      </trkpt>
      <trkpt lat="48.82132" lon="7.41022">
        <ele>201.8</ele>
        <time>2020-09-24T10:18:34Z</time>
      </trkpt>
      <trkpt lat="48.82138" lon="7.41003">
        <ele>201.8</ele>
        <time>2020-09-24T10:18:37Z</time>
      </trkpt>
      <trkpt lat="48.8214" lon="7.40997">
        <ele>201.8</ele>
        <time>2020-09-24T10:18:38Z</time>
      </trkpt>
      <trkpt lat="48.82154" lon="7.40954">
        <ele>201.8</ele>
        <time>2020-09-24T10:18:45Z</time>
      </trkpt>
      <trkpt lat="48.82158" lon="7.40942">
        <ele>201.8</ele>
        <time>2020-09-24T10:18:47Z</time>
      </trkpt>
      <trkpt lat="48.82162" lon="7.4093">
        <ele>201.6</ele>
        <time>2020-09-24T10:18:49Z</time>
      </trkpt>
      <trkpt lat="48.82167" lon="7.40918">
        <ele>201.6</ele>
        <time>2020-09-24T10:18:51Z</time>
      </trkpt>
      <trkpt lat="48.8218" lon="7.40878">
        <ele>201</ele>
        <time>2020-09-24T10:18:58Z</time>
      </trkpt>
      <trkpt lat="48.82195" lon="7.40839">
        <ele>201</ele>
        <time>2020-09-24T10:19:05Z</time>
      </trkpt>
      <trkpt lat="48.82199" lon="7.40834">
        <ele>201.4</ele>
        <time>2020-09-24T10:19:06Z</time>
      </trkpt>
      <trkpt lat="48.82218" lon="7.40808">
        <ele>201.8</ele>
        <time>2020-09-24T10:19:12Z</time>
      </trkpt>
      <trkpt lat="48.82221" lon="7.40803">
        <ele>202</ele>
        <time>2020-09-24T10:19:13Z</time>
      </trkpt>
      <trkpt lat="48.82234" lon="7.40785">
        <ele>202</ele>
        <time>2020-09-24T10:19:17Z</time>
      </trkpt>
      <trkpt lat="48.82262" lon="7.40747">
        <ele>202.4</ele>
        <time>2020-09-24T10:19:26Z</time>
      </trkpt>
      <trkpt lat="48.82284" lon="7.40717">
        <ele>202.6</ele>
        <time>2020-09-24T10:19:33Z</time>
      </trkpt>
      <trkpt lat="48.82305" lon="7.40688">
        <ele>203</ele>
        <time>2020-09-24T10:19:40Z</time>
      </trkpt>
      <trkpt lat="48.82327" lon="7.40658">
        <ele>203</ele>
        <time>2020-09-24T10:19:47Z</time>
      </trkpt>
      <trkpt lat="48.82346" lon="7.40631">
        <ele>203.2</ele>
        <time>2020-09-24T10:19:53Z</time>
      </trkpt>
      <trkpt lat="48.82369" lon="7.40601">
        <ele>203.6</ele>
        <time>2020-09-24T10:20:00Z</time>
      </trkpt>
      <trkpt lat="48.82388" lon="7.40574">
        <ele>204</ele>
        <time>2020-09-24T10:20:07Z</time>
      </trkpt>
      <trkpt lat="48.82402" lon="7.40547">
        <ele>204.4</ele>
        <time>2020-09-24T10:20:13Z</time>
      </trkpt>
      <trkpt lat="48.82411" lon="7.40525">
        <ele>205.2</ele>
        <time>2020-09-24T10:20:18Z</time>
      </trkpt>
      <trkpt lat="48.82424" lon="7.40492">
        <ele>206.2</ele>
        <time>2020-09-24T10:20:26Z</time>
      </trkpt>
      <trkpt lat="48.82436" lon="7.40464">
        <ele>207.2</ele>
        <time>2020-09-24T10:20:33Z</time>
      </trkpt>
      <trkpt lat="48.82446" lon="7.40439">
        <ele>207.8</ele>
        <time>2020-09-24T10:20:39Z</time>
      </trkpt>
      <trkpt lat="48.82465" lon="7.40436">
        <ele>208.4</ele>
        <time>2020-09-24T10:20:44Z</time>
      </trkpt>
      <trkpt lat="48.82481" lon="7.40439">
        <ele>208.6</ele>
        <time>2020-09-24T10:20:49Z</time>
      </trkpt>
      <trkpt lat="48.82494" lon="7.40441">
        <ele>208.6</ele>
        <time>2020-09-24T10:20:53Z</time>
      </trkpt>
      <trkpt lat="48.82496" lon="7.40441">
        <ele>208.6</ele>
        <time>2020-09-24T10:20:54Z</time>
      </trkpt>
      <trkpt lat="48.8251" lon="7.40443">
        <ele>208.4</ele>
        <time>2020-09-24T10:20:58Z</time>
      </trkpt>
      <trkpt lat="48.82516" lon="7.40444">
        <ele>208.6</ele>
        <time>2020-09-24T10:21:00Z</time>
      </trkpt>
      <trkpt lat="48.82531" lon="7.40446">
        <ele>206.8</ele>
        <time>2020-09-24T10:21:04Z</time>
      </trkpt>
      <trkpt lat="48.82551" lon="7.40448">
        <ele>205.2</ele>
        <time>2020-09-24T10:21:11Z</time>
      </trkpt>
      <trkpt lat="48.82564" lon="7.4045">
        <ele>205.4</ele>
        <time>2020-09-24T10:21:18Z</time>
      </trkpt>
      <trkpt lat="48.82574" lon="7.4045">
        <ele>204</ele>
        <time>2020-09-24T10:21:23Z</time>
      </trkpt>
      <trkpt lat="48.82587" lon="7.40449">
        <ele>207.6</ele>
        <time>2020-09-24T10:21:29Z</time>
      </trkpt>
      <trkpt lat="48.82602" lon="7.4045">
        <ele>207.2</ele>
        <time>2020-09-24T10:21:36Z</time>
      </trkpt>
      <trkpt lat="48.82617" lon="7.40454">
        <ele>208.2</ele>
        <time>2020-09-24T10:21:44Z</time>
      </trkpt>
      <trkpt lat="48.82634" lon="7.40459">
        <ele>209.8</ele>
        <time>2020-09-24T10:21:52Z</time>
      </trkpt>
      <trkpt lat="48.82648" lon="7.40463">
        <ele>210.2</ele>
        <time>2020-09-24T10:21:58Z</time>
      </trkpt>
      <trkpt lat="48.8266" lon="7.40469">
        <ele>211.2</ele>
        <time>2020-09-24T10:22:04Z</time>
      </trkpt>
      <trkpt lat="48.82678" lon="7.40476">
        <ele>212.2</ele>
        <time>2020-09-24T10:22:12Z</time>
      </trkpt>
      <trkpt lat="48.82695" lon="7.40497">
        <ele>214.2</ele>
        <time>2020-09-24T10:22:22Z</time>
      </trkpt>
      <trkpt lat="48.82708" lon="7.40519">
        <ele>216</ele>
        <time>2020-09-24T10:22:30Z</time>
      </trkpt>
      <trkpt lat="48.82717" lon="7.40533">
        <ele>217.4</ele>
        <time>2020-09-24T10:22:36Z</time>
      </trkpt>
      <trkpt lat="48.8273" lon="7.40551">
        <ele>219.2</ele>
        <time>2020-09-24T10:22:44Z</time>
      </trkpt>
      <trkpt lat="48.82743" lon="7.40565">
        <ele>220.8</ele>
        <time>2020-09-24T10:22:51Z</time>
      </trkpt>
      <trkpt lat="48.8276" lon="7.40571">
        <ele>222.6</ele>
        <time>2020-09-24T10:22:59Z</time>
      </trkpt>
      <trkpt lat="48.82778" lon="7.40568">
        <ele>224.4</ele>
        <time>2020-09-24T10:23:07Z</time>
      </trkpt>
      <trkpt lat="48.82796" lon="7.40561">
        <ele>225.8</ele>
        <time>2020-09-24T10:23:15Z</time>
      </trkpt>
      <trkpt lat="48.82815" lon="7.40554">
        <ele>227.4</ele>
        <time>2020-09-24T10:23:24Z</time>
      </trkpt>
      <trkpt lat="48.82831" lon="7.40547">
        <ele>228.8</ele>
        <time>2020-09-24T10:23:32Z</time>
      </trkpt>
      <trkpt lat="48.82845" lon="7.40542">
        <ele>230</ele>
        <time>2020-09-24T10:23:39Z</time>
      </trkpt>
      <trkpt lat="48.82854" lon="7.40538">
        <ele>230.6</ele>
        <time>2020-09-24T10:23:44Z</time>
      </trkpt>
      <trkpt lat="48.8287" lon="7.4053">
        <ele>231.6</ele>
        <time>2020-09-24T10:23:51Z</time>
      </trkpt>
      <trkpt lat="48.82885" lon="7.40518">
        <ele>232</ele>
        <time>2020-09-24T10:23:56Z</time>
      </trkpt>
      <trkpt lat="48.82908" lon="7.40496">
        <ele>232.4</ele>
        <time>2020-09-24T10:24:01Z</time>
      </trkpt>
      <trkpt lat="48.82922" lon="7.40478">
        <ele>232.6</ele>
        <time>2020-09-24T10:24:04Z</time>
      </trkpt>
      <trkpt lat="48.82928" lon="7.4046">
        <ele>232.6</ele>
        <time>2020-09-24T10:24:06Z</time>
      </trkpt>
      <trkpt lat="48.82932" lon="7.40442">
        <ele>232.6</ele>
        <time>2020-09-24T10:24:08Z</time>
      </trkpt>
      <trkpt lat="48.82936" lon="7.40417">
        <ele>232.8</ele>
        <time>2020-09-24T10:24:11Z</time>
      </trkpt>
      <trkpt lat="48.8294" lon="7.40389">
        <ele>233</ele>
        <time>2020-09-24T10:24:15Z</time>
      </trkpt>
      <trkpt lat="48.82943" lon="7.40362">
        <ele>233.4</ele>
        <time>2020-09-24T10:24:20Z</time>
      </trkpt>
      <trkpt lat="48.82945" lon="7.40348">
        <ele>233.4</ele>
        <time>2020-09-24T10:24:22Z</time>
      </trkpt>
      <trkpt lat="48.82947" lon="7.40332">
        <ele>233.4</ele>
        <time>2020-09-24T10:24:24Z</time>
      </trkpt>
      <trkpt lat="48.82952" lon="7.40285">
        <ele>233.8</ele>
        <time>2020-09-24T10:24:30Z</time>
      </trkpt>
      <trkpt lat="48.82955" lon="7.40259">
        <ele>234.2</ele>
        <time>2020-09-24T10:24:33Z</time>
      </trkpt>
      <trkpt lat="48.82957" lon="7.40245">
        <ele>234.4</ele>
        <time>2020-09-24T10:24:35Z</time>
      </trkpt>
      <trkpt lat="48.82975" lon="7.40187">
        <ele>235</ele>
        <time>2020-09-24T10:24:42Z</time>
      </trkpt>
      <trkpt lat="48.82998" lon="7.40136">
        <ele>235.4</ele>
        <time>2020-09-24T10:24:49Z</time>
      </trkpt>
      <trkpt lat="48.83023" lon="7.40088">
        <ele>235.6</ele>
        <time>2020-09-24T10:24:56Z</time>
      </trkpt>
      <trkpt lat="48.83045" lon="7.40039">
        <ele>235.8</ele>
        <time>2020-09-24T10:25:03Z</time>
      </trkpt>
      <trkpt lat="48.83056" lon="7.40011">
        <ele>235.8</ele>
        <time>2020-09-24T10:25:07Z</time>
      </trkpt>
      <trkpt lat="48.83063" lon="7.39998">
        <ele>235.8</ele>
        <time>2020-09-24T10:25:09Z</time>
      </trkpt>
      <trkpt lat="48.83072" lon="7.39979">
        <ele>235.8</ele>
        <time>2020-09-24T10:25:12Z</time>
      </trkpt>
      <trkpt lat="48.83079" lon="7.39966">
        <ele>235.8</ele>
        <time>2020-09-24T10:25:14Z</time>
      </trkpt>
      <trkpt lat="48.83085" lon="7.39954">
        <ele>235.4</ele>
        <time>2020-09-24T10:25:16Z</time>
      </trkpt>
      <trkpt lat="48.83091" lon="7.39942">
        <ele>235.4</ele>
        <time>2020-09-24T10:25:18Z</time>
      </trkpt>
      <trkpt lat="48.83094" lon="7.39936">
        <ele>235.2</ele>
        <time>2020-09-24T10:25:19Z</time>
      </trkpt>
      <trkpt lat="48.83103" lon="7.39919">
        <ele>234.8</ele>
        <time>2020-09-24T10:25:22Z</time>
      </trkpt>
      <trkpt lat="48.83108" lon="7.39908">
        <ele>234.6</ele>
        <time>2020-09-24T10:25:24Z</time>
      </trkpt>
      <trkpt lat="48.83118" lon="7.39863">
        <ele>234.4</ele>
        <time>2020-09-24T10:25:30Z</time>
      </trkpt>
      <trkpt lat="48.83119" lon="7.39855">
        <ele>234.2</ele>
        <time>2020-09-24T10:25:31Z</time>
      </trkpt>
      <trkpt lat="48.83122" lon="7.39812">
        <ele>234</ele>
        <time>2020-09-24T10:25:37Z</time>
      </trkpt>
      <trkpt lat="48.83126" lon="7.39764">
        <ele>234</ele>
        <time>2020-09-24T10:25:44Z</time>
      </trkpt>
      <trkpt lat="48.83128" lon="7.39736">
        <ele>233.6</ele>
        <time>2020-09-24T10:25:48Z</time>
      </trkpt>
      <trkpt lat="48.8313" lon="7.39711">
        <ele>233.6</ele>
        <time>2020-09-24T10:25:52Z</time>
      </trkpt>
      <trkpt lat="48.83133" lon="7.39679">
        <ele>233.2</ele>
        <time>2020-09-24T10:25:57Z</time>
      </trkpt>
      <trkpt lat="48.83135" lon="7.39655">
        <ele>233.2</ele>
        <time>2020-09-24T10:26:01Z</time>
      </trkpt>
      <trkpt lat="48.83137" lon="7.39623">
        <ele>233.2</ele>
        <time>2020-09-24T10:26:07Z</time>
      </trkpt>
      <trkpt lat="48.83139" lon="7.39604">
        <ele>233</ele>
        <time>2020-09-24T10:26:11Z</time>
      </trkpt>
      <trkpt lat="48.83139" lon="7.39599">
        <ele>233.2</ele>
        <time>2020-09-24T10:26:12Z</time>
      </trkpt>
      <trkpt lat="48.83141" lon="7.39582">
        <ele>233</ele>
        <time>2020-09-24T10:26:15Z</time>
      </trkpt>
      <trkpt lat="48.83142" lon="7.39566">
        <ele>233</ele>
        <time>2020-09-24T10:26:18Z</time>
      </trkpt>
      <trkpt lat="48.83143" lon="7.39555">
        <ele>233</ele>
        <time>2020-09-24T10:26:20Z</time>
      </trkpt>
      <trkpt lat="48.83147" lon="7.39527">
        <ele>233.6</ele>
        <time>2020-09-24T10:26:25Z</time>
      </trkpt>
      <trkpt lat="48.83151" lon="7.39508">
        <ele>233.8</ele>
        <time>2020-09-24T10:26:29Z</time>
      </trkpt>
      <trkpt lat="48.83157" lon="7.39483">
        <ele>234.4</ele>
        <time>2020-09-24T10:26:34Z</time>
      </trkpt>
      <trkpt lat="48.83159" lon="7.39474">
        <ele>234.6</ele>
        <time>2020-09-24T10:26:36Z</time>
      </trkpt>
      <trkpt lat="48.83161" lon="7.39467">
        <ele>234.8</ele>
        <time>2020-09-24T10:26:38Z</time>
      </trkpt>
      <trkpt lat="48.83166" lon="7.39443">
        <ele>235.2</ele>
        <time>2020-09-24T10:26:43Z</time>
      </trkpt>
      <trkpt lat="48.8318" lon="7.39422">
        <ele>235.6</ele>
        <time>2020-09-24T10:26:49Z</time>
      </trkpt>
      <trkpt lat="48.83189" lon="7.39411">
        <ele>236.6</ele>
        <time>2020-09-24T10:26:53Z</time>
      </trkpt>
      <trkpt lat="48.83202" lon="7.39396">
        <ele>237.8</ele>
        <time>2020-09-24T10:26:59Z</time>
      </trkpt>
      <trkpt lat="48.83211" lon="7.39386">
        <ele>238.4</ele>
        <time>2020-09-24T10:27:04Z</time>
      </trkpt>
      <trkpt lat="48.83218" lon="7.39377">
        <ele>238.8</ele>
        <time>2020-09-24T10:27:08Z</time>
      </trkpt>
      <trkpt lat="48.83228" lon="7.3937">
        <ele>239.2</ele>
        <time>2020-09-24T10:27:12Z</time>
      </trkpt>
      <trkpt lat="48.83231" lon="7.39369">
        <ele>239.2</ele>
        <time>2020-09-24T10:27:13Z</time>
      </trkpt>
      <trkpt lat="48.83243" lon="7.39365">
        <ele>239.8</ele>
        <time>2020-09-24T10:27:18Z</time>
      </trkpt>
      <trkpt lat="48.83252" lon="7.39362">
        <ele>240</ele>
        <time>2020-09-24T10:27:21Z</time>
      </trkpt>
      <trkpt lat="48.83261" lon="7.39359">
        <ele>240.4</ele>
        <time>2020-09-24T10:27:25Z</time>
      </trkpt>
      <trkpt lat="48.83273" lon="7.39355">
        <ele>241</ele>
        <time>2020-09-24T10:27:29Z</time>
      </trkpt>
      <trkpt lat="48.83284" lon="7.39351">
        <ele>242.2</ele>
        <time>2020-09-24T10:27:33Z</time>
      </trkpt>
      <trkpt lat="48.83289" lon="7.39349">
        <ele>243</ele>
        <time>2020-09-24T10:27:35Z</time>
      </trkpt>
      <trkpt lat="48.83293" lon="7.39348">
        <ele>243.8</ele>
        <time>2020-09-24T10:27:38Z</time>
      </trkpt>
      <trkpt lat="48.83297" lon="7.39347">
        <ele>244.2</ele>
        <time>2020-09-24T10:27:40Z</time>
      </trkpt>
      <trkpt lat="48.83302" lon="7.39345">
        <ele>244.4</ele>
        <time>2020-09-24T10:27:42Z</time>
      </trkpt>
      <trkpt lat="48.83305" lon="7.39344">
        <ele>245</ele>
        <time>2020-09-24T10:27:44Z</time>
      </trkpt>
      <trkpt lat="48.83314" lon="7.39341">
        <ele>245.6</ele>
        <time>2020-09-24T10:27:47Z</time>
      </trkpt>
      <trkpt lat="48.83317" lon="7.3934">
        <ele>245.8</ele>
        <time>2020-09-24T10:27:48Z</time>
      </trkpt>
      <trkpt lat="48.83325" lon="7.39337">
        <ele>246.8</ele>
        <time>2020-09-24T10:27:51Z</time>
      </trkpt>
      <trkpt lat="48.83328" lon="7.39337">
        <ele>247</ele>
        <time>2020-09-24T10:27:52Z</time>
      </trkpt>
      <trkpt lat="48.83335" lon="7.39338">
        <ele>248</ele>
        <time>2020-09-24T10:27:55Z</time>
      </trkpt>
      <trkpt lat="48.83337" lon="7.39338">
        <ele>248.2</ele>
        <time>2020-09-24T10:27:56Z</time>
      </trkpt>
      <trkpt lat="48.83342" lon="7.39339">
        <ele>249</ele>
        <time>2020-09-24T10:27:59Z</time>
      </trkpt>
      <trkpt lat="48.83351" lon="7.39341">
        <ele>250</ele>
        <time>2020-09-24T10:28:03Z</time>
      </trkpt>
      <trkpt lat="48.83355" lon="7.39342">
        <ele>250.6</ele>
        <time>2020-09-24T10:28:05Z</time>
      </trkpt>
      <trkpt lat="48.8336" lon="7.39343">
        <ele>251.2</ele>
        <time>2020-09-24T10:28:08Z</time>
      </trkpt>
      <trkpt lat="48.83367" lon="7.39344">
        <ele>252.2</ele>
        <time>2020-09-24T10:28:12Z</time>
      </trkpt>
      <trkpt lat="48.83369" lon="7.39344">
        <ele>252.4</ele>
        <time>2020-09-24T10:28:13Z</time>
      </trkpt>
      <trkpt lat="48.83377" lon="7.39346">
        <ele>253.8</ele>
        <time>2020-09-24T10:28:18Z</time>
      </trkpt>
      <trkpt lat="48.83385" lon="7.39347">
        <ele>255.2</ele>
        <time>2020-09-24T10:28:23Z</time>
      </trkpt>
      <trkpt lat="48.83395" lon="7.39349">
        <ele>256.2</ele>
        <time>2020-09-24T10:28:28Z</time>
      </trkpt>
      <trkpt lat="48.83399" lon="7.3935">
        <ele>256.6</ele>
        <time>2020-09-24T10:28:30Z</time>
      </trkpt>
      <trkpt lat="48.83403" lon="7.39351">
        <ele>256.8</ele>
        <time>2020-09-24T10:28:33Z</time>
      </trkpt>
      <trkpt lat="48.83406" lon="7.39351">
        <ele>257</ele>
        <time>2020-09-24T10:28:35Z</time>
      </trkpt>
      <trkpt lat="48.83408" lon="7.39351">
        <ele>257.2</ele>
        <time>2020-09-24T10:28:37Z</time>
      </trkpt>
      <trkpt lat="48.8341" lon="7.39352">
        <ele>257.2</ele>
        <time>2020-09-24T10:28:38Z</time>
      </trkpt>
      <trkpt lat="48.83415" lon="7.39353">
        <ele>257.6</ele>
        <time>2020-09-24T10:28:41Z</time>
      </trkpt>
      <trkpt lat="48.83419" lon="7.39353">
        <ele>257.8</ele>
        <time>2020-09-24T10:28:43Z</time>
      </trkpt>
      <trkpt lat="48.8342" lon="7.39354">
        <ele>258</ele>
        <time>2020-09-24T10:28:45Z</time>
      </trkpt>
      <trkpt lat="48.83424" lon="7.39356">
        <ele>258.2</ele>
        <time>2020-09-24T10:28:46Z</time>
      </trkpt>
      <trkpt lat="48.83427" lon="7.39355">
        <ele>258.8</ele>
        <time>2020-09-24T10:28:49Z</time>
      </trkpt>
      <trkpt lat="48.83429" lon="7.39355">
        <ele>258.8</ele>
        <time>2020-09-24T10:28:50Z</time>
      </trkpt>
      <trkpt lat="48.83431" lon="7.39356">
        <ele>258.8</ele>
        <time>2020-09-24T10:28:53Z</time>
      </trkpt>
      <trkpt lat="48.83435" lon="7.39357">
        <ele>259</ele>
        <time>2020-09-24T10:28:56Z</time>
      </trkpt>
      <trkpt lat="48.83437" lon="7.39357">
        <ele>259.2</ele>
        <time>2020-09-24T10:28:57Z</time>
      </trkpt>
      <trkpt lat="48.83442" lon="7.39358">
        <ele>259</ele>
        <time>2020-09-24T10:29:00Z</time>
      </trkpt>
      <trkpt lat="48.83444" lon="7.39359">
        <ele>259.2</ele>
        <time>2020-09-24T10:29:01Z</time>
      </trkpt>
      <trkpt lat="48.83446" lon="7.39359">
        <ele>259.2</ele>
        <time>2020-09-24T10:29:02Z</time>
      </trkpt>
      <trkpt lat="48.83451" lon="7.3936">
        <ele>259.2</ele>
        <time>2020-09-24T10:29:05Z</time>
      </trkpt>
      <trkpt lat="48.83459" lon="7.39362">
        <ele>259</ele>
        <time>2020-09-24T10:29:09Z</time>
      </trkpt>
      <trkpt lat="48.83466" lon="7.39363">
        <ele>259</ele>
        <time>2020-09-24T10:29:14Z</time>
      </trkpt>
      <trkpt lat="48.83471" lon="7.39364">
        <ele>259</ele>
        <time>2020-09-24T10:29:17Z</time>
      </trkpt>
      <trkpt lat="48.83472" lon="7.39364">
        <ele>259.2</ele>
        <time>2020-09-24T10:29:18Z</time>
      </trkpt>
      <trkpt lat="48.83477" lon="7.39365">
        <ele>259.4</ele>
        <time>2020-09-24T10:29:21Z</time>
      </trkpt>
      <trkpt lat="48.83487" lon="7.39368">
        <ele>259.6</ele>
        <time>2020-09-24T10:29:26Z</time>
      </trkpt>
      <trkpt lat="48.83493" lon="7.39369">
        <ele>259.6</ele>
        <time>2020-09-24T10:29:30Z</time>
      </trkpt>
      <trkpt lat="48.83495" lon="7.39369">
        <ele>259.8</ele>
        <time>2020-09-24T10:29:35Z</time>
      </trkpt>
      <trkpt lat="48.83502" lon="7.39371">
        <ele>260.2</ele>
        <time>2020-09-24T10:29:40Z</time>
      </trkpt>
      <trkpt lat="48.83515" lon="7.39373">
        <ele>260.4</ele>
        <time>2020-09-24T10:29:45Z</time>
      </trkpt>
      <trkpt lat="48.83527" lon="7.3936">
        <ele>261</ele>
        <time>2020-09-24T10:29:49Z</time>
      </trkpt>
      <trkpt lat="48.83528" lon="7.39358">
        <ele>261</ele>
        <time>2020-09-24T10:29:50Z</time>
      </trkpt>
      <trkpt lat="48.83527" lon="7.39347">
        <ele>261.2</ele>
        <time>2020-09-24T10:29:53Z</time>
      </trkpt>
      <trkpt lat="48.83526" lon="7.3934">
        <ele>261.6</ele>
        <time>2020-09-24T10:29:55Z</time>
      </trkpt>
      <trkpt lat="48.83525" lon="7.39333">
        <ele>262.2</ele>
        <time>2020-09-24T10:29:58Z</time>
      </trkpt>
      <trkpt lat="48.83524" lon="7.3933">
        <ele>262.6</ele>
        <time>2020-09-24T10:30:00Z</time>
      </trkpt>
      <trkpt lat="48.83523" lon="7.39327">
        <ele>262.8</ele>
        <time>2020-09-24T10:30:01Z</time>
      </trkpt>
      <trkpt lat="48.83521" lon="7.39322">
        <ele>263</ele>
        <time>2020-09-24T10:30:03Z</time>
      </trkpt>
      <trkpt lat="48.83521" lon="7.3932">
        <ele>263</ele>
        <time>2020-09-24T10:30:04Z</time>
      </trkpt>
      <trkpt lat="48.83517" lon="7.3931">
        <ele>263.6</ele>
        <time>2020-09-24T10:30:09Z</time>
      </trkpt>
      <trkpt lat="48.83516" lon="7.39305">
        <ele>263.6</ele>
        <time>2020-09-24T10:30:11Z</time>
      </trkpt>
      <trkpt lat="48.83514" lon="7.39301">
        <ele>263.8</ele>
        <time>2020-09-24T10:30:14Z</time>
      </trkpt>
      <trkpt lat="48.83514" lon="7.39299">
        <ele>263.8</ele>
        <time>2020-09-24T10:30:15Z</time>
      </trkpt>
      <trkpt lat="48.83512" lon="7.39293">
        <ele>264</ele>
        <time>2020-09-24T10:30:18Z</time>
      </trkpt>
      <trkpt lat="48.8351" lon="7.39288">
        <ele>264.2</ele>
        <time>2020-09-24T10:30:20Z</time>
      </trkpt>
      <trkpt lat="48.83508" lon="7.39283">
        <ele>264.4</ele>
        <time>2020-09-24T10:30:22Z</time>
      </trkpt>
      <trkpt lat="48.83507" lon="7.39279">
        <ele>264.6</ele>
        <time>2020-09-24T10:30:23Z</time>
      </trkpt>
      <trkpt lat="48.83504" lon="7.39271">
        <ele>265</ele>
        <time>2020-09-24T10:30:26Z</time>
      </trkpt>
      <trkpt lat="48.83502" lon="7.39266">
        <ele>265.2</ele>
        <time>2020-09-24T10:30:28Z</time>
      </trkpt>
      <trkpt lat="48.83497" lon="7.3925">
        <ele>265.8</ele>
        <time>2020-09-24T10:30:34Z</time>
      </trkpt>
      <trkpt lat="48.83495" lon="7.39244">
        <ele>266</ele>
        <time>2020-09-24T10:30:37Z</time>
      </trkpt>
      <trkpt lat="48.83494" lon="7.39242">
        <ele>266</ele>
        <time>2020-09-24T10:30:38Z</time>
      </trkpt>
      <trkpt lat="48.83492" lon="7.39236">
        <ele>266</ele>
        <time>2020-09-24T10:30:41Z</time>
      </trkpt>
      <trkpt lat="48.8349" lon="7.3923">
        <ele>266.2</ele>
        <time>2020-09-24T10:30:43Z</time>
      </trkpt>
      <trkpt lat="48.83485" lon="7.39216">
        <ele>266.8</ele>
        <time>2020-09-24T10:30:48Z</time>
      </trkpt>
      <trkpt lat="48.83477" lon="7.39192">
        <ele>269</ele>
        <time>2020-09-24T10:30:57Z</time>
      </trkpt>
      <trkpt lat="48.83473" lon="7.3918">
        <ele>269.6</ele>
        <time>2020-09-24T10:31:02Z</time>
      </trkpt>
      <trkpt lat="48.83468" lon="7.39163">
        <ele>271</ele>
        <time>2020-09-24T10:31:09Z</time>
      </trkpt>
      <trkpt lat="48.83464" lon="7.3915">
        <ele>272</ele>
        <time>2020-09-24T10:31:15Z</time>
      </trkpt>
      <trkpt lat="48.8346" lon="7.39138">
        <ele>273.4</ele>
        <time>2020-09-24T10:31:19Z</time>
      </trkpt>
      <trkpt lat="48.83459" lon="7.39134">
        <ele>273.6</ele>
        <time>2020-09-24T10:31:20Z</time>
      </trkpt>
      <trkpt lat="48.83459" lon="7.39126">
        <ele>274.4</ele>
        <time>2020-09-24T10:31:22Z</time>
      </trkpt>
      <trkpt lat="48.83459" lon="7.3912">
        <ele>275</ele>
        <time>2020-09-24T10:31:24Z</time>
      </trkpt>
      <trkpt lat="48.83459" lon="7.39118">
        <ele>275.2</ele>
        <time>2020-09-24T10:31:25Z</time>
      </trkpt>
      <trkpt lat="48.83458" lon="7.39107">
        <ele>276</ele>
        <time>2020-09-24T10:31:29Z</time>
      </trkpt>
      <trkpt lat="48.83457" lon="7.39085">
        <ele>277.4</ele>
        <time>2020-09-24T10:31:36Z</time>
      </trkpt>
      <trkpt lat="48.83458" lon="7.39076">
        <ele>278</ele>
        <time>2020-09-24T10:31:39Z</time>
      </trkpt>
      <trkpt lat="48.83458" lon="7.39071">
        <ele>278.2</ele>
        <time>2020-09-24T10:31:41Z</time>
      </trkpt>
      <trkpt lat="48.8346" lon="7.39051">
        <ele>279.8</ele>
        <time>2020-09-24T10:31:48Z</time>
      </trkpt>
      <trkpt lat="48.83461" lon="7.39043">
        <ele>280.4</ele>
        <time>2020-09-24T10:31:51Z</time>
      </trkpt>
      <trkpt lat="48.83462" lon="7.39038">
        <ele>281</ele>
        <time>2020-09-24T10:31:53Z</time>
      </trkpt>
      <trkpt lat="48.83462" lon="7.39034">
        <ele>281.2</ele>
        <time>2020-09-24T10:31:54Z</time>
      </trkpt>
      <trkpt lat="48.83464" lon="7.39024">
        <ele>282</ele>
        <time>2020-09-24T10:31:57Z</time>
      </trkpt>
      <trkpt lat="48.83465" lon="7.39012">
        <ele>282.6</ele>
        <time>2020-09-24T10:32:01Z</time>
      </trkpt>
      <trkpt lat="48.83465" lon="7.3901">
        <ele>282.8</ele>
        <time>2020-09-24T10:32:02Z</time>
      </trkpt>
      <trkpt lat="48.83471" lon="7.38993">
        <ele>284.2</ele>
        <time>2020-09-24T10:32:08Z</time>
      </trkpt>
      <trkpt lat="48.83476" lon="7.3898">
        <ele>285</ele>
        <time>2020-09-24T10:32:13Z</time>
      </trkpt>
      <trkpt lat="48.83481" lon="7.38967">
        <ele>286.2</ele>
        <time>2020-09-24T10:32:18Z</time>
      </trkpt>
      <trkpt lat="48.83481" lon="7.38965">
        <ele>286.4</ele>
        <time>2020-09-24T10:32:19Z</time>
      </trkpt>
      <trkpt lat="48.83484" lon="7.38958">
        <ele>287.2</ele>
        <time>2020-09-24T10:32:22Z</time>
      </trkpt>
      <trkpt lat="48.83491" lon="7.38938">
        <ele>288.2</ele>
        <time>2020-09-24T10:32:28Z</time>
      </trkpt>
      <trkpt lat="48.83496" lon="7.38927">
        <ele>288.8</ele>
        <time>2020-09-24T10:32:32Z</time>
      </trkpt>
      <trkpt lat="48.83501" lon="7.38912">
        <ele>289.4</ele>
        <time>2020-09-24T10:32:37Z</time>
      </trkpt>
      <trkpt lat="48.83507" lon="7.38898">
        <ele>290</ele>
        <time>2020-09-24T10:32:42Z</time>
      </trkpt>
      <trkpt lat="48.8351" lon="7.38882">
        <ele>290.6</ele>
        <time>2020-09-24T10:32:47Z</time>
      </trkpt>
      <trkpt lat="48.83514" lon="7.38858">
        <ele>291.6</ele>
        <time>2020-09-24T10:32:54Z</time>
      </trkpt>
      <trkpt lat="48.83518" lon="7.38834">
        <ele>292.4</ele>
        <time>2020-09-24T10:33:01Z</time>
      </trkpt>
      <trkpt lat="48.8352" lon="7.38824">
        <ele>292.8</ele>
        <time>2020-09-24T10:33:04Z</time>
      </trkpt>
      <trkpt lat="48.83521" lon="7.38818">
        <ele>293.2</ele>
        <time>2020-09-24T10:33:06Z</time>
      </trkpt>
      <trkpt lat="48.83525" lon="7.38794">
        <ele>294.6</ele>
        <time>2020-09-24T10:33:13Z</time>
      </trkpt>
      <trkpt lat="48.83526" lon="7.38788">
        <ele>294.8</ele>
        <time>2020-09-24T10:33:15Z</time>
      </trkpt>
      <trkpt lat="48.83527" lon="7.3878">
        <ele>295</ele>
        <time>2020-09-24T10:33:17Z</time>
      </trkpt>
      <trkpt lat="48.83532" lon="7.38755">
        <ele>296</ele>
        <time>2020-09-24T10:33:25Z</time>
      </trkpt>
      <trkpt lat="48.83532" lon="7.38752">
        <ele>296.2</ele>
        <time>2020-09-24T10:33:26Z</time>
      </trkpt>
      <trkpt lat="48.83534" lon="7.38747">
        <ele>296.4</ele>
        <time>2020-09-24T10:33:28Z</time>
      </trkpt>
      <trkpt lat="48.83538" lon="7.38733">
        <ele>297.2</ele>
        <time>2020-09-24T10:33:34Z</time>
      </trkpt>
      <trkpt lat="48.83545" lon="7.3872">
        <ele>297.8</ele>
        <time>2020-09-24T10:33:39Z</time>
      </trkpt>
      <trkpt lat="48.83554" lon="7.38706">
        <ele>298.6</ele>
        <time>2020-09-24T10:33:44Z</time>
      </trkpt>
      <trkpt lat="48.83561" lon="7.38693">
        <ele>299.2</ele>
        <time>2020-09-24T10:33:49Z</time>
      </trkpt>
      <trkpt lat="48.83563" lon="7.38689">
        <ele>300.4</ele>
        <time>2020-09-24T10:33:55Z</time>
      </trkpt>
      <trkpt lat="48.83563" lon="7.38689">
        <ele>302.4</ele>
        <time>2020-09-24T10:34:13Z</time>
      </trkpt>
      <trkpt lat="48.83563" lon="7.38689">
        <ele>304.4</ele>
        <time>2020-09-24T10:34:35Z</time>
      </trkpt>
      <trkpt lat="48.83563" lon="7.38689">
        <ele>305.8</ele>
        <time>2020-09-24T10:34:53Z</time>
      </trkpt>
      <trkpt lat="48.83567" lon="7.38685">
        <ele>306</ele>
        <time>2020-09-24T10:34:55Z</time>
      </trkpt>
      <trkpt lat="48.83569" lon="7.38691">
        <ele>306.2</ele>
        <time>2020-09-24T10:34:57Z</time>
      </trkpt>
      <trkpt lat="48.83575" lon="7.3869">
        <ele>307</ele>
        <time>2020-09-24T10:35:00Z</time>
      </trkpt>
      <trkpt lat="48.83578" lon="7.3869">
        <ele>307.2</ele>
        <time>2020-09-24T10:35:01Z</time>
      </trkpt>
      <trkpt lat="48.83595" lon="7.38691">
        <ele>307.8</ele>
        <time>2020-09-24T10:35:05Z</time>
      </trkpt>
      <trkpt lat="48.83605" lon="7.38693">
        <ele>308.2</ele>
        <time>2020-09-24T10:35:08Z</time>
      </trkpt>
      <trkpt lat="48.83618" lon="7.38697">
        <ele>308.6</ele>
        <time>2020-09-24T10:35:12Z</time>
      </trkpt>
      <trkpt lat="48.83621" lon="7.38699">
        <ele>308.6</ele>
        <time>2020-09-24T10:35:13Z</time>
      </trkpt>
      <trkpt lat="48.83627" lon="7.38701">
        <ele>309</ele>
        <time>2020-09-24T10:35:16Z</time>
      </trkpt>
      <trkpt lat="48.8363" lon="7.38703">
        <ele>309</ele>
        <time>2020-09-24T10:35:17Z</time>
      </trkpt>
      <trkpt lat="48.83638" lon="7.38707">
        <ele>309</ele>
        <time>2020-09-24T10:35:19Z</time>
      </trkpt>
      <trkpt lat="48.83646" lon="7.3871">
        <ele>309.2</ele>
        <time>2020-09-24T10:35:22Z</time>
      </trkpt>
      <trkpt lat="48.8365" lon="7.38716">
        <ele>309.2</ele>
        <time>2020-09-24T10:35:23Z</time>
      </trkpt>
      <trkpt lat="48.83665" lon="7.38734">
        <ele>309.2</ele>
        <time>2020-09-24T10:35:28Z</time>
      </trkpt>
      <trkpt lat="48.83677" lon="7.38749">
        <ele>309.2</ele>
        <time>2020-09-24T10:35:33Z</time>
      </trkpt>
      <trkpt lat="48.83689" lon="7.38764">
        <ele>309.4</ele>
        <time>2020-09-24T10:35:37Z</time>
      </trkpt>
      <trkpt lat="48.83703" lon="7.38782">
        <ele>309.6</ele>
        <time>2020-09-24T10:35:42Z</time>
      </trkpt>
      <trkpt lat="48.83716" lon="7.38797">
        <ele>309.6</ele>
        <time>2020-09-24T10:35:46Z</time>
      </trkpt>
      <trkpt lat="48.83719" lon="7.38801">
        <ele>309.4</ele>
        <time>2020-09-24T10:35:47Z</time>
      </trkpt>
      <trkpt lat="48.83725" lon="7.38808">
        <ele>309.4</ele>
        <time>2020-09-24T10:35:49Z</time>
      </trkpt>
      <trkpt lat="48.83729" lon="7.3881">
        <ele>309.4</ele>
        <time>2020-09-24T10:35:50Z</time>
      </trkpt>
      <trkpt lat="48.83734" lon="7.38811">
        <ele>309.4</ele>
        <time>2020-09-24T10:35:52Z</time>
      </trkpt>
      <trkpt lat="48.8375" lon="7.38808">
        <ele>309.2</ele>
        <time>2020-09-24T10:35:56Z</time>
      </trkpt>
      <trkpt lat="48.83766" lon="7.38797">
        <ele>308.8</ele>
        <time>2020-09-24T10:36:00Z</time>
      </trkpt>
      <trkpt lat="48.83783" lon="7.38773">
        <ele>308.2</ele>
        <time>2020-09-24T10:36:05Z</time>
      </trkpt>
      <trkpt lat="48.83798" lon="7.3875">
        <ele>308</ele>
        <time>2020-09-24T10:36:10Z</time>
      </trkpt>
      <trkpt lat="48.83812" lon="7.38728">
        <ele>307.8</ele>
        <time>2020-09-24T10:36:14Z</time>
      </trkpt>
      <trkpt lat="48.83823" lon="7.3871">
        <ele>307.6</ele>
        <time>2020-09-24T10:36:18Z</time>
      </trkpt>
      <trkpt lat="48.83836" lon="7.38691">
        <ele>307.4</ele>
        <time>2020-09-24T10:36:21Z</time>
      </trkpt>
      <trkpt lat="48.83848" lon="7.38675">
        <ele>307.4</ele>
        <time>2020-09-24T10:36:24Z</time>
      </trkpt>
      <trkpt lat="48.83853" lon="7.38669">
        <ele>307.2</ele>
        <time>2020-09-24T10:36:25Z</time>
      </trkpt>
      <trkpt lat="48.83861" lon="7.38659">
        <ele>307.2</ele>
        <time>2020-09-24T10:36:27Z</time>
      </trkpt>
      <trkpt lat="48.83865" lon="7.38654">
        <ele>307.2</ele>
        <time>2020-09-24T10:36:28Z</time>
      </trkpt>
      <trkpt lat="48.83873" lon="7.38644">
        <ele>307.2</ele>
        <time>2020-09-24T10:36:30Z</time>
      </trkpt>
      <trkpt lat="48.83889" lon="7.38632">
        <ele>307.2</ele>
        <time>2020-09-24T10:36:33Z</time>
      </trkpt>
      <trkpt lat="48.83911" lon="7.38629">
        <ele>307.2</ele>
        <time>2020-09-24T10:36:38Z</time>
      </trkpt>
      <trkpt lat="48.83916" lon="7.38629">
        <ele>307.2</ele>
        <time>2020-09-24T10:36:39Z</time>
      </trkpt>
      <trkpt lat="48.83921" lon="7.38628">
        <ele>307.2</ele>
        <time>2020-09-24T10:36:40Z</time>
      </trkpt>
      <trkpt lat="48.83931" lon="7.38627">
        <ele>307.2</ele>
        <time>2020-09-24T10:36:42Z</time>
      </trkpt>
      <trkpt lat="48.83937" lon="7.38628">
        <ele>307.2</ele>
        <time>2020-09-24T10:36:43Z</time>
      </trkpt>
      <trkpt lat="48.83942" lon="7.38629">
        <ele>307.2</ele>
        <time>2020-09-24T10:36:44Z</time>
      </trkpt>
      <trkpt lat="48.83959" lon="7.38633">
        <ele>307.4</ele>
        <time>2020-09-24T10:36:47Z</time>
      </trkpt>
      <trkpt lat="48.83977" lon="7.38637">
        <ele>307.8</ele>
        <time>2020-09-24T10:36:51Z</time>
      </trkpt>
      <trkpt lat="48.83985" lon="7.3864">
        <ele>307.8</ele>
        <time>2020-09-24T10:36:53Z</time>
      </trkpt>
      <trkpt lat="48.83995" lon="7.38644">
        <ele>307.8</ele>
        <time>2020-09-24T10:36:55Z</time>
      </trkpt>
      <trkpt lat="48.84005" lon="7.38647">
        <ele>308</ele>
        <time>2020-09-24T10:36:57Z</time>
      </trkpt>
      <trkpt lat="48.84011" lon="7.3865">
        <ele>308.2</ele>
        <time>2020-09-24T10:36:58Z</time>
      </trkpt>
      <trkpt lat="48.84032" lon="7.38658">
        <ele>309</ele>
        <time>2020-09-24T10:37:02Z</time>
      </trkpt>
      <trkpt lat="48.84036" lon="7.3866">
        <ele>309.2</ele>
        <time>2020-09-24T10:37:04Z</time>
      </trkpt>
      <trkpt lat="48.84046" lon="7.38665">
        <ele>309.4</ele>
        <time>2020-09-24T10:37:06Z</time>
      </trkpt>
      <trkpt lat="48.84054" lon="7.3867">
        <ele>309.4</ele>
        <time>2020-09-24T10:37:07Z</time>
      </trkpt>
      <trkpt lat="48.84069" lon="7.38679">
        <ele>309.4</ele>
        <time>2020-09-24T10:37:10Z</time>
      </trkpt>
      <trkpt lat="48.84074" lon="7.38681">
        <ele>309.6</ele>
        <time>2020-09-24T10:37:12Z</time>
      </trkpt>
      <trkpt lat="48.84089" lon="7.3869">
        <ele>309.8</ele>
        <time>2020-09-24T10:37:14Z</time>
      </trkpt>
      <trkpt lat="48.84106" lon="7.38699">
        <ele>310</ele>
        <time>2020-09-24T10:37:18Z</time>
      </trkpt>
      <trkpt lat="48.84118" lon="7.38706">
        <ele>310</ele>
        <time>2020-09-24T10:37:19Z</time>
      </trkpt>
      <trkpt lat="48.84138" lon="7.38717">
        <ele>310.2</ele>
        <time>2020-09-24T10:37:23Z</time>
      </trkpt>
      <trkpt lat="48.84142" lon="7.38719">
        <ele>310.2</ele>
        <time>2020-09-24T10:37:24Z</time>
      </trkpt>
      <trkpt lat="48.84151" lon="7.38724">
        <ele>310.2</ele>
        <time>2020-09-24T10:37:26Z</time>
      </trkpt>
      <trkpt lat="48.84162" lon="7.38728">
        <ele>310</ele>
        <time>2020-09-24T10:37:29Z</time>
      </trkpt>
      <trkpt lat="48.84166" lon="7.38728">
        <ele>310</ele>
        <time>2020-09-24T10:37:30Z</time>
      </trkpt>
      <trkpt lat="48.84175" lon="7.38729">
        <ele>310</ele>
        <time>2020-09-24T10:37:32Z</time>
      </trkpt>
      <trkpt lat="48.84184" lon="7.3873">
        <ele>310</ele>
        <time>2020-09-24T10:37:34Z</time>
      </trkpt>
      <trkpt lat="48.84202" lon="7.38731">
        <ele>309.6</ele>
        <time>2020-09-24T10:37:38Z</time>
      </trkpt>
      <trkpt lat="48.84213" lon="7.3873">
        <ele>309.6</ele>
        <time>2020-09-24T10:37:40Z</time>
      </trkpt>
      <trkpt lat="48.84219" lon="7.38726">
        <ele>309.6</ele>
        <time>2020-09-24T10:37:42Z</time>
      </trkpt>
      <trkpt lat="48.84235" lon="7.38717">
        <ele>309.6</ele>
        <time>2020-09-24T10:37:47Z</time>
      </trkpt>
      <trkpt lat="48.84256" lon="7.38704">
        <ele>309.6</ele>
        <time>2020-09-24T10:37:51Z</time>
      </trkpt>
      <trkpt lat="48.84274" lon="7.38693">
        <ele>309.8</ele>
        <time>2020-09-24T10:37:55Z</time>
      </trkpt>
      <trkpt lat="48.84274" lon="7.38693">
        <ele>309.6</ele>
        <time>2020-09-24T10:37:56Z</time>
      </trkpt>
      <trkpt lat="48.84281" lon="7.38689">
        <ele>309.8</ele>
        <time>2020-09-24T10:37:59Z</time>
      </trkpt>
      <trkpt lat="48.8429" lon="7.38683">
        <ele>310.2</ele>
        <time>2020-09-24T10:38:04Z</time>
      </trkpt>
      <trkpt lat="48.84312" lon="7.38667">
        <ele>309.6</ele>
        <time>2020-09-24T10:38:09Z</time>
      </trkpt>
      <trkpt lat="48.84328" lon="7.38653">
        <ele>310</ele>
        <time>2020-09-24T10:38:14Z</time>
      </trkpt>
      <trkpt lat="48.84339" lon="7.38642">
        <ele>310</ele>
        <time>2020-09-24T10:38:18Z</time>
      </trkpt>
      <trkpt lat="48.84342" lon="7.38639">
        <ele>310</ele>
        <time>2020-09-24T10:38:20Z</time>
      </trkpt>
      <trkpt lat="48.84328" lon="7.38623">
        <ele>310.2</ele>
        <time>2020-09-24T10:38:22Z</time>
      </trkpt>
      <trkpt lat="48.84357" lon="7.386">
        <ele>310.2</ele>
        <time>2020-09-24T10:38:26Z</time>
      </trkpt>
      <trkpt lat="48.84358" lon="7.3859">
        <ele>310.4</ele>
        <time>2020-09-24T10:38:28Z</time>
      </trkpt>
      <trkpt lat="48.84358" lon="7.38579">
        <ele>310.4</ele>
        <time>2020-09-24T10:38:30Z</time>
      </trkpt>
      <trkpt lat="48.84354" lon="7.3855">
        <ele>310.8</ele>
        <time>2020-09-24T10:38:36Z</time>
      </trkpt>
      <trkpt lat="48.84349" lon="7.38531">
        <ele>311</ele>
        <time>2020-09-24T10:38:41Z</time>
      </trkpt>
      <trkpt lat="48.84341" lon="7.38506">
        <ele>311.4</ele>
        <time>2020-09-24T10:38:48Z</time>
      </trkpt>
      <trkpt lat="48.84335" lon="7.38489">
        <ele>311.8</ele>
        <time>2020-09-24T10:38:53Z</time>
      </trkpt>
      <trkpt lat="48.84328" lon="7.38472">
        <ele>312.2</ele>
        <time>2020-09-24T10:38:58Z</time>
      </trkpt>
      <trkpt lat="48.84324" lon="7.38461">
        <ele>313</ele>
        <time>2020-09-24T10:39:03Z</time>
      </trkpt>
      <trkpt lat="48.84321" lon="7.38453">
        <ele>313.2</ele>
        <time>2020-09-24T10:39:05Z</time>
      </trkpt>
      <trkpt lat="48.84317" lon="7.38442">
        <ele>313.2</ele>
        <time>2020-09-24T10:39:07Z</time>
      </trkpt>
      <trkpt lat="48.84311" lon="7.38427">
        <ele>313.6</ele>
        <time>2020-09-24T10:39:11Z</time>
      </trkpt>
      <trkpt lat="48.84308" lon="7.38418">
        <ele>313.6</ele>
        <time>2020-09-24T10:39:14Z</time>
      </trkpt>
      <trkpt lat="48.84305" lon="7.38411">
        <ele>313.8</ele>
        <time>2020-09-24T10:39:16Z</time>
      </trkpt>
      <trkpt lat="48.84297" lon="7.38389">
        <ele>315</ele>
        <time>2020-09-24T10:39:22Z</time>
      </trkpt>
      <trkpt lat="48.84292" lon="7.38371">
        <ele>316</ele>
        <time>2020-09-24T10:39:27Z</time>
      </trkpt>
      <trkpt lat="48.84292" lon="7.38368">
        <ele>316.2</ele>
        <time>2020-09-24T10:39:28Z</time>
      </trkpt>
      <trkpt lat="48.84286" lon="7.38348">
        <ele>317</ele>
        <time>2020-09-24T10:39:34Z</time>
      </trkpt>
      <trkpt lat="48.84281" lon="7.38325">
        <ele>318.4</ele>
        <time>2020-09-24T10:39:40Z</time>
      </trkpt>
      <trkpt lat="48.84275" lon="7.38302">
        <ele>319.4</ele>
        <time>2020-09-24T10:39:46Z</time>
      </trkpt>
      <trkpt lat="48.84273" lon="7.3829">
        <ele>319.8</ele>
        <time>2020-09-24T10:39:49Z</time>
      </trkpt>
      <trkpt lat="48.84272" lon="7.38286">
        <ele>320</ele>
        <time>2020-09-24T10:39:50Z</time>
      </trkpt>
      <trkpt lat="48.84267" lon="7.38259">
        <ele>321.8</ele>
        <time>2020-09-24T10:39:57Z</time>
      </trkpt>
      <trkpt lat="48.84263" lon="7.38242">
        <ele>323.2</ele>
        <time>2020-09-24T10:40:01Z</time>
      </trkpt>
      <trkpt lat="48.84259" lon="7.38221">
        <ele>325.6</ele>
        <time>2020-09-24T10:40:07Z</time>
      </trkpt>
      <trkpt lat="48.84256" lon="7.38206">
        <ele>327</ele>
        <time>2020-09-24T10:40:11Z</time>
      </trkpt>
      <trkpt lat="48.84252" lon="7.38185">
        <ele>328.4</ele>
        <time>2020-09-24T10:40:16Z</time>
      </trkpt>
      <trkpt lat="48.84249" lon="7.38168">
        <ele>329.8</ele>
        <time>2020-09-24T10:40:21Z</time>
      </trkpt>
      <trkpt lat="48.84248" lon="7.3815">
        <ele>331.2</ele>
        <time>2020-09-24T10:40:26Z</time>
      </trkpt>
      <trkpt lat="48.84254" lon="7.38127">
        <ele>332</ele>
        <time>2020-09-24T10:40:30Z</time>
      </trkpt>
      <trkpt lat="48.84261" lon="7.38115">
        <ele>332.8</ele>
        <time>2020-09-24T10:40:34Z</time>
      </trkpt>
      <trkpt lat="48.84262" lon="7.38113">
        <ele>333.2</ele>
        <time>2020-09-24T10:40:35Z</time>
      </trkpt>
      <trkpt lat="48.84267" lon="7.38105">
        <ele>333.4</ele>
        <time>2020-09-24T10:40:37Z</time>
      </trkpt>
      <trkpt lat="48.8427" lon="7.381">
        <ele>333.8</ele>
        <time>2020-09-24T10:40:39Z</time>
      </trkpt>
      <trkpt lat="48.84272" lon="7.38097">
        <ele>334.2</ele>
        <time>2020-09-24T10:40:40Z</time>
      </trkpt>
      <trkpt lat="48.84278" lon="7.38085">
        <ele>334.6</ele>
        <time>2020-09-24T10:40:43Z</time>
      </trkpt>
      <trkpt lat="48.84281" lon="7.38082">
        <ele>334.8</ele>
        <time>2020-09-24T10:40:44Z</time>
      </trkpt>
      <trkpt lat="48.84287" lon="7.38071">
        <ele>335.8</ele>
        <time>2020-09-24T10:40:49Z</time>
      </trkpt>
      <trkpt lat="48.84296" lon="7.38056">
        <ele>336.4</ele>
        <time>2020-09-24T10:40:53Z</time>
      </trkpt>
      <trkpt lat="48.84304" lon="7.38042">
        <ele>336.8</ele>
        <time>2020-09-24T10:40:58Z</time>
      </trkpt>
      <trkpt lat="48.84311" lon="7.38031">
        <ele>337</ele>
        <time>2020-09-24T10:41:02Z</time>
      </trkpt>
      <trkpt lat="48.84313" lon="7.38027">
        <ele>337.2</ele>
        <time>2020-09-24T10:41:03Z</time>
      </trkpt>
      <trkpt lat="48.84315" lon="7.38025">
        <ele>337.4</ele>
        <time>2020-09-24T10:41:04Z</time>
      </trkpt>
      <trkpt lat="48.84318" lon="7.38019">
        <ele>337.6</ele>
        <time>2020-09-24T10:41:06Z</time>
      </trkpt>
      <trkpt lat="48.84323" lon="7.38011">
        <ele>338</ele>
        <time>2020-09-24T10:41:09Z</time>
      </trkpt>
      <trkpt lat="48.84326" lon="7.38005">
        <ele>338.2</ele>
        <time>2020-09-24T10:41:11Z</time>
      </trkpt>
      <trkpt lat="48.84329" lon="7.38">
        <ele>338.2</ele>
        <time>2020-09-24T10:41:13Z</time>
      </trkpt>
      <trkpt lat="48.84332" lon="7.37995">
        <ele>338.4</ele>
        <time>2020-09-24T10:41:15Z</time>
      </trkpt>
      <trkpt lat="48.84342" lon="7.37978">
        <ele>338.8</ele>
        <time>2020-09-24T10:41:20Z</time>
      </trkpt>
      <trkpt lat="48.84348" lon="7.37961">
        <ele>339.4</ele>
        <time>2020-09-24T10:41:23Z</time>
      </trkpt>
      <trkpt lat="48.84354" lon="7.37942">
        <ele>340.6</ele>
        <time>2020-09-24T10:41:28Z</time>
      </trkpt>
      <trkpt lat="48.84357" lon="7.37931">
        <ele>341.4</ele>
        <time>2020-09-24T10:41:31Z</time>
      </trkpt>
      <trkpt lat="48.84359" lon="7.37923">
        <ele>341.6</ele>
        <time>2020-09-24T10:41:33Z</time>
      </trkpt>
      <trkpt lat="48.84361" lon="7.37919">
        <ele>342.2</ele>
        <time>2020-09-24T10:41:35Z</time>
      </trkpt>
      <trkpt lat="48.84364" lon="7.37908">
        <ele>342.6</ele>
        <time>2020-09-24T10:41:37Z</time>
      </trkpt>
      <trkpt lat="48.84368" lon="7.37896">
        <ele>343</ele>
        <time>2020-09-24T10:41:41Z</time>
      </trkpt>
      <trkpt lat="48.84369" lon="7.37887">
        <ele>343.2</ele>
        <time>2020-09-24T10:41:42Z</time>
      </trkpt>
      <trkpt lat="48.84369" lon="7.37887">
        <ele>343.4</ele>
        <time>2020-09-24T10:41:43Z</time>
      </trkpt>
      <trkpt lat="48.84372" lon="7.37875">
        <ele>343.8</ele>
        <time>2020-09-24T10:41:45Z</time>
      </trkpt>
      <trkpt lat="48.84378" lon="7.37859">
        <ele>344.4</ele>
        <time>2020-09-24T10:41:49Z</time>
      </trkpt>
      <trkpt lat="48.84385" lon="7.37855">
        <ele>344.6</ele>
        <time>2020-09-24T10:41:52Z</time>
      </trkpt>
      <trkpt lat="48.84388" lon="7.37853">
        <ele>344.6</ele>
        <time>2020-09-24T10:41:53Z</time>
      </trkpt>
      <trkpt lat="48.84396" lon="7.37853">
        <ele>345.2</ele>
        <time>2020-09-24T10:41:57Z</time>
      </trkpt>
      <trkpt lat="48.84408" lon="7.37855">
        <ele>346</ele>
        <time>2020-09-24T10:42:02Z</time>
      </trkpt>
      <trkpt lat="48.84412" lon="7.37858">
        <ele>346</ele>
        <time>2020-09-24T10:42:04Z</time>
      </trkpt>
      <trkpt lat="48.84417" lon="7.3786">
        <ele>346.2</ele>
        <time>2020-09-24T10:42:06Z</time>
      </trkpt>
      <trkpt lat="48.84429" lon="7.37867">
        <ele>346.6</ele>
        <time>2020-09-24T10:42:10Z</time>
      </trkpt>
      <trkpt lat="48.84445" lon="7.37879">
        <ele>346.8</ele>
        <time>2020-09-24T10:42:15Z</time>
      </trkpt>
      <trkpt lat="48.84458" lon="7.37892">
        <ele>347.2</ele>
        <time>2020-09-24T10:42:20Z</time>
      </trkpt>
      <trkpt lat="48.84473" lon="7.37905">
        <ele>347.2</ele>
        <time>2020-09-24T10:42:26Z</time>
      </trkpt>
      <trkpt lat="48.84485" lon="7.37917">
        <ele>347.2</ele>
        <time>2020-09-24T10:42:31Z</time>
      </trkpt>
      <trkpt lat="48.84487" lon="7.37919">
        <ele>347.2</ele>
        <time>2020-09-24T10:42:32Z</time>
      </trkpt>
      <trkpt lat="48.8449" lon="7.37923">
        <ele>347</ele>
        <time>2020-09-24T10:42:34Z</time>
      </trkpt>
      <trkpt lat="48.84496" lon="7.37929">
        <ele>346.4</ele>
        <time>2020-09-24T10:42:38Z</time>
      </trkpt>
      <trkpt lat="48.84508" lon="7.37944">
        <ele>345.8</ele>
        <time>2020-09-24T10:42:43Z</time>
      </trkpt>
      <trkpt lat="48.84516" lon="7.37955">
        <ele>345.2</ele>
        <time>2020-09-24T10:42:47Z</time>
      </trkpt>
      <trkpt lat="48.84524" lon="7.37967">
        <ele>344.2</ele>
        <time>2020-09-24T10:42:51Z</time>
      </trkpt>
      <trkpt lat="48.84533" lon="7.3798">
        <ele>343.6</ele>
        <time>2020-09-24T10:42:56Z</time>
      </trkpt>
      <trkpt lat="48.84544" lon="7.37997">
        <ele>342.6</ele>
        <time>2020-09-24T10:43:01Z</time>
      </trkpt>
      <trkpt lat="48.84556" lon="7.38013">
        <ele>341.4</ele>
        <time>2020-09-24T10:43:07Z</time>
      </trkpt>
      <trkpt lat="48.84568" lon="7.38031">
        <ele>340.2</ele>
        <time>2020-09-24T10:43:12Z</time>
      </trkpt>
      <trkpt lat="48.8458" lon="7.38048">
        <ele>339.2</ele>
        <time>2020-09-24T10:43:17Z</time>
      </trkpt>
      <trkpt lat="48.84591" lon="7.38064">
        <ele>338.4</ele>
        <time>2020-09-24T10:43:22Z</time>
      </trkpt>
      <trkpt lat="48.84597" lon="7.38073">
        <ele>338.2</ele>
        <time>2020-09-24T10:43:25Z</time>
      </trkpt>
      <trkpt lat="48.8461" lon="7.38091">
        <ele>337.4</ele>
        <time>2020-09-24T10:43:30Z</time>
      </trkpt>
      <trkpt lat="48.84615" lon="7.38099">
        <ele>337.2</ele>
        <time>2020-09-24T10:43:33Z</time>
      </trkpt>
      <trkpt lat="48.84633" lon="7.38125">
        <ele>336.8</ele>
        <time>2020-09-24T10:43:39Z</time>
      </trkpt>
      <trkpt lat="48.84641" lon="7.38136">
        <ele>337</ele>
        <time>2020-09-24T10:43:43Z</time>
      </trkpt>
      <trkpt lat="48.84652" lon="7.38153">
        <ele>336.2</ele>
        <time>2020-09-24T10:43:48Z</time>
      </trkpt>
      <trkpt lat="48.84655" lon="7.38156">
        <ele>335.6</ele>
        <time>2020-09-24T10:43:50Z</time>
      </trkpt>
      <trkpt lat="48.8466" lon="7.38157">
        <ele>335.4</ele>
        <time>2020-09-24T10:43:52Z</time>
      </trkpt>
      <trkpt lat="48.84678" lon="7.38149">
        <ele>334.2</ele>
        <time>2020-09-24T10:43:56Z</time>
      </trkpt>
      <trkpt lat="48.84694" lon="7.38136">
        <ele>333.6</ele>
        <time>2020-09-24T10:43:58Z</time>
      </trkpt>
      <trkpt lat="48.84699" lon="7.38128">
        <ele>333.4</ele>
        <time>2020-09-24T10:43:59Z</time>
      </trkpt>
      <trkpt lat="48.84721" lon="7.38095">
        <ele>332.6</ele>
        <time>2020-09-24T10:44:04Z</time>
      </trkpt>
      <trkpt lat="48.84745" lon="7.38049">
        <ele>331.4</ele>
        <time>2020-09-24T10:44:09Z</time>
      </trkpt>
      <trkpt lat="48.84771" lon="7.37989">
        <ele>331</ele>
        <time>2020-09-24T10:44:15Z</time>
      </trkpt>
      <trkpt lat="48.84788" lon="7.37944">
        <ele>331.4</ele>
        <time>2020-09-24T10:44:19Z</time>
      </trkpt>
      <trkpt lat="48.84793" lon="7.37933">
        <ele>331.6</ele>
        <time>2020-09-24T10:44:20Z</time>
      </trkpt>
      <trkpt lat="48.84804" lon="7.37912">
        <ele>331.6</ele>
        <time>2020-09-24T10:44:22Z</time>
      </trkpt>
      <trkpt lat="48.84809" lon="7.37892">
        <ele>331.6</ele>
        <time>2020-09-24T10:44:24Z</time>
      </trkpt>
      <trkpt lat="48.84814" lon="7.3787">
        <ele>331.6</ele>
        <time>2020-09-24T10:44:26Z</time>
      </trkpt>
      <trkpt lat="48.84819" lon="7.37847">
        <ele>331</ele>
        <time>2020-09-24T10:44:28Z</time>
      </trkpt>
      <trkpt lat="48.84836" lon="7.37775">
        <ele>332.8</ele>
        <time>2020-09-24T10:44:34Z</time>
      </trkpt>
      <trkpt lat="48.84841" lon="7.37753">
        <ele>333</ele>
        <time>2020-09-24T10:44:36Z</time>
      </trkpt>
      <trkpt lat="48.84848" lon="7.3772">
        <ele>333.4</ele>
        <time>2020-09-24T10:44:39Z</time>
      </trkpt>
      <trkpt lat="48.84862" lon="7.3766">
        <ele>334</ele>
        <time>2020-09-24T10:44:45Z</time>
      </trkpt>
      <trkpt lat="48.84873" lon="7.37607">
        <ele>334.8</ele>
        <time>2020-09-24T10:44:51Z</time>
      </trkpt>
      <trkpt lat="48.84874" lon="7.376">
        <ele>335</ele>
        <time>2020-09-24T10:44:52Z</time>
      </trkpt>
      <trkpt lat="48.84877" lon="7.37586">
        <ele>335.2</ele>
        <time>2020-09-24T10:44:54Z</time>
      </trkpt>
      <trkpt lat="48.84883" lon="7.3755">
        <ele>335.8</ele>
        <time>2020-09-24T10:44:59Z</time>
      </trkpt>
      <trkpt lat="48.84883" lon="7.37509">
        <ele>337</ele>
        <time>2020-09-24T10:45:05Z</time>
      </trkpt>
      <trkpt lat="48.84882" lon="7.37474">
        <ele>338.2</ele>
        <time>2020-09-24T10:45:11Z</time>
      </trkpt>
      <trkpt lat="48.84881" lon="7.37448">
        <ele>339.2</ele>
        <time>2020-09-24T10:45:16Z</time>
      </trkpt>
      <trkpt lat="48.8488" lon="7.37416">
        <ele>341</ele>
        <time>2020-09-24T10:45:23Z</time>
      </trkpt>
      <trkpt lat="48.8488" lon="7.37399">
        <ele>342</ele>
        <time>2020-09-24T10:45:27Z</time>
      </trkpt>
      <trkpt lat="48.84879" lon="7.37377">
        <ele>343.4</ele>
        <time>2020-09-24T10:45:32Z</time>
      </trkpt>
      <trkpt lat="48.84878" lon="7.37355">
        <ele>344.6</ele>
        <time>2020-09-24T10:45:37Z</time>
      </trkpt>
      <trkpt lat="48.84877" lon="7.37328">
        <ele>345.8</ele>
        <time>2020-09-24T10:45:43Z</time>
      </trkpt>
      <trkpt lat="48.84875" lon="7.37302">
        <ele>347</ele>
        <time>2020-09-24T10:45:49Z</time>
      </trkpt>
      <trkpt lat="48.84875" lon="7.37297">
        <ele>347.2</ele>
        <time>2020-09-24T10:45:50Z</time>
      </trkpt>
      <trkpt lat="48.84873" lon="7.37277">
        <ele>348.2</ele>
        <time>2020-09-24T10:45:55Z</time>
      </trkpt>
      <trkpt lat="48.84871" lon="7.37244">
        <ele>349.2</ele>
        <time>2020-09-24T10:46:03Z</time>
      </trkpt>
      <trkpt lat="48.84869" lon="7.37213">
        <ele>350.2</ele>
        <time>2020-09-24T10:46:10Z</time>
      </trkpt>
      <trkpt lat="48.84867" lon="7.37183">
        <ele>351.4</ele>
        <time>2020-09-24T10:46:18Z</time>
      </trkpt>
      <trkpt lat="48.84864" lon="7.37152">
        <ele>352.4</ele>
        <time>2020-09-24T10:46:25Z</time>
      </trkpt>
      <trkpt lat="48.84862" lon="7.37122">
        <ele>353.8</ele>
        <time>2020-09-24T10:46:32Z</time>
      </trkpt>
      <trkpt lat="48.84861" lon="7.37105">
        <ele>354.4</ele>
        <time>2020-09-24T10:46:36Z</time>
      </trkpt>
      <trkpt lat="48.84859" lon="7.37084">
        <ele>355.2</ele>
        <time>2020-09-24T10:46:41Z</time>
      </trkpt>
      <trkpt lat="48.84858" lon="7.37062">
        <ele>356.2</ele>
        <time>2020-09-24T10:46:46Z</time>
      </trkpt>
      <trkpt lat="48.84856" lon="7.37046">
        <ele>357</ele>
        <time>2020-09-24T10:46:50Z</time>
      </trkpt>
      <trkpt lat="48.84856" lon="7.37041">
        <ele>357.2</ele>
        <time>2020-09-24T10:46:51Z</time>
      </trkpt>
      <trkpt lat="48.84855" lon="7.3702">
        <ele>358.2</ele>
        <time>2020-09-24T10:46:56Z</time>
      </trkpt>
      <trkpt lat="48.84853" lon="7.37009">
        <ele>358.6</ele>
        <time>2020-09-24T10:46:59Z</time>
      </trkpt>
      <trkpt lat="48.84853" lon="7.37005">
        <ele>358.8</ele>
        <time>2020-09-24T10:47:00Z</time>
      </trkpt>
      <trkpt lat="48.84848" lon="7.36977">
        <ele>359.8</ele>
        <time>2020-09-24T10:47:06Z</time>
      </trkpt>
      <trkpt lat="48.84845" lon="7.36954">
        <ele>360.8</ele>
        <time>2020-09-24T10:47:11Z</time>
      </trkpt>
      <trkpt lat="48.84841" lon="7.36934">
        <ele>361.6</ele>
        <time>2020-09-24T10:47:16Z</time>
      </trkpt>
      <trkpt lat="48.84835" lon="7.36911">
        <ele>362.6</ele>
        <time>2020-09-24T10:47:22Z</time>
      </trkpt>
      <trkpt lat="48.84829" lon="7.36899">
        <ele>363.2</ele>
        <time>2020-09-24T10:47:26Z</time>
      </trkpt>
      <trkpt lat="48.8482" lon="7.36881">
        <ele>363.6</ele>
        <time>2020-09-24T10:47:31Z</time>
      </trkpt>
      <trkpt lat="48.84807" lon="7.36858">
        <ele>364.2</ele>
        <time>2020-09-24T10:47:38Z</time>
      </trkpt>
      <trkpt lat="48.84795" lon="7.36843">
        <ele>365</ele>
        <time>2020-09-24T10:47:44Z</time>
      </trkpt>
      <trkpt lat="48.84788" lon="7.36834">
        <ele>365.2</ele>
        <time>2020-09-24T10:47:48Z</time>
      </trkpt>
      <trkpt lat="48.84786" lon="7.36832">
        <ele>365.2</ele>
        <time>2020-09-24T10:47:49Z</time>
      </trkpt>
      <trkpt lat="48.84784" lon="7.36829">
        <ele>365.2</ele>
        <time>2020-09-24T10:47:50Z</time>
      </trkpt>
      <trkpt lat="48.84778" lon="7.36822">
        <ele>365</ele>
        <time>2020-09-24T10:47:53Z</time>
      </trkpt>
      <trkpt lat="48.84775" lon="7.36819">
        <ele>365</ele>
        <time>2020-09-24T10:47:54Z</time>
      </trkpt>
      <trkpt lat="48.84769" lon="7.36808">
        <ele>365</ele>
        <time>2020-09-24T10:47:57Z</time>
      </trkpt>
      <trkpt lat="48.84758" lon="7.36783">
        <ele>365.4</ele>
        <time>2020-09-24T10:48:04Z</time>
      </trkpt>
      <trkpt lat="48.84751" lon="7.36762">
        <ele>365.8</ele>
        <time>2020-09-24T10:48:10Z</time>
      </trkpt>
      <trkpt lat="48.8475" lon="7.36758">
        <ele>365.8</ele>
        <time>2020-09-24T10:48:11Z</time>
      </trkpt>
      <trkpt lat="48.84748" lon="7.36746">
        <ele>365.8</ele>
        <time>2020-09-24T10:48:14Z</time>
      </trkpt>
      <trkpt lat="48.84745" lon="7.36728">
        <ele>366</ele>
        <time>2020-09-24T10:48:19Z</time>
      </trkpt>
      <trkpt lat="48.84745" lon="7.3673">
        <ele>366</ele>
        <time>2020-09-24T10:48:20Z</time>
      </trkpt>
      <trkpt lat="48.84746" lon="7.36719">
        <ele>366</ele>
        <time>2020-09-24T10:48:22Z</time>
      </trkpt>
      <trkpt lat="48.84747" lon="7.36697">
        <ele>366.6</ele>
        <time>2020-09-24T10:48:29Z</time>
      </trkpt>
      <trkpt lat="48.84749" lon="7.3668">
        <ele>367</ele>
        <time>2020-09-24T10:48:35Z</time>
      </trkpt>
      <trkpt lat="48.8475" lon="7.36665">
        <ele>367.2</ele>
        <time>2020-09-24T10:48:39Z</time>
      </trkpt>
      <trkpt lat="48.84752" lon="7.36638">
        <ele>367.2</ele>
        <time>2020-09-24T10:48:44Z</time>
      </trkpt>
      <trkpt lat="48.84754" lon="7.36623">
        <ele>367</ele>
        <time>2020-09-24T10:48:46Z</time>
      </trkpt>
      <trkpt lat="48.84755" lon="7.36606">
        <ele>367</ele>
        <time>2020-09-24T10:48:48Z</time>
      </trkpt>
      <trkpt lat="48.84751" lon="7.36581">
        <ele>367.4</ele>
        <time>2020-09-24T10:48:51Z</time>
      </trkpt>
      <trkpt lat="48.84747" lon="7.36564">
        <ele>366.4</ele>
        <time>2020-09-24T10:48:53Z</time>
      </trkpt>
      <trkpt lat="48.84742" lon="7.36536">
        <ele>366.4</ele>
        <time>2020-09-24T10:48:56Z</time>
      </trkpt>
      <trkpt lat="48.84737" lon="7.36517">
        <ele>366</ele>
        <time>2020-09-24T10:48:58Z</time>
      </trkpt>
      <trkpt lat="48.84735" lon="7.36507">
        <ele>366</ele>
        <time>2020-09-24T10:48:59Z</time>
      </trkpt>
      <trkpt lat="48.84727" lon="7.36478">
        <ele>365.4</ele>
        <time>2020-09-24T10:49:02Z</time>
      </trkpt>
      <trkpt lat="48.84714" lon="7.36434">
        <ele>364.6</ele>
        <time>2020-09-24T10:49:06Z</time>
      </trkpt>
      <trkpt lat="48.84701" lon="7.36388">
        <ele>363.6</ele>
        <time>2020-09-24T10:49:10Z</time>
      </trkpt>
      <trkpt lat="48.84695" lon="7.36363">
        <ele>363</ele>
        <time>2020-09-24T10:49:12Z</time>
      </trkpt>
      <trkpt lat="48.84692" lon="7.36335">
        <ele>362.4</ele>
        <time>2020-09-24T10:49:14Z</time>
      </trkpt>
      <trkpt lat="48.84694" lon="7.36295">
        <ele>361.6</ele>
        <time>2020-09-24T10:49:17Z</time>
      </trkpt>
      <trkpt lat="48.84708" lon="7.36245">
        <ele>360.4</ele>
        <time>2020-09-24T10:49:21Z</time>
      </trkpt>
      <trkpt lat="48.84714" lon="7.36236">
        <ele>360.2</ele>
        <time>2020-09-24T10:49:22Z</time>
      </trkpt>
      <trkpt lat="48.84726" lon="7.3622">
        <ele>359.6</ele>
        <time>2020-09-24T10:49:24Z</time>
      </trkpt>
      <trkpt lat="48.84731" lon="7.36212">
        <ele>359.2</ele>
        <time>2020-09-24T10:49:25Z</time>
      </trkpt>
      <trkpt lat="48.84737" lon="7.36204">
        <ele>359</ele>
        <time>2020-09-24T10:49:26Z</time>
      </trkpt>
      <trkpt lat="48.84747" lon="7.36189">
        <ele>358.2</ele>
        <time>2020-09-24T10:49:28Z</time>
      </trkpt>
      <trkpt lat="48.84769" lon="7.36183">
        <ele>357.4</ele>
        <time>2020-09-24T10:49:31Z</time>
      </trkpt>
      <trkpt lat="48.84781" lon="7.36181">
        <ele>356.6</ele>
        <time>2020-09-24T10:49:33Z</time>
      </trkpt>
      <trkpt lat="48.84787" lon="7.3618">
        <ele>356.2</ele>
        <time>2020-09-24T10:49:34Z</time>
      </trkpt>
      <trkpt lat="48.84803" lon="7.36177">
        <ele>355.4</ele>
        <time>2020-09-24T10:49:36Z</time>
      </trkpt>
      <trkpt lat="48.84819" lon="7.36167">
        <ele>355</ele>
        <time>2020-09-24T10:49:38Z</time>
      </trkpt>
      <trkpt lat="48.84825" lon="7.3616">
        <ele>354.6</ele>
        <time>2020-09-24T10:49:39Z</time>
      </trkpt>
      <trkpt lat="48.84831" lon="7.36141">
        <ele>354.4</ele>
        <time>2020-09-24T10:49:40Z</time>
      </trkpt>
      <trkpt lat="48.84836" lon="7.36104">
        <ele>353.4</ele>
        <time>2020-09-24T10:49:43Z</time>
      </trkpt>
      <trkpt lat="48.84841" lon="7.36065">
        <ele>352.4</ele>
        <time>2020-09-24T10:49:46Z</time>
      </trkpt>
      <trkpt lat="48.8484" lon="7.36052">
        <ele>352.2</ele>
        <time>2020-09-24T10:49:47Z</time>
      </trkpt>
      <trkpt lat="48.84837" lon="7.35997">
        <ele>350.6</ele>
        <time>2020-09-24T10:49:51Z</time>
      </trkpt>
      <trkpt lat="48.84836" lon="7.35966">
        <ele>349.8</ele>
        <time>2020-09-24T10:49:53Z</time>
      </trkpt>
      <trkpt lat="48.84838" lon="7.35935">
        <ele>349</ele>
        <time>2020-09-24T10:49:55Z</time>
      </trkpt>
      <trkpt lat="48.84848" lon="7.35907">
        <ele>348.2</ele>
        <time>2020-09-24T10:49:57Z</time>
      </trkpt>
      <trkpt lat="48.8488" lon="7.35847">
        <ele>346.2</ele>
        <time>2020-09-24T10:50:02Z</time>
      </trkpt>
      <trkpt lat="48.84918" lon="7.35778">
        <ele>344</ele>
        <time>2020-09-24T10:50:08Z</time>
      </trkpt>
      <trkpt lat="48.84947" lon="7.35733">
        <ele>342.8</ele>
        <time>2020-09-24T10:50:13Z</time>
      </trkpt>
      <trkpt lat="48.84952" lon="7.35728">
        <ele>342.4</ele>
        <time>2020-09-24T10:50:14Z</time>
      </trkpt>
      <trkpt lat="48.84963" lon="7.3572">
        <ele>342.2</ele>
        <time>2020-09-24T10:50:16Z</time>
      </trkpt>
      <trkpt lat="48.84972" lon="7.35721">
        <ele>342</ele>
        <time>2020-09-24T10:50:18Z</time>
      </trkpt>
      <trkpt lat="48.84976" lon="7.35723">
        <ele>341.8</ele>
        <time>2020-09-24T10:50:19Z</time>
      </trkpt>
      <trkpt lat="48.84985" lon="7.35734">
        <ele>341.2</ele>
        <time>2020-09-24T10:50:24Z</time>
      </trkpt>
      <trkpt lat="48.84989" lon="7.35738">
        <ele>340.6</ele>
        <time>2020-09-24T10:50:28Z</time>
      </trkpt>
      <trkpt lat="48.8499" lon="7.35738">
        <ele>340.6</ele>
        <time>2020-09-24T10:50:29Z</time>
      </trkpt>
      <trkpt lat="48.84992" lon="7.35741">
        <ele>340.4</ele>
        <time>2020-09-24T10:50:31Z</time>
      </trkpt>
      <trkpt lat="48.84995" lon="7.35744">
        <ele>340.4</ele>
        <time>2020-09-24T10:50:32Z</time>
      </trkpt>
      <trkpt lat="48.85009" lon="7.35759">
        <ele>340</ele>
        <time>2020-09-24T10:50:38Z</time>
      </trkpt>
      <trkpt lat="48.85024" lon="7.35776">
        <ele>339.6</ele>
        <time>2020-09-24T10:50:44Z</time>
      </trkpt>
      <trkpt lat="48.85034" lon="7.35787">
        <ele>339.4</ele>
        <time>2020-09-24T10:50:47Z</time>
      </trkpt>
      <trkpt lat="48.85038" lon="7.35789">
        <ele>339.2</ele>
        <time>2020-09-24T10:50:48Z</time>
      </trkpt>
      <trkpt lat="48.85043" lon="7.35791">
        <ele>339.2</ele>
        <time>2020-09-24T10:50:49Z</time>
      </trkpt>
      <trkpt lat="48.85051" lon="7.35791">
        <ele>339.2</ele>
        <time>2020-09-24T10:50:51Z</time>
      </trkpt>
      <trkpt lat="48.85055" lon="7.35789">
        <ele>339</ele>
        <time>2020-09-24T10:50:52Z</time>
      </trkpt>
      <trkpt lat="48.85059" lon="7.35787">
        <ele>339</ele>
        <time>2020-09-24T10:50:53Z</time>
      </trkpt>
      <trkpt lat="48.85068" lon="7.3578">
        <ele>339</ele>
        <time>2020-09-24T10:50:55Z</time>
      </trkpt>
      <trkpt lat="48.8507" lon="7.35775">
        <ele>338.8</ele>
        <time>2020-09-24T10:50:56Z</time>
      </trkpt>
      <trkpt lat="48.85073" lon="7.35769">
        <ele>338.8</ele>
        <time>2020-09-24T10:50:57Z</time>
      </trkpt>
      <trkpt lat="48.85079" lon="7.35754">
        <ele>338.8</ele>
        <time>2020-09-24T10:51:00Z</time>
      </trkpt>
      <trkpt lat="48.8508" lon="7.35749">
        <ele>338.8</ele>
        <time>2020-09-24T10:51:02Z</time>
      </trkpt>
      <trkpt lat="48.85078" lon="7.3574">
        <ele>338.8</ele>
        <time>2020-09-24T10:51:03Z</time>
      </trkpt>
      <trkpt lat="48.85083" lon="7.35711">
        <ele>338.8</ele>
        <time>2020-09-24T10:51:09Z</time>
      </trkpt>
      <trkpt lat="48.85083" lon="7.3569">
        <ele>339.4</ele>
        <time>2020-09-24T10:51:14Z</time>
      </trkpt>
      <trkpt lat="48.85082" lon="7.35658">
        <ele>339.6</ele>
        <time>2020-09-24T10:51:22Z</time>
      </trkpt>
      <trkpt lat="48.85082" lon="7.35638">
        <ele>340</ele>
        <time>2020-09-24T10:51:27Z</time>
      </trkpt>
      <trkpt lat="48.85082" lon="7.35615">
        <ele>340.6</ele>
        <time>2020-09-24T10:51:34Z</time>
      </trkpt>
      <trkpt lat="48.85081" lon="7.35595">
        <ele>340.8</ele>
        <time>2020-09-24T10:51:39Z</time>
      </trkpt>
      <trkpt lat="48.85081" lon="7.35572">
        <ele>341.6</ele>
        <time>2020-09-24T10:51:45Z</time>
      </trkpt>
      <trkpt lat="48.8508" lon="7.35547">
        <ele>343.2</ele>
        <time>2020-09-24T10:51:52Z</time>
      </trkpt>
      <trkpt lat="48.8508" lon="7.35528">
        <ele>344.4</ele>
        <time>2020-09-24T10:51:57Z</time>
      </trkpt>
      <trkpt lat="48.8508" lon="7.35506">
        <ele>346</ele>
        <time>2020-09-24T10:52:03Z</time>
      </trkpt>
      <trkpt lat="48.85079" lon="7.35484">
        <ele>347.8</ele>
        <time>2020-09-24T10:52:09Z</time>
      </trkpt>
      <trkpt lat="48.85079" lon="7.35456">
        <ele>349.4</ele>
        <time>2020-09-24T10:52:16Z</time>
      </trkpt>
      <trkpt lat="48.85078" lon="7.35435">
        <ele>350.6</ele>
        <time>2020-09-24T10:52:22Z</time>
      </trkpt>
      <trkpt lat="48.85078" lon="7.35426">
        <ele>351</ele>
        <time>2020-09-24T10:52:25Z</time>
      </trkpt>
      <trkpt lat="48.85078" lon="7.35419">
        <ele>351.2</ele>
        <time>2020-09-24T10:52:27Z</time>
      </trkpt>
      <trkpt lat="48.85078" lon="7.35402">
        <ele>351.6</ele>
        <time>2020-09-24T10:52:32Z</time>
      </trkpt>
      <trkpt lat="48.85077" lon="7.35384">
        <ele>352.6</ele>
        <time>2020-09-24T10:52:37Z</time>
      </trkpt>
      <trkpt lat="48.85077" lon="7.35378">
        <ele>352.8</ele>
        <time>2020-09-24T10:52:39Z</time>
      </trkpt>
      <trkpt lat="48.85078" lon="7.35368">
        <ele>353.4</ele>
        <time>2020-09-24T10:52:42Z</time>
      </trkpt>
      <trkpt lat="48.85078" lon="7.35364">
        <ele>353.6</ele>
        <time>2020-09-24T10:52:43Z</time>
      </trkpt>
      <trkpt lat="48.85078" lon="7.35356">
        <ele>354</ele>
        <time>2020-09-24T10:52:45Z</time>
      </trkpt>
      <trkpt lat="48.85078" lon="7.35352">
        <ele>354</ele>
        <time>2020-09-24T10:52:46Z</time>
      </trkpt>
      <trkpt lat="48.85079" lon="7.35329">
        <ele>355</ele>
        <time>2020-09-24T10:52:53Z</time>
      </trkpt>
      <trkpt lat="48.8508" lon="7.35322">
        <ele>355.4</ele>
        <time>2020-09-24T10:52:55Z</time>
      </trkpt>
      <trkpt lat="48.8508" lon="7.35315">
        <ele>355.6</ele>
        <time>2020-09-24T10:52:57Z</time>
      </trkpt>
      <trkpt lat="48.85081" lon="7.35292">
        <ele>356.4</ele>
        <time>2020-09-24T10:53:03Z</time>
      </trkpt>
      <trkpt lat="48.85082" lon="7.35271">
        <ele>357.4</ele>
        <time>2020-09-24T10:53:09Z</time>
      </trkpt>
      <trkpt lat="48.85082" lon="7.35249">
        <ele>358.4</ele>
        <time>2020-09-24T10:53:15Z</time>
      </trkpt>
      <trkpt lat="48.85083" lon="7.3523">
        <ele>359.4</ele>
        <time>2020-09-24T10:53:20Z</time>
      </trkpt>
      <trkpt lat="48.85084" lon="7.35217">
        <ele>359.8</ele>
        <time>2020-09-24T10:53:24Z</time>
      </trkpt>
      <trkpt lat="48.85084" lon="7.35197">
        <ele>359.8</ele>
        <time>2020-09-24T10:53:29Z</time>
      </trkpt>
      <trkpt lat="48.85084" lon="7.3518">
        <ele>359.8</ele>
        <time>2020-09-24T10:53:34Z</time>
      </trkpt>
      <trkpt lat="48.85084" lon="7.35158">
        <ele>360.4</ele>
        <time>2020-09-24T10:53:40Z</time>
      </trkpt>
      <trkpt lat="48.85084" lon="7.35138">
        <ele>361.2</ele>
        <time>2020-09-24T10:53:45Z</time>
      </trkpt>
      <trkpt lat="48.85084" lon="7.35119">
        <ele>361.8</ele>
        <time>2020-09-24T10:53:50Z</time>
      </trkpt>
      <trkpt lat="48.85086" lon="7.351">
        <ele>362.4</ele>
        <time>2020-09-24T10:53:55Z</time>
      </trkpt>
      <trkpt lat="48.85086" lon="7.35096">
        <ele>362.6</ele>
        <time>2020-09-24T10:53:56Z</time>
      </trkpt>
      <trkpt lat="48.85087" lon="7.35085">
        <ele>362.6</ele>
        <time>2020-09-24T10:53:59Z</time>
      </trkpt>
      <trkpt lat="48.85089" lon="7.35064">
        <ele>362.8</ele>
        <time>2020-09-24T10:54:04Z</time>
      </trkpt>
      <trkpt lat="48.85092" lon="7.35043">
        <ele>363.2</ele>
        <time>2020-09-24T10:54:09Z</time>
      </trkpt>
      <trkpt lat="48.85094" lon="7.35018">
        <ele>363.8</ele>
        <time>2020-09-24T10:54:16Z</time>
      </trkpt>
      <trkpt lat="48.85097" lon="7.34992">
        <ele>364.6</ele>
        <time>2020-09-24T10:54:23Z</time>
      </trkpt>
      <trkpt lat="48.85098" lon="7.34973">
        <ele>365</ele>
        <time>2020-09-24T10:54:28Z</time>
      </trkpt>
      <trkpt lat="48.85101" lon="7.34949">
        <ele>365.8</ele>
        <time>2020-09-24T10:54:34Z</time>
      </trkpt>
      <trkpt lat="48.85105" lon="7.3493">
        <ele>366.6</ele>
        <time>2020-09-24T10:54:40Z</time>
      </trkpt>
      <trkpt lat="48.8511" lon="7.3491">
        <ele>367.4</ele>
        <time>2020-09-24T10:54:46Z</time>
      </trkpt>
      <trkpt lat="48.85113" lon="7.34897">
        <ele>367.8</ele>
        <time>2020-09-24T10:54:50Z</time>
      </trkpt>
      <trkpt lat="48.85114" lon="7.34894">
        <ele>368</ele>
        <time>2020-09-24T10:54:51Z</time>
      </trkpt>
      <trkpt lat="48.85118" lon="7.34877">
        <ele>368.6</ele>
        <time>2020-09-24T10:54:56Z</time>
      </trkpt>
      <trkpt lat="48.8512" lon="7.34869">
        <ele>368.8</ele>
        <time>2020-09-24T10:54:59Z</time>
      </trkpt>
      <trkpt lat="48.85121" lon="7.34865">
        <ele>369</ele>
        <time>2020-09-24T10:55:01Z</time>
      </trkpt>
      <trkpt lat="48.85122" lon="7.34861">
        <ele>369.4</ele>
        <time>2020-09-24T10:55:03Z</time>
      </trkpt>
      <trkpt lat="48.85124" lon="7.34854">
        <ele>369.8</ele>
        <time>2020-09-24T10:55:06Z</time>
      </trkpt>
      <trkpt lat="48.85125" lon="7.34851">
        <ele>370</ele>
        <time>2020-09-24T10:55:08Z</time>
      </trkpt>
      <trkpt lat="48.85126" lon="7.34844">
        <ele>370</ele>
        <time>2020-09-24T10:55:10Z</time>
      </trkpt>
      <trkpt lat="48.8513" lon="7.34826">
        <ele>370</ele>
        <time>2020-09-24T10:55:14Z</time>
      </trkpt>
      <trkpt lat="48.85134" lon="7.3481">
        <ele>370.2</ele>
        <time>2020-09-24T10:55:19Z</time>
      </trkpt>
      <trkpt lat="48.85136" lon="7.34804">
        <ele>370.2</ele>
        <time>2020-09-24T10:55:21Z</time>
      </trkpt>
      <trkpt lat="48.85137" lon="7.34799">
        <ele>370.4</ele>
        <time>2020-09-24T10:55:23Z</time>
      </trkpt>
      <trkpt lat="48.8514" lon="7.34785">
        <ele>370.6</ele>
        <time>2020-09-24T10:55:27Z</time>
      </trkpt>
      <trkpt lat="48.85145" lon="7.34765">
        <ele>370.8</ele>
        <time>2020-09-24T10:55:31Z</time>
      </trkpt>
      <trkpt lat="48.85145" lon="7.34743">
        <ele>370.8</ele>
        <time>2020-09-24T10:55:34Z</time>
      </trkpt>
      <trkpt lat="48.85144" lon="7.34729">
        <ele>371</ele>
        <time>2020-09-24T10:55:36Z</time>
      </trkpt>
      <trkpt lat="48.85142" lon="7.34708">
        <ele>371.2</ele>
        <time>2020-09-24T10:55:39Z</time>
      </trkpt>
      <trkpt lat="48.85141" lon="7.34695">
        <ele>371.4</ele>
        <time>2020-09-24T10:55:41Z</time>
      </trkpt>
      <trkpt lat="48.8514" lon="7.34675">
        <ele>371.4</ele>
        <time>2020-09-24T10:55:44Z</time>
      </trkpt>
      <trkpt lat="48.85137" lon="7.34656">
        <ele>371.6</ele>
        <time>2020-09-24T10:55:47Z</time>
      </trkpt>
      <trkpt lat="48.85134" lon="7.34639">
        <ele>371.6</ele>
        <time>2020-09-24T10:55:50Z</time>
      </trkpt>
      <trkpt lat="48.85129" lon="7.34608">
        <ele>371.8</ele>
        <time>2020-09-24T10:55:56Z</time>
      </trkpt>
      <trkpt lat="48.85124" lon="7.34581">
        <ele>371.6</ele>
        <time>2020-09-24T10:56:02Z</time>
      </trkpt>
      <trkpt lat="48.85121" lon="7.3456">
        <ele>371.2</ele>
        <time>2020-09-24T10:56:06Z</time>
      </trkpt>
      <trkpt lat="48.85118" lon="7.34536">
        <ele>370.6</ele>
        <time>2020-09-24T10:56:10Z</time>
      </trkpt>
      <trkpt lat="48.85117" lon="7.34524">
        <ele>370.2</ele>
        <time>2020-09-24T10:56:12Z</time>
      </trkpt>
      <trkpt lat="48.85116" lon="7.34518">
        <ele>370.2</ele>
        <time>2020-09-24T10:56:13Z</time>
      </trkpt>
      <trkpt lat="48.85114" lon="7.34505">
        <ele>369.8</ele>
        <time>2020-09-24T10:56:15Z</time>
      </trkpt>
      <trkpt lat="48.85114" lon="7.34499">
        <ele>369.6</ele>
        <time>2020-09-24T10:56:16Z</time>
      </trkpt>
      <trkpt lat="48.85111" lon="7.34479">
        <ele>369</ele>
        <time>2020-09-24T10:56:19Z</time>
      </trkpt>
      <trkpt lat="48.8511" lon="7.34473">
        <ele>368.8</ele>
        <time>2020-09-24T10:56:20Z</time>
      </trkpt>
      <trkpt lat="48.85109" lon="7.34459">
        <ele>368.4</ele>
        <time>2020-09-24T10:56:22Z</time>
      </trkpt>
      <trkpt lat="48.85108" lon="7.34452">
        <ele>368.4</ele>
        <time>2020-09-24T10:56:23Z</time>
      </trkpt>
      <trkpt lat="48.85105" lon="7.3443">
        <ele>368</ele>
        <time>2020-09-24T10:56:26Z</time>
      </trkpt>
      <trkpt lat="48.85104" lon="7.34421">
        <ele>367.8</ele>
        <time>2020-09-24T10:56:27Z</time>
      </trkpt>
      <trkpt lat="48.85102" lon="7.34406">
        <ele>367.4</ele>
        <time>2020-09-24T10:56:29Z</time>
      </trkpt>
      <trkpt lat="48.851" lon="7.34381">
        <ele>367.2</ele>
        <time>2020-09-24T10:56:32Z</time>
      </trkpt>
      <trkpt lat="48.85097" lon="7.34358">
        <ele>366.4</ele>
        <time>2020-09-24T10:56:35Z</time>
      </trkpt>
      <trkpt lat="48.85095" lon="7.34344">
        <ele>366.2</ele>
        <time>2020-09-24T10:56:37Z</time>
      </trkpt>
      <trkpt lat="48.85092" lon="7.3432">
        <ele>365.6</ele>
        <time>2020-09-24T10:56:40Z</time>
      </trkpt>
      <trkpt lat="48.8509" lon="7.34297">
        <ele>365.2</ele>
        <time>2020-09-24T10:56:43Z</time>
      </trkpt>
      <trkpt lat="48.85086" lon="7.34257">
        <ele>364.6</ele>
        <time>2020-09-24T10:56:48Z</time>
      </trkpt>
      <trkpt lat="48.85086" lon="7.34249">
        <ele>364.6</ele>
        <time>2020-09-24T10:56:49Z</time>
      </trkpt>
      <trkpt lat="48.85086" lon="7.34232">
        <ele>364.4</ele>
        <time>2020-09-24T10:56:51Z</time>
      </trkpt>
      <trkpt lat="48.8509" lon="7.34212">
        <ele>364.4</ele>
        <time>2020-09-24T10:56:53Z</time>
      </trkpt>
      <trkpt lat="48.85102" lon="7.34207">
        <ele>364</ele>
        <time>2020-09-24T10:56:55Z</time>
      </trkpt>
      <trkpt lat="48.85109" lon="7.34205">
        <ele>364</ele>
        <time>2020-09-24T10:56:56Z</time>
      </trkpt>
      <trkpt lat="48.85115" lon="7.34202">
        <ele>363.8</ele>
        <time>2020-09-24T10:56:57Z</time>
      </trkpt>
      <trkpt lat="48.85137" lon="7.34189">
        <ele>363.2</ele>
        <time>2020-09-24T10:57:00Z</time>
      </trkpt>
      <trkpt lat="48.85168" lon="7.3417">
        <ele>362.4</ele>
        <time>2020-09-24T10:57:04Z</time>
      </trkpt>
      <trkpt lat="48.85187" lon="7.34167">
        <ele>362</ele>
        <time>2020-09-24T10:57:06Z</time>
      </trkpt>
      <trkpt lat="48.85196" lon="7.34166">
        <ele>361.8</ele>
        <time>2020-09-24T10:57:07Z</time>
      </trkpt>
      <trkpt lat="48.85243" lon="7.3418">
        <ele>360.6</ele>
        <time>2020-09-24T10:57:12Z</time>
      </trkpt>
      <trkpt lat="48.85297" lon="7.34212">
        <ele>359.2</ele>
        <time>2020-09-24T10:57:18Z</time>
      </trkpt>
      <trkpt lat="48.85336" lon="7.34236">
        <ele>358.2</ele>
        <time>2020-09-24T10:57:23Z</time>
      </trkpt>
      <trkpt lat="48.85352" lon="7.34242">
        <ele>357.8</ele>
        <time>2020-09-24T10:57:25Z</time>
      </trkpt>
      <trkpt lat="48.85361" lon="7.3424">
        <ele>357.6</ele>
        <time>2020-09-24T10:57:26Z</time>
      </trkpt>
      <trkpt lat="48.85368" lon="7.34234">
        <ele>357.4</ele>
        <time>2020-09-24T10:57:27Z</time>
      </trkpt>
      <trkpt lat="48.85379" lon="7.34219">
        <ele>357</ele>
        <time>2020-09-24T10:57:29Z</time>
      </trkpt>
      <trkpt lat="48.85409" lon="7.34174">
        <ele>356.2</ele>
        <time>2020-09-24T10:57:35Z</time>
      </trkpt>
      <trkpt lat="48.85421" lon="7.34155">
        <ele>356</ele>
        <time>2020-09-24T10:57:38Z</time>
      </trkpt>
      <trkpt lat="48.85425" lon="7.3415">
        <ele>355.8</ele>
        <time>2020-09-24T10:57:39Z</time>
      </trkpt>
      <trkpt lat="48.85432" lon="7.34139">
        <ele>355.6</ele>
        <time>2020-09-24T10:57:41Z</time>
      </trkpt>
      <trkpt lat="48.85437" lon="7.34131">
        <ele>355.4</ele>
        <time>2020-09-24T10:57:43Z</time>
      </trkpt>
      <trkpt lat="48.85451" lon="7.34116">
        <ele>355</ele>
        <time>2020-09-24T10:57:48Z</time>
      </trkpt>
      <trkpt lat="48.85463" lon="7.34104">
        <ele>354.8</ele>
        <time>2020-09-24T10:57:52Z</time>
      </trkpt>
      <trkpt lat="48.85485" lon="7.34093">
        <ele>354.4</ele>
        <time>2020-09-24T10:57:57Z</time>
      </trkpt>
      <trkpt lat="48.8549" lon="7.34092">
        <ele>354.4</ele>
        <time>2020-09-24T10:57:58Z</time>
      </trkpt>
      <trkpt lat="48.8551" lon="7.34088">
        <ele>353.8</ele>
        <time>2020-09-24T10:58:01Z</time>
      </trkpt>
      <trkpt lat="48.85533" lon="7.34082">
        <ele>353.4</ele>
        <time>2020-09-24T10:58:04Z</time>
      </trkpt>
      <trkpt lat="48.85542" lon="7.34081">
        <ele>353.2</ele>
        <time>2020-09-24T10:58:05Z</time>
      </trkpt>
      <trkpt lat="48.85601" lon="7.34067">
        <ele>351.8</ele>
        <time>2020-09-24T10:58:12Z</time>
      </trkpt>
      <trkpt lat="48.85617" lon="7.34064">
        <ele>351.4</ele>
        <time>2020-09-24T10:58:14Z</time>
      </trkpt>
      <trkpt lat="48.85649" lon="7.3405">
        <ele>350.8</ele>
        <time>2020-09-24T10:58:19Z</time>
      </trkpt>
      <trkpt lat="48.85678" lon="7.34034">
        <ele>350.4</ele>
        <time>2020-09-24T10:58:24Z</time>
      </trkpt>
      <trkpt lat="48.85689" lon="7.34028">
        <ele>350.2</ele>
        <time>2020-09-24T10:58:26Z</time>
      </trkpt>
      <trkpt lat="48.85704" lon="7.34019">
        <ele>349.8</ele>
        <time>2020-09-24T10:58:29Z</time>
      </trkpt>
      <trkpt lat="48.85722" lon="7.34009">
        <ele>349.6</ele>
        <time>2020-09-24T10:58:34Z</time>
      </trkpt>
      <trkpt lat="48.8574" lon="7.33998">
        <ele>349.4</ele>
        <time>2020-09-24T10:58:38Z</time>
      </trkpt>
      <trkpt lat="48.85753" lon="7.33991">
        <ele>349.6</ele>
        <time>2020-09-24T10:58:42Z</time>
      </trkpt>
      <trkpt lat="48.85769" lon="7.33983">
        <ele>349.6</ele>
        <time>2020-09-24T10:58:48Z</time>
      </trkpt>
      <trkpt lat="48.85775" lon="7.33981">
        <ele>349.6</ele>
        <time>2020-09-24T10:58:51Z</time>
      </trkpt>
      <trkpt lat="48.85778" lon="7.33979">
        <ele>349.6</ele>
        <time>2020-09-24T10:58:55Z</time>
      </trkpt>
      <trkpt lat="48.85784" lon="7.33969">
        <ele>349.2</ele>
        <time>2020-09-24T10:58:57Z</time>
      </trkpt>
      <trkpt lat="48.85785" lon="7.3396">
        <ele>349.4</ele>
        <time>2020-09-24T10:58:59Z</time>
      </trkpt>
      <trkpt lat="48.85791" lon="7.33909">
        <ele>349.2</ele>
        <time>2020-09-24T10:59:10Z</time>
      </trkpt>
      <trkpt lat="48.85795" lon="7.33871">
        <ele>349.2</ele>
        <time>2020-09-24T10:59:18Z</time>
      </trkpt>
      <trkpt lat="48.85798" lon="7.33842">
        <ele>349.4</ele>
        <time>2020-09-24T10:59:24Z</time>
      </trkpt>
      <trkpt lat="48.85802" lon="7.33806">
        <ele>349.4</ele>
        <time>2020-09-24T10:59:31Z</time>
      </trkpt>
      <trkpt lat="48.85801" lon="7.33781">
        <ele>349.4</ele>
        <time>2020-09-24T10:59:36Z</time>
      </trkpt>
      <trkpt lat="48.85796" lon="7.33745">
        <ele>349.8</ele>
        <time>2020-09-24T10:59:43Z</time>
      </trkpt>
      <trkpt lat="48.8579" lon="7.33716">
        <ele>350</ele>
        <time>2020-09-24T10:59:49Z</time>
      </trkpt>
      <trkpt lat="48.85782" lon="7.33692">
        <ele>350</ele>
        <time>2020-09-24T10:59:54Z</time>
      </trkpt>
      <trkpt lat="48.8577" lon="7.33661">
        <ele>350.2</ele>
        <time>2020-09-24T11:00:00Z</time>
      </trkpt>
      <trkpt lat="48.85766" lon="7.33649">
        <ele>350.2</ele>
        <time>2020-09-24T11:00:02Z</time>
      </trkpt>
      <trkpt lat="48.85761" lon="7.33635">
        <ele>350.2</ele>
        <time>2020-09-24T11:00:04Z</time>
      </trkpt>
      <trkpt lat="48.8575" lon="7.33581">
        <ele>349.6</ele>
        <time>2020-09-24T11:00:10Z</time>
      </trkpt>
      <trkpt lat="48.85747" lon="7.33525">
        <ele>349.2</ele>
        <time>2020-09-24T11:00:15Z</time>
      </trkpt>
      <trkpt lat="48.85749" lon="7.33513">
        <ele>349</ele>
        <time>2020-09-24T11:00:16Z</time>
      </trkpt>
      <trkpt lat="48.85759" lon="7.3348">
        <ele>348.8</ele>
        <time>2020-09-24T11:00:19Z</time>
      </trkpt>
      <trkpt lat="48.85769" lon="7.33458">
        <ele>348.4</ele>
        <time>2020-09-24T11:00:21Z</time>
      </trkpt>
      <trkpt lat="48.85776" lon="7.3345">
        <ele>348.2</ele>
        <time>2020-09-24T11:00:22Z</time>
      </trkpt>
      <trkpt lat="48.85791" lon="7.33433">
        <ele>347.8</ele>
        <time>2020-09-24T11:00:24Z</time>
      </trkpt>
      <trkpt lat="48.85798" lon="7.33409">
        <ele>347.4</ele>
        <time>2020-09-24T11:00:26Z</time>
      </trkpt>
      <trkpt lat="48.85804" lon="7.33357">
        <ele>346.6</ele>
        <time>2020-09-24T11:00:30Z</time>
      </trkpt>
      <trkpt lat="48.85813" lon="7.33297">
        <ele>346.2</ele>
        <time>2020-09-24T11:00:35Z</time>
      </trkpt>
      <trkpt lat="48.85819" lon="7.33267">
        <ele>346</ele>
        <time>2020-09-24T11:00:38Z</time>
      </trkpt>
      <trkpt lat="48.85822" lon="7.33249">
        <ele>345.8</ele>
        <time>2020-09-24T11:00:40Z</time>
      </trkpt>
      <trkpt lat="48.85823" lon="7.33224">
        <ele>345.8</ele>
        <time>2020-09-24T11:00:43Z</time>
      </trkpt>
      <trkpt lat="48.85823" lon="7.33208">
        <ele>345.6</ele>
        <time>2020-09-24T11:00:45Z</time>
      </trkpt>
      <trkpt lat="48.85822" lon="7.33199">
        <ele>345.6</ele>
        <time>2020-09-24T11:00:46Z</time>
      </trkpt>
      <trkpt lat="48.85821" lon="7.33176">
        <ele>345.4</ele>
        <time>2020-09-24T11:00:49Z</time>
      </trkpt>
      <trkpt lat="48.85821" lon="7.33169">
        <ele>345.4</ele>
        <time>2020-09-24T11:00:50Z</time>
      </trkpt>
      <trkpt lat="48.8582" lon="7.33146">
        <ele>345.4</ele>
        <time>2020-09-24T11:00:53Z</time>
      </trkpt>
      <trkpt lat="48.85819" lon="7.33137">
        <ele>345.4</ele>
        <time>2020-09-24T11:00:54Z</time>
      </trkpt>
      <trkpt lat="48.85818" lon="7.33129">
        <ele>345.4</ele>
        <time>2020-09-24T11:00:55Z</time>
      </trkpt>
      <trkpt lat="48.85811" lon="7.33088">
        <ele>345.2</ele>
        <time>2020-09-24T11:01:00Z</time>
      </trkpt>
      <trkpt lat="48.85807" lon="7.33061">
        <ele>345</ele>
        <time>2020-09-24T11:01:03Z</time>
      </trkpt>
      <trkpt lat="48.85806" lon="7.33052">
        <ele>344.8</ele>
        <time>2020-09-24T11:01:04Z</time>
      </trkpt>
      <trkpt lat="48.85797" lon="7.32997">
        <ele>344.2</ele>
        <time>2020-09-24T11:01:10Z</time>
      </trkpt>
      <trkpt lat="48.85793" lon="7.32981">
        <ele>344</ele>
        <time>2020-09-24T11:01:12Z</time>
      </trkpt>
      <trkpt lat="48.85788" lon="7.32963">
        <ele>343.6</ele>
        <time>2020-09-24T11:01:14Z</time>
      </trkpt>
      <trkpt lat="48.85779" lon="7.32926">
        <ele>343.2</ele>
        <time>2020-09-24T11:01:18Z</time>
      </trkpt>
      <trkpt lat="48.85776" lon="7.32917">
        <ele>343.2</ele>
        <time>2020-09-24T11:01:19Z</time>
      </trkpt>
      <trkpt lat="48.85769" lon="7.3289">
        <ele>342.8</ele>
        <time>2020-09-24T11:01:22Z</time>
      </trkpt>
      <trkpt lat="48.85766" lon="7.32881">
        <ele>342.6</ele>
        <time>2020-09-24T11:01:23Z</time>
      </trkpt>
      <trkpt lat="48.85755" lon="7.32848">
        <ele>342.2</ele>
        <time>2020-09-24T11:01:27Z</time>
      </trkpt>
      <trkpt lat="48.85752" lon="7.3284">
        <ele>342</ele>
        <time>2020-09-24T11:01:28Z</time>
      </trkpt>
      <trkpt lat="48.85744" lon="7.32816">
        <ele>341.4</ele>
        <time>2020-09-24T11:01:31Z</time>
      </trkpt>
      <trkpt lat="48.85734" lon="7.32784">
        <ele>340.8</ele>
        <time>2020-09-24T11:01:35Z</time>
      </trkpt>
      <trkpt lat="48.85731" lon="7.32777">
        <ele>340.6</ele>
        <time>2020-09-24T11:01:36Z</time>
      </trkpt>
      <trkpt lat="48.85727" lon="7.32764">
        <ele>340.2</ele>
        <time>2020-09-24T11:01:38Z</time>
      </trkpt>
      <trkpt lat="48.85725" lon="7.32758">
        <ele>340</ele>
        <time>2020-09-24T11:01:39Z</time>
      </trkpt>
      <trkpt lat="48.85716" lon="7.32731">
        <ele>339.2</ele>
        <time>2020-09-24T11:01:43Z</time>
      </trkpt>
      <trkpt lat="48.85709" lon="7.32702">
        <ele>338.8</ele>
        <time>2020-09-24T11:01:47Z</time>
      </trkpt>
      <trkpt lat="48.85703" lon="7.32659">
        <ele>339.2</ele>
        <time>2020-09-24T11:01:53Z</time>
      </trkpt>
      <trkpt lat="48.85698" lon="7.32621">
        <ele>339.2</ele>
        <time>2020-09-24T11:02:00Z</time>
      </trkpt>
      <trkpt lat="48.85695" lon="7.32597">
        <ele>339</ele>
        <time>2020-09-24T11:02:05Z</time>
      </trkpt>
      <trkpt lat="48.85703" lon="7.32559">
        <ele>338.8</ele>
        <time>2020-09-24T11:02:13Z</time>
      </trkpt>
      <trkpt lat="48.8571" lon="7.32531">
        <ele>339</ele>
        <time>2020-09-24T11:02:19Z</time>
      </trkpt>
      <trkpt lat="48.85723" lon="7.32499">
        <ele>339.2</ele>
        <time>2020-09-24T11:02:26Z</time>
      </trkpt>
      <trkpt lat="48.85735" lon="7.32468">
        <ele>339.4</ele>
        <time>2020-09-24T11:02:32Z</time>
      </trkpt>
      <trkpt lat="48.85747" lon="7.3243">
        <ele>339.4</ele>
        <time>2020-09-24T11:02:39Z</time>
      </trkpt>
      <trkpt lat="48.8576" lon="7.32388">
        <ele>339.6</ele>
        <time>2020-09-24T11:02:47Z</time>
      </trkpt>
      <trkpt lat="48.85773" lon="7.32348">
        <ele>340</ele>
        <time>2020-09-24T11:02:56Z</time>
      </trkpt>
      <trkpt lat="48.85783" lon="7.32315">
        <ele>340.6</ele>
        <time>2020-09-24T11:03:03Z</time>
      </trkpt>
      <trkpt lat="48.85791" lon="7.32277">
        <ele>341.2</ele>
        <time>2020-09-24T11:03:10Z</time>
      </trkpt>
      <trkpt lat="48.85797" lon="7.32241">
        <ele>341.8</ele>
        <time>2020-09-24T11:03:17Z</time>
      </trkpt>
      <trkpt lat="48.85799" lon="7.32205">
        <ele>342</ele>
        <time>2020-09-24T11:03:22Z</time>
      </trkpt>
      <trkpt lat="48.85799" lon="7.32198">
        <ele>342</ele>
        <time>2020-09-24T11:03:23Z</time>
      </trkpt>
      <trkpt lat="48.85799" lon="7.32192">
        <ele>342</ele>
        <time>2020-09-24T11:03:24Z</time>
      </trkpt>
      <trkpt lat="48.858" lon="7.32172">
        <ele>342.2</ele>
        <time>2020-09-24T11:03:27Z</time>
      </trkpt>
      <trkpt lat="48.858" lon="7.32172">
        <ele>342.2</ele>
        <time>2020-09-24T11:03:28Z</time>
      </trkpt>
      <trkpt lat="48.858" lon="7.3216">
        <ele>342.2</ele>
        <time>2020-09-24T11:03:29Z</time>
      </trkpt>
      <trkpt lat="48.85796" lon="7.32131">
        <ele>342.2</ele>
        <time>2020-09-24T11:03:33Z</time>
      </trkpt>
      <trkpt lat="48.85793" lon="7.32099">
        <ele>342.2</ele>
        <time>2020-09-24T11:03:37Z</time>
      </trkpt>
      <trkpt lat="48.85792" lon="7.32091">
        <ele>342.2</ele>
        <time>2020-09-24T11:03:39Z</time>
      </trkpt>
      <trkpt lat="48.8579" lon="7.32068">
        <ele>342</ele>
        <time>2020-09-24T11:03:41Z</time>
      </trkpt>
      <trkpt lat="48.85793" lon="7.32064">
        <ele>342</ele>
        <time>2020-09-24T11:03:42Z</time>
      </trkpt>
      <trkpt lat="48.85802" lon="7.32065">
        <ele>342</ele>
        <time>2020-09-24T11:03:44Z</time>
      </trkpt>
      <trkpt lat="48.85806" lon="7.32066">
        <ele>342</ele>
        <time>2020-09-24T11:03:45Z</time>
      </trkpt>
      <trkpt lat="48.85847" lon="7.32075">
        <ele>341.8</ele>
        <time>2020-09-24T11:03:53Z</time>
      </trkpt>
      <trkpt lat="48.85857" lon="7.32078">
        <ele>341.8</ele>
        <time>2020-09-24T11:03:56Z</time>
      </trkpt>
      <trkpt lat="48.85881" lon="7.32082">
        <ele>341.8</ele>
        <time>2020-09-24T11:04:00Z</time>
      </trkpt>
      <trkpt lat="48.85886" lon="7.32082">
        <ele>341.8</ele>
        <time>2020-09-24T11:04:01Z</time>
      </trkpt>
      <trkpt lat="48.85896" lon="7.32081">
        <ele>341.8</ele>
        <time>2020-09-24T11:04:03Z</time>
      </trkpt>
      <trkpt lat="48.85906" lon="7.3208">
        <ele>341.6</ele>
        <time>2020-09-24T11:04:05Z</time>
      </trkpt>
      <trkpt lat="48.85916" lon="7.32079">
        <ele>341.6</ele>
        <time>2020-09-24T11:04:07Z</time>
      </trkpt>
      <trkpt lat="48.85939" lon="7.32076">
        <ele>341.6</ele>
        <time>2020-09-24T11:04:11Z</time>
      </trkpt>
      <trkpt lat="48.85976" lon="7.3206">
        <ele>341.2</ele>
        <time>2020-09-24T11:04:17Z</time>
      </trkpt>
      <trkpt lat="48.85982" lon="7.32057">
        <ele>341.2</ele>
        <time>2020-09-24T11:04:18Z</time>
      </trkpt>
      <trkpt lat="48.85998" lon="7.32054">
        <ele>341.2</ele>
        <time>2020-09-24T11:04:21Z</time>
      </trkpt>
      <trkpt lat="48.86013" lon="7.32052">
        <ele>340.8</ele>
        <time>2020-09-24T11:04:24Z</time>
      </trkpt>
      <trkpt lat="48.86021" lon="7.32051">
        <ele>340.8</ele>
        <time>2020-09-24T11:04:26Z</time>
      </trkpt>
      <trkpt lat="48.86045" lon="7.32043">
        <ele>340.8</ele>
        <time>2020-09-24T11:04:33Z</time>
      </trkpt>
      <trkpt lat="48.86059" lon="7.3203">
        <ele>341.6</ele>
        <time>2020-09-24T11:04:39Z</time>
      </trkpt>
      <trkpt lat="48.86076" lon="7.32012">
        <ele>341.6</ele>
        <time>2020-09-24T11:04:45Z</time>
      </trkpt>
      <trkpt lat="48.86089" lon="7.31995">
        <ele>342</ele>
        <time>2020-09-24T11:04:52Z</time>
      </trkpt>
      <trkpt lat="48.86107" lon="7.31985">
        <ele>342.4</ele>
        <time>2020-09-24T11:05:00Z</time>
      </trkpt>
      <trkpt lat="48.86126" lon="7.3198">
        <ele>343.4</ele>
        <time>2020-09-24T11:05:08Z</time>
      </trkpt>
      <trkpt lat="48.86138" lon="7.31977">
        <ele>343.8</ele>
        <time>2020-09-24T11:05:13Z</time>
      </trkpt>
      <trkpt lat="48.86151" lon="7.31973">
        <ele>344.4</ele>
        <time>2020-09-24T11:05:18Z</time>
      </trkpt>
      <trkpt lat="48.86173" lon="7.31968">
        <ele>345.4</ele>
        <time>2020-09-24T11:05:26Z</time>
      </trkpt>
      <trkpt lat="48.86187" lon="7.31964">
        <ele>346</ele>
        <time>2020-09-24T11:05:30Z</time>
      </trkpt>
      <trkpt lat="48.86204" lon="7.31957">
        <ele>346.6</ele>
        <time>2020-09-24T11:05:35Z</time>
      </trkpt>
      <trkpt lat="48.86221" lon="7.3195">
        <ele>347.2</ele>
        <time>2020-09-24T11:05:40Z</time>
      </trkpt>
      <trkpt lat="48.86244" lon="7.31938">
        <ele>347.8</ele>
        <time>2020-09-24T11:05:47Z</time>
      </trkpt>
      <trkpt lat="48.86269" lon="7.31916">
        <ele>348.6</ele>
        <time>2020-09-24T11:05:55Z</time>
      </trkpt>
      <trkpt lat="48.86279" lon="7.31907">
        <ele>349.4</ele>
        <time>2020-09-24T11:06:01Z</time>
      </trkpt>
      <trkpt lat="48.86305" lon="7.31877">
        <ele>349.8</ele>
        <time>2020-09-24T11:06:07Z</time>
      </trkpt>
      <trkpt lat="48.86322" lon="7.31853">
        <ele>350.4</ele>
        <time>2020-09-24T11:06:13Z</time>
      </trkpt>
      <trkpt lat="48.86333" lon="7.3184">
        <ele>350.8</ele>
        <time>2020-09-24T11:06:18Z</time>
      </trkpt>
      <trkpt lat="48.86348" lon="7.3182">
        <ele>351.2</ele>
        <time>2020-09-24T11:06:23Z</time>
      </trkpt>
      <trkpt lat="48.86359" lon="7.31805">
        <ele>351.6</ele>
        <time>2020-09-24T11:06:28Z</time>
      </trkpt>
      <trkpt lat="48.86371" lon="7.31788">
        <ele>352</ele>
        <time>2020-09-24T11:06:33Z</time>
      </trkpt>
      <trkpt lat="48.86381" lon="7.31753">
        <ele>353</ele>
        <time>2020-09-24T11:06:41Z</time>
      </trkpt>
      <trkpt lat="48.86389" lon="7.31721">
        <ele>353.6</ele>
        <time>2020-09-24T11:06:48Z</time>
      </trkpt>
      <trkpt lat="48.86396" lon="7.31687">
        <ele>354.4</ele>
        <time>2020-09-24T11:06:56Z</time>
      </trkpt>
      <trkpt lat="48.86406" lon="7.31644">
        <ele>355.2</ele>
        <time>2020-09-24T11:07:03Z</time>
      </trkpt>
      <trkpt lat="48.86414" lon="7.31611">
        <ele>355.8</ele>
        <time>2020-09-24T11:07:09Z</time>
      </trkpt>
      <trkpt lat="48.86424" lon="7.31574">
        <ele>356</ele>
        <time>2020-09-24T11:07:16Z</time>
      </trkpt>
      <trkpt lat="48.86435" lon="7.31546">
        <ele>356.6</ele>
        <time>2020-09-24T11:07:22Z</time>
      </trkpt>
      <trkpt lat="48.86453" lon="7.31513">
        <ele>357.4</ele>
        <time>2020-09-24T11:07:30Z</time>
      </trkpt>
      <trkpt lat="48.86472" lon="7.31485">
        <ele>358.2</ele>
        <time>2020-09-24T11:07:37Z</time>
      </trkpt>
      <trkpt lat="48.86484" lon="7.31467">
        <ele>358.6</ele>
        <time>2020-09-24T11:07:42Z</time>
      </trkpt>
      <trkpt lat="48.86507" lon="7.31434">
        <ele>359.2</ele>
        <time>2020-09-24T11:07:50Z</time>
      </trkpt>
      <trkpt lat="48.8653" lon="7.31392">
        <ele>359.8</ele>
        <time>2020-09-24T11:07:59Z</time>
      </trkpt>
      <trkpt lat="48.86542" lon="7.31355">
        <ele>360.4</ele>
        <time>2020-09-24T11:08:06Z</time>
      </trkpt>
      <trkpt lat="48.8655" lon="7.31315">
        <ele>361</ele>
        <time>2020-09-24T11:08:13Z</time>
      </trkpt>
      <trkpt lat="48.86551" lon="7.31285">
        <ele>361.2</ele>
        <time>2020-09-24T11:08:19Z</time>
      </trkpt>
      <trkpt lat="48.86548" lon="7.3126">
        <ele>361.6</ele>
        <time>2020-09-24T11:08:24Z</time>
      </trkpt>
      <trkpt lat="48.86545" lon="7.31242">
        <ele>362</ele>
        <time>2020-09-24T11:08:28Z</time>
      </trkpt>
      <trkpt lat="48.8654" lon="7.31223">
        <ele>362.2</ele>
        <time>2020-09-24T11:08:32Z</time>
      </trkpt>
      <trkpt lat="48.86527" lon="7.3119">
        <ele>363.2</ele>
        <time>2020-09-24T11:08:39Z</time>
      </trkpt>
      <trkpt lat="48.86514" lon="7.31163">
        <ele>363.8</ele>
        <time>2020-09-24T11:08:45Z</time>
      </trkpt>
      <trkpt lat="48.86496" lon="7.31127">
        <ele>364.4</ele>
        <time>2020-09-24T11:08:52Z</time>
      </trkpt>
      <trkpt lat="48.86485" lon="7.31104">
        <ele>364.6</ele>
        <time>2020-09-24T11:08:56Z</time>
      </trkpt>
      <trkpt lat="48.86476" lon="7.31087">
        <ele>364.8</ele>
        <time>2020-09-24T11:08:59Z</time>
      </trkpt>
      <trkpt lat="48.86454" lon="7.31042">
        <ele>364.6</ele>
        <time>2020-09-24T11:09:06Z</time>
      </trkpt>
      <trkpt lat="48.86435" lon="7.30991">
        <ele>364.6</ele>
        <time>2020-09-24T11:09:14Z</time>
      </trkpt>
      <trkpt lat="48.86429" lon="7.30954">
        <ele>364.8</ele>
        <time>2020-09-24T11:09:20Z</time>
      </trkpt>
      <trkpt lat="48.86427" lon="7.30936">
        <ele>364.8</ele>
        <time>2020-09-24T11:09:23Z</time>
      </trkpt>
      <trkpt lat="48.86425" lon="7.30911">
        <ele>364.8</ele>
        <time>2020-09-24T11:09:27Z</time>
      </trkpt>
      <trkpt lat="48.86424" lon="7.30859">
        <ele>364.8</ele>
        <time>2020-09-24T11:09:35Z</time>
      </trkpt>
      <trkpt lat="48.86423" lon="7.30809">
        <ele>365</ele>
        <time>2020-09-24T11:09:43Z</time>
      </trkpt>
      <trkpt lat="48.86426" lon="7.30745">
        <ele>365.4</ele>
        <time>2020-09-24T11:09:53Z</time>
      </trkpt>
      <trkpt lat="48.86432" lon="7.30687">
        <ele>365.8</ele>
        <time>2020-09-24T11:10:02Z</time>
      </trkpt>
      <trkpt lat="48.86444" lon="7.30645">
        <ele>366.2</ele>
        <time>2020-09-24T11:10:09Z</time>
      </trkpt>
      <trkpt lat="48.8646" lon="7.306">
        <ele>366.6</ele>
        <time>2020-09-24T11:10:17Z</time>
      </trkpt>
      <trkpt lat="48.86472" lon="7.30557">
        <ele>367</ele>
        <time>2020-09-24T11:10:24Z</time>
      </trkpt>
      <trkpt lat="48.86472" lon="7.3055">
        <ele>367.2</ele>
        <time>2020-09-24T11:10:25Z</time>
      </trkpt>
      <trkpt lat="48.86478" lon="7.30504">
        <ele>367.4</ele>
        <time>2020-09-24T11:10:31Z</time>
      </trkpt>
      <trkpt lat="48.86479" lon="7.30496">
        <ele>367.4</ele>
        <time>2020-09-24T11:10:32Z</time>
      </trkpt>
      <trkpt lat="48.86484" lon="7.30457">
        <ele>367.6</ele>
        <time>2020-09-24T11:10:37Z</time>
      </trkpt>
      <trkpt lat="48.86491" lon="7.30401">
        <ele>367.8</ele>
        <time>2020-09-24T11:10:44Z</time>
      </trkpt>
      <trkpt lat="48.86492" lon="7.30368">
        <ele>368</ele>
        <time>2020-09-24T11:10:48Z</time>
      </trkpt>
      <trkpt lat="48.86492" lon="7.30352">
        <ele>368.2</ele>
        <time>2020-09-24T11:10:50Z</time>
      </trkpt>
      <trkpt lat="48.86493" lon="7.30313">
        <ele>368.4</ele>
        <time>2020-09-24T11:10:55Z</time>
      </trkpt>
      <trkpt lat="48.86493" lon="7.30305">
        <ele>368.4</ele>
        <time>2020-09-24T11:10:56Z</time>
      </trkpt>
      <trkpt lat="48.86491" lon="7.3026">
        <ele>368.6</ele>
        <time>2020-09-24T11:11:02Z</time>
      </trkpt>
      <trkpt lat="48.86484" lon="7.30203">
        <ele>368.8</ele>
        <time>2020-09-24T11:11:10Z</time>
      </trkpt>
      <trkpt lat="48.86476" lon="7.30146">
        <ele>369</ele>
        <time>2020-09-24T11:11:18Z</time>
      </trkpt>
      <trkpt lat="48.8647" lon="7.30104">
        <ele>369.2</ele>
        <time>2020-09-24T11:11:25Z</time>
      </trkpt>
      <trkpt lat="48.86466" lon="7.30081">
        <ele>369.4</ele>
        <time>2020-09-24T11:11:30Z</time>
      </trkpt>
      <trkpt lat="48.86464" lon="7.30067">
        <ele>369.6</ele>
        <time>2020-09-24T11:11:35Z</time>
      </trkpt>
      <trkpt lat="48.86464" lon="7.30067">
        <ele>369.8</ele>
        <time>2020-09-24T11:11:40Z</time>
      </trkpt>
      <trkpt lat="48.86464" lon="7.30067">
        <ele>370.4</ele>
        <time>2020-09-24T11:11:56Z</time>
      </trkpt>
      <trkpt lat="48.86464" lon="7.30067">
        <ele>370.6</ele>
        <time>2020-09-24T11:12:09Z</time>
      </trkpt>
      <trkpt lat="48.86464" lon="7.30067">
        <ele>371.2</ele>
        <time>2020-09-24T11:12:28Z</time>
      </trkpt>
      <trkpt lat="48.86464" lon="7.30067">
        <ele>371.4</ele>
        <time>2020-09-24T11:12:44Z</time>
      </trkpt>
      <trkpt lat="48.86464" lon="7.30067">
        <ele>371.6</ele>
        <time>2020-09-24T11:12:57Z</time>
      </trkpt>
      <trkpt lat="48.86464" lon="7.30067">
        <ele>371.8</ele>
        <time>2020-09-24T11:13:07Z</time>
      </trkpt>
      <trkpt lat="48.86464" lon="7.30067">
        <ele>372</ele>
        <time>2020-09-24T11:13:17Z</time>
      </trkpt>
      <trkpt lat="48.86464" lon="7.30063">
        <ele>372</ele>
        <time>2020-09-24T11:13:19Z</time>
      </trkpt>
      <trkpt lat="48.86463" lon="7.30057">
        <ele>372</ele>
        <time>2020-09-24T11:13:22Z</time>
      </trkpt>
      <trkpt lat="48.86459" lon="7.30033">
        <ele>372.4</ele>
        <time>2020-09-24T11:13:29Z</time>
      </trkpt>
      <trkpt lat="48.86456" lon="7.3001">
        <ele>372.6</ele>
        <time>2020-09-24T11:13:34Z</time>
      </trkpt>
      <trkpt lat="48.86453" lon="7.29984">
        <ele>372.8</ele>
        <time>2020-09-24T11:13:40Z</time>
      </trkpt>
      <trkpt lat="48.8645" lon="7.29965">
        <ele>373</ele>
        <time>2020-09-24T11:13:45Z</time>
      </trkpt>
      <trkpt lat="48.86449" lon="7.29953">
        <ele>373.2</ele>
        <time>2020-09-24T11:13:48Z</time>
      </trkpt>
      <trkpt lat="48.86448" lon="7.29949">
        <ele>373.2</ele>
        <time>2020-09-24T11:13:49Z</time>
      </trkpt>
      <trkpt lat="48.86446" lon="7.29934">
        <ele>373.6</ele>
        <time>2020-09-24T11:13:53Z</time>
      </trkpt>
      <trkpt lat="48.86443" lon="7.29907">
        <ele>374.2</ele>
        <time>2020-09-24T11:14:00Z</time>
      </trkpt>
      <trkpt lat="48.86442" lon="7.29903">
        <ele>374.4</ele>
        <time>2020-09-24T11:14:01Z</time>
      </trkpt>
      <trkpt lat="48.86441" lon="7.29895">
        <ele>374.6</ele>
        <time>2020-09-24T11:14:03Z</time>
      </trkpt>
      <trkpt lat="48.8644" lon="7.29886">
        <ele>374.6</ele>
        <time>2020-09-24T11:14:05Z</time>
      </trkpt>
      <trkpt lat="48.86439" lon="7.29878">
        <ele>374.8</ele>
        <time>2020-09-24T11:14:07Z</time>
      </trkpt>
      <trkpt lat="48.86435" lon="7.29853">
        <ele>375.2</ele>
        <time>2020-09-24T11:14:13Z</time>
      </trkpt>
      <trkpt lat="48.86432" lon="7.29834">
        <ele>375.6</ele>
        <time>2020-09-24T11:14:18Z</time>
      </trkpt>
      <trkpt lat="48.86427" lon="7.29807">
        <ele>376.4</ele>
        <time>2020-09-24T11:14:24Z</time>
      </trkpt>
      <trkpt lat="48.86421" lon="7.29778">
        <ele>377</ele>
        <time>2020-09-24T11:14:30Z</time>
      </trkpt>
      <trkpt lat="48.86413" lon="7.29733">
        <ele>377.4</ele>
        <time>2020-09-24T11:14:38Z</time>
      </trkpt>
      <trkpt lat="48.86408" lon="7.29705">
        <ele>377.8</ele>
        <time>2020-09-24T11:14:43Z</time>
      </trkpt>
      <trkpt lat="48.86406" lon="7.29692">
        <ele>378</ele>
        <time>2020-09-24T11:14:45Z</time>
      </trkpt>
      <trkpt lat="48.86401" lon="7.2967">
        <ele>378.2</ele>
        <time>2020-09-24T11:14:48Z</time>
      </trkpt>
      <trkpt lat="48.86397" lon="7.29619">
        <ele>378.6</ele>
        <time>2020-09-24T11:14:55Z</time>
      </trkpt>
      <trkpt lat="48.86397" lon="7.29561">
        <ele>379</ele>
        <time>2020-09-24T11:15:03Z</time>
      </trkpt>
      <trkpt lat="48.86402" lon="7.29497">
        <ele>379.4</ele>
        <time>2020-09-24T11:15:11Z</time>
      </trkpt>
      <trkpt lat="48.86408" lon="7.29417">
        <ele>379.8</ele>
        <time>2020-09-24T11:15:20Z</time>
      </trkpt>
      <trkpt lat="48.86413" lon="7.29351">
        <ele>380</ele>
        <time>2020-09-24T11:15:27Z</time>
      </trkpt>
      <trkpt lat="48.8642" lon="7.29273">
        <ele>380.6</ele>
        <time>2020-09-24T11:15:35Z</time>
      </trkpt>
      <trkpt lat="48.86431" lon="7.29218">
        <ele>380.8</ele>
        <time>2020-09-24T11:15:41Z</time>
      </trkpt>
      <trkpt lat="48.86445" lon="7.29151">
        <ele>381</ele>
        <time>2020-09-24T11:15:49Z</time>
      </trkpt>
      <trkpt lat="48.86462" lon="7.29069">
        <ele>381.8</ele>
        <time>2020-09-24T11:15:59Z</time>
      </trkpt>
      <trkpt lat="48.86475" lon="7.29004">
        <ele>382.4</ele>
        <time>2020-09-24T11:16:07Z</time>
      </trkpt>
      <trkpt lat="48.86492" lon="7.28925">
        <ele>383.2</ele>
        <time>2020-09-24T11:16:17Z</time>
      </trkpt>
      <trkpt lat="48.86503" lon="7.28861">
        <ele>384</ele>
        <time>2020-09-24T11:16:25Z</time>
      </trkpt>
      <trkpt lat="48.86512" lon="7.28802">
        <ele>384.4</ele>
        <time>2020-09-24T11:16:32Z</time>
      </trkpt>
      <trkpt lat="48.86521" lon="7.28743">
        <ele>384.8</ele>
        <time>2020-09-24T11:16:39Z</time>
      </trkpt>
      <trkpt lat="48.86528" lon="7.28682">
        <ele>385.4</ele>
        <time>2020-09-24T11:16:46Z</time>
      </trkpt>
      <trkpt lat="48.86532" lon="7.28629">
        <ele>385.8</ele>
        <time>2020-09-24T11:16:52Z</time>
      </trkpt>
      <trkpt lat="48.86531" lon="7.28565">
        <ele>386</ele>
        <time>2020-09-24T11:16:59Z</time>
      </trkpt>
      <trkpt lat="48.86531" lon="7.28556">
        <ele>386.2</ele>
        <time>2020-09-24T11:17:00Z</time>
      </trkpt>
      <trkpt lat="48.86531" lon="7.28495">
        <ele>386.2</ele>
        <time>2020-09-24T11:17:07Z</time>
      </trkpt>
      <trkpt lat="48.86531" lon="7.28434">
        <ele>386.2</ele>
        <time>2020-09-24T11:17:14Z</time>
      </trkpt>
      <trkpt lat="48.8653" lon="7.28397">
        <ele>386.2</ele>
        <time>2020-09-24T11:17:18Z</time>
      </trkpt>
      <trkpt lat="48.86531" lon="7.28338">
        <ele>386</ele>
        <time>2020-09-24T11:17:24Z</time>
      </trkpt>
      <trkpt lat="48.86532" lon="7.28329">
        <ele>385.8</ele>
        <time>2020-09-24T11:17:25Z</time>
      </trkpt>
      <trkpt lat="48.86536" lon="7.28288">
        <ele>385.6</ele>
        <time>2020-09-24T11:17:29Z</time>
      </trkpt>
      <trkpt lat="48.86549" lon="7.2824">
        <ele>385.4</ele>
        <time>2020-09-24T11:17:34Z</time>
      </trkpt>
      <trkpt lat="48.86565" lon="7.28199">
        <ele>384.8</ele>
        <time>2020-09-24T11:17:39Z</time>
      </trkpt>
      <trkpt lat="48.8659" lon="7.28148">
        <ele>384.4</ele>
        <time>2020-09-24T11:17:46Z</time>
      </trkpt>
      <trkpt lat="48.86612" lon="7.28102">
        <ele>384</ele>
        <time>2020-09-24T11:17:52Z</time>
      </trkpt>
      <trkpt lat="48.86616" lon="7.28094">
        <ele>384</ele>
        <time>2020-09-24T11:17:53Z</time>
      </trkpt>
      <trkpt lat="48.86649" lon="7.28028">
        <ele>383.4</ele>
        <time>2020-09-24T11:18:01Z</time>
      </trkpt>
      <trkpt lat="48.86654" lon="7.28019">
        <ele>383.4</ele>
        <time>2020-09-24T11:18:02Z</time>
      </trkpt>
      <trkpt lat="48.86683" lon="7.27962">
        <ele>382.6</ele>
        <time>2020-09-24T11:18:08Z</time>
      </trkpt>
      <trkpt lat="48.86714" lon="7.27903">
        <ele>382</ele>
        <time>2020-09-24T11:18:14Z</time>
      </trkpt>
      <trkpt lat="48.86719" lon="7.27893">
        <ele>381.8</ele>
        <time>2020-09-24T11:18:15Z</time>
      </trkpt>
      <trkpt lat="48.86754" lon="7.27827">
        <ele>381.4</ele>
        <time>2020-09-24T11:18:22Z</time>
      </trkpt>
      <trkpt lat="48.86768" lon="7.27799">
        <ele>381.2</ele>
        <time>2020-09-24T11:18:25Z</time>
      </trkpt>
      <trkpt lat="48.86796" lon="7.27738">
        <ele>381</ele>
        <time>2020-09-24T11:18:32Z</time>
      </trkpt>
      <trkpt lat="48.8681" lon="7.27692">
        <ele>380.8</ele>
        <time>2020-09-24T11:18:38Z</time>
      </trkpt>
      <trkpt lat="48.86832" lon="7.27616">
        <ele>380.6</ele>
        <time>2020-09-24T11:18:48Z</time>
      </trkpt>
      <trkpt lat="48.86849" lon="7.27557">
        <ele>380.6</ele>
        <time>2020-09-24T11:18:56Z</time>
      </trkpt>
      <trkpt lat="48.86856" lon="7.27535">
        <ele>380.6</ele>
        <time>2020-09-24T11:18:59Z</time>
      </trkpt>
      <trkpt lat="48.86858" lon="7.27521">
        <ele>380.6</ele>
        <time>2020-09-24T11:19:01Z</time>
      </trkpt>
      <trkpt lat="48.86871" lon="7.2746">
        <ele>380.4</ele>
        <time>2020-09-24T11:19:09Z</time>
      </trkpt>
      <trkpt lat="48.86882" lon="7.27405">
        <ele>380.4</ele>
        <time>2020-09-24T11:19:16Z</time>
      </trkpt>
      <trkpt lat="48.86894" lon="7.27353">
        <ele>380.2</ele>
        <time>2020-09-24T11:19:23Z</time>
      </trkpt>
      <trkpt lat="48.86909" lon="7.27282">
        <ele>380</ele>
        <time>2020-09-24T11:19:32Z</time>
      </trkpt>
      <trkpt lat="48.86913" lon="7.27214">
        <ele>379.6</ele>
        <time>2020-09-24T11:19:40Z</time>
      </trkpt>
      <trkpt lat="48.86913" lon="7.27206">
        <ele>379.4</ele>
        <time>2020-09-24T11:19:41Z</time>
      </trkpt>
      <trkpt lat="48.86915" lon="7.27173">
        <ele>379.2</ele>
        <time>2020-09-24T11:19:45Z</time>
      </trkpt>
      <trkpt lat="48.86918" lon="7.27102">
        <ele>378.6</ele>
        <time>2020-09-24T11:19:53Z</time>
      </trkpt>
      <trkpt lat="48.86917" lon="7.27018">
        <ele>378</ele>
        <time>2020-09-24T11:20:02Z</time>
      </trkpt>
      <trkpt lat="48.86917" lon="7.27008">
        <ele>377.8</ele>
        <time>2020-09-24T11:20:03Z</time>
      </trkpt>
      <trkpt lat="48.86916" lon="7.2695">
        <ele>377.2</ele>
        <time>2020-09-24T11:20:09Z</time>
      </trkpt>
      <trkpt lat="48.86913" lon="7.26877">
        <ele>376.4</ele>
        <time>2020-09-24T11:20:17Z</time>
      </trkpt>
      <trkpt lat="48.86907" lon="7.268">
        <ele>375.4</ele>
        <time>2020-09-24T11:20:25Z</time>
      </trkpt>
      <trkpt lat="48.86897" lon="7.26718">
        <ele>374.4</ele>
        <time>2020-09-24T11:20:33Z</time>
      </trkpt>
      <trkpt lat="48.86887" lon="7.26661">
        <ele>373.6</ele>
        <time>2020-09-24T11:20:39Z</time>
      </trkpt>
      <trkpt lat="48.86873" lon="7.26582">
        <ele>372.6</ele>
        <time>2020-09-24T11:20:47Z</time>
      </trkpt>
      <trkpt lat="48.86856" lon="7.26506">
        <ele>371.8</ele>
        <time>2020-09-24T11:20:55Z</time>
      </trkpt>
      <trkpt lat="48.86835" lon="7.26434">
        <ele>371</ele>
        <time>2020-09-24T11:21:03Z</time>
      </trkpt>
      <trkpt lat="48.86817" lon="7.26385">
        <ele>370.6</ele>
        <time>2020-09-24T11:21:09Z</time>
      </trkpt>
      <trkpt lat="48.86814" lon="7.26377">
        <ele>370.4</ele>
        <time>2020-09-24T11:21:10Z</time>
      </trkpt>
      <trkpt lat="48.86787" lon="7.26322">
        <ele>370</ele>
        <time>2020-09-24T11:21:18Z</time>
      </trkpt>
      <trkpt lat="48.86768" lon="7.26286">
        <ele>369.8</ele>
        <time>2020-09-24T11:21:24Z</time>
      </trkpt>
      <trkpt lat="48.86754" lon="7.26259">
        <ele>369.8</ele>
        <time>2020-09-24T11:21:30Z</time>
      </trkpt>
      <trkpt lat="48.86739" lon="7.2623">
        <ele>369.4</ele>
        <time>2020-09-24T11:21:37Z</time>
      </trkpt>
      <trkpt lat="48.86724" lon="7.26205">
        <ele>370.4</ele>
        <time>2020-09-24T11:21:43Z</time>
      </trkpt>
      <trkpt lat="48.86705" lon="7.26172">
        <ele>370.2</ele>
        <time>2020-09-24T11:21:50Z</time>
      </trkpt>
      <trkpt lat="48.8668" lon="7.26127">
        <ele>370.2</ele>
        <time>2020-09-24T11:21:58Z</time>
      </trkpt>
      <trkpt lat="48.8666" lon="7.26089">
        <ele>370.4</ele>
        <time>2020-09-24T11:22:04Z</time>
      </trkpt>
      <trkpt lat="48.86637" lon="7.26042">
        <ele>370.4</ele>
        <time>2020-09-24T11:22:11Z</time>
      </trkpt>
      <trkpt lat="48.86616" lon="7.25981">
        <ele>370.4</ele>
        <time>2020-09-24T11:22:19Z</time>
      </trkpt>
      <trkpt lat="48.86595" lon="7.25903">
        <ele>370</ele>
        <time>2020-09-24T11:22:28Z</time>
      </trkpt>
      <trkpt lat="48.86592" lon="7.25894">
        <ele>370</ele>
        <time>2020-09-24T11:22:29Z</time>
      </trkpt>
      <trkpt lat="48.86569" lon="7.25812">
        <ele>369.6</ele>
        <time>2020-09-24T11:22:38Z</time>
      </trkpt>
      <trkpt lat="48.86567" lon="7.25803">
        <ele>369.6</ele>
        <time>2020-09-24T11:22:39Z</time>
      </trkpt>
      <trkpt lat="48.86544" lon="7.25719">
        <ele>368.8</ele>
        <time>2020-09-24T11:22:48Z</time>
      </trkpt>
      <trkpt lat="48.86538" lon="7.2566">
        <ele>368.4</ele>
        <time>2020-09-24T11:22:54Z</time>
      </trkpt>
      <trkpt lat="48.86535" lon="7.25577">
        <ele>367.6</ele>
        <time>2020-09-24T11:23:02Z</time>
      </trkpt>
      <trkpt lat="48.86539" lon="7.25496">
        <ele>366.8</ele>
        <time>2020-09-24T11:23:10Z</time>
      </trkpt>
      <trkpt lat="48.86549" lon="7.25422">
        <ele>366.2</ele>
        <time>2020-09-24T11:23:17Z</time>
      </trkpt>
      <trkpt lat="48.86568" lon="7.25351">
        <ele>365.4</ele>
        <time>2020-09-24T11:23:24Z</time>
      </trkpt>
      <trkpt lat="48.86585" lon="7.25293">
        <ele>364.8</ele>
        <time>2020-09-24T11:23:30Z</time>
      </trkpt>
      <trkpt lat="48.86606" lon="7.25227">
        <ele>364</ele>
        <time>2020-09-24T11:23:38Z</time>
      </trkpt>
      <trkpt lat="48.86628" lon="7.25155">
        <ele>363.2</ele>
        <time>2020-09-24T11:23:45Z</time>
      </trkpt>
      <trkpt lat="48.86651" lon="7.25083">
        <ele>362.4</ele>
        <time>2020-09-24T11:23:53Z</time>
      </trkpt>
      <trkpt lat="48.86665" lon="7.25036">
        <ele>362.2</ele>
        <time>2020-09-24T11:23:58Z</time>
      </trkpt>
      <trkpt lat="48.86671" lon="7.25018">
        <ele>362</ele>
        <time>2020-09-24T11:24:00Z</time>
      </trkpt>
      <trkpt lat="48.86695" lon="7.24941">
        <ele>361.4</ele>
        <time>2020-09-24T11:24:08Z</time>
      </trkpt>
      <trkpt lat="48.86719" lon="7.24864">
        <ele>360.6</ele>
        <time>2020-09-24T11:24:16Z</time>
      </trkpt>
      <trkpt lat="48.86722" lon="7.24854">
        <ele>360.6</ele>
        <time>2020-09-24T11:24:17Z</time>
      </trkpt>
      <trkpt lat="48.86747" lon="7.24775">
        <ele>359.6</ele>
        <time>2020-09-24T11:24:25Z</time>
      </trkpt>
      <trkpt lat="48.86772" lon="7.24693">
        <ele>358.8</ele>
        <time>2020-09-24T11:24:33Z</time>
      </trkpt>
      <trkpt lat="48.86797" lon="7.24614">
        <ele>358</ele>
        <time>2020-09-24T11:24:40Z</time>
      </trkpt>
      <trkpt lat="48.86805" lon="7.2459">
        <ele>357.6</ele>
        <time>2020-09-24T11:24:42Z</time>
      </trkpt>
      <trkpt lat="48.86829" lon="7.24512">
        <ele>356.2</ele>
        <time>2020-09-24T11:24:48Z</time>
      </trkpt>
      <trkpt lat="48.86833" lon="7.24499">
        <ele>356</ele>
        <time>2020-09-24T11:24:49Z</time>
      </trkpt>
      <trkpt lat="48.86863" lon="7.24419">
        <ele>354.2</ele>
        <time>2020-09-24T11:24:55Z</time>
      </trkpt>
      <trkpt lat="48.86873" lon="7.24391">
        <ele>353.6</ele>
        <time>2020-09-24T11:24:57Z</time>
      </trkpt>
      <trkpt lat="48.869" lon="7.24328">
        <ele>352</ele>
        <time>2020-09-24T11:25:02Z</time>
      </trkpt>
      <trkpt lat="48.86926" lon="7.24289">
        <ele>351.2</ele>
        <time>2020-09-24T11:25:06Z</time>
      </trkpt>
      <trkpt lat="48.8695" lon="7.24251">
        <ele>350.6</ele>
        <time>2020-09-24T11:25:10Z</time>
      </trkpt>
      <trkpt lat="48.86957" lon="7.24239">
        <ele>350.4</ele>
        <time>2020-09-24T11:25:11Z</time>
      </trkpt>
      <trkpt lat="48.8697" lon="7.24237">
        <ele>350</ele>
        <time>2020-09-24T11:25:13Z</time>
      </trkpt>
      <trkpt lat="48.86988" lon="7.2422">
        <ele>349.4</ele>
        <time>2020-09-24T11:25:16Z</time>
      </trkpt>
      <trkpt lat="48.87019" lon="7.2419">
        <ele>348.4</ele>
        <time>2020-09-24T11:25:22Z</time>
      </trkpt>
      <trkpt lat="48.87053" lon="7.24154">
        <ele>347.4</ele>
        <time>2020-09-24T11:25:29Z</time>
      </trkpt>
      <trkpt lat="48.87057" lon="7.24149">
        <ele>347.2</ele>
        <time>2020-09-24T11:25:30Z</time>
      </trkpt>
      <trkpt lat="48.87067" lon="7.2413">
        <ele>346.8</ele>
        <time>2020-09-24T11:25:33Z</time>
      </trkpt>
      <trkpt lat="48.87076" lon="7.24112">
        <ele>346.4</ele>
        <time>2020-09-24T11:25:36Z</time>
      </trkpt>
      <trkpt lat="48.87093" lon="7.24057">
        <ele>345.4</ele>
        <time>2020-09-24T11:25:44Z</time>
      </trkpt>
      <trkpt lat="48.87108" lon="7.24008">
        <ele>344.8</ele>
        <time>2020-09-24T11:25:51Z</time>
      </trkpt>
      <trkpt lat="48.87122" lon="7.23962">
        <ele>344</ele>
        <time>2020-09-24T11:25:58Z</time>
      </trkpt>
      <trkpt lat="48.87128" lon="7.23943">
        <ele>343.6</ele>
        <time>2020-09-24T11:26:01Z</time>
      </trkpt>
      <trkpt lat="48.87134" lon="7.23922">
        <ele>343.2</ele>
        <time>2020-09-24T11:26:04Z</time>
      </trkpt>
      <trkpt lat="48.87152" lon="7.23868">
        <ele>342</ele>
        <time>2020-09-24T11:26:11Z</time>
      </trkpt>
      <trkpt lat="48.87174" lon="7.23812">
        <ele>341</ele>
        <time>2020-09-24T11:26:17Z</time>
      </trkpt>
      <trkpt lat="48.87202" lon="7.23756">
        <ele>339.8</ele>
        <time>2020-09-24T11:26:23Z</time>
      </trkpt>
      <trkpt lat="48.87241" lon="7.23696">
        <ele>338.4</ele>
        <time>2020-09-24T11:26:30Z</time>
      </trkpt>
      <trkpt lat="48.87246" lon="7.23687">
        <ele>338.2</ele>
        <time>2020-09-24T11:26:31Z</time>
      </trkpt>
      <trkpt lat="48.87287" lon="7.23624">
        <ele>337</ele>
        <time>2020-09-24T11:26:39Z</time>
      </trkpt>
      <trkpt lat="48.87328" lon="7.2357">
        <ele>336</ele>
        <time>2020-09-24T11:26:47Z</time>
      </trkpt>
      <trkpt lat="48.87358" lon="7.23531">
        <ele>335.2</ele>
        <time>2020-09-24T11:26:54Z</time>
      </trkpt>
      <trkpt lat="48.87385" lon="7.23498">
        <ele>334.6</ele>
        <time>2020-09-24T11:27:01Z</time>
      </trkpt>
      <trkpt lat="48.87408" lon="7.23468">
        <ele>334.2</ele>
        <time>2020-09-24T11:27:08Z</time>
      </trkpt>
      <trkpt lat="48.87411" lon="7.23464">
        <ele>334.2</ele>
        <time>2020-09-24T11:27:09Z</time>
      </trkpt>
      <trkpt lat="48.87431" lon="7.23439">
        <ele>333.6</ele>
        <time>2020-09-24T11:27:15Z</time>
      </trkpt>
      <trkpt lat="48.87437" lon="7.23431">
        <ele>333.6</ele>
        <time>2020-09-24T11:27:17Z</time>
      </trkpt>
      <trkpt lat="48.87453" lon="7.23411">
        <ele>333.4</ele>
        <time>2020-09-24T11:27:22Z</time>
      </trkpt>
      <trkpt lat="48.87476" lon="7.23366">
        <ele>333.6</ele>
        <time>2020-09-24T11:27:31Z</time>
      </trkpt>
      <trkpt lat="48.87496" lon="7.23321">
        <ele>333.8</ele>
        <time>2020-09-24T11:27:40Z</time>
      </trkpt>
      <trkpt lat="48.87522" lon="7.23263">
        <ele>333.8</ele>
        <time>2020-09-24T11:27:51Z</time>
      </trkpt>
      <trkpt lat="48.87532" lon="7.23241">
        <ele>334</ele>
        <time>2020-09-24T11:27:55Z</time>
      </trkpt>
      <trkpt lat="48.87537" lon="7.2323">
        <ele>334</ele>
        <time>2020-09-24T11:27:57Z</time>
      </trkpt>
      <trkpt lat="48.87542" lon="7.23219">
        <ele>334</ele>
        <time>2020-09-24T11:27:59Z</time>
      </trkpt>
      <trkpt lat="48.87565" lon="7.2317">
        <ele>334.2</ele>
        <time>2020-09-24T11:28:08Z</time>
      </trkpt>
      <trkpt lat="48.87584" lon="7.23126">
        <ele>334.4</ele>
        <time>2020-09-24T11:28:16Z</time>
      </trkpt>
      <trkpt lat="48.8761" lon="7.23067">
        <ele>334.8</ele>
        <time>2020-09-24T11:28:27Z</time>
      </trkpt>
      <trkpt lat="48.87632" lon="7.23017">
        <ele>335</ele>
        <time>2020-09-24T11:28:36Z</time>
      </trkpt>
      <trkpt lat="48.87654" lon="7.22968">
        <ele>335.4</ele>
        <time>2020-09-24T11:28:45Z</time>
      </trkpt>
      <trkpt lat="48.87678" lon="7.22912">
        <ele>335.6</ele>
        <time>2020-09-24T11:28:55Z</time>
      </trkpt>
      <trkpt lat="48.87683" lon="7.22901">
        <ele>335.8</ele>
        <time>2020-09-24T11:28:57Z</time>
      </trkpt>
      <trkpt lat="48.87691" lon="7.22884">
        <ele>335.8</ele>
        <time>2020-09-24T11:29:00Z</time>
      </trkpt>
      <trkpt lat="48.87714" lon="7.22829">
        <ele>335.8</ele>
        <time>2020-09-24T11:29:09Z</time>
      </trkpt>
      <trkpt lat="48.87736" lon="7.22783">
        <ele>335.8</ele>
        <time>2020-09-24T11:29:16Z</time>
      </trkpt>
      <trkpt lat="48.87755" lon="7.22741">
        <ele>335.6</ele>
        <time>2020-09-24T11:29:22Z</time>
      </trkpt>
      <trkpt lat="48.87777" lon="7.22695">
        <ele>335.2</ele>
        <time>2020-09-24T11:29:29Z</time>
      </trkpt>
      <trkpt lat="48.87801" lon="7.2265">
        <ele>334.6</ele>
        <time>2020-09-24T11:29:35Z</time>
      </trkpt>
      <trkpt lat="48.87824" lon="7.22607">
        <ele>334</ele>
        <time>2020-09-24T11:29:40Z</time>
      </trkpt>
      <trkpt lat="48.8786" lon="7.22542">
        <ele>332.8</ele>
        <time>2020-09-24T11:29:47Z</time>
      </trkpt>
      <trkpt lat="48.87877" lon="7.22502">
        <ele>332.2</ele>
        <time>2020-09-24T11:29:51Z</time>
      </trkpt>
      <trkpt lat="48.87879" lon="7.22491">
        <ele>332</ele>
        <time>2020-09-24T11:29:52Z</time>
      </trkpt>
      <trkpt lat="48.8788" lon="7.22479">
        <ele>332</ele>
        <time>2020-09-24T11:29:53Z</time>
      </trkpt>
      <trkpt lat="48.87883" lon="7.22444">
        <ele>331.4</ele>
        <time>2020-09-24T11:29:56Z</time>
      </trkpt>
      <trkpt lat="48.87882" lon="7.22376">
        <ele>330.4</ele>
        <time>2020-09-24T11:30:02Z</time>
      </trkpt>
      <trkpt lat="48.87881" lon="7.22365">
        <ele>330.2</ele>
        <time>2020-09-24T11:30:03Z</time>
      </trkpt>
      <trkpt lat="48.87875" lon="7.22322">
        <ele>329.4</ele>
        <time>2020-09-24T11:30:07Z</time>
      </trkpt>
      <trkpt lat="48.87873" lon="7.223">
        <ele>329</ele>
        <time>2020-09-24T11:30:09Z</time>
      </trkpt>
      <trkpt lat="48.87865" lon="7.22241">
        <ele>327.8</ele>
        <time>2020-09-24T11:30:14Z</time>
      </trkpt>
      <trkpt lat="48.87865" lon="7.22229">
        <ele>327.4</ele>
        <time>2020-09-24T11:30:15Z</time>
      </trkpt>
      <trkpt lat="48.87868" lon="7.22204">
        <ele>327</ele>
        <time>2020-09-24T11:30:17Z</time>
      </trkpt>
      <trkpt lat="48.87878" lon="7.22185">
        <ele>326.4</ele>
        <time>2020-09-24T11:30:19Z</time>
      </trkpt>
      <trkpt lat="48.87884" lon="7.22175">
        <ele>326.2</ele>
        <time>2020-09-24T11:30:20Z</time>
      </trkpt>
      <trkpt lat="48.87884" lon="7.22175">
        <ele>326</ele>
        <time>2020-09-24T11:30:21Z</time>
      </trkpt>
      <trkpt lat="48.87913" lon="7.22147">
        <ele>325.2</ele>
        <time>2020-09-24T11:30:24Z</time>
      </trkpt>
      <trkpt lat="48.87935" lon="7.22118">
        <ele>324.4</ele>
        <time>2020-09-24T11:30:28Z</time>
      </trkpt>
      <trkpt lat="48.87955" lon="7.22066">
        <ele>323.2</ele>
        <time>2020-09-24T11:30:34Z</time>
      </trkpt>
      <trkpt lat="48.8798" lon="7.22">
        <ele>321.8</ele>
        <time>2020-09-24T11:30:42Z</time>
      </trkpt>
      <trkpt lat="48.87984" lon="7.21993">
        <ele>321.6</ele>
        <time>2020-09-24T11:30:43Z</time>
      </trkpt>
      <trkpt lat="48.87993" lon="7.21985">
        <ele>321.4</ele>
        <time>2020-09-24T11:30:45Z</time>
      </trkpt>
      <trkpt lat="48.87998" lon="7.21983">
        <ele>321.2</ele>
        <time>2020-09-24T11:30:46Z</time>
      </trkpt>
      <trkpt lat="48.88002" lon="7.21981">
        <ele>321.2</ele>
        <time>2020-09-24T11:30:47Z</time>
      </trkpt>
      <trkpt lat="48.88019" lon="7.21975">
        <ele>320.8</ele>
        <time>2020-09-24T11:30:51Z</time>
      </trkpt>
      <trkpt lat="48.88041" lon="7.21981">
        <ele>320.6</ele>
        <time>2020-09-24T11:30:57Z</time>
      </trkpt>
      <trkpt lat="48.88074" lon="7.21995">
        <ele>320</ele>
        <time>2020-09-24T11:31:05Z</time>
      </trkpt>
      <trkpt lat="48.88082" lon="7.21995">
        <ele>319.8</ele>
        <time>2020-09-24T11:31:07Z</time>
      </trkpt>
      <trkpt lat="48.8809" lon="7.21991">
        <ele>319.6</ele>
        <time>2020-09-24T11:31:09Z</time>
      </trkpt>
      <trkpt lat="48.88099" lon="7.21985">
        <ele>319.6</ele>
        <time>2020-09-24T11:31:11Z</time>
      </trkpt>
      <trkpt lat="48.88107" lon="7.21981">
        <ele>319.4</ele>
        <time>2020-09-24T11:31:13Z</time>
      </trkpt>
      <trkpt lat="48.88126" lon="7.21964">
        <ele>319.4</ele>
        <time>2020-09-24T11:31:18Z</time>
      </trkpt>
      <trkpt lat="48.88129" lon="7.2196">
        <ele>319.4</ele>
        <time>2020-09-24T11:31:19Z</time>
      </trkpt>
      <trkpt lat="48.88143" lon="7.21944">
        <ele>319.2</ele>
        <time>2020-09-24T11:31:23Z</time>
      </trkpt>
      <trkpt lat="48.88153" lon="7.21933">
        <ele>319</ele>
        <time>2020-09-24T11:31:26Z</time>
      </trkpt>
      <trkpt lat="48.88167" lon="7.21917">
        <ele>318.8</ele>
        <time>2020-09-24T11:31:30Z</time>
      </trkpt>
      <trkpt lat="48.88174" lon="7.21909">
        <ele>318.6</ele>
        <time>2020-09-24T11:31:32Z</time>
      </trkpt>
      <trkpt lat="48.88181" lon="7.21901">
        <ele>318.6</ele>
        <time>2020-09-24T11:31:34Z</time>
      </trkpt>
      <trkpt lat="48.882" lon="7.2188">
        <ele>318.4</ele>
        <time>2020-09-24T11:31:39Z</time>
      </trkpt>
      <trkpt lat="48.88208" lon="7.2187">
        <ele>318.4</ele>
        <time>2020-09-24T11:31:41Z</time>
      </trkpt>
      <trkpt lat="48.88233" lon="7.21833">
        <ele>317.8</ele>
        <time>2020-09-24T11:31:48Z</time>
      </trkpt>
      <trkpt lat="48.88246" lon="7.21806">
        <ele>317.4</ele>
        <time>2020-09-24T11:31:52Z</time>
      </trkpt>
      <trkpt lat="48.88249" lon="7.2179">
        <ele>317.2</ele>
        <time>2020-09-24T11:31:54Z</time>
      </trkpt>
      <trkpt lat="48.88261" lon="7.21735">
        <ele>316.6</ele>
        <time>2020-09-24T11:32:01Z</time>
      </trkpt>
      <trkpt lat="48.88271" lon="7.21691">
        <ele>316.2</ele>
        <time>2020-09-24T11:32:07Z</time>
      </trkpt>
      <trkpt lat="48.88273" lon="7.21684">
        <ele>316</ele>
        <time>2020-09-24T11:32:08Z</time>
      </trkpt>
      <trkpt lat="48.88283" lon="7.21636">
        <ele>315.6</ele>
        <time>2020-09-24T11:32:14Z</time>
      </trkpt>
      <trkpt lat="48.88299" lon="7.21566">
        <ele>314.8</ele>
        <time>2020-09-24T11:32:23Z</time>
      </trkpt>
      <trkpt lat="48.88319" lon="7.21509">
        <ele>314</ele>
        <time>2020-09-24T11:32:30Z</time>
      </trkpt>
      <trkpt lat="48.88341" lon="7.2145">
        <ele>313</ele>
        <time>2020-09-24T11:32:37Z</time>
      </trkpt>
      <trkpt lat="48.88369" lon="7.21378">
        <ele>312</ele>
        <time>2020-09-24T11:32:45Z</time>
      </trkpt>
      <trkpt lat="48.88396" lon="7.21305">
        <ele>311</ele>
        <time>2020-09-24T11:32:53Z</time>
      </trkpt>
      <trkpt lat="48.88425" lon="7.21228">
        <ele>309.8</ele>
        <time>2020-09-24T11:33:01Z</time>
      </trkpt>
      <trkpt lat="48.88429" lon="7.2122">
        <ele>309.6</ele>
        <time>2020-09-24T11:33:02Z</time>
      </trkpt>
      <trkpt lat="48.88459" lon="7.21159">
        <ele>308.8</ele>
        <time>2020-09-24T11:33:09Z</time>
      </trkpt>
      <trkpt lat="48.88487" lon="7.21101">
        <ele>307.8</ele>
        <time>2020-09-24T11:33:16Z</time>
      </trkpt>
      <trkpt lat="48.8852" lon="7.21035">
        <ele>306.6</ele>
        <time>2020-09-24T11:33:24Z</time>
      </trkpt>
      <trkpt lat="48.8855" lon="7.20979">
        <ele>305.6</ele>
        <time>2020-09-24T11:33:31Z</time>
      </trkpt>
      <trkpt lat="48.88589" lon="7.20911">
        <ele>304.4</ele>
        <time>2020-09-24T11:33:40Z</time>
      </trkpt>
      <trkpt lat="48.88593" lon="7.20903">
        <ele>304.2</ele>
        <time>2020-09-24T11:33:41Z</time>
      </trkpt>
      <trkpt lat="48.88628" lon="7.20843">
        <ele>303.2</ele>
        <time>2020-09-24T11:33:49Z</time>
      </trkpt>
      <trkpt lat="48.88655" lon="7.20795">
        <ele>302.2</ele>
        <time>2020-09-24T11:33:55Z</time>
      </trkpt>
      <trkpt lat="48.88688" lon="7.20738">
        <ele>301.2</ele>
        <time>2020-09-24T11:34:02Z</time>
      </trkpt>
      <trkpt lat="48.887" lon="7.20714">
        <ele>300.8</ele>
        <time>2020-09-24T11:34:05Z</time>
      </trkpt>
      <trkpt lat="48.88715" lon="7.20683">
        <ele>300</ele>
        <time>2020-09-24T11:34:09Z</time>
      </trkpt>
      <trkpt lat="48.8873" lon="7.20651">
        <ele>299.4</ele>
        <time>2020-09-24T11:34:13Z</time>
      </trkpt>
      <trkpt lat="48.88737" lon="7.20637">
        <ele>299.2</ele>
        <time>2020-09-24T11:34:15Z</time>
      </trkpt>
      <trkpt lat="48.88752" lon="7.20639">
        <ele>298.6</ele>
        <time>2020-09-24T11:34:18Z</time>
      </trkpt>
      <trkpt lat="48.88752" lon="7.20642">
        <ele>297.8</ele>
        <time>2020-09-24T11:34:23Z</time>
      </trkpt>
      <trkpt lat="48.88752" lon="7.20642">
        <ele>296.8</ele>
        <time>2020-09-24T11:34:32Z</time>
      </trkpt>
      <trkpt lat="48.88752" lon="7.20642">
        <ele>295</ele>
        <time>2020-09-24T11:34:51Z</time>
      </trkpt>
      <trkpt lat="48.88752" lon="7.20642">
        <ele>293.6</ele>
        <time>2020-09-24T11:35:07Z</time>
      </trkpt>
      <trkpt lat="48.88752" lon="7.20642">
        <ele>292.8</ele>
        <time>2020-09-24T11:35:19Z</time>
      </trkpt>
      <trkpt lat="48.88753" lon="7.20643">
        <ele>291.6</ele>
        <time>2020-09-24T11:35:44Z</time>
      </trkpt>
      <trkpt lat="48.88753" lon="7.20643">
        <ele>290.8</ele>
        <time>2020-09-24T11:36:07Z</time>
      </trkpt>
      <trkpt lat="48.88753" lon="7.20643">
        <ele>290.4</ele>
        <time>2020-09-24T11:36:24Z</time>
      </trkpt>
      <trkpt lat="48.88753" lon="7.20643">
        <ele>290.2</ele>
        <time>2020-09-24T11:36:38Z</time>
      </trkpt>
      <trkpt lat="48.88753" lon="7.20643">
        <ele>289.8</ele>
        <time>2020-09-24T11:37:00Z</time>
      </trkpt>
      <trkpt lat="48.88753" lon="7.20643">
        <ele>289.6</ele>
        <time>2020-09-24T11:37:20Z</time>
      </trkpt>
      <trkpt lat="48.88753" lon="7.20643">
        <ele>289.2</ele>
        <time>2020-09-24T11:37:45Z</time>
      </trkpt>
      <trkpt lat="48.88753" lon="7.20643">
        <ele>289</ele>
        <time>2020-09-24T11:38:10Z</time>
      </trkpt>
      <trkpt lat="48.88753" lon="7.20643">
        <ele>288.8</ele>
        <time>2020-09-24T11:38:37Z</time>
      </trkpt>
      <trkpt lat="48.88753" lon="7.20643">
        <ele>288.8</ele>
        <time>2020-09-24T11:38:58Z</time>
      </trkpt>
      <trkpt lat="48.88753" lon="7.20643">
        <ele>288.8</ele>
        <time>2020-09-24T11:39:25Z</time>
      </trkpt>
      <trkpt lat="48.88754" lon="7.20643">
        <ele>288.8</ele>
        <time>2020-09-24T11:39:49Z</time>
      </trkpt>
      <trkpt lat="48.88754" lon="7.20643">
        <ele>288.8</ele>
        <time>2020-09-24T11:40:09Z</time>
      </trkpt>
      <trkpt lat="48.88753" lon="7.20642">
        <ele>289</ele>
        <time>2020-09-24T11:40:30Z</time>
      </trkpt>
      <trkpt lat="48.88753" lon="7.20642">
        <ele>289.2</ele>
        <time>2020-09-24T11:40:52Z</time>
      </trkpt>
      <trkpt lat="48.88752" lon="7.20641">
        <ele>289</ele>
        <time>2020-09-24T11:41:16Z</time>
      </trkpt>
      <trkpt lat="48.88752" lon="7.2064">
        <ele>289</ele>
        <time>2020-09-24T11:41:41Z</time>
      </trkpt>
      <trkpt lat="48.88752" lon="7.2064">
        <ele>289</ele>
        <time>2020-09-24T11:42:09Z</time>
      </trkpt>
      <trkpt lat="48.88751" lon="7.20641">
        <ele>289</ele>
        <time>2020-09-24T11:42:29Z</time>
      </trkpt>
      <trkpt lat="48.88751" lon="7.20641">
        <ele>289.2</ele>
        <time>2020-09-24T11:42:47Z</time>
      </trkpt>
      <trkpt lat="48.88751" lon="7.20641">
        <ele>289.2</ele>
        <time>2020-09-24T11:43:06Z</time>
      </trkpt>
      <trkpt lat="48.88751" lon="7.20641">
        <ele>289.4</ele>
        <time>2020-09-24T11:43:26Z</time>
      </trkpt>
      <trkpt lat="48.8875" lon="7.2064">
        <ele>289.4</ele>
        <time>2020-09-24T11:43:47Z</time>
      </trkpt>
      <trkpt lat="48.8875" lon="7.2064">
        <ele>289.4</ele>
        <time>2020-09-24T11:44:16Z</time>
      </trkpt>
      <trkpt lat="48.8875" lon="7.20639">
        <ele>289.8</ele>
        <time>2020-09-24T11:44:44Z</time>
      </trkpt>
      <trkpt lat="48.8875" lon="7.20638">
        <ele>290</ele>
        <time>2020-09-24T11:45:10Z</time>
      </trkpt>
      <trkpt lat="48.8875" lon="7.20638">
        <ele>290.2</ele>
        <time>2020-09-24T11:45:34Z</time>
      </trkpt>
      <trkpt lat="48.8875" lon="7.20638">
        <ele>290.2</ele>
        <time>2020-09-24T11:45:54Z</time>
      </trkpt>
      <trkpt lat="48.8875" lon="7.20638">
        <ele>290.4</ele>
        <time>2020-09-24T11:46:23Z</time>
      </trkpt>
      <trkpt lat="48.8875" lon="7.20638">
        <ele>290.6</ele>
        <time>2020-09-24T11:46:53Z</time>
      </trkpt>
      <trkpt lat="48.8875" lon="7.20639">
        <ele>291</ele>
        <time>2020-09-24T11:47:18Z</time>
      </trkpt>
      <trkpt lat="48.8875" lon="7.20639">
        <ele>291.4</ele>
        <time>2020-09-24T11:47:46Z</time>
      </trkpt>
      <trkpt lat="48.8875" lon="7.20639">
        <ele>291.6</ele>
        <time>2020-09-24T11:48:14Z</time>
      </trkpt>
      <trkpt lat="48.88751" lon="7.20639">
        <ele>292</ele>
        <time>2020-09-24T11:48:40Z</time>
      </trkpt>
      <trkpt lat="48.88751" lon="7.2064">
        <ele>292.2</ele>
        <time>2020-09-24T11:49:05Z</time>
      </trkpt>
      <trkpt lat="48.88751" lon="7.2064">
        <ele>292.4</ele>
        <time>2020-09-24T11:49:26Z</time>
      </trkpt>
      <trkpt lat="48.88751" lon="7.2064">
        <ele>292.4</ele>
        <time>2020-09-24T11:49:44Z</time>
      </trkpt>
      <trkpt lat="48.88751" lon="7.2064">
        <ele>292.4</ele>
        <time>2020-09-24T11:50:06Z</time>
      </trkpt>
      <trkpt lat="48.88751" lon="7.2064">
        <ele>292.4</ele>
        <time>2020-09-24T11:50:26Z</time>
      </trkpt>
      <trkpt lat="48.88751" lon="7.2064">
        <ele>292.4</ele>
        <time>2020-09-24T11:50:45Z</time>
      </trkpt>
      <trkpt lat="48.88751" lon="7.2064">
        <ele>292.6</ele>
        <time>2020-09-24T11:51:04Z</time>
      </trkpt>
      <trkpt lat="48.88751" lon="7.2064">
        <ele>292.6</ele>
        <time>2020-09-24T11:51:28Z</time>
      </trkpt>
      <trkpt lat="48.88751" lon="7.2064">
        <ele>292.8</ele>
        <time>2020-09-24T11:51:49Z</time>
      </trkpt>
      <trkpt lat="48.88751" lon="7.2064">
        <ele>292.8</ele>
        <time>2020-09-24T11:52:10Z</time>
      </trkpt>
      <trkpt lat="48.88752" lon="7.20641">
        <ele>293</ele>
        <time>2020-09-24T11:52:30Z</time>
      </trkpt>
      <trkpt lat="48.88752" lon="7.20641">
        <ele>293</ele>
        <time>2020-09-24T11:52:54Z</time>
      </trkpt>
      <trkpt lat="48.88752" lon="7.2064">
        <ele>293</ele>
        <time>2020-09-24T11:53:18Z</time>
      </trkpt>
      <trkpt lat="48.88752" lon="7.2064">
        <ele>293</ele>
        <time>2020-09-24T11:53:41Z</time>
      </trkpt>
      <trkpt lat="48.88752" lon="7.2064">
        <ele>292.8</ele>
        <time>2020-09-24T11:54:02Z</time>
      </trkpt>
      <trkpt lat="48.88752" lon="7.2064">
        <ele>292.8</ele>
        <time>2020-09-24T11:54:25Z</time>
      </trkpt>
      <trkpt lat="48.88752" lon="7.2064">
        <ele>292.8</ele>
        <time>2020-09-24T11:54:50Z</time>
      </trkpt>
      <trkpt lat="48.88752" lon="7.20639">
        <ele>292.8</ele>
        <time>2020-09-24T11:55:12Z</time>
      </trkpt>
      <trkpt lat="48.88752" lon="7.20639">
        <ele>292.6</ele>
        <time>2020-09-24T11:55:29Z</time>
      </trkpt>
      <trkpt lat="48.88752" lon="7.2064">
        <ele>292.8</ele>
        <time>2020-09-24T11:55:47Z</time>
      </trkpt>
      <trkpt lat="48.88752" lon="7.2064">
        <ele>292.8</ele>
        <time>2020-09-24T11:56:04Z</time>
      </trkpt>
      <trkpt lat="48.88752" lon="7.2064">
        <ele>292.8</ele>
        <time>2020-09-24T11:56:17Z</time>
      </trkpt>
      <trkpt lat="48.88751" lon="7.2064">
        <ele>292.8</ele>
        <time>2020-09-24T11:56:33Z</time>
      </trkpt>
      <trkpt lat="48.88751" lon="7.2064">
        <ele>292.8</ele>
        <time>2020-09-24T11:56:51Z</time>
      </trkpt>
      <trkpt lat="48.88751" lon="7.20641">
        <ele>292.6</ele>
        <time>2020-09-24T11:57:23Z</time>
      </trkpt>
      <trkpt lat="48.88751" lon="7.20641">
        <ele>292.6</ele>
        <time>2020-09-24T11:57:49Z</time>
      </trkpt>
      <trkpt lat="48.88751" lon="7.20641">
        <ele>292.6</ele>
        <time>2020-09-24T11:58:10Z</time>
      </trkpt>
      <trkpt lat="48.88751" lon="7.20641">
        <ele>292.4</ele>
        <time>2020-09-24T11:58:35Z</time>
      </trkpt>
      <trkpt lat="48.88751" lon="7.20641">
        <ele>292.4</ele>
        <time>2020-09-24T11:58:58Z</time>
      </trkpt>
      <trkpt lat="48.88751" lon="7.2064">
        <ele>292.4</ele>
        <time>2020-09-24T11:59:21Z</time>
      </trkpt>
      <trkpt lat="48.8875" lon="7.2064">
        <ele>292.4</ele>
        <time>2020-09-24T11:59:45Z</time>
      </trkpt>
      <trkpt lat="48.8875" lon="7.2064">
        <ele>292.4</ele>
        <time>2020-09-24T12:00:07Z</time>
      </trkpt>
      <trkpt lat="48.8875" lon="7.20641">
        <ele>292.4</ele>
        <time>2020-09-24T12:00:31Z</time>
      </trkpt>
      <trkpt lat="48.8875" lon="7.20641">
        <ele>292.4</ele>
        <time>2020-09-24T12:00:58Z</time>
      </trkpt>
      <trkpt lat="48.8875" lon="7.20641">
        <ele>292.2</ele>
        <time>2020-09-24T12:01:19Z</time>
      </trkpt>
      <trkpt lat="48.8875" lon="7.20641">
        <ele>292.2</ele>
        <time>2020-09-24T12:01:40Z</time>
      </trkpt>
      <trkpt lat="48.8875" lon="7.20641">
        <ele>292.2</ele>
        <time>2020-09-24T12:02:03Z</time>
      </trkpt>
      <trkpt lat="48.8875" lon="7.2064">
        <ele>292</ele>
        <time>2020-09-24T12:02:30Z</time>
      </trkpt>
      <trkpt lat="48.8875" lon="7.2064">
        <ele>292</ele>
        <time>2020-09-24T12:02:58Z</time>
      </trkpt>
      <trkpt lat="48.8875" lon="7.2064">
        <ele>291.8</ele>
        <time>2020-09-24T12:03:24Z</time>
      </trkpt>
      <trkpt lat="48.88751" lon="7.2064">
        <ele>291.6</ele>
        <time>2020-09-24T12:03:52Z</time>
      </trkpt>
      <trkpt lat="48.88751" lon="7.2064">
        <ele>291.6</ele>
        <time>2020-09-24T12:04:18Z</time>
      </trkpt>
      <trkpt lat="48.88751" lon="7.2064">
        <ele>291.6</ele>
        <time>2020-09-24T12:04:40Z</time>
      </trkpt>
      <trkpt lat="48.88751" lon="7.2064">
        <ele>291.6</ele>
        <time>2020-09-24T12:05:00Z</time>
      </trkpt>
      <trkpt lat="48.8875" lon="7.2064">
        <ele>291.6</ele>
        <time>2020-09-24T12:05:22Z</time>
      </trkpt>
      <trkpt lat="48.88751" lon="7.2064">
        <ele>291.6</ele>
        <time>2020-09-24T12:05:46Z</time>
      </trkpt>
      <trkpt lat="48.88751" lon="7.2064">
        <ele>291.6</ele>
        <time>2020-09-24T12:06:09Z</time>
      </trkpt>
      <trkpt lat="48.88751" lon="7.2064">
        <ele>291.6</ele>
        <time>2020-09-24T12:06:35Z</time>
      </trkpt>
      <trkpt lat="48.88751" lon="7.2064">
        <ele>291.4</ele>
        <time>2020-09-24T12:06:56Z</time>
      </trkpt>
      <trkpt lat="48.88751" lon="7.20639">
        <ele>291.2</ele>
        <time>2020-09-24T12:07:19Z</time>
      </trkpt>
      <trkpt lat="48.88751" lon="7.2064">
        <ele>291.2</ele>
        <time>2020-09-24T12:07:44Z</time>
      </trkpt>
      <trkpt lat="48.88751" lon="7.2064">
        <ele>291.2</ele>
        <time>2020-09-24T12:08:08Z</time>
      </trkpt>
      <trkpt lat="48.8875" lon="7.2064">
        <ele>291.2</ele>
        <time>2020-09-24T12:08:32Z</time>
      </trkpt>
      <trkpt lat="48.8875" lon="7.2064">
        <ele>291</ele>
        <time>2020-09-24T12:08:55Z</time>
      </trkpt>
      <trkpt lat="48.8875" lon="7.20641">
        <ele>290.8</ele>
        <time>2020-09-24T12:09:16Z</time>
      </trkpt>
      <trkpt lat="48.8875" lon="7.20641">
        <ele>290.8</ele>
        <time>2020-09-24T12:09:38Z</time>
      </trkpt>
      <trkpt lat="48.8875" lon="7.20641">
        <ele>290.6</ele>
        <time>2020-09-24T12:10:02Z</time>
      </trkpt>
      <trkpt lat="48.8875" lon="7.20641">
        <ele>290.4</ele>
        <time>2020-09-24T12:10:19Z</time>
      </trkpt>
      <trkpt lat="48.8875" lon="7.20642">
        <ele>290.2</ele>
        <time>2020-09-24T12:10:42Z</time>
      </trkpt>
      <trkpt lat="48.8875" lon="7.20642">
        <ele>290.2</ele>
        <time>2020-09-24T12:11:06Z</time>
      </trkpt>
      <trkpt lat="48.8875" lon="7.20642">
        <ele>290</ele>
        <time>2020-09-24T12:11:31Z</time>
      </trkpt>
      <trkpt lat="48.8875" lon="7.20642">
        <ele>289.8</ele>
        <time>2020-09-24T12:11:58Z</time>
      </trkpt>
      <trkpt lat="48.8875" lon="7.20642">
        <ele>289.8</ele>
        <time>2020-09-24T12:12:22Z</time>
      </trkpt>
      <trkpt lat="48.8875" lon="7.20642">
        <ele>289.8</ele>
        <time>2020-09-24T12:12:47Z</time>
      </trkpt>
      <trkpt lat="48.8875" lon="7.20641">
        <ele>289.8</ele>
        <time>2020-09-24T12:13:13Z</time>
      </trkpt>
      <trkpt lat="48.8875" lon="7.20641">
        <ele>290</ele>
        <time>2020-09-24T12:13:40Z</time>
      </trkpt>
      <trkpt lat="48.88749" lon="7.2064">
        <ele>289.8</ele>
        <time>2020-09-24T12:14:05Z</time>
      </trkpt>
      <trkpt lat="48.8875" lon="7.20641">
        <ele>289.8</ele>
        <time>2020-09-24T12:14:30Z</time>
      </trkpt>
      <trkpt lat="48.8875" lon="7.20641">
        <ele>289.8</ele>
        <time>2020-09-24T12:14:56Z</time>
      </trkpt>
      <trkpt lat="48.8875" lon="7.20641">
        <ele>289.8</ele>
        <time>2020-09-24T12:15:20Z</time>
      </trkpt>
      <trkpt lat="48.8875" lon="7.20641">
        <ele>289.8</ele>
        <time>2020-09-24T12:15:44Z</time>
      </trkpt>
      <trkpt lat="48.8875" lon="7.20641">
        <ele>289.8</ele>
        <time>2020-09-24T12:16:07Z</time>
      </trkpt>
      <trkpt lat="48.8875" lon="7.20641">
        <ele>290</ele>
        <time>2020-09-24T12:16:35Z</time>
      </trkpt>
      <trkpt lat="48.8875" lon="7.20642">
        <ele>290</ele>
        <time>2020-09-24T12:17:02Z</time>
      </trkpt>
      <trkpt lat="48.8875" lon="7.20642">
        <ele>290</ele>
        <time>2020-09-24T12:17:23Z</time>
      </trkpt>
      <trkpt lat="48.88751" lon="7.20641">
        <ele>290</ele>
        <time>2020-09-24T12:17:47Z</time>
      </trkpt>
      <trkpt lat="48.88751" lon="7.20641">
        <ele>290</ele>
        <time>2020-09-24T12:18:07Z</time>
      </trkpt>
      <trkpt lat="48.88751" lon="7.20641">
        <ele>290</ele>
        <time>2020-09-24T12:18:35Z</time>
      </trkpt>
      <trkpt lat="48.88751" lon="7.20641">
        <ele>290</ele>
        <time>2020-09-24T12:18:58Z</time>
      </trkpt>
      <trkpt lat="48.88751" lon="7.20642">
        <ele>290</ele>
        <time>2020-09-24T12:19:23Z</time>
      </trkpt>
      <trkpt lat="48.88751" lon="7.20642">
        <ele>290</ele>
        <time>2020-09-24T12:19:47Z</time>
      </trkpt>
      <trkpt lat="48.88751" lon="7.20642">
        <ele>290</ele>
        <time>2020-09-24T12:20:12Z</time>
      </trkpt>
      <trkpt lat="48.88751" lon="7.20642">
        <ele>290</ele>
        <time>2020-09-24T12:20:37Z</time>
      </trkpt>
      <trkpt lat="48.88751" lon="7.20641">
        <ele>290</ele>
        <time>2020-09-24T12:20:51Z</time>
      </trkpt>
      <trkpt lat="48.88751" lon="7.20641">
        <ele>289.8</ele>
        <time>2020-09-24T12:20:59Z</time>
      </trkpt>
      <trkpt lat="48.88751" lon="7.20641">
        <ele>289.8</ele>
        <time>2020-09-24T12:21:16Z</time>
      </trkpt>
      <trkpt lat="48.88751" lon="7.20641">
        <ele>289.8</ele>
        <time>2020-09-24T12:21:34Z</time>
      </trkpt>
      <trkpt lat="48.88751" lon="7.20641">
        <ele>289.6</ele>
        <time>2020-09-24T12:22:01Z</time>
      </trkpt>
      <trkpt lat="48.88751" lon="7.20641">
        <ele>289.6</ele>
        <time>2020-09-24T12:22:36Z</time>
      </trkpt>
      <trkpt lat="48.88751" lon="7.20641">
        <ele>289.4</ele>
        <time>2020-09-24T12:23:11Z</time>
      </trkpt>
      <trkpt lat="48.88751" lon="7.20641">
        <ele>289.2</ele>
        <time>2020-09-24T12:23:44Z</time>
      </trkpt>
      <trkpt lat="48.88751" lon="7.20641">
        <ele>289.2</ele>
        <time>2020-09-24T12:24:17Z</time>
      </trkpt>
      <trkpt lat="48.88751" lon="7.20641">
        <ele>288.8</ele>
        <time>2020-09-24T12:24:50Z</time>
      </trkpt>
      <trkpt lat="48.88751" lon="7.20641">
        <ele>288.6</ele>
        <time>2020-09-24T12:25:22Z</time>
      </trkpt>
      <trkpt lat="48.8875" lon="7.20641">
        <ele>288.4</ele>
        <time>2020-09-24T12:25:56Z</time>
      </trkpt>
      <trkpt lat="48.8875" lon="7.2064">
        <ele>288.2</ele>
        <time>2020-09-24T12:26:25Z</time>
      </trkpt>
      <trkpt lat="48.88751" lon="7.20641">
        <ele>288</ele>
        <time>2020-09-24T12:27:02Z</time>
      </trkpt>
      <trkpt lat="48.88751" lon="7.20641">
        <ele>287.8</ele>
        <time>2020-09-24T12:27:36Z</time>
      </trkpt>
      <trkpt lat="48.88751" lon="7.20642">
        <ele>287.8</ele>
        <time>2020-09-24T12:28:05Z</time>
      </trkpt>
      <trkpt lat="48.88751" lon="7.20641">
        <ele>287.8</ele>
        <time>2020-09-24T12:28:39Z</time>
      </trkpt>
      <trkpt lat="48.8875" lon="7.20641">
        <ele>287.8</ele>
        <time>2020-09-24T12:29:03Z</time>
      </trkpt>
      <trkpt lat="48.8875" lon="7.20641">
        <ele>287.8</ele>
        <time>2020-09-24T12:29:32Z</time>
      </trkpt>
      <trkpt lat="48.88751" lon="7.20642">
        <ele>287.6</ele>
        <time>2020-09-24T12:30:04Z</time>
      </trkpt>
      <trkpt lat="48.88751" lon="7.20642">
        <ele>287.4</ele>
        <time>2020-09-24T12:30:35Z</time>
      </trkpt>
      <trkpt lat="48.8875" lon="7.20641">
        <ele>287.2</ele>
        <time>2020-09-24T12:31:07Z</time>
      </trkpt>
      <trkpt lat="48.8875" lon="7.20641">
        <ele>287</ele>
        <time>2020-09-24T12:31:37Z</time>
      </trkpt>
      <trkpt lat="48.8875" lon="7.20642">
        <ele>287</ele>
        <time>2020-09-24T12:32:11Z</time>
      </trkpt>
      <trkpt lat="48.8875" lon="7.20642">
        <ele>287</ele>
        <time>2020-09-24T12:32:42Z</time>
      </trkpt>
      <trkpt lat="48.88751" lon="7.20643">
        <ele>287</ele>
        <time>2020-09-24T12:33:16Z</time>
      </trkpt>
      <trkpt lat="48.88751" lon="7.20643">
        <ele>287.2</ele>
        <time>2020-09-24T12:33:44Z</time>
      </trkpt>
      <trkpt lat="48.88751" lon="7.20643">
        <ele>287.2</ele>
        <time>2020-09-24T12:34:15Z</time>
      </trkpt>
      <trkpt lat="48.8875" lon="7.20642">
        <ele>287.8</ele>
        <time>2020-09-24T12:34:42Z</time>
      </trkpt>
      <trkpt lat="48.8875" lon="7.20642">
        <ele>288</ele>
        <time>2020-09-24T12:34:58Z</time>
      </trkpt>
      <trkpt lat="48.88751" lon="7.20641">
        <ele>288.4</ele>
        <time>2020-09-24T12:35:22Z</time>
      </trkpt>
      <trkpt lat="48.88751" lon="7.20641">
        <ele>288.8</ele>
        <time>2020-09-24T12:35:49Z</time>
      </trkpt>
      <trkpt lat="48.88751" lon="7.20641">
        <ele>289</ele>
        <time>2020-09-24T12:36:07Z</time>
      </trkpt>
      <trkpt lat="48.88751" lon="7.20642">
        <ele>289</ele>
        <time>2020-09-24T12:36:30Z</time>
      </trkpt>
      <trkpt lat="48.88751" lon="7.20642">
        <ele>289</ele>
        <time>2020-09-24T12:36:52Z</time>
      </trkpt>
      <trkpt lat="48.88751" lon="7.20642">
        <ele>289</ele>
        <time>2020-09-24T12:37:05Z</time>
      </trkpt>
      <trkpt lat="48.88751" lon="7.20642">
        <ele>289</ele>
        <time>2020-09-24T12:37:18Z</time>
      </trkpt>
      <trkpt lat="48.88751" lon="7.20642">
        <ele>288.8</ele>
        <time>2020-09-24T12:37:30Z</time>
      </trkpt>
      <trkpt lat="48.8875" lon="7.20642">
        <ele>288.6</ele>
        <time>2020-09-24T12:37:50Z</time>
      </trkpt>
      <trkpt lat="48.8875" lon="7.20642">
        <ele>288.4</ele>
        <time>2020-09-24T12:38:11Z</time>
      </trkpt>
      <trkpt lat="48.88751" lon="7.20642">
        <ele>288.2</ele>
        <time>2020-09-24T12:38:34Z</time>
      </trkpt>
      <trkpt lat="48.88751" lon="7.20642">
        <ele>288.2</ele>
        <time>2020-09-24T12:38:58Z</time>
      </trkpt>
      <trkpt lat="48.8875" lon="7.20642">
        <ele>288</ele>
        <time>2020-09-24T12:39:24Z</time>
      </trkpt>
      <trkpt lat="48.8875" lon="7.20642">
        <ele>287.8</ele>
        <time>2020-09-24T12:39:49Z</time>
      </trkpt>
      <trkpt lat="48.8875" lon="7.20642">
        <ele>287.8</ele>
        <time>2020-09-24T12:40:11Z</time>
      </trkpt>
      <trkpt lat="48.8875" lon="7.20642">
        <ele>287.6</ele>
        <time>2020-09-24T12:40:37Z</time>
      </trkpt>
      <trkpt lat="48.8875" lon="7.20642">
        <ele>287.6</ele>
        <time>2020-09-24T12:40:52Z</time>
      </trkpt>
      <trkpt lat="48.8875" lon="7.20641">
        <ele>287.6</ele>
        <time>2020-09-24T12:41:13Z</time>
      </trkpt>
      <trkpt lat="48.8875" lon="7.20641">
        <ele>287.6</ele>
        <time>2020-09-24T12:41:31Z</time>
      </trkpt>
      <trkpt lat="48.8875" lon="7.20641">
        <ele>287.4</ele>
        <time>2020-09-24T12:41:57Z</time>
      </trkpt>
      <trkpt lat="48.88751" lon="7.2064">
        <ele>287.2</ele>
        <time>2020-09-24T12:42:22Z</time>
      </trkpt>
      <trkpt lat="48.88751" lon="7.2064">
        <ele>287</ele>
        <time>2020-09-24T12:42:43Z</time>
      </trkpt>
      <trkpt lat="48.88751" lon="7.2064">
        <ele>287</ele>
        <time>2020-09-24T12:43:04Z</time>
      </trkpt>
      <trkpt lat="48.88751" lon="7.2064">
        <ele>286.8</ele>
        <time>2020-09-24T12:43:24Z</time>
      </trkpt>
      <trkpt lat="48.88751" lon="7.20641">
        <ele>286.6</ele>
        <time>2020-09-24T12:43:45Z</time>
      </trkpt>
      <trkpt lat="48.88751" lon="7.20641">
        <ele>286.4</ele>
        <time>2020-09-24T12:44:10Z</time>
      </trkpt>
      <trkpt lat="48.88751" lon="7.20642">
        <ele>286.4</ele>
        <time>2020-09-24T12:44:28Z</time>
      </trkpt>
      <trkpt lat="48.88751" lon="7.20642">
        <ele>286.4</ele>
        <time>2020-09-24T12:44:39Z</time>
      </trkpt>
      <trkpt lat="48.88752" lon="7.20641">
        <ele>286.6</ele>
        <time>2020-09-24T12:45:00Z</time>
      </trkpt>
      <trkpt lat="48.88752" lon="7.20641">
        <ele>286.6</ele>
        <time>2020-09-24T12:45:26Z</time>
      </trkpt>
      <trkpt lat="48.88752" lon="7.20641">
        <ele>286.6</ele>
        <time>2020-09-24T12:45:50Z</time>
      </trkpt>
      <trkpt lat="48.88752" lon="7.20641">
        <ele>286.6</ele>
        <time>2020-09-24T12:46:12Z</time>
      </trkpt>
      <trkpt lat="48.88751" lon="7.20641">
        <ele>286.8</ele>
        <time>2020-09-24T12:46:31Z</time>
      </trkpt>
      <trkpt lat="48.88751" lon="7.20641">
        <ele>286.8</ele>
        <time>2020-09-24T12:46:52Z</time>
      </trkpt>
      <trkpt lat="48.88751" lon="7.20641">
        <ele>286.8</ele>
        <time>2020-09-24T12:47:14Z</time>
      </trkpt>
      <trkpt lat="48.88751" lon="7.20641">
        <ele>286.6</ele>
        <time>2020-09-24T12:47:34Z</time>
      </trkpt>
      <trkpt lat="48.88751" lon="7.20641">
        <ele>286.8</ele>
        <time>2020-09-24T12:47:56Z</time>
      </trkpt>
      <trkpt lat="48.88751" lon="7.20641">
        <ele>287</ele>
        <time>2020-09-24T12:48:13Z</time>
      </trkpt>
      <trkpt lat="48.8875" lon="7.20641">
        <ele>287</ele>
        <time>2020-09-24T12:48:31Z</time>
      </trkpt>
      <trkpt lat="48.8875" lon="7.20641">
        <ele>287.2</ele>
        <time>2020-09-24T12:48:56Z</time>
      </trkpt>
      <trkpt lat="48.8875" lon="7.2064">
        <ele>287.2</ele>
        <time>2020-09-24T12:49:16Z</time>
      </trkpt>
      <trkpt lat="48.8875" lon="7.2064">
        <ele>287.4</ele>
        <time>2020-09-24T12:49:38Z</time>
      </trkpt>
      <trkpt lat="48.88751" lon="7.20641">
        <ele>287.6</ele>
        <time>2020-09-24T12:49:55Z</time>
      </trkpt>
      <trkpt lat="48.88751" lon="7.20641">
        <ele>287.6</ele>
        <time>2020-09-24T12:50:10Z</time>
      </trkpt>
      <trkpt lat="48.88751" lon="7.20641">
        <ele>287.6</ele>
        <time>2020-09-24T12:50:19Z</time>
      </trkpt>
      <trkpt lat="48.88751" lon="7.20641">
        <ele>287.6</ele>
        <time>2020-09-24T12:50:43Z</time>
      </trkpt>
      <trkpt lat="48.88751" lon="7.20638">
        <ele>287.8</ele>
        <time>2020-09-24T12:50:52Z</time>
      </trkpt>
      <trkpt lat="48.88751" lon="7.20638">
        <ele>287.8</ele>
        <time>2020-09-24T12:51:10Z</time>
      </trkpt>
      <trkpt lat="48.88751" lon="7.20638">
        <ele>287.8</ele>
        <time>2020-09-24T12:51:19Z</time>
      </trkpt>
      <trkpt lat="48.88751" lon="7.20638">
        <ele>287.8</ele>
        <time>2020-09-24T12:51:39Z</time>
      </trkpt>
      <trkpt lat="48.88751" lon="7.20638">
        <ele>287.8</ele>
        <time>2020-09-24T12:51:52Z</time>
      </trkpt>
      <trkpt lat="48.88751" lon="7.20637">
        <ele>287.8</ele>
        <time>2020-09-24T12:52:14Z</time>
      </trkpt>
      <trkpt lat="48.8875" lon="7.20633">
        <ele>287.8</ele>
        <time>2020-09-24T12:52:21Z</time>
      </trkpt>
      <trkpt lat="48.8875" lon="7.20631">
        <ele>287.8</ele>
        <time>2020-09-24T12:52:22Z</time>
      </trkpt>
      <trkpt lat="48.88744" lon="7.20622">
        <ele>287.8</ele>
        <time>2020-09-24T12:52:24Z</time>
      </trkpt>
      <trkpt lat="48.88747" lon="7.20617">
        <ele>287.8</ele>
        <time>2020-09-24T12:52:26Z</time>
      </trkpt>
      <trkpt lat="48.8876" lon="7.2059">
        <ele>287.8</ele>
        <time>2020-09-24T12:52:32Z</time>
      </trkpt>
      <trkpt lat="48.88772" lon="7.20564">
        <ele>287.4</ele>
        <time>2020-09-24T12:52:38Z</time>
      </trkpt>
      <trkpt lat="48.88779" lon="7.20533">
        <ele>287.2</ele>
        <time>2020-09-24T12:52:45Z</time>
      </trkpt>
      <trkpt lat="48.88788" lon="7.20495">
        <ele>287.2</ele>
        <time>2020-09-24T12:52:53Z</time>
      </trkpt>
      <trkpt lat="48.88797" lon="7.20455">
        <ele>287.6</ele>
        <time>2020-09-24T12:53:02Z</time>
      </trkpt>
      <trkpt lat="48.88807" lon="7.20416">
        <ele>287.8</ele>
        <time>2020-09-24T12:53:11Z</time>
      </trkpt>
      <trkpt lat="48.88815" lon="7.20392">
        <ele>288</ele>
        <time>2020-09-24T12:53:17Z</time>
      </trkpt>
      <trkpt lat="48.88828" lon="7.20357">
        <ele>288</ele>
        <time>2020-09-24T12:53:25Z</time>
      </trkpt>
      <trkpt lat="48.88842" lon="7.2032">
        <ele>288</ele>
        <time>2020-09-24T12:53:33Z</time>
      </trkpt>
      <trkpt lat="48.88853" lon="7.20287">
        <ele>287.6</ele>
        <time>2020-09-24T12:53:39Z</time>
      </trkpt>
      <trkpt lat="48.88864" lon="7.2025">
        <ele>287.4</ele>
        <time>2020-09-24T12:53:44Z</time>
      </trkpt>
      <trkpt lat="48.88867" lon="7.20241">
        <ele>287.2</ele>
        <time>2020-09-24T12:53:45Z</time>
      </trkpt>
      <trkpt lat="48.88875" lon="7.20213">
        <ele>287.2</ele>
        <time>2020-09-24T12:53:48Z</time>
      </trkpt>
      <trkpt lat="48.88892" lon="7.20152">
        <ele>287</ele>
        <time>2020-09-24T12:53:55Z</time>
      </trkpt>
      <trkpt lat="48.8891" lon="7.20077">
        <ele>286.6</ele>
        <time>2020-09-24T12:54:04Z</time>
      </trkpt>
      <trkpt lat="48.88923" lon="7.2001">
        <ele>286.4</ele>
        <time>2020-09-24T12:54:12Z</time>
      </trkpt>
      <trkpt lat="48.88939" lon="7.19966">
        <ele>286.4</ele>
        <time>2020-09-24T12:54:18Z</time>
      </trkpt>
      <trkpt lat="48.88942" lon="7.19959">
        <ele>286.4</ele>
        <time>2020-09-24T12:54:19Z</time>
      </trkpt>
      <trkpt lat="48.88967" lon="7.19912">
        <ele>286.4</ele>
        <time>2020-09-24T12:54:26Z</time>
      </trkpt>
      <trkpt lat="48.88982" lon="7.19899">
        <ele>286.2</ele>
        <time>2020-09-24T12:54:29Z</time>
      </trkpt>
      <trkpt lat="48.89018" lon="7.19878">
        <ele>286.6</ele>
        <time>2020-09-24T12:54:35Z</time>
      </trkpt>
      <trkpt lat="48.89024" lon="7.19874">
        <ele>286.6</ele>
        <time>2020-09-24T12:54:36Z</time>
      </trkpt>
      <trkpt lat="48.89067" lon="7.19848">
        <ele>286.2</ele>
        <time>2020-09-24T12:54:42Z</time>
      </trkpt>
      <trkpt lat="48.89074" lon="7.19844">
        <ele>286.2</ele>
        <time>2020-09-24T12:54:43Z</time>
      </trkpt>
      <trkpt lat="48.89093" lon="7.19824">
        <ele>286.2</ele>
        <time>2020-09-24T12:54:46Z</time>
      </trkpt>
      <trkpt lat="48.89127" lon="7.1978">
        <ele>286.6</ele>
        <time>2020-09-24T12:54:52Z</time>
      </trkpt>
      <trkpt lat="48.89138" lon="7.19764">
        <ele>286.4</ele>
        <time>2020-09-24T12:54:54Z</time>
      </trkpt>
      <trkpt lat="48.89148" lon="7.19748">
        <ele>286.4</ele>
        <time>2020-09-24T12:54:56Z</time>
      </trkpt>
      <trkpt lat="48.89162" lon="7.1974">
        <ele>286.6</ele>
        <time>2020-09-24T12:54:58Z</time>
      </trkpt>
      <trkpt lat="48.89183" lon="7.19758">
        <ele>286.6</ele>
        <time>2020-09-24T12:55:01Z</time>
      </trkpt>
      <trkpt lat="48.89229" lon="7.19822">
        <ele>285.6</ele>
        <time>2020-09-24T12:55:08Z</time>
      </trkpt>
      <trkpt lat="48.89235" lon="7.19831">
        <ele>285.6</ele>
        <time>2020-09-24T12:55:09Z</time>
      </trkpt>
      <trkpt lat="48.89248" lon="7.19848">
        <ele>285.2</ele>
        <time>2020-09-24T12:55:11Z</time>
      </trkpt>
      <trkpt lat="48.89262" lon="7.19859">
        <ele>285</ele>
        <time>2020-09-24T12:55:13Z</time>
      </trkpt>
      <trkpt lat="48.89276" lon="7.19868">
        <ele>284.6</ele>
        <time>2020-09-24T12:55:15Z</time>
      </trkpt>
      <trkpt lat="48.8929" lon="7.19874">
        <ele>284.4</ele>
        <time>2020-09-24T12:55:17Z</time>
      </trkpt>
      <trkpt lat="48.89328" lon="7.19882">
        <ele>284.2</ele>
        <time>2020-09-24T12:55:23Z</time>
      </trkpt>
      <trkpt lat="48.89363" lon="7.19889">
        <ele>284</ele>
        <time>2020-09-24T12:55:29Z</time>
      </trkpt>
      <trkpt lat="48.89368" lon="7.1989">
        <ele>284</ele>
        <time>2020-09-24T12:55:30Z</time>
      </trkpt>
      <trkpt lat="48.89388" lon="7.19904">
        <ele>283.8</ele>
        <time>2020-09-24T12:55:34Z</time>
      </trkpt>
      <trkpt lat="48.89397" lon="7.19912">
        <ele>283.8</ele>
        <time>2020-09-24T12:55:36Z</time>
      </trkpt>
      <trkpt lat="48.89428" lon="7.19938">
        <ele>283.6</ele>
        <time>2020-09-24T12:55:43Z</time>
      </trkpt>
      <trkpt lat="48.89446" lon="7.1995">
        <ele>283.6</ele>
        <time>2020-09-24T12:55:47Z</time>
      </trkpt>
      <trkpt lat="48.89455" lon="7.19952">
        <ele>283.4</ele>
        <time>2020-09-24T12:55:49Z</time>
      </trkpt>
      <trkpt lat="48.89474" lon="7.19958">
        <ele>283.4</ele>
        <time>2020-09-24T12:55:53Z</time>
      </trkpt>
      <trkpt lat="48.89488" lon="7.19962">
        <ele>283.4</ele>
        <time>2020-09-24T12:55:56Z</time>
      </trkpt>
      <trkpt lat="48.89515" lon="7.19977">
        <ele>283.4</ele>
        <time>2020-09-24T12:56:02Z</time>
      </trkpt>
      <trkpt lat="48.89519" lon="7.19979">
        <ele>283.4</ele>
        <time>2020-09-24T12:56:03Z</time>
      </trkpt>
      <trkpt lat="48.89524" lon="7.19979">
        <ele>283.4</ele>
        <time>2020-09-24T12:56:04Z</time>
      </trkpt>
      <trkpt lat="48.89532" lon="7.19975">
        <ele>283.4</ele>
        <time>2020-09-24T12:56:06Z</time>
      </trkpt>
      <trkpt lat="48.89539" lon="7.19965">
        <ele>283.4</ele>
        <time>2020-09-24T12:56:07Z</time>
      </trkpt>
      <trkpt lat="48.89543" lon="7.19959">
        <ele>283.2</ele>
        <time>2020-09-24T12:56:09Z</time>
      </trkpt>
      <trkpt lat="48.89552" lon="7.19947">
        <ele>283</ele>
        <time>2020-09-24T12:56:11Z</time>
      </trkpt>
      <trkpt lat="48.89556" lon="7.1994">
        <ele>283</ele>
        <time>2020-09-24T12:56:12Z</time>
      </trkpt>
      <trkpt lat="48.89585" lon="7.19895">
        <ele>282.2</ele>
        <time>2020-09-24T12:56:18Z</time>
      </trkpt>
      <trkpt lat="48.89622" lon="7.19833">
        <ele>281.2</ele>
        <time>2020-09-24T12:56:25Z</time>
      </trkpt>
      <trkpt lat="48.89627" lon="7.19825">
        <ele>281</ele>
        <time>2020-09-24T12:56:26Z</time>
      </trkpt>
      <trkpt lat="48.89658" lon="7.19781">
        <ele>280.4</ele>
        <time>2020-09-24T12:56:32Z</time>
      </trkpt>
      <trkpt lat="48.89694" lon="7.19739">
        <ele>279.6</ele>
        <time>2020-09-24T12:56:39Z</time>
      </trkpt>
      <trkpt lat="48.89705" lon="7.19727">
        <ele>279.4</ele>
        <time>2020-09-24T12:56:41Z</time>
      </trkpt>
      <trkpt lat="48.89729" lon="7.19696">
        <ele>278.8</ele>
        <time>2020-09-24T12:56:46Z</time>
      </trkpt>
      <trkpt lat="48.89737" lon="7.19681">
        <ele>278.6</ele>
        <time>2020-09-24T12:56:48Z</time>
      </trkpt>
      <trkpt lat="48.89764" lon="7.19626">
        <ele>277.6</ele>
        <time>2020-09-24T12:56:55Z</time>
      </trkpt>
      <trkpt lat="48.89799" lon="7.19579">
        <ele>277</ele>
        <time>2020-09-24T12:57:02Z</time>
      </trkpt>
      <trkpt lat="48.89838" lon="7.19537">
        <ele>276.4</ele>
        <time>2020-09-24T12:57:10Z</time>
      </trkpt>
      <trkpt lat="48.89873" lon="7.19499">
        <ele>276.2</ele>
        <time>2020-09-24T12:57:18Z</time>
      </trkpt>
      <trkpt lat="48.899" lon="7.19459">
        <ele>276</ele>
        <time>2020-09-24T12:57:25Z</time>
      </trkpt>
      <trkpt lat="48.89907" lon="7.19447">
        <ele>275.8</ele>
        <time>2020-09-24T12:57:27Z</time>
      </trkpt>
      <trkpt lat="48.89922" lon="7.19456">
        <ele>275.8</ele>
        <time>2020-09-24T12:57:29Z</time>
      </trkpt>
      <trkpt lat="48.89929" lon="7.19468">
        <ele>275.8</ele>
        <time>2020-09-24T12:57:31Z</time>
      </trkpt>
      <trkpt lat="48.89959" lon="7.19518">
        <ele>275.6</ele>
        <time>2020-09-24T12:57:39Z</time>
      </trkpt>
      <trkpt lat="48.89973" lon="7.19541">
        <ele>275.6</ele>
        <time>2020-09-24T12:57:43Z</time>
      </trkpt>
      <trkpt lat="48.89976" lon="7.19545">
        <ele>275.6</ele>
        <time>2020-09-24T12:57:44Z</time>
      </trkpt>
      <trkpt lat="48.89981" lon="7.19546">
        <ele>275.4</ele>
        <time>2020-09-24T12:57:46Z</time>
      </trkpt>
      <trkpt lat="48.89982" lon="7.19544">
        <ele>275.4</ele>
        <time>2020-09-24T12:57:47Z</time>
      </trkpt>
      <trkpt lat="48.8997" lon="7.19535">
        <ele>275.2</ele>
        <time>2020-09-24T12:57:49Z</time>
      </trkpt>
      <trkpt lat="48.89967" lon="7.1953">
        <ele>275.2</ele>
        <time>2020-09-24T12:57:50Z</time>
      </trkpt>
      <trkpt lat="48.89949" lon="7.19501">
        <ele>275</ele>
        <time>2020-09-24T12:57:56Z</time>
      </trkpt>
      <trkpt lat="48.89946" lon="7.19495">
        <ele>275</ele>
        <time>2020-09-24T12:57:57Z</time>
      </trkpt>
      <trkpt lat="48.89926" lon="7.19463">
        <ele>274.8</ele>
        <time>2020-09-24T12:58:03Z</time>
      </trkpt>
      <trkpt lat="48.89923" lon="7.19457">
        <ele>274.8</ele>
        <time>2020-09-24T12:58:04Z</time>
      </trkpt>
      <trkpt lat="48.89919" lon="7.19452">
        <ele>274.8</ele>
        <time>2020-09-24T12:58:05Z</time>
      </trkpt>
      <trkpt lat="48.89918" lon="7.19428">
        <ele>274.8</ele>
        <time>2020-09-24T12:58:07Z</time>
      </trkpt>
      <trkpt lat="48.89934" lon="7.19403">
        <ele>274.6</ele>
        <time>2020-09-24T12:58:11Z</time>
      </trkpt>
      <trkpt lat="48.89968" lon="7.19355">
        <ele>274</ele>
        <time>2020-09-24T12:58:18Z</time>
      </trkpt>
      <trkpt lat="48.90008" lon="7.1931">
        <ele>273</ele>
        <time>2020-09-24T12:58:25Z</time>
      </trkpt>
      <trkpt lat="48.9004" lon="7.19273">
        <ele>272.4</ele>
        <time>2020-09-24T12:58:31Z</time>
      </trkpt>
      <trkpt lat="48.90089" lon="7.19224">
        <ele>271</ele>
        <time>2020-09-24T12:58:40Z</time>
      </trkpt>
      <trkpt lat="48.90137" lon="7.19185">
        <ele>270</ele>
        <time>2020-09-24T12:58:48Z</time>
      </trkpt>
      <trkpt lat="48.90143" lon="7.19181">
        <ele>270</ele>
        <time>2020-09-24T12:58:49Z</time>
      </trkpt>
      <trkpt lat="48.90198" lon="7.19146">
        <ele>268.8</ele>
        <time>2020-09-24T12:58:58Z</time>
      </trkpt>
      <trkpt lat="48.90242" lon="7.19123">
        <ele>268</ele>
        <time>2020-09-24T12:59:05Z</time>
      </trkpt>
      <trkpt lat="48.90277" lon="7.19104">
        <ele>267.4</ele>
        <time>2020-09-24T12:59:11Z</time>
      </trkpt>
      <trkpt lat="48.9032" lon="7.19082">
        <ele>266.6</ele>
        <time>2020-09-24T12:59:19Z</time>
      </trkpt>
      <trkpt lat="48.90361" lon="7.19061">
        <ele>266.2</ele>
        <time>2020-09-24T12:59:27Z</time>
      </trkpt>
      <trkpt lat="48.90393" lon="7.19043">
        <ele>266</ele>
        <time>2020-09-24T12:59:33Z</time>
      </trkpt>
      <trkpt lat="48.90434" lon="7.19016">
        <ele>265.4</ele>
        <time>2020-09-24T12:59:40Z</time>
      </trkpt>
      <trkpt lat="48.90473" lon="7.18985">
        <ele>264.8</ele>
        <time>2020-09-24T12:59:46Z</time>
      </trkpt>
      <trkpt lat="48.90513" lon="7.18954">
        <ele>263.6</ele>
        <time>2020-09-24T12:59:51Z</time>
      </trkpt>
      <trkpt lat="48.90556" lon="7.18919">
        <ele>262.4</ele>
        <time>2020-09-24T12:59:56Z</time>
      </trkpt>
      <trkpt lat="48.90607" lon="7.18879">
        <ele>261</ele>
        <time>2020-09-24T13:00:01Z</time>
      </trkpt>
      <trkpt lat="48.90658" lon="7.18838">
        <ele>259.6</ele>
        <time>2020-09-24T13:00:06Z</time>
      </trkpt>
      <trkpt lat="48.90677" lon="7.18822">
        <ele>259</ele>
        <time>2020-09-24T13:00:08Z</time>
      </trkpt>
      <trkpt lat="48.90735" lon="7.18784">
        <ele>257.6</ele>
        <time>2020-09-24T13:00:14Z</time>
      </trkpt>
      <trkpt lat="48.9076" lon="7.18771">
        <ele>257.2</ele>
        <time>2020-09-24T13:00:17Z</time>
      </trkpt>
      <trkpt lat="48.90767" lon="7.18768">
        <ele>257</ele>
        <time>2020-09-24T13:00:18Z</time>
      </trkpt>
      <trkpt lat="48.90796" lon="7.18753">
        <ele>256.4</ele>
        <time>2020-09-24T13:00:23Z</time>
      </trkpt>
      <trkpt lat="48.90831" lon="7.18734">
        <ele>255.6</ele>
        <time>2020-09-24T13:00:31Z</time>
      </trkpt>
      <trkpt lat="48.90852" lon="7.18724">
        <ele>255.2</ele>
        <time>2020-09-24T13:00:37Z</time>
      </trkpt>
      <trkpt lat="48.90869" lon="7.18715">
        <ele>254.8</ele>
        <time>2020-09-24T13:00:42Z</time>
      </trkpt>
      <trkpt lat="48.90884" lon="7.18707">
        <ele>254.4</ele>
        <time>2020-09-24T13:00:47Z</time>
      </trkpt>
      <trkpt lat="48.90907" lon="7.18695">
        <ele>253.8</ele>
        <time>2020-09-24T13:00:54Z</time>
      </trkpt>
      <trkpt lat="48.90933" lon="7.18682">
        <ele>253.6</ele>
        <time>2020-09-24T13:01:01Z</time>
      </trkpt>
      <trkpt lat="48.90945" lon="7.18675">
        <ele>253.6</ele>
        <time>2020-09-24T13:01:05Z</time>
      </trkpt>
      <trkpt lat="48.9097" lon="7.18663">
        <ele>253.6</ele>
        <time>2020-09-24T13:01:11Z</time>
      </trkpt>
      <trkpt lat="48.91006" lon="7.18644">
        <ele>253.6</ele>
        <time>2020-09-24T13:01:19Z</time>
      </trkpt>
      <trkpt lat="48.91037" lon="7.18628">
        <ele>253.4</ele>
        <time>2020-09-24T13:01:26Z</time>
      </trkpt>
      <trkpt lat="48.91057" lon="7.18618">
        <ele>253.2</ele>
        <time>2020-09-24T13:01:30Z</time>
      </trkpt>
      <trkpt lat="48.91061" lon="7.18616">
        <ele>253.2</ele>
        <time>2020-09-24T13:01:32Z</time>
      </trkpt>
      <trkpt lat="48.91088" lon="7.18598">
        <ele>252.8</ele>
        <time>2020-09-24T13:01:39Z</time>
      </trkpt>
      <trkpt lat="48.91126" lon="7.18573">
        <ele>252</ele>
        <time>2020-09-24T13:01:47Z</time>
      </trkpt>
      <trkpt lat="48.91176" lon="7.18541">
        <ele>251.2</ele>
        <time>2020-09-24T13:01:56Z</time>
      </trkpt>
      <trkpt lat="48.91205" lon="7.18521">
        <ele>251</ele>
        <time>2020-09-24T13:02:01Z</time>
      </trkpt>
      <trkpt lat="48.91258" lon="7.18487">
        <ele>250</ele>
        <time>2020-09-24T13:02:10Z</time>
      </trkpt>
      <trkpt lat="48.91285" lon="7.18469">
        <ele>249</ele>
        <time>2020-09-24T13:02:15Z</time>
      </trkpt>
      <trkpt lat="48.91291" lon="7.18465">
        <ele>248.8</ele>
        <time>2020-09-24T13:02:16Z</time>
      </trkpt>
      <trkpt lat="48.91321" lon="7.18446">
        <ele>247.4</ele>
        <time>2020-09-24T13:02:21Z</time>
      </trkpt>
      <trkpt lat="48.91364" lon="7.18426">
        <ele>245.8</ele>
        <time>2020-09-24T13:02:27Z</time>
      </trkpt>
      <trkpt lat="48.91401" lon="7.18409">
        <ele>244.2</ele>
        <time>2020-09-24T13:02:32Z</time>
      </trkpt>
      <trkpt lat="48.91441" lon="7.18394">
        <ele>242</ele>
        <time>2020-09-24T13:02:37Z</time>
      </trkpt>
      <trkpt lat="48.9149" lon="7.18374">
        <ele>239</ele>
        <time>2020-09-24T13:02:43Z</time>
      </trkpt>
      <trkpt lat="48.91526" lon="7.1836">
        <ele>236.6</ele>
        <time>2020-09-24T13:02:48Z</time>
      </trkpt>
      <trkpt lat="48.91565" lon="7.18344">
        <ele>232.6</ele>
        <time>2020-09-24T13:02:55Z</time>
      </trkpt>
      <trkpt lat="48.91611" lon="7.18326">
        <ele>229.2</ele>
        <time>2020-09-24T13:03:01Z</time>
      </trkpt>
      <trkpt lat="48.91664" lon="7.18305">
        <ele>225.6</ele>
        <time>2020-09-24T13:03:07Z</time>
      </trkpt>
      <trkpt lat="48.91672" lon="7.18302">
        <ele>225</ele>
        <time>2020-09-24T13:03:08Z</time>
      </trkpt>
      <trkpt lat="48.91732" lon="7.18278">
        <ele>220.6</ele>
        <time>2020-09-24T13:03:15Z</time>
      </trkpt>
      <trkpt lat="48.91769" lon="7.18262">
        <ele>219</ele>
        <time>2020-09-24T13:03:20Z</time>
      </trkpt>
      <trkpt lat="48.91795" lon="7.18249">
        <ele>217.6</ele>
        <time>2020-09-24T13:03:24Z</time>
      </trkpt>
      <trkpt lat="48.91838" lon="7.18227">
        <ele>215.4</ele>
        <time>2020-09-24T13:03:31Z</time>
      </trkpt>
      <trkpt lat="48.91872" lon="7.18216">
        <ele>213.8</ele>
        <time>2020-09-24T13:03:36Z</time>
      </trkpt>
      <trkpt lat="48.91887" lon="7.18218">
        <ele>213</ele>
        <time>2020-09-24T13:03:38Z</time>
      </trkpt>
      <trkpt lat="48.91903" lon="7.1822">
        <ele>212.6</ele>
        <time>2020-09-24T13:03:40Z</time>
      </trkpt>
      <trkpt lat="48.91938" lon="7.18236">
        <ele>211.6</ele>
        <time>2020-09-24T13:03:45Z</time>
      </trkpt>
      <trkpt lat="48.91945" lon="7.1824">
        <ele>211.2</ele>
        <time>2020-09-24T13:03:46Z</time>
      </trkpt>
      <trkpt lat="48.91964" lon="7.18255">
        <ele>210.8</ele>
        <time>2020-09-24T13:03:49Z</time>
      </trkpt>
      <trkpt lat="48.91992" lon="7.18275">
        <ele>210</ele>
        <time>2020-09-24T13:03:54Z</time>
      </trkpt>
      <trkpt lat="48.9203" lon="7.18303">
        <ele>210.2</ele>
        <time>2020-09-24T13:04:01Z</time>
      </trkpt>
      <trkpt lat="48.92062" lon="7.18327">
        <ele>213</ele>
        <time>2020-09-24T13:04:06Z</time>
      </trkpt>
      <trkpt lat="48.92079" lon="7.18336">
        <ele>213.2</ele>
        <time>2020-09-24T13:04:08Z</time>
      </trkpt>
      <trkpt lat="48.92088" lon="7.18341">
        <ele>213.2</ele>
        <time>2020-09-24T13:04:09Z</time>
      </trkpt>
      <trkpt lat="48.92097" lon="7.18346">
        <ele>213.2</ele>
        <time>2020-09-24T13:04:10Z</time>
      </trkpt>
      <trkpt lat="48.92119" lon="7.18353">
        <ele>213.2</ele>
        <time>2020-09-24T13:04:12Z</time>
      </trkpt>
      <trkpt lat="48.92142" lon="7.18337">
        <ele>213.8</ele>
        <time>2020-09-24T13:04:15Z</time>
      </trkpt>
      <trkpt lat="48.92155" lon="7.18327">
        <ele>214</ele>
        <time>2020-09-24T13:04:17Z</time>
      </trkpt>
      <trkpt lat="48.92165" lon="7.18324">
        <ele>214.2</ele>
        <time>2020-09-24T13:04:18Z</time>
      </trkpt>
      <trkpt lat="48.92165" lon="7.18324">
        <ele>214.6</ele>
        <time>2020-09-24T13:04:19Z</time>
      </trkpt>
      <trkpt lat="48.92175" lon="7.18325">
        <ele>215.2</ele>
        <time>2020-09-24T13:04:21Z</time>
      </trkpt>
      <trkpt lat="48.92179" lon="7.18327">
        <ele>215.4</ele>
        <time>2020-09-24T13:04:22Z</time>
      </trkpt>
      <trkpt lat="48.92196" lon="7.18344">
        <ele>216.4</ele>
        <time>2020-09-24T13:04:27Z</time>
      </trkpt>
      <trkpt lat="48.92216" lon="7.18376">
        <ele>218.4</ele>
        <time>2020-09-24T13:04:35Z</time>
      </trkpt>
      <trkpt lat="48.92234" lon="7.18403">
        <ele>219.8</ele>
        <time>2020-09-24T13:04:42Z</time>
      </trkpt>
      <trkpt lat="48.92254" lon="7.18434">
        <ele>221.8</ele>
        <time>2020-09-24T13:04:51Z</time>
      </trkpt>
      <trkpt lat="48.92268" lon="7.18457">
        <ele>223.6</ele>
        <time>2020-09-24T13:04:58Z</time>
      </trkpt>
      <trkpt lat="48.92283" lon="7.1848">
        <ele>225</ele>
        <time>2020-09-24T13:05:05Z</time>
      </trkpt>
      <trkpt lat="48.92302" lon="7.18509">
        <ele>226.8</ele>
        <time>2020-09-24T13:05:14Z</time>
      </trkpt>
      <trkpt lat="48.92316" lon="7.18531">
        <ele>228.2</ele>
        <time>2020-09-24T13:05:21Z</time>
      </trkpt>
      <trkpt lat="48.9233" lon="7.18554">
        <ele>229.2</ele>
        <time>2020-09-24T13:05:28Z</time>
      </trkpt>
      <trkpt lat="48.92346" lon="7.18582">
        <ele>230.8</ele>
        <time>2020-09-24T13:05:36Z</time>
      </trkpt>
      <trkpt lat="48.92355" lon="7.18598">
        <ele>231.8</ele>
        <time>2020-09-24T13:05:41Z</time>
      </trkpt>
      <trkpt lat="48.92359" lon="7.18604">
        <ele>232.4</ele>
        <time>2020-09-24T13:05:45Z</time>
      </trkpt>
      <trkpt lat="48.92359" lon="7.18604">
        <ele>235</ele>
        <time>2020-09-24T13:06:04Z</time>
      </trkpt>
      <trkpt lat="48.92359" lon="7.18604">
        <ele>237.2</ele>
        <time>2020-09-24T13:06:24Z</time>
      </trkpt>
      <trkpt lat="48.92359" lon="7.18604">
        <ele>238.6</ele>
        <time>2020-09-24T13:06:40Z</time>
      </trkpt>
      <trkpt lat="48.92359" lon="7.18604">
        <ele>239.8</ele>
        <time>2020-09-24T13:06:57Z</time>
      </trkpt>
      <trkpt lat="48.92359" lon="7.18604">
        <ele>241.2</ele>
        <time>2020-09-24T13:07:19Z</time>
      </trkpt>
      <trkpt lat="48.92359" lon="7.18604">
        <ele>242.4</ele>
        <time>2020-09-24T13:07:47Z</time>
      </trkpt>
      <trkpt lat="48.92359" lon="7.18604">
        <ele>243.2</ele>
        <time>2020-09-24T13:08:16Z</time>
      </trkpt>
      <trkpt lat="48.92359" lon="7.18604">
        <ele>243.8</ele>
        <time>2020-09-24T13:08:44Z</time>
      </trkpt>
      <trkpt lat="48.92359" lon="7.18604">
        <ele>244.2</ele>
        <time>2020-09-24T13:09:06Z</time>
      </trkpt>
      <trkpt lat="48.92359" lon="7.18604">
        <ele>244.4</ele>
        <time>2020-09-24T13:09:30Z</time>
      </trkpt>
      <trkpt lat="48.92359" lon="7.18604">
        <ele>244.8</ele>
        <time>2020-09-24T13:09:52Z</time>
      </trkpt>
      <trkpt lat="48.92359" lon="7.18604">
        <ele>245</ele>
        <time>2020-09-24T13:10:19Z</time>
      </trkpt>
      <trkpt lat="48.92359" lon="7.18604">
        <ele>245.2</ele>
        <time>2020-09-24T13:10:45Z</time>
      </trkpt>
      <trkpt lat="48.92359" lon="7.18604">
        <ele>245.4</ele>
        <time>2020-09-24T13:11:05Z</time>
      </trkpt>
      <trkpt lat="48.92359" lon="7.18604">
        <ele>245.4</ele>
        <time>2020-09-24T13:11:28Z</time>
      </trkpt>
      <trkpt lat="48.92359" lon="7.18604">
        <ele>245.6</ele>
        <time>2020-09-24T13:11:45Z</time>
      </trkpt>
      <trkpt lat="48.92359" lon="7.18604">
        <ele>245.6</ele>
        <time>2020-09-24T13:12:01Z</time>
      </trkpt>
      <trkpt lat="48.92362" lon="7.18609">
        <ele>245.8</ele>
        <time>2020-09-24T13:12:05Z</time>
      </trkpt>
      <trkpt lat="48.92368" lon="7.18619">
        <ele>246</ele>
        <time>2020-09-24T13:12:09Z</time>
      </trkpt>
      <trkpt lat="48.92375" lon="7.18631">
        <ele>246.4</ele>
        <time>2020-09-24T13:12:13Z</time>
      </trkpt>
      <trkpt lat="48.92385" lon="7.1865">
        <ele>246.4</ele>
        <time>2020-09-24T13:12:18Z</time>
      </trkpt>
      <trkpt lat="48.92403" lon="7.1868">
        <ele>246.4</ele>
        <time>2020-09-24T13:12:25Z</time>
      </trkpt>
      <trkpt lat="48.92415" lon="7.187">
        <ele>246.4</ele>
        <time>2020-09-24T13:12:30Z</time>
      </trkpt>
      <trkpt lat="48.92426" lon="7.18717">
        <ele>246.6</ele>
        <time>2020-09-24T13:12:35Z</time>
      </trkpt>
      <trkpt lat="48.92442" lon="7.18736">
        <ele>246.8</ele>
        <time>2020-09-24T13:12:41Z</time>
      </trkpt>
      <trkpt lat="48.92461" lon="7.18734">
        <ele>246.8</ele>
        <time>2020-09-24T13:12:46Z</time>
      </trkpt>
      <trkpt lat="48.92478" lon="7.18721">
        <ele>246.6</ele>
        <time>2020-09-24T13:12:51Z</time>
      </trkpt>
      <trkpt lat="48.92495" lon="7.18702">
        <ele>246.8</ele>
        <time>2020-09-24T13:12:57Z</time>
      </trkpt>
      <trkpt lat="48.92519" lon="7.18693">
        <ele>247.4</ele>
        <time>2020-09-24T13:13:03Z</time>
      </trkpt>
      <trkpt lat="48.92544" lon="7.18702">
        <ele>248.2</ele>
        <time>2020-09-24T13:13:11Z</time>
      </trkpt>
      <trkpt lat="48.92562" lon="7.18709">
        <ele>248.4</ele>
        <time>2020-09-24T13:13:17Z</time>
      </trkpt>
      <trkpt lat="48.92584" lon="7.18718">
        <ele>248.8</ele>
        <time>2020-09-24T13:13:23Z</time>
      </trkpt>
      <trkpt lat="48.92601" lon="7.18725">
        <ele>249</ele>
        <time>2020-09-24T13:13:28Z</time>
      </trkpt>
      <trkpt lat="48.92627" lon="7.18729">
        <ele>249.4</ele>
        <time>2020-09-24T13:13:34Z</time>
      </trkpt>
      <trkpt lat="48.92655" lon="7.18731">
        <ele>249.6</ele>
        <time>2020-09-24T13:13:39Z</time>
      </trkpt>
      <trkpt lat="48.92692" lon="7.1873">
        <ele>249.2</ele>
        <time>2020-09-24T13:13:44Z</time>
      </trkpt>
      <trkpt lat="48.92735" lon="7.18718">
        <ele>248.8</ele>
        <time>2020-09-24T13:13:49Z</time>
      </trkpt>
      <trkpt lat="48.9279" lon="7.18687">
        <ele>248</ele>
        <time>2020-09-24T13:13:55Z</time>
      </trkpt>
      <trkpt lat="48.92799" lon="7.18682">
        <ele>247.8</ele>
        <time>2020-09-24T13:13:56Z</time>
      </trkpt>
      <trkpt lat="48.92853" lon="7.18652">
        <ele>247</ele>
        <time>2020-09-24T13:14:02Z</time>
      </trkpt>
      <trkpt lat="48.92889" lon="7.18631">
        <ele>246.6</ele>
        <time>2020-09-24T13:14:06Z</time>
      </trkpt>
      <trkpt lat="48.92947" lon="7.18599">
        <ele>245.8</ele>
        <time>2020-09-24T13:14:13Z</time>
      </trkpt>
      <trkpt lat="48.92955" lon="7.18594">
        <ele>245.8</ele>
        <time>2020-09-24T13:14:14Z</time>
      </trkpt>
      <trkpt lat="48.93011" lon="7.18563">
        <ele>245</ele>
        <time>2020-09-24T13:14:21Z</time>
      </trkpt>
      <trkpt lat="48.93027" lon="7.18554">
        <ele>244.8</ele>
        <time>2020-09-24T13:14:23Z</time>
      </trkpt>
      <trkpt lat="48.93036" lon="7.18549">
        <ele>244.8</ele>
        <time>2020-09-24T13:14:24Z</time>
      </trkpt>
      <trkpt lat="48.93061" lon="7.18543">
        <ele>244.4</ele>
        <time>2020-09-24T13:14:27Z</time>
      </trkpt>
      <trkpt lat="48.93123" lon="7.1855">
        <ele>243.8</ele>
        <time>2020-09-24T13:14:33Z</time>
      </trkpt>
      <trkpt lat="48.93181" lon="7.18557">
        <ele>243.6</ele>
        <time>2020-09-24T13:14:40Z</time>
      </trkpt>
      <trkpt lat="48.93189" lon="7.18558">
        <ele>243.4</ele>
        <time>2020-09-24T13:14:42Z</time>
      </trkpt>
      <trkpt lat="48.9325" lon="7.18566">
        <ele>243</ele>
        <time>2020-09-24T13:14:50Z</time>
      </trkpt>
      <trkpt lat="48.93305" lon="7.18578">
        <ele>242.8</ele>
        <time>2020-09-24T13:14:57Z</time>
      </trkpt>
      <trkpt lat="48.93312" lon="7.1858">
        <ele>242.8</ele>
        <time>2020-09-24T13:14:59Z</time>
      </trkpt>
      <trkpt lat="48.93362" lon="7.18601">
        <ele>242.6</ele>
        <time>2020-09-24T13:15:07Z</time>
      </trkpt>
      <trkpt lat="48.93385" lon="7.18613">
        <ele>242.4</ele>
        <time>2020-09-24T13:15:10Z</time>
      </trkpt>
      <trkpt lat="48.93393" lon="7.18627">
        <ele>242.6</ele>
        <time>2020-09-24T13:15:12Z</time>
      </trkpt>
      <trkpt lat="48.93404" lon="7.18647">
        <ele>242.6</ele>
        <time>2020-09-24T13:15:16Z</time>
      </trkpt>
      <trkpt lat="48.93407" lon="7.18655">
        <ele>242.6</ele>
        <time>2020-09-24T13:15:17Z</time>
      </trkpt>
      <trkpt lat="48.9342" lon="7.18687">
        <ele>242.4</ele>
        <time>2020-09-24T13:15:21Z</time>
      </trkpt>
      <trkpt lat="48.93426" lon="7.18704">
        <ele>242.2</ele>
        <time>2020-09-24T13:15:23Z</time>
      </trkpt>
      <trkpt lat="48.93436" lon="7.18729">
        <ele>242.2</ele>
        <time>2020-09-24T13:15:26Z</time>
      </trkpt>
      <trkpt lat="48.93444" lon="7.18744">
        <ele>242.2</ele>
        <time>2020-09-24T13:15:28Z</time>
      </trkpt>
      <trkpt lat="48.93454" lon="7.18753">
        <ele>242.2</ele>
        <time>2020-09-24T13:15:30Z</time>
      </trkpt>
      <trkpt lat="48.93459" lon="7.18756">
        <ele>242</ele>
        <time>2020-09-24T13:15:31Z</time>
      </trkpt>
      <trkpt lat="48.93465" lon="7.18759">
        <ele>242</ele>
        <time>2020-09-24T13:15:32Z</time>
      </trkpt>
      <trkpt lat="48.93477" lon="7.18756">
        <ele>241.8</ele>
        <time>2020-09-24T13:15:34Z</time>
      </trkpt>
      <trkpt lat="48.9349" lon="7.18752">
        <ele>241.6</ele>
        <time>2020-09-24T13:15:36Z</time>
      </trkpt>
      <trkpt lat="48.93532" lon="7.18741">
        <ele>241.2</ele>
        <time>2020-09-24T13:15:42Z</time>
      </trkpt>
      <trkpt lat="48.93582" lon="7.18728">
        <ele>240.4</ele>
        <time>2020-09-24T13:15:48Z</time>
      </trkpt>
      <trkpt lat="48.93637" lon="7.18713">
        <ele>239.6</ele>
        <time>2020-09-24T13:15:54Z</time>
      </trkpt>
      <trkpt lat="48.937" lon="7.18693">
        <ele>238.4</ele>
        <time>2020-09-24T13:16:00Z</time>
      </trkpt>
      <trkpt lat="48.93758" lon="7.18654">
        <ele>237</ele>
        <time>2020-09-24T13:16:05Z</time>
      </trkpt>
      <trkpt lat="48.93767" lon="7.18648">
        <ele>236.6</ele>
        <time>2020-09-24T13:16:07Z</time>
      </trkpt>
      <trkpt lat="48.93794" lon="7.18639">
        <ele>236.4</ele>
        <time>2020-09-24T13:16:09Z</time>
      </trkpt>
      <trkpt lat="48.9383" lon="7.1865">
        <ele>235.8</ele>
        <time>2020-09-24T13:16:13Z</time>
      </trkpt>
      <trkpt lat="48.93838" lon="7.18653">
        <ele>235.6</ele>
        <time>2020-09-24T13:16:15Z</time>
      </trkpt>
      <trkpt lat="48.93846" lon="7.18657">
        <ele>235.4</ele>
        <time>2020-09-24T13:16:16Z</time>
      </trkpt>
      <trkpt lat="48.93857" lon="7.18634">
        <ele>235.4</ele>
        <time>2020-09-24T13:16:18Z</time>
      </trkpt>
      <trkpt lat="48.93857" lon="7.18623">
        <ele>235.2</ele>
        <time>2020-09-24T13:16:20Z</time>
      </trkpt>
      <trkpt lat="48.9386" lon="7.18602">
        <ele>234.8</ele>
        <time>2020-09-24T13:16:22Z</time>
      </trkpt>
      <trkpt lat="48.9388" lon="7.18559">
        <ele>234.2</ele>
        <time>2020-09-24T13:16:28Z</time>
      </trkpt>
      <trkpt lat="48.93883" lon="7.18553">
        <ele>234.2</ele>
        <time>2020-09-24T13:16:29Z</time>
      </trkpt>
      <trkpt lat="48.93889" lon="7.1854">
        <ele>234</ele>
        <time>2020-09-24T13:16:31Z</time>
      </trkpt>
      <trkpt lat="48.93894" lon="7.18533">
        <ele>234</ele>
        <time>2020-09-24T13:16:32Z</time>
      </trkpt>
      <trkpt lat="48.93928" lon="7.18523">
        <ele>233.4</ele>
        <time>2020-09-24T13:16:39Z</time>
      </trkpt>
      <trkpt lat="48.9396" lon="7.18516">
        <ele>232.6</ele>
        <time>2020-09-24T13:16:46Z</time>
      </trkpt>
      <trkpt lat="48.93977" lon="7.18515">
        <ele>232.6</ele>
        <time>2020-09-24T13:16:50Z</time>
      </trkpt>
      <trkpt lat="48.9399" lon="7.18518">
        <ele>232.6</ele>
        <time>2020-09-24T13:16:53Z</time>
      </trkpt>
      <trkpt lat="48.94016" lon="7.18531">
        <ele>232.6</ele>
        <time>2020-09-24T13:16:59Z</time>
      </trkpt>
      <trkpt lat="48.94053" lon="7.1854">
        <ele>232.6</ele>
        <time>2020-09-24T13:17:07Z</time>
      </trkpt>
      <trkpt lat="48.94057" lon="7.1854">
        <ele>232.6</ele>
        <time>2020-09-24T13:17:08Z</time>
      </trkpt>
      <trkpt lat="48.94081" lon="7.18541">
        <ele>232.4</ele>
        <time>2020-09-24T13:17:13Z</time>
      </trkpt>
      <trkpt lat="48.94112" lon="7.18541">
        <ele>232.4</ele>
        <time>2020-09-24T13:17:19Z</time>
      </trkpt>
      <trkpt lat="48.94123" lon="7.18541">
        <ele>232.4</ele>
        <time>2020-09-24T13:17:21Z</time>
      </trkpt>
      <trkpt lat="48.94167" lon="7.18542">
        <ele>232.2</ele>
        <time>2020-09-24T13:17:29Z</time>
      </trkpt>
      <trkpt lat="48.94212" lon="7.18546">
        <ele>232.2</ele>
        <time>2020-09-24T13:17:37Z</time>
      </trkpt>
      <trkpt lat="48.94263" lon="7.18553">
        <ele>232.2</ele>
        <time>2020-09-24T13:17:46Z</time>
      </trkpt>
      <trkpt lat="48.94286" lon="7.18558">
        <ele>232.4</ele>
        <time>2020-09-24T13:17:50Z</time>
      </trkpt>
      <trkpt lat="48.94296" lon="7.18567">
        <ele>232.4</ele>
        <time>2020-09-24T13:17:52Z</time>
      </trkpt>
      <trkpt lat="48.94337" lon="7.18601">
        <ele>232.4</ele>
        <time>2020-09-24T13:18:00Z</time>
      </trkpt>
      <trkpt lat="48.94345" lon="7.18614">
        <ele>232.4</ele>
        <time>2020-09-24T13:18:02Z</time>
      </trkpt>
      <trkpt lat="48.94354" lon="7.18628">
        <ele>232.2</ele>
        <time>2020-09-24T13:18:04Z</time>
      </trkpt>
      <trkpt lat="48.94357" lon="7.18637">
        <ele>232.2</ele>
        <time>2020-09-24T13:18:05Z</time>
      </trkpt>
      <trkpt lat="48.94362" lon="7.18652">
        <ele>232.2</ele>
        <time>2020-09-24T13:18:07Z</time>
      </trkpt>
      <trkpt lat="48.9437" lon="7.1865">
        <ele>232.2</ele>
        <time>2020-09-24T13:18:08Z</time>
      </trkpt>
      <trkpt lat="48.94381" lon="7.18648">
        <ele>232</ele>
        <time>2020-09-24T13:18:10Z</time>
      </trkpt>
      <trkpt lat="48.94424" lon="7.18641">
        <ele>232.4</ele>
        <time>2020-09-24T13:18:18Z</time>
      </trkpt>
      <trkpt lat="48.94452" lon="7.18636">
        <ele>232.4</ele>
        <time>2020-09-24T13:18:24Z</time>
      </trkpt>
      <trkpt lat="48.94482" lon="7.1863">
        <ele>232.8</ele>
        <time>2020-09-24T13:18:31Z</time>
      </trkpt>
      <trkpt lat="48.94522" lon="7.18622">
        <ele>233.2</ele>
        <time>2020-09-24T13:18:39Z</time>
      </trkpt>
      <trkpt lat="48.94565" lon="7.18613">
        <ele>233.4</ele>
        <time>2020-09-24T13:18:47Z</time>
      </trkpt>
      <trkpt lat="48.94596" lon="7.18607">
        <ele>233.6</ele>
        <time>2020-09-24T13:18:52Z</time>
      </trkpt>
      <trkpt lat="48.94607" lon="7.18605">
        <ele>233.6</ele>
        <time>2020-09-24T13:18:54Z</time>
      </trkpt>
      <trkpt lat="48.94627" lon="7.18601">
        <ele>233.6</ele>
        <time>2020-09-24T13:18:57Z</time>
      </trkpt>
      <trkpt lat="48.94671" lon="7.18589">
        <ele>233.6</ele>
        <time>2020-09-24T13:19:04Z</time>
      </trkpt>
      <trkpt lat="48.94718" lon="7.18574">
        <ele>233.6</ele>
        <time>2020-09-24T13:19:11Z</time>
      </trkpt>
      <trkpt lat="48.94753" lon="7.18562">
        <ele>233.2</ele>
        <time>2020-09-24T13:19:16Z</time>
      </trkpt>
      <trkpt lat="48.9476" lon="7.18559">
        <ele>233.2</ele>
        <time>2020-09-24T13:19:17Z</time>
      </trkpt>
      <trkpt lat="48.94779" lon="7.18548">
        <ele>233</ele>
        <time>2020-09-24T13:19:20Z</time>
      </trkpt>
      <trkpt lat="48.94793" lon="7.18541">
        <ele>233</ele>
        <time>2020-09-24T13:19:22Z</time>
      </trkpt>
      <trkpt lat="48.94799" lon="7.18537">
        <ele>233</ele>
        <time>2020-09-24T13:19:23Z</time>
      </trkpt>
      <trkpt lat="48.94814" lon="7.18518">
        <ele>233</ele>
        <time>2020-09-24T13:19:25Z</time>
      </trkpt>
      <trkpt lat="48.94819" lon="7.18511">
        <ele>233</ele>
        <time>2020-09-24T13:19:27Z</time>
      </trkpt>
      <trkpt lat="48.94839" lon="7.18473">
        <ele>232.6</ele>
        <time>2020-09-24T13:19:32Z</time>
      </trkpt>
      <trkpt lat="48.94878" lon="7.18397">
        <ele>232</ele>
        <time>2020-09-24T13:19:41Z</time>
      </trkpt>
      <trkpt lat="48.94901" lon="7.18355">
        <ele>231.2</ele>
        <time>2020-09-24T13:19:47Z</time>
      </trkpt>
      <trkpt lat="48.94907" lon="7.18348">
        <ele>231.2</ele>
        <time>2020-09-24T13:19:48Z</time>
      </trkpt>
      <trkpt lat="48.94927" lon="7.18331">
        <ele>230.6</ele>
        <time>2020-09-24T13:19:51Z</time>
      </trkpt>
      <trkpt lat="48.94967" lon="7.18304">
        <ele>230.2</ele>
        <time>2020-09-24T13:19:57Z</time>
      </trkpt>
      <trkpt lat="48.95017" lon="7.18264">
        <ele>229.6</ele>
        <time>2020-09-24T13:20:05Z</time>
      </trkpt>
      <trkpt lat="48.95061" lon="7.18216">
        <ele>228.6</ele>
        <time>2020-09-24T13:20:13Z</time>
      </trkpt>
      <trkpt lat="48.95087" lon="7.18173">
        <ele>228</ele>
        <time>2020-09-24T13:20:19Z</time>
      </trkpt>
      <trkpt lat="48.95106" lon="7.18117">
        <ele>227.4</ele>
        <time>2020-09-24T13:20:26Z</time>
      </trkpt>
      <trkpt lat="48.95129" lon="7.18035">
        <ele>226.8</ele>
        <time>2020-09-24T13:20:35Z</time>
      </trkpt>
      <trkpt lat="48.95146" lon="7.17977">
        <ele>226.2</ele>
        <time>2020-09-24T13:20:43Z</time>
      </trkpt>
      <trkpt lat="48.95148" lon="7.17961">
        <ele>226</ele>
        <time>2020-09-24T13:20:45Z</time>
      </trkpt>
      <trkpt lat="48.95148" lon="7.17935">
        <ele>226</ele>
        <time>2020-09-24T13:20:47Z</time>
      </trkpt>
      <trkpt lat="48.95144" lon="7.17909">
        <ele>226</ele>
        <time>2020-09-24T13:20:51Z</time>
      </trkpt>
      <trkpt lat="48.95143" lon="7.17902">
        <ele>226</ele>
        <time>2020-09-24T13:20:52Z</time>
      </trkpt>
      <trkpt lat="48.95137" lon="7.17897">
        <ele>226</ele>
        <time>2020-09-24T13:20:53Z</time>
      </trkpt>
      <trkpt lat="48.95129" lon="7.17891">
        <ele>226</ele>
        <time>2020-09-24T13:20:55Z</time>
      </trkpt>
      <trkpt lat="48.95111" lon="7.1788">
        <ele>226</ele>
        <time>2020-09-24T13:21:00Z</time>
      </trkpt>
      <trkpt lat="48.95101" lon="7.17887">
        <ele>226</ele>
        <time>2020-09-24T13:21:03Z</time>
      </trkpt>
      <trkpt lat="48.95094" lon="7.17883">
        <ele>225.8</ele>
        <time>2020-09-24T13:21:04Z</time>
      </trkpt>
      <trkpt lat="48.95072" lon="7.17856">
        <ele>225.8</ele>
        <time>2020-09-24T13:21:11Z</time>
      </trkpt>
      <trkpt lat="48.95072" lon="7.17856">
        <ele>225.8</ele>
        <time>2020-09-24T13:21:13Z</time>
      </trkpt>
      <trkpt lat="48.95069" lon="7.17832">
        <ele>225.8</ele>
        <time>2020-09-24T13:21:14Z</time>
      </trkpt>
      <trkpt lat="48.95073" lon="7.1782">
        <ele>225.8</ele>
        <time>2020-09-24T13:21:16Z</time>
      </trkpt>
      <trkpt lat="48.95082" lon="7.17804">
        <ele>225.8</ele>
        <time>2020-09-24T13:21:19Z</time>
      </trkpt>
      <trkpt lat="48.95094" lon="7.17765">
        <ele>225.6</ele>
        <time>2020-09-24T13:21:25Z</time>
      </trkpt>
      <trkpt lat="48.95106" lon="7.17725">
        <ele>225.6</ele>
        <time>2020-09-24T13:21:31Z</time>
      </trkpt>
      <trkpt lat="48.95112" lon="7.17706">
        <ele>225.6</ele>
        <time>2020-09-24T13:21:34Z</time>
      </trkpt>
      <trkpt lat="48.95116" lon="7.17693">
        <ele>225.6</ele>
        <time>2020-09-24T13:21:36Z</time>
      </trkpt>
      <trkpt lat="48.95118" lon="7.17688">
        <ele>225.6</ele>
        <time>2020-09-24T13:21:37Z</time>
      </trkpt>
      <trkpt lat="48.95119" lon="7.17679">
        <ele>225.6</ele>
        <time>2020-09-24T13:21:39Z</time>
      </trkpt>
      <trkpt lat="48.9512" lon="7.17677">
        <ele>225.6</ele>
        <time>2020-09-24T13:21:40Z</time>
      </trkpt>
      <trkpt lat="48.95112" lon="7.17673">
        <ele>225.4</ele>
        <time>2020-09-24T13:21:44Z</time>
      </trkpt>
      <trkpt lat="48.95101" lon="7.17667">
        <ele>225.2</ele>
        <time>2020-09-24T13:21:47Z</time>
      </trkpt>
      <trkpt lat="48.95094" lon="7.17663">
        <ele>225.4</ele>
        <time>2020-09-24T13:21:49Z</time>
      </trkpt>
      <trkpt lat="48.95065" lon="7.17646">
        <ele>225.6</ele>
        <time>2020-09-24T13:21:57Z</time>
      </trkpt>
      <trkpt lat="48.95037" lon="7.17628">
        <ele>226</ele>
        <time>2020-09-24T13:22:05Z</time>
      </trkpt>
      <trkpt lat="48.95026" lon="7.17621">
        <ele>226</ele>
        <time>2020-09-24T13:22:09Z</time>
      </trkpt>
      <trkpt lat="48.95024" lon="7.17619">
        <ele>226</ele>
        <time>2020-09-24T13:22:10Z</time>
      </trkpt>
      <trkpt lat="48.95022" lon="7.17617">
        <ele>226</ele>
        <time>2020-09-24T13:22:12Z</time>
      </trkpt>
      <trkpt lat="48.95025" lon="7.17622">
        <ele>225.8</ele>
        <time>2020-09-24T13:22:13Z</time>
      </trkpt>
      <trkpt lat="48.95033" lon="7.17625">
        <ele>226</ele>
        <time>2020-09-24T13:22:17Z</time>
      </trkpt>
      <trkpt lat="48.95053" lon="7.17638">
        <ele>225.6</ele>
        <time>2020-09-24T13:22:23Z</time>
      </trkpt>
      <trkpt lat="48.95072" lon="7.1765">
        <ele>225.6</ele>
        <time>2020-09-24T13:22:28Z</time>
      </trkpt>
      <trkpt lat="48.95081" lon="7.17655">
        <ele>225.6</ele>
        <time>2020-09-24T13:22:30Z</time>
      </trkpt>
      <trkpt lat="48.95087" lon="7.17659">
        <ele>225.4</ele>
        <time>2020-09-24T13:22:32Z</time>
      </trkpt>
      <trkpt lat="48.95091" lon="7.1764">
        <ele>225.4</ele>
        <time>2020-09-24T13:22:33Z</time>
      </trkpt>
      <trkpt lat="48.95097" lon="7.17604">
        <ele>225.2</ele>
        <time>2020-09-24T13:22:39Z</time>
      </trkpt>
      <trkpt lat="48.95105" lon="7.17559">
        <ele>225.4</ele>
        <time>2020-09-24T13:22:46Z</time>
      </trkpt>
      <trkpt lat="48.95105" lon="7.17551">
        <ele>225.2</ele>
        <time>2020-09-24T13:22:47Z</time>
      </trkpt>
      <trkpt lat="48.95103" lon="7.17536">
        <ele>225.2</ele>
        <time>2020-09-24T13:22:49Z</time>
      </trkpt>
      <trkpt lat="48.95102" lon="7.17528">
        <ele>225.2</ele>
        <time>2020-09-24T13:22:50Z</time>
      </trkpt>
      <trkpt lat="48.951" lon="7.17474">
        <ele>225</ele>
        <time>2020-09-24T13:22:57Z</time>
      </trkpt>
      <trkpt lat="48.95103" lon="7.17443">
        <ele>225.2</ele>
        <time>2020-09-24T13:23:01Z</time>
      </trkpt>
      <trkpt lat="48.95105" lon="7.1742">
        <ele>225.4</ele>
        <time>2020-09-24T13:23:04Z</time>
      </trkpt>
      <trkpt lat="48.95108" lon="7.17376">
        <ele>225.4</ele>
        <time>2020-09-24T13:23:11Z</time>
      </trkpt>
      <trkpt lat="48.95113" lon="7.17367">
        <ele>225.6</ele>
        <time>2020-09-24T13:23:13Z</time>
      </trkpt>
      <trkpt lat="48.95117" lon="7.17367">
        <ele>225.6</ele>
        <time>2020-09-24T13:23:14Z</time>
      </trkpt>
      <trkpt lat="48.9514" lon="7.17364">
        <ele>225.8</ele>
        <time>2020-09-24T13:23:19Z</time>
      </trkpt>
      <trkpt lat="48.95148" lon="7.1736">
        <ele>225.8</ele>
        <time>2020-09-24T13:23:21Z</time>
      </trkpt>
      <trkpt lat="48.95158" lon="7.17352">
        <ele>225.8</ele>
        <time>2020-09-24T13:23:24Z</time>
      </trkpt>
      <trkpt lat="48.95162" lon="7.17349">
        <ele>225.8</ele>
        <time>2020-09-24T13:23:25Z</time>
      </trkpt>
      <trkpt lat="48.95167" lon="7.17332">
        <ele>226</ele>
        <time>2020-09-24T13:23:28Z</time>
      </trkpt>
      <trkpt lat="48.95165" lon="7.17319">
        <ele>225.2</ele>
        <time>2020-09-24T13:23:30Z</time>
      </trkpt>
      <trkpt lat="48.95164" lon="7.17313">
        <ele>225.4</ele>
        <time>2020-09-24T13:23:31Z</time>
      </trkpt>
      <trkpt lat="48.95163" lon="7.17306">
        <ele>225.2</ele>
        <time>2020-09-24T13:23:32Z</time>
      </trkpt>
      <trkpt lat="48.95162" lon="7.17288">
        <ele>225.2</ele>
        <time>2020-09-24T13:23:35Z</time>
      </trkpt>
      <trkpt lat="48.95161" lon="7.17258">
        <ele>225</ele>
        <time>2020-09-24T13:23:40Z</time>
      </trkpt>
      <trkpt lat="48.9516" lon="7.17207">
        <ele>225.2</ele>
        <time>2020-09-24T13:23:48Z</time>
      </trkpt>
      <trkpt lat="48.95159" lon="7.17201">
        <ele>225.2</ele>
        <time>2020-09-24T13:23:49Z</time>
      </trkpt>
      <trkpt lat="48.95159" lon="7.17161">
        <ele>225.2</ele>
        <time>2020-09-24T13:23:55Z</time>
      </trkpt>
      <trkpt lat="48.9516" lon="7.17145">
        <ele>225.2</ele>
        <time>2020-09-24T13:23:57Z</time>
      </trkpt>
      <trkpt lat="48.95159" lon="7.17127">
        <ele>225.2</ele>
        <time>2020-09-24T13:23:59Z</time>
      </trkpt>
      <trkpt lat="48.9516" lon="7.17114">
        <ele>224.8</ele>
        <time>2020-09-24T13:24:01Z</time>
      </trkpt>
      <trkpt lat="48.95161" lon="7.17109">
        <ele>225</ele>
        <time>2020-09-24T13:24:02Z</time>
      </trkpt>
      <trkpt lat="48.95165" lon="7.17109">
        <ele>225</ele>
        <time>2020-09-24T13:24:04Z</time>
      </trkpt>
      <trkpt lat="48.95169" lon="7.17108">
        <ele>224.8</ele>
        <time>2020-09-24T13:24:05Z</time>
      </trkpt>
      <trkpt lat="48.95201" lon="7.17106">
        <ele>224.6</ele>
        <time>2020-09-24T13:24:11Z</time>
      </trkpt>
      <trkpt lat="48.95224" lon="7.17105">
        <ele>224.4</ele>
        <time>2020-09-24T13:24:15Z</time>
      </trkpt>
      <trkpt lat="48.95236" lon="7.17105">
        <ele>224.2</ele>
        <time>2020-09-24T13:24:17Z</time>
      </trkpt>
      <trkpt lat="48.95259" lon="7.17117">
        <ele>224</ele>
        <time>2020-09-24T13:24:21Z</time>
      </trkpt>
      <trkpt lat="48.95263" lon="7.17121">
        <ele>224</ele>
        <time>2020-09-24T13:24:22Z</time>
      </trkpt>
      <trkpt lat="48.95272" lon="7.17107">
        <ele>223.8</ele>
        <time>2020-09-24T13:24:23Z</time>
      </trkpt>
      <trkpt lat="48.95274" lon="7.17101">
        <ele>223.8</ele>
        <time>2020-09-24T13:24:25Z</time>
      </trkpt>
      <trkpt lat="48.95296" lon="7.1705">
        <ele>223.4</ele>
        <time>2020-09-24T13:24:32Z</time>
      </trkpt>
      <trkpt lat="48.95307" lon="7.17008">
        <ele>223.2</ele>
        <time>2020-09-24T13:24:38Z</time>
      </trkpt>
      <trkpt lat="48.9531" lon="7.16995">
        <ele>223</ele>
        <time>2020-09-24T13:24:40Z</time>
      </trkpt>
      <trkpt lat="48.95312" lon="7.16981">
        <ele>223</ele>
        <time>2020-09-24T13:24:42Z</time>
      </trkpt>
      <trkpt lat="48.95314" lon="7.16973">
        <ele>223</ele>
        <time>2020-09-24T13:24:43Z</time>
      </trkpt>
      <trkpt lat="48.95314" lon="7.16917">
        <ele>223.2</ele>
        <time>2020-09-24T13:24:50Z</time>
      </trkpt>
      <trkpt lat="48.95309" lon="7.16841">
        <ele>222.8</ele>
        <time>2020-09-24T13:24:59Z</time>
      </trkpt>
      <trkpt lat="48.95303" lon="7.16756">
        <ele>223.2</ele>
        <time>2020-09-24T13:25:09Z</time>
      </trkpt>
      <trkpt lat="48.95294" lon="7.16669">
        <ele>222.8</ele>
        <time>2020-09-24T13:25:19Z</time>
      </trkpt>
      <trkpt lat="48.95293" lon="7.1665">
        <ele>222.8</ele>
        <time>2020-09-24T13:25:21Z</time>
      </trkpt>
      <trkpt lat="48.95286" lon="7.16579">
        <ele>222.8</ele>
        <time>2020-09-24T13:25:29Z</time>
      </trkpt>
      <trkpt lat="48.95284" lon="7.16564">
        <ele>222.8</ele>
        <time>2020-09-24T13:25:31Z</time>
      </trkpt>
      <trkpt lat="48.95283" lon="7.16549">
        <ele>222.8</ele>
        <time>2020-09-24T13:25:33Z</time>
      </trkpt>
      <trkpt lat="48.95275" lon="7.16471">
        <ele>223.2</ele>
        <time>2020-09-24T13:25:43Z</time>
      </trkpt>
      <trkpt lat="48.95268" lon="7.16406">
        <ele>223.4</ele>
        <time>2020-09-24T13:25:52Z</time>
      </trkpt>
      <trkpt lat="48.95259" lon="7.16357">
        <ele>223.4</ele>
        <time>2020-09-24T13:25:59Z</time>
      </trkpt>
      <trkpt lat="48.95252" lon="7.16303">
        <ele>223.4</ele>
        <time>2020-09-24T13:26:06Z</time>
      </trkpt>
      <trkpt lat="48.95251" lon="7.16286">
        <ele>223.4</ele>
        <time>2020-09-24T13:26:08Z</time>
      </trkpt>
      <trkpt lat="48.95249" lon="7.16253">
        <ele>223.4</ele>
        <time>2020-09-24T13:26:12Z</time>
      </trkpt>
      <trkpt lat="48.9524" lon="7.16238">
        <ele>223.6</ele>
        <time>2020-09-24T13:26:14Z</time>
      </trkpt>
      <trkpt lat="48.95237" lon="7.16208">
        <ele>223.6</ele>
        <time>2020-09-24T13:26:18Z</time>
      </trkpt>
      <trkpt lat="48.95236" lon="7.16192">
        <ele>223.6</ele>
        <time>2020-09-24T13:26:20Z</time>
      </trkpt>
      <trkpt lat="48.95236" lon="7.16176">
        <ele>223.6</ele>
        <time>2020-09-24T13:26:22Z</time>
      </trkpt>
      <trkpt lat="48.95237" lon="7.16159">
        <ele>223.8</ele>
        <time>2020-09-24T13:26:24Z</time>
      </trkpt>
      <trkpt lat="48.95241" lon="7.16142">
        <ele>223.6</ele>
        <time>2020-09-24T13:26:26Z</time>
      </trkpt>
      <trkpt lat="48.95242" lon="7.16133">
        <ele>223.6</ele>
        <time>2020-09-24T13:26:27Z</time>
      </trkpt>
      <trkpt lat="48.95247" lon="7.16106">
        <ele>223.6</ele>
        <time>2020-09-24T13:26:30Z</time>
      </trkpt>
      <trkpt lat="48.95253" lon="7.16073">
        <ele>223.8</ele>
        <time>2020-09-24T13:26:34Z</time>
      </trkpt>
      <trkpt lat="48.95256" lon="7.16058">
        <ele>223.8</ele>
        <time>2020-09-24T13:26:36Z</time>
      </trkpt>
      <trkpt lat="48.95264" lon="7.1601">
        <ele>223.8</ele>
        <time>2020-09-24T13:26:42Z</time>
      </trkpt>
      <trkpt lat="48.95275" lon="7.15954">
        <ele>224</ele>
        <time>2020-09-24T13:26:49Z</time>
      </trkpt>
      <trkpt lat="48.95277" lon="7.15938">
        <ele>224</ele>
        <time>2020-09-24T13:26:51Z</time>
      </trkpt>
      <trkpt lat="48.9528" lon="7.1593">
        <ele>224</ele>
        <time>2020-09-24T13:26:52Z</time>
      </trkpt>
      <trkpt lat="48.95284" lon="7.15924">
        <ele>224</ele>
        <time>2020-09-24T13:26:53Z</time>
      </trkpt>
      <trkpt lat="48.95296" lon="7.15924">
        <ele>224</ele>
        <time>2020-09-24T13:26:55Z</time>
      </trkpt>
      <trkpt lat="48.95302" lon="7.15925">
        <ele>224</ele>
        <time>2020-09-24T13:26:56Z</time>
      </trkpt>
      <trkpt lat="48.95311" lon="7.15924">
        <ele>224</ele>
        <time>2020-09-24T13:26:58Z</time>
      </trkpt>
      <trkpt lat="48.95313" lon="7.15917">
        <ele>224</ele>
        <time>2020-09-24T13:26:59Z</time>
      </trkpt>
      <trkpt lat="48.95317" lon="7.15894">
        <ele>224</ele>
        <time>2020-09-24T13:27:02Z</time>
      </trkpt>
      <trkpt lat="48.95331" lon="7.15832">
        <ele>224</ele>
        <time>2020-09-24T13:27:10Z</time>
      </trkpt>
      <trkpt lat="48.95333" lon="7.15818">
        <ele>224</ele>
        <time>2020-09-24T13:27:12Z</time>
      </trkpt>
      <trkpt lat="48.95337" lon="7.15798">
        <ele>224</ele>
        <time>2020-09-24T13:27:15Z</time>
      </trkpt>
      <trkpt lat="48.95345" lon="7.15754">
        <ele>224</ele>
        <time>2020-09-24T13:27:21Z</time>
      </trkpt>
      <trkpt lat="48.95346" lon="7.15747">
        <ele>224</ele>
        <time>2020-09-24T13:27:22Z</time>
      </trkpt>
      <trkpt lat="48.95347" lon="7.15684">
        <ele>224.2</ele>
        <time>2020-09-24T13:27:30Z</time>
      </trkpt>
      <trkpt lat="48.95347" lon="7.15621">
        <ele>224.2</ele>
        <time>2020-09-24T13:27:38Z</time>
      </trkpt>
      <trkpt lat="48.95347" lon="7.15563">
        <ele>224.4</ele>
        <time>2020-09-24T13:27:46Z</time>
      </trkpt>
      <trkpt lat="48.9535" lon="7.15523">
        <ele>224.6</ele>
        <time>2020-09-24T13:27:52Z</time>
      </trkpt>
      <trkpt lat="48.95351" lon="7.15516">
        <ele>224.8</ele>
        <time>2020-09-24T13:27:53Z</time>
      </trkpt>
      <trkpt lat="48.95353" lon="7.15503">
        <ele>224.8</ele>
        <time>2020-09-24T13:27:55Z</time>
      </trkpt>
      <trkpt lat="48.95356" lon="7.1549">
        <ele>224.8</ele>
        <time>2020-09-24T13:27:56Z</time>
      </trkpt>
      <trkpt lat="48.95356" lon="7.1549">
        <ele>224.8</ele>
        <time>2020-09-24T13:27:57Z</time>
      </trkpt>
      <trkpt lat="48.95364" lon="7.15462">
        <ele>224.8</ele>
        <time>2020-09-24T13:28:01Z</time>
      </trkpt>
      <trkpt lat="48.95381" lon="7.15401">
        <ele>224.8</ele>
        <time>2020-09-24T13:28:09Z</time>
      </trkpt>
      <trkpt lat="48.95398" lon="7.15339">
        <ele>225</ele>
        <time>2020-09-24T13:28:17Z</time>
      </trkpt>
      <trkpt lat="48.9541" lon="7.15295">
        <ele>225.2</ele>
        <time>2020-09-24T13:28:23Z</time>
      </trkpt>
      <trkpt lat="48.95428" lon="7.15235">
        <ele>225.4</ele>
        <time>2020-09-24T13:28:30Z</time>
      </trkpt>
      <trkpt lat="48.95456" lon="7.15166">
        <ele>225.2</ele>
        <time>2020-09-24T13:28:38Z</time>
      </trkpt>
      <trkpt lat="48.95472" lon="7.15124">
        <ele>225.4</ele>
        <time>2020-09-24T13:28:43Z</time>
      </trkpt>
      <trkpt lat="48.95479" lon="7.15109">
        <ele>225.2</ele>
        <time>2020-09-24T13:28:45Z</time>
      </trkpt>
      <trkpt lat="48.95509" lon="7.15044">
        <ele>225.4</ele>
        <time>2020-09-24T13:28:54Z</time>
      </trkpt>
      <trkpt lat="48.95539" lon="7.14984">
        <ele>225.6</ele>
        <time>2020-09-24T13:29:03Z</time>
      </trkpt>
      <trkpt lat="48.9557" lon="7.14932">
        <ele>225.6</ele>
        <time>2020-09-24T13:29:11Z</time>
      </trkpt>
      <trkpt lat="48.95574" lon="7.14926">
        <ele>225.6</ele>
        <time>2020-09-24T13:29:12Z</time>
      </trkpt>
      <trkpt lat="48.95607" lon="7.14879">
        <ele>225.8</ele>
        <time>2020-09-24T13:29:19Z</time>
      </trkpt>
      <trkpt lat="48.95637" lon="7.14837">
        <ele>226</ele>
        <time>2020-09-24T13:29:27Z</time>
      </trkpt>
      <trkpt lat="48.95661" lon="7.14808">
        <ele>225.8</ele>
        <time>2020-09-24T13:29:32Z</time>
      </trkpt>
      <trkpt lat="48.95703" lon="7.14762">
        <ele>225.2</ele>
        <time>2020-09-24T13:29:39Z</time>
      </trkpt>
      <trkpt lat="48.95744" lon="7.14717">
        <ele>225</ele>
        <time>2020-09-24T13:29:46Z</time>
      </trkpt>
      <trkpt lat="48.95781" lon="7.14683">
        <ele>225</ele>
        <time>2020-09-24T13:29:52Z</time>
      </trkpt>
      <trkpt lat="48.95822" lon="7.14646">
        <ele>224.4</ele>
        <time>2020-09-24T13:29:59Z</time>
      </trkpt>
      <trkpt lat="48.95844" lon="7.14627">
        <ele>224.4</ele>
        <time>2020-09-24T13:30:03Z</time>
      </trkpt>
      <trkpt lat="48.9585" lon="7.14622">
        <ele>224.2</ele>
        <time>2020-09-24T13:30:04Z</time>
      </trkpt>
      <trkpt lat="48.95884" lon="7.14592">
        <ele>224</ele>
        <time>2020-09-24T13:30:10Z</time>
      </trkpt>
      <trkpt lat="48.95925" lon="7.14556">
        <ele>223.8</ele>
        <time>2020-09-24T13:30:17Z</time>
      </trkpt>
      <trkpt lat="48.95977" lon="7.1451">
        <ele>223.8</ele>
        <time>2020-09-24T13:30:26Z</time>
      </trkpt>
      <trkpt lat="48.95983" lon="7.14506">
        <ele>223.8</ele>
        <time>2020-09-24T13:30:27Z</time>
      </trkpt>
      <trkpt lat="48.96024" lon="7.14469">
        <ele>223.8</ele>
        <time>2020-09-24T13:30:35Z</time>
      </trkpt>
      <trkpt lat="48.96054" lon="7.14443">
        <ele>224.2</ele>
        <time>2020-09-24T13:30:42Z</time>
      </trkpt>
      <trkpt lat="48.96085" lon="7.14419">
        <ele>224.4</ele>
        <time>2020-09-24T13:30:49Z</time>
      </trkpt>
      <trkpt lat="48.9609" lon="7.14416">
        <ele>224.4</ele>
        <time>2020-09-24T13:30:50Z</time>
      </trkpt>
      <trkpt lat="48.96126" lon="7.14394">
        <ele>224.6</ele>
        <time>2020-09-24T13:30:57Z</time>
      </trkpt>
      <trkpt lat="48.96154" lon="7.14377">
        <ele>224.6</ele>
        <time>2020-09-24T13:31:02Z</time>
      </trkpt>
      <trkpt lat="48.9616" lon="7.14375">
        <ele>224.6</ele>
        <time>2020-09-24T13:31:03Z</time>
      </trkpt>
      <trkpt lat="48.96171" lon="7.14369">
        <ele>224.6</ele>
        <time>2020-09-24T13:31:05Z</time>
      </trkpt>
      <trkpt lat="48.96177" lon="7.14367">
        <ele>224.4</ele>
        <time>2020-09-24T13:31:06Z</time>
      </trkpt>
      <trkpt lat="48.962" lon="7.14356">
        <ele>224.2</ele>
        <time>2020-09-24T13:31:10Z</time>
      </trkpt>
      <trkpt lat="48.96206" lon="7.14353">
        <ele>224.2</ele>
        <time>2020-09-24T13:31:11Z</time>
      </trkpt>
      <trkpt lat="48.96217" lon="7.14348">
        <ele>224</ele>
        <time>2020-09-24T13:31:13Z</time>
      </trkpt>
      <trkpt lat="48.96241" lon="7.14327">
        <ele>223.8</ele>
        <time>2020-09-24T13:31:17Z</time>
      </trkpt>
      <trkpt lat="48.96278" lon="7.14287">
        <ele>223.6</ele>
        <time>2020-09-24T13:31:24Z</time>
      </trkpt>
      <trkpt lat="48.96282" lon="7.1428">
        <ele>223.8</ele>
        <time>2020-09-24T13:31:25Z</time>
      </trkpt>
      <trkpt lat="48.9629" lon="7.14269">
        <ele>223.8</ele>
        <time>2020-09-24T13:31:27Z</time>
      </trkpt>
      <trkpt lat="48.96294" lon="7.14262">
        <ele>223.8</ele>
        <time>2020-09-24T13:31:28Z</time>
      </trkpt>
      <trkpt lat="48.96308" lon="7.14219">
        <ele>223.6</ele>
        <time>2020-09-24T13:31:34Z</time>
      </trkpt>
      <trkpt lat="48.96312" lon="7.14206">
        <ele>223.8</ele>
        <time>2020-09-24T13:31:36Z</time>
      </trkpt>
      <trkpt lat="48.96312" lon="7.14194">
        <ele>223.8</ele>
        <time>2020-09-24T13:31:38Z</time>
      </trkpt>
      <trkpt lat="48.96307" lon="7.14178">
        <ele>223.6</ele>
        <time>2020-09-24T13:31:41Z</time>
      </trkpt>
      <trkpt lat="48.96301" lon="7.14169">
        <ele>224</ele>
        <time>2020-09-24T13:31:43Z</time>
      </trkpt>
      <trkpt lat="48.96285" lon="7.14149">
        <ele>224</ele>
        <time>2020-09-24T13:31:48Z</time>
      </trkpt>
      <trkpt lat="48.96282" lon="7.14146">
        <ele>224</ele>
        <time>2020-09-24T13:31:49Z</time>
      </trkpt>
      <trkpt lat="48.96277" lon="7.14134">
        <ele>224</ele>
        <time>2020-09-24T13:31:51Z</time>
      </trkpt>
      <trkpt lat="48.96267" lon="7.14112">
        <ele>224.4</ele>
        <time>2020-09-24T13:31:58Z</time>
      </trkpt>
      <trkpt lat="48.96258" lon="7.14091">
        <ele>224.8</ele>
        <time>2020-09-24T13:32:04Z</time>
      </trkpt>
      <trkpt lat="48.96257" lon="7.14087">
        <ele>224.8</ele>
        <time>2020-09-24T13:32:05Z</time>
      </trkpt>
      <trkpt lat="48.9626" lon="7.14077">
        <ele>225</ele>
        <time>2020-09-24T13:32:06Z</time>
      </trkpt>
      <trkpt lat="48.96267" lon="7.14072">
        <ele>225.2</ele>
        <time>2020-09-24T13:32:08Z</time>
      </trkpt>
      <trkpt lat="48.96281" lon="7.14061">
        <ele>225.2</ele>
        <time>2020-09-24T13:32:11Z</time>
      </trkpt>
      <trkpt lat="48.96287" lon="7.14057">
        <ele>225.2</ele>
        <time>2020-09-24T13:32:12Z</time>
      </trkpt>
      <trkpt lat="48.96298" lon="7.14049">
        <ele>225.2</ele>
        <time>2020-09-24T13:32:13Z</time>
      </trkpt>
      <trkpt lat="48.96311" lon="7.1404">
        <ele>225.2</ele>
        <time>2020-09-24T13:32:16Z</time>
      </trkpt>
      <trkpt lat="48.96355" lon="7.14009">
        <ele>225.2</ele>
        <time>2020-09-24T13:32:22Z</time>
      </trkpt>
      <trkpt lat="48.96393" lon="7.13983">
        <ele>224.4</ele>
        <time>2020-09-24T13:32:27Z</time>
      </trkpt>
      <trkpt lat="48.96445" lon="7.13945">
        <ele>224.2</ele>
        <time>2020-09-24T13:32:33Z</time>
      </trkpt>
      <trkpt lat="48.96453" lon="7.1394">
        <ele>224</ele>
        <time>2020-09-24T13:32:35Z</time>
      </trkpt>
      <trkpt lat="48.96466" lon="7.1393">
        <ele>224</ele>
        <time>2020-09-24T13:32:37Z</time>
      </trkpt>
      <trkpt lat="48.96478" lon="7.1392">
        <ele>224</ele>
        <time>2020-09-24T13:32:39Z</time>
      </trkpt>
      <trkpt lat="48.96495" lon="7.13903">
        <ele>223.8</ele>
        <time>2020-09-24T13:32:42Z</time>
      </trkpt>
      <trkpt lat="48.96506" lon="7.13892">
        <ele>223.6</ele>
        <time>2020-09-24T13:32:44Z</time>
      </trkpt>
      <trkpt lat="48.9654" lon="7.1386">
        <ele>223.4</ele>
        <time>2020-09-24T13:32:50Z</time>
      </trkpt>
      <trkpt lat="48.96564" lon="7.1384">
        <ele>223.4</ele>
        <time>2020-09-24T13:32:54Z</time>
      </trkpt>
      <trkpt lat="48.9657" lon="7.13835">
        <ele>223.4</ele>
        <time>2020-09-24T13:32:55Z</time>
      </trkpt>
      <trkpt lat="48.96582" lon="7.13825">
        <ele>223.4</ele>
        <time>2020-09-24T13:32:57Z</time>
      </trkpt>
      <trkpt lat="48.966" lon="7.1381">
        <ele>223.4</ele>
        <time>2020-09-24T13:33:00Z</time>
      </trkpt>
      <trkpt lat="48.96612" lon="7.138">
        <ele>223.4</ele>
        <time>2020-09-24T13:33:02Z</time>
      </trkpt>
      <trkpt lat="48.96631" lon="7.13788">
        <ele>223.2</ele>
        <time>2020-09-24T13:33:05Z</time>
      </trkpt>
      <trkpt lat="48.96644" lon="7.1378">
        <ele>223.2</ele>
        <time>2020-09-24T13:33:07Z</time>
      </trkpt>
      <trkpt lat="48.96662" lon="7.1377">
        <ele>223.4</ele>
        <time>2020-09-24T13:33:10Z</time>
      </trkpt>
      <trkpt lat="48.96679" lon="7.13761">
        <ele>223.4</ele>
        <time>2020-09-24T13:33:13Z</time>
      </trkpt>
      <trkpt lat="48.96691" lon="7.13755">
        <ele>223.4</ele>
        <time>2020-09-24T13:33:15Z</time>
      </trkpt>
      <trkpt lat="48.9672" lon="7.13739">
        <ele>223.6</ele>
        <time>2020-09-24T13:33:20Z</time>
      </trkpt>
      <trkpt lat="48.9676" lon="7.13719">
        <ele>223.6</ele>
        <time>2020-09-24T13:33:27Z</time>
      </trkpt>
      <trkpt lat="48.96776" lon="7.13712">
        <ele>223.6</ele>
        <time>2020-09-24T13:33:30Z</time>
      </trkpt>
      <trkpt lat="48.96792" lon="7.13705">
        <ele>223.6</ele>
        <time>2020-09-24T13:33:33Z</time>
      </trkpt>
      <trkpt lat="48.96829" lon="7.13689">
        <ele>223.6</ele>
        <time>2020-09-24T13:33:40Z</time>
      </trkpt>
      <trkpt lat="48.96851" lon="7.13687">
        <ele>223.8</ele>
        <time>2020-09-24T13:33:44Z</time>
      </trkpt>
      <trkpt lat="48.96883" lon="7.13685">
        <ele>224</ele>
        <time>2020-09-24T13:33:50Z</time>
      </trkpt>
      <trkpt lat="48.9692" lon="7.13693">
        <ele>224.2</ele>
        <time>2020-09-24T13:33:57Z</time>
      </trkpt>
      <trkpt lat="48.96952" lon="7.13702">
        <ele>224.4</ele>
        <time>2020-09-24T13:34:03Z</time>
      </trkpt>
      <trkpt lat="48.97" lon="7.1372">
        <ele>224.4</ele>
        <time>2020-09-24T13:34:11Z</time>
      </trkpt>
      <trkpt lat="48.97031" lon="7.13734">
        <ele>224.6</ele>
        <time>2020-09-24T13:34:16Z</time>
      </trkpt>
      <trkpt lat="48.97085" lon="7.13758">
        <ele>224.6</ele>
        <time>2020-09-24T13:34:24Z</time>
      </trkpt>
      <trkpt lat="48.97134" lon="7.13791">
        <ele>224.6</ele>
        <time>2020-09-24T13:34:31Z</time>
      </trkpt>
      <trkpt lat="48.97189" lon="7.1383">
        <ele>224.8</ele>
        <time>2020-09-24T13:34:39Z</time>
      </trkpt>
      <trkpt lat="48.97196" lon="7.13836">
        <ele>224.8</ele>
        <time>2020-09-24T13:34:40Z</time>
      </trkpt>
      <trkpt lat="48.97237" lon="7.13872">
        <ele>224.8</ele>
        <time>2020-09-24T13:34:46Z</time>
      </trkpt>
      <trkpt lat="48.97284" lon="7.13913">
        <ele>224.6</ele>
        <time>2020-09-24T13:34:52Z</time>
      </trkpt>
      <trkpt lat="48.97291" lon="7.13919">
        <ele>224.6</ele>
        <time>2020-09-24T13:34:54Z</time>
      </trkpt>
      <trkpt lat="48.9734" lon="7.13962">
        <ele>224.4</ele>
        <time>2020-09-24T13:35:00Z</time>
      </trkpt>
      <trkpt lat="48.97354" lon="7.13974">
        <ele>224.4</ele>
        <time>2020-09-24T13:35:02Z</time>
      </trkpt>
      <trkpt lat="48.97397" lon="7.14012">
        <ele>224.2</ele>
        <time>2020-09-24T13:35:08Z</time>
      </trkpt>
      <trkpt lat="48.97447" lon="7.14056">
        <ele>223.8</ele>
        <time>2020-09-24T13:35:15Z</time>
      </trkpt>
      <trkpt lat="48.97493" lon="7.14097">
        <ele>223.6</ele>
        <time>2020-09-24T13:35:21Z</time>
      </trkpt>
      <trkpt lat="48.97534" lon="7.14144">
        <ele>223.4</ele>
        <time>2020-09-24T13:35:28Z</time>
      </trkpt>
      <trkpt lat="48.97579" lon="7.14201">
        <ele>223</ele>
        <time>2020-09-24T13:35:34Z</time>
      </trkpt>
      <trkpt lat="48.97615" lon="7.1425">
        <ele>223</ele>
        <time>2020-09-24T13:35:40Z</time>
      </trkpt>
      <trkpt lat="48.9766" lon="7.14312">
        <ele>223.2</ele>
        <time>2020-09-24T13:35:48Z</time>
      </trkpt>
      <trkpt lat="48.97697" lon="7.1436">
        <ele>223.6</ele>
        <time>2020-09-24T13:35:55Z</time>
      </trkpt>
      <trkpt lat="48.97738" lon="7.14398">
        <ele>223.4</ele>
        <time>2020-09-24T13:36:02Z</time>
      </trkpt>
      <trkpt lat="48.97782" lon="7.14435">
        <ele>223.4</ele>
        <time>2020-09-24T13:36:09Z</time>
      </trkpt>
      <trkpt lat="48.97837" lon="7.14467">
        <ele>223.6</ele>
        <time>2020-09-24T13:36:17Z</time>
      </trkpt>
      <trkpt lat="48.97844" lon="7.14471">
        <ele>223.6</ele>
        <time>2020-09-24T13:36:18Z</time>
      </trkpt>
      <trkpt lat="48.97897" lon="7.14488">
        <ele>223.6</ele>
        <time>2020-09-24T13:36:25Z</time>
      </trkpt>
      <trkpt lat="48.97952" lon="7.14496">
        <ele>223.4</ele>
        <time>2020-09-24T13:36:32Z</time>
      </trkpt>
      <trkpt lat="48.98011" lon="7.14496">
        <ele>223</ele>
        <time>2020-09-24T13:36:39Z</time>
      </trkpt>
      <trkpt lat="48.98019" lon="7.14494">
        <ele>223</ele>
        <time>2020-09-24T13:36:40Z</time>
      </trkpt>
      <trkpt lat="48.98076" lon="7.1448">
        <ele>222.6</ele>
        <time>2020-09-24T13:36:47Z</time>
      </trkpt>
      <trkpt lat="48.98131" lon="7.14455">
        <ele>222.2</ele>
        <time>2020-09-24T13:36:54Z</time>
      </trkpt>
      <trkpt lat="48.98173" lon="7.1443">
        <ele>222.2</ele>
        <time>2020-09-24T13:37:00Z</time>
      </trkpt>
      <trkpt lat="48.98217" lon="7.14393">
        <ele>221.8</ele>
        <time>2020-09-24T13:37:08Z</time>
      </trkpt>
      <trkpt lat="48.98264" lon="7.14352">
        <ele>221.6</ele>
        <time>2020-09-24T13:37:15Z</time>
      </trkpt>
      <trkpt lat="48.98314" lon="7.14317">
        <ele>221.6</ele>
        <time>2020-09-24T13:37:23Z</time>
      </trkpt>
      <trkpt lat="48.98366" lon="7.14283">
        <ele>221.2</ele>
        <time>2020-09-24T13:37:31Z</time>
      </trkpt>
      <trkpt lat="48.98424" lon="7.14264">
        <ele>221</ele>
        <time>2020-09-24T13:37:39Z</time>
      </trkpt>
      <trkpt lat="48.98483" lon="7.14253">
        <ele>220.8</ele>
        <time>2020-09-24T13:37:47Z</time>
      </trkpt>
      <trkpt lat="48.98527" lon="7.14251">
        <ele>220.8</ele>
        <time>2020-09-24T13:37:53Z</time>
      </trkpt>
      <trkpt lat="48.98563" lon="7.14253">
        <ele>220.6</ele>
        <time>2020-09-24T13:37:58Z</time>
      </trkpt>
      <trkpt lat="48.9862" lon="7.14255">
        <ele>220.6</ele>
        <time>2020-09-24T13:38:06Z</time>
      </trkpt>
      <trkpt lat="48.98634" lon="7.14255">
        <ele>220.6</ele>
        <time>2020-09-24T13:38:08Z</time>
      </trkpt>
      <trkpt lat="48.98683" lon="7.14257">
        <ele>220.6</ele>
        <time>2020-09-24T13:38:15Z</time>
      </trkpt>
      <trkpt lat="48.9871" lon="7.14258">
        <ele>220.8</ele>
        <time>2020-09-24T13:38:19Z</time>
      </trkpt>
      <trkpt lat="48.9876" lon="7.14259">
        <ele>221.2</ele>
        <time>2020-09-24T13:38:26Z</time>
      </trkpt>
      <trkpt lat="48.98802" lon="7.14252">
        <ele>221.4</ele>
        <time>2020-09-24T13:38:32Z</time>
      </trkpt>
      <trkpt lat="48.98861" lon="7.14239">
        <ele>221.4</ele>
        <time>2020-09-24T13:38:40Z</time>
      </trkpt>
      <trkpt lat="48.98905" lon="7.14216">
        <ele>221.4</ele>
        <time>2020-09-24T13:38:46Z</time>
      </trkpt>
      <trkpt lat="48.98949" lon="7.14193">
        <ele>221.4</ele>
        <time>2020-09-24T13:38:52Z</time>
      </trkpt>
      <trkpt lat="48.98989" lon="7.14155">
        <ele>221.2</ele>
        <time>2020-09-24T13:38:58Z</time>
      </trkpt>
      <trkpt lat="48.99028" lon="7.14117">
        <ele>221</ele>
        <time>2020-09-24T13:39:04Z</time>
      </trkpt>
      <trkpt lat="48.99065" lon="7.14066">
        <ele>220.8</ele>
        <time>2020-09-24T13:39:11Z</time>
      </trkpt>
      <trkpt lat="48.99097" lon="7.14013">
        <ele>220.6</ele>
        <time>2020-09-24T13:39:18Z</time>
      </trkpt>
      <trkpt lat="48.99131" lon="7.13945">
        <ele>220.6</ele>
        <time>2020-09-24T13:39:27Z</time>
      </trkpt>
      <trkpt lat="48.99157" lon="7.13891">
        <ele>220.8</ele>
        <time>2020-09-24T13:39:35Z</time>
      </trkpt>
      <trkpt lat="48.99184" lon="7.13837">
        <ele>220.8</ele>
        <time>2020-09-24T13:39:43Z</time>
      </trkpt>
      <trkpt lat="48.99211" lon="7.13786">
        <ele>221.2</ele>
        <time>2020-09-24T13:39:51Z</time>
      </trkpt>
      <trkpt lat="48.99238" lon="7.13741">
        <ele>221.6</ele>
        <time>2020-09-24T13:39:59Z</time>
      </trkpt>
      <trkpt lat="48.99267" lon="7.1369">
        <ele>221.8</ele>
        <time>2020-09-24T13:40:08Z</time>
      </trkpt>
      <trkpt lat="48.9929" lon="7.13652">
        <ele>221.8</ele>
        <time>2020-09-24T13:40:14Z</time>
      </trkpt>
      <trkpt lat="48.99319" lon="7.13603">
        <ele>221.8</ele>
        <time>2020-09-24T13:40:21Z</time>
      </trkpt>
      <trkpt lat="48.9935" lon="7.13548">
        <ele>221.6</ele>
        <time>2020-09-24T13:40:28Z</time>
      </trkpt>
      <trkpt lat="48.99385" lon="7.13488">
        <ele>221.2</ele>
        <time>2020-09-24T13:40:35Z</time>
      </trkpt>
      <trkpt lat="48.99421" lon="7.13428">
        <ele>220.8</ele>
        <time>2020-09-24T13:40:42Z</time>
      </trkpt>
      <trkpt lat="48.99458" lon="7.13366">
        <ele>220.2</ele>
        <time>2020-09-24T13:40:49Z</time>
      </trkpt>
      <trkpt lat="48.99487" lon="7.1333">
        <ele>220</ele>
        <time>2020-09-24T13:40:54Z</time>
      </trkpt>
      <trkpt lat="48.99531" lon="7.13289">
        <ele>220</ele>
        <time>2020-09-24T13:41:01Z</time>
      </trkpt>
      <trkpt lat="48.9958" lon="7.13256">
        <ele>219.6</ele>
        <time>2020-09-24T13:41:09Z</time>
      </trkpt>
      <trkpt lat="48.99611" lon="7.13237">
        <ele>220.2</ele>
        <time>2020-09-24T13:41:14Z</time>
      </trkpt>
      <trkpt lat="48.99635" lon="7.13222">
        <ele>220.2</ele>
        <time>2020-09-24T13:41:18Z</time>
      </trkpt>
      <trkpt lat="48.99676" lon="7.13197">
        <ele>220.4</ele>
        <time>2020-09-24T13:41:25Z</time>
      </trkpt>
      <trkpt lat="48.99729" lon="7.13169">
        <ele>220.4</ele>
        <time>2020-09-24T13:41:34Z</time>
      </trkpt>
      <trkpt lat="48.99766" lon="7.13157">
        <ele>220.6</ele>
        <time>2020-09-24T13:41:40Z</time>
      </trkpt>
      <trkpt lat="48.99818" lon="7.13145">
        <ele>220.2</ele>
        <time>2020-09-24T13:41:48Z</time>
      </trkpt>
      <trkpt lat="48.99877" lon="7.13137">
        <ele>219.6</ele>
        <time>2020-09-24T13:41:57Z</time>
      </trkpt>
      <trkpt lat="48.99915" lon="7.13131">
        <ele>219.4</ele>
        <time>2020-09-24T13:42:03Z</time>
      </trkpt>
      <trkpt lat="48.99961" lon="7.13124">
        <ele>219</ele>
        <time>2020-09-24T13:42:10Z</time>
      </trkpt>
      <trkpt lat="48.99988" lon="7.13119">
        <ele>219</ele>
        <time>2020-09-24T13:42:14Z</time>
      </trkpt>
      <trkpt lat="49" lon="7.13106">
        <ele>218.8</ele>
        <time>2020-09-24T13:42:16Z</time>
      </trkpt>
      <trkpt lat="49.00016" lon="7.13085">
        <ele>218.8</ele>
        <time>2020-09-24T13:42:19Z</time>
      </trkpt>
      <trkpt lat="49.00025" lon="7.1307">
        <ele>218.6</ele>
        <time>2020-09-24T13:42:21Z</time>
      </trkpt>
      <trkpt lat="49.00029" lon="7.1306">
        <ele>218.6</ele>
        <time>2020-09-24T13:42:22Z</time>
      </trkpt>
      <trkpt lat="49.0004" lon="7.13021">
        <ele>218.4</ele>
        <time>2020-09-24T13:42:26Z</time>
      </trkpt>
      <trkpt lat="49.00055" lon="7.12946">
        <ele>218.2</ele>
        <time>2020-09-24T13:42:34Z</time>
      </trkpt>
      <trkpt lat="49.00059" lon="7.12898">
        <ele>218</ele>
        <time>2020-09-24T13:42:40Z</time>
      </trkpt>
      <trkpt lat="49.00063" lon="7.12862">
        <ele>217.8</ele>
        <time>2020-09-24T13:42:46Z</time>
      </trkpt>
      <trkpt lat="49.00067" lon="7.12822">
        <ele>218.4</ele>
        <time>2020-09-24T13:42:53Z</time>
      </trkpt>
      <trkpt lat="49.00072" lon="7.1277">
        <ele>218.6</ele>
        <time>2020-09-24T13:43:01Z</time>
      </trkpt>
      <trkpt lat="49.00078" lon="7.12707">
        <ele>218.6</ele>
        <time>2020-09-24T13:43:10Z</time>
      </trkpt>
      <trkpt lat="49.00089" lon="7.12646">
        <ele>219</ele>
        <time>2020-09-24T13:43:19Z</time>
      </trkpt>
      <trkpt lat="49.00098" lon="7.12605">
        <ele>219.4</ele>
        <time>2020-09-24T13:43:26Z</time>
      </trkpt>
      <trkpt lat="49.00105" lon="7.12576">
        <ele>219.8</ele>
        <time>2020-09-24T13:43:31Z</time>
      </trkpt>
      <trkpt lat="49.00119" lon="7.12531">
        <ele>220.4</ele>
        <time>2020-09-24T13:43:40Z</time>
      </trkpt>
      <trkpt lat="49.00135" lon="7.12489">
        <ele>221.2</ele>
        <time>2020-09-24T13:43:49Z</time>
      </trkpt>
      <trkpt lat="49.00147" lon="7.12458">
        <ele>222</ele>
        <time>2020-09-24T13:43:56Z</time>
      </trkpt>
      <trkpt lat="49.0016" lon="7.12426">
        <ele>222.6</ele>
        <time>2020-09-24T13:44:05Z</time>
      </trkpt>
      <trkpt lat="49.00168" lon="7.12404">
        <ele>223.6</ele>
        <time>2020-09-24T13:44:11Z</time>
      </trkpt>
      <trkpt lat="49.00179" lon="7.12376">
        <ele>224.6</ele>
        <time>2020-09-24T13:44:19Z</time>
      </trkpt>
      <trkpt lat="49.00189" lon="7.1235">
        <ele>225.8</ele>
        <time>2020-09-24T13:44:26Z</time>
      </trkpt>
      <trkpt lat="49.00199" lon="7.12324">
        <ele>227</ele>
        <time>2020-09-24T13:44:33Z</time>
      </trkpt>
      <trkpt lat="49.0021" lon="7.12298">
        <ele>228.2</ele>
        <time>2020-09-24T13:44:41Z</time>
      </trkpt>
      <trkpt lat="49.00221" lon="7.12268">
        <ele>229.4</ele>
        <time>2020-09-24T13:44:50Z</time>
      </trkpt>
      <trkpt lat="49.00234" lon="7.12236">
        <ele>230.8</ele>
        <time>2020-09-24T13:45:00Z</time>
      </trkpt>
      <trkpt lat="49.00242" lon="7.12213">
        <ele>232</ele>
        <time>2020-09-24T13:45:07Z</time>
      </trkpt>
      <trkpt lat="49.00254" lon="7.1218">
        <ele>233.4</ele>
        <time>2020-09-24T13:45:17Z</time>
      </trkpt>
      <trkpt lat="49.00263" lon="7.12153">
        <ele>234.6</ele>
        <time>2020-09-24T13:45:25Z</time>
      </trkpt>
      <trkpt lat="49.00276" lon="7.12113">
        <ele>236.4</ele>
        <time>2020-09-24T13:45:36Z</time>
      </trkpt>
      <trkpt lat="49.00283" lon="7.1208">
        <ele>237.6</ele>
        <time>2020-09-24T13:45:45Z</time>
      </trkpt>
      <trkpt lat="49.00289" lon="7.12052">
        <ele>238.6</ele>
        <time>2020-09-24T13:45:53Z</time>
      </trkpt>
      <trkpt lat="49.00294" lon="7.12019">
        <ele>240.2</ele>
        <time>2020-09-24T13:46:02Z</time>
      </trkpt>
      <trkpt lat="49.00298" lon="7.11986">
        <ele>242</ele>
        <time>2020-09-24T13:46:11Z</time>
      </trkpt>
      <trkpt lat="49.00302" lon="7.11954">
        <ele>244.2</ele>
        <time>2020-09-24T13:46:19Z</time>
      </trkpt>
      <trkpt lat="49.00304" lon="7.11918">
        <ele>246.2</ele>
        <time>2020-09-24T13:46:28Z</time>
      </trkpt>
      <trkpt lat="49.00304" lon="7.1189">
        <ele>247.6</ele>
        <time>2020-09-24T13:46:35Z</time>
      </trkpt>
      <trkpt lat="49.00305" lon="7.11849">
        <ele>249.8</ele>
        <time>2020-09-24T13:46:45Z</time>
      </trkpt>
      <trkpt lat="49.00305" lon="7.11817">
        <ele>251.6</ele>
        <time>2020-09-24T13:46:53Z</time>
      </trkpt>
      <trkpt lat="49.00306" lon="7.11782">
        <ele>253.6</ele>
        <time>2020-09-24T13:47:02Z</time>
      </trkpt>
      <trkpt lat="49.00306" lon="7.11736">
        <ele>256.4</ele>
        <time>2020-09-24T13:47:14Z</time>
      </trkpt>
      <trkpt lat="49.00306" lon="7.11698">
        <ele>258.8</ele>
        <time>2020-09-24T13:47:24Z</time>
      </trkpt>
      <trkpt lat="49.00306" lon="7.11664">
        <ele>261</ele>
        <time>2020-09-24T13:47:33Z</time>
      </trkpt>
      <trkpt lat="49.00308" lon="7.11626">
        <ele>263.4</ele>
        <time>2020-09-24T13:47:43Z</time>
      </trkpt>
      <trkpt lat="49.00313" lon="7.11596">
        <ele>265.2</ele>
        <time>2020-09-24T13:47:51Z</time>
      </trkpt>
      <trkpt lat="49.00322" lon="7.11563">
        <ele>267.2</ele>
        <time>2020-09-24T13:48:00Z</time>
      </trkpt>
      <trkpt lat="49.00328" lon="7.11537">
        <ele>268.6</ele>
        <time>2020-09-24T13:48:07Z</time>
      </trkpt>
      <trkpt lat="49.00336" lon="7.11507">
        <ele>270.2</ele>
        <time>2020-09-24T13:48:15Z</time>
      </trkpt>
      <trkpt lat="49.00343" lon="7.1148">
        <ele>271.6</ele>
        <time>2020-09-24T13:48:22Z</time>
      </trkpt>
      <trkpt lat="49.00347" lon="7.11468">
        <ele>272.6</ele>
        <time>2020-09-24T13:48:28Z</time>
      </trkpt>
      <trkpt lat="49.00347" lon="7.11468">
        <ele>273.6</ele>
        <time>2020-09-24T13:48:34Z</time>
      </trkpt>
      <trkpt lat="49.00347" lon="7.11468">
        <ele>276.6</ele>
        <time>2020-09-24T13:48:56Z</time>
      </trkpt>
      <trkpt lat="49.00347" lon="7.11468">
        <ele>279.4</ele>
        <time>2020-09-24T13:49:23Z</time>
      </trkpt>
      <trkpt lat="49.00347" lon="7.11468">
        <ele>281</ele>
        <time>2020-09-24T13:49:43Z</time>
      </trkpt>
      <trkpt lat="49.00347" lon="7.11468">
        <ele>282.4</ele>
        <time>2020-09-24T13:50:05Z</time>
      </trkpt>
      <trkpt lat="49.00346" lon="7.11469">
        <ele>283.2</ele>
        <time>2020-09-24T13:50:24Z</time>
      </trkpt>
      <trkpt lat="49.00348" lon="7.11463">
        <ele>283.4</ele>
        <time>2020-09-24T13:50:32Z</time>
      </trkpt>
      <trkpt lat="49.00352" lon="7.11449">
        <ele>284</ele>
        <time>2020-09-24T13:50:43Z</time>
      </trkpt>
      <trkpt lat="49.00354" lon="7.11439">
        <ele>284.2</ele>
        <time>2020-09-24T13:50:47Z</time>
      </trkpt>
      <trkpt lat="49.00359" lon="7.11422">
        <ele>284</ele>
        <time>2020-09-24T13:50:51Z</time>
      </trkpt>
      <trkpt lat="49.0037" lon="7.11381">
        <ele>284.2</ele>
        <time>2020-09-24T13:50:59Z</time>
      </trkpt>
      <trkpt lat="49.00374" lon="7.11363">
        <ele>284.2</ele>
        <time>2020-09-24T13:51:03Z</time>
      </trkpt>
      <trkpt lat="49.00385" lon="7.11323">
        <ele>284.4</ele>
        <time>2020-09-24T13:51:10Z</time>
      </trkpt>
      <trkpt lat="49.00388" lon="7.1131">
        <ele>284.4</ele>
        <time>2020-09-24T13:51:12Z</time>
      </trkpt>
      <trkpt lat="49.00396" lon="7.11281">
        <ele>284.2</ele>
        <time>2020-09-24T13:51:16Z</time>
      </trkpt>
      <trkpt lat="49.0041" lon="7.11227">
        <ele>284.2</ele>
        <time>2020-09-24T13:51:23Z</time>
      </trkpt>
      <trkpt lat="49.00426" lon="7.11159">
        <ele>283.8</ele>
        <time>2020-09-24T13:51:31Z</time>
      </trkpt>
      <trkpt lat="49.00438" lon="7.11108">
        <ele>284</ele>
        <time>2020-09-24T13:51:37Z</time>
      </trkpt>
      <trkpt lat="49.0044" lon="7.111">
        <ele>284</ele>
        <time>2020-09-24T13:51:38Z</time>
      </trkpt>
      <trkpt lat="49.00448" lon="7.11067">
        <ele>283.8</ele>
        <time>2020-09-24T13:51:42Z</time>
      </trkpt>
      <trkpt lat="49.0046" lon="7.11018">
        <ele>283.6</ele>
        <time>2020-09-24T13:51:48Z</time>
      </trkpt>
      <trkpt lat="49.00474" lon="7.10961">
        <ele>283.6</ele>
        <time>2020-09-24T13:51:55Z</time>
      </trkpt>
      <trkpt lat="49.0049" lon="7.10893">
        <ele>283.2</ele>
        <time>2020-09-24T13:52:03Z</time>
      </trkpt>
      <trkpt lat="49.00508" lon="7.10819">
        <ele>282.8</ele>
        <time>2020-09-24T13:52:11Z</time>
      </trkpt>
      <trkpt lat="49.00527" lon="7.10742">
        <ele>282</ele>
        <time>2020-09-24T13:52:19Z</time>
      </trkpt>
      <trkpt lat="49.00529" lon="7.10732">
        <ele>281.8</ele>
        <time>2020-09-24T13:52:20Z</time>
      </trkpt>
      <trkpt lat="49.00549" lon="7.10653">
        <ele>280.8</ele>
        <time>2020-09-24T13:52:28Z</time>
      </trkpt>
      <trkpt lat="49.00551" lon="7.10643">
        <ele>280.8</ele>
        <time>2020-09-24T13:52:29Z</time>
      </trkpt>
      <trkpt lat="49.00571" lon="7.10565">
        <ele>279.8</ele>
        <time>2020-09-24T13:52:37Z</time>
      </trkpt>
      <trkpt lat="49.00574" lon="7.10555">
        <ele>279.6</ele>
        <time>2020-09-24T13:52:38Z</time>
      </trkpt>
      <trkpt lat="49.00591" lon="7.10488">
        <ele>278.8</ele>
        <time>2020-09-24T13:52:45Z</time>
      </trkpt>
      <trkpt lat="49.00611" lon="7.1041">
        <ele>277.8</ele>
        <time>2020-09-24T13:52:53Z</time>
      </trkpt>
      <trkpt lat="49.00613" lon="7.104">
        <ele>277.6</ele>
        <time>2020-09-24T13:52:54Z</time>
      </trkpt>
      <trkpt lat="49.00633" lon="7.10323">
        <ele>276.8</ele>
        <time>2020-09-24T13:53:02Z</time>
      </trkpt>
      <trkpt lat="49.00656" lon="7.10236">
        <ele>275.8</ele>
        <time>2020-09-24T13:53:11Z</time>
      </trkpt>
      <trkpt lat="49.00658" lon="7.10226">
        <ele>275.8</ele>
        <time>2020-09-24T13:53:12Z</time>
      </trkpt>
      <trkpt lat="49.00679" lon="7.10145">
        <ele>275</ele>
        <time>2020-09-24T13:53:20Z</time>
      </trkpt>
      <trkpt lat="49.007" lon="7.10066">
        <ele>273.8</ele>
        <time>2020-09-24T13:53:28Z</time>
      </trkpt>
      <trkpt lat="49.00707" lon="7.10036">
        <ele>273.4</ele>
        <time>2020-09-24T13:53:31Z</time>
      </trkpt>
      <trkpt lat="49.00728" lon="7.09957">
        <ele>272.4</ele>
        <time>2020-09-24T13:53:39Z</time>
      </trkpt>
      <trkpt lat="49.00743" lon="7.09898">
        <ele>271.8</ele>
        <time>2020-09-24T13:53:45Z</time>
      </trkpt>
      <trkpt lat="49.00761" lon="7.0983">
        <ele>270.8</ele>
        <time>2020-09-24T13:53:52Z</time>
      </trkpt>
      <trkpt lat="49.00781" lon="7.09752">
        <ele>269.8</ele>
        <time>2020-09-24T13:54:00Z</time>
      </trkpt>
      <trkpt lat="49.00788" lon="7.09734">
        <ele>269.4</ele>
        <time>2020-09-24T13:54:02Z</time>
      </trkpt>
      <trkpt lat="49.00811" lon="7.0968">
        <ele>268.8</ele>
        <time>2020-09-24T13:54:08Z</time>
      </trkpt>
      <trkpt lat="49.00843" lon="7.09608">
        <ele>267.8</ele>
        <time>2020-09-24T13:54:16Z</time>
      </trkpt>
      <trkpt lat="49.00847" lon="7.096">
        <ele>267.6</ele>
        <time>2020-09-24T13:54:17Z</time>
      </trkpt>
      <trkpt lat="49.0087" lon="7.09548">
        <ele>266.8</ele>
        <time>2020-09-24T13:54:23Z</time>
      </trkpt>
      <trkpt lat="49.00885" lon="7.09512">
        <ele>266</ele>
        <time>2020-09-24T13:54:27Z</time>
      </trkpt>
      <trkpt lat="49.0089" lon="7.09503">
        <ele>266</ele>
        <time>2020-09-24T13:54:28Z</time>
      </trkpt>
      <trkpt lat="49.00918" lon="7.09439">
        <ele>265</ele>
        <time>2020-09-24T13:54:35Z</time>
      </trkpt>
      <trkpt lat="49.00943" lon="7.09376">
        <ele>264</ele>
        <time>2020-09-24T13:54:42Z</time>
      </trkpt>
      <trkpt lat="49.00969" lon="7.0931">
        <ele>263</ele>
        <time>2020-09-24T13:54:49Z</time>
      </trkpt>
      <trkpt lat="49.00991" lon="7.09254">
        <ele>262.2</ele>
        <time>2020-09-24T13:54:55Z</time>
      </trkpt>
      <trkpt lat="49.01005" lon="7.09243">
        <ele>262</ele>
        <time>2020-09-24T13:54:57Z</time>
      </trkpt>
      <trkpt lat="49.01006" lon="7.09217">
        <ele>261.6</ele>
        <time>2020-09-24T13:54:59Z</time>
      </trkpt>
      <trkpt lat="49.01011" lon="7.09209">
        <ele>261.4</ele>
        <time>2020-09-24T13:55:00Z</time>
      </trkpt>
      <trkpt lat="49.0102" lon="7.09191">
        <ele>261</ele>
        <time>2020-09-24T13:55:02Z</time>
      </trkpt>
      <trkpt lat="49.01025" lon="7.09182">
        <ele>260.8</ele>
        <time>2020-09-24T13:55:03Z</time>
      </trkpt>
      <trkpt lat="49.01059" lon="7.09115">
        <ele>259.6</ele>
        <time>2020-09-24T13:55:10Z</time>
      </trkpt>
      <trkpt lat="49.01091" lon="7.09054">
        <ele>258.2</ele>
        <time>2020-09-24T13:55:16Z</time>
      </trkpt>
      <trkpt lat="49.01129" lon="7.08981">
        <ele>256.2</ele>
        <time>2020-09-24T13:55:23Z</time>
      </trkpt>
      <trkpt lat="49.01167" lon="7.08907">
        <ele>254.2</ele>
        <time>2020-09-24T13:55:30Z</time>
      </trkpt>
      <trkpt lat="49.01201" lon="7.08839">
        <ele>252.6</ele>
        <time>2020-09-24T13:55:36Z</time>
      </trkpt>
      <trkpt lat="49.01219" lon="7.08805">
        <ele>251.6</ele>
        <time>2020-09-24T13:55:39Z</time>
      </trkpt>
      <trkpt lat="49.01254" lon="7.08737">
        <ele>249.8</ele>
        <time>2020-09-24T13:55:45Z</time>
      </trkpt>
      <trkpt lat="49.01277" lon="7.08692">
        <ele>248.4</ele>
        <time>2020-09-24T13:55:49Z</time>
      </trkpt>
      <trkpt lat="49.01312" lon="7.08626">
        <ele>246.4</ele>
        <time>2020-09-24T13:55:55Z</time>
      </trkpt>
      <trkpt lat="49.01339" lon="7.08577">
        <ele>245</ele>
        <time>2020-09-24T13:56:00Z</time>
      </trkpt>
      <trkpt lat="49.01356" lon="7.08546">
        <ele>243.8</ele>
        <time>2020-09-24T13:56:04Z</time>
      </trkpt>
      <trkpt lat="49.01379" lon="7.08504">
        <ele>242.6</ele>
        <time>2020-09-24T13:56:09Z</time>
      </trkpt>
      <trkpt lat="49.01414" lon="7.08443">
        <ele>240.8</ele>
        <time>2020-09-24T13:56:16Z</time>
      </trkpt>
      <trkpt lat="49.01445" lon="7.08395">
        <ele>238.6</ele>
        <time>2020-09-24T13:56:22Z</time>
      </trkpt>
      <trkpt lat="49.01472" lon="7.08338">
        <ele>236.8</ele>
        <time>2020-09-24T13:56:28Z</time>
      </trkpt>
      <trkpt lat="49.0148" lon="7.08319">
        <ele>236.2</ele>
        <time>2020-09-24T13:56:30Z</time>
      </trkpt>
      <trkpt lat="49.01487" lon="7.083">
        <ele>235.6</ele>
        <time>2020-09-24T13:56:32Z</time>
      </trkpt>
      <trkpt lat="49.01504" lon="7.08259">
        <ele>234.2</ele>
        <time>2020-09-24T13:56:36Z</time>
      </trkpt>
      <trkpt lat="49.01509" lon="7.08248">
        <ele>233.8</ele>
        <time>2020-09-24T13:56:37Z</time>
      </trkpt>
      <trkpt lat="49.01536" lon="7.08192">
        <ele>231.8</ele>
        <time>2020-09-24T13:56:42Z</time>
      </trkpt>
      <trkpt lat="49.01567" lon="7.08137">
        <ele>230</ele>
        <time>2020-09-24T13:56:47Z</time>
      </trkpt>
      <trkpt lat="49.0158" lon="7.08118">
        <ele>229.2</ele>
        <time>2020-09-24T13:56:49Z</time>
      </trkpt>
      <trkpt lat="49.01596" lon="7.08089">
        <ele>228.4</ele>
        <time>2020-09-24T13:56:52Z</time>
      </trkpt>
      <trkpt lat="49.01607" lon="7.08071">
        <ele>228</ele>
        <time>2020-09-24T13:56:54Z</time>
      </trkpt>
      <trkpt lat="49.01622" lon="7.08048">
        <ele>227.4</ele>
        <time>2020-09-24T13:56:57Z</time>
      </trkpt>
      <trkpt lat="49.01662" lon="7.0799">
        <ele>226</ele>
        <time>2020-09-24T13:57:05Z</time>
      </trkpt>
      <trkpt lat="49.01702" lon="7.07934">
        <ele>224</ele>
        <time>2020-09-24T13:57:13Z</time>
      </trkpt>
      <trkpt lat="49.01707" lon="7.07926">
        <ele>223.8</ele>
        <time>2020-09-24T13:57:14Z</time>
      </trkpt>
      <trkpt lat="49.01731" lon="7.07893">
        <ele>222.4</ele>
        <time>2020-09-24T13:57:19Z</time>
      </trkpt>
      <trkpt lat="49.01746" lon="7.07876">
        <ele>222.2</ele>
        <time>2020-09-24T13:57:20Z</time>
      </trkpt>
      <trkpt lat="49.0175" lon="7.07867">
        <ele>221.8</ele>
        <time>2020-09-24T13:57:22Z</time>
      </trkpt>
      <trkpt lat="49.01755" lon="7.07859">
        <ele>221.4</ele>
        <time>2020-09-24T13:57:23Z</time>
      </trkpt>
      <trkpt lat="49.01776" lon="7.0783">
        <ele>220.8</ele>
        <time>2020-09-24T13:57:27Z</time>
      </trkpt>
      <trkpt lat="49.01804" lon="7.07796">
        <ele>220</ele>
        <time>2020-09-24T13:57:32Z</time>
      </trkpt>
      <trkpt lat="49.01838" lon="7.07755">
        <ele>219.4</ele>
        <time>2020-09-24T13:57:39Z</time>
      </trkpt>
      <trkpt lat="49.0185" lon="7.0774">
        <ele>219.2</ele>
        <time>2020-09-24T13:57:42Z</time>
      </trkpt>
      <trkpt lat="49.01857" lon="7.07731">
        <ele>219</ele>
        <time>2020-09-24T13:57:44Z</time>
      </trkpt>
      <trkpt lat="49.01865" lon="7.07719">
        <ele>218.8</ele>
        <time>2020-09-24T13:57:46Z</time>
      </trkpt>
      <trkpt lat="49.01879" lon="7.07698">
        <ele>218.6</ele>
        <time>2020-09-24T13:57:50Z</time>
      </trkpt>
      <trkpt lat="49.01898" lon="7.0767">
        <ele>218.4</ele>
        <time>2020-09-24T13:57:55Z</time>
      </trkpt>
      <trkpt lat="49.01927" lon="7.07628">
        <ele>218.2</ele>
        <time>2020-09-24T13:58:03Z</time>
      </trkpt>
      <trkpt lat="49.01946" lon="7.07599">
        <ele>218.2</ele>
        <time>2020-09-24T13:58:09Z</time>
      </trkpt>
      <trkpt lat="49.01964" lon="7.07586">
        <ele>217.8</ele>
        <time>2020-09-24T13:58:15Z</time>
      </trkpt>
      <trkpt lat="49.01975" lon="7.07584">
        <ele>217.8</ele>
        <time>2020-09-24T13:58:19Z</time>
      </trkpt>
      <trkpt lat="49.01987" lon="7.07587">
        <ele>218</ele>
        <time>2020-09-24T13:58:23Z</time>
      </trkpt>
      <trkpt lat="49.01989" lon="7.07592">
        <ele>217.8</ele>
        <time>2020-09-24T13:58:24Z</time>
      </trkpt>
      <trkpt lat="49.01996" lon="7.07621">
        <ele>217.6</ele>
        <time>2020-09-24T13:58:28Z</time>
      </trkpt>
      <trkpt lat="49.02004" lon="7.07662">
        <ele>217.2</ele>
        <time>2020-09-24T13:58:32Z</time>
      </trkpt>
      <trkpt lat="49.02004" lon="7.07674">
        <ele>217</ele>
        <time>2020-09-24T13:58:33Z</time>
      </trkpt>
      <trkpt lat="49.02012" lon="7.07759">
        <ele>216.4</ele>
        <time>2020-09-24T13:58:41Z</time>
      </trkpt>
      <trkpt lat="49.02013" lon="7.0777">
        <ele>216.4</ele>
        <time>2020-09-24T13:58:42Z</time>
      </trkpt>
      <trkpt lat="49.02019" lon="7.07848">
        <ele>216.2</ele>
        <time>2020-09-24T13:58:50Z</time>
      </trkpt>
      <trkpt lat="49.02028" lon="7.07914">
        <ele>215.8</ele>
        <time>2020-09-24T13:58:57Z</time>
      </trkpt>
      <trkpt lat="49.02039" lon="7.0799">
        <ele>215.4</ele>
        <time>2020-09-24T13:59:05Z</time>
      </trkpt>
      <trkpt lat="49.0205" lon="7.08066">
        <ele>215.2</ele>
        <time>2020-09-24T13:59:13Z</time>
      </trkpt>
      <trkpt lat="49.02061" lon="7.08142">
        <ele>215</ele>
        <time>2020-09-24T13:59:21Z</time>
      </trkpt>
      <trkpt lat="49.02065" lon="7.08171">
        <ele>214.8</ele>
        <time>2020-09-24T13:59:24Z</time>
      </trkpt>
      <trkpt lat="49.02067" lon="7.08186">
        <ele>214.8</ele>
        <time>2020-09-24T13:59:26Z</time>
      </trkpt>
      <trkpt lat="49.02069" lon="7.08198">
        <ele>214.8</ele>
        <time>2020-09-24T13:59:28Z</time>
      </trkpt>
      <trkpt lat="49.02071" lon="7.08213">
        <ele>214.8</ele>
        <time>2020-09-24T13:59:30Z</time>
      </trkpt>
      <trkpt lat="49.02081" lon="7.08271">
        <ele>214.6</ele>
        <time>2020-09-24T13:59:36Z</time>
      </trkpt>
      <trkpt lat="49.02094" lon="7.08354">
        <ele>213.8</ele>
        <time>2020-09-24T13:59:44Z</time>
      </trkpt>
      <trkpt lat="49.02097" lon="7.08375">
        <ele>213.8</ele>
        <time>2020-09-24T13:59:46Z</time>
      </trkpt>
      <trkpt lat="49.02111" lon="7.08458">
        <ele>213.4</ele>
        <time>2020-09-24T13:59:54Z</time>
      </trkpt>
      <trkpt lat="49.02114" lon="7.08479">
        <ele>213.4</ele>
        <time>2020-09-24T13:59:56Z</time>
      </trkpt>
      <trkpt lat="49.02129" lon="7.08559">
        <ele>213.2</ele>
        <time>2020-09-24T14:00:04Z</time>
      </trkpt>
      <trkpt lat="49.02146" lon="7.08638">
        <ele>212.8</ele>
        <time>2020-09-24T14:00:12Z</time>
      </trkpt>
      <trkpt lat="49.0215" lon="7.08658">
        <ele>213</ele>
        <time>2020-09-24T14:00:14Z</time>
      </trkpt>
      <trkpt lat="49.02172" lon="7.08734">
        <ele>212.8</ele>
        <time>2020-09-24T14:00:22Z</time>
      </trkpt>
      <trkpt lat="49.02178" lon="7.08753">
        <ele>212.6</ele>
        <time>2020-09-24T14:00:24Z</time>
      </trkpt>
      <trkpt lat="49.02195" lon="7.08808">
        <ele>212.4</ele>
        <time>2020-09-24T14:00:30Z</time>
      </trkpt>
      <trkpt lat="49.02217" lon="7.08878">
        <ele>212.2</ele>
        <time>2020-09-24T14:00:38Z</time>
      </trkpt>
      <trkpt lat="49.02241" lon="7.08939">
        <ele>212</ele>
        <time>2020-09-24T14:00:46Z</time>
      </trkpt>
      <trkpt lat="49.02244" lon="7.08946">
        <ele>212</ele>
        <time>2020-09-24T14:00:47Z</time>
      </trkpt>
      <trkpt lat="49.0227" lon="7.09005">
        <ele>211.8</ele>
        <time>2020-09-24T14:00:55Z</time>
      </trkpt>
      <trkpt lat="49.023" lon="7.09063">
        <ele>211.6</ele>
        <time>2020-09-24T14:01:03Z</time>
      </trkpt>
      <trkpt lat="49.02331" lon="7.0912">
        <ele>211.4</ele>
        <time>2020-09-24T14:01:11Z</time>
      </trkpt>
      <trkpt lat="49.02371" lon="7.09185">
        <ele>211.4</ele>
        <time>2020-09-24T14:01:20Z</time>
      </trkpt>
      <trkpt lat="49.02414" lon="7.09248">
        <ele>211.4</ele>
        <time>2020-09-24T14:01:29Z</time>
      </trkpt>
      <trkpt lat="49.02419" lon="7.09254">
        <ele>211.4</ele>
        <time>2020-09-24T14:01:30Z</time>
      </trkpt>
      <trkpt lat="49.0246" lon="7.09308">
        <ele>211.2</ele>
        <time>2020-09-24T14:01:38Z</time>
      </trkpt>
      <trkpt lat="49.02465" lon="7.09315">
        <ele>211.2</ele>
        <time>2020-09-24T14:01:39Z</time>
      </trkpt>
      <trkpt lat="49.02513" lon="7.0937">
        <ele>211</ele>
        <time>2020-09-24T14:01:48Z</time>
      </trkpt>
      <trkpt lat="49.02558" lon="7.09416">
        <ele>211</ele>
        <time>2020-09-24T14:01:56Z</time>
      </trkpt>
      <trkpt lat="49.02564" lon="7.09422">
        <ele>211</ele>
        <time>2020-09-24T14:01:57Z</time>
      </trkpt>
      <trkpt lat="49.02604" lon="7.09463">
        <ele>210.8</ele>
        <time>2020-09-24T14:02:04Z</time>
      </trkpt>
      <trkpt lat="49.02651" lon="7.09511">
        <ele>210.6</ele>
        <time>2020-09-24T14:02:12Z</time>
      </trkpt>
      <trkpt lat="49.02656" lon="7.09517">
        <ele>210.6</ele>
        <time>2020-09-24T14:02:13Z</time>
      </trkpt>
      <trkpt lat="49.02702" lon="7.09564">
        <ele>210.8</ele>
        <time>2020-09-24T14:02:21Z</time>
      </trkpt>
      <trkpt lat="49.02708" lon="7.0957">
        <ele>210.8</ele>
        <time>2020-09-24T14:02:22Z</time>
      </trkpt>
      <trkpt lat="49.02754" lon="7.09617">
        <ele>210.6</ele>
        <time>2020-09-24T14:02:30Z</time>
      </trkpt>
      <trkpt lat="49.02771" lon="7.09635">
        <ele>210.6</ele>
        <time>2020-09-24T14:02:33Z</time>
      </trkpt>
      <trkpt lat="49.02815" lon="7.09687">
        <ele>210.8</ele>
        <time>2020-09-24T14:02:41Z</time>
      </trkpt>
      <trkpt lat="49.02832" lon="7.09708">
        <ele>210.8</ele>
        <time>2020-09-24T14:02:44Z</time>
      </trkpt>
      <trkpt lat="49.02873" lon="7.09764">
        <ele>210.8</ele>
        <time>2020-09-24T14:02:52Z</time>
      </trkpt>
      <trkpt lat="49.02912" lon="7.09823">
        <ele>210.8</ele>
        <time>2020-09-24T14:03:00Z</time>
      </trkpt>
      <trkpt lat="49.02951" lon="7.09884">
        <ele>211</ele>
        <time>2020-09-24T14:03:08Z</time>
      </trkpt>
      <trkpt lat="49.02966" lon="7.09906">
        <ele>211</ele>
        <time>2020-09-24T14:03:11Z</time>
      </trkpt>
      <trkpt lat="49.03004" lon="7.09978">
        <ele>210.6</ele>
        <time>2020-09-24T14:03:20Z</time>
      </trkpt>
      <trkpt lat="49.03009" lon="7.09986">
        <ele>210.8</ele>
        <time>2020-09-24T14:03:21Z</time>
      </trkpt>
      <trkpt lat="49.03044" lon="7.10052">
        <ele>210.6</ele>
        <time>2020-09-24T14:03:29Z</time>
      </trkpt>
      <trkpt lat="49.03048" lon="7.10061">
        <ele>210.6</ele>
        <time>2020-09-24T14:03:30Z</time>
      </trkpt>
      <trkpt lat="49.03079" lon="7.10131">
        <ele>210.6</ele>
        <time>2020-09-24T14:03:38Z</time>
      </trkpt>
      <trkpt lat="49.03083" lon="7.1014">
        <ele>210.6</ele>
        <time>2020-09-24T14:03:39Z</time>
      </trkpt>
      <trkpt lat="49.03109" lon="7.10214">
        <ele>210.6</ele>
        <time>2020-09-24T14:03:47Z</time>
      </trkpt>
      <trkpt lat="49.03112" lon="7.10223">
        <ele>210.6</ele>
        <time>2020-09-24T14:03:48Z</time>
      </trkpt>
      <trkpt lat="49.03132" lon="7.1028">
        <ele>210.4</ele>
        <time>2020-09-24T14:03:54Z</time>
      </trkpt>
      <trkpt lat="49.03156" lon="7.10354">
        <ele>210.4</ele>
        <time>2020-09-24T14:04:02Z</time>
      </trkpt>
      <trkpt lat="49.03159" lon="7.10364">
        <ele>210.6</ele>
        <time>2020-09-24T14:04:03Z</time>
      </trkpt>
      <trkpt lat="49.03184" lon="7.10447">
        <ele>210.6</ele>
        <time>2020-09-24T14:04:12Z</time>
      </trkpt>
      <trkpt lat="49.03187" lon="7.10456">
        <ele>210.6</ele>
        <time>2020-09-24T14:04:13Z</time>
      </trkpt>
      <trkpt lat="49.03205" lon="7.10533">
        <ele>210.6</ele>
        <time>2020-09-24T14:04:21Z</time>
      </trkpt>
      <trkpt lat="49.03216" lon="7.10581">
        <ele>210.6</ele>
        <time>2020-09-24T14:04:26Z</time>
      </trkpt>
      <trkpt lat="49.03219" lon="7.10591">
        <ele>210.8</ele>
        <time>2020-09-24T14:04:27Z</time>
      </trkpt>
      <trkpt lat="49.03237" lon="7.10669">
        <ele>210.8</ele>
        <time>2020-09-24T14:04:35Z</time>
      </trkpt>
      <trkpt lat="49.03248" lon="7.1074">
        <ele>210.4</ele>
        <time>2020-09-24T14:04:42Z</time>
      </trkpt>
      <trkpt lat="49.03259" lon="7.1082">
        <ele>210.4</ele>
        <time>2020-09-24T14:04:50Z</time>
      </trkpt>
      <trkpt lat="49.03261" lon="7.1083">
        <ele>210.2</ele>
        <time>2020-09-24T14:04:51Z</time>
      </trkpt>
      <trkpt lat="49.03267" lon="7.10914">
        <ele>210.2</ele>
        <time>2020-09-24T14:04:59Z</time>
      </trkpt>
      <trkpt lat="49.03268" lon="7.10924">
        <ele>210.2</ele>
        <time>2020-09-24T14:05:00Z</time>
      </trkpt>
      <trkpt lat="49.03274" lon="7.11007">
        <ele>210.2</ele>
        <time>2020-09-24T14:05:08Z</time>
      </trkpt>
      <trkpt lat="49.03279" lon="7.1108">
        <ele>210</ele>
        <time>2020-09-24T14:05:15Z</time>
      </trkpt>
      <trkpt lat="49.03289" lon="7.11164">
        <ele>209.8</ele>
        <time>2020-09-24T14:05:23Z</time>
      </trkpt>
      <trkpt lat="49.03305" lon="7.11231">
        <ele>210</ele>
        <time>2020-09-24T14:05:30Z</time>
      </trkpt>
      <trkpt lat="49.03332" lon="7.11301">
        <ele>210</ele>
        <time>2020-09-24T14:05:38Z</time>
      </trkpt>
      <trkpt lat="49.03355" lon="7.11356">
        <ele>210</ele>
        <time>2020-09-24T14:05:44Z</time>
      </trkpt>
      <trkpt lat="49.03393" lon="7.1142">
        <ele>210</ele>
        <time>2020-09-24T14:05:52Z</time>
      </trkpt>
      <trkpt lat="49.03436" lon="7.11472">
        <ele>210</ele>
        <time>2020-09-24T14:06:00Z</time>
      </trkpt>
      <trkpt lat="49.03441" lon="7.11479">
        <ele>210</ele>
        <time>2020-09-24T14:06:01Z</time>
      </trkpt>
      <trkpt lat="49.03486" lon="7.11528">
        <ele>210</ele>
        <time>2020-09-24T14:06:09Z</time>
      </trkpt>
      <trkpt lat="49.03492" lon="7.11535">
        <ele>210</ele>
        <time>2020-09-24T14:06:10Z</time>
      </trkpt>
      <trkpt lat="49.03536" lon="7.11584">
        <ele>209.8</ele>
        <time>2020-09-24T14:06:18Z</time>
      </trkpt>
      <trkpt lat="49.0358" lon="7.11634">
        <ele>210</ele>
        <time>2020-09-24T14:06:26Z</time>
      </trkpt>
      <trkpt lat="49.03591" lon="7.11646">
        <ele>210</ele>
        <time>2020-09-24T14:06:28Z</time>
      </trkpt>
      <trkpt lat="49.03635" lon="7.11696">
        <ele>210.2</ele>
        <time>2020-09-24T14:06:36Z</time>
      </trkpt>
      <trkpt lat="49.03647" lon="7.11709">
        <ele>210.2</ele>
        <time>2020-09-24T14:06:38Z</time>
      </trkpt>
      <trkpt lat="49.03691" lon="7.11758">
        <ele>210.2</ele>
        <time>2020-09-24T14:06:46Z</time>
      </trkpt>
      <trkpt lat="49.03702" lon="7.11771">
        <ele>210.2</ele>
        <time>2020-09-24T14:06:48Z</time>
      </trkpt>
      <trkpt lat="49.03741" lon="7.11814">
        <ele>210</ele>
        <time>2020-09-24T14:06:55Z</time>
      </trkpt>
      <trkpt lat="49.03785" lon="7.11864">
        <ele>210.2</ele>
        <time>2020-09-24T14:07:03Z</time>
      </trkpt>
      <trkpt lat="49.03825" lon="7.11923">
        <ele>210.2</ele>
        <time>2020-09-24T14:07:11Z</time>
      </trkpt>
      <trkpt lat="49.0383" lon="7.11931">
        <ele>210.2</ele>
        <time>2020-09-24T14:07:12Z</time>
      </trkpt>
      <trkpt lat="49.03865" lon="7.11983">
        <ele>210.2</ele>
        <time>2020-09-24T14:07:19Z</time>
      </trkpt>
      <trkpt lat="49.0389" lon="7.12021">
        <ele>210.4</ele>
        <time>2020-09-24T14:07:24Z</time>
      </trkpt>
      <trkpt lat="49.03927" lon="7.12086">
        <ele>210</ele>
        <time>2020-09-24T14:07:32Z</time>
      </trkpt>
      <trkpt lat="49.03931" lon="7.12094">
        <ele>210</ele>
        <time>2020-09-24T14:07:33Z</time>
      </trkpt>
      <trkpt lat="49.03959" lon="7.12154">
        <ele>209.8</ele>
        <time>2020-09-24T14:07:40Z</time>
      </trkpt>
      <trkpt lat="49.03985" lon="7.12216">
        <ele>209.6</ele>
        <time>2020-09-24T14:07:47Z</time>
      </trkpt>
      <trkpt lat="49.04009" lon="7.12279">
        <ele>209.4</ele>
        <time>2020-09-24T14:07:54Z</time>
      </trkpt>
      <trkpt lat="49.04037" lon="7.12352">
        <ele>209.4</ele>
        <time>2020-09-24T14:08:02Z</time>
      </trkpt>
      <trkpt lat="49.04065" lon="7.12425">
        <ele>209.4</ele>
        <time>2020-09-24T14:08:10Z</time>
      </trkpt>
      <trkpt lat="49.04092" lon="7.12497">
        <ele>209.4</ele>
        <time>2020-09-24T14:08:18Z</time>
      </trkpt>
      <trkpt lat="49.04095" lon="7.12506">
        <ele>209.4</ele>
        <time>2020-09-24T14:08:19Z</time>
      </trkpt>
      <trkpt lat="49.04122" lon="7.12577">
        <ele>209.4</ele>
        <time>2020-09-24T14:08:27Z</time>
      </trkpt>
      <trkpt lat="49.04126" lon="7.12586">
        <ele>209.4</ele>
        <time>2020-09-24T14:08:28Z</time>
      </trkpt>
      <trkpt lat="49.04153" lon="7.12658">
        <ele>209.4</ele>
        <time>2020-09-24T14:08:36Z</time>
      </trkpt>
      <trkpt lat="49.0418" lon="7.12729">
        <ele>209.6</ele>
        <time>2020-09-24T14:08:44Z</time>
      </trkpt>
      <trkpt lat="49.04183" lon="7.12738">
        <ele>209.6</ele>
        <time>2020-09-24T14:08:45Z</time>
      </trkpt>
      <trkpt lat="49.04203" lon="7.12791">
        <ele>209.8</ele>
        <time>2020-09-24T14:08:51Z</time>
      </trkpt>
      <trkpt lat="49.04227" lon="7.12855">
        <ele>209.8</ele>
        <time>2020-09-24T14:08:58Z</time>
      </trkpt>
      <trkpt lat="49.04256" lon="7.12927">
        <ele>209.8</ele>
        <time>2020-09-24T14:09:06Z</time>
      </trkpt>
      <trkpt lat="49.04284" lon="7.12988">
        <ele>209.8</ele>
        <time>2020-09-24T14:09:13Z</time>
      </trkpt>
      <trkpt lat="49.04315" lon="7.13045">
        <ele>210</ele>
        <time>2020-09-24T14:09:20Z</time>
      </trkpt>
      <trkpt lat="49.04355" lon="7.13107">
        <ele>210</ele>
        <time>2020-09-24T14:09:28Z</time>
      </trkpt>
      <trkpt lat="49.04395" lon="7.13169">
        <ele>210</ele>
        <time>2020-09-24T14:09:36Z</time>
      </trkpt>
      <trkpt lat="49.044" lon="7.13177">
        <ele>210.2</ele>
        <time>2020-09-24T14:09:37Z</time>
      </trkpt>
      <trkpt lat="49.04438" lon="7.13237">
        <ele>210.2</ele>
        <time>2020-09-24T14:09:45Z</time>
      </trkpt>
      <trkpt lat="49.04443" lon="7.13244">
        <ele>210.2</ele>
        <time>2020-09-24T14:09:46Z</time>
      </trkpt>
      <trkpt lat="49.04471" lon="7.13289">
        <ele>210.2</ele>
        <time>2020-09-24T14:09:52Z</time>
      </trkpt>
      <trkpt lat="49.04506" lon="7.13343">
        <ele>210.2</ele>
        <time>2020-09-24T14:09:59Z</time>
      </trkpt>
      <trkpt lat="49.0454" lon="7.13397">
        <ele>210.2</ele>
        <time>2020-09-24T14:10:06Z</time>
      </trkpt>
      <trkpt lat="49.0458" lon="7.13458">
        <ele>210.2</ele>
        <time>2020-09-24T14:10:14Z</time>
      </trkpt>
      <trkpt lat="49.04616" lon="7.13527">
        <ele>210</ele>
        <time>2020-09-24T14:10:22Z</time>
      </trkpt>
      <trkpt lat="49.04625" lon="7.13545">
        <ele>210</ele>
        <time>2020-09-24T14:10:24Z</time>
      </trkpt>
      <trkpt lat="49.0466" lon="7.13617">
        <ele>210</ele>
        <time>2020-09-24T14:10:32Z</time>
      </trkpt>
      <trkpt lat="49.04694" lon="7.13688">
        <ele>210.2</ele>
        <time>2020-09-24T14:10:40Z</time>
      </trkpt>
      <trkpt lat="49.04699" lon="7.13697">
        <ele>210.2</ele>
        <time>2020-09-24T14:10:41Z</time>
      </trkpt>
      <trkpt lat="49.04722" lon="7.13755">
        <ele>210.2</ele>
        <time>2020-09-24T14:10:47Z</time>
      </trkpt>
      <trkpt lat="49.04752" lon="7.13832">
        <ele>210</ele>
        <time>2020-09-24T14:10:55Z</time>
      </trkpt>
      <trkpt lat="49.04777" lon="7.13899">
        <ele>210</ele>
        <time>2020-09-24T14:11:02Z</time>
      </trkpt>
      <trkpt lat="49.04795" lon="7.13955">
        <ele>210</ele>
        <time>2020-09-24T14:11:08Z</time>
      </trkpt>
      <trkpt lat="49.04798" lon="7.13963">
        <ele>210</ele>
        <time>2020-09-24T14:11:09Z</time>
      </trkpt>
      <trkpt lat="49.04818" lon="7.14026">
        <ele>210</ele>
        <time>2020-09-24T14:11:16Z</time>
      </trkpt>
      <trkpt lat="49.04843" lon="7.14099">
        <ele>209.8</ele>
        <time>2020-09-24T14:11:24Z</time>
      </trkpt>
      <trkpt lat="49.04861" lon="7.14155">
        <ele>209.8</ele>
        <time>2020-09-24T14:11:30Z</time>
      </trkpt>
      <trkpt lat="49.04886" lon="7.14231">
        <ele>209.8</ele>
        <time>2020-09-24T14:11:38Z</time>
      </trkpt>
      <trkpt lat="49.04893" lon="7.14251">
        <ele>210</ele>
        <time>2020-09-24T14:11:40Z</time>
      </trkpt>
      <trkpt lat="49.0492" lon="7.14327">
        <ele>209.8</ele>
        <time>2020-09-24T14:11:48Z</time>
      </trkpt>
      <trkpt lat="49.04923" lon="7.14336">
        <ele>209.8</ele>
        <time>2020-09-24T14:11:49Z</time>
      </trkpt>
      <trkpt lat="49.04947" lon="7.14402">
        <ele>209.8</ele>
        <time>2020-09-24T14:11:56Z</time>
      </trkpt>
      <trkpt lat="49.04967" lon="7.14458">
        <ele>209.8</ele>
        <time>2020-09-24T14:12:02Z</time>
      </trkpt>
      <trkpt lat="49.0497" lon="7.14467">
        <ele>209.8</ele>
        <time>2020-09-24T14:12:03Z</time>
      </trkpt>
      <trkpt lat="49.04978" lon="7.14486">
        <ele>209.6</ele>
        <time>2020-09-24T14:12:05Z</time>
      </trkpt>
      <trkpt lat="49.04986" lon="7.14504">
        <ele>209.6</ele>
        <time>2020-09-24T14:12:07Z</time>
      </trkpt>
      <trkpt lat="49.05015" lon="7.14566">
        <ele>209.6</ele>
        <time>2020-09-24T14:12:14Z</time>
      </trkpt>
      <trkpt lat="49.05044" lon="7.14623">
        <ele>209.6</ele>
        <time>2020-09-24T14:12:21Z</time>
      </trkpt>
      <trkpt lat="49.05085" lon="7.14679">
        <ele>209.6</ele>
        <time>2020-09-24T14:12:29Z</time>
      </trkpt>
      <trkpt lat="49.05122" lon="7.14724">
        <ele>209.8</ele>
        <time>2020-09-24T14:12:36Z</time>
      </trkpt>
      <trkpt lat="49.05164" lon="7.14762">
        <ele>209.6</ele>
        <time>2020-09-24T14:12:43Z</time>
      </trkpt>
      <trkpt lat="49.05214" lon="7.14803">
        <ele>209.4</ele>
        <time>2020-09-24T14:12:51Z</time>
      </trkpt>
      <trkpt lat="49.05226" lon="7.14813">
        <ele>209.4</ele>
        <time>2020-09-24T14:12:53Z</time>
      </trkpt>
      <trkpt lat="49.05263" lon="7.14843">
        <ele>209.4</ele>
        <time>2020-09-24T14:12:59Z</time>
      </trkpt>
      <trkpt lat="49.05296" lon="7.14873">
        <ele>209.8</ele>
        <time>2020-09-24T14:13:05Z</time>
      </trkpt>
      <trkpt lat="49.05313" lon="7.14891">
        <ele>209.6</ele>
        <time>2020-09-24T14:13:09Z</time>
      </trkpt>
      <trkpt lat="49.05321" lon="7.14899">
        <ele>209.6</ele>
        <time>2020-09-24T14:13:13Z</time>
      </trkpt>
      <trkpt lat="49.05324" lon="7.14902">
        <ele>209.8</ele>
        <time>2020-09-24T14:13:17Z</time>
      </trkpt>
      <trkpt lat="49.05325" lon="7.14902">
        <ele>210</ele>
        <time>2020-09-24T14:13:18Z</time>
      </trkpt>
      <trkpt lat="49.05328" lon="7.14904">
        <ele>210</ele>
        <time>2020-09-24T14:13:22Z</time>
      </trkpt>
      <trkpt lat="49.05328" lon="7.14904">
        <ele>210.2</ele>
        <time>2020-09-24T14:13:38Z</time>
      </trkpt>
      <trkpt lat="49.05328" lon="7.14904">
        <ele>210.6</ele>
        <time>2020-09-24T14:13:57Z</time>
      </trkpt>
      <trkpt lat="49.05328" lon="7.14904">
        <ele>210.8</ele>
        <time>2020-09-24T14:14:17Z</time>
      </trkpt>
      <trkpt lat="49.05328" lon="7.14904">
        <ele>211</ele>
        <time>2020-09-24T14:14:37Z</time>
      </trkpt>
      <trkpt lat="49.05328" lon="7.14904">
        <ele>211.2</ele>
        <time>2020-09-24T14:14:51Z</time>
      </trkpt>
      <trkpt lat="49.05328" lon="7.14904">
        <ele>211.4</ele>
        <time>2020-09-24T14:15:03Z</time>
      </trkpt>
      <trkpt lat="49.0533" lon="7.14905">
        <ele>211.4</ele>
        <time>2020-09-24T14:15:09Z</time>
      </trkpt>
      <trkpt lat="49.05331" lon="7.14906">
        <ele>211.4</ele>
        <time>2020-09-24T14:15:10Z</time>
      </trkpt>
      <trkpt lat="49.05337" lon="7.14909">
        <ele>211.4</ele>
        <time>2020-09-24T14:15:13Z</time>
      </trkpt>
      <trkpt lat="49.0534" lon="7.14911">
        <ele>211.4</ele>
        <time>2020-09-24T14:15:14Z</time>
      </trkpt>
      <trkpt lat="49.05364" lon="7.14925">
        <ele>211</ele>
        <time>2020-09-24T14:15:19Z</time>
      </trkpt>
      <trkpt lat="49.05396" lon="7.14933">
        <ele>210.6</ele>
        <time>2020-09-24T14:15:25Z</time>
      </trkpt>
      <trkpt lat="49.05422" lon="7.14931">
        <ele>210.4</ele>
        <time>2020-09-24T14:15:30Z</time>
      </trkpt>
      <trkpt lat="49.05453" lon="7.14922">
        <ele>210.2</ele>
        <time>2020-09-24T14:15:36Z</time>
      </trkpt>
      <trkpt lat="49.05488" lon="7.14896">
        <ele>209.8</ele>
        <time>2020-09-24T14:15:43Z</time>
      </trkpt>
      <trkpt lat="49.05512" lon="7.14864">
        <ele>209.6</ele>
        <time>2020-09-24T14:15:49Z</time>
      </trkpt>
      <trkpt lat="49.05515" lon="7.14858">
        <ele>209.6</ele>
        <time>2020-09-24T14:15:50Z</time>
      </trkpt>
      <trkpt lat="49.05525" lon="7.14838">
        <ele>209.2</ele>
        <time>2020-09-24T14:15:53Z</time>
      </trkpt>
      <trkpt lat="49.05531" lon="7.14825">
        <ele>209.2</ele>
        <time>2020-09-24T14:15:55Z</time>
      </trkpt>
      <trkpt lat="49.05556" lon="7.14764">
        <ele>209.2</ele>
        <time>2020-09-24T14:16:04Z</time>
      </trkpt>
      <trkpt lat="49.05567" lon="7.14727">
        <ele>209</ele>
        <time>2020-09-24T14:16:09Z</time>
      </trkpt>
      <trkpt lat="49.0557" lon="7.1472">
        <ele>209</ele>
        <time>2020-09-24T14:16:10Z</time>
      </trkpt>
      <trkpt lat="49.05586" lon="7.14669">
        <ele>209</ele>
        <time>2020-09-24T14:16:17Z</time>
      </trkpt>
      <trkpt lat="49.05594" lon="7.14633">
        <ele>208.8</ele>
        <time>2020-09-24T14:16:22Z</time>
      </trkpt>
      <trkpt lat="49.05595" lon="7.14625">
        <ele>208.8</ele>
        <time>2020-09-24T14:16:23Z</time>
      </trkpt>
      <trkpt lat="49.05596" lon="7.14618">
        <ele>208.8</ele>
        <time>2020-09-24T14:16:24Z</time>
      </trkpt>
      <trkpt lat="49.05603" lon="7.14574">
        <ele>208.6</ele>
        <time>2020-09-24T14:16:30Z</time>
      </trkpt>
      <trkpt lat="49.05604" lon="7.14566">
        <ele>208.6</ele>
        <time>2020-09-24T14:16:31Z</time>
      </trkpt>
      <trkpt lat="49.0561" lon="7.14528">
        <ele>208.4</ele>
        <time>2020-09-24T14:16:36Z</time>
      </trkpt>
      <trkpt lat="49.05619" lon="7.14466">
        <ele>208.2</ele>
        <time>2020-09-24T14:16:44Z</time>
      </trkpt>
      <trkpt lat="49.0563" lon="7.14395">
        <ele>208</ele>
        <time>2020-09-24T14:16:53Z</time>
      </trkpt>
      <trkpt lat="49.05639" lon="7.14332">
        <ele>208</ele>
        <time>2020-09-24T14:17:01Z</time>
      </trkpt>
      <trkpt lat="49.05649" lon="7.14269">
        <ele>207.8</ele>
        <time>2020-09-24T14:17:09Z</time>
      </trkpt>
      <trkpt lat="49.05659" lon="7.14205">
        <ele>207.8</ele>
        <time>2020-09-24T14:17:17Z</time>
      </trkpt>
      <trkpt lat="49.05666" lon="7.14157">
        <ele>207.6</ele>
        <time>2020-09-24T14:17:23Z</time>
      </trkpt>
      <trkpt lat="49.05677" lon="7.14083">
        <ele>207.6</ele>
        <time>2020-09-24T14:17:32Z</time>
      </trkpt>
      <trkpt lat="49.05687" lon="7.14015">
        <ele>207.6</ele>
        <time>2020-09-24T14:17:40Z</time>
      </trkpt>
      <trkpt lat="49.057" lon="7.1393">
        <ele>207.8</ele>
        <time>2020-09-24T14:17:50Z</time>
      </trkpt>
      <trkpt lat="49.0571" lon="7.13866">
        <ele>207.8</ele>
        <time>2020-09-24T14:17:57Z</time>
      </trkpt>
      <trkpt lat="49.05722" lon="7.13785">
        <ele>207.6</ele>
        <time>2020-09-24T14:18:06Z</time>
      </trkpt>
      <trkpt lat="49.05724" lon="7.13776">
        <ele>207.6</ele>
        <time>2020-09-24T14:18:07Z</time>
      </trkpt>
      <trkpt lat="49.05736" lon="7.13695">
        <ele>207.4</ele>
        <time>2020-09-24T14:18:16Z</time>
      </trkpt>
      <trkpt lat="49.05747" lon="7.13622">
        <ele>207.4</ele>
        <time>2020-09-24T14:18:24Z</time>
      </trkpt>
      <trkpt lat="49.05748" lon="7.13613">
        <ele>207.4</ele>
        <time>2020-09-24T14:18:25Z</time>
      </trkpt>
      <trkpt lat="49.05754" lon="7.13577">
        <ele>207.2</ele>
        <time>2020-09-24T14:18:29Z</time>
      </trkpt>
      <trkpt lat="49.05766" lon="7.13496">
        <ele>207.2</ele>
        <time>2020-09-24T14:18:38Z</time>
      </trkpt>
      <trkpt lat="49.05768" lon="7.13487">
        <ele>207.2</ele>
        <time>2020-09-24T14:18:39Z</time>
      </trkpt>
      <trkpt lat="49.0578" lon="7.13405">
        <ele>207.2</ele>
        <time>2020-09-24T14:18:48Z</time>
      </trkpt>
      <trkpt lat="49.05781" lon="7.13396">
        <ele>207.2</ele>
        <time>2020-09-24T14:18:49Z</time>
      </trkpt>
      <trkpt lat="49.05792" lon="7.13324">
        <ele>207.4</ele>
        <time>2020-09-24T14:18:57Z</time>
      </trkpt>
      <trkpt lat="49.05803" lon="7.13252">
        <ele>207</ele>
        <time>2020-09-24T14:19:05Z</time>
      </trkpt>
      <trkpt lat="49.05813" lon="7.13188">
        <ele>207</ele>
        <time>2020-09-24T14:19:12Z</time>
      </trkpt>
      <trkpt lat="49.05822" lon="7.13124">
        <ele>206.8</ele>
        <time>2020-09-24T14:19:19Z</time>
      </trkpt>
      <trkpt lat="49.05834" lon="7.1305">
        <ele>206.8</ele>
        <time>2020-09-24T14:19:27Z</time>
      </trkpt>
      <trkpt lat="49.05847" lon="7.12966">
        <ele>206.6</ele>
        <time>2020-09-24T14:19:36Z</time>
      </trkpt>
      <trkpt lat="49.05856" lon="7.12901">
        <ele>206.6</ele>
        <time>2020-09-24T14:19:43Z</time>
      </trkpt>
      <trkpt lat="49.05866" lon="7.12836">
        <ele>206.4</ele>
        <time>2020-09-24T14:19:50Z</time>
      </trkpt>
      <trkpt lat="49.05879" lon="7.12751">
        <ele>206.4</ele>
        <time>2020-09-24T14:19:59Z</time>
      </trkpt>
      <trkpt lat="49.05888" lon="7.12694">
        <ele>206.4</ele>
        <time>2020-09-24T14:20:05Z</time>
      </trkpt>
      <trkpt lat="49.05899" lon="7.12621">
        <ele>206.4</ele>
        <time>2020-09-24T14:20:13Z</time>
      </trkpt>
      <trkpt lat="49.05908" lon="7.12544">
        <ele>206.4</ele>
        <time>2020-09-24T14:20:21Z</time>
      </trkpt>
      <trkpt lat="49.05911" lon="7.12516">
        <ele>206.2</ele>
        <time>2020-09-24T14:20:24Z</time>
      </trkpt>
      <trkpt lat="49.05913" lon="7.12497">
        <ele>206.2</ele>
        <time>2020-09-24T14:20:26Z</time>
      </trkpt>
      <trkpt lat="49.0592" lon="7.12432">
        <ele>206</ele>
        <time>2020-09-24T14:20:33Z</time>
      </trkpt>
      <trkpt lat="49.05927" lon="7.12349">
        <ele>206</ele>
        <time>2020-09-24T14:20:42Z</time>
      </trkpt>
      <trkpt lat="49.0593" lon="7.12277">
        <ele>206</ele>
        <time>2020-09-24T14:20:50Z</time>
      </trkpt>
      <trkpt lat="49.05933" lon="7.12212">
        <ele>205.8</ele>
        <time>2020-09-24T14:20:57Z</time>
      </trkpt>
      <trkpt lat="49.05934" lon="7.12138">
        <ele>205.8</ele>
        <time>2020-09-24T14:21:05Z</time>
      </trkpt>
      <trkpt lat="49.05934" lon="7.121">
        <ele>205.8</ele>
        <time>2020-09-24T14:21:09Z</time>
      </trkpt>
      <trkpt lat="49.05934" lon="7.12082">
        <ele>205.6</ele>
        <time>2020-09-24T14:21:11Z</time>
      </trkpt>
      <trkpt lat="49.05933" lon="7.12015">
        <ele>206</ele>
        <time>2020-09-24T14:21:18Z</time>
      </trkpt>
      <trkpt lat="49.05933" lon="7.11946">
        <ele>205.8</ele>
        <time>2020-09-24T14:21:25Z</time>
      </trkpt>
      <trkpt lat="49.05932" lon="7.11898">
        <ele>205.6</ele>
        <time>2020-09-24T14:21:30Z</time>
      </trkpt>
      <trkpt lat="49.05932" lon="7.11833">
        <ele>205.8</ele>
        <time>2020-09-24T14:21:37Z</time>
      </trkpt>
      <trkpt lat="49.05932" lon="7.11814">
        <ele>205.8</ele>
        <time>2020-09-24T14:21:39Z</time>
      </trkpt>
      <trkpt lat="49.05933" lon="7.11795">
        <ele>206</ele>
        <time>2020-09-24T14:21:41Z</time>
      </trkpt>
      <trkpt lat="49.05939" lon="7.11736">
        <ele>206.4</ele>
        <time>2020-09-24T14:21:47Z</time>
      </trkpt>
      <trkpt lat="49.05942" lon="7.11717">
        <ele>206.4</ele>
        <time>2020-09-24T14:21:49Z</time>
      </trkpt>
      <trkpt lat="49.05946" lon="7.11699">
        <ele>206.4</ele>
        <time>2020-09-24T14:21:51Z</time>
      </trkpt>
      <trkpt lat="49.05957" lon="7.11653">
        <ele>206.2</ele>
        <time>2020-09-24T14:21:56Z</time>
      </trkpt>
      <trkpt lat="49.05977" lon="7.11602">
        <ele>206.4</ele>
        <time>2020-09-24T14:22:02Z</time>
      </trkpt>
      <trkpt lat="49.05984" lon="7.11586">
        <ele>205.6</ele>
        <time>2020-09-24T14:22:04Z</time>
      </trkpt>
      <trkpt lat="49.05993" lon="7.11569">
        <ele>205.8</ele>
        <time>2020-09-24T14:22:06Z</time>
      </trkpt>
      <trkpt lat="49.06016" lon="7.11535">
        <ele>205.4</ele>
        <time>2020-09-24T14:22:11Z</time>
      </trkpt>
      <trkpt lat="49.06055" lon="7.11496">
        <ele>205.2</ele>
        <time>2020-09-24T14:22:18Z</time>
      </trkpt>
      <trkpt lat="49.06095" lon="7.11466">
        <ele>204.8</ele>
        <time>2020-09-24T14:22:25Z</time>
      </trkpt>
      <trkpt lat="49.06133" lon="7.11444">
        <ele>204.4</ele>
        <time>2020-09-24T14:22:31Z</time>
      </trkpt>
      <trkpt lat="49.06157" lon="7.1143">
        <ele>204.2</ele>
        <time>2020-09-24T14:22:35Z</time>
      </trkpt>
      <trkpt lat="49.06187" lon="7.11413">
        <ele>203.8</ele>
        <time>2020-09-24T14:22:40Z</time>
      </trkpt>
      <trkpt lat="49.06211" lon="7.11399">
        <ele>203.4</ele>
        <time>2020-09-24T14:22:44Z</time>
      </trkpt>
      <trkpt lat="49.0626" lon="7.11371">
        <ele>202.6</ele>
        <time>2020-09-24T14:22:52Z</time>
      </trkpt>
      <trkpt lat="49.0629" lon="7.11353">
        <ele>201.8</ele>
        <time>2020-09-24T14:22:57Z</time>
      </trkpt>
      <trkpt lat="49.06308" lon="7.11343">
        <ele>201.2</ele>
        <time>2020-09-24T14:23:00Z</time>
      </trkpt>
      <trkpt lat="49.06344" lon="7.11322">
        <ele>200.8</ele>
        <time>2020-09-24T14:23:06Z</time>
      </trkpt>
      <trkpt lat="49.06376" lon="7.11304">
        <ele>200.6</ele>
        <time>2020-09-24T14:23:11Z</time>
      </trkpt>
      <trkpt lat="49.06403" lon="7.11288">
        <ele>200.4</ele>
        <time>2020-09-24T14:23:15Z</time>
      </trkpt>
      <trkpt lat="49.06409" lon="7.11287">
        <ele>200.4</ele>
        <time>2020-09-24T14:23:16Z</time>
      </trkpt>
      <trkpt lat="49.06456" lon="7.1128">
        <ele>200.6</ele>
        <time>2020-09-24T14:23:23Z</time>
      </trkpt>
      <trkpt lat="49.06496" lon="7.1129">
        <ele>201.6</ele>
        <time>2020-09-24T14:23:29Z</time>
      </trkpt>
      <trkpt lat="49.06532" lon="7.11312">
        <ele>201.4</ele>
        <time>2020-09-24T14:23:35Z</time>
      </trkpt>
      <trkpt lat="49.06568" lon="7.11352">
        <ele>201.8</ele>
        <time>2020-09-24T14:23:42Z</time>
      </trkpt>
      <trkpt lat="49.06608" lon="7.11401">
        <ele>202</ele>
        <time>2020-09-24T14:23:50Z</time>
      </trkpt>
      <trkpt lat="49.0665" lon="7.11466">
        <ele>202.6</ele>
        <time>2020-09-24T14:23:59Z</time>
      </trkpt>
      <trkpt lat="49.06655" lon="7.11473">
        <ele>202.6</ele>
        <time>2020-09-24T14:24:00Z</time>
      </trkpt>
      <trkpt lat="49.06691" lon="7.11535">
        <ele>203</ele>
        <time>2020-09-24T14:24:08Z</time>
      </trkpt>
      <trkpt lat="49.067" lon="7.11551">
        <ele>203</ele>
        <time>2020-09-24T14:24:10Z</time>
      </trkpt>
      <trkpt lat="49.06734" lon="7.11617">
        <ele>203.4</ele>
        <time>2020-09-24T14:24:18Z</time>
      </trkpt>
      <trkpt lat="49.0677" lon="7.11691">
        <ele>203.6</ele>
        <time>2020-09-24T14:24:27Z</time>
      </trkpt>
      <trkpt lat="49.068" lon="7.1176">
        <ele>204</ele>
        <time>2020-09-24T14:24:35Z</time>
      </trkpt>
      <trkpt lat="49.06803" lon="7.11768">
        <ele>204</ele>
        <time>2020-09-24T14:24:36Z</time>
      </trkpt>
      <trkpt lat="49.06826" lon="7.1182">
        <ele>204.2</ele>
        <time>2020-09-24T14:24:42Z</time>
      </trkpt>
      <trkpt lat="49.06857" lon="7.11891">
        <ele>204.4</ele>
        <time>2020-09-24T14:24:50Z</time>
      </trkpt>
      <trkpt lat="49.06861" lon="7.11899">
        <ele>204.6</ele>
        <time>2020-09-24T14:24:51Z</time>
      </trkpt>
      <trkpt lat="49.06884" lon="7.11952">
        <ele>204.8</ele>
        <time>2020-09-24T14:24:57Z</time>
      </trkpt>
      <trkpt lat="49.06907" lon="7.12005">
        <ele>204.8</ele>
        <time>2020-09-24T14:25:03Z</time>
      </trkpt>
      <trkpt lat="49.06931" lon="7.12069">
        <ele>205</ele>
        <time>2020-09-24T14:25:10Z</time>
      </trkpt>
      <trkpt lat="49.06955" lon="7.12142">
        <ele>205.4</ele>
        <time>2020-09-24T14:25:18Z</time>
      </trkpt>
      <trkpt lat="49.06958" lon="7.12151">
        <ele>205.4</ele>
        <time>2020-09-24T14:25:19Z</time>
      </trkpt>
      <trkpt lat="49.06963" lon="7.1217">
        <ele>205.4</ele>
        <time>2020-09-24T14:25:21Z</time>
      </trkpt>
      <trkpt lat="49.06965" lon="7.1218">
        <ele>205.4</ele>
        <time>2020-09-24T14:25:22Z</time>
      </trkpt>
      <trkpt lat="49.06983" lon="7.12248">
        <ele>205.6</ele>
        <time>2020-09-24T14:25:29Z</time>
      </trkpt>
      <trkpt lat="49.06997" lon="7.12319">
        <ele>205.6</ele>
        <time>2020-09-24T14:25:36Z</time>
      </trkpt>
      <trkpt lat="49.07013" lon="7.12399">
        <ele>205.8</ele>
        <time>2020-09-24T14:25:44Z</time>
      </trkpt>
      <trkpt lat="49.07015" lon="7.12409">
        <ele>205.8</ele>
        <time>2020-09-24T14:25:45Z</time>
      </trkpt>
      <trkpt lat="49.07031" lon="7.12495">
        <ele>205.8</ele>
        <time>2020-09-24T14:25:54Z</time>
      </trkpt>
      <trkpt lat="49.07033" lon="7.12505">
        <ele>205.8</ele>
        <time>2020-09-24T14:25:55Z</time>
      </trkpt>
      <trkpt lat="49.0705" lon="7.12591">
        <ele>205.6</ele>
        <time>2020-09-24T14:26:03Z</time>
      </trkpt>
      <trkpt lat="49.0705" lon="7.12591">
        <ele>205.6</ele>
        <time>2020-09-24T14:26:04Z</time>
      </trkpt>
      <trkpt lat="49.07065" lon="7.12667">
        <ele>205.6</ele>
        <time>2020-09-24T14:26:11Z</time>
      </trkpt>
      <trkpt lat="49.07078" lon="7.12734">
        <ele>205.8</ele>
        <time>2020-09-24T14:26:18Z</time>
      </trkpt>
      <trkpt lat="49.07083" lon="7.12764">
        <ele>205.6</ele>
        <time>2020-09-24T14:26:21Z</time>
      </trkpt>
      <trkpt lat="49.07087" lon="7.12783">
        <ele>205.6</ele>
        <time>2020-09-24T14:26:23Z</time>
      </trkpt>
      <trkpt lat="49.07093" lon="7.12811">
        <ele>205.6</ele>
        <time>2020-09-24T14:26:26Z</time>
      </trkpt>
      <trkpt lat="49.07096" lon="7.1283">
        <ele>205.4</ele>
        <time>2020-09-24T14:26:28Z</time>
      </trkpt>
      <trkpt lat="49.0711" lon="7.12887">
        <ele>205.4</ele>
        <time>2020-09-24T14:26:34Z</time>
      </trkpt>
      <trkpt lat="49.07129" lon="7.1296">
        <ele>205.4</ele>
        <time>2020-09-24T14:26:42Z</time>
      </trkpt>
      <trkpt lat="49.07154" lon="7.1303">
        <ele>205.4</ele>
        <time>2020-09-24T14:26:50Z</time>
      </trkpt>
      <trkpt lat="49.07174" lon="7.13086">
        <ele>205.6</ele>
        <time>2020-09-24T14:26:56Z</time>
      </trkpt>
      <trkpt lat="49.07202" lon="7.13157">
        <ele>205.8</ele>
        <time>2020-09-24T14:27:04Z</time>
      </trkpt>
      <trkpt lat="49.07225" lon="7.13215">
        <ele>205.8</ele>
        <time>2020-09-24T14:27:11Z</time>
      </trkpt>
      <trkpt lat="49.07252" lon="7.13281">
        <ele>205.8</ele>
        <time>2020-09-24T14:27:19Z</time>
      </trkpt>
      <trkpt lat="49.07279" lon="7.13348">
        <ele>206</ele>
        <time>2020-09-24T14:27:28Z</time>
      </trkpt>
      <trkpt lat="49.0731" lon="7.13424">
        <ele>206</ele>
        <time>2020-09-24T14:27:36Z</time>
      </trkpt>
      <trkpt lat="49.07337" lon="7.1349">
        <ele>206</ele>
        <time>2020-09-24T14:27:44Z</time>
      </trkpt>
      <trkpt lat="49.0736" lon="7.13549">
        <ele>206</ele>
        <time>2020-09-24T14:27:51Z</time>
      </trkpt>
      <trkpt lat="49.07364" lon="7.13558">
        <ele>205.8</ele>
        <time>2020-09-24T14:27:52Z</time>
      </trkpt>
      <trkpt lat="49.07382" lon="7.13588">
        <ele>205.8</ele>
        <time>2020-09-24T14:27:56Z</time>
      </trkpt>
      <trkpt lat="49.07417" lon="7.13636">
        <ele>205.8</ele>
        <time>2020-09-24T14:28:03Z</time>
      </trkpt>
      <trkpt lat="49.0746" lon="7.13681">
        <ele>205.8</ele>
        <time>2020-09-24T14:28:11Z</time>
      </trkpt>
      <trkpt lat="49.07503" lon="7.13708">
        <ele>206</ele>
        <time>2020-09-24T14:28:18Z</time>
      </trkpt>
      <trkpt lat="49.07554" lon="7.13731">
        <ele>206.2</ele>
        <time>2020-09-24T14:28:26Z</time>
      </trkpt>
      <trkpt lat="49.07608" lon="7.13741">
        <ele>206.2</ele>
        <time>2020-09-24T14:28:34Z</time>
      </trkpt>
      <trkpt lat="49.07614" lon="7.13741">
        <ele>206.4</ele>
        <time>2020-09-24T14:28:35Z</time>
      </trkpt>
      <trkpt lat="49.07649" lon="7.13742">
        <ele>206.4</ele>
        <time>2020-09-24T14:28:41Z</time>
      </trkpt>
      <trkpt lat="49.07684" lon="7.13743">
        <ele>206.4</ele>
        <time>2020-09-24T14:28:47Z</time>
      </trkpt>
      <trkpt lat="49.0771" lon="7.13744">
        <ele>206.4</ele>
        <time>2020-09-24T14:28:52Z</time>
      </trkpt>
      <trkpt lat="49.07722" lon="7.13744">
        <ele>206.4</ele>
        <time>2020-09-24T14:28:56Z</time>
      </trkpt>
      <trkpt lat="49.07723" lon="7.13744">
        <ele>206.6</ele>
        <time>2020-09-24T14:29:00Z</time>
      </trkpt>
      <trkpt lat="49.07724" lon="7.13744">
        <ele>206.6</ele>
        <time>2020-09-24T14:29:04Z</time>
      </trkpt>
      <trkpt lat="49.07733" lon="7.13744">
        <ele>206.6</ele>
        <time>2020-09-24T14:29:08Z</time>
      </trkpt>
      <trkpt lat="49.07746" lon="7.13743">
        <ele>206.6</ele>
        <time>2020-09-24T14:29:11Z</time>
      </trkpt>
      <trkpt lat="49.0778" lon="7.1374">
        <ele>205.8</ele>
        <time>2020-09-24T14:29:16Z</time>
      </trkpt>
      <trkpt lat="49.07795" lon="7.13737">
        <ele>205.6</ele>
        <time>2020-09-24T14:29:18Z</time>
      </trkpt>
      <trkpt lat="49.0781" lon="7.13735">
        <ele>205.4</ele>
        <time>2020-09-24T14:29:20Z</time>
      </trkpt>
      <trkpt lat="49.07853" lon="7.13728">
        <ele>205</ele>
        <time>2020-09-24T14:29:27Z</time>
      </trkpt>
      <trkpt lat="49.07901" lon="7.13703">
        <ele>204.8</ele>
        <time>2020-09-24T14:29:35Z</time>
      </trkpt>
      <trkpt lat="49.07917" lon="7.13691">
        <ele>204.6</ele>
        <time>2020-09-24T14:29:38Z</time>
      </trkpt>
      <trkpt lat="49.07934" lon="7.13678">
        <ele>204.6</ele>
        <time>2020-09-24T14:29:41Z</time>
      </trkpt>
      <trkpt lat="49.07984" lon="7.13634">
        <ele>204.4</ele>
        <time>2020-09-24T14:29:50Z</time>
      </trkpt>
      <trkpt lat="49.0799" lon="7.13629">
        <ele>204.4</ele>
        <time>2020-09-24T14:29:51Z</time>
      </trkpt>
      <trkpt lat="49.08037" lon="7.13588">
        <ele>204.4</ele>
        <time>2020-09-24T14:29:59Z</time>
      </trkpt>
      <trkpt lat="49.08085" lon="7.13546">
        <ele>204.4</ele>
        <time>2020-09-24T14:30:07Z</time>
      </trkpt>
      <trkpt lat="49.08133" lon="7.13504">
        <ele>204.4</ele>
        <time>2020-09-24T14:30:15Z</time>
      </trkpt>
      <trkpt lat="49.08145" lon="7.13494">
        <ele>204.4</ele>
        <time>2020-09-24T14:30:17Z</time>
      </trkpt>
      <trkpt lat="49.08192" lon="7.13452">
        <ele>204.6</ele>
        <time>2020-09-24T14:30:25Z</time>
      </trkpt>
      <trkpt lat="49.08204" lon="7.13441">
        <ele>204.6</ele>
        <time>2020-09-24T14:30:27Z</time>
      </trkpt>
      <trkpt lat="49.08252" lon="7.134">
        <ele>204.6</ele>
        <time>2020-09-24T14:30:35Z</time>
      </trkpt>
      <trkpt lat="49.08299" lon="7.13358">
        <ele>204.6</ele>
        <time>2020-09-24T14:30:43Z</time>
      </trkpt>
      <trkpt lat="49.08348" lon="7.13316">
        <ele>204.6</ele>
        <time>2020-09-24T14:30:51Z</time>
      </trkpt>
      <trkpt lat="49.08396" lon="7.13273">
        <ele>204.6</ele>
        <time>2020-09-24T14:30:59Z</time>
      </trkpt>
      <trkpt lat="49.08438" lon="7.13236">
        <ele>204.4</ele>
        <time>2020-09-24T14:31:06Z</time>
      </trkpt>
      <trkpt lat="49.08487" lon="7.13194">
        <ele>204.2</ele>
        <time>2020-09-24T14:31:14Z</time>
      </trkpt>
      <trkpt lat="49.08533" lon="7.1315">
        <ele>204.2</ele>
        <time>2020-09-24T14:31:22Z</time>
      </trkpt>
      <trkpt lat="49.08573" lon="7.13107">
        <ele>204.2</ele>
        <time>2020-09-24T14:31:29Z</time>
      </trkpt>
      <trkpt lat="49.08607" lon="7.13057">
        <ele>203.8</ele>
        <time>2020-09-24T14:31:36Z</time>
      </trkpt>
      <trkpt lat="49.08617" lon="7.13042">
        <ele>203.6</ele>
        <time>2020-09-24T14:31:38Z</time>
      </trkpt>
      <trkpt lat="49.0863" lon="7.13017">
        <ele>203.2</ele>
        <time>2020-09-24T14:31:41Z</time>
      </trkpt>
      <trkpt lat="49.08643" lon="7.12993">
        <ele>203.2</ele>
        <time>2020-09-24T14:31:44Z</time>
      </trkpt>
      <trkpt lat="49.08651" lon="7.12978">
        <ele>203</ele>
        <time>2020-09-24T14:31:46Z</time>
      </trkpt>
      <trkpt lat="49.08665" lon="7.12943">
        <ele>202.8</ele>
        <time>2020-09-24T14:31:50Z</time>
      </trkpt>
      <trkpt lat="49.08669" lon="7.12935">
        <ele>202.8</ele>
        <time>2020-09-24T14:31:51Z</time>
      </trkpt>
      <trkpt lat="49.08691" lon="7.12881">
        <ele>202.8</ele>
        <time>2020-09-24T14:31:57Z</time>
      </trkpt>
      <trkpt lat="49.08693" lon="7.12873">
        <ele>202.8</ele>
        <time>2020-09-24T14:31:58Z</time>
      </trkpt>
      <trkpt lat="49.08709" lon="7.12814">
        <ele>202.6</ele>
        <time>2020-09-24T14:32:04Z</time>
      </trkpt>
      <trkpt lat="49.08729" lon="7.12732">
        <ele>202.4</ele>
        <time>2020-09-24T14:32:12Z</time>
      </trkpt>
      <trkpt lat="49.08741" lon="7.12659">
        <ele>203</ele>
        <time>2020-09-24T14:32:19Z</time>
      </trkpt>
      <trkpt lat="49.08754" lon="7.12577">
        <ele>203.2</ele>
        <time>2020-09-24T14:32:27Z</time>
      </trkpt>
      <trkpt lat="49.08763" lon="7.12503">
        <ele>203.4</ele>
        <time>2020-09-24T14:32:34Z</time>
      </trkpt>
      <trkpt lat="49.08768" lon="7.12451">
        <ele>203.8</ele>
        <time>2020-09-24T14:32:39Z</time>
      </trkpt>
      <trkpt lat="49.08774" lon="7.12388">
        <ele>204.2</ele>
        <time>2020-09-24T14:32:45Z</time>
      </trkpt>
      <trkpt lat="49.08779" lon="7.12327">
        <ele>204.6</ele>
        <time>2020-09-24T14:32:51Z</time>
      </trkpt>
      <trkpt lat="49.08781" lon="7.12307">
        <ele>204.6</ele>
        <time>2020-09-24T14:32:53Z</time>
      </trkpt>
      <trkpt lat="49.08783" lon="7.12287">
        <ele>204.8</ele>
        <time>2020-09-24T14:32:55Z</time>
      </trkpt>
      <trkpt lat="49.08784" lon="7.12255">
        <ele>205</ele>
        <time>2020-09-24T14:32:58Z</time>
      </trkpt>
      <trkpt lat="49.08784" lon="7.12234">
        <ele>205.2</ele>
        <time>2020-09-24T14:33:00Z</time>
      </trkpt>
      <trkpt lat="49.08785" lon="7.1216">
        <ele>205.8</ele>
        <time>2020-09-24T14:33:07Z</time>
      </trkpt>
      <trkpt lat="49.08784" lon="7.12085">
        <ele>206.2</ele>
        <time>2020-09-24T14:33:14Z</time>
      </trkpt>
      <trkpt lat="49.08782" lon="7.12012">
        <ele>206.8</ele>
        <time>2020-09-24T14:33:21Z</time>
      </trkpt>
      <trkpt lat="49.0878" lon="7.11952">
        <ele>207.4</ele>
        <time>2020-09-24T14:33:27Z</time>
      </trkpt>
      <trkpt lat="49.0878" lon="7.11942">
        <ele>207.4</ele>
        <time>2020-09-24T14:33:28Z</time>
      </trkpt>
      <trkpt lat="49.08778" lon="7.1191">
        <ele>207.6</ele>
        <time>2020-09-24T14:33:31Z</time>
      </trkpt>
      <trkpt lat="49.08773" lon="7.11856">
        <ele>207.8</ele>
        <time>2020-09-24T14:33:36Z</time>
      </trkpt>
      <trkpt lat="49.08767" lon="7.11796">
        <ele>208</ele>
        <time>2020-09-24T14:33:42Z</time>
      </trkpt>
      <trkpt lat="49.08763" lon="7.11756">
        <ele>208.4</ele>
        <time>2020-09-24T14:33:46Z</time>
      </trkpt>
      <trkpt lat="49.08756" lon="7.11706">
        <ele>208.8</ele>
        <time>2020-09-24T14:33:52Z</time>
      </trkpt>
      <trkpt lat="49.08744" lon="7.11625">
        <ele>209</ele>
        <time>2020-09-24T14:33:59Z</time>
      </trkpt>
      <trkpt lat="49.08736" lon="7.11574">
        <ele>209.2</ele>
        <time>2020-09-24T14:34:05Z</time>
      </trkpt>
      <trkpt lat="49.08724" lon="7.11491">
        <ele>209.2</ele>
        <time>2020-09-24T14:34:12Z</time>
      </trkpt>
      <trkpt lat="49.08722" lon="7.11481">
        <ele>209.2</ele>
        <time>2020-09-24T14:34:13Z</time>
      </trkpt>
      <trkpt lat="49.0871" lon="7.11399">
        <ele>209.2</ele>
        <time>2020-09-24T14:34:21Z</time>
      </trkpt>
      <trkpt lat="49.08701" lon="7.11337">
        <ele>209.4</ele>
        <time>2020-09-24T14:34:27Z</time>
      </trkpt>
      <trkpt lat="49.08695" lon="7.11287">
        <ele>209.4</ele>
        <time>2020-09-24T14:34:32Z</time>
      </trkpt>
      <trkpt lat="49.08692" lon="7.11257">
        <ele>209.4</ele>
        <time>2020-09-24T14:34:35Z</time>
      </trkpt>
      <trkpt lat="49.08691" lon="7.11238">
        <ele>209.6</ele>
        <time>2020-09-24T14:34:37Z</time>
      </trkpt>
      <trkpt lat="49.08685" lon="7.11178">
        <ele>209.8</ele>
        <time>2020-09-24T14:34:43Z</time>
      </trkpt>
      <trkpt lat="49.08681" lon="7.11126">
        <ele>209.6</ele>
        <time>2020-09-24T14:34:49Z</time>
      </trkpt>
      <trkpt lat="49.08677" lon="7.11083">
        <ele>209.6</ele>
        <time>2020-09-24T14:34:54Z</time>
      </trkpt>
      <trkpt lat="49.08675" lon="7.11066">
        <ele>209.4</ele>
        <time>2020-09-24T14:34:56Z</time>
      </trkpt>
      <trkpt lat="49.08675" lon="7.11051">
        <ele>209.4</ele>
        <time>2020-09-24T14:34:58Z</time>
      </trkpt>
      <trkpt lat="49.08676" lon="7.11026">
        <ele>209.2</ele>
        <time>2020-09-24T14:35:01Z</time>
      </trkpt>
      <trkpt lat="49.08674" lon="7.10984">
        <ele>209.2</ele>
        <time>2020-09-24T14:35:06Z</time>
      </trkpt>
      <trkpt lat="49.08668" lon="7.10914">
        <ele>208.6</ele>
        <time>2020-09-24T14:35:13Z</time>
      </trkpt>
      <trkpt lat="49.08662" lon="7.10847">
        <ele>208</ele>
        <time>2020-09-24T14:35:20Z</time>
      </trkpt>
      <trkpt lat="49.08659" lon="7.10803">
        <ele>207.8</ele>
        <time>2020-09-24T14:35:25Z</time>
      </trkpt>
      <trkpt lat="49.08659" lon="7.10794">
        <ele>207.6</ele>
        <time>2020-09-24T14:35:26Z</time>
      </trkpt>
      <trkpt lat="49.08659" lon="7.10785">
        <ele>207.6</ele>
        <time>2020-09-24T14:35:27Z</time>
      </trkpt>
      <trkpt lat="49.0866" lon="7.10738">
        <ele>207.4</ele>
        <time>2020-09-24T14:35:32Z</time>
      </trkpt>
      <trkpt lat="49.08661" lon="7.1067">
        <ele>206.8</ele>
        <time>2020-09-24T14:35:39Z</time>
      </trkpt>
      <trkpt lat="49.08666" lon="7.10592">
        <ele>206.2</ele>
        <time>2020-09-24T14:35:47Z</time>
      </trkpt>
      <trkpt lat="49.08674" lon="7.10523">
        <ele>205.2</ele>
        <time>2020-09-24T14:35:54Z</time>
      </trkpt>
      <trkpt lat="49.08689" lon="7.10448">
        <ele>204.2</ele>
        <time>2020-09-24T14:36:02Z</time>
      </trkpt>
      <trkpt lat="49.08707" lon="7.10384">
        <ele>203.2</ele>
        <time>2020-09-24T14:36:09Z</time>
      </trkpt>
      <trkpt lat="49.08726" lon="7.1032">
        <ele>202.4</ele>
        <time>2020-09-24T14:36:16Z</time>
      </trkpt>
      <trkpt lat="49.08739" lon="7.10286">
        <ele>201.8</ele>
        <time>2020-09-24T14:36:20Z</time>
      </trkpt>
      <trkpt lat="49.08746" lon="7.10268">
        <ele>201.6</ele>
        <time>2020-09-24T14:36:22Z</time>
      </trkpt>
      <trkpt lat="49.08763" lon="7.10237">
        <ele>201</ele>
        <time>2020-09-24T14:36:26Z</time>
      </trkpt>
      <trkpt lat="49.08767" lon="7.1023">
        <ele>201</ele>
        <time>2020-09-24T14:36:27Z</time>
      </trkpt>
      <trkpt lat="49.08775" lon="7.10213">
        <ele>200.8</ele>
        <time>2020-09-24T14:36:29Z</time>
      </trkpt>
      <trkpt lat="49.08789" lon="7.10188">
        <ele>200.8</ele>
        <time>2020-09-24T14:36:32Z</time>
      </trkpt>
      <trkpt lat="49.08805" lon="7.10158">
        <ele>200.4</ele>
        <time>2020-09-24T14:36:36Z</time>
      </trkpt>
      <trkpt lat="49.08809" lon="7.1015">
        <ele>200.4</ele>
        <time>2020-09-24T14:36:37Z</time>
      </trkpt>
      <trkpt lat="49.08835" lon="7.10101">
        <ele>199.8</ele>
        <time>2020-09-24T14:36:43Z</time>
      </trkpt>
      <trkpt lat="49.08869" lon="7.10037">
        <ele>199.6</ele>
        <time>2020-09-24T14:36:51Z</time>
      </trkpt>
      <trkpt lat="49.08873" lon="7.10029">
        <ele>199.6</ele>
        <time>2020-09-24T14:36:52Z</time>
      </trkpt>
      <trkpt lat="49.08883" lon="7.10015">
        <ele>199.6</ele>
        <time>2020-09-24T14:36:54Z</time>
      </trkpt>
      <trkpt lat="49.0889" lon="7.10012">
        <ele>199.6</ele>
        <time>2020-09-24T14:36:55Z</time>
      </trkpt>
      <trkpt lat="49.08902" lon="7.10011">
        <ele>199.6</ele>
        <time>2020-09-24T14:36:57Z</time>
      </trkpt>
      <trkpt lat="49.08908" lon="7.09998">
        <ele>199.4</ele>
        <time>2020-09-24T14:36:59Z</time>
      </trkpt>
      <trkpt lat="49.0891" lon="7.09981">
        <ele>199.2</ele>
        <time>2020-09-24T14:37:01Z</time>
      </trkpt>
      <trkpt lat="49.08911" lon="7.09973">
        <ele>199.2</ele>
        <time>2020-09-24T14:37:02Z</time>
      </trkpt>
      <trkpt lat="49.08911" lon="7.09966">
        <ele>199</ele>
        <time>2020-09-24T14:37:03Z</time>
      </trkpt>
      <trkpt lat="49.08915" lon="7.0995">
        <ele>198.8</ele>
        <time>2020-09-24T14:37:05Z</time>
      </trkpt>
      <trkpt lat="49.08936" lon="7.0991">
        <ele>198.4</ele>
        <time>2020-09-24T14:37:11Z</time>
      </trkpt>
      <trkpt lat="49.08966" lon="7.09854">
        <ele>198</ele>
        <time>2020-09-24T14:37:19Z</time>
      </trkpt>
      <trkpt lat="49.08994" lon="7.09808">
        <ele>198.2</ele>
        <time>2020-09-24T14:37:26Z</time>
      </trkpt>
      <trkpt lat="49.09032" lon="7.09745">
        <ele>198.4</ele>
        <time>2020-09-24T14:37:35Z</time>
      </trkpt>
      <trkpt lat="49.09041" lon="7.09731">
        <ele>198.6</ele>
        <time>2020-09-24T14:37:37Z</time>
      </trkpt>
      <trkpt lat="49.09071" lon="7.09682">
        <ele>198.8</ele>
        <time>2020-09-24T14:37:44Z</time>
      </trkpt>
      <trkpt lat="49.09098" lon="7.09637">
        <ele>198.6</ele>
        <time>2020-09-24T14:37:51Z</time>
      </trkpt>
      <trkpt lat="49.09134" lon="7.09579">
        <ele>198.8</ele>
        <time>2020-09-24T14:38:00Z</time>
      </trkpt>
      <trkpt lat="49.0915" lon="7.09552">
        <ele>199</ele>
        <time>2020-09-24T14:38:04Z</time>
      </trkpt>
      <trkpt lat="49.09158" lon="7.09539">
        <ele>199.2</ele>
        <time>2020-09-24T14:38:06Z</time>
      </trkpt>
      <trkpt lat="49.09175" lon="7.09516">
        <ele>199.2</ele>
        <time>2020-09-24T14:38:10Z</time>
      </trkpt>
      <trkpt lat="49.0918" lon="7.09512">
        <ele>199.2</ele>
        <time>2020-09-24T14:38:11Z</time>
      </trkpt>
      <trkpt lat="49.09193" lon="7.09489">
        <ele>199.2</ele>
        <time>2020-09-24T14:38:16Z</time>
      </trkpt>
      <trkpt lat="49.0922" lon="7.09445">
        <ele>199.2</ele>
        <time>2020-09-24T14:38:22Z</time>
      </trkpt>
      <trkpt lat="49.09258" lon="7.09383">
        <ele>198.8</ele>
        <time>2020-09-24T14:38:31Z</time>
      </trkpt>
      <trkpt lat="49.09291" lon="7.09327">
        <ele>198.6</ele>
        <time>2020-09-24T14:38:39Z</time>
      </trkpt>
      <trkpt lat="49.09324" lon="7.09274">
        <ele>198.2</ele>
        <time>2020-09-24T14:38:47Z</time>
      </trkpt>
      <trkpt lat="49.09349" lon="7.09221">
        <ele>197.6</ele>
        <time>2020-09-24T14:38:54Z</time>
      </trkpt>
      <trkpt lat="49.09353" lon="7.09213">
        <ele>197.4</ele>
        <time>2020-09-24T14:38:55Z</time>
      </trkpt>
      <trkpt lat="49.09364" lon="7.0919">
        <ele>197.2</ele>
        <time>2020-09-24T14:38:58Z</time>
      </trkpt>
      <trkpt lat="49.09371" lon="7.09174">
        <ele>197</ele>
        <time>2020-09-24T14:39:01Z</time>
      </trkpt>
      <trkpt lat="49.09393" lon="7.09105">
        <ele>196.8</ele>
        <time>2020-09-24T14:39:09Z</time>
      </trkpt>
      <trkpt lat="49.09416" lon="7.09027">
        <ele>196.6</ele>
        <time>2020-09-24T14:39:17Z</time>
      </trkpt>
      <trkpt lat="49.0942" lon="7.09009">
        <ele>196.8</ele>
        <time>2020-09-24T14:39:19Z</time>
      </trkpt>
      <trkpt lat="49.09435" lon="7.08955">
        <ele>196.8</ele>
        <time>2020-09-24T14:39:25Z</time>
      </trkpt>
      <trkpt lat="49.09454" lon="7.08881">
        <ele>196.6</ele>
        <time>2020-09-24T14:39:33Z</time>
      </trkpt>
      <trkpt lat="49.09466" lon="7.08837">
        <ele>196.4</ele>
        <time>2020-09-24T14:39:38Z</time>
      </trkpt>
      <trkpt lat="49.09469" lon="7.08827">
        <ele>196.4</ele>
        <time>2020-09-24T14:39:39Z</time>
      </trkpt>
      <trkpt lat="49.09481" lon="7.08779">
        <ele>196.2</ele>
        <time>2020-09-24T14:39:44Z</time>
      </trkpt>
      <trkpt lat="49.09502" lon="7.08703">
        <ele>196.2</ele>
        <time>2020-09-24T14:39:52Z</time>
      </trkpt>
      <trkpt lat="49.09522" lon="7.08627">
        <ele>196</ele>
        <time>2020-09-24T14:40:00Z</time>
      </trkpt>
      <trkpt lat="49.09525" lon="7.08619">
        <ele>196</ele>
        <time>2020-09-24T14:40:01Z</time>
      </trkpt>
      <trkpt lat="49.09543" lon="7.08565">
        <ele>195.8</ele>
        <time>2020-09-24T14:40:07Z</time>
      </trkpt>
      <trkpt lat="49.0957" lon="7.08494">
        <ele>195.2</ele>
        <time>2020-09-24T14:40:15Z</time>
      </trkpt>
      <trkpt lat="49.09573" lon="7.08485">
        <ele>195.2</ele>
        <time>2020-09-24T14:40:16Z</time>
      </trkpt>
      <trkpt lat="49.096" lon="7.08424">
        <ele>195.2</ele>
        <time>2020-09-24T14:40:23Z</time>
      </trkpt>
      <trkpt lat="49.09619" lon="7.08395">
        <ele>195.2</ele>
        <time>2020-09-24T14:40:27Z</time>
      </trkpt>
      <trkpt lat="49.09634" lon="7.08372">
        <ele>195.2</ele>
        <time>2020-09-24T14:40:30Z</time>
      </trkpt>
      <trkpt lat="49.09658" lon="7.08335">
        <ele>195.2</ele>
        <time>2020-09-24T14:40:35Z</time>
      </trkpt>
      <trkpt lat="49.09663" lon="7.08328">
        <ele>195.2</ele>
        <time>2020-09-24T14:40:36Z</time>
      </trkpt>
      <trkpt lat="49.09677" lon="7.08306">
        <ele>195</ele>
        <time>2020-09-24T14:40:39Z</time>
      </trkpt>
      <trkpt lat="49.09682" lon="7.08299">
        <ele>195.2</ele>
        <time>2020-09-24T14:40:40Z</time>
      </trkpt>
      <trkpt lat="49.09692" lon="7.08284">
        <ele>195.6</ele>
        <time>2020-09-24T14:40:42Z</time>
      </trkpt>
      <trkpt lat="49.09706" lon="7.08261">
        <ele>195.4</ele>
        <time>2020-09-24T14:40:45Z</time>
      </trkpt>
      <trkpt lat="49.09711" lon="7.08254">
        <ele>195.4</ele>
        <time>2020-09-24T14:40:46Z</time>
      </trkpt>
      <trkpt lat="49.0975" lon="7.08206">
        <ele>195.8</ele>
        <time>2020-09-24T14:40:54Z</time>
      </trkpt>
      <trkpt lat="49.09794" lon="7.08157">
        <ele>196</ele>
        <time>2020-09-24T14:41:01Z</time>
      </trkpt>
      <trkpt lat="49.098" lon="7.08152">
        <ele>196</ele>
        <time>2020-09-24T14:41:02Z</time>
      </trkpt>
      <trkpt lat="49.09848" lon="7.08114">
        <ele>196.4</ele>
        <time>2020-09-24T14:41:10Z</time>
      </trkpt>
      <trkpt lat="49.09874" lon="7.08094">
        <ele>196.6</ele>
        <time>2020-09-24T14:41:16Z</time>
      </trkpt>
      <trkpt lat="49.0992" lon="7.08058">
        <ele>196.8</ele>
        <time>2020-09-24T14:41:24Z</time>
      </trkpt>
      <trkpt lat="49.09939" lon="7.08043">
        <ele>197</ele>
        <time>2020-09-24T14:41:28Z</time>
      </trkpt>
      <trkpt lat="49.09944" lon="7.08039">
        <ele>197</ele>
        <time>2020-09-24T14:41:29Z</time>
      </trkpt>
      <trkpt lat="49.09948" lon="7.08036">
        <ele>197</ele>
        <time>2020-09-24T14:41:30Z</time>
      </trkpt>
      <trkpt lat="49.09957" lon="7.08029">
        <ele>197</ele>
        <time>2020-09-24T14:41:33Z</time>
      </trkpt>
      <trkpt lat="49.09965" lon="7.08023">
        <ele>197</ele>
        <time>2020-09-24T14:41:34Z</time>
      </trkpt>
      <trkpt lat="49.09977" lon="7.08026">
        <ele>197</ele>
        <time>2020-09-24T14:41:37Z</time>
      </trkpt>
      <trkpt lat="49.09975" lon="7.08017">
        <ele>197</ele>
        <time>2020-09-24T14:41:40Z</time>
      </trkpt>
      <trkpt lat="49.09972" lon="7.08003">
        <ele>197.4</ele>
        <time>2020-09-24T14:41:44Z</time>
      </trkpt>
      <trkpt lat="49.09971" lon="7.07998">
        <ele>197.4</ele>
        <time>2020-09-24T14:41:45Z</time>
      </trkpt>
      <trkpt lat="49.09976" lon="7.0799">
        <ele>197.4</ele>
        <time>2020-09-24T14:41:46Z</time>
      </trkpt>
      <trkpt lat="49.09982" lon="7.07983">
        <ele>197.4</ele>
        <time>2020-09-24T14:41:48Z</time>
      </trkpt>
      <trkpt lat="49.09995" lon="7.0797">
        <ele>197.4</ele>
        <time>2020-09-24T14:41:52Z</time>
      </trkpt>
      <trkpt lat="49.09999" lon="7.07966">
        <ele>197.4</ele>
        <time>2020-09-24T14:41:53Z</time>
      </trkpt>
      <trkpt lat="49.10004" lon="7.0796">
        <ele>197.4</ele>
        <time>2020-09-24T14:41:54Z</time>
      </trkpt>
      <trkpt lat="49.1001" lon="7.07954">
        <ele>197.4</ele>
        <time>2020-09-24T14:41:57Z</time>
      </trkpt>
      <trkpt lat="49.1003" lon="7.07933">
        <ele>197</ele>
        <time>2020-09-24T14:42:04Z</time>
      </trkpt>
      <trkpt lat="49.10054" lon="7.07903">
        <ele>197</ele>
        <time>2020-09-24T14:42:11Z</time>
      </trkpt>
      <trkpt lat="49.10077" lon="7.07874">
        <ele>197.2</ele>
        <time>2020-09-24T14:42:17Z</time>
      </trkpt>
      <trkpt lat="49.10084" lon="7.07865">
        <ele>197</ele>
        <time>2020-09-24T14:42:19Z</time>
      </trkpt>
      <trkpt lat="49.10107" lon="7.07836">
        <ele>197.4</ele>
        <time>2020-09-24T14:42:25Z</time>
      </trkpt>
      <trkpt lat="49.10137" lon="7.07798">
        <ele>197.4</ele>
        <time>2020-09-24T14:42:33Z</time>
      </trkpt>
      <trkpt lat="49.10172" lon="7.07754">
        <ele>197</ele>
        <time>2020-09-24T14:42:42Z</time>
      </trkpt>
      <trkpt lat="49.10192" lon="7.0773">
        <ele>197</ele>
        <time>2020-09-24T14:42:47Z</time>
      </trkpt>
      <trkpt lat="49.10196" lon="7.07727">
        <ele>197</ele>
        <time>2020-09-24T14:42:48Z</time>
      </trkpt>
      <trkpt lat="49.10201" lon="7.07727">
        <ele>197</ele>
        <time>2020-09-24T14:42:49Z</time>
      </trkpt>
      <trkpt lat="49.10212" lon="7.07726">
        <ele>197</ele>
        <time>2020-09-24T14:42:51Z</time>
      </trkpt>
      <trkpt lat="49.10216" lon="7.07723">
        <ele>197</ele>
        <time>2020-09-24T14:42:52Z</time>
      </trkpt>
      <trkpt lat="49.10235" lon="7.07706">
        <ele>197</ele>
        <time>2020-09-24T14:42:56Z</time>
      </trkpt>
      <trkpt lat="49.10243" lon="7.07694">
        <ele>196.8</ele>
        <time>2020-09-24T14:42:58Z</time>
      </trkpt>
      <trkpt lat="49.10247" lon="7.07689">
        <ele>196.8</ele>
        <time>2020-09-24T14:42:59Z</time>
      </trkpt>
      <trkpt lat="49.10263" lon="7.07666">
        <ele>196.8</ele>
        <time>2020-09-24T14:43:03Z</time>
      </trkpt>
      <trkpt lat="49.10275" lon="7.07648">
        <ele>196.8</ele>
        <time>2020-09-24T14:43:06Z</time>
      </trkpt>
      <trkpt lat="49.10293" lon="7.07623">
        <ele>196.6</ele>
        <time>2020-09-24T14:43:10Z</time>
      </trkpt>
      <trkpt lat="49.10314" lon="7.07593">
        <ele>196.6</ele>
        <time>2020-09-24T14:43:15Z</time>
      </trkpt>
      <trkpt lat="49.10344" lon="7.0755">
        <ele>196.6</ele>
        <time>2020-09-24T14:43:22Z</time>
      </trkpt>
      <trkpt lat="49.10383" lon="7.07493">
        <ele>196.4</ele>
        <time>2020-09-24T14:43:31Z</time>
      </trkpt>
      <trkpt lat="49.1041" lon="7.07455">
        <ele>196.2</ele>
        <time>2020-09-24T14:43:37Z</time>
      </trkpt>
      <trkpt lat="49.10414" lon="7.07449">
        <ele>196.2</ele>
        <time>2020-09-24T14:43:38Z</time>
      </trkpt>
      <trkpt lat="49.10441" lon="7.0741">
        <ele>196</ele>
        <time>2020-09-24T14:43:44Z</time>
      </trkpt>
      <trkpt lat="49.10483" lon="7.07355">
        <ele>195.8</ele>
        <time>2020-09-24T14:43:53Z</time>
      </trkpt>
      <trkpt lat="49.10513" lon="7.07325">
        <ele>195.6</ele>
        <time>2020-09-24T14:43:59Z</time>
      </trkpt>
      <trkpt lat="49.10555" lon="7.07288">
        <ele>195.4</ele>
        <time>2020-09-24T14:44:07Z</time>
      </trkpt>
      <trkpt lat="49.1058" lon="7.07266">
        <ele>195.2</ele>
        <time>2020-09-24T14:44:12Z</time>
      </trkpt>
      <trkpt lat="49.10615" lon="7.07244">
        <ele>195</ele>
        <time>2020-09-24T14:44:18Z</time>
      </trkpt>
      <trkpt lat="49.10646" lon="7.07224">
        <ele>195</ele>
        <time>2020-09-24T14:44:24Z</time>
      </trkpt>
      <trkpt lat="49.10683" lon="7.07208">
        <ele>195.2</ele>
        <time>2020-09-24T14:44:30Z</time>
      </trkpt>
      <trkpt lat="49.1073" lon="7.07197">
        <ele>195</ele>
        <time>2020-09-24T14:44:38Z</time>
      </trkpt>
      <trkpt lat="49.10772" lon="7.07193">
        <ele>195.2</ele>
        <time>2020-09-24T14:44:45Z</time>
      </trkpt>
      <trkpt lat="49.10814" lon="7.07199">
        <ele>195.2</ele>
        <time>2020-09-24T14:44:52Z</time>
      </trkpt>
      <trkpt lat="49.10826" lon="7.072">
        <ele>195.2</ele>
        <time>2020-09-24T14:44:54Z</time>
      </trkpt>
      <trkpt lat="49.10844" lon="7.07203">
        <ele>195</ele>
        <time>2020-09-24T14:44:57Z</time>
      </trkpt>
      <trkpt lat="49.10894" lon="7.07209">
        <ele>195</ele>
        <time>2020-09-24T14:45:05Z</time>
      </trkpt>
      <trkpt lat="49.10906" lon="7.07211">
        <ele>195</ele>
        <time>2020-09-24T14:45:07Z</time>
      </trkpt>
      <trkpt lat="49.10932" lon="7.07211">
        <ele>195</ele>
        <time>2020-09-24T14:45:11Z</time>
      </trkpt>
      <trkpt lat="49.10983" lon="7.0721">
        <ele>195.2</ele>
        <time>2020-09-24T14:45:19Z</time>
      </trkpt>
      <trkpt lat="49.11019" lon="7.07205">
        <ele>195</ele>
        <time>2020-09-24T14:45:25Z</time>
      </trkpt>
      <trkpt lat="49.11055" lon="7.07192">
        <ele>195</ele>
        <time>2020-09-24T14:45:31Z</time>
      </trkpt>
      <trkpt lat="49.11099" lon="7.07167">
        <ele>194.6</ele>
        <time>2020-09-24T14:45:39Z</time>
      </trkpt>
      <trkpt lat="49.11124" lon="7.07143">
        <ele>194.4</ele>
        <time>2020-09-24T14:45:44Z</time>
      </trkpt>
      <trkpt lat="49.11129" lon="7.07139">
        <ele>194.4</ele>
        <time>2020-09-24T14:45:45Z</time>
      </trkpt>
      <trkpt lat="49.11165" lon="7.07096">
        <ele>193.8</ele>
        <time>2020-09-24T14:45:52Z</time>
      </trkpt>
      <trkpt lat="49.11178" lon="7.07074">
        <ele>193.6</ele>
        <time>2020-09-24T14:45:55Z</time>
      </trkpt>
      <trkpt lat="49.11186" lon="7.07059">
        <ele>193.4</ele>
        <time>2020-09-24T14:45:57Z</time>
      </trkpt>
      <trkpt lat="49.11213" lon="7.07006">
        <ele>193.2</ele>
        <time>2020-09-24T14:46:04Z</time>
      </trkpt>
      <trkpt lat="49.11239" lon="7.06956">
        <ele>193.2</ele>
        <time>2020-09-24T14:46:11Z</time>
      </trkpt>
      <trkpt lat="49.11246" lon="7.06943">
        <ele>193</ele>
        <time>2020-09-24T14:46:14Z</time>
      </trkpt>
      <trkpt lat="49.11259" lon="7.06917">
        <ele>193.2</ele>
        <time>2020-09-24T14:46:17Z</time>
      </trkpt>
      <trkpt lat="49.11266" lon="7.06903">
        <ele>193.2</ele>
        <time>2020-09-24T14:46:19Z</time>
      </trkpt>
      <trkpt lat="49.1128" lon="7.06876">
        <ele>193.2</ele>
        <time>2020-09-24T14:46:23Z</time>
      </trkpt>
      <trkpt lat="49.11286" lon="7.06863">
        <ele>193</ele>
        <time>2020-09-24T14:46:25Z</time>
      </trkpt>
      <trkpt lat="49.11298" lon="7.06834">
        <ele>193.4</ele>
        <time>2020-09-24T14:46:29Z</time>
      </trkpt>
      <trkpt lat="49.1132" lon="7.06777">
        <ele>193.8</ele>
        <time>2020-09-24T14:46:37Z</time>
      </trkpt>
      <trkpt lat="49.11337" lon="7.06732">
        <ele>194</ele>
        <time>2020-09-24T14:46:43Z</time>
      </trkpt>
      <trkpt lat="49.11356" lon="7.06676">
        <ele>194.2</ele>
        <time>2020-09-24T14:46:50Z</time>
      </trkpt>
      <trkpt lat="49.11365" lon="7.06644">
        <ele>194.2</ele>
        <time>2020-09-24T14:46:54Z</time>
      </trkpt>
      <trkpt lat="49.11366" lon="7.06635">
        <ele>194.2</ele>
        <time>2020-09-24T14:46:55Z</time>
      </trkpt>
      <trkpt lat="49.1137" lon="7.06599">
        <ele>194.2</ele>
        <time>2020-09-24T14:46:59Z</time>
      </trkpt>
      <trkpt lat="49.1137" lon="7.06589">
        <ele>194.2</ele>
        <time>2020-09-24T14:47:01Z</time>
      </trkpt>
      <trkpt lat="49.11369" lon="7.06552">
        <ele>194.2</ele>
        <time>2020-09-24T14:47:04Z</time>
      </trkpt>
      <trkpt lat="49.11368" lon="7.06534">
        <ele>194.4</ele>
        <time>2020-09-24T14:47:06Z</time>
      </trkpt>
      <trkpt lat="49.11354" lon="7.06474">
        <ele>194</ele>
        <time>2020-09-24T14:47:13Z</time>
      </trkpt>
      <trkpt lat="49.11348" lon="7.06444">
        <ele>194</ele>
        <time>2020-09-24T14:47:17Z</time>
      </trkpt>
      <trkpt lat="49.11346" lon="7.06437">
        <ele>193.8</ele>
        <time>2020-09-24T14:47:18Z</time>
      </trkpt>
      <trkpt lat="49.11344" lon="7.0643">
        <ele>193.8</ele>
        <time>2020-09-24T14:47:19Z</time>
      </trkpt>
      <trkpt lat="49.11338" lon="7.06408">
        <ele>193.8</ele>
        <time>2020-09-24T14:47:22Z</time>
      </trkpt>
      <trkpt lat="49.11335" lon="7.06401">
        <ele>193.8</ele>
        <time>2020-09-24T14:47:23Z</time>
      </trkpt>
      <trkpt lat="49.11318" lon="7.06359">
        <ele>193.8</ele>
        <time>2020-09-24T14:47:29Z</time>
      </trkpt>
      <trkpt lat="49.11316" lon="7.06353">
        <ele>193.8</ele>
        <time>2020-09-24T14:47:30Z</time>
      </trkpt>
      <trkpt lat="49.11311" lon="7.0634">
        <ele>193.8</ele>
        <time>2020-09-24T14:47:32Z</time>
      </trkpt>
      <trkpt lat="49.11308" lon="7.06334">
        <ele>193.8</ele>
        <time>2020-09-24T14:47:33Z</time>
      </trkpt>
      <trkpt lat="49.11294" lon="7.06293">
        <ele>193.6</ele>
        <time>2020-09-24T14:47:39Z</time>
      </trkpt>
      <trkpt lat="49.11279" lon="7.06241">
        <ele>193.4</ele>
        <time>2020-09-24T14:47:46Z</time>
      </trkpt>
      <trkpt lat="49.1126" lon="7.0618">
        <ele>193.4</ele>
        <time>2020-09-24T14:47:54Z</time>
      </trkpt>
      <trkpt lat="49.11242" lon="7.06118">
        <ele>193.4</ele>
        <time>2020-09-24T14:48:02Z</time>
      </trkpt>
      <trkpt lat="49.11229" lon="7.06062">
        <ele>193.4</ele>
        <time>2020-09-24T14:48:09Z</time>
      </trkpt>
      <trkpt lat="49.11212" lon="7.05985">
        <ele>193.4</ele>
        <time>2020-09-24T14:48:18Z</time>
      </trkpt>
      <trkpt lat="49.11192" lon="7.059">
        <ele>193.4</ele>
        <time>2020-09-24T14:48:28Z</time>
      </trkpt>
      <trkpt lat="49.1119" lon="7.05892">
        <ele>193.4</ele>
        <time>2020-09-24T14:48:29Z</time>
      </trkpt>
      <trkpt lat="49.11176" lon="7.05833">
        <ele>193.2</ele>
        <time>2020-09-24T14:48:36Z</time>
      </trkpt>
      <trkpt lat="49.11172" lon="7.05796">
        <ele>193.2</ele>
        <time>2020-09-24T14:48:40Z</time>
      </trkpt>
      <trkpt lat="49.11171" lon="7.05779">
        <ele>193.2</ele>
        <time>2020-09-24T14:48:42Z</time>
      </trkpt>
      <trkpt lat="49.1117" lon="7.05771">
        <ele>193.2</ele>
        <time>2020-09-24T14:48:43Z</time>
      </trkpt>
      <trkpt lat="49.11168" lon="7.05744">
        <ele>193.2</ele>
        <time>2020-09-24T14:48:46Z</time>
      </trkpt>
      <trkpt lat="49.11167" lon="7.05689">
        <ele>193</ele>
        <time>2020-09-24T14:48:52Z</time>
      </trkpt>
      <trkpt lat="49.11168" lon="7.05655">
        <ele>193</ele>
        <time>2020-09-24T14:48:56Z</time>
      </trkpt>
      <trkpt lat="49.1117" lon="7.05628">
        <ele>192.8</ele>
        <time>2020-09-24T14:48:59Z</time>
      </trkpt>
      <trkpt lat="49.11178" lon="7.05573">
        <ele>192.6</ele>
        <time>2020-09-24T14:49:05Z</time>
      </trkpt>
      <trkpt lat="49.1118" lon="7.05564">
        <ele>192.6</ele>
        <time>2020-09-24T14:49:06Z</time>
      </trkpt>
      <trkpt lat="49.11183" lon="7.05539">
        <ele>192.4</ele>
        <time>2020-09-24T14:49:09Z</time>
      </trkpt>
      <trkpt lat="49.11186" lon="7.05521">
        <ele>192.4</ele>
        <time>2020-09-24T14:49:11Z</time>
      </trkpt>
      <trkpt lat="49.1119" lon="7.05495">
        <ele>192.4</ele>
        <time>2020-09-24T14:49:14Z</time>
      </trkpt>
      <trkpt lat="49.11195" lon="7.0547">
        <ele>192.2</ele>
        <time>2020-09-24T14:49:17Z</time>
      </trkpt>
      <trkpt lat="49.11196" lon="7.05461">
        <ele>192.4</ele>
        <time>2020-09-24T14:49:18Z</time>
      </trkpt>
      <trkpt lat="49.11203" lon="7.05426">
        <ele>192.4</ele>
        <time>2020-09-24T14:49:22Z</time>
      </trkpt>
      <trkpt lat="49.11212" lon="7.05382">
        <ele>192.2</ele>
        <time>2020-09-24T14:49:27Z</time>
      </trkpt>
      <trkpt lat="49.11217" lon="7.05365">
        <ele>192.2</ele>
        <time>2020-09-24T14:49:29Z</time>
      </trkpt>
      <trkpt lat="49.11224" lon="7.0534">
        <ele>192.2</ele>
        <time>2020-09-24T14:49:32Z</time>
      </trkpt>
      <trkpt lat="49.1124" lon="7.0528">
        <ele>192.2</ele>
        <time>2020-09-24T14:49:39Z</time>
      </trkpt>
      <trkpt lat="49.1126" lon="7.05211">
        <ele>192.4</ele>
        <time>2020-09-24T14:49:47Z</time>
      </trkpt>
      <trkpt lat="49.11271" lon="7.05169">
        <ele>192.4</ele>
        <time>2020-09-24T14:49:52Z</time>
      </trkpt>
      <trkpt lat="49.11274" lon="7.05161">
        <ele>192.4</ele>
        <time>2020-09-24T14:49:53Z</time>
      </trkpt>
      <trkpt lat="49.11282" lon="7.0513">
        <ele>192.4</ele>
        <time>2020-09-24T14:49:57Z</time>
      </trkpt>
      <trkpt lat="49.11287" lon="7.05114">
        <ele>192.2</ele>
        <time>2020-09-24T14:49:59Z</time>
      </trkpt>
      <trkpt lat="49.11288" lon="7.05106">
        <ele>192.2</ele>
        <time>2020-09-24T14:50:00Z</time>
      </trkpt>
      <trkpt lat="49.11292" lon="7.0509">
        <ele>192.2</ele>
        <time>2020-09-24T14:50:02Z</time>
      </trkpt>
      <trkpt lat="49.11295" lon="7.05074">
        <ele>192.2</ele>
        <time>2020-09-24T14:50:04Z</time>
      </trkpt>
      <trkpt lat="49.11304" lon="7.05026">
        <ele>192</ele>
        <time>2020-09-24T14:50:10Z</time>
      </trkpt>
      <trkpt lat="49.11305" lon="7.05018">
        <ele>192</ele>
        <time>2020-09-24T14:50:11Z</time>
      </trkpt>
      <trkpt lat="49.11311" lon="7.04994">
        <ele>192</ele>
        <time>2020-09-24T14:50:14Z</time>
      </trkpt>
      <trkpt lat="49.11312" lon="7.04987">
        <ele>192</ele>
        <time>2020-09-24T14:50:15Z</time>
      </trkpt>
      <trkpt lat="49.11326" lon="7.04943">
        <ele>192</ele>
        <time>2020-09-24T14:50:21Z</time>
      </trkpt>
      <trkpt lat="49.1134" lon="7.04906">
        <ele>191.8</ele>
        <time>2020-09-24T14:50:26Z</time>
      </trkpt>
      <trkpt lat="49.11353" lon="7.04875">
        <ele>192</ele>
        <time>2020-09-24T14:50:31Z</time>
      </trkpt>
      <trkpt lat="49.11364" lon="7.0485">
        <ele>192.2</ele>
        <time>2020-09-24T14:50:36Z</time>
      </trkpt>
      <trkpt lat="49.11382" lon="7.04825">
        <ele>192.6</ele>
        <time>2020-09-24T14:50:42Z</time>
      </trkpt>
      <trkpt lat="49.11399" lon="7.04803">
        <ele>192.6</ele>
        <time>2020-09-24T14:50:46Z</time>
      </trkpt>
      <trkpt lat="49.11403" lon="7.04797">
        <ele>192.6</ele>
        <time>2020-09-24T14:50:47Z</time>
      </trkpt>
      <trkpt lat="49.11431" lon="7.04769">
        <ele>192.4</ele>
        <time>2020-09-24T14:50:53Z</time>
      </trkpt>
      <trkpt lat="49.11436" lon="7.04765">
        <ele>192.4</ele>
        <time>2020-09-24T14:50:54Z</time>
      </trkpt>
      <trkpt lat="49.11449" lon="7.04752">
        <ele>192.8</ele>
        <time>2020-09-24T14:50:57Z</time>
      </trkpt>
      <trkpt lat="49.11453" lon="7.04748">
        <ele>192.6</ele>
        <time>2020-09-24T14:50:58Z</time>
      </trkpt>
      <trkpt lat="49.11481" lon="7.04721">
        <ele>192.8</ele>
        <time>2020-09-24T14:51:04Z</time>
      </trkpt>
      <trkpt lat="49.11516" lon="7.04686">
        <ele>192.8</ele>
        <time>2020-09-24T14:51:11Z</time>
      </trkpt>
      <trkpt lat="49.11557" lon="7.04646">
        <ele>192.8</ele>
        <time>2020-09-24T14:51:19Z</time>
      </trkpt>
      <trkpt lat="49.11602" lon="7.04604">
        <ele>193</ele>
        <time>2020-09-24T14:51:28Z</time>
      </trkpt>
      <trkpt lat="49.11633" lon="7.04579">
        <ele>192.8</ele>
        <time>2020-09-24T14:51:34Z</time>
      </trkpt>
      <trkpt lat="49.11663" lon="7.04565">
        <ele>192.8</ele>
        <time>2020-09-24T14:51:40Z</time>
      </trkpt>
      <trkpt lat="49.11663" lon="7.04565">
        <ele>192.8</ele>
        <time>2020-09-24T14:51:41Z</time>
      </trkpt>
      <trkpt lat="49.11683" lon="7.04556">
        <ele>192.8</ele>
        <time>2020-09-24T14:51:44Z</time>
      </trkpt>
      <trkpt lat="49.11717" lon="7.04539">
        <ele>192.6</ele>
        <time>2020-09-24T14:51:50Z</time>
      </trkpt>
      <trkpt lat="49.11748" lon="7.04524">
        <ele>192.6</ele>
        <time>2020-09-24T14:51:55Z</time>
      </trkpt>
      <trkpt lat="49.11796" lon="7.04502">
        <ele>192.2</ele>
        <time>2020-09-24T14:52:03Z</time>
      </trkpt>
      <trkpt lat="49.11801" lon="7.04499">
        <ele>192</ele>
        <time>2020-09-24T14:52:07Z</time>
      </trkpt>
      <trkpt lat="49.11822" lon="7.04489">
        <ele>192</ele>
        <time>2020-09-24T14:52:08Z</time>
      </trkpt>
      <trkpt lat="49.11833" lon="7.04484">
        <ele>191.8</ele>
        <time>2020-09-24T14:52:10Z</time>
      </trkpt>
      <trkpt lat="49.11841" lon="7.04477">
        <ele>191.6</ele>
        <time>2020-09-24T14:52:12Z</time>
      </trkpt>
      <trkpt lat="49.11851" lon="7.04467">
        <ele>191.4</ele>
        <time>2020-09-24T14:52:14Z</time>
      </trkpt>
      <trkpt lat="49.11861" lon="7.04457">
        <ele>191</ele>
        <time>2020-09-24T14:52:16Z</time>
      </trkpt>
      <trkpt lat="49.11879" lon="7.04438">
        <ele>190.6</ele>
        <time>2020-09-24T14:52:20Z</time>
      </trkpt>
      <trkpt lat="49.11885" lon="7.04437">
        <ele>190.4</ele>
        <time>2020-09-24T14:52:21Z</time>
      </trkpt>
      <trkpt lat="49.1192" lon="7.04427">
        <ele>189.2</ele>
        <time>2020-09-24T14:52:27Z</time>
      </trkpt>
      <trkpt lat="49.11944" lon="7.04419">
        <ele>188.6</ele>
        <time>2020-09-24T14:52:31Z</time>
      </trkpt>
      <trkpt lat="49.11957" lon="7.04416">
        <ele>188.2</ele>
        <time>2020-09-24T14:52:33Z</time>
      </trkpt>
      <trkpt lat="49.12001" lon="7.04403">
        <ele>188.2</ele>
        <time>2020-09-24T14:52:39Z</time>
      </trkpt>
      <trkpt lat="49.12055" lon="7.04389">
        <ele>188</ele>
        <time>2020-09-24T14:52:47Z</time>
      </trkpt>
      <trkpt lat="49.12061" lon="7.04389">
        <ele>188</ele>
        <time>2020-09-24T14:52:48Z</time>
      </trkpt>
      <trkpt lat="49.12115" lon="7.04386">
        <ele>188.2</ele>
        <time>2020-09-24T14:52:56Z</time>
      </trkpt>
      <trkpt lat="49.12122" lon="7.04386">
        <ele>188.2</ele>
        <time>2020-09-24T14:52:57Z</time>
      </trkpt>
      <trkpt lat="49.12153" lon="7.04387">
        <ele>188.4</ele>
        <time>2020-09-24T14:53:02Z</time>
      </trkpt>
      <trkpt lat="49.12159" lon="7.04387">
        <ele>188.4</ele>
        <time>2020-09-24T14:53:03Z</time>
      </trkpt>
      <trkpt lat="49.12191" lon="7.04389">
        <ele>188.6</ele>
        <time>2020-09-24T14:53:08Z</time>
      </trkpt>
      <trkpt lat="49.12242" lon="7.04391">
        <ele>189</ele>
        <time>2020-09-24T14:53:16Z</time>
      </trkpt>
      <trkpt lat="49.12288" lon="7.04394">
        <ele>189</ele>
        <time>2020-09-24T14:53:23Z</time>
      </trkpt>
      <trkpt lat="49.12341" lon="7.04397">
        <ele>189.2</ele>
        <time>2020-09-24T14:53:31Z</time>
      </trkpt>
      <trkpt lat="49.12394" lon="7.04401">
        <ele>189.4</ele>
        <time>2020-09-24T14:53:39Z</time>
      </trkpt>
      <trkpt lat="49.12443" lon="7.04405">
        <ele>189.4</ele>
        <time>2020-09-24T14:53:46Z</time>
      </trkpt>
      <trkpt lat="49.12499" lon="7.04417">
        <ele>189.6</ele>
        <time>2020-09-24T14:53:54Z</time>
      </trkpt>
      <trkpt lat="49.12556" lon="7.0443">
        <ele>190</ele>
        <time>2020-09-24T14:54:02Z</time>
      </trkpt>
      <trkpt lat="49.12613" lon="7.04442">
        <ele>190.2</ele>
        <time>2020-09-24T14:54:10Z</time>
      </trkpt>
      <trkpt lat="49.12649" lon="7.0445">
        <ele>190.4</ele>
        <time>2020-09-24T14:54:15Z</time>
      </trkpt>
      <trkpt lat="49.12707" lon="7.04465">
        <ele>190.8</ele>
        <time>2020-09-24T14:54:23Z</time>
      </trkpt>
      <trkpt lat="49.12749" lon="7.04479">
        <ele>191</ele>
        <time>2020-09-24T14:54:29Z</time>
      </trkpt>
      <trkpt lat="49.12797" lon="7.04496">
        <ele>191.2</ele>
        <time>2020-09-24T14:54:36Z</time>
      </trkpt>
      <trkpt lat="49.12853" lon="7.04515">
        <ele>191.4</ele>
        <time>2020-09-24T14:54:44Z</time>
      </trkpt>
      <trkpt lat="49.12888" lon="7.04524">
        <ele>191.6</ele>
        <time>2020-09-24T14:54:49Z</time>
      </trkpt>
      <trkpt lat="49.1293" lon="7.04528">
        <ele>191.6</ele>
        <time>2020-09-24T14:54:55Z</time>
      </trkpt>
      <trkpt lat="49.12986" lon="7.04527">
        <ele>191.6</ele>
        <time>2020-09-24T14:55:03Z</time>
      </trkpt>
      <trkpt lat="49.13042" lon="7.04525">
        <ele>192</ele>
        <time>2020-09-24T14:55:11Z</time>
      </trkpt>
      <trkpt lat="49.13097" lon="7.04523">
        <ele>192.2</ele>
        <time>2020-09-24T14:55:19Z</time>
      </trkpt>
      <trkpt lat="49.13104" lon="7.04523">
        <ele>192.2</ele>
        <time>2020-09-24T14:55:20Z</time>
      </trkpt>
      <trkpt lat="49.13151" lon="7.04524">
        <ele>192.2</ele>
        <time>2020-09-24T14:55:27Z</time>
      </trkpt>
      <trkpt lat="49.13187" lon="7.04527">
        <ele>192.2</ele>
        <time>2020-09-24T14:55:33Z</time>
      </trkpt>
      <trkpt lat="49.13237" lon="7.04538">
        <ele>192.2</ele>
        <time>2020-09-24T14:55:39Z</time>
      </trkpt>
      <trkpt lat="49.13278" lon="7.04554">
        <ele>192.2</ele>
        <time>2020-09-24T14:55:45Z</time>
      </trkpt>
      <trkpt lat="49.13327" lon="7.04575">
        <ele>192.2</ele>
        <time>2020-09-24T14:55:52Z</time>
      </trkpt>
      <trkpt lat="49.13369" lon="7.04593">
        <ele>192.4</ele>
        <time>2020-09-24T14:55:58Z</time>
      </trkpt>
      <trkpt lat="49.13424" lon="7.04619">
        <ele>192.2</ele>
        <time>2020-09-24T14:56:06Z</time>
      </trkpt>
      <trkpt lat="49.13444" lon="7.04629">
        <ele>192.2</ele>
        <time>2020-09-24T14:56:09Z</time>
      </trkpt>
      <trkpt lat="49.13491" lon="7.04652">
        <ele>192.2</ele>
        <time>2020-09-24T14:56:16Z</time>
      </trkpt>
      <trkpt lat="49.13498" lon="7.04653">
        <ele>192.2</ele>
        <time>2020-09-24T14:56:17Z</time>
      </trkpt>
      <trkpt lat="49.13541" lon="7.04656">
        <ele>192.2</ele>
        <time>2020-09-24T14:56:23Z</time>
      </trkpt>
      <trkpt lat="49.136" lon="7.04659">
        <ele>192.4</ele>
        <time>2020-09-24T14:56:31Z</time>
      </trkpt>
      <trkpt lat="49.13646" lon="7.04651">
        <ele>192.4</ele>
        <time>2020-09-24T14:56:37Z</time>
      </trkpt>
      <trkpt lat="49.13692" lon="7.04641">
        <ele>192.4</ele>
        <time>2020-09-24T14:56:43Z</time>
      </trkpt>
      <trkpt lat="49.1375" lon="7.04616">
        <ele>192.6</ele>
        <time>2020-09-24T14:56:51Z</time>
      </trkpt>
      <trkpt lat="49.13764" lon="7.0461">
        <ele>192.6</ele>
        <time>2020-09-24T14:56:53Z</time>
      </trkpt>
      <trkpt lat="49.13821" lon="7.04585">
        <ele>192.6</ele>
        <time>2020-09-24T14:57:01Z</time>
      </trkpt>
      <trkpt lat="49.13835" lon="7.04579">
        <ele>192.6</ele>
        <time>2020-09-24T14:57:03Z</time>
      </trkpt>
      <trkpt lat="49.13888" lon="7.04549">
        <ele>192.6</ele>
        <time>2020-09-24T14:57:11Z</time>
      </trkpt>
      <trkpt lat="49.13934" lon="7.04517">
        <ele>192.8</ele>
        <time>2020-09-24T14:57:18Z</time>
      </trkpt>
      <trkpt lat="49.13981" lon="7.04485">
        <ele>192.8</ele>
        <time>2020-09-24T14:57:26Z</time>
      </trkpt>
      <trkpt lat="49.14" lon="7.04472">
        <ele>193</ele>
        <time>2020-09-24T14:57:28Z</time>
      </trkpt>
      <trkpt lat="49.14027" lon="7.04456">
        <ele>193</ele>
        <time>2020-09-24T14:57:32Z</time>
      </trkpt>
      <trkpt lat="49.14086" lon="7.04417">
        <ele>192.8</ele>
        <time>2020-09-24T14:57:41Z</time>
      </trkpt>
      <trkpt lat="49.14125" lon="7.04393">
        <ele>193</ele>
        <time>2020-09-24T14:57:47Z</time>
      </trkpt>
      <trkpt lat="49.14171" lon="7.04363">
        <ele>192.8</ele>
        <time>2020-09-24T14:57:55Z</time>
      </trkpt>
      <trkpt lat="49.14216" lon="7.04338">
        <ele>192.8</ele>
        <time>2020-09-24T14:58:01Z</time>
      </trkpt>
      <trkpt lat="49.1427" lon="7.04312">
        <ele>193</ele>
        <time>2020-09-24T14:58:10Z</time>
      </trkpt>
      <trkpt lat="49.14319" lon="7.04288">
        <ele>193.2</ele>
        <time>2020-09-24T14:58:18Z</time>
      </trkpt>
      <trkpt lat="49.1437" lon="7.04264">
        <ele>193.2</ele>
        <time>2020-09-24T14:58:26Z</time>
      </trkpt>
      <trkpt lat="49.14382" lon="7.04258">
        <ele>193.2</ele>
        <time>2020-09-24T14:58:28Z</time>
      </trkpt>
      <trkpt lat="49.14401" lon="7.04249">
        <ele>193.2</ele>
        <time>2020-09-24T14:58:31Z</time>
      </trkpt>
      <trkpt lat="49.14448" lon="7.04226">
        <ele>193.4</ele>
        <time>2020-09-24T14:58:39Z</time>
      </trkpt>
      <trkpt lat="49.14484" lon="7.04208">
        <ele>193.2</ele>
        <time>2020-09-24T14:58:45Z</time>
      </trkpt>
      <trkpt lat="49.14524" lon="7.04189">
        <ele>193.4</ele>
        <time>2020-09-24T14:58:52Z</time>
      </trkpt>
      <trkpt lat="49.14566" lon="7.04169">
        <ele>193.2</ele>
        <time>2020-09-24T14:58:59Z</time>
      </trkpt>
      <trkpt lat="49.14596" lon="7.04154">
        <ele>193</ele>
        <time>2020-09-24T14:59:04Z</time>
      </trkpt>
      <trkpt lat="49.14602" lon="7.04151">
        <ele>193</ele>
        <time>2020-09-24T14:59:05Z</time>
      </trkpt>
      <trkpt lat="49.1465" lon="7.04124">
        <ele>193</ele>
        <time>2020-09-24T14:59:13Z</time>
      </trkpt>
      <trkpt lat="49.1469" lon="7.04091">
        <ele>192.6</ele>
        <time>2020-09-24T14:59:20Z</time>
      </trkpt>
      <trkpt lat="49.14719" lon="7.04053">
        <ele>192.4</ele>
        <time>2020-09-24T14:59:26Z</time>
      </trkpt>
      <trkpt lat="49.14746" lon="7.04014">
        <ele>192.4</ele>
        <time>2020-09-24T14:59:32Z</time>
      </trkpt>
      <trkpt lat="49.14755" lon="7.04002">
        <ele>192.4</ele>
        <time>2020-09-24T14:59:34Z</time>
      </trkpt>
      <trkpt lat="49.14769" lon="7.03982">
        <ele>192.4</ele>
        <time>2020-09-24T14:59:37Z</time>
      </trkpt>
      <trkpt lat="49.14803" lon="7.03938">
        <ele>192</ele>
        <time>2020-09-24T14:59:44Z</time>
      </trkpt>
      <trkpt lat="49.14807" lon="7.03932">
        <ele>192</ele>
        <time>2020-09-24T14:59:45Z</time>
      </trkpt>
      <trkpt lat="49.14827" lon="7.03908">
        <ele>192</ele>
        <time>2020-09-24T14:59:49Z</time>
      </trkpt>
      <trkpt lat="49.14831" lon="7.03903">
        <ele>192</ele>
        <time>2020-09-24T14:59:50Z</time>
      </trkpt>
      <trkpt lat="49.14845" lon="7.03886">
        <ele>192</ele>
        <time>2020-09-24T14:59:53Z</time>
      </trkpt>
      <trkpt lat="49.14853" lon="7.03876">
        <ele>192</ele>
        <time>2020-09-24T14:59:55Z</time>
      </trkpt>
      <trkpt lat="49.14858" lon="7.03872">
        <ele>192</ele>
        <time>2020-09-24T14:59:56Z</time>
      </trkpt>
      <trkpt lat="49.14867" lon="7.03861">
        <ele>192</ele>
        <time>2020-09-24T14:59:58Z</time>
      </trkpt>
      <trkpt lat="49.14872" lon="7.03855">
        <ele>192</ele>
        <time>2020-09-24T14:59:59Z</time>
      </trkpt>
      <trkpt lat="49.14877" lon="7.0385">
        <ele>192</ele>
        <time>2020-09-24T15:00:00Z</time>
      </trkpt>
      <trkpt lat="49.14895" lon="7.03832">
        <ele>192.2</ele>
        <time>2020-09-24T15:00:03Z</time>
      </trkpt>
      <trkpt lat="49.1493" lon="7.03811">
        <ele>192.2</ele>
        <time>2020-09-24T15:00:09Z</time>
      </trkpt>
      <trkpt lat="49.14943" lon="7.03802">
        <ele>192.2</ele>
        <time>2020-09-24T15:00:12Z</time>
      </trkpt>
      <trkpt lat="49.14948" lon="7.03799">
        <ele>192</ele>
        <time>2020-09-24T15:00:13Z</time>
      </trkpt>
      <trkpt lat="49.1497" lon="7.03785">
        <ele>192.2</ele>
        <time>2020-09-24T15:00:18Z</time>
      </trkpt>
      <trkpt lat="49.14974" lon="7.03782">
        <ele>192.2</ele>
        <time>2020-09-24T15:00:19Z</time>
      </trkpt>
      <trkpt lat="49.14991" lon="7.03765">
        <ele>192</ele>
        <time>2020-09-24T15:00:24Z</time>
      </trkpt>
      <trkpt lat="49.15" lon="7.03756">
        <ele>192</ele>
        <time>2020-09-24T15:00:27Z</time>
      </trkpt>
      <trkpt lat="49.15003" lon="7.03753">
        <ele>191.8</ele>
        <time>2020-09-24T15:00:28Z</time>
      </trkpt>
      <trkpt lat="49.15022" lon="7.03734">
        <ele>191.6</ele>
        <time>2020-09-24T15:00:33Z</time>
      </trkpt>
      <trkpt lat="49.15031" lon="7.03725">
        <ele>191.4</ele>
        <time>2020-09-24T15:00:35Z</time>
      </trkpt>
      <trkpt lat="49.15044" lon="7.03712">
        <ele>191.2</ele>
        <time>2020-09-24T15:00:38Z</time>
      </trkpt>
      <trkpt lat="49.15068" lon="7.03688">
        <ele>191.2</ele>
        <time>2020-09-24T15:00:43Z</time>
      </trkpt>
      <trkpt lat="49.15091" lon="7.03665">
        <ele>190.6</ele>
        <time>2020-09-24T15:00:48Z</time>
      </trkpt>
      <trkpt lat="49.15101" lon="7.03655">
        <ele>191</ele>
        <time>2020-09-24T15:00:50Z</time>
      </trkpt>
      <trkpt lat="49.15121" lon="7.03635">
        <ele>191</ele>
        <time>2020-09-24T15:00:54Z</time>
      </trkpt>
      <trkpt lat="49.15161" lon="7.03595">
        <ele>191.6</ele>
        <time>2020-09-24T15:01:02Z</time>
      </trkpt>
      <trkpt lat="49.15195" lon="7.03561">
        <ele>191.4</ele>
        <time>2020-09-24T15:01:09Z</time>
      </trkpt>
      <trkpt lat="49.1524" lon="7.03517">
        <ele>191.6</ele>
        <time>2020-09-24T15:01:18Z</time>
      </trkpt>
      <trkpt lat="49.15267" lon="7.0349">
        <ele>191.8</ele>
        <time>2020-09-24T15:01:24Z</time>
      </trkpt>
      <trkpt lat="49.153" lon="7.03458">
        <ele>191.8</ele>
        <time>2020-09-24T15:01:30Z</time>
      </trkpt>
      <trkpt lat="49.1531" lon="7.03444">
        <ele>191.8</ele>
        <time>2020-09-24T15:01:32Z</time>
      </trkpt>
      <trkpt lat="49.15318" lon="7.03429">
        <ele>192</ele>
        <time>2020-09-24T15:01:34Z</time>
      </trkpt>
      <trkpt lat="49.15327" lon="7.03415">
        <ele>191.8</ele>
        <time>2020-09-24T15:01:36Z</time>
      </trkpt>
      <trkpt lat="49.15339" lon="7.03393">
        <ele>191.8</ele>
        <time>2020-09-24T15:01:39Z</time>
      </trkpt>
      <trkpt lat="49.15347" lon="7.03379">
        <ele>191.6</ele>
        <time>2020-09-24T15:01:41Z</time>
      </trkpt>
      <trkpt lat="49.15358" lon="7.03358">
        <ele>191.6</ele>
        <time>2020-09-24T15:01:44Z</time>
      </trkpt>
      <trkpt lat="49.15394" lon="7.03309">
        <ele>191.6</ele>
        <time>2020-09-24T15:01:52Z</time>
      </trkpt>
      <trkpt lat="49.15412" lon="7.03287">
        <ele>191.8</ele>
        <time>2020-09-24T15:01:56Z</time>
      </trkpt>
      <trkpt lat="49.15421" lon="7.03276">
        <ele>191.8</ele>
        <time>2020-09-24T15:01:58Z</time>
      </trkpt>
      <trkpt lat="49.15443" lon="7.03251">
        <ele>191.8</ele>
        <time>2020-09-24T15:02:03Z</time>
      </trkpt>
      <trkpt lat="49.15461" lon="7.03233">
        <ele>191.8</ele>
        <time>2020-09-24T15:02:07Z</time>
      </trkpt>
      <trkpt lat="49.15487" lon="7.03209">
        <ele>192</ele>
        <time>2020-09-24T15:02:12Z</time>
      </trkpt>
      <trkpt lat="49.15529" lon="7.03177">
        <ele>192</ele>
        <time>2020-09-24T15:02:19Z</time>
      </trkpt>
      <trkpt lat="49.15561" lon="7.03157">
        <ele>192</ele>
        <time>2020-09-24T15:02:25Z</time>
      </trkpt>
      <trkpt lat="49.15575" lon="7.0315">
        <ele>192</ele>
        <time>2020-09-24T15:02:29Z</time>
      </trkpt>
      <trkpt lat="49.15594" lon="7.0314">
        <ele>192</ele>
        <time>2020-09-24T15:02:34Z</time>
      </trkpt>
      <trkpt lat="49.15604" lon="7.03135">
        <ele>192</ele>
        <time>2020-09-24T15:02:36Z</time>
      </trkpt>
      <trkpt lat="49.15623" lon="7.03127">
        <ele>192</ele>
        <time>2020-09-24T15:02:40Z</time>
      </trkpt>
      <trkpt lat="49.15638" lon="7.03123">
        <ele>192.2</ele>
        <time>2020-09-24T15:02:44Z</time>
      </trkpt>
      <trkpt lat="49.15642" lon="7.03122">
        <ele>192.2</ele>
        <time>2020-09-24T15:02:45Z</time>
      </trkpt>
      <trkpt lat="49.15652" lon="7.03119">
        <ele>192.2</ele>
        <time>2020-09-24T15:02:47Z</time>
      </trkpt>
      <trkpt lat="49.15661" lon="7.03116">
        <ele>192.2</ele>
        <time>2020-09-24T15:02:49Z</time>
      </trkpt>
      <trkpt lat="49.15677" lon="7.03111">
        <ele>192</ele>
        <time>2020-09-24T15:02:53Z</time>
      </trkpt>
      <trkpt lat="49.15681" lon="7.0311">
        <ele>192</ele>
        <time>2020-09-24T15:02:54Z</time>
      </trkpt>
      <trkpt lat="49.15697" lon="7.03107">
        <ele>191.6</ele>
        <time>2020-09-24T15:02:59Z</time>
      </trkpt>
      <trkpt lat="49.15719" lon="7.03103">
        <ele>191.6</ele>
        <time>2020-09-24T15:03:05Z</time>
      </trkpt>
      <trkpt lat="49.15734" lon="7.03101">
        <ele>191.8</ele>
        <time>2020-09-24T15:03:08Z</time>
      </trkpt>
      <trkpt lat="49.15744" lon="7.03099">
        <ele>192</ele>
        <time>2020-09-24T15:03:10Z</time>
      </trkpt>
      <trkpt lat="49.15777" lon="7.03096">
        <ele>192.2</ele>
        <time>2020-09-24T15:03:16Z</time>
      </trkpt>
      <trkpt lat="49.15782" lon="7.03096">
        <ele>192.2</ele>
        <time>2020-09-24T15:03:17Z</time>
      </trkpt>
      <trkpt lat="49.15804" lon="7.03098">
        <ele>192.2</ele>
        <time>2020-09-24T15:03:21Z</time>
      </trkpt>
      <trkpt lat="49.15812" lon="7.03099">
        <ele>192.2</ele>
        <time>2020-09-24T15:03:23Z</time>
      </trkpt>
      <trkpt lat="49.15843" lon="7.03105">
        <ele>191.8</ele>
        <time>2020-09-24T15:03:29Z</time>
      </trkpt>
      <trkpt lat="49.15879" lon="7.03113">
        <ele>191.6</ele>
        <time>2020-09-24T15:03:35Z</time>
      </trkpt>
      <trkpt lat="49.15879" lon="7.03113">
        <ele>191.6</ele>
        <time>2020-09-24T15:03:36Z</time>
      </trkpt>
      <trkpt lat="49.15902" lon="7.03121">
        <ele>191.4</ele>
        <time>2020-09-24T15:03:39Z</time>
      </trkpt>
      <trkpt lat="49.15913" lon="7.03124">
        <ele>191.2</ele>
        <time>2020-09-24T15:03:41Z</time>
      </trkpt>
      <trkpt lat="49.15929" lon="7.0313">
        <ele>190.8</ele>
        <time>2020-09-24T15:03:44Z</time>
      </trkpt>
      <trkpt lat="49.15946" lon="7.03136">
        <ele>190.6</ele>
        <time>2020-09-24T15:03:47Z</time>
      </trkpt>
      <trkpt lat="49.15957" lon="7.0314">
        <ele>190.2</ele>
        <time>2020-09-24T15:03:49Z</time>
      </trkpt>
      <trkpt lat="49.15979" lon="7.03148">
        <ele>189.6</ele>
        <time>2020-09-24T15:03:53Z</time>
      </trkpt>
      <trkpt lat="49.15987" lon="7.0315">
        <ele>189.6</ele>
        <time>2020-09-24T15:03:54Z</time>
      </trkpt>
      <trkpt lat="49.15993" lon="7.03153">
        <ele>189.4</ele>
        <time>2020-09-24T15:03:55Z</time>
      </trkpt>
      <trkpt lat="49.16006" lon="7.03157">
        <ele>189</ele>
        <time>2020-09-24T15:03:57Z</time>
      </trkpt>
      <trkpt lat="49.16036" lon="7.03168">
        <ele>188.6</ele>
        <time>2020-09-24T15:04:02Z</time>
      </trkpt>
      <trkpt lat="49.16068" lon="7.0317">
        <ele>188.4</ele>
        <time>2020-09-24T15:04:06Z</time>
      </trkpt>
      <trkpt lat="49.1611" lon="7.03173">
        <ele>188</ele>
        <time>2020-09-24T15:04:12Z</time>
      </trkpt>
      <trkpt lat="49.16152" lon="7.03169">
        <ele>187.8</ele>
        <time>2020-09-24T15:04:18Z</time>
      </trkpt>
      <trkpt lat="49.16185" lon="7.03163">
        <ele>188</ele>
        <time>2020-09-24T15:04:23Z</time>
      </trkpt>
      <trkpt lat="49.1621" lon="7.03153">
        <ele>187.8</ele>
        <time>2020-09-24T15:04:27Z</time>
      </trkpt>
      <trkpt lat="49.16215" lon="7.0315">
        <ele>187.8</ele>
        <time>2020-09-24T15:04:28Z</time>
      </trkpt>
      <trkpt lat="49.16249" lon="7.03132">
        <ele>187.8</ele>
        <time>2020-09-24T15:04:33Z</time>
      </trkpt>
      <trkpt lat="49.16294" lon="7.03109">
        <ele>187.8</ele>
        <time>2020-09-24T15:04:40Z</time>
      </trkpt>
      <trkpt lat="49.16326" lon="7.03092">
        <ele>188</ele>
        <time>2020-09-24T15:04:45Z</time>
      </trkpt>
      <trkpt lat="49.16352" lon="7.03079">
        <ele>188</ele>
        <time>2020-09-24T15:04:49Z</time>
      </trkpt>
      <trkpt lat="49.16379" lon="7.03064">
        <ele>188</ele>
        <time>2020-09-24T15:04:53Z</time>
      </trkpt>
      <trkpt lat="49.16385" lon="7.03061">
        <ele>188.2</ele>
        <time>2020-09-24T15:04:54Z</time>
      </trkpt>
      <trkpt lat="49.1639" lon="7.03055">
        <ele>188.2</ele>
        <time>2020-09-24T15:04:55Z</time>
      </trkpt>
      <trkpt lat="49.16405" lon="7.03037">
        <ele>188.2</ele>
        <time>2020-09-24T15:04:58Z</time>
      </trkpt>
      <trkpt lat="49.1641" lon="7.03031">
        <ele>188.2</ele>
        <time>2020-09-24T15:04:59Z</time>
      </trkpt>
      <trkpt lat="49.16422" lon="7.03029">
        <ele>188.4</ele>
        <time>2020-09-24T15:05:01Z</time>
      </trkpt>
      <trkpt lat="49.16453" lon="7.03024">
        <ele>188.4</ele>
        <time>2020-09-24T15:05:06Z</time>
      </trkpt>
      <trkpt lat="49.16464" lon="7.03018">
        <ele>188.4</ele>
        <time>2020-09-24T15:05:08Z</time>
      </trkpt>
      <trkpt lat="49.16475" lon="7.03012">
        <ele>188.4</ele>
        <time>2020-09-24T15:05:10Z</time>
      </trkpt>
      <trkpt lat="49.16508" lon="7.02995">
        <ele>188.8</ele>
        <time>2020-09-24T15:05:16Z</time>
      </trkpt>
      <trkpt lat="49.16547" lon="7.02975">
        <ele>189.2</ele>
        <time>2020-09-24T15:05:23Z</time>
      </trkpt>
      <trkpt lat="49.16579" lon="7.02958">
        <ele>189.2</ele>
        <time>2020-09-24T15:05:29Z</time>
      </trkpt>
      <trkpt lat="49.166" lon="7.02947">
        <ele>189.2</ele>
        <time>2020-09-24T15:05:33Z</time>
      </trkpt>
      <trkpt lat="49.1661" lon="7.02942">
        <ele>189.2</ele>
        <time>2020-09-24T15:05:35Z</time>
      </trkpt>
      <trkpt lat="49.1663" lon="7.0293">
        <ele>189.2</ele>
        <time>2020-09-24T15:05:40Z</time>
      </trkpt>
      <trkpt lat="49.16659" lon="7.02912">
        <ele>189.6</ele>
        <time>2020-09-24T15:05:46Z</time>
      </trkpt>
      <trkpt lat="49.1669" lon="7.02892">
        <ele>189.6</ele>
        <time>2020-09-24T15:05:52Z</time>
      </trkpt>
      <trkpt lat="49.16732" lon="7.02866">
        <ele>189.8</ele>
        <time>2020-09-24T15:06:00Z</time>
      </trkpt>
      <trkpt lat="49.16762" lon="7.02847">
        <ele>190</ele>
        <time>2020-09-24T15:06:06Z</time>
      </trkpt>
      <trkpt lat="49.16804" lon="7.02825">
        <ele>190.2</ele>
        <time>2020-09-24T15:06:14Z</time>
      </trkpt>
      <trkpt lat="49.1684" lon="7.02808">
        <ele>190.2</ele>
        <time>2020-09-24T15:06:22Z</time>
      </trkpt>
      <trkpt lat="49.16886" lon="7.02785">
        <ele>190.4</ele>
        <time>2020-09-24T15:06:30Z</time>
      </trkpt>
      <trkpt lat="49.16941" lon="7.02764">
        <ele>190.4</ele>
        <time>2020-09-24T15:06:40Z</time>
      </trkpt>
      <trkpt lat="49.16982" lon="7.02749">
        <ele>190.6</ele>
        <time>2020-09-24T15:06:47Z</time>
      </trkpt>
      <trkpt lat="49.17023" lon="7.02745">
        <ele>190.6</ele>
        <time>2020-09-24T15:06:54Z</time>
      </trkpt>
      <trkpt lat="49.17079" lon="7.02738">
        <ele>190.4</ele>
        <time>2020-09-24T15:07:03Z</time>
      </trkpt>
      <trkpt lat="49.17118" lon="7.02737">
        <ele>190.4</ele>
        <time>2020-09-24T15:07:09Z</time>
      </trkpt>
      <trkpt lat="49.17124" lon="7.02737">
        <ele>190.4</ele>
        <time>2020-09-24T15:07:10Z</time>
      </trkpt>
      <trkpt lat="49.17159" lon="7.02738">
        <ele>190.4</ele>
        <time>2020-09-24T15:07:16Z</time>
      </trkpt>
      <trkpt lat="49.17199" lon="7.02738">
        <ele>190.4</ele>
        <time>2020-09-24T15:07:23Z</time>
      </trkpt>
      <trkpt lat="49.1724" lon="7.02743">
        <ele>190.4</ele>
        <time>2020-09-24T15:07:30Z</time>
      </trkpt>
      <trkpt lat="49.17276" lon="7.02748">
        <ele>190.4</ele>
        <time>2020-09-24T15:07:36Z</time>
      </trkpt>
      <trkpt lat="49.17317" lon="7.02755">
        <ele>190.4</ele>
        <time>2020-09-24T15:07:43Z</time>
      </trkpt>
      <trkpt lat="49.17365" lon="7.02762">
        <ele>190.4</ele>
        <time>2020-09-24T15:07:51Z</time>
      </trkpt>
      <trkpt lat="49.17407" lon="7.02769">
        <ele>190.4</ele>
        <time>2020-09-24T15:07:58Z</time>
      </trkpt>
      <trkpt lat="49.17443" lon="7.02774">
        <ele>190.4</ele>
        <time>2020-09-24T15:08:04Z</time>
      </trkpt>
      <trkpt lat="49.17467" lon="7.02779">
        <ele>190.4</ele>
        <time>2020-09-24T15:08:08Z</time>
      </trkpt>
      <trkpt lat="49.17503" lon="7.02794">
        <ele>190.2</ele>
        <time>2020-09-24T15:08:15Z</time>
      </trkpt>
      <trkpt lat="49.17531" lon="7.02805">
        <ele>190.2</ele>
        <time>2020-09-24T15:08:20Z</time>
      </trkpt>
      <trkpt lat="49.17563" lon="7.02818">
        <ele>189.8</ele>
        <time>2020-09-24T15:08:26Z</time>
      </trkpt>
      <trkpt lat="49.17579" lon="7.02825">
        <ele>189.8</ele>
        <time>2020-09-24T15:08:29Z</time>
      </trkpt>
      <trkpt lat="49.1759" lon="7.02829">
        <ele>189.6</ele>
        <time>2020-09-24T15:08:31Z</time>
      </trkpt>
      <trkpt lat="49.17615" lon="7.02846">
        <ele>189.4</ele>
        <time>2020-09-24T15:08:36Z</time>
      </trkpt>
      <trkpt lat="49.17619" lon="7.02849">
        <ele>189.4</ele>
        <time>2020-09-24T15:08:37Z</time>
      </trkpt>
      <trkpt lat="49.17639" lon="7.02868">
        <ele>189.2</ele>
        <time>2020-09-24T15:08:41Z</time>
      </trkpt>
      <trkpt lat="49.17669" lon="7.02903">
        <ele>188.6</ele>
        <time>2020-09-24T15:08:47Z</time>
      </trkpt>
      <trkpt lat="49.17692" lon="7.0293">
        <ele>188.4</ele>
        <time>2020-09-24T15:08:52Z</time>
      </trkpt>
      <trkpt lat="49.17692" lon="7.0293">
        <ele>188.2</ele>
        <time>2020-09-24T15:08:53Z</time>
      </trkpt>
      <trkpt lat="49.17711" lon="7.02951">
        <ele>188</ele>
        <time>2020-09-24T15:08:56Z</time>
      </trkpt>
      <trkpt lat="49.17719" lon="7.02961">
        <ele>187.6</ele>
        <time>2020-09-24T15:08:58Z</time>
      </trkpt>
      <trkpt lat="49.17723" lon="7.02965">
        <ele>187.6</ele>
        <time>2020-09-24T15:08:59Z</time>
      </trkpt>
      <trkpt lat="49.17733" lon="7.02977">
        <ele>187.4</ele>
        <time>2020-09-24T15:09:02Z</time>
      </trkpt>
      <trkpt lat="49.17771" lon="7.03014">
        <ele>187.6</ele>
        <time>2020-09-24T15:09:08Z</time>
      </trkpt>
      <trkpt lat="49.17807" lon="7.03046">
        <ele>187.2</ele>
        <time>2020-09-24T15:09:15Z</time>
      </trkpt>
      <trkpt lat="49.17827" lon="7.03064">
        <ele>187</ele>
        <time>2020-09-24T15:09:19Z</time>
      </trkpt>
      <trkpt lat="49.17832" lon="7.03069">
        <ele>187</ele>
        <time>2020-09-24T15:09:20Z</time>
      </trkpt>
      <trkpt lat="49.17837" lon="7.03073">
        <ele>187</ele>
        <time>2020-09-24T15:09:21Z</time>
      </trkpt>
      <trkpt lat="49.17848" lon="7.03083">
        <ele>187</ele>
        <time>2020-09-24T15:09:23Z</time>
      </trkpt>
      <trkpt lat="49.17853" lon="7.03087">
        <ele>187</ele>
        <time>2020-09-24T15:09:24Z</time>
      </trkpt>
      <trkpt lat="49.1789" lon="7.0312">
        <ele>187.6</ele>
        <time>2020-09-24T15:09:31Z</time>
      </trkpt>
      <trkpt lat="49.17905" lon="7.03134">
        <ele>187.4</ele>
        <time>2020-09-24T15:09:34Z</time>
      </trkpt>
      <trkpt lat="49.17916" lon="7.03143">
        <ele>187.4</ele>
        <time>2020-09-24T15:09:36Z</time>
      </trkpt>
      <trkpt lat="49.17953" lon="7.03177">
        <ele>187.6</ele>
        <time>2020-09-24T15:09:43Z</time>
      </trkpt>
      <trkpt lat="49.18" lon="7.03219">
        <ele>187.6</ele>
        <time>2020-09-24T15:09:52Z</time>
      </trkpt>
      <trkpt lat="49.18038" lon="7.03249">
        <ele>187.8</ele>
        <time>2020-09-24T15:09:59Z</time>
      </trkpt>
      <trkpt lat="49.18078" lon="7.03277">
        <ele>188.2</ele>
        <time>2020-09-24T15:10:06Z</time>
      </trkpt>
      <trkpt lat="49.18115" lon="7.03294">
        <ele>188.2</ele>
        <time>2020-09-24T15:10:12Z</time>
      </trkpt>
      <trkpt lat="49.18164" lon="7.03313">
        <ele>188.4</ele>
        <time>2020-09-24T15:10:20Z</time>
      </trkpt>
      <trkpt lat="49.18199" lon="7.03325">
        <ele>188.4</ele>
        <time>2020-09-24T15:10:26Z</time>
      </trkpt>
      <trkpt lat="49.1824" lon="7.03337">
        <ele>188.2</ele>
        <time>2020-09-24T15:10:33Z</time>
      </trkpt>
      <trkpt lat="49.18276" lon="7.03348">
        <ele>188.4</ele>
        <time>2020-09-24T15:10:39Z</time>
      </trkpt>
      <trkpt lat="49.1832" lon="7.03347">
        <ele>188.4</ele>
        <time>2020-09-24T15:10:46Z</time>
      </trkpt>
      <trkpt lat="49.18367" lon="7.0334">
        <ele>188.4</ele>
        <time>2020-09-24T15:10:54Z</time>
      </trkpt>
      <trkpt lat="49.18414" lon="7.03325">
        <ele>188.6</ele>
        <time>2020-09-24T15:11:02Z</time>
      </trkpt>
      <trkpt lat="49.18432" lon="7.03319">
        <ele>188.6</ele>
        <time>2020-09-24T15:11:05Z</time>
      </trkpt>
      <trkpt lat="49.18449" lon="7.03314">
        <ele>188.6</ele>
        <time>2020-09-24T15:11:08Z</time>
      </trkpt>
      <trkpt lat="49.18466" lon="7.0331">
        <ele>188.8</ele>
        <time>2020-09-24T15:11:11Z</time>
      </trkpt>
      <trkpt lat="49.18483" lon="7.0331">
        <ele>188.8</ele>
        <time>2020-09-24T15:11:14Z</time>
      </trkpt>
      <trkpt lat="49.18521" lon="7.0331">
        <ele>188.8</ele>
        <time>2020-09-24T15:11:21Z</time>
      </trkpt>
      <trkpt lat="49.18561" lon="7.0331">
        <ele>188.8</ele>
        <time>2020-09-24T15:11:28Z</time>
      </trkpt>
      <trkpt lat="49.18608" lon="7.03308">
        <ele>189.2</ele>
        <time>2020-09-24T15:11:36Z</time>
      </trkpt>
      <trkpt lat="49.18649" lon="7.03304">
        <ele>189.2</ele>
        <time>2020-09-24T15:11:43Z</time>
      </trkpt>
      <trkpt lat="49.18692" lon="7.033">
        <ele>189.4</ele>
        <time>2020-09-24T15:11:50Z</time>
      </trkpt>
      <trkpt lat="49.18735" lon="7.03296">
        <ele>189.4</ele>
        <time>2020-09-24T15:11:57Z</time>
      </trkpt>
      <trkpt lat="49.18778" lon="7.03299">
        <ele>189.4</ele>
        <time>2020-09-24T15:12:04Z</time>
      </trkpt>
      <trkpt lat="49.18806" lon="7.03303">
        <ele>189.6</ele>
        <time>2020-09-24T15:12:09Z</time>
      </trkpt>
      <trkpt lat="49.18811" lon="7.03304">
        <ele>189.6</ele>
        <time>2020-09-24T15:12:10Z</time>
      </trkpt>
      <trkpt lat="49.18837" lon="7.03308">
        <ele>189.6</ele>
        <time>2020-09-24T15:12:15Z</time>
      </trkpt>
      <trkpt lat="49.18866" lon="7.03314">
        <ele>189.6</ele>
        <time>2020-09-24T15:12:20Z</time>
      </trkpt>
      <trkpt lat="49.18866" lon="7.03314">
        <ele>189.6</ele>
        <time>2020-09-24T15:12:21Z</time>
      </trkpt>
      <trkpt lat="49.18907" lon="7.03336">
        <ele>189.4</ele>
        <time>2020-09-24T15:12:27Z</time>
      </trkpt>
      <trkpt lat="49.1894" lon="7.03354">
        <ele>189.2</ele>
        <time>2020-09-24T15:12:33Z</time>
      </trkpt>
      <trkpt lat="49.18972" lon="7.03372">
        <ele>189.2</ele>
        <time>2020-09-24T15:12:39Z</time>
      </trkpt>
      <trkpt lat="49.18999" lon="7.03388">
        <ele>189.2</ele>
        <time>2020-09-24T15:12:44Z</time>
      </trkpt>
      <trkpt lat="49.19027" lon="7.03409">
        <ele>189.2</ele>
        <time>2020-09-24T15:12:49Z</time>
      </trkpt>
      <trkpt lat="49.19032" lon="7.03413">
        <ele>189.2</ele>
        <time>2020-09-24T15:12:50Z</time>
      </trkpt>
      <trkpt lat="49.19066" lon="7.03438">
        <ele>189.4</ele>
        <time>2020-09-24T15:12:56Z</time>
      </trkpt>
      <trkpt lat="49.19086" lon="7.03449">
        <ele>189.2</ele>
        <time>2020-09-24T15:13:00Z</time>
      </trkpt>
      <trkpt lat="49.19092" lon="7.0345">
        <ele>189</ele>
        <time>2020-09-24T15:13:01Z</time>
      </trkpt>
      <trkpt lat="49.19125" lon="7.03459">
        <ele>189</ele>
        <time>2020-09-24T15:13:06Z</time>
      </trkpt>
      <trkpt lat="49.19131" lon="7.0346">
        <ele>189</ele>
        <time>2020-09-24T15:13:07Z</time>
      </trkpt>
      <trkpt lat="49.19143" lon="7.03461">
        <ele>188.8</ele>
        <time>2020-09-24T15:13:10Z</time>
      </trkpt>
      <trkpt lat="49.19161" lon="7.0346">
        <ele>188.8</ele>
        <time>2020-09-24T15:13:12Z</time>
      </trkpt>
      <trkpt lat="49.19174" lon="7.03459">
        <ele>188.6</ele>
        <time>2020-09-24T15:13:15Z</time>
      </trkpt>
      <trkpt lat="49.19203" lon="7.03448">
        <ele>188</ele>
        <time>2020-09-24T15:13:20Z</time>
      </trkpt>
      <trkpt lat="49.19212" lon="7.03441">
        <ele>187.6</ele>
        <time>2020-09-24T15:13:22Z</time>
      </trkpt>
      <trkpt lat="49.1922" lon="7.03435">
        <ele>187.2</ele>
        <time>2020-09-24T15:13:24Z</time>
      </trkpt>
      <trkpt lat="49.19224" lon="7.03432">
        <ele>187</ele>
        <time>2020-09-24T15:13:25Z</time>
      </trkpt>
      <trkpt lat="49.19238" lon="7.03421">
        <ele>186.6</ele>
        <time>2020-09-24T15:13:28Z</time>
      </trkpt>
      <trkpt lat="49.19246" lon="7.03411">
        <ele>186.2</ele>
        <time>2020-09-24T15:13:30Z</time>
      </trkpt>
      <trkpt lat="49.19251" lon="7.03405">
        <ele>185.8</ele>
        <time>2020-09-24T15:13:31Z</time>
      </trkpt>
      <trkpt lat="49.1926" lon="7.03393">
        <ele>185.4</ele>
        <time>2020-09-24T15:13:33Z</time>
      </trkpt>
      <trkpt lat="49.19264" lon="7.03389">
        <ele>185.2</ele>
        <time>2020-09-24T15:13:34Z</time>
      </trkpt>
      <trkpt lat="49.19285" lon="7.03362">
        <ele>184.2</ele>
        <time>2020-09-24T15:13:39Z</time>
      </trkpt>
      <trkpt lat="49.19299" lon="7.03344">
        <ele>183.6</ele>
        <time>2020-09-24T15:13:42Z</time>
      </trkpt>
      <trkpt lat="49.19303" lon="7.03339">
        <ele>183.6</ele>
        <time>2020-09-24T15:13:43Z</time>
      </trkpt>
      <trkpt lat="49.19309" lon="7.03331">
        <ele>183</ele>
        <time>2020-09-24T15:13:45Z</time>
      </trkpt>
      <trkpt lat="49.19313" lon="7.03325">
        <ele>182.8</ele>
        <time>2020-09-24T15:13:46Z</time>
      </trkpt>
      <trkpt lat="49.19317" lon="7.03319">
        <ele>182.4</ele>
        <time>2020-09-24T15:13:47Z</time>
      </trkpt>
      <trkpt lat="49.19326" lon="7.03306">
        <ele>182</ele>
        <time>2020-09-24T15:13:49Z</time>
      </trkpt>
      <trkpt lat="49.19349" lon="7.03269">
        <ele>181.8</ele>
        <time>2020-09-24T15:13:54Z</time>
      </trkpt>
      <trkpt lat="49.19349" lon="7.03269">
        <ele>181.8</ele>
        <time>2020-09-24T15:13:55Z</time>
      </trkpt>
      <trkpt lat="49.19371" lon="7.03235">
        <ele>182</ele>
        <time>2020-09-24T15:13:59Z</time>
      </trkpt>
      <trkpt lat="49.19397" lon="7.03194">
        <ele>182.2</ele>
        <time>2020-09-24T15:14:05Z</time>
      </trkpt>
      <trkpt lat="49.19414" lon="7.03167">
        <ele>181.6</ele>
        <time>2020-09-24T15:14:09Z</time>
      </trkpt>
      <trkpt lat="49.19426" lon="7.03148">
        <ele>183</ele>
        <time>2020-09-24T15:14:12Z</time>
      </trkpt>
      <trkpt lat="49.19434" lon="7.03136">
        <ele>183.4</ele>
        <time>2020-09-24T15:14:14Z</time>
      </trkpt>
      <trkpt lat="49.19438" lon="7.0313">
        <ele>183.6</ele>
        <time>2020-09-24T15:14:15Z</time>
      </trkpt>
      <trkpt lat="49.19447" lon="7.03116">
        <ele>182.6</ele>
        <time>2020-09-24T15:14:17Z</time>
      </trkpt>
      <trkpt lat="49.1948" lon="7.03066">
        <ele>183.4</ele>
        <time>2020-09-24T15:14:24Z</time>
      </trkpt>
      <trkpt lat="49.19509" lon="7.03029">
        <ele>183.8</ele>
        <time>2020-09-24T15:14:30Z</time>
      </trkpt>
      <trkpt lat="49.19542" lon="7.02988">
        <ele>184.4</ele>
        <time>2020-09-24T15:14:37Z</time>
      </trkpt>
      <trkpt lat="49.19552" lon="7.02977">
        <ele>184.6</ele>
        <time>2020-09-24T15:14:39Z</time>
      </trkpt>
      <trkpt lat="49.1956" lon="7.02966">
        <ele>184.8</ele>
        <time>2020-09-24T15:14:41Z</time>
      </trkpt>
      <trkpt lat="49.19584" lon="7.02936">
        <ele>185</ele>
        <time>2020-09-24T15:14:47Z</time>
      </trkpt>
      <trkpt lat="49.19616" lon="7.02896">
        <ele>185.4</ele>
        <time>2020-09-24T15:14:53Z</time>
      </trkpt>
      <trkpt lat="49.1962" lon="7.02892">
        <ele>185.2</ele>
        <time>2020-09-24T15:14:54Z</time>
      </trkpt>
      <trkpt lat="49.19632" lon="7.02876">
        <ele>185.4</ele>
        <time>2020-09-24T15:14:58Z</time>
      </trkpt>
      <trkpt lat="49.19655" lon="7.02844">
        <ele>185.6</ele>
        <time>2020-09-24T15:15:03Z</time>
      </trkpt>
      <trkpt lat="49.1966" lon="7.02838">
        <ele>185.6</ele>
        <time>2020-09-24T15:15:04Z</time>
      </trkpt>
      <trkpt lat="49.19686" lon="7.02801">
        <ele>185.8</ele>
        <time>2020-09-24T15:15:11Z</time>
      </trkpt>
      <trkpt lat="49.19708" lon="7.02767">
        <ele>186</ele>
        <time>2020-09-24T15:15:17Z</time>
      </trkpt>
      <trkpt lat="49.19711" lon="7.02761">
        <ele>186.2</ele>
        <time>2020-09-24T15:15:18Z</time>
      </trkpt>
      <trkpt lat="49.19724" lon="7.0274">
        <ele>186.2</ele>
        <time>2020-09-24T15:15:22Z</time>
      </trkpt>
      <trkpt lat="49.19731" lon="7.02726">
        <ele>186.2</ele>
        <time>2020-09-24T15:15:24Z</time>
      </trkpt>
      <trkpt lat="49.19735" lon="7.02716">
        <ele>186.2</ele>
        <time>2020-09-24T15:15:26Z</time>
      </trkpt>
      <trkpt lat="49.19741" lon="7.02704">
        <ele>186.2</ele>
        <time>2020-09-24T15:15:28Z</time>
      </trkpt>
      <trkpt lat="49.19747" lon="7.02691">
        <ele>186.4</ele>
        <time>2020-09-24T15:15:30Z</time>
      </trkpt>
      <trkpt lat="49.1975" lon="7.02685">
        <ele>186.4</ele>
        <time>2020-09-24T15:15:31Z</time>
      </trkpt>
      <trkpt lat="49.19775" lon="7.02639">
        <ele>187</ele>
        <time>2020-09-24T15:15:38Z</time>
      </trkpt>
      <trkpt lat="49.19806" lon="7.02594">
        <ele>187.6</ele>
        <time>2020-09-24T15:15:46Z</time>
      </trkpt>
      <trkpt lat="49.19828" lon="7.0257">
        <ele>187.6</ele>
        <time>2020-09-24T15:15:51Z</time>
      </trkpt>
      <trkpt lat="49.19855" lon="7.02541">
        <ele>187.8</ele>
        <time>2020-09-24T15:15:57Z</time>
      </trkpt>
      <trkpt lat="49.19858" lon="7.02537">
        <ele>187.8</ele>
        <time>2020-09-24T15:15:58Z</time>
      </trkpt>
      <trkpt lat="49.19868" lon="7.02526">
        <ele>188</ele>
        <time>2020-09-24T15:16:01Z</time>
      </trkpt>
      <trkpt lat="49.19871" lon="7.02523">
        <ele>188.2</ele>
        <time>2020-09-24T15:16:02Z</time>
      </trkpt>
      <trkpt lat="49.19878" lon="7.02515">
        <ele>188.4</ele>
        <time>2020-09-24T15:16:04Z</time>
      </trkpt>
      <trkpt lat="49.19882" lon="7.02511">
        <ele>188.4</ele>
        <time>2020-09-24T15:16:05Z</time>
      </trkpt>
      <trkpt lat="49.19906" lon="7.02485">
        <ele>189</ele>
        <time>2020-09-24T15:16:11Z</time>
      </trkpt>
      <trkpt lat="49.19929" lon="7.02455">
        <ele>189.4</ele>
        <time>2020-09-24T15:16:17Z</time>
      </trkpt>
      <trkpt lat="49.19933" lon="7.0245">
        <ele>189.4</ele>
        <time>2020-09-24T15:16:18Z</time>
      </trkpt>
      <trkpt lat="49.19951" lon="7.02429">
        <ele>189.6</ele>
        <time>2020-09-24T15:16:23Z</time>
      </trkpt>
      <trkpt lat="49.1998" lon="7.02393">
        <ele>189.8</ele>
        <time>2020-09-24T15:16:29Z</time>
      </trkpt>
      <trkpt lat="49.19993" lon="7.02369">
        <ele>189.8</ele>
        <time>2020-09-24T15:16:34Z</time>
      </trkpt>
      <trkpt lat="49.20002" lon="7.02353">
        <ele>189.8</ele>
        <time>2020-09-24T15:16:35Z</time>
      </trkpt>
      <trkpt lat="49.20021" lon="7.02317">
        <ele>189.6</ele>
        <time>2020-09-24T15:16:40Z</time>
      </trkpt>
      <trkpt lat="49.20056" lon="7.02256">
        <ele>189.8</ele>
        <time>2020-09-24T15:16:46Z</time>
      </trkpt>
      <trkpt lat="49.20062" lon="7.0225">
        <ele>189.6</ele>
        <time>2020-09-24T15:16:47Z</time>
      </trkpt>
      <trkpt lat="49.20082" lon="7.02223">
        <ele>189.6</ele>
        <time>2020-09-24T15:16:51Z</time>
      </trkpt>
      <trkpt lat="49.20117" lon="7.02178">
        <ele>189.4</ele>
        <time>2020-09-24T15:16:58Z</time>
      </trkpt>
      <trkpt lat="49.20142" lon="7.02148">
        <ele>189.4</ele>
        <time>2020-09-24T15:17:03Z</time>
      </trkpt>
      <trkpt lat="49.20169" lon="7.02122">
        <ele>189.4</ele>
        <time>2020-09-24T15:17:08Z</time>
      </trkpt>
      <trkpt lat="49.20218" lon="7.0209">
        <ele>189</ele>
        <time>2020-09-24T15:17:16Z</time>
      </trkpt>
      <trkpt lat="49.20247" lon="7.02071">
        <ele>188.8</ele>
        <time>2020-09-24T15:17:21Z</time>
      </trkpt>
      <trkpt lat="49.20257" lon="7.02062">
        <ele>188.8</ele>
        <time>2020-09-24T15:17:23Z</time>
      </trkpt>
      <trkpt lat="49.20266" lon="7.02049">
        <ele>188.6</ele>
        <time>2020-09-24T15:17:25Z</time>
      </trkpt>
      <trkpt lat="49.20304" lon="7.01996">
        <ele>188</ele>
        <time>2020-09-24T15:17:33Z</time>
      </trkpt>
      <trkpt lat="49.20308" lon="7.0199">
        <ele>188</ele>
        <time>2020-09-24T15:17:34Z</time>
      </trkpt>
      <trkpt lat="49.20317" lon="7.01977">
        <ele>187.8</ele>
        <time>2020-09-24T15:17:36Z</time>
      </trkpt>
      <trkpt lat="49.2033" lon="7.01961">
        <ele>188</ele>
        <time>2020-09-24T15:17:39Z</time>
      </trkpt>
      <trkpt lat="49.20335" lon="7.01956">
        <ele>188.2</ele>
        <time>2020-09-24T15:17:40Z</time>
      </trkpt>
      <trkpt lat="49.20362" lon="7.01922">
        <ele>189.4</ele>
        <time>2020-09-24T15:17:46Z</time>
      </trkpt>
      <trkpt lat="49.20387" lon="7.01891">
        <ele>188.8</ele>
        <time>2020-09-24T15:17:52Z</time>
      </trkpt>
      <trkpt lat="49.20407" lon="7.01868">
        <ele>189</ele>
        <time>2020-09-24T15:17:58Z</time>
      </trkpt>
      <trkpt lat="49.20424" lon="7.0185">
        <ele>189</ele>
        <time>2020-09-24T15:18:01Z</time>
      </trkpt>
      <trkpt lat="49.20429" lon="7.01846">
        <ele>189</ele>
        <time>2020-09-24T15:18:02Z</time>
      </trkpt>
      <trkpt lat="49.20439" lon="7.01836">
        <ele>188.8</ele>
        <time>2020-09-24T15:18:04Z</time>
      </trkpt>
      <trkpt lat="49.20449" lon="7.01827">
        <ele>189.2</ele>
        <time>2020-09-24T15:18:06Z</time>
      </trkpt>
      <trkpt lat="49.20453" lon="7.01824">
        <ele>189</ele>
        <time>2020-09-24T15:18:07Z</time>
      </trkpt>
      <trkpt lat="49.2047" lon="7.01813">
        <ele>188.2</ele>
        <time>2020-09-24T15:18:10Z</time>
      </trkpt>
      <trkpt lat="49.20484" lon="7.01809">
        <ele>188.4</ele>
        <time>2020-09-24T15:18:12Z</time>
      </trkpt>
      <trkpt lat="49.20503" lon="7.01804">
        <ele>188.2</ele>
        <time>2020-09-24T15:18:15Z</time>
      </trkpt>
      <trkpt lat="49.20516" lon="7.01807">
        <ele>188.2</ele>
        <time>2020-09-24T15:18:17Z</time>
      </trkpt>
      <trkpt lat="49.20523" lon="7.01809">
        <ele>188.2</ele>
        <time>2020-09-24T15:18:18Z</time>
      </trkpt>
      <trkpt lat="49.2055" lon="7.01817">
        <ele>188.2</ele>
        <time>2020-09-24T15:18:22Z</time>
      </trkpt>
      <trkpt lat="49.20587" lon="7.01836">
        <ele>188</ele>
        <time>2020-09-24T15:18:28Z</time>
      </trkpt>
      <trkpt lat="49.20624" lon="7.01855">
        <ele>187.8</ele>
        <time>2020-09-24T15:18:35Z</time>
      </trkpt>
      <trkpt lat="49.20662" lon="7.01874">
        <ele>187.6</ele>
        <time>2020-09-24T15:18:42Z</time>
      </trkpt>
      <trkpt lat="49.20692" lon="7.01896">
        <ele>187.2</ele>
        <time>2020-09-24T15:18:48Z</time>
      </trkpt>
      <trkpt lat="49.20743" lon="7.01941">
        <ele>187.2</ele>
        <time>2020-09-24T15:18:58Z</time>
      </trkpt>
      <trkpt lat="49.20779" lon="7.01974">
        <ele>187.2</ele>
        <time>2020-09-24T15:19:05Z</time>
      </trkpt>
      <trkpt lat="49.20789" lon="7.01983">
        <ele>187</ele>
        <time>2020-09-24T15:19:07Z</time>
      </trkpt>
      <trkpt lat="49.20799" lon="7.01992">
        <ele>187</ele>
        <time>2020-09-24T15:19:09Z</time>
      </trkpt>
      <trkpt lat="49.2081" lon="7.02001">
        <ele>187</ele>
        <time>2020-09-24T15:19:11Z</time>
      </trkpt>
      <trkpt lat="49.20824" lon="7.02013">
        <ele>186.8</ele>
        <time>2020-09-24T15:19:14Z</time>
      </trkpt>
      <trkpt lat="49.20828" lon="7.02017">
        <ele>186.8</ele>
        <time>2020-09-24T15:19:15Z</time>
      </trkpt>
      <trkpt lat="49.20838" lon="7.02026">
        <ele>186.6</ele>
        <time>2020-09-24T15:19:17Z</time>
      </trkpt>
      <trkpt lat="49.20843" lon="7.0203">
        <ele>186.6</ele>
        <time>2020-09-24T15:19:18Z</time>
      </trkpt>
      <trkpt lat="49.20853" lon="7.02039">
        <ele>186.6</ele>
        <time>2020-09-24T15:19:20Z</time>
      </trkpt>
      <trkpt lat="49.20863" lon="7.02048">
        <ele>186.6</ele>
        <time>2020-09-24T15:19:22Z</time>
      </trkpt>
      <trkpt lat="49.20869" lon="7.02053">
        <ele>186.4</ele>
        <time>2020-09-24T15:19:23Z</time>
      </trkpt>
      <trkpt lat="49.20874" lon="7.02058">
        <ele>186.4</ele>
        <time>2020-09-24T15:19:24Z</time>
      </trkpt>
      <trkpt lat="49.20892" lon="7.02074">
        <ele>186</ele>
        <time>2020-09-24T15:19:27Z</time>
      </trkpt>
      <trkpt lat="49.20898" lon="7.02079">
        <ele>186</ele>
        <time>2020-09-24T15:19:28Z</time>
      </trkpt>
      <trkpt lat="49.20909" lon="7.02089">
        <ele>186</ele>
        <time>2020-09-24T15:19:30Z</time>
      </trkpt>
      <trkpt lat="49.20914" lon="7.02093">
        <ele>186</ele>
        <time>2020-09-24T15:19:31Z</time>
      </trkpt>
      <trkpt lat="49.20952" lon="7.02127">
        <ele>186</ele>
        <time>2020-09-24T15:19:38Z</time>
      </trkpt>
      <trkpt lat="49.20963" lon="7.02136">
        <ele>186</ele>
        <time>2020-09-24T15:19:40Z</time>
      </trkpt>
      <trkpt lat="49.20981" lon="7.02152">
        <ele>186.2</ele>
        <time>2020-09-24T15:19:43Z</time>
      </trkpt>
      <trkpt lat="49.21015" lon="7.02182">
        <ele>186</ele>
        <time>2020-09-24T15:19:49Z</time>
      </trkpt>
      <trkpt lat="49.21037" lon="7.02201">
        <ele>186</ele>
        <time>2020-09-24T15:19:53Z</time>
      </trkpt>
      <trkpt lat="49.21047" lon="7.0221">
        <ele>185.8</ele>
        <time>2020-09-24T15:19:55Z</time>
      </trkpt>
      <trkpt lat="49.21082" lon="7.0224">
        <ele>185.6</ele>
        <time>2020-09-24T15:20:02Z</time>
      </trkpt>
      <trkpt lat="49.21083" lon="7.02241">
        <ele>185.8</ele>
        <time>2020-09-24T15:20:03Z</time>
      </trkpt>
      <trkpt lat="49.21095" lon="7.02239">
        <ele>185.8</ele>
        <time>2020-09-24T15:20:05Z</time>
      </trkpt>
      <trkpt lat="49.211" lon="7.02239">
        <ele>185.8</ele>
        <time>2020-09-24T15:20:06Z</time>
      </trkpt>
      <trkpt lat="49.21104" lon="7.02238">
        <ele>185.6</ele>
        <time>2020-09-24T15:20:07Z</time>
      </trkpt>
      <trkpt lat="49.21119" lon="7.02238">
        <ele>186</ele>
        <time>2020-09-24T15:20:10Z</time>
      </trkpt>
      <trkpt lat="49.21137" lon="7.02244">
        <ele>186</ele>
        <time>2020-09-24T15:20:14Z</time>
      </trkpt>
      <trkpt lat="49.21152" lon="7.02249">
        <ele>186</ele>
        <time>2020-09-24T15:20:17Z</time>
      </trkpt>
      <trkpt lat="49.21162" lon="7.02253">
        <ele>185.8</ele>
        <time>2020-09-24T15:20:19Z</time>
      </trkpt>
      <trkpt lat="49.21181" lon="7.02259">
        <ele>185.6</ele>
        <time>2020-09-24T15:20:23Z</time>
      </trkpt>
      <trkpt lat="49.212" lon="7.02266">
        <ele>185.4</ele>
        <time>2020-09-24T15:20:27Z</time>
      </trkpt>
      <trkpt lat="49.21206" lon="7.02268">
        <ele>185.2</ele>
        <time>2020-09-24T15:20:28Z</time>
      </trkpt>
      <trkpt lat="49.21228" lon="7.0227">
        <ele>184.8</ele>
        <time>2020-09-24T15:20:32Z</time>
      </trkpt>
      <trkpt lat="49.21233" lon="7.0227">
        <ele>184.8</ele>
        <time>2020-09-24T15:20:33Z</time>
      </trkpt>
      <trkpt lat="49.21261" lon="7.02268">
        <ele>184.4</ele>
        <time>2020-09-24T15:20:38Z</time>
      </trkpt>
      <trkpt lat="49.21267" lon="7.02268">
        <ele>184.2</ele>
        <time>2020-09-24T15:20:39Z</time>
      </trkpt>
      <trkpt lat="49.2128" lon="7.02267">
        <ele>184.2</ele>
        <time>2020-09-24T15:20:41Z</time>
      </trkpt>
      <trkpt lat="49.21286" lon="7.02267">
        <ele>184.2</ele>
        <time>2020-09-24T15:20:42Z</time>
      </trkpt>
      <trkpt lat="49.21299" lon="7.02265">
        <ele>184</ele>
        <time>2020-09-24T15:20:44Z</time>
      </trkpt>
      <trkpt lat="49.21305" lon="7.02264">
        <ele>184.2</ele>
        <time>2020-09-24T15:20:46Z</time>
      </trkpt>
      <trkpt lat="49.21331" lon="7.02253">
        <ele>184</ele>
        <time>2020-09-24T15:20:49Z</time>
      </trkpt>
      <trkpt lat="49.2135" lon="7.02243">
        <ele>183.8</ele>
        <time>2020-09-24T15:20:52Z</time>
      </trkpt>
      <trkpt lat="49.2138" lon="7.02228">
        <ele>183.6</ele>
        <time>2020-09-24T15:20:57Z</time>
      </trkpt>
      <trkpt lat="49.21409" lon="7.02213">
        <ele>183.4</ele>
        <time>2020-09-24T15:21:02Z</time>
      </trkpt>
      <trkpt lat="49.21409" lon="7.02213">
        <ele>183.2</ele>
        <time>2020-09-24T15:21:03Z</time>
      </trkpt>
      <trkpt lat="49.21421" lon="7.02207">
        <ele>183.2</ele>
        <time>2020-09-24T15:21:04Z</time>
      </trkpt>
      <trkpt lat="49.21433" lon="7.02201">
        <ele>183.2</ele>
        <time>2020-09-24T15:21:06Z</time>
      </trkpt>
      <trkpt lat="49.21445" lon="7.02195">
        <ele>183.2</ele>
        <time>2020-09-24T15:21:08Z</time>
      </trkpt>
      <trkpt lat="49.21461" lon="7.02186">
        <ele>183.2</ele>
        <time>2020-09-24T15:21:11Z</time>
      </trkpt>
      <trkpt lat="49.21492" lon="7.02171">
        <ele>183.2</ele>
        <time>2020-09-24T15:21:16Z</time>
      </trkpt>
      <trkpt lat="49.21498" lon="7.02168">
        <ele>183.2</ele>
        <time>2020-09-24T15:21:17Z</time>
      </trkpt>
      <trkpt lat="49.2152" lon="7.02158">
        <ele>183.2</ele>
        <time>2020-09-24T15:21:21Z</time>
      </trkpt>
      <trkpt lat="49.21526" lon="7.02155">
        <ele>183</ele>
        <time>2020-09-24T15:21:22Z</time>
      </trkpt>
      <trkpt lat="49.21538" lon="7.02149">
        <ele>183</ele>
        <time>2020-09-24T15:21:24Z</time>
      </trkpt>
      <trkpt lat="49.21549" lon="7.02144">
        <ele>183</ele>
        <time>2020-09-24T15:21:26Z</time>
      </trkpt>
      <trkpt lat="49.21554" lon="7.02142">
        <ele>183</ele>
        <time>2020-09-24T15:21:27Z</time>
      </trkpt>
      <trkpt lat="49.21572" lon="7.02133">
        <ele>183</ele>
        <time>2020-09-24T15:21:30Z</time>
      </trkpt>
      <trkpt lat="49.21619" lon="7.02111">
        <ele>183</ele>
        <time>2020-09-24T15:21:37Z</time>
      </trkpt>
      <trkpt lat="49.21656" lon="7.02094">
        <ele>183</ele>
        <time>2020-09-24T15:21:43Z</time>
      </trkpt>
      <trkpt lat="49.21661" lon="7.02091">
        <ele>183</ele>
        <time>2020-09-24T15:21:44Z</time>
      </trkpt>
      <trkpt lat="49.21673" lon="7.02086">
        <ele>182.8</ele>
        <time>2020-09-24T15:21:46Z</time>
      </trkpt>
      <trkpt lat="49.2168" lon="7.02083">
        <ele>182.8</ele>
        <time>2020-09-24T15:21:47Z</time>
      </trkpt>
      <trkpt lat="49.21717" lon="7.02063">
        <ele>182.8</ele>
        <time>2020-09-24T15:21:53Z</time>
      </trkpt>
      <trkpt lat="49.21742" lon="7.02049">
        <ele>182.6</ele>
        <time>2020-09-24T15:21:57Z</time>
      </trkpt>
      <trkpt lat="49.21767" lon="7.02035">
        <ele>182.6</ele>
        <time>2020-09-24T15:22:01Z</time>
      </trkpt>
      <trkpt lat="49.21799" lon="7.02018">
        <ele>182.4</ele>
        <time>2020-09-24T15:22:06Z</time>
      </trkpt>
      <trkpt lat="49.21839" lon="7.01995">
        <ele>182.4</ele>
        <time>2020-09-24T15:22:12Z</time>
      </trkpt>
      <trkpt lat="49.21867" lon="7.01973">
        <ele>182.2</ele>
        <time>2020-09-24T15:22:17Z</time>
      </trkpt>
      <trkpt lat="49.21901" lon="7.01946">
        <ele>181.8</ele>
        <time>2020-09-24T15:22:23Z</time>
      </trkpt>
      <trkpt lat="49.2192" lon="7.0193">
        <ele>181.8</ele>
        <time>2020-09-24T15:22:27Z</time>
      </trkpt>
      <trkpt lat="49.2193" lon="7.01922">
        <ele>181.8</ele>
        <time>2020-09-24T15:22:29Z</time>
      </trkpt>
      <trkpt lat="49.21945" lon="7.0191">
        <ele>181.6</ele>
        <time>2020-09-24T15:22:32Z</time>
      </trkpt>
      <trkpt lat="49.21972" lon="7.01882">
        <ele>181.6</ele>
        <time>2020-09-24T15:22:37Z</time>
      </trkpt>
      <trkpt lat="49.21977" lon="7.01877">
        <ele>181.8</ele>
        <time>2020-09-24T15:22:38Z</time>
      </trkpt>
      <trkpt lat="49.22004" lon="7.01848">
        <ele>182.2</ele>
        <time>2020-09-24T15:22:43Z</time>
      </trkpt>
      <trkpt lat="49.22014" lon="7.01837">
        <ele>182</ele>
        <time>2020-09-24T15:22:45Z</time>
      </trkpt>
      <trkpt lat="49.22022" lon="7.01827">
        <ele>182.2</ele>
        <time>2020-09-24T15:22:47Z</time>
      </trkpt>
      <trkpt lat="49.22036" lon="7.01812">
        <ele>182.4</ele>
        <time>2020-09-24T15:22:50Z</time>
      </trkpt>
      <trkpt lat="49.22046" lon="7.01801">
        <ele>181.6</ele>
        <time>2020-09-24T15:22:52Z</time>
      </trkpt>
      <trkpt lat="49.22078" lon="7.01771">
        <ele>181.4</ele>
        <time>2020-09-24T15:22:58Z</time>
      </trkpt>
      <trkpt lat="49.22099" lon="7.01756">
        <ele>181.4</ele>
        <time>2020-09-24T15:23:01Z</time>
      </trkpt>
      <trkpt lat="49.22104" lon="7.01752">
        <ele>181.4</ele>
        <time>2020-09-24T15:23:02Z</time>
      </trkpt>
      <trkpt lat="49.22118" lon="7.0173">
        <ele>181.4</ele>
        <time>2020-09-24T15:23:05Z</time>
      </trkpt>
      <trkpt lat="49.22126" lon="7.01709">
        <ele>181.2</ele>
        <time>2020-09-24T15:23:07Z</time>
      </trkpt>
      <trkpt lat="49.22137" lon="7.01673">
        <ele>182</ele>
        <time>2020-09-24T15:23:11Z</time>
      </trkpt>
      <trkpt lat="49.22144" lon="7.01659">
        <ele>182.2</ele>
        <time>2020-09-24T15:23:13Z</time>
      </trkpt>
      <trkpt lat="49.22167" lon="7.01619">
        <ele>182.4</ele>
        <time>2020-09-24T15:23:19Z</time>
      </trkpt>
      <trkpt lat="49.22174" lon="7.01606">
        <ele>182.6</ele>
        <time>2020-09-24T15:23:21Z</time>
      </trkpt>
      <trkpt lat="49.22182" lon="7.01591">
        <ele>182.6</ele>
        <time>2020-09-24T15:23:23Z</time>
      </trkpt>
      <trkpt lat="49.22197" lon="7.01562">
        <ele>182.8</ele>
        <time>2020-09-24T15:23:27Z</time>
      </trkpt>
      <trkpt lat="49.22201" lon="7.01555">
        <ele>182.8</ele>
        <time>2020-09-24T15:23:28Z</time>
      </trkpt>
      <trkpt lat="49.22208" lon="7.01541">
        <ele>182.8</ele>
        <time>2020-09-24T15:23:30Z</time>
      </trkpt>
      <trkpt lat="49.22212" lon="7.01533">
        <ele>183</ele>
        <time>2020-09-24T15:23:31Z</time>
      </trkpt>
      <trkpt lat="49.2222" lon="7.01518">
        <ele>183</ele>
        <time>2020-09-24T15:23:33Z</time>
      </trkpt>
      <trkpt lat="49.22232" lon="7.01494">
        <ele>183.4</ele>
        <time>2020-09-24T15:23:36Z</time>
      </trkpt>
      <trkpt lat="49.2224" lon="7.01478">
        <ele>183.6</ele>
        <time>2020-09-24T15:23:38Z</time>
      </trkpt>
      <trkpt lat="49.22255" lon="7.01446">
        <ele>184</ele>
        <time>2020-09-24T15:23:42Z</time>
      </trkpt>
      <trkpt lat="49.22285" lon="7.01381">
        <ele>184.8</ele>
        <time>2020-09-24T15:23:50Z</time>
      </trkpt>
      <trkpt lat="49.22295" lon="7.01354">
        <ele>185</ele>
        <time>2020-09-24T15:23:53Z</time>
      </trkpt>
      <trkpt lat="49.22302" lon="7.01337">
        <ele>185</ele>
        <time>2020-09-24T15:23:55Z</time>
      </trkpt>
      <trkpt lat="49.22308" lon="7.0132">
        <ele>185.2</ele>
        <time>2020-09-24T15:23:57Z</time>
      </trkpt>
      <trkpt lat="49.22314" lon="7.01304">
        <ele>185.2</ele>
        <time>2020-09-24T15:23:59Z</time>
      </trkpt>
      <trkpt lat="49.22331" lon="7.01254">
        <ele>185.6</ele>
        <time>2020-09-24T15:24:05Z</time>
      </trkpt>
      <trkpt lat="49.22337" lon="7.01238">
        <ele>185.6</ele>
        <time>2020-09-24T15:24:07Z</time>
      </trkpt>
      <trkpt lat="49.22343" lon="7.0122">
        <ele>185.8</ele>
        <time>2020-09-24T15:24:09Z</time>
      </trkpt>
      <trkpt lat="49.22346" lon="7.01212">
        <ele>186</ele>
        <time>2020-09-24T15:24:10Z</time>
      </trkpt>
      <trkpt lat="49.22351" lon="7.01195">
        <ele>186.2</ele>
        <time>2020-09-24T15:24:12Z</time>
      </trkpt>
      <trkpt lat="49.22356" lon="7.01179">
        <ele>186.4</ele>
        <time>2020-09-24T15:24:14Z</time>
      </trkpt>
      <trkpt lat="49.22361" lon="7.01162">
        <ele>186.8</ele>
        <time>2020-09-24T15:24:16Z</time>
      </trkpt>
      <trkpt lat="49.22367" lon="7.01143">
        <ele>187</ele>
        <time>2020-09-24T15:24:18Z</time>
      </trkpt>
      <trkpt lat="49.22372" lon="7.01125">
        <ele>187.2</ele>
        <time>2020-09-24T15:24:20Z</time>
      </trkpt>
      <trkpt lat="49.22375" lon="7.01117">
        <ele>187.4</ele>
        <time>2020-09-24T15:24:21Z</time>
      </trkpt>
      <trkpt lat="49.22392" lon="7.01041">
        <ele>187.6</ele>
        <time>2020-09-24T15:24:29Z</time>
      </trkpt>
      <trkpt lat="49.22403" lon="7.00986">
        <ele>187.8</ele>
        <time>2020-09-24T15:24:35Z</time>
      </trkpt>
      <trkpt lat="49.22421" lon="7.00914">
        <ele>188</ele>
        <time>2020-09-24T15:24:43Z</time>
      </trkpt>
      <trkpt lat="49.2244" lon="7.00863">
        <ele>188</ele>
        <time>2020-09-24T15:24:49Z</time>
      </trkpt>
      <trkpt lat="49.22454" lon="7.0081">
        <ele>188</ele>
        <time>2020-09-24T15:24:55Z</time>
      </trkpt>
      <trkpt lat="49.2247" lon="7.00746">
        <ele>188</ele>
        <time>2020-09-24T15:25:02Z</time>
      </trkpt>
      <trkpt lat="49.22479" lon="7.00708">
        <ele>187.6</ele>
        <time>2020-09-24T15:25:07Z</time>
      </trkpt>
      <trkpt lat="49.22488" lon="7.00678">
        <ele>187.6</ele>
        <time>2020-09-24T15:25:11Z</time>
      </trkpt>
      <trkpt lat="49.22504" lon="7.00631">
        <ele>187.6</ele>
        <time>2020-09-24T15:25:18Z</time>
      </trkpt>
      <trkpt lat="49.22522" lon="7.00583">
        <ele>187.4</ele>
        <time>2020-09-24T15:25:25Z</time>
      </trkpt>
      <trkpt lat="49.22543" lon="7.00533">
        <ele>187.4</ele>
        <time>2020-09-24T15:25:32Z</time>
      </trkpt>
      <trkpt lat="49.22572" lon="7.00476">
        <ele>187.6</ele>
        <time>2020-09-24T15:25:40Z</time>
      </trkpt>
      <trkpt lat="49.22605" lon="7.00419">
        <ele>187.8</ele>
        <time>2020-09-24T15:25:48Z</time>
      </trkpt>
      <trkpt lat="49.22634" lon="7.00383">
        <ele>188</ele>
        <time>2020-09-24T15:25:54Z</time>
      </trkpt>
      <trkpt lat="49.22677" lon="7.00348">
        <ele>188.2</ele>
        <time>2020-09-24T15:26:02Z</time>
      </trkpt>
      <trkpt lat="49.22691" lon="7.00338">
        <ele>188.2</ele>
        <time>2020-09-24T15:26:05Z</time>
      </trkpt>
      <trkpt lat="49.22696" lon="7.00335">
        <ele>188.2</ele>
        <time>2020-09-24T15:26:06Z</time>
      </trkpt>
      <trkpt lat="49.22701" lon="7.00331">
        <ele>188.2</ele>
        <time>2020-09-24T15:26:07Z</time>
      </trkpt>
      <trkpt lat="49.22711" lon="7.00327">
        <ele>188.2</ele>
        <time>2020-09-24T15:26:09Z</time>
      </trkpt>
      <trkpt lat="49.22717" lon="7.00325">
        <ele>188.2</ele>
        <time>2020-09-24T15:26:10Z</time>
      </trkpt>
      <trkpt lat="49.2274" lon="7.00317">
        <ele>188.2</ele>
        <time>2020-09-24T15:26:14Z</time>
      </trkpt>
      <trkpt lat="49.22746" lon="7.00314">
        <ele>188.2</ele>
        <time>2020-09-24T15:26:15Z</time>
      </trkpt>
      <trkpt lat="49.22767" lon="7.00306">
        <ele>188.2</ele>
        <time>2020-09-24T15:26:19Z</time>
      </trkpt>
      <trkpt lat="49.22783" lon="7.003">
        <ele>188</ele>
        <time>2020-09-24T15:26:22Z</time>
      </trkpt>
      <trkpt lat="49.22789" lon="7.00298">
        <ele>187.8</ele>
        <time>2020-09-24T15:26:23Z</time>
      </trkpt>
      <trkpt lat="49.22821" lon="7.00286">
        <ele>187.2</ele>
        <time>2020-09-24T15:26:28Z</time>
      </trkpt>
      <trkpt lat="49.22844" lon="7.00273">
        <ele>186.8</ele>
        <time>2020-09-24T15:26:32Z</time>
      </trkpt>
      <trkpt lat="49.22849" lon="7.00268">
        <ele>186.8</ele>
        <time>2020-09-24T15:26:33Z</time>
      </trkpt>
      <trkpt lat="49.22853" lon="7.00263">
        <ele>186.6</ele>
        <time>2020-09-24T15:26:34Z</time>
      </trkpt>
      <trkpt lat="49.22864" lon="7.00241">
        <ele>186.4</ele>
        <time>2020-09-24T15:26:37Z</time>
      </trkpt>
      <trkpt lat="49.22867" lon="7.00234">
        <ele>186.4</ele>
        <time>2020-09-24T15:26:38Z</time>
      </trkpt>
      <trkpt lat="49.22879" lon="7.00195">
        <ele>186.4</ele>
        <time>2020-09-24T15:26:42Z</time>
      </trkpt>
      <trkpt lat="49.22889" lon="7.00153">
        <ele>186</ele>
        <time>2020-09-24T15:26:46Z</time>
      </trkpt>
      <trkpt lat="49.2289" lon="7.00142">
        <ele>186</ele>
        <time>2020-09-24T15:26:47Z</time>
      </trkpt>
      <trkpt lat="49.22892" lon="7.00124">
        <ele>185.8</ele>
        <time>2020-09-24T15:26:49Z</time>
      </trkpt>
      <trkpt lat="49.22893" lon="7.00105">
        <ele>186</ele>
        <time>2020-09-24T15:26:51Z</time>
      </trkpt>
      <trkpt lat="49.22898" lon="7.00041">
        <ele>185.6</ele>
        <time>2020-09-24T15:26:58Z</time>
      </trkpt>
      <trkpt lat="49.22901" lon="6.99997">
        <ele>186.6</ele>
        <time>2020-09-24T15:27:03Z</time>
      </trkpt>
      <trkpt lat="49.22902" lon="6.99956">
        <ele>186.8</ele>
        <time>2020-09-24T15:27:08Z</time>
      </trkpt>
      <trkpt lat="49.22903" lon="6.99907">
        <ele>187.2</ele>
        <time>2020-09-24T15:27:14Z</time>
      </trkpt>
      <trkpt lat="49.22905" lon="6.99843">
        <ele>188</ele>
        <time>2020-09-24T15:27:21Z</time>
      </trkpt>
      <trkpt lat="49.22908" lon="6.99787">
        <ele>188.6</ele>
        <time>2020-09-24T15:27:27Z</time>
      </trkpt>
      <trkpt lat="49.22913" lon="6.9973">
        <ele>189</ele>
        <time>2020-09-24T15:27:33Z</time>
      </trkpt>
      <trkpt lat="49.22914" lon="6.99711">
        <ele>189</ele>
        <time>2020-09-24T15:27:35Z</time>
      </trkpt>
      <trkpt lat="49.22928" lon="6.99637">
        <ele>189.4</ele>
        <time>2020-09-24T15:27:43Z</time>
      </trkpt>
      <trkpt lat="49.22949" lon="6.99576">
        <ele>189.8</ele>
        <time>2020-09-24T15:27:50Z</time>
      </trkpt>
      <trkpt lat="49.22979" lon="6.99502">
        <ele>190.2</ele>
        <time>2020-09-24T15:27:59Z</time>
      </trkpt>
      <trkpt lat="49.2301" lon="6.99438">
        <ele>190</ele>
        <time>2020-09-24T15:28:07Z</time>
      </trkpt>
      <trkpt lat="49.23033" lon="6.99403">
        <ele>189.8</ele>
        <time>2020-09-24T15:28:13Z</time>
      </trkpt>
      <trkpt lat="49.23067" lon="6.99355">
        <ele>189.6</ele>
        <time>2020-09-24T15:28:19Z</time>
      </trkpt>
      <trkpt lat="49.23095" lon="6.9933">
        <ele>190.2</ele>
        <time>2020-09-24T15:28:24Z</time>
      </trkpt>
      <trkpt lat="49.231" lon="6.99327">
        <ele>190.2</ele>
        <time>2020-09-24T15:28:25Z</time>
      </trkpt>
      <trkpt lat="49.23112" lon="6.99319">
        <ele>190.2</ele>
        <time>2020-09-24T15:28:27Z</time>
      </trkpt>
      <trkpt lat="49.23117" lon="6.99315">
        <ele>190.2</ele>
        <time>2020-09-24T15:28:28Z</time>
      </trkpt>
      <trkpt lat="49.23128" lon="6.99308">
        <ele>190.2</ele>
        <time>2020-09-24T15:28:30Z</time>
      </trkpt>
      <trkpt lat="49.23145" lon="6.99296">
        <ele>190.2</ele>
        <time>2020-09-24T15:28:33Z</time>
      </trkpt>
      <trkpt lat="49.23186" lon="6.99272">
        <ele>190.4</ele>
        <time>2020-09-24T15:28:40Z</time>
      </trkpt>
      <trkpt lat="49.23229" lon="6.99248">
        <ele>190.4</ele>
        <time>2020-09-24T15:28:47Z</time>
      </trkpt>
      <trkpt lat="49.2326" lon="6.99231">
        <ele>190.4</ele>
        <time>2020-09-24T15:28:52Z</time>
      </trkpt>
      <trkpt lat="49.23297" lon="6.99213">
        <ele>190.4</ele>
        <time>2020-09-24T15:28:58Z</time>
      </trkpt>
      <trkpt lat="49.23346" lon="6.99194">
        <ele>190.4</ele>
        <time>2020-09-24T15:29:06Z</time>
      </trkpt>
      <trkpt lat="49.23388" lon="6.9918">
        <ele>190.6</ele>
        <time>2020-09-24T15:29:13Z</time>
      </trkpt>
      <trkpt lat="49.2343" lon="6.9917">
        <ele>190.6</ele>
        <time>2020-09-24T15:29:20Z</time>
      </trkpt>
      <trkpt lat="49.23458" lon="6.99164">
        <ele>190.4</ele>
        <time>2020-09-24T15:29:25Z</time>
      </trkpt>
      <trkpt lat="49.23463" lon="6.99162">
        <ele>190.4</ele>
        <time>2020-09-24T15:29:26Z</time>
      </trkpt>
      <trkpt lat="49.23485" lon="6.99157">
        <ele>190.2</ele>
        <time>2020-09-24T15:29:30Z</time>
      </trkpt>
      <trkpt lat="49.23519" lon="6.99149">
        <ele>190</ele>
        <time>2020-09-24T15:29:36Z</time>
      </trkpt>
      <trkpt lat="49.23553" lon="6.99132">
        <ele>189.8</ele>
        <time>2020-09-24T15:29:42Z</time>
      </trkpt>
      <trkpt lat="49.23579" lon="6.99109">
        <ele>189.6</ele>
        <time>2020-09-24T15:29:47Z</time>
      </trkpt>
      <trkpt lat="49.23602" lon="6.99078">
        <ele>189.4</ele>
        <time>2020-09-24T15:29:52Z</time>
      </trkpt>
      <trkpt lat="49.23606" lon="6.99071">
        <ele>189.4</ele>
        <time>2020-09-24T15:29:53Z</time>
      </trkpt>
      <trkpt lat="49.2361" lon="6.99064">
        <ele>189.4</ele>
        <time>2020-09-24T15:29:54Z</time>
      </trkpt>
      <trkpt lat="49.23624" lon="6.99035">
        <ele>189</ele>
        <time>2020-09-24T15:29:58Z</time>
      </trkpt>
      <trkpt lat="49.2363" lon="6.99015">
        <ele>188.8</ele>
        <time>2020-09-24T15:30:01Z</time>
      </trkpt>
      <trkpt lat="49.23633" lon="6.99001">
        <ele>188.6</ele>
        <time>2020-09-24T15:30:03Z</time>
      </trkpt>
      <trkpt lat="49.23634" lon="6.98994">
        <ele>188.4</ele>
        <time>2020-09-24T15:30:04Z</time>
      </trkpt>
      <trkpt lat="49.23638" lon="6.98978">
        <ele>188.4</ele>
        <time>2020-09-24T15:30:06Z</time>
      </trkpt>
      <trkpt lat="49.23641" lon="6.98965">
        <ele>188.4</ele>
        <time>2020-09-24T15:30:07Z</time>
      </trkpt>
      <trkpt lat="49.2365" lon="6.98911">
        <ele>188</ele>
        <time>2020-09-24T15:30:13Z</time>
      </trkpt>
      <trkpt lat="49.23652" lon="6.98854">
        <ele>188</ele>
        <time>2020-09-24T15:30:19Z</time>
      </trkpt>
      <trkpt lat="49.23656" lon="6.98769">
        <ele>187.8</ele>
        <time>2020-09-24T15:30:28Z</time>
      </trkpt>
      <trkpt lat="49.23656" lon="6.98742">
        <ele>187.8</ele>
        <time>2020-09-24T15:30:31Z</time>
      </trkpt>
      <trkpt lat="49.23657" lon="6.98666">
        <ele>187.4</ele>
        <time>2020-09-24T15:30:39Z</time>
      </trkpt>
      <trkpt lat="49.23658" lon="6.98618">
        <ele>187.6</ele>
        <time>2020-09-24T15:30:44Z</time>
      </trkpt>
      <trkpt lat="49.23658" lon="6.98599">
        <ele>187.6</ele>
        <time>2020-09-24T15:30:46Z</time>
      </trkpt>
      <trkpt lat="49.23658" lon="6.98551">
        <ele>187.6</ele>
        <time>2020-09-24T15:30:51Z</time>
      </trkpt>
      <trkpt lat="49.2366" lon="6.98464">
        <ele>187.8</ele>
        <time>2020-09-24T15:31:00Z</time>
      </trkpt>
      <trkpt lat="49.2366" lon="6.98416">
        <ele>187.8</ele>
        <time>2020-09-24T15:31:05Z</time>
      </trkpt>
      <trkpt lat="49.23661" lon="6.98346">
        <ele>187.8</ele>
        <time>2020-09-24T15:31:12Z</time>
      </trkpt>
      <trkpt lat="49.23662" lon="6.98297">
        <ele>188</ele>
        <time>2020-09-24T15:31:17Z</time>
      </trkpt>
      <trkpt lat="49.23661" lon="6.98249">
        <ele>188</ele>
        <time>2020-09-24T15:31:22Z</time>
      </trkpt>
      <trkpt lat="49.23657" lon="6.98179">
        <ele>188.2</ele>
        <time>2020-09-24T15:31:29Z</time>
      </trkpt>
      <trkpt lat="49.23654" lon="6.98104">
        <ele>188.6</ele>
        <time>2020-09-24T15:31:37Z</time>
      </trkpt>
      <trkpt lat="49.23654" lon="6.98056">
        <ele>188.6</ele>
        <time>2020-09-24T15:31:42Z</time>
      </trkpt>
      <trkpt lat="49.23654" lon="6.98009">
        <ele>188.6</ele>
        <time>2020-09-24T15:31:47Z</time>
      </trkpt>
      <trkpt lat="49.23654" lon="6.98">
        <ele>188.8</ele>
        <time>2020-09-24T15:31:48Z</time>
      </trkpt>
      <trkpt lat="49.23653" lon="6.97992">
        <ele>188.8</ele>
        <time>2020-09-24T15:31:49Z</time>
      </trkpt>
      <trkpt lat="49.2365" lon="6.97975">
        <ele>188.8</ele>
        <time>2020-09-24T15:31:51Z</time>
      </trkpt>
      <trkpt lat="49.23636" lon="6.97952">
        <ele>188.8</ele>
        <time>2020-09-24T15:31:54Z</time>
      </trkpt>
      <trkpt lat="49.23633" lon="6.97943">
        <ele>189</ele>
        <time>2020-09-24T15:31:55Z</time>
      </trkpt>
      <trkpt lat="49.23632" lon="6.97933">
        <ele>189</ele>
        <time>2020-09-24T15:31:56Z</time>
      </trkpt>
      <trkpt lat="49.23632" lon="6.97913">
        <ele>188.8</ele>
        <time>2020-09-24T15:31:58Z</time>
      </trkpt>
      <trkpt lat="49.23638" lon="6.97897">
        <ele>189</ele>
        <time>2020-09-24T15:32:00Z</time>
      </trkpt>
      <trkpt lat="49.23641" lon="6.97888">
        <ele>188.8</ele>
        <time>2020-09-24T15:32:01Z</time>
      </trkpt>
      <trkpt lat="49.23654" lon="6.97856">
        <ele>188.8</ele>
        <time>2020-09-24T15:32:05Z</time>
      </trkpt>
      <trkpt lat="49.23657" lon="6.97847">
        <ele>189</ele>
        <time>2020-09-24T15:32:06Z</time>
      </trkpt>
      <trkpt lat="49.23659" lon="6.9783">
        <ele>189</ele>
        <time>2020-09-24T15:32:08Z</time>
      </trkpt>
      <trkpt lat="49.23661" lon="6.97802">
        <ele>189.2</ele>
        <time>2020-09-24T15:32:11Z</time>
      </trkpt>
      <trkpt lat="49.23665" lon="6.97755">
        <ele>189.2</ele>
        <time>2020-09-24T15:32:16Z</time>
      </trkpt>
      <trkpt lat="49.23668" lon="6.97715">
        <ele>189.4</ele>
        <time>2020-09-24T15:32:21Z</time>
      </trkpt>
      <trkpt lat="49.23669" lon="6.97707">
        <ele>189.4</ele>
        <time>2020-09-24T15:32:22Z</time>
      </trkpt>
      <trkpt lat="49.23672" lon="6.97666">
        <ele>189.6</ele>
        <time>2020-09-24T15:32:27Z</time>
      </trkpt>
      <trkpt lat="49.23677" lon="6.9761">
        <ele>189.6</ele>
        <time>2020-09-24T15:32:33Z</time>
      </trkpt>
      <trkpt lat="49.23679" lon="6.97575">
        <ele>189.6</ele>
        <time>2020-09-24T15:32:37Z</time>
      </trkpt>
      <trkpt lat="49.23681" lon="6.97558">
        <ele>189.6</ele>
        <time>2020-09-24T15:32:39Z</time>
      </trkpt>
      <trkpt lat="49.23681" lon="6.97532">
        <ele>189.4</ele>
        <time>2020-09-24T15:32:42Z</time>
      </trkpt>
      <trkpt lat="49.23679" lon="6.9748">
        <ele>189.4</ele>
        <time>2020-09-24T15:32:48Z</time>
      </trkpt>
      <trkpt lat="49.23679" lon="6.97471">
        <ele>189.4</ele>
        <time>2020-09-24T15:32:49Z</time>
      </trkpt>
      <trkpt lat="49.23677" lon="6.97418">
        <ele>189.6</ele>
        <time>2020-09-24T15:32:55Z</time>
      </trkpt>
      <trkpt lat="49.23677" lon="6.97409">
        <ele>189.6</ele>
        <time>2020-09-24T15:32:56Z</time>
      </trkpt>
      <trkpt lat="49.23675" lon="6.9738">
        <ele>189.8</ele>
        <time>2020-09-24T15:32:59Z</time>
      </trkpt>
      <trkpt lat="49.23666" lon="6.97318">
        <ele>190</ele>
        <time>2020-09-24T15:33:06Z</time>
      </trkpt>
      <trkpt lat="49.23658" lon="6.97265">
        <ele>190.2</ele>
        <time>2020-09-24T15:33:12Z</time>
      </trkpt>
      <trkpt lat="49.23652" lon="6.9723">
        <ele>190.4</ele>
        <time>2020-09-24T15:33:16Z</time>
      </trkpt>
      <trkpt lat="49.23651" lon="6.97221">
        <ele>190.6</ele>
        <time>2020-09-24T15:33:17Z</time>
      </trkpt>
      <trkpt lat="49.23639" lon="6.97168">
        <ele>191</ele>
        <time>2020-09-24T15:33:23Z</time>
      </trkpt>
      <trkpt lat="49.23631" lon="6.97134">
        <ele>191.4</ele>
        <time>2020-09-24T15:33:27Z</time>
      </trkpt>
      <trkpt lat="49.23615" lon="6.97085">
        <ele>191.8</ele>
        <time>2020-09-24T15:33:33Z</time>
      </trkpt>
      <trkpt lat="49.23608" lon="6.97061">
        <ele>192</ele>
        <time>2020-09-24T15:33:36Z</time>
      </trkpt>
      <trkpt lat="49.23603" lon="6.97046">
        <ele>192</ele>
        <time>2020-09-24T15:33:38Z</time>
      </trkpt>
      <trkpt lat="49.23586" lon="6.96995">
        <ele>191.8</ele>
        <time>2020-09-24T15:33:44Z</time>
      </trkpt>
      <trkpt lat="49.2358" lon="6.96978">
        <ele>191.8</ele>
        <time>2020-09-24T15:33:46Z</time>
      </trkpt>
      <trkpt lat="49.23571" lon="6.96952">
        <ele>191.8</ele>
        <time>2020-09-24T15:33:49Z</time>
      </trkpt>
      <trkpt lat="49.2355" lon="6.96903">
        <ele>191.8</ele>
        <time>2020-09-24T15:33:55Z</time>
      </trkpt>
      <trkpt lat="49.23535" lon="6.96866">
        <ele>191.8</ele>
        <time>2020-09-24T15:34:00Z</time>
      </trkpt>
      <trkpt lat="49.23512" lon="6.96811">
        <ele>191.8</ele>
        <time>2020-09-24T15:34:07Z</time>
      </trkpt>
      <trkpt lat="49.23495" lon="6.9676">
        <ele>191.6</ele>
        <time>2020-09-24T15:34:13Z</time>
      </trkpt>
      <trkpt lat="49.23483" lon="6.96724">
        <ele>191.6</ele>
        <time>2020-09-24T15:34:17Z</time>
      </trkpt>
      <trkpt lat="49.23481" lon="6.96716">
        <ele>191.6</ele>
        <time>2020-09-24T15:34:18Z</time>
      </trkpt>
      <trkpt lat="49.23464" lon="6.96663">
        <ele>191.6</ele>
        <time>2020-09-24T15:34:24Z</time>
      </trkpt>
      <trkpt lat="49.23442" lon="6.96591">
        <ele>191.4</ele>
        <time>2020-09-24T15:34:32Z</time>
      </trkpt>
      <trkpt lat="49.2343" lon="6.96536">
        <ele>191.4</ele>
        <time>2020-09-24T15:34:38Z</time>
      </trkpt>
      <trkpt lat="49.23422" lon="6.96499">
        <ele>191.4</ele>
        <time>2020-09-24T15:34:42Z</time>
      </trkpt>
      <trkpt lat="49.23419" lon="6.96491">
        <ele>191.4</ele>
        <time>2020-09-24T15:34:43Z</time>
      </trkpt>
      <trkpt lat="49.23411" lon="6.96475">
        <ele>191.2</ele>
        <time>2020-09-24T15:34:45Z</time>
      </trkpt>
      <trkpt lat="49.23408" lon="6.96456">
        <ele>191</ele>
        <time>2020-09-24T15:34:47Z</time>
      </trkpt>
      <trkpt lat="49.23403" lon="6.96407">
        <ele>190.6</ele>
        <time>2020-09-24T15:34:52Z</time>
      </trkpt>
      <trkpt lat="49.23402" lon="6.96377">
        <ele>190.4</ele>
        <time>2020-09-24T15:34:55Z</time>
      </trkpt>
      <trkpt lat="49.23399" lon="6.96358">
        <ele>190.2</ele>
        <time>2020-09-24T15:34:57Z</time>
      </trkpt>
      <trkpt lat="49.23386" lon="6.96273">
        <ele>189.8</ele>
        <time>2020-09-24T15:35:06Z</time>
      </trkpt>
      <trkpt lat="49.23382" lon="6.96245">
        <ele>189.6</ele>
        <time>2020-09-24T15:35:09Z</time>
      </trkpt>
      <trkpt lat="49.23381" lon="6.96236">
        <ele>189.4</ele>
        <time>2020-09-24T15:35:10Z</time>
      </trkpt>
      <trkpt lat="49.23382" lon="6.96217">
        <ele>189.4</ele>
        <time>2020-09-24T15:35:12Z</time>
      </trkpt>
      <trkpt lat="49.23382" lon="6.96208">
        <ele>189.2</ele>
        <time>2020-09-24T15:35:13Z</time>
      </trkpt>
      <trkpt lat="49.23382" lon="6.9619">
        <ele>189</ele>
        <time>2020-09-24T15:35:15Z</time>
      </trkpt>
      <trkpt lat="49.23383" lon="6.96173">
        <ele>188.6</ele>
        <time>2020-09-24T15:35:17Z</time>
      </trkpt>
      <trkpt lat="49.23383" lon="6.96163">
        <ele>188.6</ele>
        <time>2020-09-24T15:35:18Z</time>
      </trkpt>
      <trkpt lat="49.23383" lon="6.96143">
        <ele>188.6</ele>
        <time>2020-09-24T15:35:20Z</time>
      </trkpt>
      <trkpt lat="49.23379" lon="6.96093">
        <ele>188.8</ele>
        <time>2020-09-24T15:35:25Z</time>
      </trkpt>
      <trkpt lat="49.23374" lon="6.96027">
        <ele>188.8</ele>
        <time>2020-09-24T15:35:32Z</time>
      </trkpt>
      <trkpt lat="49.23371" lon="6.95939">
        <ele>188.6</ele>
        <time>2020-09-24T15:35:41Z</time>
      </trkpt>
      <trkpt lat="49.23371" lon="6.95929">
        <ele>188.8</ele>
        <time>2020-09-24T15:35:42Z</time>
      </trkpt>
      <trkpt lat="49.23369" lon="6.95871">
        <ele>188.8</ele>
        <time>2020-09-24T15:35:48Z</time>
      </trkpt>
      <trkpt lat="49.23368" lon="6.95852">
        <ele>188.8</ele>
        <time>2020-09-24T15:35:50Z</time>
      </trkpt>
      <trkpt lat="49.23365" lon="6.95777">
        <ele>189</ele>
        <time>2020-09-24T15:35:58Z</time>
      </trkpt>
      <trkpt lat="49.23362" lon="6.95692">
        <ele>189</ele>
        <time>2020-09-24T15:36:07Z</time>
      </trkpt>
      <trkpt lat="49.23359" lon="6.95627">
        <ele>189</ele>
        <time>2020-09-24T15:36:14Z</time>
      </trkpt>
      <trkpt lat="49.23359" lon="6.95617">
        <ele>189</ele>
        <time>2020-09-24T15:36:15Z</time>
      </trkpt>
      <trkpt lat="49.23356" lon="6.95548">
        <ele>189.2</ele>
        <time>2020-09-24T15:36:22Z</time>
      </trkpt>
      <trkpt lat="49.23355" lon="6.95499">
        <ele>188.6</ele>
        <time>2020-09-24T15:36:27Z</time>
      </trkpt>
      <trkpt lat="49.23353" lon="6.95451">
        <ele>188.2</ele>
        <time>2020-09-24T15:36:32Z</time>
      </trkpt>
      <trkpt lat="49.23352" lon="6.95433">
        <ele>188</ele>
        <time>2020-09-24T15:36:34Z</time>
      </trkpt>
      <trkpt lat="49.23351" lon="6.95407">
        <ele>188</ele>
        <time>2020-09-24T15:36:37Z</time>
      </trkpt>
      <trkpt lat="49.23352" lon="6.9536">
        <ele>187.8</ele>
        <time>2020-09-24T15:36:42Z</time>
      </trkpt>
      <trkpt lat="49.23353" lon="6.9535">
        <ele>187.8</ele>
        <time>2020-09-24T15:36:43Z</time>
      </trkpt>
      <trkpt lat="49.23358" lon="6.9531">
        <ele>187.6</ele>
        <time>2020-09-24T15:36:47Z</time>
      </trkpt>
      <trkpt lat="49.23371" lon="6.95245">
        <ele>187.4</ele>
        <time>2020-09-24T15:36:54Z</time>
      </trkpt>
      <trkpt lat="49.23379" lon="6.95222">
        <ele>187.2</ele>
        <time>2020-09-24T15:36:57Z</time>
      </trkpt>
      <trkpt lat="49.23384" lon="6.95208">
        <ele>187.2</ele>
        <time>2020-09-24T15:36:59Z</time>
      </trkpt>
      <trkpt lat="49.23404" lon="6.95167">
        <ele>187</ele>
        <time>2020-09-24T15:37:05Z</time>
      </trkpt>
      <trkpt lat="49.23419" lon="6.9514">
        <ele>186.8</ele>
        <time>2020-09-24T15:37:10Z</time>
      </trkpt>
      <trkpt lat="49.23455" lon="6.95076">
        <ele>186.4</ele>
        <time>2020-09-24T15:37:18Z</time>
      </trkpt>
      <trkpt lat="49.23459" lon="6.95069">
        <ele>186.4</ele>
        <time>2020-09-24T15:37:19Z</time>
      </trkpt>
      <trkpt lat="49.23496" lon="6.95001">
        <ele>185.8</ele>
        <time>2020-09-24T15:37:28Z</time>
      </trkpt>
      <trkpt lat="49.23519" lon="6.94954">
        <ele>185.4</ele>
        <time>2020-09-24T15:37:34Z</time>
      </trkpt>
      <trkpt lat="49.23554" lon="6.94879">
        <ele>185</ele>
        <time>2020-09-24T15:37:43Z</time>
      </trkpt>
      <trkpt lat="49.23577" lon="6.94826">
        <ele>184.4</ele>
        <time>2020-09-24T15:37:49Z</time>
      </trkpt>
      <trkpt lat="49.23599" lon="6.94772">
        <ele>183.8</ele>
        <time>2020-09-24T15:37:55Z</time>
      </trkpt>
      <trkpt lat="49.23631" lon="6.94698">
        <ele>183.6</ele>
        <time>2020-09-24T15:38:03Z</time>
      </trkpt>
      <trkpt lat="49.23638" lon="6.94679">
        <ele>183.6</ele>
        <time>2020-09-24T15:38:05Z</time>
      </trkpt>
      <trkpt lat="49.23671" lon="6.94602">
        <ele>184</ele>
        <time>2020-09-24T15:38:13Z</time>
      </trkpt>
      <trkpt lat="49.23674" lon="6.94593">
        <ele>184.2</ele>
        <time>2020-09-24T15:38:14Z</time>
      </trkpt>
      <trkpt lat="49.23704" lon="6.94513">
        <ele>184.4</ele>
        <time>2020-09-24T15:38:22Z</time>
      </trkpt>
      <trkpt lat="49.23729" lon="6.94447">
        <ele>184.2</ele>
        <time>2020-09-24T15:38:29Z</time>
      </trkpt>
      <trkpt lat="49.23734" lon="6.94437">
        <ele>184.2</ele>
        <time>2020-09-24T15:38:30Z</time>
      </trkpt>
      <trkpt lat="49.23752" lon="6.94401">
        <ele>184.6</ele>
        <time>2020-09-24T15:38:34Z</time>
      </trkpt>
      <trkpt lat="49.2377" lon="6.94351">
        <ele>183.8</ele>
        <time>2020-09-24T15:38:39Z</time>
      </trkpt>
      <trkpt lat="49.23781" lon="6.94308">
        <ele>184.4</ele>
        <time>2020-09-24T15:38:43Z</time>
      </trkpt>
      <trkpt lat="49.23782" lon="6.94298">
        <ele>184.4</ele>
        <time>2020-09-24T15:38:44Z</time>
      </trkpt>
      <trkpt lat="49.23789" lon="6.94252">
        <ele>184.6</ele>
        <time>2020-09-24T15:38:49Z</time>
      </trkpt>
      <trkpt lat="49.23791" lon="6.94235">
        <ele>184.6</ele>
        <time>2020-09-24T15:38:51Z</time>
      </trkpt>
      <trkpt lat="49.23796" lon="6.94218">
        <ele>184.8</ele>
        <time>2020-09-24T15:38:53Z</time>
      </trkpt>
      <trkpt lat="49.23813" lon="6.94151">
        <ele>184.8</ele>
        <time>2020-09-24T15:39:01Z</time>
      </trkpt>
      <trkpt lat="49.23833" lon="6.94074">
        <ele>185.2</ele>
        <time>2020-09-24T15:39:10Z</time>
      </trkpt>
      <trkpt lat="49.23835" lon="6.94065">
        <ele>185.2</ele>
        <time>2020-09-24T15:39:11Z</time>
      </trkpt>
      <trkpt lat="49.23849" lon="6.94013">
        <ele>185.2</ele>
        <time>2020-09-24T15:39:17Z</time>
      </trkpt>
      <trkpt lat="49.23863" lon="6.93949">
        <ele>185.2</ele>
        <time>2020-09-24T15:39:25Z</time>
      </trkpt>
      <trkpt lat="49.23881" lon="6.93868">
        <ele>185.4</ele>
        <time>2020-09-24T15:39:33Z</time>
      </trkpt>
      <trkpt lat="49.23885" lon="6.9385">
        <ele>185.6</ele>
        <time>2020-09-24T15:39:35Z</time>
      </trkpt>
      <trkpt lat="49.23898" lon="6.93773">
        <ele>185.6</ele>
        <time>2020-09-24T15:39:43Z</time>
      </trkpt>
      <trkpt lat="49.23906" lon="6.93715">
        <ele>185.6</ele>
        <time>2020-09-24T15:39:49Z</time>
      </trkpt>
      <trkpt lat="49.23913" lon="6.93656">
        <ele>185.6</ele>
        <time>2020-09-24T15:39:55Z</time>
      </trkpt>
      <trkpt lat="49.23915" lon="6.93573">
        <ele>185.8</ele>
        <time>2020-09-24T15:40:03Z</time>
      </trkpt>
      <trkpt lat="49.23917" lon="6.935">
        <ele>185.6</ele>
        <time>2020-09-24T15:40:10Z</time>
      </trkpt>
      <trkpt lat="49.23919" lon="6.93416">
        <ele>185.6</ele>
        <time>2020-09-24T15:40:18Z</time>
      </trkpt>
      <trkpt lat="49.23919" lon="6.93406">
        <ele>185.6</ele>
        <time>2020-09-24T15:40:19Z</time>
      </trkpt>
      <trkpt lat="49.23921" lon="6.93315">
        <ele>185.6</ele>
        <time>2020-09-24T15:40:28Z</time>
      </trkpt>
      <trkpt lat="49.23924" lon="6.93228">
        <ele>185.4</ele>
        <time>2020-09-24T15:40:37Z</time>
      </trkpt>
      <trkpt lat="49.23931" lon="6.93161">
        <ele>185.4</ele>
        <time>2020-09-24T15:40:44Z</time>
      </trkpt>
      <trkpt lat="49.23932" lon="6.93152">
        <ele>185.4</ele>
        <time>2020-09-24T15:40:45Z</time>
      </trkpt>
      <trkpt lat="49.23935" lon="6.93123">
        <ele>185.4</ele>
        <time>2020-09-24T15:40:48Z</time>
      </trkpt>
      <trkpt lat="49.23946" lon="6.93056">
        <ele>185.4</ele>
        <time>2020-09-24T15:40:55Z</time>
      </trkpt>
      <trkpt lat="49.23955" lon="6.93001">
        <ele>185.6</ele>
        <time>2020-09-24T15:41:02Z</time>
      </trkpt>
      <trkpt lat="49.23964" lon="6.92969">
        <ele>185.8</ele>
        <time>2020-09-24T15:41:07Z</time>
      </trkpt>
      <trkpt lat="49.23968" lon="6.92957">
        <ele>186</ele>
        <time>2020-09-24T15:41:09Z</time>
      </trkpt>
      <trkpt lat="49.23982" lon="6.92923">
        <ele>186.4</ele>
        <time>2020-09-24T15:41:16Z</time>
      </trkpt>
      <trkpt lat="49.2399" lon="6.92892">
        <ele>186.6</ele>
        <time>2020-09-24T15:41:22Z</time>
      </trkpt>
      <trkpt lat="49.24003" lon="6.92847">
        <ele>187</ele>
        <time>2020-09-24T15:41:28Z</time>
      </trkpt>
      <trkpt lat="49.24015" lon="6.92801">
        <ele>187</ele>
        <time>2020-09-24T15:41:33Z</time>
      </trkpt>
      <trkpt lat="49.24018" lon="6.9279">
        <ele>187</ele>
        <time>2020-09-24T15:41:34Z</time>
      </trkpt>
      <trkpt lat="49.24027" lon="6.92757">
        <ele>186.8</ele>
        <time>2020-09-24T15:41:37Z</time>
      </trkpt>
      <trkpt lat="49.2405" lon="6.92677">
        <ele>186</ele>
        <time>2020-09-24T15:41:44Z</time>
      </trkpt>
      <trkpt lat="49.24071" lon="6.92609">
        <ele>186.6</ele>
        <time>2020-09-24T15:41:51Z</time>
      </trkpt>
      <trkpt lat="49.24088" lon="6.92555">
        <ele>186.6</ele>
        <time>2020-09-24T15:41:57Z</time>
      </trkpt>
      <trkpt lat="49.2411" lon="6.92484">
        <ele>186.6</ele>
        <time>2020-09-24T15:42:05Z</time>
      </trkpt>
      <trkpt lat="49.24134" lon="6.92414">
        <ele>186.2</ele>
        <time>2020-09-24T15:42:13Z</time>
      </trkpt>
      <trkpt lat="49.24155" lon="6.92353">
        <ele>185.8</ele>
        <time>2020-09-24T15:42:20Z</time>
      </trkpt>
      <trkpt lat="49.24158" lon="6.92344">
        <ele>185.8</ele>
        <time>2020-09-24T15:42:21Z</time>
      </trkpt>
      <trkpt lat="49.24175" lon="6.92291">
        <ele>185.4</ele>
        <time>2020-09-24T15:42:27Z</time>
      </trkpt>
      <trkpt lat="49.24194" lon="6.92227">
        <ele>185.2</ele>
        <time>2020-09-24T15:42:34Z</time>
      </trkpt>
      <trkpt lat="49.24216" lon="6.92152">
        <ele>184.8</ele>
        <time>2020-09-24T15:42:42Z</time>
      </trkpt>
      <trkpt lat="49.24238" lon="6.92075">
        <ele>184.6</ele>
        <time>2020-09-24T15:42:50Z</time>
      </trkpt>
      <trkpt lat="49.24258" lon="6.92009">
        <ele>184.6</ele>
        <time>2020-09-24T15:42:57Z</time>
      </trkpt>
      <trkpt lat="49.24278" lon="6.91942">
        <ele>185</ele>
        <time>2020-09-24T15:43:04Z</time>
      </trkpt>
      <trkpt lat="49.24297" lon="6.91875">
        <ele>185</ele>
        <time>2020-09-24T15:43:11Z</time>
      </trkpt>
      <trkpt lat="49.24304" lon="6.91856">
        <ele>185.2</ele>
        <time>2020-09-24T15:43:13Z</time>
      </trkpt>
      <trkpt lat="49.24316" lon="6.91828">
        <ele>185.2</ele>
        <time>2020-09-24T15:43:16Z</time>
      </trkpt>
      <trkpt lat="49.24352" lon="6.91761">
        <ele>185.6</ele>
        <time>2020-09-24T15:43:24Z</time>
      </trkpt>
      <trkpt lat="49.24379" lon="6.9171">
        <ele>186</ele>
        <time>2020-09-24T15:43:30Z</time>
      </trkpt>
      <trkpt lat="49.24403" lon="6.91653">
        <ele>185.8</ele>
        <time>2020-09-24T15:43:36Z</time>
      </trkpt>
      <trkpt lat="49.24423" lon="6.91592">
        <ele>185.8</ele>
        <time>2020-09-24T15:43:42Z</time>
      </trkpt>
      <trkpt lat="49.24445" lon="6.91523">
        <ele>186.4</ele>
        <time>2020-09-24T15:43:49Z</time>
      </trkpt>
      <trkpt lat="49.24462" lon="6.91463">
        <ele>186.8</ele>
        <time>2020-09-24T15:43:55Z</time>
      </trkpt>
      <trkpt lat="49.24474" lon="6.91413">
        <ele>187.2</ele>
        <time>2020-09-24T15:44:00Z</time>
      </trkpt>
      <trkpt lat="49.24483" lon="6.91363">
        <ele>187.2</ele>
        <time>2020-09-24T15:44:05Z</time>
      </trkpt>
      <trkpt lat="49.24485" lon="6.91312">
        <ele>187.2</ele>
        <time>2020-09-24T15:44:10Z</time>
      </trkpt>
      <trkpt lat="49.2449" lon="6.91252">
        <ele>187.6</ele>
        <time>2020-09-24T15:44:16Z</time>
      </trkpt>
      <trkpt lat="49.24504" lon="6.91184">
        <ele>187.6</ele>
        <time>2020-09-24T15:44:23Z</time>
      </trkpt>
      <trkpt lat="49.24519" lon="6.91127">
        <ele>187.6</ele>
        <time>2020-09-24T15:44:29Z</time>
      </trkpt>
      <trkpt lat="49.24538" lon="6.91052">
        <ele>187.2</ele>
        <time>2020-09-24T15:44:37Z</time>
      </trkpt>
      <trkpt lat="49.24546" lon="6.90989">
        <ele>187.2</ele>
        <time>2020-09-24T15:44:44Z</time>
      </trkpt>
      <trkpt lat="49.24555" lon="6.90919">
        <ele>187</ele>
        <time>2020-09-24T15:44:52Z</time>
      </trkpt>
      <trkpt lat="49.24561" lon="6.90857">
        <ele>186.8</ele>
        <time>2020-09-24T15:44:59Z</time>
      </trkpt>
      <trkpt lat="49.24566" lon="6.90783">
        <ele>186.4</ele>
        <time>2020-09-24T15:45:07Z</time>
      </trkpt>
      <trkpt lat="49.24576" lon="6.9071">
        <ele>186.2</ele>
        <time>2020-09-24T15:45:15Z</time>
      </trkpt>
      <trkpt lat="49.24592" lon="6.90658">
        <ele>186</ele>
        <time>2020-09-24T15:45:21Z</time>
      </trkpt>
      <trkpt lat="49.24597" lon="6.9064">
        <ele>185.8</ele>
        <time>2020-09-24T15:45:23Z</time>
      </trkpt>
      <trkpt lat="49.24603" lon="6.90612">
        <ele>185.8</ele>
        <time>2020-09-24T15:45:26Z</time>
      </trkpt>
      <trkpt lat="49.24613" lon="6.90564">
        <ele>185.4</ele>
        <time>2020-09-24T15:45:31Z</time>
      </trkpt>
      <trkpt lat="49.24622" lon="6.90491">
        <ele>184.4</ele>
        <time>2020-09-24T15:45:38Z</time>
      </trkpt>
      <trkpt lat="49.24629" lon="6.90433">
        <ele>183.6</ele>
        <time>2020-09-24T15:45:44Z</time>
      </trkpt>
      <trkpt lat="49.24636" lon="6.90373">
        <ele>182.6</ele>
        <time>2020-09-24T15:45:50Z</time>
      </trkpt>
      <trkpt lat="49.24644" lon="6.90303">
        <ele>181.8</ele>
        <time>2020-09-24T15:45:57Z</time>
      </trkpt>
      <trkpt lat="49.24645" lon="6.90293">
        <ele>181.6</ele>
        <time>2020-09-24T15:45:58Z</time>
      </trkpt>
      <trkpt lat="49.24649" lon="6.90264">
        <ele>181.2</ele>
        <time>2020-09-24T15:46:01Z</time>
      </trkpt>
      <trkpt lat="49.24652" lon="6.90245">
        <ele>181</ele>
        <time>2020-09-24T15:46:03Z</time>
      </trkpt>
      <trkpt lat="49.24656" lon="6.90216">
        <ele>180.6</ele>
        <time>2020-09-24T15:46:06Z</time>
      </trkpt>
      <trkpt lat="49.24667" lon="6.90137">
        <ele>180</ele>
        <time>2020-09-24T15:46:14Z</time>
      </trkpt>
      <trkpt lat="49.24677" lon="6.90068">
        <ele>179.2</ele>
        <time>2020-09-24T15:46:21Z</time>
      </trkpt>
      <trkpt lat="49.24688" lon="6.89992">
        <ele>178.6</ele>
        <time>2020-09-24T15:46:29Z</time>
      </trkpt>
      <trkpt lat="49.24696" lon="6.89934">
        <ele>178</ele>
        <time>2020-09-24T15:46:35Z</time>
      </trkpt>
      <trkpt lat="49.24705" lon="6.89876">
        <ele>178</ele>
        <time>2020-09-24T15:46:41Z</time>
      </trkpt>
      <trkpt lat="49.24714" lon="6.89808">
        <ele>178</ele>
        <time>2020-09-24T15:46:48Z</time>
      </trkpt>
      <trkpt lat="49.24724" lon="6.89741">
        <ele>177.8</ele>
        <time>2020-09-24T15:46:55Z</time>
      </trkpt>
      <trkpt lat="49.24731" lon="6.89692">
        <ele>178.2</ele>
        <time>2020-09-24T15:47:00Z</time>
      </trkpt>
      <trkpt lat="49.24743" lon="6.89611">
        <ele>178.2</ele>
        <time>2020-09-24T15:47:08Z</time>
      </trkpt>
      <trkpt lat="49.24752" lon="6.8955">
        <ele>178.2</ele>
        <time>2020-09-24T15:47:14Z</time>
      </trkpt>
      <trkpt lat="49.24762" lon="6.89483">
        <ele>178.2</ele>
        <time>2020-09-24T15:47:21Z</time>
      </trkpt>
      <trkpt lat="49.24771" lon="6.89425">
        <ele>178.4</ele>
        <time>2020-09-24T15:47:27Z</time>
      </trkpt>
      <trkpt lat="49.24772" lon="6.89416">
        <ele>178.4</ele>
        <time>2020-09-24T15:47:28Z</time>
      </trkpt>
      <trkpt lat="49.24777" lon="6.89388">
        <ele>178.4</ele>
        <time>2020-09-24T15:47:31Z</time>
      </trkpt>
      <trkpt lat="49.24787" lon="6.89324">
        <ele>178.4</ele>
        <time>2020-09-24T15:47:38Z</time>
      </trkpt>
      <trkpt lat="49.24796" lon="6.89266">
        <ele>178.4</ele>
        <time>2020-09-24T15:47:45Z</time>
      </trkpt>
      <trkpt lat="49.24805" lon="6.89212">
        <ele>178.8</ele>
        <time>2020-09-24T15:47:52Z</time>
      </trkpt>
      <trkpt lat="49.24812" lon="6.89167">
        <ele>179</ele>
        <time>2020-09-24T15:47:58Z</time>
      </trkpt>
      <trkpt lat="49.24817" lon="6.89133">
        <ele>179.2</ele>
        <time>2020-09-24T15:48:03Z</time>
      </trkpt>
      <trkpt lat="49.24819" lon="6.8912">
        <ele>179.4</ele>
        <time>2020-09-24T15:48:05Z</time>
      </trkpt>
      <trkpt lat="49.24829" lon="6.89078">
        <ele>179.8</ele>
        <time>2020-09-24T15:48:11Z</time>
      </trkpt>
      <trkpt lat="49.24847" lon="6.89007">
        <ele>180.2</ele>
        <time>2020-09-24T15:48:20Z</time>
      </trkpt>
      <trkpt lat="49.24863" lon="6.88942">
        <ele>180.6</ele>
        <time>2020-09-24T15:48:28Z</time>
      </trkpt>
      <trkpt lat="49.2488" lon="6.88883">
        <ele>180.8</ele>
        <time>2020-09-24T15:48:35Z</time>
      </trkpt>
      <trkpt lat="49.249" lon="6.88818">
        <ele>181</ele>
        <time>2020-09-24T15:48:43Z</time>
      </trkpt>
      <trkpt lat="49.2492" lon="6.8876">
        <ele>181</ele>
        <time>2020-09-24T15:48:50Z</time>
      </trkpt>
      <trkpt lat="49.24937" lon="6.8871">
        <ele>181.2</ele>
        <time>2020-09-24T15:48:56Z</time>
      </trkpt>
      <trkpt lat="49.24959" lon="6.88653">
        <ele>180.8</ele>
        <time>2020-09-24T15:49:03Z</time>
      </trkpt>
      <trkpt lat="49.24975" lon="6.88615">
        <ele>180.8</ele>
        <time>2020-09-24T15:49:08Z</time>
      </trkpt>
      <trkpt lat="49.24998" lon="6.88563">
        <ele>180.6</ele>
        <time>2020-09-24T15:49:14Z</time>
      </trkpt>
      <trkpt lat="49.2501" lon="6.88524">
        <ele>180.6</ele>
        <time>2020-09-24T15:49:18Z</time>
      </trkpt>
      <trkpt lat="49.25032" lon="6.88456">
        <ele>180.6</ele>
        <time>2020-09-24T15:49:25Z</time>
      </trkpt>
      <trkpt lat="49.25046" lon="6.88411">
        <ele>180.6</ele>
        <time>2020-09-24T15:49:30Z</time>
      </trkpt>
      <trkpt lat="49.25053" lon="6.88375">
        <ele>180.6</ele>
        <time>2020-09-24T15:49:34Z</time>
      </trkpt>
      <trkpt lat="49.25053" lon="6.88358">
        <ele>180.4</ele>
        <time>2020-09-24T15:49:36Z</time>
      </trkpt>
      <trkpt lat="49.25053" lon="6.88345">
        <ele>180.6</ele>
        <time>2020-09-24T15:49:38Z</time>
      </trkpt>
      <trkpt lat="49.25059" lon="6.8832">
        <ele>180.8</ele>
        <time>2020-09-24T15:49:42Z</time>
      </trkpt>
      <trkpt lat="49.25062" lon="6.88307">
        <ele>180.8</ele>
        <time>2020-09-24T15:49:44Z</time>
      </trkpt>
      <trkpt lat="49.25067" lon="6.88286">
        <ele>180.8</ele>
        <time>2020-09-24T15:49:47Z</time>
      </trkpt>
      <trkpt lat="49.2507" lon="6.88273">
        <ele>181</ele>
        <time>2020-09-24T15:49:49Z</time>
      </trkpt>
      <trkpt lat="49.25075" lon="6.88256">
        <ele>181</ele>
        <time>2020-09-24T15:49:52Z</time>
      </trkpt>
      <trkpt lat="49.25079" lon="6.88238">
        <ele>181</ele>
        <time>2020-09-24T15:49:55Z</time>
      </trkpt>
      <trkpt lat="49.25082" lon="6.88224">
        <ele>181.2</ele>
        <time>2020-09-24T15:49:57Z</time>
      </trkpt>
      <trkpt lat="49.25093" lon="6.88166">
        <ele>181</ele>
        <time>2020-09-24T15:50:04Z</time>
      </trkpt>
      <trkpt lat="49.25093" lon="6.88166">
        <ele>181</ele>
        <time>2020-09-24T15:50:05Z</time>
      </trkpt>
      <trkpt lat="49.25107" lon="6.88098">
        <ele>180.8</ele>
        <time>2020-09-24T15:50:12Z</time>
      </trkpt>
      <trkpt lat="49.25109" lon="6.88089">
        <ele>180.6</ele>
        <time>2020-09-24T15:50:13Z</time>
      </trkpt>
      <trkpt lat="49.25116" lon="6.88053">
        <ele>180.4</ele>
        <time>2020-09-24T15:50:17Z</time>
      </trkpt>
      <trkpt lat="49.25123" lon="6.8798">
        <ele>180</ele>
        <time>2020-09-24T15:50:25Z</time>
      </trkpt>
      <trkpt lat="49.25129" lon="6.87911">
        <ele>179.6</ele>
        <time>2020-09-24T15:50:32Z</time>
      </trkpt>
      <trkpt lat="49.25134" lon="6.8785">
        <ele>179.4</ele>
        <time>2020-09-24T15:50:38Z</time>
      </trkpt>
      <trkpt lat="49.25137" lon="6.87767">
        <ele>179</ele>
        <time>2020-09-24T15:50:46Z</time>
      </trkpt>
      <trkpt lat="49.25137" lon="6.87756">
        <ele>179</ele>
        <time>2020-09-24T15:50:47Z</time>
      </trkpt>
      <trkpt lat="49.25137" lon="6.87745">
        <ele>179</ele>
        <time>2020-09-24T15:50:48Z</time>
      </trkpt>
      <trkpt lat="49.25137" lon="6.87703">
        <ele>178.8</ele>
        <time>2020-09-24T15:50:52Z</time>
      </trkpt>
      <trkpt lat="49.25133" lon="6.87662">
        <ele>178.6</ele>
        <time>2020-09-24T15:50:56Z</time>
      </trkpt>
      <trkpt lat="49.2513" lon="6.87632">
        <ele>178.8</ele>
        <time>2020-09-24T15:50:59Z</time>
      </trkpt>
      <trkpt lat="49.25119" lon="6.8755">
        <ele>178.8</ele>
        <time>2020-09-24T15:51:07Z</time>
      </trkpt>
      <trkpt lat="49.25118" lon="6.87539">
        <ele>178.6</ele>
        <time>2020-09-24T15:51:08Z</time>
      </trkpt>
      <trkpt lat="49.25101" lon="6.87461">
        <ele>178.6</ele>
        <time>2020-09-24T15:51:16Z</time>
      </trkpt>
      <trkpt lat="49.25082" lon="6.87383">
        <ele>178.6</ele>
        <time>2020-09-24T15:51:24Z</time>
      </trkpt>
      <trkpt lat="49.2508" lon="6.87373">
        <ele>178.6</ele>
        <time>2020-09-24T15:51:25Z</time>
      </trkpt>
      <trkpt lat="49.25069" lon="6.87326">
        <ele>178.8</ele>
        <time>2020-09-24T15:51:31Z</time>
      </trkpt>
      <trkpt lat="49.25068" lon="6.87307">
        <ele>178.8</ele>
        <time>2020-09-24T15:51:32Z</time>
      </trkpt>
      <trkpt lat="49.25067" lon="6.87298">
        <ele>178.8</ele>
        <time>2020-09-24T15:51:33Z</time>
      </trkpt>
      <trkpt lat="49.25067" lon="6.87298">
        <ele>178.8</ele>
        <time>2020-09-24T15:51:35Z</time>
      </trkpt>
      <trkpt lat="49.25047" lon="6.87262">
        <ele>178.8</ele>
        <time>2020-09-24T15:51:39Z</time>
      </trkpt>
      <trkpt lat="49.25035" lon="6.87227">
        <ele>179.2</ele>
        <time>2020-09-24T15:51:44Z</time>
      </trkpt>
      <trkpt lat="49.25031" lon="6.87213">
        <ele>179.2</ele>
        <time>2020-09-24T15:51:46Z</time>
      </trkpt>
      <trkpt lat="49.25025" lon="6.87187">
        <ele>179.6</ele>
        <time>2020-09-24T15:51:50Z</time>
      </trkpt>
      <trkpt lat="49.25021" lon="6.87174">
        <ele>179.8</ele>
        <time>2020-09-24T15:51:52Z</time>
      </trkpt>
      <trkpt lat="49.25015" lon="6.87148">
        <ele>180.2</ele>
        <time>2020-09-24T15:51:56Z</time>
      </trkpt>
      <trkpt lat="49.25004" lon="6.87104">
        <ele>180.8</ele>
        <time>2020-09-24T15:52:02Z</time>
      </trkpt>
      <trkpt lat="49.24987" lon="6.87033">
        <ele>181.2</ele>
        <time>2020-09-24T15:52:11Z</time>
      </trkpt>
      <trkpt lat="49.24975" lon="6.86972">
        <ele>181.6</ele>
        <time>2020-09-24T15:52:18Z</time>
      </trkpt>
      <trkpt lat="49.24967" lon="6.86927">
        <ele>181.8</ele>
        <time>2020-09-24T15:52:23Z</time>
      </trkpt>
      <trkpt lat="49.24975" lon="6.86911">
        <ele>182</ele>
        <time>2020-09-24T15:52:25Z</time>
      </trkpt>
      <trkpt lat="49.24987" lon="6.86888">
        <ele>182</ele>
        <time>2020-09-24T15:52:28Z</time>
      </trkpt>
      <trkpt lat="49.24988" lon="6.8688">
        <ele>182</ele>
        <time>2020-09-24T15:52:29Z</time>
      </trkpt>
      <trkpt lat="49.24987" lon="6.86871">
        <ele>182</ele>
        <time>2020-09-24T15:52:30Z</time>
      </trkpt>
      <trkpt lat="49.24984" lon="6.86855">
        <ele>182</ele>
        <time>2020-09-24T15:52:32Z</time>
      </trkpt>
      <trkpt lat="49.24969" lon="6.86813">
        <ele>182.2</ele>
        <time>2020-09-24T15:52:37Z</time>
      </trkpt>
      <trkpt lat="49.24945" lon="6.86744">
        <ele>182.4</ele>
        <time>2020-09-24T15:52:45Z</time>
      </trkpt>
      <trkpt lat="49.24925" lon="6.86693">
        <ele>182.4</ele>
        <time>2020-09-24T15:52:51Z</time>
      </trkpt>
      <trkpt lat="49.2492" lon="6.86686">
        <ele>182.4</ele>
        <time>2020-09-24T15:52:52Z</time>
      </trkpt>
      <trkpt lat="49.24916" lon="6.86679">
        <ele>182.4</ele>
        <time>2020-09-24T15:52:53Z</time>
      </trkpt>
      <trkpt lat="49.24904" lon="6.86672">
        <ele>182.4</ele>
        <time>2020-09-24T15:52:55Z</time>
      </trkpt>
      <trkpt lat="49.24898" lon="6.8667">
        <ele>182.4</ele>
        <time>2020-09-24T15:52:56Z</time>
      </trkpt>
      <trkpt lat="49.24891" lon="6.86666">
        <ele>182.4</ele>
        <time>2020-09-24T15:52:57Z</time>
      </trkpt>
      <trkpt lat="49.24881" lon="6.86654">
        <ele>182.6</ele>
        <time>2020-09-24T15:52:59Z</time>
      </trkpt>
      <trkpt lat="49.24862" lon="6.86628">
        <ele>182.4</ele>
        <time>2020-09-24T15:53:03Z</time>
      </trkpt>
      <trkpt lat="49.24858" lon="6.8662">
        <ele>182.6</ele>
        <time>2020-09-24T15:53:04Z</time>
      </trkpt>
      <trkpt lat="49.24822" lon="6.86549">
        <ele>182.6</ele>
        <time>2020-09-24T15:53:13Z</time>
      </trkpt>
      <trkpt lat="49.24817" lon="6.86541">
        <ele>182.6</ele>
        <time>2020-09-24T15:53:14Z</time>
      </trkpt>
      <trkpt lat="49.2478" lon="6.86473">
        <ele>182.8</ele>
        <time>2020-09-24T15:53:23Z</time>
      </trkpt>
      <trkpt lat="49.24776" lon="6.86467">
        <ele>182.8</ele>
        <time>2020-09-24T15:53:24Z</time>
      </trkpt>
      <trkpt lat="49.2475" lon="6.86428">
        <ele>183</ele>
        <time>2020-09-24T15:53:31Z</time>
      </trkpt>
      <trkpt lat="49.24713" lon="6.86376">
        <ele>183</ele>
        <time>2020-09-24T15:53:38Z</time>
      </trkpt>
      <trkpt lat="49.24708" lon="6.8637">
        <ele>183</ele>
        <time>2020-09-24T15:53:39Z</time>
      </trkpt>
      <trkpt lat="49.24662" lon="6.86315">
        <ele>183</ele>
        <time>2020-09-24T15:53:48Z</time>
      </trkpt>
      <trkpt lat="49.24615" lon="6.86259">
        <ele>183</ele>
        <time>2020-09-24T15:53:57Z</time>
      </trkpt>
      <trkpt lat="49.2461" lon="6.86253">
        <ele>183</ele>
        <time>2020-09-24T15:53:58Z</time>
      </trkpt>
      <trkpt lat="49.2457" lon="6.86201">
        <ele>182.6</ele>
        <time>2020-09-24T15:54:06Z</time>
      </trkpt>
      <trkpt lat="49.2456" lon="6.86178">
        <ele>182.6</ele>
        <time>2020-09-24T15:54:09Z</time>
      </trkpt>
      <trkpt lat="49.24557" lon="6.86163">
        <ele>182.4</ele>
        <time>2020-09-24T15:54:11Z</time>
      </trkpt>
      <trkpt lat="49.24554" lon="6.86148">
        <ele>182.4</ele>
        <time>2020-09-24T15:54:13Z</time>
      </trkpt>
      <trkpt lat="49.24548" lon="6.86133">
        <ele>182.2</ele>
        <time>2020-09-24T15:54:15Z</time>
      </trkpt>
      <trkpt lat="49.24537" lon="6.86128">
        <ele>182</ele>
        <time>2020-09-24T15:54:17Z</time>
      </trkpt>
      <trkpt lat="49.2453" lon="6.86127">
        <ele>182</ele>
        <time>2020-09-24T15:54:18Z</time>
      </trkpt>
      <trkpt lat="49.24505" lon="6.8612">
        <ele>181.8</ele>
        <time>2020-09-24T15:54:22Z</time>
      </trkpt>
      <trkpt lat="49.24449" lon="6.86099">
        <ele>181.2</ele>
        <time>2020-09-24T15:54:31Z</time>
      </trkpt>
      <trkpt lat="49.24412" lon="6.86077">
        <ele>181.2</ele>
        <time>2020-09-24T15:54:37Z</time>
      </trkpt>
      <trkpt lat="49.24364" lon="6.86046">
        <ele>181</ele>
        <time>2020-09-24T15:54:45Z</time>
      </trkpt>
      <trkpt lat="49.24317" lon="6.86008">
        <ele>180.6</ele>
        <time>2020-09-24T15:54:53Z</time>
      </trkpt>
      <trkpt lat="49.24277" lon="6.85962">
        <ele>180.6</ele>
        <time>2020-09-24T15:55:00Z</time>
      </trkpt>
      <trkpt lat="49.2424" lon="6.85889">
        <ele>180.2</ele>
        <time>2020-09-24T15:55:08Z</time>
      </trkpt>
      <trkpt lat="49.24215" lon="6.8583">
        <ele>180</ele>
        <time>2020-09-24T15:55:14Z</time>
      </trkpt>
      <trkpt lat="49.24188" lon="6.85762">
        <ele>180</ele>
        <time>2020-09-24T15:55:21Z</time>
      </trkpt>
      <trkpt lat="49.24169" lon="6.8569">
        <ele>179.8</ele>
        <time>2020-09-24T15:55:28Z</time>
      </trkpt>
      <trkpt lat="49.24153" lon="6.85629">
        <ele>179.8</ele>
        <time>2020-09-24T15:55:34Z</time>
      </trkpt>
      <trkpt lat="49.24145" lon="6.85588">
        <ele>179.8</ele>
        <time>2020-09-24T15:55:38Z</time>
      </trkpt>
      <trkpt lat="49.24144" lon="6.85566">
        <ele>179.8</ele>
        <time>2020-09-24T15:55:40Z</time>
      </trkpt>
      <trkpt lat="49.24141" lon="6.85499">
        <ele>179.8</ele>
        <time>2020-09-24T15:55:46Z</time>
      </trkpt>
      <trkpt lat="49.24146" lon="6.85412">
        <ele>179.6</ele>
        <time>2020-09-24T15:55:54Z</time>
      </trkpt>
      <trkpt lat="49.24147" lon="6.85401">
        <ele>179.6</ele>
        <time>2020-09-24T15:55:55Z</time>
      </trkpt>
      <trkpt lat="49.24151" lon="6.85334">
        <ele>179.6</ele>
        <time>2020-09-24T15:56:01Z</time>
      </trkpt>
      <trkpt lat="49.24156" lon="6.85247">
        <ele>179.8</ele>
        <time>2020-09-24T15:56:09Z</time>
      </trkpt>
      <trkpt lat="49.24159" lon="6.85203">
        <ele>180</ele>
        <time>2020-09-24T15:56:13Z</time>
      </trkpt>
      <trkpt lat="49.24164" lon="6.85118">
        <ele>180.4</ele>
        <time>2020-09-24T15:56:21Z</time>
      </trkpt>
      <trkpt lat="49.24167" lon="6.85075">
        <ele>180.6</ele>
        <time>2020-09-24T15:56:25Z</time>
      </trkpt>
      <trkpt lat="49.24173" lon="6.84988">
        <ele>181.4</ele>
        <time>2020-09-24T15:56:33Z</time>
      </trkpt>
      <trkpt lat="49.24175" lon="6.84966">
        <ele>181.4</ele>
        <time>2020-09-24T15:56:35Z</time>
      </trkpt>
      <trkpt lat="49.24185" lon="6.84878">
        <ele>181.8</ele>
        <time>2020-09-24T15:56:43Z</time>
      </trkpt>
      <trkpt lat="49.24195" lon="6.8479">
        <ele>182</ele>
        <time>2020-09-24T15:56:51Z</time>
      </trkpt>
      <trkpt lat="49.24198" lon="6.84768">
        <ele>182</ele>
        <time>2020-09-24T15:56:53Z</time>
      </trkpt>
      <trkpt lat="49.24207" lon="6.84682">
        <ele>182</ele>
        <time>2020-09-24T15:57:01Z</time>
      </trkpt>
      <trkpt lat="49.24218" lon="6.84618">
        <ele>182.2</ele>
        <time>2020-09-24T15:57:07Z</time>
      </trkpt>
      <trkpt lat="49.24229" lon="6.84554">
        <ele>182.4</ele>
        <time>2020-09-24T15:57:13Z</time>
      </trkpt>
      <trkpt lat="49.24243" lon="6.84481">
        <ele>183.2</ele>
        <time>2020-09-24T15:57:20Z</time>
      </trkpt>
      <trkpt lat="49.2426" lon="6.84422">
        <ele>183.6</ele>
        <time>2020-09-24T15:57:27Z</time>
      </trkpt>
      <trkpt lat="49.24274" lon="6.84384">
        <ele>183.6</ele>
        <time>2020-09-24T15:57:32Z</time>
      </trkpt>
      <trkpt lat="49.24291" lon="6.84337">
        <ele>183.4</ele>
        <time>2020-09-24T15:57:38Z</time>
      </trkpt>
      <trkpt lat="49.24302" lon="6.84308">
        <ele>183.4</ele>
        <time>2020-09-24T15:57:42Z</time>
      </trkpt>
      <trkpt lat="49.24305" lon="6.84301">
        <ele>183.4</ele>
        <time>2020-09-24T15:57:43Z</time>
      </trkpt>
      <trkpt lat="49.24309" lon="6.84294">
        <ele>183.4</ele>
        <time>2020-09-24T15:57:44Z</time>
      </trkpt>
      <trkpt lat="49.2432" lon="6.84271">
        <ele>183.4</ele>
        <time>2020-09-24T15:57:47Z</time>
      </trkpt>
      <trkpt lat="49.2433" lon="6.84248">
        <ele>183</ele>
        <time>2020-09-24T15:57:50Z</time>
      </trkpt>
      <trkpt lat="49.24341" lon="6.84228">
        <ele>182.8</ele>
        <time>2020-09-24T15:57:53Z</time>
      </trkpt>
      <trkpt lat="49.24345" lon="6.84221">
        <ele>182.8</ele>
        <time>2020-09-24T15:57:54Z</time>
      </trkpt>
      <trkpt lat="49.24352" lon="6.84209">
        <ele>182.6</ele>
        <time>2020-09-24T15:57:56Z</time>
      </trkpt>
      <trkpt lat="49.2436" lon="6.84195">
        <ele>182.4</ele>
        <time>2020-09-24T15:57:58Z</time>
      </trkpt>
      <trkpt lat="49.24375" lon="6.84169">
        <ele>182.2</ele>
        <time>2020-09-24T15:58:02Z</time>
      </trkpt>
      <trkpt lat="49.24389" lon="6.84152">
        <ele>182.2</ele>
        <time>2020-09-24T15:58:05Z</time>
      </trkpt>
      <trkpt lat="49.24407" lon="6.84129">
        <ele>182</ele>
        <time>2020-09-24T15:58:09Z</time>
      </trkpt>
      <trkpt lat="49.24417" lon="6.84117">
        <ele>181.8</ele>
        <time>2020-09-24T15:58:11Z</time>
      </trkpt>
      <trkpt lat="49.2445" lon="6.84077">
        <ele>181.4</ele>
        <time>2020-09-24T15:58:18Z</time>
      </trkpt>
      <trkpt lat="49.24479" lon="6.8404">
        <ele>181</ele>
        <time>2020-09-24T15:58:25Z</time>
      </trkpt>
      <trkpt lat="49.2451" lon="6.84002">
        <ele>180.8</ele>
        <time>2020-09-24T15:58:32Z</time>
      </trkpt>
      <trkpt lat="49.24534" lon="6.83964">
        <ele>180.8</ele>
        <time>2020-09-24T15:58:39Z</time>
      </trkpt>
      <trkpt lat="49.2455" lon="6.83938">
        <ele>180.6</ele>
        <time>2020-09-24T15:58:44Z</time>
      </trkpt>
      <trkpt lat="49.24553" lon="6.83933">
        <ele>180.6</ele>
        <time>2020-09-24T15:58:45Z</time>
      </trkpt>
      <trkpt lat="49.24556" lon="6.83927">
        <ele>180.6</ele>
        <time>2020-09-24T15:58:46Z</time>
      </trkpt>
      <trkpt lat="49.24564" lon="6.83919">
        <ele>180.4</ele>
        <time>2020-09-24T15:58:48Z</time>
      </trkpt>
      <trkpt lat="49.24568" lon="6.83918">
        <ele>180.4</ele>
        <time>2020-09-24T15:58:49Z</time>
      </trkpt>
      <trkpt lat="49.24571" lon="6.83923">
        <ele>180.4</ele>
        <time>2020-09-24T15:58:50Z</time>
      </trkpt>
      <trkpt lat="49.24574" lon="6.83929">
        <ele>180.2</ele>
        <time>2020-09-24T15:58:51Z</time>
      </trkpt>
      <trkpt lat="49.24577" lon="6.83935">
        <ele>180.4</ele>
        <time>2020-09-24T15:58:52Z</time>
      </trkpt>
      <trkpt lat="49.24584" lon="6.83948">
        <ele>180.4</ele>
        <time>2020-09-24T15:58:54Z</time>
      </trkpt>
      <trkpt lat="49.24591" lon="6.8395">
        <ele>180.2</ele>
        <time>2020-09-24T15:58:55Z</time>
      </trkpt>
      <trkpt lat="49.24597" lon="6.8395">
        <ele>180.2</ele>
        <time>2020-09-24T15:58:56Z</time>
      </trkpt>
      <trkpt lat="49.24607" lon="6.83947">
        <ele>180</ele>
        <time>2020-09-24T15:58:58Z</time>
      </trkpt>
      <trkpt lat="49.24612" lon="6.83945">
        <ele>180</ele>
        <time>2020-09-24T15:58:59Z</time>
      </trkpt>
      <trkpt lat="49.24622" lon="6.83933">
        <ele>179.8</ele>
        <time>2020-09-24T15:59:01Z</time>
      </trkpt>
      <trkpt lat="49.24626" lon="6.83928">
        <ele>179.8</ele>
        <time>2020-09-24T15:59:02Z</time>
      </trkpt>
      <trkpt lat="49.24645" lon="6.83911">
        <ele>179.6</ele>
        <time>2020-09-24T15:59:06Z</time>
      </trkpt>
      <trkpt lat="49.24649" lon="6.83907">
        <ele>179.6</ele>
        <time>2020-09-24T15:59:07Z</time>
      </trkpt>
      <trkpt lat="49.24682" lon="6.83898">
        <ele>179.6</ele>
        <time>2020-09-24T15:59:14Z</time>
      </trkpt>
      <trkpt lat="49.24722" lon="6.83891">
        <ele>179.4</ele>
        <time>2020-09-24T15:59:22Z</time>
      </trkpt>
      <trkpt lat="49.24732" lon="6.83889">
        <ele>179.4</ele>
        <time>2020-09-24T15:59:24Z</time>
      </trkpt>
      <trkpt lat="49.24748" lon="6.83889">
        <ele>179.2</ele>
        <time>2020-09-24T15:59:27Z</time>
      </trkpt>
      <trkpt lat="49.24759" lon="6.8389">
        <ele>179.2</ele>
        <time>2020-09-24T15:59:29Z</time>
      </trkpt>
      <trkpt lat="49.24775" lon="6.83892">
        <ele>179.2</ele>
        <time>2020-09-24T15:59:32Z</time>
      </trkpt>
      <trkpt lat="49.24805" lon="6.8389">
        <ele>179</ele>
        <time>2020-09-24T15:59:38Z</time>
      </trkpt>
      <trkpt lat="49.24824" lon="6.83887">
        <ele>179</ele>
        <time>2020-09-24T15:59:42Z</time>
      </trkpt>
      <trkpt lat="49.24844" lon="6.83885">
        <ele>179</ele>
        <time>2020-09-24T15:59:46Z</time>
      </trkpt>
      <trkpt lat="49.24853" lon="6.83884">
        <ele>179</ele>
        <time>2020-09-24T15:59:48Z</time>
      </trkpt>
      <trkpt lat="49.24872" lon="6.83882">
        <ele>178.8</ele>
        <time>2020-09-24T15:59:52Z</time>
      </trkpt>
      <trkpt lat="49.24895" lon="6.8388">
        <ele>179</ele>
        <time>2020-09-24T15:59:57Z</time>
      </trkpt>
      <trkpt lat="49.24905" lon="6.8388">
        <ele>179</ele>
        <time>2020-09-24T15:59:59Z</time>
      </trkpt>
      <trkpt lat="49.2491" lon="6.8388">
        <ele>179</ele>
        <time>2020-09-24T16:00:00Z</time>
      </trkpt>
      <trkpt lat="49.24937" lon="6.8388">
        <ele>179</ele>
        <time>2020-09-24T16:00:05Z</time>
      </trkpt>
      <trkpt lat="49.24953" lon="6.83883">
        <ele>179</ele>
        <time>2020-09-24T16:00:08Z</time>
      </trkpt>
      <trkpt lat="49.24969" lon="6.83889">
        <ele>179.2</ele>
        <time>2020-09-24T16:00:11Z</time>
      </trkpt>
      <trkpt lat="49.25003" lon="6.83901">
        <ele>179.2</ele>
        <time>2020-09-24T16:00:17Z</time>
      </trkpt>
      <trkpt lat="49.25046" lon="6.83916">
        <ele>179.2</ele>
        <time>2020-09-24T16:00:24Z</time>
      </trkpt>
      <trkpt lat="49.25084" lon="6.83925">
        <ele>179.2</ele>
        <time>2020-09-24T16:00:30Z</time>
      </trkpt>
      <trkpt lat="49.25088" lon="6.83922">
        <ele>179.2</ele>
        <time>2020-09-24T16:00:31Z</time>
      </trkpt>
      <trkpt lat="49.25092" lon="6.83918">
        <ele>179.2</ele>
        <time>2020-09-24T16:00:32Z</time>
      </trkpt>
      <trkpt lat="49.25099" lon="6.8391">
        <ele>179.2</ele>
        <time>2020-09-24T16:00:34Z</time>
      </trkpt>
      <trkpt lat="49.25102" lon="6.83906">
        <ele>179.4</ele>
        <time>2020-09-24T16:00:35Z</time>
      </trkpt>
      <trkpt lat="49.25116" lon="6.839">
        <ele>179.4</ele>
        <time>2020-09-24T16:00:39Z</time>
      </trkpt>
      <trkpt lat="49.25133" lon="6.83901">
        <ele>179.4</ele>
        <time>2020-09-24T16:00:43Z</time>
      </trkpt>
      <trkpt lat="49.25154" lon="6.83902">
        <ele>179.4</ele>
        <time>2020-09-24T16:00:48Z</time>
      </trkpt>
      <trkpt lat="49.25177" lon="6.83906">
        <ele>179.6</ele>
        <time>2020-09-24T16:00:53Z</time>
      </trkpt>
      <trkpt lat="49.25181" lon="6.83908">
        <ele>179.6</ele>
        <time>2020-09-24T16:00:54Z</time>
      </trkpt>
      <trkpt lat="49.25211" lon="6.83918">
        <ele>179.6</ele>
        <time>2020-09-24T16:01:00Z</time>
      </trkpt>
      <trkpt lat="49.25248" lon="6.83926">
        <ele>180</ele>
        <time>2020-09-24T16:01:07Z</time>
      </trkpt>
      <trkpt lat="49.25285" lon="6.83931">
        <ele>180.4</ele>
        <time>2020-09-24T16:01:14Z</time>
      </trkpt>
      <trkpt lat="49.25316" lon="6.83935">
        <ele>180.8</ele>
        <time>2020-09-24T16:01:20Z</time>
      </trkpt>
      <trkpt lat="49.25327" lon="6.83937">
        <ele>181</ele>
        <time>2020-09-24T16:01:22Z</time>
      </trkpt>
      <trkpt lat="49.25332" lon="6.83946">
        <ele>181.2</ele>
        <time>2020-09-24T16:01:24Z</time>
      </trkpt>
      <trkpt lat="49.25332" lon="6.83959">
        <ele>181.2</ele>
        <time>2020-09-24T16:01:27Z</time>
      </trkpt>
      <trkpt lat="49.2533" lon="6.83961">
        <ele>181.2</ele>
        <time>2020-09-24T16:01:28Z</time>
      </trkpt>
      <trkpt lat="49.2533" lon="6.83965">
        <ele>181.4</ele>
        <time>2020-09-24T16:01:30Z</time>
      </trkpt>
      <trkpt lat="49.2533" lon="6.83969">
        <ele>181.6</ele>
        <time>2020-09-24T16:01:31Z</time>
      </trkpt>
      <trkpt lat="49.25334" lon="6.8398">
        <ele>181.6</ele>
        <time>2020-09-24T16:01:34Z</time>
      </trkpt>
      <trkpt lat="49.25336" lon="6.83984">
        <ele>181.8</ele>
        <time>2020-09-24T16:01:35Z</time>
      </trkpt>
      <trkpt lat="49.25345" lon="6.83986">
        <ele>181.8</ele>
        <time>2020-09-24T16:01:37Z</time>
      </trkpt>
      <trkpt lat="49.2535" lon="6.83987">
        <ele>182</ele>
        <time>2020-09-24T16:01:38Z</time>
      </trkpt>
      <trkpt lat="49.25355" lon="6.83988">
        <ele>182</ele>
        <time>2020-09-24T16:01:39Z</time>
      </trkpt>
      <trkpt lat="49.2536" lon="6.83989">
        <ele>182</ele>
        <time>2020-09-24T16:01:40Z</time>
      </trkpt>
      <trkpt lat="49.25375" lon="6.8399">
        <ele>182.2</ele>
        <time>2020-09-24T16:01:43Z</time>
      </trkpt>
      <trkpt lat="49.25379" lon="6.83988">
        <ele>182.2</ele>
        <time>2020-09-24T16:01:45Z</time>
      </trkpt>
      <trkpt lat="49.25379" lon="6.83988">
        <ele>182.6</ele>
        <time>2020-09-24T16:01:52Z</time>
      </trkpt>
      <trkpt lat="49.25379" lon="6.83988">
        <ele>183</ele>
        <time>2020-09-24T16:02:02Z</time>
      </trkpt>
      <trkpt lat="49.2538" lon="6.83988">
        <ele>183</ele>
        <time>2020-09-24T16:02:03Z</time>
      </trkpt>
      <trkpt lat="49.2537" lon="6.83991">
        <ele>183</ele>
        <time>2020-09-24T16:02:06Z</time>
      </trkpt>
      <trkpt lat="49.25372" lon="6.83991">
        <ele>183</ele>
        <time>2020-09-24T16:02:11Z</time>
      </trkpt>
      <trkpt lat="49.25366" lon="6.8399">
        <ele>183.2</ele>
        <time>2020-09-24T16:02:18Z</time>
      </trkpt>
      <trkpt lat="49.25365" lon="6.8399">
        <ele>183.4</ele>
        <time>2020-09-24T16:02:19Z</time>
      </trkpt>
      <trkpt lat="49.25361" lon="6.83989">
        <ele>183.4</ele>
        <time>2020-09-24T16:02:23Z</time>
      </trkpt>
      <trkpt lat="49.25361" lon="6.83989">
        <ele>183.4</ele>
        <time>2020-09-24T16:02:28Z</time>
      </trkpt>
      <trkpt lat="49.25361" lon="6.83989">
        <ele>183.6</ele>
        <time>2020-09-24T16:02:36Z</time>
      </trkpt>
      <trkpt lat="49.25361" lon="6.83989">
        <ele>184</ele>
        <time>2020-09-24T16:02:56Z</time>
      </trkpt>
      <trkpt lat="49.25361" lon="6.83989">
        <ele>184</ele>
        <time>2020-09-24T16:03:17Z</time>
      </trkpt>
      <trkpt lat="49.25361" lon="6.83989">
        <ele>184.2</ele>
        <time>2020-09-24T16:03:39Z</time>
      </trkpt>
      <trkpt lat="49.25361" lon="6.83989">
        <ele>184</ele>
        <time>2020-09-24T16:04:02Z</time>
      </trkpt>
      <trkpt lat="49.25361" lon="6.83989">
        <ele>183.6</ele>
        <time>2020-09-24T16:04:26Z</time>
      </trkpt>
      <trkpt lat="49.25361" lon="6.83989">
        <ele>183.4</ele>
        <time>2020-09-24T16:04:49Z</time>
      </trkpt>
      <trkpt lat="49.25361" lon="6.83989">
        <ele>182.8</ele>
        <time>2020-09-24T16:05:11Z</time>
      </trkpt>
      <trkpt lat="49.25361" lon="6.83989">
        <ele>182.4</ele>
        <time>2020-09-24T16:05:35Z</time>
      </trkpt>
      <trkpt lat="49.25361" lon="6.83989">
        <ele>181.8</ele>
        <time>2020-09-24T16:06:01Z</time>
      </trkpt>
      <trkpt lat="49.25361" lon="6.83989">
        <ele>181.6</ele>
        <time>2020-09-24T16:06:21Z</time>
      </trkpt>
      <trkpt lat="49.25361" lon="6.83989">
        <ele>181.2</ele>
        <time>2020-09-24T16:06:37Z</time>
      </trkpt>
      <trkpt lat="49.25361" lon="6.83989">
        <ele>181</ele>
        <time>2020-09-24T16:06:57Z</time>
      </trkpt>
      <trkpt lat="49.25361" lon="6.83989">
        <ele>180.4</ele>
        <time>2020-09-24T16:07:18Z</time>
      </trkpt>
      <trkpt lat="49.25361" lon="6.83989">
        <ele>180.2</ele>
        <time>2020-09-24T16:07:36Z</time>
      </trkpt>
      <trkpt lat="49.25361" lon="6.83989">
        <ele>180</ele>
        <time>2020-09-24T16:07:55Z</time>
      </trkpt>
      <trkpt lat="49.25361" lon="6.83989">
        <ele>179.8</ele>
        <time>2020-09-24T16:08:15Z</time>
      </trkpt>
      <trkpt lat="49.25361" lon="6.83989">
        <ele>179.6</ele>
        <time>2020-09-24T16:08:24Z</time>
      </trkpt>
      <trkpt lat="49.25361" lon="6.83989">
        <ele>179.6</ele>
        <time>2020-09-24T16:08:35Z</time>
      </trkpt>
      <trkpt lat="49.25361" lon="6.83989">
        <ele>179.6</ele>
        <time>2020-09-24T16:08:46Z</time>
      </trkpt>
      <trkpt lat="49.25361" lon="6.83989">
        <ele>179.4</ele>
        <time>2020-09-24T16:09:04Z</time>
      </trkpt>
      <trkpt lat="49.25361" lon="6.83989">
        <ele>179.4</ele>
        <time>2020-09-24T16:09:14Z</time>
      </trkpt>
      <trkpt lat="49.25361" lon="6.83989">
        <ele>179.4</ele>
        <time>2020-09-24T16:09:32Z</time>
      </trkpt>
      <trkpt lat="49.25361" lon="6.83989">
        <ele>179.2</ele>
        <time>2020-09-24T16:09:50Z</time>
      </trkpt>
      <trkpt lat="49.25361" lon="6.83989">
        <ele>179</ele>
        <time>2020-09-24T16:10:05Z</time>
      </trkpt>
      <trkpt lat="49.25361" lon="6.83989">
        <ele>179</ele>
        <time>2020-09-24T16:10:22Z</time>
      </trkpt>
      <trkpt lat="49.25361" lon="6.83989">
        <ele>178.8</ele>
        <time>2020-09-24T16:10:38Z</time>
      </trkpt>
      <trkpt lat="49.25361" lon="6.83989">
        <ele>178.8</ele>
        <time>2020-09-24T16:10:56Z</time>
      </trkpt>
      <trkpt lat="49.25361" lon="6.83989">
        <ele>178.6</ele>
        <time>2020-09-24T16:11:08Z</time>
      </trkpt>
      <trkpt lat="49.25361" lon="6.83989">
        <ele>178.6</ele>
        <time>2020-09-24T16:11:22Z</time>
      </trkpt>
      <trkpt lat="49.25361" lon="6.83989">
        <ele>178.4</ele>
        <time>2020-09-24T16:11:43Z</time>
      </trkpt>
      <trkpt lat="49.25361" lon="6.83989">
        <ele>178.4</ele>
        <time>2020-09-24T16:12:03Z</time>
      </trkpt>
      <trkpt lat="49.25361" lon="6.83989">
        <ele>178.4</ele>
        <time>2020-09-24T16:12:24Z</time>
      </trkpt>
      <trkpt lat="49.25361" lon="6.83989">
        <ele>178.2</ele>
        <time>2020-09-24T16:12:47Z</time>
      </trkpt>
      <trkpt lat="49.25361" lon="6.83989">
        <ele>178.4</ele>
        <time>2020-09-24T16:13:08Z</time>
      </trkpt>
      <trkpt lat="49.25361" lon="6.83989">
        <ele>178.4</ele>
        <time>2020-09-24T16:13:38Z</time>
      </trkpt>
      <trkpt lat="49.25361" lon="6.83989">
        <ele>178.4</ele>
        <time>2020-09-24T16:14:02Z</time>
      </trkpt>
      <trkpt lat="49.25361" lon="6.83989">
        <ele>178.4</ele>
        <time>2020-09-24T16:14:28Z</time>
      </trkpt>
      <trkpt lat="49.25361" lon="6.83989">
        <ele>178.4</ele>
        <time>2020-09-24T16:14:52Z</time>
      </trkpt>
      <trkpt lat="49.25361" lon="6.83989">
        <ele>178.4</ele>
        <time>2020-09-24T16:15:19Z</time>
      </trkpt>
      <trkpt lat="49.25361" lon="6.83989">
        <ele>178.4</ele>
        <time>2020-09-24T16:15:42Z</time>
      </trkpt>
      <trkpt lat="49.25361" lon="6.83989">
        <ele>178.4</ele>
        <time>2020-09-24T16:16:11Z</time>
      </trkpt>
      <trkpt lat="49.25361" lon="6.83989">
        <ele>178.4</ele>
        <time>2020-09-24T16:16:34Z</time>
      </trkpt>
      <trkpt lat="49.25361" lon="6.83989">
        <ele>178.6</ele>
        <time>2020-09-24T16:17:05Z</time>
      </trkpt>
      <trkpt lat="49.25361" lon="6.83989">
        <ele>178.6</ele>
        <time>2020-09-24T16:17:32Z</time>
      </trkpt>
      <trkpt lat="49.25361" lon="6.83989">
        <ele>178.6</ele>
        <time>2020-09-24T16:17:55Z</time>
      </trkpt>
      <trkpt lat="49.25361" lon="6.83989">
        <ele>178.6</ele>
        <time>2020-09-24T16:18:20Z</time>
      </trkpt>
      <trkpt lat="49.25361" lon="6.83989">
        <ele>178.4</ele>
        <time>2020-09-24T16:18:40Z</time>
      </trkpt>
      <trkpt lat="49.25361" lon="6.83989">
        <ele>178.4</ele>
        <time>2020-09-24T16:19:06Z</time>
      </trkpt>
      <trkpt lat="49.25361" lon="6.83989">
        <ele>178.2</ele>
        <time>2020-09-24T16:19:29Z</time>
      </trkpt>
      <trkpt lat="49.25361" lon="6.83989">
        <ele>178.2</ele>
        <time>2020-09-24T16:19:51Z</time>
      </trkpt>
      <trkpt lat="49.25361" lon="6.83989">
        <ele>178.2</ele>
        <time>2020-09-24T16:20:16Z</time>
      </trkpt>
      <trkpt lat="49.25361" lon="6.83989">
        <ele>178.2</ele>
        <time>2020-09-24T16:20:44Z</time>
      </trkpt>
      <trkpt lat="49.25361" lon="6.83989">
        <ele>178.4</ele>
        <time>2020-09-24T16:21:10Z</time>
      </trkpt>
      <trkpt lat="49.25361" lon="6.83989">
        <ele>178.4</ele>
        <time>2020-09-24T16:21:34Z</time>
      </trkpt>
      <trkpt lat="49.25361" lon="6.83989">
        <ele>178.4</ele>
        <time>2020-09-24T16:21:51Z</time>
      </trkpt>
      <trkpt lat="49.25361" lon="6.83989">
        <ele>178.6</ele>
        <time>2020-09-24T16:22:09Z</time>
      </trkpt>
      <trkpt lat="49.25361" lon="6.83989">
        <ele>178.6</ele>
        <time>2020-09-24T16:22:27Z</time>
      </trkpt>
      <trkpt lat="49.25361" lon="6.83989">
        <ele>178.6</ele>
        <time>2020-09-24T16:22:47Z</time>
      </trkpt>
      <trkpt lat="49.25361" lon="6.83989">
        <ele>178.6</ele>
        <time>2020-09-24T16:23:11Z</time>
      </trkpt>
      <trkpt lat="49.25361" lon="6.83989">
        <ele>178.4</ele>
        <time>2020-09-24T16:23:32Z</time>
      </trkpt>
      <trkpt lat="49.25361" lon="6.83989">
        <ele>178.6</ele>
        <time>2020-09-24T16:23:54Z</time>
      </trkpt>
      <trkpt lat="49.25361" lon="6.83989">
        <ele>178.6</ele>
        <time>2020-09-24T16:24:17Z</time>
      </trkpt>
      <trkpt lat="49.25361" lon="6.83989">
        <ele>178.6</ele>
        <time>2020-09-24T16:24:39Z</time>
      </trkpt>
      <trkpt lat="49.25361" lon="6.83989">
        <ele>178.6</ele>
        <time>2020-09-24T16:25:08Z</time>
      </trkpt>
      <trkpt lat="49.25361" lon="6.83989">
        <ele>178.6</ele>
        <time>2020-09-24T16:25:33Z</time>
      </trkpt>
      <trkpt lat="49.25361" lon="6.83989">
        <ele>178.6</ele>
        <time>2020-09-24T16:26:00Z</time>
      </trkpt>
      <trkpt lat="49.25361" lon="6.83989">
        <ele>178.6</ele>
        <time>2020-09-24T16:26:22Z</time>
      </trkpt>
      <trkpt lat="49.25361" lon="6.83989">
        <ele>178.6</ele>
        <time>2020-09-24T16:26:52Z</time>
      </trkpt>
      <trkpt lat="49.25361" lon="6.83989">
        <ele>178.6</ele>
        <time>2020-09-24T16:27:14Z</time>
      </trkpt>
      <trkpt lat="49.25361" lon="6.83989">
        <ele>178.6</ele>
        <time>2020-09-24T16:27:39Z</time>
      </trkpt>
      <trkpt lat="49.25361" lon="6.83989">
        <ele>178.8</ele>
        <time>2020-09-24T16:28:01Z</time>
      </trkpt>
      <trkpt lat="49.25361" lon="6.83989">
        <ele>178.8</ele>
        <time>2020-09-24T16:28:27Z</time>
      </trkpt>
      <trkpt lat="49.25361" lon="6.83989">
        <ele>178.8</ele>
        <time>2020-09-24T16:28:54Z</time>
      </trkpt>
      <trkpt lat="49.25361" lon="6.83989">
        <ele>179</ele>
        <time>2020-09-24T16:29:19Z</time>
      </trkpt>
      <trkpt lat="49.25361" lon="6.83989">
        <ele>179</ele>
        <time>2020-09-24T16:29:45Z</time>
      </trkpt>
      <trkpt lat="49.25361" lon="6.83989">
        <ele>179</ele>
        <time>2020-09-24T16:30:10Z</time>
      </trkpt>
      <trkpt lat="49.25361" lon="6.83989">
        <ele>179</ele>
        <time>2020-09-24T16:30:35Z</time>
      </trkpt>
      <trkpt lat="49.25361" lon="6.83989">
        <ele>178.8</ele>
        <time>2020-09-24T16:30:59Z</time>
      </trkpt>
      <trkpt lat="49.25361" lon="6.83989">
        <ele>179</ele>
        <time>2020-09-24T16:31:24Z</time>
      </trkpt>
      <trkpt lat="49.25361" lon="6.83989">
        <ele>179</ele>
        <time>2020-09-24T16:31:51Z</time>
      </trkpt>
      <trkpt lat="49.25361" lon="6.83989">
        <ele>179.2</ele>
        <time>2020-09-24T16:32:16Z</time>
      </trkpt>
      <trkpt lat="49.25361" lon="6.83989">
        <ele>179.2</ele>
        <time>2020-09-24T16:32:35Z</time>
      </trkpt>
      <trkpt lat="49.25361" lon="6.83989">
        <ele>179.2</ele>
        <time>2020-09-24T16:32:52Z</time>
      </trkpt>
      <trkpt lat="49.25361" lon="6.83989">
        <ele>179.4</ele>
        <time>2020-09-24T16:33:19Z</time>
      </trkpt>
      <trkpt lat="49.25361" lon="6.83989">
        <ele>179.4</ele>
        <time>2020-09-24T16:33:43Z</time>
      </trkpt>
      <trkpt lat="49.25361" lon="6.83989">
        <ele>179.6</ele>
        <time>2020-09-24T16:34:14Z</time>
      </trkpt>
      <trkpt lat="49.25361" lon="6.83989">
        <ele>179.4</ele>
        <time>2020-09-24T16:34:35Z</time>
      </trkpt>
      <trkpt lat="49.25361" lon="6.83989">
        <ele>179.4</ele>
        <time>2020-09-24T16:35:00Z</time>
      </trkpt>
      <trkpt lat="49.25361" lon="6.83989">
        <ele>179.2</ele>
        <time>2020-09-24T16:35:24Z</time>
      </trkpt>
      <trkpt lat="49.25361" lon="6.83989">
        <ele>179.2</ele>
        <time>2020-09-24T16:35:47Z</time>
      </trkpt>
      <trkpt lat="49.25361" lon="6.83989">
        <ele>179.2</ele>
        <time>2020-09-24T16:36:08Z</time>
      </trkpt>
      <trkpt lat="49.25361" lon="6.83989">
        <ele>179.4</ele>
        <time>2020-09-24T16:36:28Z</time>
      </trkpt>
      <trkpt lat="49.25361" lon="6.83989">
        <ele>179.4</ele>
        <time>2020-09-24T16:36:50Z</time>
      </trkpt>
      <trkpt lat="49.25361" lon="6.83989">
        <ele>179.6</ele>
        <time>2020-09-24T16:37:13Z</time>
      </trkpt>
      <trkpt lat="49.25361" lon="6.83989">
        <ele>179.8</ele>
        <time>2020-09-24T16:37:40Z</time>
      </trkpt>
      <trkpt lat="49.25361" lon="6.83989">
        <ele>180</ele>
        <time>2020-09-24T16:38:03Z</time>
      </trkpt>
      <trkpt lat="49.25358" lon="6.83989">
        <ele>180.6</ele>
        <time>2020-09-24T16:38:09Z</time>
      </trkpt>
      <trkpt lat="49.25374" lon="6.8399">
        <ele>181</ele>
        <time>2020-09-24T16:38:14Z</time>
      </trkpt>
      <trkpt lat="49.25387" lon="6.83985">
        <ele>181.2</ele>
        <time>2020-09-24T16:38:18Z</time>
      </trkpt>
      <trkpt lat="49.25395" lon="6.83981">
        <ele>181.2</ele>
        <time>2020-09-24T16:38:20Z</time>
      </trkpt>
      <trkpt lat="49.25404" lon="6.83964">
        <ele>181.2</ele>
        <time>2020-09-24T16:38:24Z</time>
      </trkpt>
      <trkpt lat="49.25417" lon="6.83944">
        <ele>181.4</ele>
        <time>2020-09-24T16:38:29Z</time>
      </trkpt>
      <trkpt lat="49.25439" lon="6.83921">
        <ele>181.6</ele>
        <time>2020-09-24T16:38:35Z</time>
      </trkpt>
      <trkpt lat="49.25447" lon="6.83913">
        <ele>181.6</ele>
        <time>2020-09-24T16:38:37Z</time>
      </trkpt>
      <trkpt lat="49.25463" lon="6.83896">
        <ele>182</ele>
        <time>2020-09-24T16:38:41Z</time>
      </trkpt>
      <trkpt lat="49.25489" lon="6.8387">
        <ele>182.2</ele>
        <time>2020-09-24T16:38:47Z</time>
      </trkpt>
      <trkpt lat="49.25493" lon="6.83865">
        <ele>182.2</ele>
        <time>2020-09-24T16:38:48Z</time>
      </trkpt>
      <trkpt lat="49.2552" lon="6.83837">
        <ele>182.4</ele>
        <time>2020-09-24T16:38:54Z</time>
      </trkpt>
      <trkpt lat="49.25552" lon="6.83804">
        <ele>182.4</ele>
        <time>2020-09-24T16:39:01Z</time>
      </trkpt>
      <trkpt lat="49.2558" lon="6.83775">
        <ele>182.6</ele>
        <time>2020-09-24T16:39:07Z</time>
      </trkpt>
      <trkpt lat="49.25589" lon="6.83765">
        <ele>182.6</ele>
        <time>2020-09-24T16:39:09Z</time>
      </trkpt>
      <trkpt lat="49.25623" lon="6.8373">
        <ele>182.6</ele>
        <time>2020-09-24T16:39:16Z</time>
      </trkpt>
      <trkpt lat="49.25638" lon="6.83715">
        <ele>182.6</ele>
        <time>2020-09-24T16:39:19Z</time>
      </trkpt>
      <trkpt lat="49.25658" lon="6.83694">
        <ele>182.8</ele>
        <time>2020-09-24T16:39:23Z</time>
      </trkpt>
      <trkpt lat="49.25699" lon="6.83651">
        <ele>182.8</ele>
        <time>2020-09-24T16:39:31Z</time>
      </trkpt>
      <trkpt lat="49.2574" lon="6.8361">
        <ele>182.8</ele>
        <time>2020-09-24T16:39:39Z</time>
      </trkpt>
      <trkpt lat="49.25746" lon="6.83607">
        <ele>182.8</ele>
        <time>2020-09-24T16:39:40Z</time>
      </trkpt>
      <trkpt lat="49.25763" lon="6.83596">
        <ele>182.8</ele>
        <time>2020-09-24T16:39:43Z</time>
      </trkpt>
      <trkpt lat="49.25773" lon="6.83585">
        <ele>182.8</ele>
        <time>2020-09-24T16:39:45Z</time>
      </trkpt>
      <trkpt lat="49.25787" lon="6.83563">
        <ele>183</ele>
        <time>2020-09-24T16:39:48Z</time>
      </trkpt>
      <trkpt lat="49.25796" lon="6.8355">
        <ele>182.6</ele>
        <time>2020-09-24T16:39:50Z</time>
      </trkpt>
      <trkpt lat="49.25827" lon="6.83515">
        <ele>182.6</ele>
        <time>2020-09-24T16:39:56Z</time>
      </trkpt>
      <trkpt lat="49.25832" lon="6.8351">
        <ele>182.6</ele>
        <time>2020-09-24T16:39:57Z</time>
      </trkpt>
      <trkpt lat="49.25848" lon="6.83493">
        <ele>182.4</ele>
        <time>2020-09-24T16:40:00Z</time>
      </trkpt>
      <trkpt lat="49.25868" lon="6.8347">
        <ele>182.4</ele>
        <time>2020-09-24T16:40:04Z</time>
      </trkpt>
      <trkpt lat="49.25872" lon="6.83466">
        <ele>182.2</ele>
        <time>2020-09-24T16:40:05Z</time>
      </trkpt>
      <trkpt lat="49.25874" lon="6.83459">
        <ele>182.4</ele>
        <time>2020-09-24T16:40:06Z</time>
      </trkpt>
      <trkpt lat="49.25874" lon="6.83444">
        <ele>182.4</ele>
        <time>2020-09-24T16:40:08Z</time>
      </trkpt>
      <trkpt lat="49.2587" lon="6.83413">
        <ele>182.4</ele>
        <time>2020-09-24T16:40:12Z</time>
      </trkpt>
      <trkpt lat="49.25869" lon="6.83399">
        <ele>182.4</ele>
        <time>2020-09-24T16:40:14Z</time>
      </trkpt>
      <trkpt lat="49.2587" lon="6.83383">
        <ele>182.4</ele>
        <time>2020-09-24T16:40:16Z</time>
      </trkpt>
      <trkpt lat="49.25876" lon="6.83375">
        <ele>182.2</ele>
        <time>2020-09-24T16:40:17Z</time>
      </trkpt>
      <trkpt lat="49.25886" lon="6.83366">
        <ele>182.2</ele>
        <time>2020-09-24T16:40:19Z</time>
      </trkpt>
      <trkpt lat="49.25901" lon="6.83354">
        <ele>182.4</ele>
        <time>2020-09-24T16:40:22Z</time>
      </trkpt>
      <trkpt lat="49.2591" lon="6.83346">
        <ele>182.4</ele>
        <time>2020-09-24T16:40:24Z</time>
      </trkpt>
      <trkpt lat="49.25914" lon="6.83342">
        <ele>182.2</ele>
        <time>2020-09-24T16:40:25Z</time>
      </trkpt>
      <trkpt lat="49.25938" lon="6.83322">
        <ele>182</ele>
        <time>2020-09-24T16:40:30Z</time>
      </trkpt>
      <trkpt lat="49.25947" lon="6.83314">
        <ele>182</ele>
        <time>2020-09-24T16:40:32Z</time>
      </trkpt>
      <trkpt lat="49.25957" lon="6.83306">
        <ele>181.8</ele>
        <time>2020-09-24T16:40:34Z</time>
      </trkpt>
      <trkpt lat="49.25966" lon="6.83298">
        <ele>181.6</ele>
        <time>2020-09-24T16:40:36Z</time>
      </trkpt>
      <trkpt lat="49.25971" lon="6.83294">
        <ele>181.4</ele>
        <time>2020-09-24T16:40:37Z</time>
      </trkpt>
      <trkpt lat="49.2598" lon="6.83286">
        <ele>181.4</ele>
        <time>2020-09-24T16:40:39Z</time>
      </trkpt>
      <trkpt lat="49.2599" lon="6.83278">
        <ele>181.2</ele>
        <time>2020-09-24T16:40:41Z</time>
      </trkpt>
      <trkpt lat="49.25995" lon="6.83273">
        <ele>181</ele>
        <time>2020-09-24T16:40:42Z</time>
      </trkpt>
      <trkpt lat="49.26017" lon="6.83255">
        <ele>180.6</ele>
        <time>2020-09-24T16:40:46Z</time>
      </trkpt>
      <trkpt lat="49.26038" lon="6.83237">
        <ele>180.2</ele>
        <time>2020-09-24T16:40:50Z</time>
      </trkpt>
      <trkpt lat="49.26067" lon="6.83212">
        <ele>179.8</ele>
        <time>2020-09-24T16:40:55Z</time>
      </trkpt>
      <trkpt lat="49.26073" lon="6.83207">
        <ele>180</ele>
        <time>2020-09-24T16:40:56Z</time>
      </trkpt>
      <trkpt lat="49.26088" lon="6.83194">
        <ele>180</ele>
        <time>2020-09-24T16:40:59Z</time>
      </trkpt>
      <trkpt lat="49.26112" lon="6.83177">
        <ele>179.8</ele>
        <time>2020-09-24T16:41:03Z</time>
      </trkpt>
      <trkpt lat="49.26123" lon="6.83169">
        <ele>179.8</ele>
        <time>2020-09-24T16:41:05Z</time>
      </trkpt>
      <trkpt lat="49.26151" lon="6.83149">
        <ele>179.4</ele>
        <time>2020-09-24T16:41:09Z</time>
      </trkpt>
      <trkpt lat="49.26159" lon="6.83145">
        <ele>179.4</ele>
        <time>2020-09-24T16:41:10Z</time>
      </trkpt>
      <trkpt lat="49.26183" lon="6.83133">
        <ele>179</ele>
        <time>2020-09-24T16:41:13Z</time>
      </trkpt>
      <trkpt lat="49.26212" lon="6.83118">
        <ele>179</ele>
        <time>2020-09-24T16:41:17Z</time>
      </trkpt>
      <trkpt lat="49.26227" lon="6.83106">
        <ele>179</ele>
        <time>2020-09-24T16:41:19Z</time>
      </trkpt>
      <trkpt lat="49.26273" lon="6.83051">
        <ele>179.4</ele>
        <time>2020-09-24T16:41:27Z</time>
      </trkpt>
      <trkpt lat="49.26278" lon="6.83044">
        <ele>179.8</ele>
        <time>2020-09-24T16:41:28Z</time>
      </trkpt>
      <trkpt lat="49.26311" lon="6.83005">
        <ele>180</ele>
        <time>2020-09-24T16:41:34Z</time>
      </trkpt>
      <trkpt lat="49.26341" lon="6.82969">
        <ele>180.6</ele>
        <time>2020-09-24T16:41:40Z</time>
      </trkpt>
      <trkpt lat="49.26384" lon="6.82918">
        <ele>181.4</ele>
        <time>2020-09-24T16:41:49Z</time>
      </trkpt>
      <trkpt lat="49.2643" lon="6.82864">
        <ele>182.4</ele>
        <time>2020-09-24T16:41:58Z</time>
      </trkpt>
      <trkpt lat="49.26459" lon="6.8283">
        <ele>182.8</ele>
        <time>2020-09-24T16:42:03Z</time>
      </trkpt>
      <trkpt lat="49.26463" lon="6.82821">
        <ele>183</ele>
        <time>2020-09-24T16:42:04Z</time>
      </trkpt>
      <trkpt lat="49.2648" lon="6.82784">
        <ele>183.4</ele>
        <time>2020-09-24T16:42:08Z</time>
      </trkpt>
      <trkpt lat="49.26485" lon="6.82778">
        <ele>183.6</ele>
        <time>2020-09-24T16:42:09Z</time>
      </trkpt>
      <trkpt lat="49.26519" lon="6.82738">
        <ele>185.2</ele>
        <time>2020-09-24T16:42:15Z</time>
      </trkpt>
      <trkpt lat="49.26555" lon="6.82696">
        <ele>187.2</ele>
        <time>2020-09-24T16:42:22Z</time>
      </trkpt>
      <trkpt lat="49.266" lon="6.82644">
        <ele>188.6</ele>
        <time>2020-09-24T16:42:31Z</time>
      </trkpt>
      <trkpt lat="49.26616" lon="6.82626">
        <ele>189</ele>
        <time>2020-09-24T16:42:34Z</time>
      </trkpt>
      <trkpt lat="49.26626" lon="6.82614">
        <ele>189.2</ele>
        <time>2020-09-24T16:42:36Z</time>
      </trkpt>
      <trkpt lat="49.26662" lon="6.8257">
        <ele>189.8</ele>
        <time>2020-09-24T16:42:43Z</time>
      </trkpt>
      <trkpt lat="49.26706" lon="6.8251">
        <ele>190.4</ele>
        <time>2020-09-24T16:42:52Z</time>
      </trkpt>
      <trkpt lat="49.26734" lon="6.82471">
        <ele>190.6</ele>
        <time>2020-09-24T16:42:58Z</time>
      </trkpt>
      <trkpt lat="49.26745" lon="6.82455">
        <ele>190.8</ele>
        <time>2020-09-24T16:43:01Z</time>
      </trkpt>
      <trkpt lat="49.26753" lon="6.82444">
        <ele>191</ele>
        <time>2020-09-24T16:43:03Z</time>
      </trkpt>
      <trkpt lat="49.26783" lon="6.82394">
        <ele>191.4</ele>
        <time>2020-09-24T16:43:10Z</time>
      </trkpt>
      <trkpt lat="49.26802" lon="6.8236">
        <ele>191.6</ele>
        <time>2020-09-24T16:43:15Z</time>
      </trkpt>
      <trkpt lat="49.26805" lon="6.82353">
        <ele>191.6</ele>
        <time>2020-09-24T16:43:16Z</time>
      </trkpt>
      <trkpt lat="49.26833" lon="6.82283">
        <ele>191.4</ele>
        <time>2020-09-24T16:43:25Z</time>
      </trkpt>
      <trkpt lat="49.26843" lon="6.82259">
        <ele>191.4</ele>
        <time>2020-09-24T16:43:28Z</time>
      </trkpt>
      <trkpt lat="49.26849" lon="6.82244">
        <ele>192</ele>
        <time>2020-09-24T16:43:30Z</time>
      </trkpt>
      <trkpt lat="49.26864" lon="6.82204">
        <ele>191.2</ele>
        <time>2020-09-24T16:43:35Z</time>
      </trkpt>
      <trkpt lat="49.26871" lon="6.82188">
        <ele>191.2</ele>
        <time>2020-09-24T16:43:37Z</time>
      </trkpt>
      <trkpt lat="49.26877" lon="6.82173">
        <ele>191</ele>
        <time>2020-09-24T16:43:39Z</time>
      </trkpt>
      <trkpt lat="49.26884" lon="6.82138">
        <ele>190.8</ele>
        <time>2020-09-24T16:43:43Z</time>
      </trkpt>
      <trkpt lat="49.26892" lon="6.82116">
        <ele>190.8</ele>
        <time>2020-09-24T16:43:46Z</time>
      </trkpt>
      <trkpt lat="49.269" lon="6.82094">
        <ele>190.6</ele>
        <time>2020-09-24T16:43:49Z</time>
      </trkpt>
      <trkpt lat="49.26909" lon="6.82071">
        <ele>190.4</ele>
        <time>2020-09-24T16:43:52Z</time>
      </trkpt>
      <trkpt lat="49.26915" lon="6.82046">
        <ele>190.2</ele>
        <time>2020-09-24T16:43:55Z</time>
      </trkpt>
      <trkpt lat="49.26931" lon="6.81978">
        <ele>189.6</ele>
        <time>2020-09-24T16:44:03Z</time>
      </trkpt>
      <trkpt lat="49.26941" lon="6.81895">
        <ele>188.8</ele>
        <time>2020-09-24T16:44:12Z</time>
      </trkpt>
      <trkpt lat="49.26942" lon="6.81886">
        <ele>188.8</ele>
        <time>2020-09-24T16:44:13Z</time>
      </trkpt>
      <trkpt lat="49.2695" lon="6.81813">
        <ele>188.2</ele>
        <time>2020-09-24T16:44:21Z</time>
      </trkpt>
      <trkpt lat="49.26957" lon="6.81737">
        <ele>187.8</ele>
        <time>2020-09-24T16:44:29Z</time>
      </trkpt>
      <trkpt lat="49.26956" lon="6.817">
        <ele>187.6</ele>
        <time>2020-09-24T16:44:33Z</time>
      </trkpt>
      <trkpt lat="49.26954" lon="6.81681">
        <ele>187.4</ele>
        <time>2020-09-24T16:44:35Z</time>
      </trkpt>
      <trkpt lat="49.26952" lon="6.81662">
        <ele>187.4</ele>
        <time>2020-09-24T16:44:37Z</time>
      </trkpt>
      <trkpt lat="49.26953" lon="6.81653">
        <ele>187.4</ele>
        <time>2020-09-24T16:44:38Z</time>
      </trkpt>
      <trkpt lat="49.26959" lon="6.81627">
        <ele>187.2</ele>
        <time>2020-09-24T16:44:41Z</time>
      </trkpt>
      <trkpt lat="49.2696" lon="6.81608">
        <ele>187.2</ele>
        <time>2020-09-24T16:44:43Z</time>
      </trkpt>
      <trkpt lat="49.2696" lon="6.81521">
        <ele>187.2</ele>
        <time>2020-09-24T16:44:52Z</time>
      </trkpt>
      <trkpt lat="49.26959" lon="6.81447">
        <ele>187</ele>
        <time>2020-09-24T16:45:00Z</time>
      </trkpt>
      <trkpt lat="49.26959" lon="6.81393">
        <ele>186.8</ele>
        <time>2020-09-24T16:45:06Z</time>
      </trkpt>
      <trkpt lat="49.26958" lon="6.81383">
        <ele>187</ele>
        <time>2020-09-24T16:45:07Z</time>
      </trkpt>
      <trkpt lat="49.26958" lon="6.81327">
        <ele>186.8</ele>
        <time>2020-09-24T16:45:13Z</time>
      </trkpt>
      <trkpt lat="49.26958" lon="6.81318">
        <ele>187</ele>
        <time>2020-09-24T16:45:14Z</time>
      </trkpt>
      <trkpt lat="49.26963" lon="6.81252">
        <ele>186.6</ele>
        <time>2020-09-24T16:45:21Z</time>
      </trkpt>
      <trkpt lat="49.26966" lon="6.81209">
        <ele>186.6</ele>
        <time>2020-09-24T16:45:26Z</time>
      </trkpt>
      <trkpt lat="49.2697" lon="6.81144">
        <ele>186.4</ele>
        <time>2020-09-24T16:45:33Z</time>
      </trkpt>
      <trkpt lat="49.26971" lon="6.8106">
        <ele>186.2</ele>
        <time>2020-09-24T16:45:42Z</time>
      </trkpt>
      <trkpt lat="49.26972" lon="6.80974">
        <ele>185.8</ele>
        <time>2020-09-24T16:45:51Z</time>
      </trkpt>
      <trkpt lat="49.26975" lon="6.80899">
        <ele>185.6</ele>
        <time>2020-09-24T16:45:59Z</time>
      </trkpt>
      <trkpt lat="49.26981" lon="6.80825">
        <ele>185.4</ele>
        <time>2020-09-24T16:46:07Z</time>
      </trkpt>
      <trkpt lat="49.26987" lon="6.8075">
        <ele>185.2</ele>
        <time>2020-09-24T16:46:15Z</time>
      </trkpt>
      <trkpt lat="49.26993" lon="6.80682">
        <ele>185</ele>
        <time>2020-09-24T16:46:22Z</time>
      </trkpt>
      <trkpt lat="49.27" lon="6.80595">
        <ele>184.8</ele>
        <time>2020-09-24T16:46:31Z</time>
      </trkpt>
      <trkpt lat="49.27001" lon="6.80586">
        <ele>184.8</ele>
        <time>2020-09-24T16:46:32Z</time>
      </trkpt>
      <trkpt lat="49.27005" lon="6.80538">
        <ele>184.8</ele>
        <time>2020-09-24T16:46:37Z</time>
      </trkpt>
      <trkpt lat="49.27017" lon="6.80462">
        <ele>184.6</ele>
        <time>2020-09-24T16:46:45Z</time>
      </trkpt>
      <trkpt lat="49.27029" lon="6.80402">
        <ele>185.2</ele>
        <time>2020-09-24T16:46:51Z</time>
      </trkpt>
      <trkpt lat="49.27043" lon="6.80335">
        <ele>185.2</ele>
        <time>2020-09-24T16:46:58Z</time>
      </trkpt>
      <trkpt lat="49.27047" lon="6.80316">
        <ele>185.2</ele>
        <time>2020-09-24T16:47:00Z</time>
      </trkpt>
      <trkpt lat="49.27054" lon="6.80279">
        <ele>185.2</ele>
        <time>2020-09-24T16:47:04Z</time>
      </trkpt>
      <trkpt lat="49.2706" lon="6.80247">
        <ele>185.4</ele>
        <time>2020-09-24T16:47:08Z</time>
      </trkpt>
      <trkpt lat="49.27064" lon="6.80231">
        <ele>185.4</ele>
        <time>2020-09-24T16:47:10Z</time>
      </trkpt>
      <trkpt lat="49.27066" lon="6.80223">
        <ele>185.6</ele>
        <time>2020-09-24T16:47:11Z</time>
      </trkpt>
      <trkpt lat="49.2707" lon="6.8021">
        <ele>185.6</ele>
        <time>2020-09-24T16:47:13Z</time>
      </trkpt>
      <trkpt lat="49.27072" lon="6.80203">
        <ele>185.8</ele>
        <time>2020-09-24T16:47:14Z</time>
      </trkpt>
      <trkpt lat="49.27082" lon="6.80171">
        <ele>186</ele>
        <time>2020-09-24T16:47:19Z</time>
      </trkpt>
      <trkpt lat="49.27084" lon="6.80164">
        <ele>186.2</ele>
        <time>2020-09-24T16:47:20Z</time>
      </trkpt>
      <trkpt lat="49.27086" lon="6.80158">
        <ele>186.2</ele>
        <time>2020-09-24T16:47:21Z</time>
      </trkpt>
      <trkpt lat="49.2709" lon="6.80144">
        <ele>186.4</ele>
        <time>2020-09-24T16:47:23Z</time>
      </trkpt>
      <trkpt lat="49.27094" lon="6.80129">
        <ele>186.6</ele>
        <time>2020-09-24T16:47:25Z</time>
      </trkpt>
      <trkpt lat="49.27105" lon="6.80093">
        <ele>187</ele>
        <time>2020-09-24T16:47:30Z</time>
      </trkpt>
      <trkpt lat="49.27107" lon="6.80085">
        <ele>187.2</ele>
        <time>2020-09-24T16:47:31Z</time>
      </trkpt>
      <trkpt lat="49.27114" lon="6.80062">
        <ele>187.4</ele>
        <time>2020-09-24T16:47:34Z</time>
      </trkpt>
      <trkpt lat="49.27119" lon="6.80047">
        <ele>187.4</ele>
        <time>2020-09-24T16:47:36Z</time>
      </trkpt>
      <trkpt lat="49.27134" lon="6.79997">
        <ele>187.8</ele>
        <time>2020-09-24T16:47:42Z</time>
      </trkpt>
      <trkpt lat="49.27145" lon="6.79959">
        <ele>188</ele>
        <time>2020-09-24T16:47:46Z</time>
      </trkpt>
      <trkpt lat="49.27172" lon="6.79879">
        <ele>188.4</ele>
        <time>2020-09-24T16:47:54Z</time>
      </trkpt>
      <trkpt lat="49.27188" lon="6.79829">
        <ele>188.2</ele>
        <time>2020-09-24T16:47:59Z</time>
      </trkpt>
      <trkpt lat="49.27203" lon="6.79783">
        <ele>187.8</ele>
        <time>2020-09-24T16:48:04Z</time>
      </trkpt>
      <trkpt lat="49.27217" lon="6.79727">
        <ele>187.4</ele>
        <time>2020-09-24T16:48:10Z</time>
      </trkpt>
      <trkpt lat="49.27228" lon="6.79683">
        <ele>187.2</ele>
        <time>2020-09-24T16:48:15Z</time>
      </trkpt>
      <trkpt lat="49.27245" lon="6.79627">
        <ele>187.2</ele>
        <time>2020-09-24T16:48:22Z</time>
      </trkpt>
      <trkpt lat="49.2726" lon="6.79576">
        <ele>187.2</ele>
        <time>2020-09-24T16:48:28Z</time>
      </trkpt>
      <trkpt lat="49.27262" lon="6.79568">
        <ele>187.2</ele>
        <time>2020-09-24T16:48:29Z</time>
      </trkpt>
      <trkpt lat="49.27268" lon="6.79551">
        <ele>187.2</ele>
        <time>2020-09-24T16:48:31Z</time>
      </trkpt>
      <trkpt lat="49.27275" lon="6.79526">
        <ele>187.2</ele>
        <time>2020-09-24T16:48:34Z</time>
      </trkpt>
      <trkpt lat="49.27278" lon="6.79517">
        <ele>187.2</ele>
        <time>2020-09-24T16:48:35Z</time>
      </trkpt>
      <trkpt lat="49.27285" lon="6.79488">
        <ele>187.2</ele>
        <time>2020-09-24T16:48:38Z</time>
      </trkpt>
      <trkpt lat="49.27288" lon="6.79478">
        <ele>187</ele>
        <time>2020-09-24T16:48:39Z</time>
      </trkpt>
      <trkpt lat="49.27303" lon="6.79395">
        <ele>186.6</ele>
        <time>2020-09-24T16:48:47Z</time>
      </trkpt>
      <trkpt lat="49.27305" lon="6.79384">
        <ele>186.6</ele>
        <time>2020-09-24T16:48:48Z</time>
      </trkpt>
      <trkpt lat="49.27308" lon="6.79363">
        <ele>186.6</ele>
        <time>2020-09-24T16:48:50Z</time>
      </trkpt>
      <trkpt lat="49.27304" lon="6.79308">
        <ele>186.8</ele>
        <time>2020-09-24T16:48:55Z</time>
      </trkpt>
      <trkpt lat="49.27305" lon="6.79298">
        <ele>186.8</ele>
        <time>2020-09-24T16:48:56Z</time>
      </trkpt>
      <trkpt lat="49.2731" lon="6.79255">
        <ele>186.6</ele>
        <time>2020-09-24T16:49:00Z</time>
      </trkpt>
      <trkpt lat="49.27321" lon="6.79171">
        <ele>186</ele>
        <time>2020-09-24T16:49:08Z</time>
      </trkpt>
      <trkpt lat="49.27324" lon="6.79141">
        <ele>186</ele>
        <time>2020-09-24T16:49:11Z</time>
      </trkpt>
      <trkpt lat="49.2733" lon="6.79112">
        <ele>185.8</ele>
        <time>2020-09-24T16:49:13Z</time>
      </trkpt>
      <trkpt lat="49.27342" lon="6.79064">
        <ele>185.6</ele>
        <time>2020-09-24T16:49:19Z</time>
      </trkpt>
      <trkpt lat="49.27347" lon="6.79045">
        <ele>185.4</ele>
        <time>2020-09-24T16:49:21Z</time>
      </trkpt>
      <trkpt lat="49.27353" lon="6.79014">
        <ele>185.2</ele>
        <time>2020-09-24T16:49:24Z</time>
      </trkpt>
      <trkpt lat="49.27357" lon="6.78929">
        <ele>185.2</ele>
        <time>2020-09-24T16:49:33Z</time>
      </trkpt>
      <trkpt lat="49.27357" lon="6.7892">
        <ele>185.2</ele>
        <time>2020-09-24T16:49:34Z</time>
      </trkpt>
      <trkpt lat="49.27358" lon="6.78885">
        <ele>185</ele>
        <time>2020-09-24T16:49:38Z</time>
      </trkpt>
      <trkpt lat="49.27361" lon="6.78814">
        <ele>184.8</ele>
        <time>2020-09-24T16:49:46Z</time>
      </trkpt>
      <trkpt lat="49.27364" lon="6.78752">
        <ele>184.4</ele>
        <time>2020-09-24T16:49:53Z</time>
      </trkpt>
      <trkpt lat="49.27366" lon="6.78677">
        <ele>184.2</ele>
        <time>2020-09-24T16:50:01Z</time>
      </trkpt>
      <trkpt lat="49.27367" lon="6.7862">
        <ele>183.8</ele>
        <time>2020-09-24T16:50:07Z</time>
      </trkpt>
      <trkpt lat="49.27367" lon="6.7861">
        <ele>183.8</ele>
        <time>2020-09-24T16:50:08Z</time>
      </trkpt>
      <trkpt lat="49.27362" lon="6.78555">
        <ele>183.6</ele>
        <time>2020-09-24T16:50:14Z</time>
      </trkpt>
      <trkpt lat="49.27362" lon="6.78546">
        <ele>183.6</ele>
        <time>2020-09-24T16:50:15Z</time>
      </trkpt>
      <trkpt lat="49.27365" lon="6.78512">
        <ele>183.4</ele>
        <time>2020-09-24T16:50:19Z</time>
      </trkpt>
      <trkpt lat="49.2737" lon="6.78456">
        <ele>183.2</ele>
        <time>2020-09-24T16:50:25Z</time>
      </trkpt>
      <trkpt lat="49.27375" lon="6.78392">
        <ele>183</ele>
        <time>2020-09-24T16:50:32Z</time>
      </trkpt>
      <trkpt lat="49.2738" lon="6.78308">
        <ele>182.6</ele>
        <time>2020-09-24T16:50:41Z</time>
      </trkpt>
      <trkpt lat="49.27382" lon="6.7827">
        <ele>182.4</ele>
        <time>2020-09-24T16:50:45Z</time>
      </trkpt>
      <trkpt lat="49.27383" lon="6.78252">
        <ele>182.2</ele>
        <time>2020-09-24T16:50:47Z</time>
      </trkpt>
      <trkpt lat="49.27383" lon="6.78242">
        <ele>182.2</ele>
        <time>2020-09-24T16:50:48Z</time>
      </trkpt>
      <trkpt lat="49.27377" lon="6.78204">
        <ele>181.8</ele>
        <time>2020-09-24T16:50:52Z</time>
      </trkpt>
      <trkpt lat="49.27371" lon="6.78165">
        <ele>181.6</ele>
        <time>2020-09-24T16:50:56Z</time>
      </trkpt>
      <trkpt lat="49.27368" lon="6.78146">
        <ele>181.4</ele>
        <time>2020-09-24T16:50:58Z</time>
      </trkpt>
      <trkpt lat="49.27365" lon="6.78116">
        <ele>181.4</ele>
        <time>2020-09-24T16:51:01Z</time>
      </trkpt>
      <trkpt lat="49.27365" lon="6.781">
        <ele>181.2</ele>
        <time>2020-09-24T16:51:03Z</time>
      </trkpt>
      <trkpt lat="49.27363" lon="6.78029">
        <ele>181</ele>
        <time>2020-09-24T16:51:10Z</time>
      </trkpt>
      <trkpt lat="49.27362" lon="6.7801">
        <ele>181</ele>
        <time>2020-09-24T16:51:11Z</time>
      </trkpt>
      <trkpt lat="49.27362" lon="6.77992">
        <ele>180.8</ele>
        <time>2020-09-24T16:51:14Z</time>
      </trkpt>
      <trkpt lat="49.27362" lon="6.77975">
        <ele>180.6</ele>
        <time>2020-09-24T16:51:16Z</time>
      </trkpt>
      <trkpt lat="49.27363" lon="6.77956">
        <ele>180.4</ele>
        <time>2020-09-24T16:51:18Z</time>
      </trkpt>
      <trkpt lat="49.27368" lon="6.77905">
        <ele>180.2</ele>
        <time>2020-09-24T16:51:23Z</time>
      </trkpt>
      <trkpt lat="49.27383" lon="6.77855">
        <ele>180</ele>
        <time>2020-09-24T16:51:29Z</time>
      </trkpt>
      <trkpt lat="49.27405" lon="6.77805">
        <ele>180.4</ele>
        <time>2020-09-24T16:51:35Z</time>
      </trkpt>
      <trkpt lat="49.27409" lon="6.77796">
        <ele>179.8</ele>
        <time>2020-09-24T16:51:36Z</time>
      </trkpt>
      <trkpt lat="49.27416" lon="6.77781">
        <ele>181</ele>
        <time>2020-09-24T16:51:38Z</time>
      </trkpt>
      <trkpt lat="49.27434" lon="6.77756">
        <ele>181</ele>
        <time>2020-09-24T16:51:42Z</time>
      </trkpt>
      <trkpt lat="49.27438" lon="6.7775">
        <ele>181</ele>
        <time>2020-09-24T16:51:43Z</time>
      </trkpt>
      <trkpt lat="49.27465" lon="6.77723">
        <ele>181.4</ele>
        <time>2020-09-24T16:51:48Z</time>
      </trkpt>
      <trkpt lat="49.27488" lon="6.77702">
        <ele>181.6</ele>
        <time>2020-09-24T16:51:52Z</time>
      </trkpt>
      <trkpt lat="49.27515" lon="6.77676">
        <ele>182</ele>
        <time>2020-09-24T16:51:57Z</time>
      </trkpt>
      <trkpt lat="49.2752" lon="6.7767">
        <ele>182</ele>
        <time>2020-09-24T16:51:58Z</time>
      </trkpt>
      <trkpt lat="49.27539" lon="6.77647">
        <ele>182.4</ele>
        <time>2020-09-24T16:52:02Z</time>
      </trkpt>
      <trkpt lat="49.27548" lon="6.77636">
        <ele>182.6</ele>
        <time>2020-09-24T16:52:04Z</time>
      </trkpt>
      <trkpt lat="49.27556" lon="6.77626">
        <ele>183</ele>
        <time>2020-09-24T16:52:06Z</time>
      </trkpt>
      <trkpt lat="49.2756" lon="6.77621">
        <ele>183</ele>
        <time>2020-09-24T16:52:07Z</time>
      </trkpt>
      <trkpt lat="49.27586" lon="6.776">
        <ele>183.4</ele>
        <time>2020-09-24T16:52:12Z</time>
      </trkpt>
      <trkpt lat="49.27619" lon="6.77574">
        <ele>183.6</ele>
        <time>2020-09-24T16:52:18Z</time>
      </trkpt>
      <trkpt lat="49.27653" lon="6.77532">
        <ele>183.6</ele>
        <time>2020-09-24T16:52:25Z</time>
      </trkpt>
      <trkpt lat="49.27687" lon="6.77488">
        <ele>183.8</ele>
        <time>2020-09-24T16:52:32Z</time>
      </trkpt>
      <trkpt lat="49.27717" lon="6.77451">
        <ele>184.2</ele>
        <time>2020-09-24T16:52:38Z</time>
      </trkpt>
      <trkpt lat="49.27757" lon="6.774">
        <ele>184.2</ele>
        <time>2020-09-24T16:52:46Z</time>
      </trkpt>
      <trkpt lat="49.27787" lon="6.77363">
        <ele>184.4</ele>
        <time>2020-09-24T16:52:52Z</time>
      </trkpt>
      <trkpt lat="49.27827" lon="6.77313">
        <ele>184.6</ele>
        <time>2020-09-24T16:53:00Z</time>
      </trkpt>
      <trkpt lat="49.27852" lon="6.77281">
        <ele>184.6</ele>
        <time>2020-09-24T16:53:05Z</time>
      </trkpt>
      <trkpt lat="49.27857" lon="6.77275">
        <ele>184.6</ele>
        <time>2020-09-24T16:53:06Z</time>
      </trkpt>
      <trkpt lat="49.27887" lon="6.77237">
        <ele>184.6</ele>
        <time>2020-09-24T16:53:12Z</time>
      </trkpt>
      <trkpt lat="49.27907" lon="6.77212">
        <ele>184.4</ele>
        <time>2020-09-24T16:53:16Z</time>
      </trkpt>
      <trkpt lat="49.27923" lon="6.77193">
        <ele>184.2</ele>
        <time>2020-09-24T16:53:19Z</time>
      </trkpt>
      <trkpt lat="49.27959" lon="6.77147">
        <ele>184.2</ele>
        <time>2020-09-24T16:53:26Z</time>
      </trkpt>
      <trkpt lat="49.27977" lon="6.77124">
        <ele>184.4</ele>
        <time>2020-09-24T16:53:30Z</time>
      </trkpt>
      <trkpt lat="49.27981" lon="6.77119">
        <ele>184.4</ele>
        <time>2020-09-24T16:53:31Z</time>
      </trkpt>
      <trkpt lat="49.28009" lon="6.77084">
        <ele>184.2</ele>
        <time>2020-09-24T16:53:37Z</time>
      </trkpt>
      <trkpt lat="49.28039" lon="6.77047">
        <ele>184</ele>
        <time>2020-09-24T16:53:43Z</time>
      </trkpt>
      <trkpt lat="49.28078" lon="6.77">
        <ele>183.8</ele>
        <time>2020-09-24T16:53:51Z</time>
      </trkpt>
      <trkpt lat="49.28083" lon="6.76994">
        <ele>183.8</ele>
        <time>2020-09-24T16:53:52Z</time>
      </trkpt>
      <trkpt lat="49.28098" lon="6.76976">
        <ele>183.8</ele>
        <time>2020-09-24T16:53:55Z</time>
      </trkpt>
      <trkpt lat="49.28103" lon="6.7697">
        <ele>183.8</ele>
        <time>2020-09-24T16:53:56Z</time>
      </trkpt>
      <trkpt lat="49.28132" lon="6.76934">
        <ele>183.8</ele>
        <time>2020-09-24T16:54:02Z</time>
      </trkpt>
      <trkpt lat="49.28177" lon="6.7688">
        <ele>183.6</ele>
        <time>2020-09-24T16:54:11Z</time>
      </trkpt>
      <trkpt lat="49.28182" lon="6.76874">
        <ele>183.4</ele>
        <time>2020-09-24T16:54:12Z</time>
      </trkpt>
      <trkpt lat="49.28201" lon="6.76851">
        <ele>183.4</ele>
        <time>2020-09-24T16:54:16Z</time>
      </trkpt>
      <trkpt lat="49.28225" lon="6.76823">
        <ele>183.2</ele>
        <time>2020-09-24T16:54:21Z</time>
      </trkpt>
      <trkpt lat="49.28235" lon="6.76812">
        <ele>183.2</ele>
        <time>2020-09-24T16:54:23Z</time>
      </trkpt>
      <trkpt lat="49.28271" lon="6.76778">
        <ele>183</ele>
        <time>2020-09-24T16:54:30Z</time>
      </trkpt>
      <trkpt lat="49.28302" lon="6.76749">
        <ele>182.8</ele>
        <time>2020-09-24T16:54:36Z</time>
      </trkpt>
      <trkpt lat="49.28307" lon="6.76745">
        <ele>182.8</ele>
        <time>2020-09-24T16:54:37Z</time>
      </trkpt>
      <trkpt lat="49.28311" lon="6.7674">
        <ele>182.8</ele>
        <time>2020-09-24T16:54:38Z</time>
      </trkpt>
      <trkpt lat="49.2833" lon="6.76723">
        <ele>182.8</ele>
        <time>2020-09-24T16:54:42Z</time>
      </trkpt>
      <trkpt lat="49.28358" lon="6.76697">
        <ele>182.6</ele>
        <time>2020-09-24T16:54:48Z</time>
      </trkpt>
      <trkpt lat="49.28384" lon="6.76683">
        <ele>182.6</ele>
        <time>2020-09-24T16:54:53Z</time>
      </trkpt>
      <trkpt lat="49.2839" lon="6.76681">
        <ele>182.6</ele>
        <time>2020-09-24T16:54:54Z</time>
      </trkpt>
      <trkpt lat="49.28412" lon="6.76668">
        <ele>182.6</ele>
        <time>2020-09-24T16:54:58Z</time>
      </trkpt>
      <trkpt lat="49.28444" lon="6.76647">
        <ele>182.4</ele>
        <time>2020-09-24T16:55:04Z</time>
      </trkpt>
      <trkpt lat="49.2845" lon="6.76643">
        <ele>182.2</ele>
        <time>2020-09-24T16:55:05Z</time>
      </trkpt>
      <trkpt lat="49.28455" lon="6.7664">
        <ele>182</ele>
        <time>2020-09-24T16:55:06Z</time>
      </trkpt>
      <trkpt lat="49.28471" lon="6.76629">
        <ele>181.8</ele>
        <time>2020-09-24T16:55:09Z</time>
      </trkpt>
      <trkpt lat="49.28492" lon="6.76608">
        <ele>181.6</ele>
        <time>2020-09-24T16:55:13Z</time>
      </trkpt>
      <trkpt lat="49.28503" lon="6.76602">
        <ele>181.6</ele>
        <time>2020-09-24T16:55:15Z</time>
      </trkpt>
      <trkpt lat="49.28541" lon="6.76587">
        <ele>181.4</ele>
        <time>2020-09-24T16:55:22Z</time>
      </trkpt>
      <trkpt lat="49.28569" lon="6.76576">
        <ele>181.4</ele>
        <time>2020-09-24T16:55:27Z</time>
      </trkpt>
      <trkpt lat="49.28617" lon="6.76556">
        <ele>181.2</ele>
        <time>2020-09-24T16:55:35Z</time>
      </trkpt>
      <trkpt lat="49.2866" lon="6.76541">
        <ele>180.8</ele>
        <time>2020-09-24T16:55:42Z</time>
      </trkpt>
      <trkpt lat="49.28667" lon="6.76539">
        <ele>180.8</ele>
        <time>2020-09-24T16:55:43Z</time>
      </trkpt>
      <trkpt lat="49.28685" lon="6.76535">
        <ele>180.6</ele>
        <time>2020-09-24T16:55:46Z</time>
      </trkpt>
      <trkpt lat="49.28721" lon="6.76526">
        <ele>180.4</ele>
        <time>2020-09-24T16:55:52Z</time>
      </trkpt>
      <trkpt lat="49.28727" lon="6.76524">
        <ele>180.4</ele>
        <time>2020-09-24T16:55:53Z</time>
      </trkpt>
      <trkpt lat="49.28756" lon="6.76517">
        <ele>180</ele>
        <time>2020-09-24T16:55:58Z</time>
      </trkpt>
      <trkpt lat="49.28785" lon="6.76507">
        <ele>179.6</ele>
        <time>2020-09-24T16:56:03Z</time>
      </trkpt>
      <trkpt lat="49.28821" lon="6.76491">
        <ele>178.8</ele>
        <time>2020-09-24T16:56:09Z</time>
      </trkpt>
      <trkpt lat="49.28847" lon="6.76482">
        <ele>178.8</ele>
        <time>2020-09-24T16:56:13Z</time>
      </trkpt>
      <trkpt lat="49.28867" lon="6.76479">
        <ele>179</ele>
        <time>2020-09-24T16:56:16Z</time>
      </trkpt>
      <trkpt lat="49.28912" lon="6.76472">
        <ele>179</ele>
        <time>2020-09-24T16:56:23Z</time>
      </trkpt>
      <trkpt lat="49.2895" lon="6.7647">
        <ele>178.6</ele>
        <time>2020-09-24T16:56:29Z</time>
      </trkpt>
      <trkpt lat="49.29001" lon="6.76467">
        <ele>178.6</ele>
        <time>2020-09-24T16:56:37Z</time>
      </trkpt>
      <trkpt lat="49.29052" lon="6.76464">
        <ele>178.8</ele>
        <time>2020-09-24T16:56:45Z</time>
      </trkpt>
      <trkpt lat="49.29109" lon="6.76461">
        <ele>179</ele>
        <time>2020-09-24T16:56:54Z</time>
      </trkpt>
      <trkpt lat="49.2916" lon="6.76459">
        <ele>179.2</ele>
        <time>2020-09-24T16:57:02Z</time>
      </trkpt>
      <trkpt lat="49.29218" lon="6.76456">
        <ele>179.4</ele>
        <time>2020-09-24T16:57:11Z</time>
      </trkpt>
      <trkpt lat="49.29231" lon="6.76456">
        <ele>179.6</ele>
        <time>2020-09-24T16:57:13Z</time>
      </trkpt>
      <trkpt lat="49.29283" lon="6.76455">
        <ele>179.6</ele>
        <time>2020-09-24T16:57:21Z</time>
      </trkpt>
      <trkpt lat="49.29328" lon="6.76455">
        <ele>179.8</ele>
        <time>2020-09-24T16:57:28Z</time>
      </trkpt>
      <trkpt lat="49.29367" lon="6.76455">
        <ele>180.2</ele>
        <time>2020-09-24T16:57:35Z</time>
      </trkpt>
      <trkpt lat="49.29405" lon="6.76455">
        <ele>180.4</ele>
        <time>2020-09-24T16:57:42Z</time>
      </trkpt>
      <trkpt lat="49.29439" lon="6.76455">
        <ele>180.6</ele>
        <time>2020-09-24T16:57:48Z</time>
      </trkpt>
      <trkpt lat="49.29468" lon="6.76453">
        <ele>180.8</ele>
        <time>2020-09-24T16:57:53Z</time>
      </trkpt>
      <trkpt lat="49.29473" lon="6.76451">
        <ele>180.8</ele>
        <time>2020-09-24T16:57:54Z</time>
      </trkpt>
      <trkpt lat="49.29506" lon="6.76439">
        <ele>181</ele>
        <time>2020-09-24T16:58:00Z</time>
      </trkpt>
      <trkpt lat="49.29524" lon="6.76435">
        <ele>181</ele>
        <time>2020-09-24T16:58:03Z</time>
      </trkpt>
      <trkpt lat="49.29543" lon="6.76433">
        <ele>181.2</ele>
        <time>2020-09-24T16:58:06Z</time>
      </trkpt>
      <trkpt lat="49.29595" lon="6.76427">
        <ele>181.2</ele>
        <time>2020-09-24T16:58:14Z</time>
      </trkpt>
      <trkpt lat="49.29602" lon="6.76428">
        <ele>181.4</ele>
        <time>2020-09-24T16:58:15Z</time>
      </trkpt>
      <trkpt lat="49.29629" lon="6.76428">
        <ele>181.6</ele>
        <time>2020-09-24T16:58:19Z</time>
      </trkpt>
      <trkpt lat="49.29686" lon="6.7643">
        <ele>181.8</ele>
        <time>2020-09-24T16:58:27Z</time>
      </trkpt>
      <trkpt lat="49.29728" lon="6.7643">
        <ele>182</ele>
        <time>2020-09-24T16:58:33Z</time>
      </trkpt>
      <trkpt lat="49.29735" lon="6.7643">
        <ele>182.2</ele>
        <time>2020-09-24T16:58:34Z</time>
      </trkpt>
      <trkpt lat="49.29776" lon="6.76431">
        <ele>182.4</ele>
        <time>2020-09-24T16:58:40Z</time>
      </trkpt>
      <trkpt lat="49.29803" lon="6.76432">
        <ele>182.6</ele>
        <time>2020-09-24T16:58:44Z</time>
      </trkpt>
      <trkpt lat="49.2983" lon="6.76432">
        <ele>182.6</ele>
        <time>2020-09-24T16:58:48Z</time>
      </trkpt>
      <trkpt lat="49.29851" lon="6.76433">
        <ele>182.6</ele>
        <time>2020-09-24T16:58:51Z</time>
      </trkpt>
      <trkpt lat="49.29899" lon="6.76433">
        <ele>182.8</ele>
        <time>2020-09-24T16:58:58Z</time>
      </trkpt>
      <trkpt lat="49.29941" lon="6.76433">
        <ele>183</ele>
        <time>2020-09-24T16:59:04Z</time>
      </trkpt>
      <trkpt lat="49.29996" lon="6.76433">
        <ele>183</ele>
        <time>2020-09-24T16:59:12Z</time>
      </trkpt>
      <trkpt lat="49.30048" lon="6.76432">
        <ele>183.2</ele>
        <time>2020-09-24T16:59:20Z</time>
      </trkpt>
      <trkpt lat="49.30084" lon="6.76419">
        <ele>183</ele>
        <time>2020-09-24T16:59:25Z</time>
      </trkpt>
      <trkpt lat="49.30092" lon="6.76419">
        <ele>182.8</ele>
        <time>2020-09-24T16:59:26Z</time>
      </trkpt>
      <trkpt lat="49.30116" lon="6.7642">
        <ele>182.6</ele>
        <time>2020-09-24T16:59:29Z</time>
      </trkpt>
      <trkpt lat="49.30175" lon="6.76426">
        <ele>182</ele>
        <time>2020-09-24T16:59:37Z</time>
      </trkpt>
      <trkpt lat="49.30216" lon="6.76433">
        <ele>181.4</ele>
        <time>2020-09-24T16:59:43Z</time>
      </trkpt>
      <trkpt lat="49.3023" lon="6.76436">
        <ele>181.2</ele>
        <time>2020-09-24T16:59:45Z</time>
      </trkpt>
      <trkpt lat="49.3025" lon="6.7644">
        <ele>180.8</ele>
        <time>2020-09-24T16:59:48Z</time>
      </trkpt>
      <trkpt lat="49.30265" lon="6.76442">
        <ele>180.6</ele>
        <time>2020-09-24T16:59:50Z</time>
      </trkpt>
      <trkpt lat="49.30272" lon="6.76441">
        <ele>180.4</ele>
        <time>2020-09-24T16:59:51Z</time>
      </trkpt>
      <trkpt lat="49.30305" lon="6.76438">
        <ele>179.4</ele>
        <time>2020-09-24T16:59:56Z</time>
      </trkpt>
      <trkpt lat="49.30339" lon="6.76434">
        <ele>178.4</ele>
        <time>2020-09-24T17:00:01Z</time>
      </trkpt>
      <trkpt lat="49.30378" lon="6.76436">
        <ele>177.4</ele>
        <time>2020-09-24T17:00:07Z</time>
      </trkpt>
      <trkpt lat="49.30391" lon="6.76431">
        <ele>177</ele>
        <time>2020-09-24T17:00:09Z</time>
      </trkpt>
      <trkpt lat="49.30404" lon="6.76427">
        <ele>176.6</ele>
        <time>2020-09-24T17:00:11Z</time>
      </trkpt>
      <trkpt lat="49.30441" lon="6.76388">
        <ele>176</ele>
        <time>2020-09-24T17:00:18Z</time>
      </trkpt>
      <trkpt lat="49.30462" lon="6.76363">
        <ele>175.6</ele>
        <time>2020-09-24T17:00:22Z</time>
      </trkpt>
      <trkpt lat="49.30473" lon="6.76348">
        <ele>175.4</ele>
        <time>2020-09-24T17:00:24Z</time>
      </trkpt>
      <trkpt lat="49.30484" lon="6.76333">
        <ele>175</ele>
        <time>2020-09-24T17:00:26Z</time>
      </trkpt>
      <trkpt lat="49.30494" lon="6.76319">
        <ele>174.6</ele>
        <time>2020-09-24T17:00:28Z</time>
      </trkpt>
      <trkpt lat="49.3053" lon="6.76282">
        <ele>173.8</ele>
        <time>2020-09-24T17:00:35Z</time>
      </trkpt>
      <trkpt lat="49.30546" lon="6.76265">
        <ele>173.6</ele>
        <time>2020-09-24T17:00:38Z</time>
      </trkpt>
      <trkpt lat="49.30557" lon="6.76254">
        <ele>173.4</ele>
        <time>2020-09-24T17:00:40Z</time>
      </trkpt>
      <trkpt lat="49.30573" lon="6.7624">
        <ele>173.2</ele>
        <time>2020-09-24T17:00:43Z</time>
      </trkpt>
      <trkpt lat="49.30579" lon="6.76238">
        <ele>173.2</ele>
        <time>2020-09-24T17:00:44Z</time>
      </trkpt>
      <trkpt lat="49.30606" lon="6.76237">
        <ele>173.2</ele>
        <time>2020-09-24T17:00:49Z</time>
      </trkpt>
      <trkpt lat="49.30619" lon="6.76238">
        <ele>173</ele>
        <time>2020-09-24T17:00:52Z</time>
      </trkpt>
      <trkpt lat="49.30626" lon="6.76238">
        <ele>173</ele>
        <time>2020-09-24T17:00:54Z</time>
      </trkpt>
      <trkpt lat="49.30626" lon="6.76254">
        <ele>173</ele>
        <time>2020-09-24T17:00:57Z</time>
      </trkpt>
      <trkpt lat="49.30625" lon="6.7626">
        <ele>173</ele>
        <time>2020-09-24T17:00:58Z</time>
      </trkpt>
      <trkpt lat="49.30616" lon="6.76299">
        <ele>172.8</ele>
        <time>2020-09-24T17:01:03Z</time>
      </trkpt>
      <trkpt lat="49.30604" lon="6.76356">
        <ele>173</ele>
        <time>2020-09-24T17:01:09Z</time>
      </trkpt>
      <trkpt lat="49.30601" lon="6.76394">
        <ele>173.2</ele>
        <time>2020-09-24T17:01:13Z</time>
      </trkpt>
      <trkpt lat="49.30601" lon="6.76402">
        <ele>173.4</ele>
        <time>2020-09-24T17:01:14Z</time>
      </trkpt>
      <trkpt lat="49.30599" lon="6.76432">
        <ele>173.4</ele>
        <time>2020-09-24T17:01:18Z</time>
      </trkpt>
      <trkpt lat="49.30592" lon="6.76475">
        <ele>173.8</ele>
        <time>2020-09-24T17:01:24Z</time>
      </trkpt>
      <trkpt lat="49.30584" lon="6.7651">
        <ele>174.2</ele>
        <time>2020-09-24T17:01:29Z</time>
      </trkpt>
      <trkpt lat="49.30583" lon="6.76517">
        <ele>174.2</ele>
        <time>2020-09-24T17:01:30Z</time>
      </trkpt>
      <trkpt lat="49.30578" lon="6.7654">
        <ele>174.6</ele>
        <time>2020-09-24T17:01:33Z</time>
      </trkpt>
      <trkpt lat="49.30576" lon="6.76557">
        <ele>174.6</ele>
        <time>2020-09-24T17:01:35Z</time>
      </trkpt>
      <trkpt lat="49.30565" lon="6.76621">
        <ele>174.8</ele>
        <time>2020-09-24T17:01:42Z</time>
      </trkpt>
      <trkpt lat="49.30562" lon="6.76639">
        <ele>174.8</ele>
        <time>2020-09-24T17:01:44Z</time>
      </trkpt>
      <trkpt lat="49.30566" lon="6.7665">
        <ele>174.8</ele>
        <time>2020-09-24T17:01:45Z</time>
      </trkpt>
      <trkpt lat="49.30571" lon="6.76652">
        <ele>174.8</ele>
        <time>2020-09-24T17:01:46Z</time>
      </trkpt>
      <trkpt lat="49.30581" lon="6.76658">
        <ele>174.8</ele>
        <time>2020-09-24T17:01:48Z</time>
      </trkpt>
      <trkpt lat="49.30621" lon="6.76684">
        <ele>175.2</ele>
        <time>2020-09-24T17:01:55Z</time>
      </trkpt>
      <trkpt lat="49.30652" lon="6.76702">
        <ele>175.6</ele>
        <time>2020-09-24T17:02:01Z</time>
      </trkpt>
      <trkpt lat="49.30657" lon="6.76705">
        <ele>175.6</ele>
        <time>2020-09-24T17:02:02Z</time>
      </trkpt>
      <trkpt lat="49.30681" lon="6.76721">
        <ele>175.8</ele>
        <time>2020-09-24T17:02:07Z</time>
      </trkpt>
      <trkpt lat="49.30723" lon="6.76747">
        <ele>176</ele>
        <time>2020-09-24T17:02:15Z</time>
      </trkpt>
      <trkpt lat="49.30762" lon="6.76771">
        <ele>176</ele>
        <time>2020-09-24T17:02:22Z</time>
      </trkpt>
      <trkpt lat="49.30807" lon="6.76798">
        <ele>176.4</ele>
        <time>2020-09-24T17:02:30Z</time>
      </trkpt>
      <trkpt lat="49.30852" lon="6.76827">
        <ele>176.6</ele>
        <time>2020-09-24T17:02:38Z</time>
      </trkpt>
      <trkpt lat="49.30887" lon="6.76848">
        <ele>176.8</ele>
        <time>2020-09-24T17:02:44Z</time>
      </trkpt>
      <trkpt lat="49.3094" lon="6.76881">
        <ele>177.2</ele>
        <time>2020-09-24T17:02:53Z</time>
      </trkpt>
      <trkpt lat="49.30952" lon="6.76888">
        <ele>177.2</ele>
        <time>2020-09-24T17:02:55Z</time>
      </trkpt>
      <trkpt lat="49.30994" lon="6.76914">
        <ele>177.4</ele>
        <time>2020-09-24T17:03:02Z</time>
      </trkpt>
      <trkpt lat="49.31041" lon="6.76943">
        <ele>177.6</ele>
        <time>2020-09-24T17:03:10Z</time>
      </trkpt>
      <trkpt lat="49.31088" lon="6.76971">
        <ele>177.8</ele>
        <time>2020-09-24T17:03:18Z</time>
      </trkpt>
      <trkpt lat="49.31142" lon="6.77004">
        <ele>178</ele>
        <time>2020-09-24T17:03:26Z</time>
      </trkpt>
      <trkpt lat="49.31188" lon="6.77032">
        <ele>178.2</ele>
        <time>2020-09-24T17:03:35Z</time>
      </trkpt>
      <trkpt lat="49.31223" lon="6.77053">
        <ele>178.2</ele>
        <time>2020-09-24T17:03:41Z</time>
      </trkpt>
      <trkpt lat="49.31261" lon="6.77076">
        <ele>178.4</ele>
        <time>2020-09-24T17:03:48Z</time>
      </trkpt>
      <trkpt lat="49.31299" lon="6.77102">
        <ele>178.6</ele>
        <time>2020-09-24T17:03:55Z</time>
      </trkpt>
      <trkpt lat="49.31343" lon="6.77131">
        <ele>178.6</ele>
        <time>2020-09-24T17:04:03Z</time>
      </trkpt>
      <trkpt lat="49.31388" lon="6.77159">
        <ele>178.6</ele>
        <time>2020-09-24T17:04:10Z</time>
      </trkpt>
      <trkpt lat="49.31411" lon="6.77174">
        <ele>178.8</ele>
        <time>2020-09-24T17:04:15Z</time>
      </trkpt>
      <trkpt lat="49.31429" lon="6.77185">
        <ele>178.8</ele>
        <time>2020-09-24T17:04:18Z</time>
      </trkpt>
      <trkpt lat="49.31468" lon="6.77205">
        <ele>178.8</ele>
        <time>2020-09-24T17:04:25Z</time>
      </trkpt>
      <trkpt lat="49.31508" lon="6.77225">
        <ele>178.8</ele>
        <time>2020-09-24T17:04:32Z</time>
      </trkpt>
      <trkpt lat="49.31542" lon="6.77242">
        <ele>178.8</ele>
        <time>2020-09-24T17:04:38Z</time>
      </trkpt>
      <trkpt lat="49.31583" lon="6.77258">
        <ele>179</ele>
        <time>2020-09-24T17:04:45Z</time>
      </trkpt>
      <trkpt lat="49.31637" lon="6.77268">
        <ele>179</ele>
        <time>2020-09-24T17:04:54Z</time>
      </trkpt>
      <trkpt lat="49.31673" lon="6.77272">
        <ele>179.2</ele>
        <time>2020-09-24T17:05:00Z</time>
      </trkpt>
      <trkpt lat="49.3171" lon="6.77275">
        <ele>179.2</ele>
        <time>2020-09-24T17:05:06Z</time>
      </trkpt>
      <trkpt lat="49.31753" lon="6.77268">
        <ele>179</ele>
        <time>2020-09-24T17:05:13Z</time>
      </trkpt>
      <trkpt lat="49.31803" lon="6.7726">
        <ele>179</ele>
        <time>2020-09-24T17:05:21Z</time>
      </trkpt>
      <trkpt lat="49.31845" lon="6.77249">
        <ele>179</ele>
        <time>2020-09-24T17:05:28Z</time>
      </trkpt>
      <trkpt lat="49.31851" lon="6.77246">
        <ele>179</ele>
        <time>2020-09-24T17:05:29Z</time>
      </trkpt>
      <trkpt lat="49.31898" lon="6.77218">
        <ele>179</ele>
        <time>2020-09-24T17:05:37Z</time>
      </trkpt>
      <trkpt lat="49.31929" lon="6.77195">
        <ele>178.8</ele>
        <time>2020-09-24T17:05:43Z</time>
      </trkpt>
      <trkpt lat="49.31971" lon="6.77157">
        <ele>178.8</ele>
        <time>2020-09-24T17:05:51Z</time>
      </trkpt>
      <trkpt lat="49.31994" lon="6.7713">
        <ele>178.8</ele>
        <time>2020-09-24T17:05:56Z</time>
      </trkpt>
      <trkpt lat="49.32018" lon="6.77101">
        <ele>178.6</ele>
        <time>2020-09-24T17:06:01Z</time>
      </trkpt>
      <trkpt lat="49.32022" lon="6.77096">
        <ele>178.6</ele>
        <time>2020-09-24T17:06:02Z</time>
      </trkpt>
      <trkpt lat="49.32062" lon="6.77043">
        <ele>178.6</ele>
        <time>2020-09-24T17:06:11Z</time>
      </trkpt>
      <trkpt lat="49.32093" lon="6.76982">
        <ele>178.4</ele>
        <time>2020-09-24T17:06:19Z</time>
      </trkpt>
      <trkpt lat="49.32123" lon="6.76906">
        <ele>178.4</ele>
        <time>2020-09-24T17:06:28Z</time>
      </trkpt>
      <trkpt lat="49.32134" lon="6.76861">
        <ele>178.6</ele>
        <time>2020-09-24T17:06:33Z</time>
      </trkpt>
      <trkpt lat="49.32135" lon="6.7685">
        <ele>178.6</ele>
        <time>2020-09-24T17:06:34Z</time>
      </trkpt>
      <trkpt lat="49.32136" lon="6.7684">
        <ele>178.6</ele>
        <time>2020-09-24T17:06:35Z</time>
      </trkpt>
      <trkpt lat="49.3214" lon="6.76799">
        <ele>178.6</ele>
        <time>2020-09-24T17:06:39Z</time>
      </trkpt>
      <trkpt lat="49.32142" lon="6.7679">
        <ele>178.6</ele>
        <time>2020-09-24T17:06:40Z</time>
      </trkpt>
      <trkpt lat="49.32147" lon="6.76772">
        <ele>178.6</ele>
        <time>2020-09-24T17:06:42Z</time>
      </trkpt>
      <trkpt lat="49.32151" lon="6.76755">
        <ele>178.6</ele>
        <time>2020-09-24T17:06:44Z</time>
      </trkpt>
      <trkpt lat="49.32154" lon="6.76748">
        <ele>178.6</ele>
        <time>2020-09-24T17:06:45Z</time>
      </trkpt>
      <trkpt lat="49.32166" lon="6.76718">
        <ele>178.8</ele>
        <time>2020-09-24T17:06:49Z</time>
      </trkpt>
      <trkpt lat="49.32169" lon="6.76711">
        <ele>178.6</ele>
        <time>2020-09-24T17:06:50Z</time>
      </trkpt>
      <trkpt lat="49.32173" lon="6.76694">
        <ele>178.8</ele>
        <time>2020-09-24T17:06:52Z</time>
      </trkpt>
      <trkpt lat="49.32174" lon="6.76684">
        <ele>178.8</ele>
        <time>2020-09-24T17:06:53Z</time>
      </trkpt>
      <trkpt lat="49.32179" lon="6.7662">
        <ele>178.8</ele>
        <time>2020-09-24T17:07:00Z</time>
      </trkpt>
      <trkpt lat="49.32179" lon="6.76533">
        <ele>178.8</ele>
        <time>2020-09-24T17:07:09Z</time>
      </trkpt>
      <trkpt lat="49.32179" lon="6.76523">
        <ele>178.8</ele>
        <time>2020-09-24T17:07:10Z</time>
      </trkpt>
      <trkpt lat="49.32173" lon="6.76456">
        <ele>179</ele>
        <time>2020-09-24T17:07:17Z</time>
      </trkpt>
      <trkpt lat="49.32165" lon="6.76389">
        <ele>179.2</ele>
        <time>2020-09-24T17:07:24Z</time>
      </trkpt>
      <trkpt lat="49.32162" lon="6.76369">
        <ele>179.2</ele>
        <time>2020-09-24T17:07:26Z</time>
      </trkpt>
      <trkpt lat="49.32158" lon="6.76331">
        <ele>179.2</ele>
        <time>2020-09-24T17:07:30Z</time>
      </trkpt>
      <trkpt lat="49.32144" lon="6.76279">
        <ele>179.2</ele>
        <time>2020-09-24T17:07:36Z</time>
      </trkpt>
      <trkpt lat="49.32125" lon="6.76208">
        <ele>179.4</ele>
        <time>2020-09-24T17:07:44Z</time>
      </trkpt>
      <trkpt lat="49.32106" lon="6.76137">
        <ele>179.4</ele>
        <time>2020-09-24T17:07:52Z</time>
      </trkpt>
      <trkpt lat="49.32085" lon="6.76055">
        <ele>179.4</ele>
        <time>2020-09-24T17:08:01Z</time>
      </trkpt>
      <trkpt lat="49.32071" lon="6.7599">
        <ele>179.6</ele>
        <time>2020-09-24T17:08:08Z</time>
      </trkpt>
      <trkpt lat="49.32059" lon="6.75935">
        <ele>179.8</ele>
        <time>2020-09-24T17:08:14Z</time>
      </trkpt>
      <trkpt lat="49.32044" lon="6.75861">
        <ele>179.8</ele>
        <time>2020-09-24T17:08:22Z</time>
      </trkpt>
      <trkpt lat="49.32038" lon="6.75785">
        <ele>179.8</ele>
        <time>2020-09-24T17:08:30Z</time>
      </trkpt>
      <trkpt lat="49.32032" lon="6.75718">
        <ele>179.8</ele>
        <time>2020-09-24T17:08:37Z</time>
      </trkpt>
      <trkpt lat="49.32031" lon="6.75662">
        <ele>180</ele>
        <time>2020-09-24T17:08:43Z</time>
      </trkpt>
      <trkpt lat="49.32036" lon="6.75605">
        <ele>179.8</ele>
        <time>2020-09-24T17:08:49Z</time>
      </trkpt>
      <trkpt lat="49.32041" lon="6.75568">
        <ele>179.8</ele>
        <time>2020-09-24T17:08:53Z</time>
      </trkpt>
      <trkpt lat="49.32045" lon="6.7555">
        <ele>179.8</ele>
        <time>2020-09-24T17:08:55Z</time>
      </trkpt>
      <trkpt lat="49.32057" lon="6.75493">
        <ele>179.6</ele>
        <time>2020-09-24T17:09:01Z</time>
      </trkpt>
      <trkpt lat="49.32076" lon="6.75423">
        <ele>179.8</ele>
        <time>2020-09-24T17:09:09Z</time>
      </trkpt>
      <trkpt lat="49.32093" lon="6.75363">
        <ele>179.8</ele>
        <time>2020-09-24T17:09:16Z</time>
      </trkpt>
      <trkpt lat="49.3211" lon="6.75303">
        <ele>179.8</ele>
        <time>2020-09-24T17:09:23Z</time>
      </trkpt>
      <trkpt lat="49.32131" lon="6.75244">
        <ele>179.8</ele>
        <time>2020-09-24T17:09:30Z</time>
      </trkpt>
      <trkpt lat="49.32138" lon="6.75227">
        <ele>179.6</ele>
        <time>2020-09-24T17:09:32Z</time>
      </trkpt>
      <trkpt lat="49.32144" lon="6.75211">
        <ele>179.4</ele>
        <time>2020-09-24T17:09:34Z</time>
      </trkpt>
      <trkpt lat="49.3215" lon="6.75194">
        <ele>179.2</ele>
        <time>2020-09-24T17:09:36Z</time>
      </trkpt>
      <trkpt lat="49.32157" lon="6.75177">
        <ele>179</ele>
        <time>2020-09-24T17:09:38Z</time>
      </trkpt>
      <trkpt lat="49.32166" lon="6.75152">
        <ele>179</ele>
        <time>2020-09-24T17:09:41Z</time>
      </trkpt>
      <trkpt lat="49.32173" lon="6.75134">
        <ele>178.8</ele>
        <time>2020-09-24T17:09:43Z</time>
      </trkpt>
      <trkpt lat="49.32186" lon="6.751">
        <ele>178.4</ele>
        <time>2020-09-24T17:09:47Z</time>
      </trkpt>
      <trkpt lat="49.32192" lon="6.75082">
        <ele>178</ele>
        <time>2020-09-24T17:09:49Z</time>
      </trkpt>
      <trkpt lat="49.32204" lon="6.75026">
        <ele>177.6</ele>
        <time>2020-09-24T17:09:55Z</time>
      </trkpt>
      <trkpt lat="49.32218" lon="6.74963">
        <ele>177</ele>
        <time>2020-09-24T17:10:02Z</time>
      </trkpt>
      <trkpt lat="49.32222" lon="6.74944">
        <ele>177</ele>
        <time>2020-09-24T17:10:04Z</time>
      </trkpt>
      <trkpt lat="49.32228" lon="6.74917">
        <ele>176.8</ele>
        <time>2020-09-24T17:10:07Z</time>
      </trkpt>
      <trkpt lat="49.32232" lon="6.74899">
        <ele>176.6</ele>
        <time>2020-09-24T17:10:09Z</time>
      </trkpt>
      <trkpt lat="49.32236" lon="6.74882">
        <ele>176.4</ele>
        <time>2020-09-24T17:10:11Z</time>
      </trkpt>
      <trkpt lat="49.32239" lon="6.74865">
        <ele>176.2</ele>
        <time>2020-09-24T17:10:13Z</time>
      </trkpt>
      <trkpt lat="49.32243" lon="6.74849">
        <ele>175.8</ele>
        <time>2020-09-24T17:10:15Z</time>
      </trkpt>
      <trkpt lat="49.32245" lon="6.7484">
        <ele>175.6</ele>
        <time>2020-09-24T17:10:16Z</time>
      </trkpt>
      <trkpt lat="49.32249" lon="6.74823">
        <ele>175.4</ele>
        <time>2020-09-24T17:10:18Z</time>
      </trkpt>
      <trkpt lat="49.32251" lon="6.74814">
        <ele>175.2</ele>
        <time>2020-09-24T17:10:19Z</time>
      </trkpt>
      <trkpt lat="49.32265" lon="6.7475">
        <ele>175</ele>
        <time>2020-09-24T17:10:26Z</time>
      </trkpt>
      <trkpt lat="49.32269" lon="6.74731">
        <ele>175</ele>
        <time>2020-09-24T17:10:28Z</time>
      </trkpt>
      <trkpt lat="49.32273" lon="6.74712">
        <ele>174.8</ele>
        <time>2020-09-24T17:10:30Z</time>
      </trkpt>
      <trkpt lat="49.32284" lon="6.74672">
        <ele>175</ele>
        <time>2020-09-24T17:10:35Z</time>
      </trkpt>
      <trkpt lat="49.32293" lon="6.7464">
        <ele>174.6</ele>
        <time>2020-09-24T17:10:39Z</time>
      </trkpt>
      <trkpt lat="49.32298" lon="6.74623">
        <ele>175</ele>
        <time>2020-09-24T17:10:41Z</time>
      </trkpt>
      <trkpt lat="49.32313" lon="6.74567">
        <ele>175.2</ele>
        <time>2020-09-24T17:10:48Z</time>
      </trkpt>
      <trkpt lat="49.3232" lon="6.74543">
        <ele>175.4</ele>
        <time>2020-09-24T17:10:51Z</time>
      </trkpt>
      <trkpt lat="49.32322" lon="6.74535">
        <ele>175.2</ele>
        <time>2020-09-24T17:10:52Z</time>
      </trkpt>
      <trkpt lat="49.32343" lon="6.74478">
        <ele>175.2</ele>
        <time>2020-09-24T17:10:59Z</time>
      </trkpt>
      <trkpt lat="49.32366" lon="6.74422">
        <ele>175.4</ele>
        <time>2020-09-24T17:11:06Z</time>
      </trkpt>
      <trkpt lat="49.32388" lon="6.74375">
        <ele>175.6</ele>
        <time>2020-09-24T17:11:12Z</time>
      </trkpt>
      <trkpt lat="49.32409" lon="6.74328">
        <ele>175.8</ele>
        <time>2020-09-24T17:11:18Z</time>
      </trkpt>
      <trkpt lat="49.32437" lon="6.74267">
        <ele>175.8</ele>
        <time>2020-09-24T17:11:26Z</time>
      </trkpt>
      <trkpt lat="49.32465" lon="6.74217">
        <ele>176</ele>
        <time>2020-09-24T17:11:33Z</time>
      </trkpt>
      <trkpt lat="49.32485" lon="6.74183">
        <ele>176.2</ele>
        <time>2020-09-24T17:11:38Z</time>
      </trkpt>
      <trkpt lat="49.32489" lon="6.74176">
        <ele>176</ele>
        <time>2020-09-24T17:11:39Z</time>
      </trkpt>
      <trkpt lat="49.3251" lon="6.7414">
        <ele>176.2</ele>
        <time>2020-09-24T17:11:44Z</time>
      </trkpt>
      <trkpt lat="49.32537" lon="6.74103">
        <ele>176.6</ele>
        <time>2020-09-24T17:11:50Z</time>
      </trkpt>
      <trkpt lat="49.32542" lon="6.74096">
        <ele>176.6</ele>
        <time>2020-09-24T17:11:51Z</time>
      </trkpt>
      <trkpt lat="49.32551" lon="6.74085">
        <ele>176.8</ele>
        <time>2020-09-24T17:11:53Z</time>
      </trkpt>
      <trkpt lat="49.32578" lon="6.74047">
        <ele>177.2</ele>
        <time>2020-09-24T17:11:59Z</time>
      </trkpt>
      <trkpt lat="49.32583" lon="6.7404">
        <ele>177.2</ele>
        <time>2020-09-24T17:12:00Z</time>
      </trkpt>
      <trkpt lat="49.32607" lon="6.74008">
        <ele>177.4</ele>
        <time>2020-09-24T17:12:05Z</time>
      </trkpt>
      <trkpt lat="49.32635" lon="6.7397">
        <ele>177.8</ele>
        <time>2020-09-24T17:12:11Z</time>
      </trkpt>
      <trkpt lat="49.32653" lon="6.73946">
        <ele>177.8</ele>
        <time>2020-09-24T17:12:15Z</time>
      </trkpt>
      <trkpt lat="49.32658" lon="6.73939">
        <ele>177.8</ele>
        <time>2020-09-24T17:12:16Z</time>
      </trkpt>
      <trkpt lat="49.32685" lon="6.73902">
        <ele>178.2</ele>
        <time>2020-09-24T17:12:22Z</time>
      </trkpt>
      <trkpt lat="49.32713" lon="6.73864">
        <ele>178.2</ele>
        <time>2020-09-24T17:12:28Z</time>
      </trkpt>
      <trkpt lat="49.32736" lon="6.73833">
        <ele>178.6</ele>
        <time>2020-09-24T17:12:33Z</time>
      </trkpt>
      <trkpt lat="49.32743" lon="6.7382">
        <ele>178.6</ele>
        <time>2020-09-24T17:12:35Z</time>
      </trkpt>
      <trkpt lat="49.32743" lon="6.7381">
        <ele>178.8</ele>
        <time>2020-09-24T17:12:36Z</time>
      </trkpt>
      <trkpt lat="49.32743" lon="6.73793">
        <ele>178.8</ele>
        <time>2020-09-24T17:12:38Z</time>
      </trkpt>
      <trkpt lat="49.3275" lon="6.73784">
        <ele>179</ele>
        <time>2020-09-24T17:12:40Z</time>
      </trkpt>
      <trkpt lat="49.32753" lon="6.73781">
        <ele>179</ele>
        <time>2020-09-24T17:12:41Z</time>
      </trkpt>
      <trkpt lat="49.32762" lon="6.73766">
        <ele>179.2</ele>
        <time>2020-09-24T17:12:44Z</time>
      </trkpt>
      <trkpt lat="49.32771" lon="6.73758">
        <ele>179.4</ele>
        <time>2020-09-24T17:12:46Z</time>
      </trkpt>
      <trkpt lat="49.32774" lon="6.73758">
        <ele>179.4</ele>
        <time>2020-09-24T17:12:47Z</time>
      </trkpt>
      <trkpt lat="49.32778" lon="6.73758">
        <ele>179.4</ele>
        <time>2020-09-24T17:12:48Z</time>
      </trkpt>
      <trkpt lat="49.32785" lon="6.73758">
        <ele>179.4</ele>
        <time>2020-09-24T17:12:50Z</time>
      </trkpt>
      <trkpt lat="49.328" lon="6.73741">
        <ele>179.4</ele>
        <time>2020-09-24T17:12:54Z</time>
      </trkpt>
      <trkpt lat="49.32835" lon="6.73691">
        <ele>179.4</ele>
        <time>2020-09-24T17:13:03Z</time>
      </trkpt>
      <trkpt lat="49.32852" lon="6.73668">
        <ele>179.4</ele>
        <time>2020-09-24T17:13:07Z</time>
      </trkpt>
      <trkpt lat="49.3286" lon="6.73656">
        <ele>179.4</ele>
        <time>2020-09-24T17:13:09Z</time>
      </trkpt>
      <trkpt lat="49.32897" lon="6.73603">
        <ele>179.4</ele>
        <time>2020-09-24T17:13:18Z</time>
      </trkpt>
      <trkpt lat="49.32933" lon="6.73553">
        <ele>179.2</ele>
        <time>2020-09-24T17:13:27Z</time>
      </trkpt>
      <trkpt lat="49.32965" lon="6.73506">
        <ele>179.2</ele>
        <time>2020-09-24T17:13:35Z</time>
      </trkpt>
      <trkpt lat="49.33007" lon="6.73447">
        <ele>179.2</ele>
        <time>2020-09-24T17:13:45Z</time>
      </trkpt>
      <trkpt lat="49.33037" lon="6.73404">
        <ele>179</ele>
        <time>2020-09-24T17:13:52Z</time>
      </trkpt>
      <trkpt lat="49.33073" lon="6.73353">
        <ele>179</ele>
        <time>2020-09-24T17:14:00Z</time>
      </trkpt>
      <trkpt lat="49.33105" lon="6.73307">
        <ele>179</ele>
        <time>2020-09-24T17:14:07Z</time>
      </trkpt>
      <trkpt lat="49.33141" lon="6.73252">
        <ele>179.2</ele>
        <time>2020-09-24T17:14:15Z</time>
      </trkpt>
      <trkpt lat="49.33172" lon="6.73202">
        <ele>179</ele>
        <time>2020-09-24T17:14:22Z</time>
      </trkpt>
      <trkpt lat="49.33212" lon="6.73137">
        <ele>179</ele>
        <time>2020-09-24T17:14:31Z</time>
      </trkpt>
      <trkpt lat="49.33217" lon="6.7313">
        <ele>179</ele>
        <time>2020-09-24T17:14:32Z</time>
      </trkpt>
      <trkpt lat="49.33253" lon="6.73072">
        <ele>179</ele>
        <time>2020-09-24T17:14:40Z</time>
      </trkpt>
      <trkpt lat="49.33291" lon="6.73004">
        <ele>179</ele>
        <time>2020-09-24T17:14:49Z</time>
      </trkpt>
      <trkpt lat="49.33303" lon="6.72981">
        <ele>179</ele>
        <time>2020-09-24T17:14:52Z</time>
      </trkpt>
      <trkpt lat="49.33329" lon="6.72933">
        <ele>179</ele>
        <time>2020-09-24T17:14:59Z</time>
      </trkpt>
      <trkpt lat="49.33354" lon="6.72886">
        <ele>178.8</ele>
        <time>2020-09-24T17:15:06Z</time>
      </trkpt>
      <trkpt lat="49.33364" lon="6.72868">
        <ele>178.6</ele>
        <time>2020-09-24T17:15:09Z</time>
      </trkpt>
      <trkpt lat="49.3337" lon="6.72857">
        <ele>178.6</ele>
        <time>2020-09-24T17:15:11Z</time>
      </trkpt>
      <trkpt lat="49.33375" lon="6.72846">
        <ele>178.8</ele>
        <time>2020-09-24T17:15:13Z</time>
      </trkpt>
      <trkpt lat="49.33383" lon="6.72833">
        <ele>178.8</ele>
        <time>2020-09-24T17:15:16Z</time>
      </trkpt>
      <trkpt lat="49.33385" lon="6.72828">
        <ele>178.6</ele>
        <time>2020-09-24T17:15:20Z</time>
      </trkpt>
      <trkpt lat="49.33385" lon="6.72828">
        <ele>178.4</ele>
        <time>2020-09-24T17:15:21Z</time>
      </trkpt>
      <trkpt lat="49.33379" lon="6.72824">
        <ele>178.6</ele>
        <time>2020-09-24T17:15:24Z</time>
      </trkpt>
      <trkpt lat="49.33357" lon="6.7282">
        <ele>178.8</ele>
        <time>2020-09-24T17:15:30Z</time>
      </trkpt>
      <trkpt lat="49.33343" lon="6.72818">
        <ele>178.8</ele>
        <time>2020-09-24T17:15:36Z</time>
      </trkpt>
      <trkpt lat="49.33324" lon="6.72816">
        <ele>178.8</ele>
        <time>2020-09-24T17:15:42Z</time>
      </trkpt>
      <trkpt lat="49.33291" lon="6.72811">
        <ele>179</ele>
        <time>2020-09-24T17:15:50Z</time>
      </trkpt>
      <trkpt lat="49.33283" lon="6.7281">
        <ele>179</ele>
        <time>2020-09-24T17:15:52Z</time>
      </trkpt>
      <trkpt lat="49.33275" lon="6.72806">
        <ele>179</ele>
        <time>2020-09-24T17:15:54Z</time>
      </trkpt>
      <trkpt lat="49.33274" lon="6.72793">
        <ele>179</ele>
        <time>2020-09-24T17:15:56Z</time>
      </trkpt>
      <trkpt lat="49.33277" lon="6.72791">
        <ele>179</ele>
        <time>2020-09-24T17:15:57Z</time>
      </trkpt>
      <trkpt lat="49.33297" lon="6.72777">
        <ele>179.2</ele>
        <time>2020-09-24T17:16:03Z</time>
      </trkpt>
      <trkpt lat="49.33318" lon="6.72767">
        <ele>179.4</ele>
        <time>2020-09-24T17:16:09Z</time>
      </trkpt>
      <trkpt lat="49.33339" lon="6.72768">
        <ele>179.8</ele>
        <time>2020-09-24T17:16:15Z</time>
      </trkpt>
      <trkpt lat="49.33356" lon="6.72772">
        <ele>180.4</ele>
        <time>2020-09-24T17:16:21Z</time>
      </trkpt>
      <trkpt lat="49.33362" lon="6.72776">
        <ele>181</ele>
        <time>2020-09-24T17:16:25Z</time>
      </trkpt>
      <trkpt lat="49.33359" lon="6.72773">
        <ele>181.2</ele>
        <time>2020-09-24T17:16:27Z</time>
      </trkpt>
      <trkpt lat="49.33359" lon="6.72773">
        <ele>181.6</ele>
        <time>2020-09-24T17:16:33Z</time>
      </trkpt>
      <trkpt lat="49.33359" lon="6.72773">
        <ele>182</ele>
        <time>2020-09-24T17:16:41Z</time>
      </trkpt>
      <trkpt lat="49.33359" lon="6.72773">
        <ele>182.2</ele>
        <time>2020-09-24T17:16:44Z</time>
      </trkpt>
      <trkpt lat="49.33364" lon="6.72779">
        <ele>182.4</ele>
        <time>2020-09-24T17:16:46Z</time>
      </trkpt>
      <trkpt lat="49.33353" lon="6.7277">
        <ele>182.6</ele>
        <time>2020-09-24T17:16:50Z</time>
      </trkpt>
      <trkpt lat="49.33346" lon="6.7277">
        <ele>182.6</ele>
        <time>2020-09-24T17:16:53Z</time>
      </trkpt>
      <trkpt lat="49.33341" lon="6.72769">
        <ele>182.6</ele>
        <time>2020-09-24T17:16:54Z</time>
      </trkpt>
      <trkpt lat="49.33317" lon="6.72768">
        <ele>182.2</ele>
        <time>2020-09-24T17:16:58Z</time>
      </trkpt>
      <trkpt lat="49.33306" lon="6.72773">
        <ele>182.2</ele>
        <time>2020-09-24T17:17:00Z</time>
      </trkpt>
      <trkpt lat="49.3329" lon="6.7278">
        <ele>181.8</ele>
        <time>2020-09-24T17:17:03Z</time>
      </trkpt>
      <trkpt lat="49.3328" lon="6.72788">
        <ele>181.8</ele>
        <time>2020-09-24T17:17:05Z</time>
      </trkpt>
      <trkpt lat="49.33273" lon="6.72794">
        <ele>181.6</ele>
        <time>2020-09-24T17:17:07Z</time>
      </trkpt>
      <trkpt lat="49.33275" lon="6.72806">
        <ele>181.6</ele>
        <time>2020-09-24T17:17:08Z</time>
      </trkpt>
      <trkpt lat="49.33278" lon="6.72808">
        <ele>181.6</ele>
        <time>2020-09-24T17:17:09Z</time>
      </trkpt>
      <trkpt lat="49.33285" lon="6.7281">
        <ele>181.4</ele>
        <time>2020-09-24T17:17:11Z</time>
      </trkpt>
      <trkpt lat="49.33307" lon="6.72813">
        <ele>181.4</ele>
        <time>2020-09-24T17:17:16Z</time>
      </trkpt>
      <trkpt lat="49.33316" lon="6.72814">
        <ele>181.4</ele>
        <time>2020-09-24T17:17:18Z</time>
      </trkpt>
      <trkpt lat="49.33348" lon="6.72819">
        <ele>181</ele>
        <time>2020-09-24T17:17:25Z</time>
      </trkpt>
      <trkpt lat="49.33376" lon="6.72823">
        <ele>180.8</ele>
        <time>2020-09-24T17:17:32Z</time>
      </trkpt>
      <trkpt lat="49.3338" lon="6.72824">
        <ele>180.8</ele>
        <time>2020-09-24T17:17:33Z</time>
      </trkpt>
      <trkpt lat="49.33385" lon="6.72824">
        <ele>180.8</ele>
        <time>2020-09-24T17:17:35Z</time>
      </trkpt>
      <trkpt lat="49.33387" lon="6.72825">
        <ele>180.8</ele>
        <time>2020-09-24T17:17:40Z</time>
      </trkpt>
      <trkpt lat="49.33387" lon="6.72825">
        <ele>180.8</ele>
        <time>2020-09-24T17:17:46Z</time>
      </trkpt>
      <trkpt lat="49.33387" lon="6.72825">
        <ele>180.8</ele>
        <time>2020-09-24T17:17:53Z</time>
      </trkpt>
      <trkpt lat="49.33387" lon="6.72825">
        <ele>180.8</ele>
        <time>2020-09-24T17:18:01Z</time>
      </trkpt>
      <trkpt lat="49.33387" lon="6.72825">
        <ele>181</ele>
        <time>2020-09-24T17:18:06Z</time>
      </trkpt>
      <trkpt lat="49.33388" lon="6.72823">
        <ele>181</ele>
        <time>2020-09-24T17:18:12Z</time>
      </trkpt>
      <trkpt lat="49.33388" lon="6.72823">
        <ele>181</ele>
        <time>2020-09-24T17:18:18Z</time>
      </trkpt>
      <trkpt lat="49.33388" lon="6.72823">
        <ele>181</ele>
        <time>2020-09-24T17:18:37Z</time>
      </trkpt>
      <trkpt lat="49.33388" lon="6.72822">
        <ele>181</ele>
        <time>2020-09-24T17:18:39Z</time>
      </trkpt>
      <trkpt lat="49.33391" lon="6.72818">
        <ele>181</ele>
        <time>2020-09-24T17:18:42Z</time>
      </trkpt>
      <trkpt lat="49.33393" lon="6.72815">
        <ele>181</ele>
        <time>2020-09-24T17:18:44Z</time>
      </trkpt>
      <trkpt lat="49.33394" lon="6.72813">
        <ele>181</ele>
        <time>2020-09-24T17:18:46Z</time>
      </trkpt>
      <trkpt lat="49.33401" lon="6.72799">
        <ele>180.8</ele>
        <time>2020-09-24T17:18:51Z</time>
      </trkpt>
      <trkpt lat="49.33409" lon="6.72784">
        <ele>180.4</ele>
        <time>2020-09-24T17:18:56Z</time>
      </trkpt>
      <trkpt lat="49.33421" lon="6.72762">
        <ele>180.4</ele>
        <time>2020-09-24T17:19:01Z</time>
      </trkpt>
      <trkpt lat="49.33435" lon="6.72738">
        <ele>180.4</ele>
        <time>2020-09-24T17:19:07Z</time>
      </trkpt>
      <trkpt lat="49.33457" lon="6.72698">
        <ele>180.4</ele>
        <time>2020-09-24T17:19:15Z</time>
      </trkpt>
      <trkpt lat="49.33461" lon="6.72692">
        <ele>180.4</ele>
        <time>2020-09-24T17:19:16Z</time>
      </trkpt>
      <trkpt lat="49.33474" lon="6.72668">
        <ele>180.2</ele>
        <time>2020-09-24T17:19:20Z</time>
      </trkpt>
      <trkpt lat="49.33498" lon="6.72625">
        <ele>180</ele>
        <time>2020-09-24T17:19:27Z</time>
      </trkpt>
      <trkpt lat="49.33522" lon="6.72578">
        <ele>179.8</ele>
        <time>2020-09-24T17:19:34Z</time>
      </trkpt>
      <trkpt lat="49.33545" lon="6.7253">
        <ele>179.8</ele>
        <time>2020-09-24T17:19:41Z</time>
      </trkpt>
      <trkpt lat="49.33576" lon="6.72466">
        <ele>179.6</ele>
        <time>2020-09-24T17:19:50Z</time>
      </trkpt>
      <trkpt lat="49.33612" lon="6.72393">
        <ele>179.6</ele>
        <time>2020-09-24T17:20:00Z</time>
      </trkpt>
      <trkpt lat="49.33643" lon="6.72324">
        <ele>179.4</ele>
        <time>2020-09-24T17:20:09Z</time>
      </trkpt>
      <trkpt lat="49.33669" lon="6.72259">
        <ele>179.4</ele>
        <time>2020-09-24T17:20:17Z</time>
      </trkpt>
      <trkpt lat="49.33692" lon="6.72201">
        <ele>179.6</ele>
        <time>2020-09-24T17:20:24Z</time>
      </trkpt>
      <trkpt lat="49.33715" lon="6.72144">
        <ele>179.6</ele>
        <time>2020-09-24T17:20:31Z</time>
      </trkpt>
      <trkpt lat="49.33738" lon="6.72086">
        <ele>179.4</ele>
        <time>2020-09-24T17:20:38Z</time>
      </trkpt>
      <trkpt lat="49.33761" lon="6.72029">
        <ele>179.4</ele>
        <time>2020-09-24T17:20:45Z</time>
      </trkpt>
      <trkpt lat="49.33779" lon="6.71976">
        <ele>179.4</ele>
        <time>2020-09-24T17:20:51Z</time>
      </trkpt>
      <trkpt lat="49.33801" lon="6.71906">
        <ele>179.4</ele>
        <time>2020-09-24T17:20:59Z</time>
      </trkpt>
      <trkpt lat="49.33827" lon="6.71826">
        <ele>179.6</ele>
        <time>2020-09-24T17:21:08Z</time>
      </trkpt>
      <trkpt lat="49.33844" lon="6.71775">
        <ele>179.6</ele>
        <time>2020-09-24T17:21:14Z</time>
      </trkpt>
      <trkpt lat="49.33863" lon="6.71713">
        <ele>179.6</ele>
        <time>2020-09-24T17:21:21Z</time>
      </trkpt>
      <trkpt lat="49.33884" lon="6.71649">
        <ele>179.6</ele>
        <time>2020-09-24T17:21:28Z</time>
      </trkpt>
      <trkpt lat="49.33897" lon="6.71605">
        <ele>179.6</ele>
        <time>2020-09-24T17:21:33Z</time>
      </trkpt>
      <trkpt lat="49.339" lon="6.71596">
        <ele>179.6</ele>
        <time>2020-09-24T17:21:34Z</time>
      </trkpt>
      <trkpt lat="49.3392" lon="6.71549">
        <ele>179.6</ele>
        <time>2020-09-24T17:21:40Z</time>
      </trkpt>
      <trkpt lat="49.33934" lon="6.71518">
        <ele>179.6</ele>
        <time>2020-09-24T17:21:44Z</time>
      </trkpt>
      <trkpt lat="49.33936" lon="6.71508">
        <ele>179.6</ele>
        <time>2020-09-24T17:21:45Z</time>
      </trkpt>
      <trkpt lat="49.33947" lon="6.71439">
        <ele>179.8</ele>
        <time>2020-09-24T17:21:52Z</time>
      </trkpt>
      <trkpt lat="49.33969" lon="6.71368">
        <ele>179.8</ele>
        <time>2020-09-24T17:22:00Z</time>
      </trkpt>
      <trkpt lat="49.33988" lon="6.71309">
        <ele>179.8</ele>
        <time>2020-09-24T17:22:07Z</time>
      </trkpt>
      <trkpt lat="49.34014" lon="6.71234">
        <ele>179.6</ele>
        <time>2020-09-24T17:22:16Z</time>
      </trkpt>
      <trkpt lat="49.34033" lon="6.71185">
        <ele>179.6</ele>
        <time>2020-09-24T17:22:22Z</time>
      </trkpt>
      <trkpt lat="49.34056" lon="6.71128">
        <ele>180</ele>
        <time>2020-09-24T17:22:29Z</time>
      </trkpt>
      <trkpt lat="49.34059" lon="6.7112">
        <ele>179.8</ele>
        <time>2020-09-24T17:22:30Z</time>
      </trkpt>
      <trkpt lat="49.34066" lon="6.71103">
        <ele>180</ele>
        <time>2020-09-24T17:22:32Z</time>
      </trkpt>
      <trkpt lat="49.34079" lon="6.7107">
        <ele>180</ele>
        <time>2020-09-24T17:22:36Z</time>
      </trkpt>
      <trkpt lat="49.34082" lon="6.71062">
        <ele>180.2</ele>
        <time>2020-09-24T17:22:37Z</time>
      </trkpt>
      <trkpt lat="49.34086" lon="6.71053">
        <ele>180.2</ele>
        <time>2020-09-24T17:22:38Z</time>
      </trkpt>
      <trkpt lat="49.34095" lon="6.71029">
        <ele>180.2</ele>
        <time>2020-09-24T17:22:41Z</time>
      </trkpt>
      <trkpt lat="49.34111" lon="6.7099">
        <ele>180.2</ele>
        <time>2020-09-24T17:22:46Z</time>
      </trkpt>
      <trkpt lat="49.34134" lon="6.70934">
        <ele>180.4</ele>
        <time>2020-09-24T17:22:53Z</time>
      </trkpt>
      <trkpt lat="49.34152" lon="6.70896">
        <ele>180.4</ele>
        <time>2020-09-24T17:22:58Z</time>
      </trkpt>
      <trkpt lat="49.3416" lon="6.7088">
        <ele>180.4</ele>
        <time>2020-09-24T17:23:00Z</time>
      </trkpt>
      <trkpt lat="49.34172" lon="6.70856">
        <ele>180.6</ele>
        <time>2020-09-24T17:23:03Z</time>
      </trkpt>
      <trkpt lat="49.34179" lon="6.70841">
        <ele>180.6</ele>
        <time>2020-09-24T17:23:05Z</time>
      </trkpt>
      <trkpt lat="49.34201" lon="6.70796">
        <ele>180.6</ele>
        <time>2020-09-24T17:23:11Z</time>
      </trkpt>
      <trkpt lat="49.34212" lon="6.70774">
        <ele>180.6</ele>
        <time>2020-09-24T17:23:14Z</time>
      </trkpt>
      <trkpt lat="49.34216" lon="6.70766">
        <ele>180.6</ele>
        <time>2020-09-24T17:23:15Z</time>
      </trkpt>
      <trkpt lat="49.34244" lon="6.70714">
        <ele>180.4</ele>
        <time>2020-09-24T17:23:22Z</time>
      </trkpt>
      <trkpt lat="49.34282" lon="6.70648">
        <ele>180.4</ele>
        <time>2020-09-24T17:23:31Z</time>
      </trkpt>
      <trkpt lat="49.34312" lon="6.70597">
        <ele>180.2</ele>
        <time>2020-09-24T17:23:38Z</time>
      </trkpt>
      <trkpt lat="49.34348" lon="6.70541">
        <ele>179.8</ele>
        <time>2020-09-24T17:23:46Z</time>
      </trkpt>
      <trkpt lat="49.34357" lon="6.70527">
        <ele>179.6</ele>
        <time>2020-09-24T17:23:48Z</time>
      </trkpt>
      <trkpt lat="49.34371" lon="6.70507">
        <ele>179.6</ele>
        <time>2020-09-24T17:23:51Z</time>
      </trkpt>
      <trkpt lat="49.34404" lon="6.70462">
        <ele>179.4</ele>
        <time>2020-09-24T17:23:58Z</time>
      </trkpt>
      <trkpt lat="49.34441" lon="6.70419">
        <ele>179.2</ele>
        <time>2020-09-24T17:24:05Z</time>
      </trkpt>
      <trkpt lat="49.34483" lon="6.70373">
        <ele>179.4</ele>
        <time>2020-09-24T17:24:13Z</time>
      </trkpt>
      <trkpt lat="49.34523" lon="6.7034">
        <ele>179.2</ele>
        <time>2020-09-24T17:24:20Z</time>
      </trkpt>
      <trkpt lat="49.34558" lon="6.70312">
        <ele>179.2</ele>
        <time>2020-09-24T17:24:26Z</time>
      </trkpt>
      <trkpt lat="49.34592" lon="6.70286">
        <ele>179.2</ele>
        <time>2020-09-24T17:24:32Z</time>
      </trkpt>
      <trkpt lat="49.34621" lon="6.70265">
        <ele>179.4</ele>
        <time>2020-09-24T17:24:38Z</time>
      </trkpt>
      <trkpt lat="49.34646" lon="6.70252">
        <ele>179.6</ele>
        <time>2020-09-24T17:24:43Z</time>
      </trkpt>
      <trkpt lat="49.34669" lon="6.70241">
        <ele>179.6</ele>
        <time>2020-09-24T17:24:47Z</time>
      </trkpt>
      <trkpt lat="49.34711" lon="6.7022">
        <ele>179.6</ele>
        <time>2020-09-24T17:24:54Z</time>
      </trkpt>
      <trkpt lat="49.34753" lon="6.70207">
        <ele>179.8</ele>
        <time>2020-09-24T17:25:01Z</time>
      </trkpt>
      <trkpt lat="49.34795" lon="6.70196">
        <ele>179.8</ele>
        <time>2020-09-24T17:25:08Z</time>
      </trkpt>
      <trkpt lat="49.34831" lon="6.70191">
        <ele>179.8</ele>
        <time>2020-09-24T17:25:14Z</time>
      </trkpt>
      <trkpt lat="49.34866" lon="6.70186">
        <ele>179.8</ele>
        <time>2020-09-24T17:25:20Z</time>
      </trkpt>
      <trkpt lat="49.34906" lon="6.70181">
        <ele>179.6</ele>
        <time>2020-09-24T17:25:27Z</time>
      </trkpt>
      <trkpt lat="49.34937" lon="6.70182">
        <ele>179.4</ele>
        <time>2020-09-24T17:25:32Z</time>
      </trkpt>
      <trkpt lat="49.34978" lon="6.70183">
        <ele>179.2</ele>
        <time>2020-09-24T17:25:39Z</time>
      </trkpt>
      <trkpt lat="49.35008" lon="6.70184">
        <ele>178.8</ele>
        <time>2020-09-24T17:25:44Z</time>
      </trkpt>
      <trkpt lat="49.35045" lon="6.70185">
        <ele>178.4</ele>
        <time>2020-09-24T17:25:50Z</time>
      </trkpt>
      <trkpt lat="49.35089" lon="6.70186">
        <ele>178.4</ele>
        <time>2020-09-24T17:25:57Z</time>
      </trkpt>
      <trkpt lat="49.35134" lon="6.70187">
        <ele>178.4</ele>
        <time>2020-09-24T17:26:04Z</time>
      </trkpt>
      <trkpt lat="49.35166" lon="6.70184">
        <ele>178.2</ele>
        <time>2020-09-24T17:26:09Z</time>
      </trkpt>
      <trkpt lat="49.35211" lon="6.70177">
        <ele>178.2</ele>
        <time>2020-09-24T17:26:16Z</time>
      </trkpt>
      <trkpt lat="49.35262" lon="6.70164">
        <ele>178.2</ele>
        <time>2020-09-24T17:26:24Z</time>
      </trkpt>
      <trkpt lat="49.35306" lon="6.70149">
        <ele>178.4</ele>
        <time>2020-09-24T17:26:31Z</time>
      </trkpt>
      <trkpt lat="49.35352" lon="6.70134">
        <ele>178.4</ele>
        <time>2020-09-24T17:26:38Z</time>
      </trkpt>
      <trkpt lat="49.35404" lon="6.70116">
        <ele>178.4</ele>
        <time>2020-09-24T17:26:46Z</time>
      </trkpt>
      <trkpt lat="49.35429" lon="6.70104">
        <ele>178.6</ele>
        <time>2020-09-24T17:26:50Z</time>
      </trkpt>
      <trkpt lat="49.35481" lon="6.7008">
        <ele>178.6</ele>
        <time>2020-09-24T17:26:58Z</time>
      </trkpt>
      <trkpt lat="49.35517" lon="6.70058">
        <ele>178.8</ele>
        <time>2020-09-24T17:27:04Z</time>
      </trkpt>
      <trkpt lat="49.35557" lon="6.70035">
        <ele>178.6</ele>
        <time>2020-09-24T17:27:10Z</time>
      </trkpt>
      <trkpt lat="49.35586" lon="6.70017">
        <ele>178.4</ele>
        <time>2020-09-24T17:27:17Z</time>
      </trkpt>
      <trkpt lat="49.35598" lon="6.70009">
        <ele>178.4</ele>
        <time>2020-09-24T17:27:20Z</time>
      </trkpt>
      <trkpt lat="49.35606" lon="6.70004">
        <ele>178.4</ele>
        <time>2020-09-24T17:27:22Z</time>
      </trkpt>
      <trkpt lat="49.35612" lon="6.7">
        <ele>178.4</ele>
        <time>2020-09-24T17:27:24Z</time>
      </trkpt>
      <trkpt lat="49.35615" lon="6.69998">
        <ele>178.4</ele>
        <time>2020-09-24T17:27:25Z</time>
      </trkpt>
      <trkpt lat="49.3563" lon="6.69987">
        <ele>178.4</ele>
        <time>2020-09-24T17:27:29Z</time>
      </trkpt>
      <trkpt lat="49.35635" lon="6.69984">
        <ele>178.4</ele>
        <time>2020-09-24T17:27:30Z</time>
      </trkpt>
      <trkpt lat="49.35652" lon="6.69972">
        <ele>178.6</ele>
        <time>2020-09-24T17:27:34Z</time>
      </trkpt>
      <trkpt lat="49.35663" lon="6.69955">
        <ele>178.6</ele>
        <time>2020-09-24T17:27:38Z</time>
      </trkpt>
      <trkpt lat="49.35667" lon="6.69949">
        <ele>178.6</ele>
        <time>2020-09-24T17:27:39Z</time>
      </trkpt>
      <trkpt lat="49.35675" lon="6.69937">
        <ele>178.6</ele>
        <time>2020-09-24T17:27:40Z</time>
      </trkpt>
      <trkpt lat="49.35682" lon="6.69926">
        <ele>178.4</ele>
        <time>2020-09-24T17:27:43Z</time>
      </trkpt>
      <trkpt lat="49.35686" lon="6.69921">
        <ele>178.4</ele>
        <time>2020-09-24T17:27:44Z</time>
      </trkpt>
      <trkpt lat="49.35701" lon="6.69899">
        <ele>178.4</ele>
        <time>2020-09-24T17:27:47Z</time>
      </trkpt>
      <trkpt lat="49.35705" lon="6.69892">
        <ele>178.2</ele>
        <time>2020-09-24T17:27:49Z</time>
      </trkpt>
      <trkpt lat="49.35714" lon="6.6988">
        <ele>178.4</ele>
        <time>2020-09-24T17:27:51Z</time>
      </trkpt>
      <trkpt lat="49.35734" lon="6.6985">
        <ele>178.4</ele>
        <time>2020-09-24T17:27:56Z</time>
      </trkpt>
      <trkpt lat="49.35759" lon="6.69813">
        <ele>178.4</ele>
        <time>2020-09-24T17:28:02Z</time>
      </trkpt>
      <trkpt lat="49.35789" lon="6.69769">
        <ele>178.2</ele>
        <time>2020-09-24T17:28:09Z</time>
      </trkpt>
      <trkpt lat="49.35826" lon="6.69733">
        <ele>178.2</ele>
        <time>2020-09-24T17:28:16Z</time>
      </trkpt>
      <trkpt lat="49.3586" lon="6.69705">
        <ele>178.4</ele>
        <time>2020-09-24T17:28:22Z</time>
      </trkpt>
      <trkpt lat="49.35888" lon="6.69682">
        <ele>178.4</ele>
        <time>2020-09-24T17:28:27Z</time>
      </trkpt>
      <trkpt lat="49.35911" lon="6.69663">
        <ele>178.4</ele>
        <time>2020-09-24T17:28:31Z</time>
      </trkpt>
      <trkpt lat="49.35916" lon="6.69659">
        <ele>178.2</ele>
        <time>2020-09-24T17:28:32Z</time>
      </trkpt>
      <trkpt lat="49.3595" lon="6.69632">
        <ele>178.2</ele>
        <time>2020-09-24T17:28:38Z</time>
      </trkpt>
      <trkpt lat="49.35999" lon="6.69609">
        <ele>178</ele>
        <time>2020-09-24T17:28:46Z</time>
      </trkpt>
      <trkpt lat="49.36043" lon="6.69589">
        <ele>177.8</ele>
        <time>2020-09-24T17:28:53Z</time>
      </trkpt>
      <trkpt lat="49.36091" lon="6.69563">
        <ele>177.8</ele>
        <time>2020-09-24T17:29:01Z</time>
      </trkpt>
      <trkpt lat="49.36127" lon="6.69536">
        <ele>177.8</ele>
        <time>2020-09-24T17:29:07Z</time>
      </trkpt>
      <trkpt lat="49.36157" lon="6.69517">
        <ele>177.8</ele>
        <time>2020-09-24T17:29:12Z</time>
      </trkpt>
      <trkpt lat="49.36163" lon="6.69516">
        <ele>177.8</ele>
        <time>2020-09-24T17:29:13Z</time>
      </trkpt>
      <trkpt lat="49.3619" lon="6.69517">
        <ele>177.6</ele>
        <time>2020-09-24T17:29:17Z</time>
      </trkpt>
      <trkpt lat="49.36221" lon="6.69524">
        <ele>177.6</ele>
        <time>2020-09-24T17:29:22Z</time>
      </trkpt>
      <trkpt lat="49.36239" lon="6.69539">
        <ele>177.6</ele>
        <time>2020-09-24T17:29:25Z</time>
      </trkpt>
      <trkpt lat="49.36244" lon="6.69545">
        <ele>177.6</ele>
        <time>2020-09-24T17:29:26Z</time>
      </trkpt>
      <trkpt lat="49.36277" lon="6.69578">
        <ele>177.8</ele>
        <time>2020-09-24T17:29:32Z</time>
      </trkpt>
      <trkpt lat="49.36306" lon="6.69598">
        <ele>177.8</ele>
        <time>2020-09-24T17:29:37Z</time>
      </trkpt>
      <trkpt lat="49.3635" lon="6.69618">
        <ele>177.8</ele>
        <time>2020-09-24T17:29:44Z</time>
      </trkpt>
      <trkpt lat="49.36362" lon="6.69624">
        <ele>177.8</ele>
        <time>2020-09-24T17:29:46Z</time>
      </trkpt>
      <trkpt lat="49.36381" lon="6.69633">
        <ele>177.8</ele>
        <time>2020-09-24T17:29:49Z</time>
      </trkpt>
      <trkpt lat="49.36398" lon="6.69646">
        <ele>178</ele>
        <time>2020-09-24T17:29:52Z</time>
      </trkpt>
      <trkpt lat="49.36402" lon="6.69653">
        <ele>178</ele>
        <time>2020-09-24T17:29:53Z</time>
      </trkpt>
      <trkpt lat="49.36414" lon="6.69685">
        <ele>177.8</ele>
        <time>2020-09-24T17:29:57Z</time>
      </trkpt>
      <trkpt lat="49.36433" lon="6.69689">
        <ele>177.6</ele>
        <time>2020-09-24T17:30:00Z</time>
      </trkpt>
      <trkpt lat="49.36449" lon="6.69688">
        <ele>178</ele>
        <time>2020-09-24T17:30:03Z</time>
      </trkpt>
      <trkpt lat="49.36481" lon="6.69689">
        <ele>178.2</ele>
        <time>2020-09-24T17:30:08Z</time>
      </trkpt>
      <trkpt lat="49.36502" lon="6.6969">
        <ele>178.4</ele>
        <time>2020-09-24T17:30:12Z</time>
      </trkpt>
      <trkpt lat="49.36526" lon="6.69692">
        <ele>178.4</ele>
        <time>2020-09-24T17:30:16Z</time>
      </trkpt>
      <trkpt lat="49.36538" lon="6.69693">
        <ele>178.4</ele>
        <time>2020-09-24T17:30:18Z</time>
      </trkpt>
      <trkpt lat="49.36566" lon="6.69695">
        <ele>178.4</ele>
        <time>2020-09-24T17:30:23Z</time>
      </trkpt>
      <trkpt lat="49.36604" lon="6.69697">
        <ele>178.4</ele>
        <time>2020-09-24T17:30:30Z</time>
      </trkpt>
      <trkpt lat="49.36633" lon="6.69699">
        <ele>178.6</ele>
        <time>2020-09-24T17:30:35Z</time>
      </trkpt>
      <trkpt lat="49.36639" lon="6.69699">
        <ele>178.4</ele>
        <time>2020-09-24T17:30:36Z</time>
      </trkpt>
      <trkpt lat="49.36673" lon="6.69702">
        <ele>178.2</ele>
        <time>2020-09-24T17:30:42Z</time>
      </trkpt>
      <trkpt lat="49.36714" lon="6.69704">
        <ele>178.2</ele>
        <time>2020-09-24T17:30:49Z</time>
      </trkpt>
      <trkpt lat="49.36743" lon="6.69706">
        <ele>177.8</ele>
        <time>2020-09-24T17:30:54Z</time>
      </trkpt>
      <trkpt lat="49.3679" lon="6.69709">
        <ele>177.6</ele>
        <time>2020-09-24T17:31:01Z</time>
      </trkpt>
      <trkpt lat="49.36819" lon="6.69709">
        <ele>177.4</ele>
        <time>2020-09-24T17:31:07Z</time>
      </trkpt>
      <trkpt lat="49.36861" lon="6.69709">
        <ele>177.4</ele>
        <time>2020-09-24T17:31:14Z</time>
      </trkpt>
      <trkpt lat="49.36896" lon="6.69709">
        <ele>177.4</ele>
        <time>2020-09-24T17:31:20Z</time>
      </trkpt>
      <trkpt lat="49.36902" lon="6.69709">
        <ele>177.4</ele>
        <time>2020-09-24T17:31:21Z</time>
      </trkpt>
      <trkpt lat="49.36945" lon="6.6971">
        <ele>177.4</ele>
        <time>2020-09-24T17:31:28Z</time>
      </trkpt>
      <trkpt lat="49.36988" lon="6.69713">
        <ele>177.2</ele>
        <time>2020-09-24T17:31:35Z</time>
      </trkpt>
      <trkpt lat="49.37" lon="6.69713">
        <ele>177.2</ele>
        <time>2020-09-24T17:31:37Z</time>
      </trkpt>
      <trkpt lat="49.37013" lon="6.69714">
        <ele>177.2</ele>
        <time>2020-09-24T17:31:39Z</time>
      </trkpt>
      <trkpt lat="49.37038" lon="6.69716">
        <ele>177.2</ele>
        <time>2020-09-24T17:31:43Z</time>
      </trkpt>
      <trkpt lat="49.37044" lon="6.69716">
        <ele>177.2</ele>
        <time>2020-09-24T17:31:44Z</time>
      </trkpt>
      <trkpt lat="49.37067" lon="6.69717">
        <ele>177.2</ele>
        <time>2020-09-24T17:31:48Z</time>
      </trkpt>
      <trkpt lat="49.37073" lon="6.69718">
        <ele>177.2</ele>
        <time>2020-09-24T17:31:49Z</time>
      </trkpt>
      <trkpt lat="49.37097" lon="6.69719">
        <ele>177.4</ele>
        <time>2020-09-24T17:31:53Z</time>
      </trkpt>
      <trkpt lat="49.37147" lon="6.69722">
        <ele>177.4</ele>
        <time>2020-09-24T17:32:00Z</time>
      </trkpt>
      <trkpt lat="49.37147" lon="6.69722">
        <ele>177.4</ele>
        <time>2020-09-24T17:32:01Z</time>
      </trkpt>
      <trkpt lat="49.37172" lon="6.69723">
        <ele>177.4</ele>
        <time>2020-09-24T17:32:05Z</time>
      </trkpt>
      <trkpt lat="49.37223" lon="6.69726">
        <ele>177.4</ele>
        <time>2020-09-24T17:32:13Z</time>
      </trkpt>
      <trkpt lat="49.37255" lon="6.69728">
        <ele>177.2</ele>
        <time>2020-09-24T17:32:18Z</time>
      </trkpt>
      <trkpt lat="49.37286" lon="6.6973">
        <ele>177</ele>
        <time>2020-09-24T17:32:23Z</time>
      </trkpt>
      <trkpt lat="49.37331" lon="6.69732">
        <ele>177</ele>
        <time>2020-09-24T17:32:30Z</time>
      </trkpt>
      <trkpt lat="49.37375" lon="6.69737">
        <ele>177</ele>
        <time>2020-09-24T17:32:37Z</time>
      </trkpt>
      <trkpt lat="49.37389" lon="6.69741">
        <ele>177</ele>
        <time>2020-09-24T17:32:39Z</time>
      </trkpt>
      <trkpt lat="49.37409" lon="6.69739">
        <ele>176.8</ele>
        <time>2020-09-24T17:32:42Z</time>
      </trkpt>
      <trkpt lat="49.37445" lon="6.6975">
        <ele>176.4</ele>
        <time>2020-09-24T17:32:47Z</time>
      </trkpt>
      <trkpt lat="49.37487" lon="6.69761">
        <ele>176</ele>
        <time>2020-09-24T17:32:52Z</time>
      </trkpt>
      <trkpt lat="49.37532" lon="6.69763">
        <ele>175.8</ele>
        <time>2020-09-24T17:32:58Z</time>
      </trkpt>
      <trkpt lat="49.37585" lon="6.69766">
        <ele>175.4</ele>
        <time>2020-09-24T17:33:06Z</time>
      </trkpt>
      <trkpt lat="49.37631" lon="6.69768">
        <ele>175.2</ele>
        <time>2020-09-24T17:33:13Z</time>
      </trkpt>
      <trkpt lat="49.37644" lon="6.69769">
        <ele>175</ele>
        <time>2020-09-24T17:33:15Z</time>
      </trkpt>
      <trkpt lat="49.37659" lon="6.69759">
        <ele>175</ele>
        <time>2020-09-24T17:33:17Z</time>
      </trkpt>
      <trkpt lat="49.37664" lon="6.69754">
        <ele>175</ele>
        <time>2020-09-24T17:33:18Z</time>
      </trkpt>
      <trkpt lat="49.37675" lon="6.69745">
        <ele>175</ele>
        <time>2020-09-24T17:33:20Z</time>
      </trkpt>
      <trkpt lat="49.37715" lon="6.69747">
        <ele>174.8</ele>
        <time>2020-09-24T17:33:26Z</time>
      </trkpt>
      <trkpt lat="49.37769" lon="6.69745">
        <ele>174.6</ele>
        <time>2020-09-24T17:33:34Z</time>
      </trkpt>
      <trkpt lat="49.3782" lon="6.69729">
        <ele>174.6</ele>
        <time>2020-09-24T17:33:42Z</time>
      </trkpt>
      <trkpt lat="49.37865" lon="6.69711">
        <ele>174.4</ele>
        <time>2020-09-24T17:33:49Z</time>
      </trkpt>
      <trkpt lat="49.37903" lon="6.69695">
        <ele>174.2</ele>
        <time>2020-09-24T17:33:55Z</time>
      </trkpt>
      <trkpt lat="49.37946" lon="6.69664">
        <ele>174.2</ele>
        <time>2020-09-24T17:34:02Z</time>
      </trkpt>
      <trkpt lat="49.37976" lon="6.69641">
        <ele>174</ele>
        <time>2020-09-24T17:34:07Z</time>
      </trkpt>
      <trkpt lat="49.37998" lon="6.69619">
        <ele>173.6</ele>
        <time>2020-09-24T17:34:11Z</time>
      </trkpt>
      <trkpt lat="49.38031" lon="6.69585">
        <ele>173.2</ele>
        <time>2020-09-24T17:34:17Z</time>
      </trkpt>
      <trkpt lat="49.38073" lon="6.69534">
        <ele>173.2</ele>
        <time>2020-09-24T17:34:25Z</time>
      </trkpt>
      <trkpt lat="49.38103" lon="6.69493">
        <ele>173</ele>
        <time>2020-09-24T17:34:31Z</time>
      </trkpt>
      <trkpt lat="49.38139" lon="6.69432">
        <ele>173</ele>
        <time>2020-09-24T17:34:39Z</time>
      </trkpt>
      <trkpt lat="49.38144" lon="6.69424">
        <ele>173</ele>
        <time>2020-09-24T17:34:40Z</time>
      </trkpt>
      <trkpt lat="49.38172" lon="6.69368">
        <ele>173.2</ele>
        <time>2020-09-24T17:34:47Z</time>
      </trkpt>
      <trkpt lat="49.38194" lon="6.69316">
        <ele>173.2</ele>
        <time>2020-09-24T17:34:53Z</time>
      </trkpt>
      <trkpt lat="49.38216" lon="6.69254">
        <ele>173.2</ele>
        <time>2020-09-24T17:35:00Z</time>
      </trkpt>
      <trkpt lat="49.38241" lon="6.6918">
        <ele>173.2</ele>
        <time>2020-09-24T17:35:08Z</time>
      </trkpt>
      <trkpt lat="49.38244" lon="6.69171">
        <ele>173.2</ele>
        <time>2020-09-24T17:35:09Z</time>
      </trkpt>
      <trkpt lat="49.38264" lon="6.69113">
        <ele>173.2</ele>
        <time>2020-09-24T17:35:16Z</time>
      </trkpt>
      <trkpt lat="49.38271" lon="6.69086">
        <ele>173.4</ele>
        <time>2020-09-24T17:35:19Z</time>
      </trkpt>
      <trkpt lat="49.38274" lon="6.69077">
        <ele>173.2</ele>
        <time>2020-09-24T17:35:20Z</time>
      </trkpt>
      <trkpt lat="49.38294" lon="6.69004">
        <ele>173.2</ele>
        <time>2020-09-24T17:35:28Z</time>
      </trkpt>
      <trkpt lat="49.38309" lon="6.68948">
        <ele>173.2</ele>
        <time>2020-09-24T17:35:34Z</time>
      </trkpt>
      <trkpt lat="49.38326" lon="6.68885">
        <ele>173</ele>
        <time>2020-09-24T17:35:41Z</time>
      </trkpt>
      <trkpt lat="49.38338" lon="6.6884">
        <ele>173</ele>
        <time>2020-09-24T17:35:46Z</time>
      </trkpt>
      <trkpt lat="49.38343" lon="6.68822">
        <ele>173</ele>
        <time>2020-09-24T17:35:48Z</time>
      </trkpt>
      <trkpt lat="49.38359" lon="6.68763">
        <ele>173</ele>
        <time>2020-09-24T17:35:55Z</time>
      </trkpt>
      <trkpt lat="49.38372" lon="6.68713">
        <ele>172.8</ele>
        <time>2020-09-24T17:36:01Z</time>
      </trkpt>
      <trkpt lat="49.38383" lon="6.68671">
        <ele>172.8</ele>
        <time>2020-09-24T17:36:06Z</time>
      </trkpt>
      <trkpt lat="49.38395" lon="6.68628">
        <ele>172.8</ele>
        <time>2020-09-24T17:36:11Z</time>
      </trkpt>
      <trkpt lat="49.38397" lon="6.6862">
        <ele>172.8</ele>
        <time>2020-09-24T17:36:12Z</time>
      </trkpt>
      <trkpt lat="49.38404" lon="6.68596">
        <ele>172.6</ele>
        <time>2020-09-24T17:36:15Z</time>
      </trkpt>
      <trkpt lat="49.38408" lon="6.68579">
        <ele>172.6</ele>
        <time>2020-09-24T17:36:17Z</time>
      </trkpt>
      <trkpt lat="49.38426" lon="6.68513">
        <ele>172.4</ele>
        <time>2020-09-24T17:36:25Z</time>
      </trkpt>
      <trkpt lat="49.38444" lon="6.68446">
        <ele>172.4</ele>
        <time>2020-09-24T17:36:33Z</time>
      </trkpt>
      <trkpt lat="49.38466" lon="6.68368">
        <ele>172</ele>
        <time>2020-09-24T17:36:42Z</time>
      </trkpt>
      <trkpt lat="49.38487" lon="6.68297">
        <ele>172</ele>
        <time>2020-09-24T17:36:50Z</time>
      </trkpt>
      <trkpt lat="49.38489" lon="6.68287">
        <ele>172</ele>
        <time>2020-09-24T17:36:51Z</time>
      </trkpt>
      <trkpt lat="49.38494" lon="6.68269">
        <ele>172</ele>
        <time>2020-09-24T17:36:53Z</time>
      </trkpt>
      <trkpt lat="49.38507" lon="6.68225">
        <ele>171.8</ele>
        <time>2020-09-24T17:36:58Z</time>
      </trkpt>
      <trkpt lat="49.38527" lon="6.68154">
        <ele>171.6</ele>
        <time>2020-09-24T17:37:06Z</time>
      </trkpt>
      <trkpt lat="49.38549" lon="6.68083">
        <ele>171.4</ele>
        <time>2020-09-24T17:37:14Z</time>
      </trkpt>
      <trkpt lat="49.38569" lon="6.6802">
        <ele>171.4</ele>
        <time>2020-09-24T17:37:21Z</time>
      </trkpt>
      <trkpt lat="49.38594" lon="6.67941">
        <ele>171.2</ele>
        <time>2020-09-24T17:37:30Z</time>
      </trkpt>
      <trkpt lat="49.38614" lon="6.67878">
        <ele>171.2</ele>
        <time>2020-09-24T17:37:37Z</time>
      </trkpt>
      <trkpt lat="49.38628" lon="6.67833">
        <ele>171</ele>
        <time>2020-09-24T17:37:42Z</time>
      </trkpt>
      <trkpt lat="49.38631" lon="6.67824">
        <ele>171</ele>
        <time>2020-09-24T17:37:43Z</time>
      </trkpt>
      <trkpt lat="49.38648" lon="6.67771">
        <ele>171.2</ele>
        <time>2020-09-24T17:37:49Z</time>
      </trkpt>
      <trkpt lat="49.38651" lon="6.67762">
        <ele>171.2</ele>
        <time>2020-09-24T17:37:50Z</time>
      </trkpt>
      <trkpt lat="49.38657" lon="6.67745">
        <ele>171.2</ele>
        <time>2020-09-24T17:37:52Z</time>
      </trkpt>
      <trkpt lat="49.38675" lon="6.67692">
        <ele>171.2</ele>
        <time>2020-09-24T17:37:58Z</time>
      </trkpt>
      <trkpt lat="49.38678" lon="6.67683">
        <ele>171</ele>
        <time>2020-09-24T17:37:59Z</time>
      </trkpt>
      <trkpt lat="49.38693" lon="6.67638">
        <ele>171</ele>
        <time>2020-09-24T17:38:04Z</time>
      </trkpt>
      <trkpt lat="49.38696" lon="6.67629">
        <ele>171</ele>
        <time>2020-09-24T17:38:05Z</time>
      </trkpt>
      <trkpt lat="49.38709" lon="6.67594">
        <ele>171</ele>
        <time>2020-09-24T17:38:09Z</time>
      </trkpt>
      <trkpt lat="49.3873" lon="6.67531">
        <ele>171</ele>
        <time>2020-09-24T17:38:16Z</time>
      </trkpt>
      <trkpt lat="49.38749" lon="6.67477">
        <ele>171</ele>
        <time>2020-09-24T17:38:22Z</time>
      </trkpt>
      <trkpt lat="49.38751" lon="6.67459">
        <ele>171</ele>
        <time>2020-09-24T17:38:24Z</time>
      </trkpt>
      <trkpt lat="49.38751" lon="6.6745">
        <ele>171</ele>
        <time>2020-09-24T17:38:25Z</time>
      </trkpt>
      <trkpt lat="49.38746" lon="6.67425">
        <ele>171</ele>
        <time>2020-09-24T17:38:29Z</time>
      </trkpt>
      <trkpt lat="49.38744" lon="6.67417">
        <ele>171</ele>
        <time>2020-09-24T17:38:32Z</time>
      </trkpt>
      <trkpt lat="49.38744" lon="6.67414">
        <ele>171</ele>
        <time>2020-09-24T17:38:33Z</time>
      </trkpt>
      <trkpt lat="49.38741" lon="6.67399">
        <ele>171</ele>
        <time>2020-09-24T17:38:36Z</time>
      </trkpt>
      <trkpt lat="49.38739" lon="6.67373">
        <ele>171</ele>
        <time>2020-09-24T17:38:40Z</time>
      </trkpt>
      <trkpt lat="49.38732" lon="6.67367">
        <ele>170.8</ele>
        <time>2020-09-24T17:38:42Z</time>
      </trkpt>
      <trkpt lat="49.38726" lon="6.67362">
        <ele>170.6</ele>
        <time>2020-09-24T17:38:44Z</time>
      </trkpt>
      <trkpt lat="49.38722" lon="6.67358">
        <ele>170.6</ele>
        <time>2020-09-24T17:38:46Z</time>
      </trkpt>
      <trkpt lat="49.38718" lon="6.67356">
        <ele>170.4</ele>
        <time>2020-09-24T17:38:47Z</time>
      </trkpt>
      <trkpt lat="49.38714" lon="6.67352">
        <ele>170.4</ele>
        <time>2020-09-24T17:38:48Z</time>
      </trkpt>
      <trkpt lat="49.38706" lon="6.67345">
        <ele>170.4</ele>
        <time>2020-09-24T17:38:50Z</time>
      </trkpt>
      <trkpt lat="49.38696" lon="6.67337">
        <ele>170.6</ele>
        <time>2020-09-24T17:38:52Z</time>
      </trkpt>
      <trkpt lat="49.38689" lon="6.67331">
        <ele>170.6</ele>
        <time>2020-09-24T17:38:54Z</time>
      </trkpt>
      <trkpt lat="49.38682" lon="6.6732">
        <ele>171</ele>
        <time>2020-09-24T17:38:56Z</time>
      </trkpt>
      <trkpt lat="49.38674" lon="6.67305">
        <ele>171.2</ele>
        <time>2020-09-24T17:38:59Z</time>
      </trkpt>
      <trkpt lat="49.38667" lon="6.67288">
        <ele>171.4</ele>
        <time>2020-09-24T17:39:03Z</time>
      </trkpt>
      <trkpt lat="49.38665" lon="6.67282">
        <ele>171.4</ele>
        <time>2020-09-24T17:39:04Z</time>
      </trkpt>
      <trkpt lat="49.38663" lon="6.67264">
        <ele>171.8</ele>
        <time>2020-09-24T17:39:07Z</time>
      </trkpt>
      <trkpt lat="49.38661" lon="6.67246">
        <ele>172.2</ele>
        <time>2020-09-24T17:39:11Z</time>
      </trkpt>
      <trkpt lat="49.38658" lon="6.67215">
        <ele>172.4</ele>
        <time>2020-09-24T17:39:16Z</time>
      </trkpt>
      <trkpt lat="49.38656" lon="6.67188">
        <ele>172.8</ele>
        <time>2020-09-24T17:39:20Z</time>
      </trkpt>
      <trkpt lat="49.38655" lon="6.67175">
        <ele>173</ele>
        <time>2020-09-24T17:39:22Z</time>
      </trkpt>
      <trkpt lat="49.38652" lon="6.67134">
        <ele>173.6</ele>
        <time>2020-09-24T17:39:28Z</time>
      </trkpt>
      <trkpt lat="49.38649" lon="6.67107">
        <ele>174</ele>
        <time>2020-09-24T17:39:32Z</time>
      </trkpt>
      <trkpt lat="49.38649" lon="6.671">
        <ele>174</ele>
        <time>2020-09-24T17:39:33Z</time>
      </trkpt>
      <trkpt lat="49.38648" lon="6.67087">
        <ele>174.2</ele>
        <time>2020-09-24T17:39:35Z</time>
      </trkpt>
      <trkpt lat="49.38645" lon="6.67058">
        <ele>174.4</ele>
        <time>2020-09-24T17:39:39Z</time>
      </trkpt>
      <trkpt lat="49.38638" lon="6.67008">
        <ele>174.8</ele>
        <time>2020-09-24T17:39:46Z</time>
      </trkpt>
      <trkpt lat="49.38628" lon="6.66948">
        <ele>175.2</ele>
        <time>2020-09-24T17:39:54Z</time>
      </trkpt>
      <trkpt lat="49.38617" lon="6.66896">
        <ele>175.6</ele>
        <time>2020-09-24T17:40:01Z</time>
      </trkpt>
      <trkpt lat="49.386" lon="6.66827">
        <ele>176</ele>
        <time>2020-09-24T17:40:10Z</time>
      </trkpt>
      <trkpt lat="49.38579" lon="6.66767">
        <ele>176.4</ele>
        <time>2020-09-24T17:40:18Z</time>
      </trkpt>
      <trkpt lat="49.38555" lon="6.667">
        <ele>176.8</ele>
        <time>2020-09-24T17:40:27Z</time>
      </trkpt>
      <trkpt lat="49.38532" lon="6.66659">
        <ele>177</ele>
        <time>2020-09-24T17:40:34Z</time>
      </trkpt>
      <trkpt lat="49.38507" lon="6.66628">
        <ele>177</ele>
        <time>2020-09-24T17:40:41Z</time>
      </trkpt>
      <trkpt lat="49.38508" lon="6.66601">
        <ele>177</ele>
        <time>2020-09-24T17:40:44Z</time>
      </trkpt>
      <trkpt lat="49.38532" lon="6.66582">
        <ele>177</ele>
        <time>2020-09-24T17:40:50Z</time>
      </trkpt>
      <trkpt lat="49.3854" lon="6.66573">
        <ele>176.6</ele>
        <time>2020-09-24T17:40:52Z</time>
      </trkpt>
      <trkpt lat="49.38552" lon="6.6656">
        <ele>176.6</ele>
        <time>2020-09-24T17:40:55Z</time>
      </trkpt>
      <trkpt lat="49.38589" lon="6.6653">
        <ele>176.4</ele>
        <time>2020-09-24T17:41:03Z</time>
      </trkpt>
      <trkpt lat="49.38624" lon="6.66506">
        <ele>176</ele>
        <time>2020-09-24T17:41:10Z</time>
      </trkpt>
      <trkpt lat="49.38654" lon="6.66496">
        <ele>175.8</ele>
        <time>2020-09-24T17:41:16Z</time>
      </trkpt>
      <trkpt lat="49.38686" lon="6.66492">
        <ele>175.6</ele>
        <time>2020-09-24T17:41:22Z</time>
      </trkpt>
      <trkpt lat="49.38716" lon="6.66492">
        <ele>175.4</ele>
        <time>2020-09-24T17:41:27Z</time>
      </trkpt>
      <trkpt lat="49.38748" lon="6.66499">
        <ele>175.2</ele>
        <time>2020-09-24T17:41:31Z</time>
      </trkpt>
      <trkpt lat="49.38754" lon="6.665">
        <ele>175</ele>
        <time>2020-09-24T17:41:33Z</time>
      </trkpt>
      <trkpt lat="49.38772" lon="6.66505">
        <ele>174.8</ele>
        <time>2020-09-24T17:41:36Z</time>
      </trkpt>
      <trkpt lat="49.38811" lon="6.66508">
        <ele>174.6</ele>
        <time>2020-09-24T17:41:42Z</time>
      </trkpt>
      <trkpt lat="49.38844" lon="6.66518">
        <ele>174.2</ele>
        <time>2020-09-24T17:41:47Z</time>
      </trkpt>
      <trkpt lat="49.3887" lon="6.66525">
        <ele>174</ele>
        <time>2020-09-24T17:41:51Z</time>
      </trkpt>
      <trkpt lat="49.38902" lon="6.66532">
        <ele>173.6</ele>
        <time>2020-09-24T17:41:56Z</time>
      </trkpt>
      <trkpt lat="49.38934" lon="6.66533">
        <ele>173.2</ele>
        <time>2020-09-24T17:42:01Z</time>
      </trkpt>
      <trkpt lat="49.38963" lon="6.66534">
        <ele>172.8</ele>
        <time>2020-09-24T17:42:06Z</time>
      </trkpt>
      <trkpt lat="49.38984" lon="6.66535">
        <ele>172.8</ele>
        <time>2020-09-24T17:42:10Z</time>
      </trkpt>
      <trkpt lat="49.3899" lon="6.66535">
        <ele>172.8</ele>
        <time>2020-09-24T17:42:11Z</time>
      </trkpt>
      <trkpt lat="49.38994" lon="6.66535">
        <ele>172.6</ele>
        <time>2020-09-24T17:42:12Z</time>
      </trkpt>
      <trkpt lat="49.38999" lon="6.66552">
        <ele>172.6</ele>
        <time>2020-09-24T17:42:14Z</time>
      </trkpt>
      <trkpt lat="49.39013" lon="6.66569">
        <ele>172.4</ele>
        <time>2020-09-24T17:42:17Z</time>
      </trkpt>
      <trkpt lat="49.39047" lon="6.66589">
        <ele>172</ele>
        <time>2020-09-24T17:42:22Z</time>
      </trkpt>
      <trkpt lat="49.39077" lon="6.66601">
        <ele>172</ele>
        <time>2020-09-24T17:42:27Z</time>
      </trkpt>
      <trkpt lat="49.39098" lon="6.66606">
        <ele>171.8</ele>
        <time>2020-09-24T17:42:31Z</time>
      </trkpt>
      <trkpt lat="49.39128" lon="6.66609">
        <ele>171.6</ele>
        <time>2020-09-24T17:42:37Z</time>
      </trkpt>
      <trkpt lat="49.39162" lon="6.66612">
        <ele>171.4</ele>
        <time>2020-09-24T17:42:43Z</time>
      </trkpt>
      <trkpt lat="49.39193" lon="6.66614">
        <ele>171</ele>
        <time>2020-09-24T17:42:48Z</time>
      </trkpt>
      <trkpt lat="49.39221" lon="6.66615">
        <ele>170.6</ele>
        <time>2020-09-24T17:42:53Z</time>
      </trkpt>
      <trkpt lat="49.39233" lon="6.66616">
        <ele>170.6</ele>
        <time>2020-09-24T17:42:55Z</time>
      </trkpt>
      <trkpt lat="49.39245" lon="6.66616">
        <ele>170.2</ele>
        <time>2020-09-24T17:42:57Z</time>
      </trkpt>
      <trkpt lat="49.39253" lon="6.66615">
        <ele>170</ele>
        <time>2020-09-24T17:42:58Z</time>
      </trkpt>
      <trkpt lat="49.39258" lon="6.66615">
        <ele>169.6</ele>
        <time>2020-09-24T17:43:00Z</time>
      </trkpt>
      <trkpt lat="49.3927" lon="6.66613">
        <ele>168.6</ele>
        <time>2020-09-24T17:43:04Z</time>
      </trkpt>
      <trkpt lat="49.39273" lon="6.66612">
        <ele>168.2</ele>
        <time>2020-09-24T17:43:06Z</time>
      </trkpt>
      <trkpt lat="49.39283" lon="6.66611">
        <ele>167.4</ele>
        <time>2020-09-24T17:43:09Z</time>
      </trkpt>
      <trkpt lat="49.39297" lon="6.66609">
        <ele>166.4</ele>
        <time>2020-09-24T17:43:13Z</time>
      </trkpt>
      <trkpt lat="49.39305" lon="6.66608">
        <ele>166</ele>
        <time>2020-09-24T17:43:14Z</time>
      </trkpt>
      <trkpt lat="49.39319" lon="6.66606">
        <ele>165.4</ele>
        <time>2020-09-24T17:43:16Z</time>
      </trkpt>
      <trkpt lat="49.39354" lon="6.66594">
        <ele>163.8</ele>
        <time>2020-09-24T17:43:21Z</time>
      </trkpt>
      <trkpt lat="49.39403" lon="6.66566">
        <ele>162.4</ele>
        <time>2020-09-24T17:43:28Z</time>
      </trkpt>
      <trkpt lat="49.39425" lon="6.66551">
        <ele>161.2</ele>
        <time>2020-09-24T17:43:33Z</time>
      </trkpt>
      <trkpt lat="49.39442" lon="6.6654">
        <ele>160.2</ele>
        <time>2020-09-24T17:43:36Z</time>
      </trkpt>
      <trkpt lat="49.39459" lon="6.66529">
        <ele>159.8</ele>
        <time>2020-09-24T17:43:38Z</time>
      </trkpt>
      <trkpt lat="49.39475" lon="6.66518">
        <ele>159.2</ele>
        <time>2020-09-24T17:43:41Z</time>
      </trkpt>
      <trkpt lat="49.39485" lon="6.66512">
        <ele>158.8</ele>
        <time>2020-09-24T17:43:43Z</time>
      </trkpt>
      <trkpt lat="49.39513" lon="6.66493">
        <ele>157.4</ele>
        <time>2020-09-24T17:43:49Z</time>
      </trkpt>
      <trkpt lat="49.39533" lon="6.6648">
        <ele>156.2</ele>
        <time>2020-09-24T17:43:53Z</time>
      </trkpt>
      <trkpt lat="49.39543" lon="6.66473">
        <ele>155.4</ele>
        <time>2020-09-24T17:43:55Z</time>
      </trkpt>
      <trkpt lat="49.39574" lon="6.66453">
        <ele>153.4</ele>
        <time>2020-09-24T17:44:01Z</time>
      </trkpt>
      <trkpt lat="49.39579" lon="6.6645">
        <ele>153.2</ele>
        <time>2020-09-24T17:44:02Z</time>
      </trkpt>
      <trkpt lat="49.39594" lon="6.6644">
        <ele>152</ele>
        <time>2020-09-24T17:44:05Z</time>
      </trkpt>
      <trkpt lat="49.39604" lon="6.66433">
        <ele>151.6</ele>
        <time>2020-09-24T17:44:06Z</time>
      </trkpt>
      <trkpt lat="49.39609" lon="6.6643">
        <ele>151</ele>
        <time>2020-09-24T17:44:08Z</time>
      </trkpt>
      <trkpt lat="49.3964" lon="6.66402">
        <ele>150.6</ele>
        <time>2020-09-24T17:44:14Z</time>
      </trkpt>
      <trkpt lat="49.3967" lon="6.66377">
        <ele>150.8</ele>
        <time>2020-09-24T17:44:19Z</time>
      </trkpt>
      <trkpt lat="49.39693" lon="6.66357">
        <ele>150.6</ele>
        <time>2020-09-24T17:44:23Z</time>
      </trkpt>
      <trkpt lat="49.39707" lon="6.66345">
        <ele>150.8</ele>
        <time>2020-09-24T17:44:26Z</time>
      </trkpt>
      <trkpt lat="49.39718" lon="6.66336">
        <ele>150.8</ele>
        <time>2020-09-24T17:44:28Z</time>
      </trkpt>
      <trkpt lat="49.39724" lon="6.66331">
        <ele>151</ele>
        <time>2020-09-24T17:44:29Z</time>
      </trkpt>
      <trkpt lat="49.39733" lon="6.66323">
        <ele>149</ele>
        <time>2020-09-24T17:44:31Z</time>
      </trkpt>
      <trkpt lat="49.39758" lon="6.66301">
        <ele>152.8</ele>
        <time>2020-09-24T17:44:36Z</time>
      </trkpt>
      <trkpt lat="49.39789" lon="6.66269">
        <ele>151.6</ele>
        <time>2020-09-24T17:44:42Z</time>
      </trkpt>
      <trkpt lat="49.39817" lon="6.6624">
        <ele>152.2</ele>
        <time>2020-09-24T17:44:48Z</time>
      </trkpt>
      <trkpt lat="49.39846" lon="6.6621">
        <ele>152.8</ele>
        <time>2020-09-24T17:44:54Z</time>
      </trkpt>
      <trkpt lat="49.39878" lon="6.66177">
        <ele>153.2</ele>
        <time>2020-09-24T17:45:00Z</time>
      </trkpt>
      <trkpt lat="49.39898" lon="6.66157">
        <ele>153.8</ele>
        <time>2020-09-24T17:45:04Z</time>
      </trkpt>
      <trkpt lat="49.39919" lon="6.66135">
        <ele>154.2</ele>
        <time>2020-09-24T17:45:07Z</time>
      </trkpt>
      <trkpt lat="49.39923" lon="6.6613">
        <ele>154.4</ele>
        <time>2020-09-24T17:45:08Z</time>
      </trkpt>
      <trkpt lat="49.39945" lon="6.66108">
        <ele>155</ele>
        <time>2020-09-24T17:45:13Z</time>
      </trkpt>
      <trkpt lat="49.39959" lon="6.66093">
        <ele>155.4</ele>
        <time>2020-09-24T17:45:16Z</time>
      </trkpt>
      <trkpt lat="49.39992" lon="6.66059">
        <ele>156</ele>
        <time>2020-09-24T17:45:22Z</time>
      </trkpt>
      <trkpt lat="49.40023" lon="6.66024">
        <ele>156.6</ele>
        <time>2020-09-24T17:45:27Z</time>
      </trkpt>
      <trkpt lat="49.40023" lon="6.66024">
        <ele>156.8</ele>
        <time>2020-09-24T17:45:28Z</time>
      </trkpt>
      <trkpt lat="49.40038" lon="6.66007">
        <ele>157</ele>
        <time>2020-09-24T17:45:31Z</time>
      </trkpt>
      <trkpt lat="49.40055" lon="6.65987">
        <ele>157.2</ele>
        <time>2020-09-24T17:45:35Z</time>
      </trkpt>
      <trkpt lat="49.40074" lon="6.65964">
        <ele>157.4</ele>
        <time>2020-09-24T17:45:38Z</time>
      </trkpt>
      <trkpt lat="49.40074" lon="6.65964">
        <ele>157.4</ele>
        <time>2020-09-24T17:45:39Z</time>
      </trkpt>
      <trkpt lat="49.40087" lon="6.65948">
        <ele>157.4</ele>
        <time>2020-09-24T17:45:42Z</time>
      </trkpt>
      <trkpt lat="49.4009" lon="6.65944">
        <ele>157.4</ele>
        <time>2020-09-24T17:45:43Z</time>
      </trkpt>
      <trkpt lat="49.40094" lon="6.6594">
        <ele>157.4</ele>
        <time>2020-09-24T17:45:44Z</time>
      </trkpt>
      <trkpt lat="49.40129" lon="6.65899">
        <ele>158.2</ele>
        <time>2020-09-24T17:45:50Z</time>
      </trkpt>
      <trkpt lat="49.40148" lon="6.65876">
        <ele>158.8</ele>
        <time>2020-09-24T17:45:55Z</time>
      </trkpt>
      <trkpt lat="49.40158" lon="6.65864">
        <ele>159</ele>
        <time>2020-09-24T17:45:57Z</time>
      </trkpt>
      <trkpt lat="49.40172" lon="6.65847">
        <ele>159.2</ele>
        <time>2020-09-24T17:46:00Z</time>
      </trkpt>
      <trkpt lat="49.40201" lon="6.65812">
        <ele>159.8</ele>
        <time>2020-09-24T17:46:06Z</time>
      </trkpt>
      <trkpt lat="49.40235" lon="6.65772">
        <ele>160</ele>
        <time>2020-09-24T17:46:13Z</time>
      </trkpt>
      <trkpt lat="49.40267" lon="6.65732">
        <ele>160.4</ele>
        <time>2020-09-24T17:46:20Z</time>
      </trkpt>
      <trkpt lat="49.40291" lon="6.65701">
        <ele>160.6</ele>
        <time>2020-09-24T17:46:25Z</time>
      </trkpt>
      <trkpt lat="49.4031" lon="6.65677">
        <ele>160.8</ele>
        <time>2020-09-24T17:46:29Z</time>
      </trkpt>
      <trkpt lat="49.40318" lon="6.65665">
        <ele>160.8</ele>
        <time>2020-09-24T17:46:31Z</time>
      </trkpt>
      <trkpt lat="49.40327" lon="6.65653">
        <ele>160.8</ele>
        <time>2020-09-24T17:46:33Z</time>
      </trkpt>
      <trkpt lat="49.40361" lon="6.65606">
        <ele>160.8</ele>
        <time>2020-09-24T17:46:40Z</time>
      </trkpt>
      <trkpt lat="49.40394" lon="6.6556">
        <ele>160.8</ele>
        <time>2020-09-24T17:46:47Z</time>
      </trkpt>
      <trkpt lat="49.40427" lon="6.65515">
        <ele>160.8</ele>
        <time>2020-09-24T17:46:54Z</time>
      </trkpt>
      <trkpt lat="49.40456" lon="6.65475">
        <ele>160.8</ele>
        <time>2020-09-24T17:47:00Z</time>
      </trkpt>
      <trkpt lat="49.4048" lon="6.65441">
        <ele>160.8</ele>
        <time>2020-09-24T17:47:05Z</time>
      </trkpt>
      <trkpt lat="49.40508" lon="6.65404">
        <ele>161</ele>
        <time>2020-09-24T17:47:11Z</time>
      </trkpt>
      <trkpt lat="49.40546" lon="6.6535">
        <ele>161</ele>
        <time>2020-09-24T17:47:19Z</time>
      </trkpt>
      <trkpt lat="49.40584" lon="6.65298">
        <ele>161</ele>
        <time>2020-09-24T17:47:27Z</time>
      </trkpt>
      <trkpt lat="49.40615" lon="6.65255">
        <ele>161.2</ele>
        <time>2020-09-24T17:47:34Z</time>
      </trkpt>
      <trkpt lat="49.40648" lon="6.65208">
        <ele>161.6</ele>
        <time>2020-09-24T17:47:41Z</time>
      </trkpt>
      <trkpt lat="49.40656" lon="6.65195">
        <ele>161.6</ele>
        <time>2020-09-24T17:47:43Z</time>
      </trkpt>
      <trkpt lat="49.40673" lon="6.65169">
        <ele>161.6</ele>
        <time>2020-09-24T17:47:46Z</time>
      </trkpt>
      <trkpt lat="49.407" lon="6.65127">
        <ele>161.8</ele>
        <time>2020-09-24T17:47:52Z</time>
      </trkpt>
      <trkpt lat="49.40721" lon="6.6509">
        <ele>161</ele>
        <time>2020-09-24T17:47:58Z</time>
      </trkpt>
      <trkpt lat="49.40737" lon="6.65062">
        <ele>161.2</ele>
        <time>2020-09-24T17:48:02Z</time>
      </trkpt>
      <trkpt lat="49.40741" lon="6.65055">
        <ele>161.2</ele>
        <time>2020-09-24T17:48:03Z</time>
      </trkpt>
      <trkpt lat="49.40771" lon="6.64991">
        <ele>160.8</ele>
        <time>2020-09-24T17:48:11Z</time>
      </trkpt>
      <trkpt lat="49.40783" lon="6.64957">
        <ele>160.8</ele>
        <time>2020-09-24T17:48:15Z</time>
      </trkpt>
      <trkpt lat="49.4079" lon="6.6494">
        <ele>160.8</ele>
        <time>2020-09-24T17:48:17Z</time>
      </trkpt>
      <trkpt lat="49.40812" lon="6.64882">
        <ele>160.4</ele>
        <time>2020-09-24T17:48:24Z</time>
      </trkpt>
      <trkpt lat="49.40834" lon="6.64825">
        <ele>160.2</ele>
        <time>2020-09-24T17:48:30Z</time>
      </trkpt>
      <trkpt lat="49.40837" lon="6.64818">
        <ele>160</ele>
        <time>2020-09-24T17:48:31Z</time>
      </trkpt>
      <trkpt lat="49.40854" lon="6.64772">
        <ele>160.2</ele>
        <time>2020-09-24T17:48:37Z</time>
      </trkpt>
      <trkpt lat="49.40868" lon="6.64736">
        <ele>160.8</ele>
        <time>2020-09-24T17:48:42Z</time>
      </trkpt>
      <trkpt lat="49.40874" lon="6.6472">
        <ele>160.6</ele>
        <time>2020-09-24T17:48:44Z</time>
      </trkpt>
      <trkpt lat="49.40894" lon="6.64668">
        <ele>161.2</ele>
        <time>2020-09-24T17:48:51Z</time>
      </trkpt>
      <trkpt lat="49.40911" lon="6.64623">
        <ele>161.4</ele>
        <time>2020-09-24T17:48:57Z</time>
      </trkpt>
      <trkpt lat="49.40931" lon="6.64571">
        <ele>161.6</ele>
        <time>2020-09-24T17:49:04Z</time>
      </trkpt>
      <trkpt lat="49.40955" lon="6.6452">
        <ele>162</ele>
        <time>2020-09-24T17:49:11Z</time>
      </trkpt>
      <trkpt lat="49.40973" lon="6.64482">
        <ele>162.4</ele>
        <time>2020-09-24T17:49:16Z</time>
      </trkpt>
      <trkpt lat="49.40992" lon="6.64444">
        <ele>162.8</ele>
        <time>2020-09-24T17:49:21Z</time>
      </trkpt>
      <trkpt lat="49.41015" lon="6.644">
        <ele>163.2</ele>
        <time>2020-09-24T17:49:27Z</time>
      </trkpt>
      <trkpt lat="49.41044" lon="6.64353">
        <ele>163.8</ele>
        <time>2020-09-24T17:49:34Z</time>
      </trkpt>
      <trkpt lat="49.41074" lon="6.64304">
        <ele>164.2</ele>
        <time>2020-09-24T17:49:41Z</time>
      </trkpt>
      <trkpt lat="49.41102" lon="6.64265">
        <ele>164.4</ele>
        <time>2020-09-24T17:49:47Z</time>
      </trkpt>
      <trkpt lat="49.41131" lon="6.64227">
        <ele>164.6</ele>
        <time>2020-09-24T17:49:53Z</time>
      </trkpt>
      <trkpt lat="49.41159" lon="6.6419">
        <ele>164.6</ele>
        <time>2020-09-24T17:49:59Z</time>
      </trkpt>
      <trkpt lat="49.41193" lon="6.64147">
        <ele>164.8</ele>
        <time>2020-09-24T17:50:06Z</time>
      </trkpt>
      <trkpt lat="49.41225" lon="6.64112">
        <ele>165</ele>
        <time>2020-09-24T17:50:12Z</time>
      </trkpt>
      <trkpt lat="49.41252" lon="6.64085">
        <ele>165.2</ele>
        <time>2020-09-24T17:50:17Z</time>
      </trkpt>
      <trkpt lat="49.41286" lon="6.64055">
        <ele>165.6</ele>
        <time>2020-09-24T17:50:23Z</time>
      </trkpt>
      <trkpt lat="49.4132" lon="6.64024">
        <ele>166</ele>
        <time>2020-09-24T17:50:30Z</time>
      </trkpt>
      <trkpt lat="49.41346" lon="6.64004">
        <ele>166.2</ele>
        <time>2020-09-24T17:50:35Z</time>
      </trkpt>
      <trkpt lat="49.41374" lon="6.63984">
        <ele>166.4</ele>
        <time>2020-09-24T17:50:41Z</time>
      </trkpt>
      <trkpt lat="49.41393" lon="6.63971">
        <ele>166.4</ele>
        <time>2020-09-24T17:50:45Z</time>
      </trkpt>
      <trkpt lat="49.41417" lon="6.63955">
        <ele>166.6</ele>
        <time>2020-09-24T17:50:50Z</time>
      </trkpt>
      <trkpt lat="49.41449" lon="6.63932">
        <ele>166.6</ele>
        <time>2020-09-24T17:50:56Z</time>
      </trkpt>
      <trkpt lat="49.41479" lon="6.6391">
        <ele>166.6</ele>
        <time>2020-09-24T17:51:02Z</time>
      </trkpt>
      <trkpt lat="49.41516" lon="6.63883">
        <ele>166.2</ele>
        <time>2020-09-24T17:51:10Z</time>
      </trkpt>
      <trkpt lat="49.41547" lon="6.6386">
        <ele>166.4</ele>
        <time>2020-09-24T17:51:16Z</time>
      </trkpt>
      <trkpt lat="49.41578" lon="6.63838">
        <ele>166.4</ele>
        <time>2020-09-24T17:51:22Z</time>
      </trkpt>
      <trkpt lat="49.41614" lon="6.63811">
        <ele>166.2</ele>
        <time>2020-09-24T17:51:29Z</time>
      </trkpt>
      <trkpt lat="49.41645" lon="6.63789">
        <ele>165.8</ele>
        <time>2020-09-24T17:51:35Z</time>
      </trkpt>
      <trkpt lat="49.41676" lon="6.63766">
        <ele>165.4</ele>
        <time>2020-09-24T17:51:41Z</time>
      </trkpt>
      <trkpt lat="49.41718" lon="6.63735">
        <ele>165.2</ele>
        <time>2020-09-24T17:51:49Z</time>
      </trkpt>
      <trkpt lat="49.41755" lon="6.63709">
        <ele>165</ele>
        <time>2020-09-24T17:51:56Z</time>
      </trkpt>
      <trkpt lat="49.41787" lon="6.63685">
        <ele>164.6</ele>
        <time>2020-09-24T17:52:02Z</time>
      </trkpt>
      <trkpt lat="49.41814" lon="6.63666">
        <ele>164.6</ele>
        <time>2020-09-24T17:52:07Z</time>
      </trkpt>
      <trkpt lat="49.41828" lon="6.63655">
        <ele>164.2</ele>
        <time>2020-09-24T17:52:10Z</time>
      </trkpt>
      <trkpt lat="49.41861" lon="6.63631">
        <ele>164</ele>
        <time>2020-09-24T17:52:16Z</time>
      </trkpt>
      <trkpt lat="49.41881" lon="6.63616">
        <ele>163.8</ele>
        <time>2020-09-24T17:52:20Z</time>
      </trkpt>
      <trkpt lat="49.41886" lon="6.63613">
        <ele>163.8</ele>
        <time>2020-09-24T17:52:21Z</time>
      </trkpt>
      <trkpt lat="49.41918" lon="6.63589">
        <ele>163.6</ele>
        <time>2020-09-24T17:52:27Z</time>
      </trkpt>
      <trkpt lat="49.41949" lon="6.63566">
        <ele>163.8</ele>
        <time>2020-09-24T17:52:33Z</time>
      </trkpt>
      <trkpt lat="49.41976" lon="6.63547">
        <ele>163.8</ele>
        <time>2020-09-24T17:52:38Z</time>
      </trkpt>
      <trkpt lat="49.41997" lon="6.63531">
        <ele>164</ele>
        <time>2020-09-24T17:52:42Z</time>
      </trkpt>
      <trkpt lat="49.42026" lon="6.6351">
        <ele>164.2</ele>
        <time>2020-09-24T17:52:47Z</time>
      </trkpt>
      <trkpt lat="49.42054" lon="6.6349">
        <ele>164.4</ele>
        <time>2020-09-24T17:52:52Z</time>
      </trkpt>
      <trkpt lat="49.42059" lon="6.63486">
        <ele>164.6</ele>
        <time>2020-09-24T17:52:53Z</time>
      </trkpt>
      <trkpt lat="49.42064" lon="6.63482">
        <ele>164.6</ele>
        <time>2020-09-24T17:52:54Z</time>
      </trkpt>
      <trkpt lat="49.42086" lon="6.63466">
        <ele>164.6</ele>
        <time>2020-09-24T17:52:58Z</time>
      </trkpt>
      <trkpt lat="49.42113" lon="6.63446">
        <ele>165</ele>
        <time>2020-09-24T17:53:03Z</time>
      </trkpt>
      <trkpt lat="49.4214" lon="6.63427">
        <ele>165.4</ele>
        <time>2020-09-24T17:53:08Z</time>
      </trkpt>
      <trkpt lat="49.42167" lon="6.63407">
        <ele>165.6</ele>
        <time>2020-09-24T17:53:13Z</time>
      </trkpt>
      <trkpt lat="49.422" lon="6.63383">
        <ele>166</ele>
        <time>2020-09-24T17:53:19Z</time>
      </trkpt>
      <trkpt lat="49.4222" lon="6.63371">
        <ele>166.2</ele>
        <time>2020-09-24T17:53:23Z</time>
      </trkpt>
      <trkpt lat="49.42249" lon="6.63354">
        <ele>166.4</ele>
        <time>2020-09-24T17:53:29Z</time>
      </trkpt>
      <trkpt lat="49.42281" lon="6.63335">
        <ele>166.4</ele>
        <time>2020-09-24T17:53:35Z</time>
      </trkpt>
      <trkpt lat="49.42312" lon="6.63316">
        <ele>166.4</ele>
        <time>2020-09-24T17:53:41Z</time>
      </trkpt>
      <trkpt lat="49.42338" lon="6.63301">
        <ele>166.4</ele>
        <time>2020-09-24T17:53:46Z</time>
      </trkpt>
      <trkpt lat="49.42371" lon="6.63281">
        <ele>166.6</ele>
        <time>2020-09-24T17:53:52Z</time>
      </trkpt>
      <trkpt lat="49.42411" lon="6.6326">
        <ele>166.6</ele>
        <time>2020-09-24T17:53:59Z</time>
      </trkpt>
      <trkpt lat="49.42446" lon="6.63242">
        <ele>166.8</ele>
        <time>2020-09-24T17:54:05Z</time>
      </trkpt>
      <trkpt lat="49.42476" lon="6.63227">
        <ele>166.8</ele>
        <time>2020-09-24T17:54:10Z</time>
      </trkpt>
      <trkpt lat="49.42517" lon="6.63208">
        <ele>167</ele>
        <time>2020-09-24T17:54:17Z</time>
      </trkpt>
      <trkpt lat="49.42565" lon="6.63189">
        <ele>167.2</ele>
        <time>2020-09-24T17:54:25Z</time>
      </trkpt>
      <trkpt lat="49.42591" lon="6.63179">
        <ele>167.4</ele>
        <time>2020-09-24T17:54:30Z</time>
      </trkpt>
      <trkpt lat="49.42612" lon="6.63171">
        <ele>167.4</ele>
        <time>2020-09-24T17:54:34Z</time>
      </trkpt>
      <trkpt lat="49.42618" lon="6.63169">
        <ele>167.4</ele>
        <time>2020-09-24T17:54:35Z</time>
      </trkpt>
      <trkpt lat="49.42629" lon="6.63164">
        <ele>167.4</ele>
        <time>2020-09-24T17:54:37Z</time>
      </trkpt>
      <trkpt lat="49.42635" lon="6.63162">
        <ele>167.4</ele>
        <time>2020-09-24T17:54:38Z</time>
      </trkpt>
      <trkpt lat="49.42666" lon="6.6315">
        <ele>167</ele>
        <time>2020-09-24T17:54:44Z</time>
      </trkpt>
      <trkpt lat="49.42692" lon="6.6314">
        <ele>166.8</ele>
        <time>2020-09-24T17:54:49Z</time>
      </trkpt>
      <trkpt lat="49.42709" lon="6.63133">
        <ele>167</ele>
        <time>2020-09-24T17:54:52Z</time>
      </trkpt>
      <trkpt lat="49.42719" lon="6.6313">
        <ele>167</ele>
        <time>2020-09-24T17:54:54Z</time>
      </trkpt>
      <trkpt lat="49.42729" lon="6.63126">
        <ele>167</ele>
        <time>2020-09-24T17:54:56Z</time>
      </trkpt>
      <trkpt lat="49.42738" lon="6.63119">
        <ele>167</ele>
        <time>2020-09-24T17:54:58Z</time>
      </trkpt>
      <trkpt lat="49.42741" lon="6.63098">
        <ele>167.4</ele>
        <time>2020-09-24T17:55:01Z</time>
      </trkpt>
      <trkpt lat="49.42738" lon="6.63078">
        <ele>167.4</ele>
        <time>2020-09-24T17:55:05Z</time>
      </trkpt>
      <trkpt lat="49.4274" lon="6.63062">
        <ele>167.4</ele>
        <time>2020-09-24T17:55:10Z</time>
      </trkpt>
      <trkpt lat="49.42737" lon="6.63035">
        <ele>167</ele>
        <time>2020-09-24T17:55:15Z</time>
      </trkpt>
      <trkpt lat="49.42734" lon="6.63011">
        <ele>166.4</ele>
        <time>2020-09-24T17:55:20Z</time>
      </trkpt>
      <trkpt lat="49.42732" lon="6.63">
        <ele>166.4</ele>
        <time>2020-09-24T17:55:22Z</time>
      </trkpt>
      <trkpt lat="49.42731" lon="6.62995">
        <ele>166.4</ele>
        <time>2020-09-24T17:55:23Z</time>
      </trkpt>
      <trkpt lat="49.42728" lon="6.62984">
        <ele>166.6</ele>
        <time>2020-09-24T17:55:26Z</time>
      </trkpt>
      <trkpt lat="49.42726" lon="6.62974">
        <ele>166.6</ele>
        <time>2020-09-24T17:55:28Z</time>
      </trkpt>
      <trkpt lat="49.42719" lon="6.62948">
        <ele>167.4</ele>
        <time>2020-09-24T17:55:33Z</time>
      </trkpt>
      <trkpt lat="49.42714" lon="6.62928">
        <ele>167.4</ele>
        <time>2020-09-24T17:55:38Z</time>
      </trkpt>
      <trkpt lat="49.42714" lon="6.62925">
        <ele>167.6</ele>
        <time>2020-09-24T17:55:39Z</time>
      </trkpt>
      <trkpt lat="49.42719" lon="6.62909">
        <ele>167.8</ele>
        <time>2020-09-24T17:55:42Z</time>
      </trkpt>
      <trkpt lat="49.42733" lon="6.62905">
        <ele>167.8</ele>
        <time>2020-09-24T17:55:47Z</time>
      </trkpt>
      <trkpt lat="49.4274" lon="6.62879">
        <ele>167.8</ele>
        <time>2020-09-24T17:55:52Z</time>
      </trkpt>
      <trkpt lat="49.42733" lon="6.62857">
        <ele>168</ele>
        <time>2020-09-24T17:55:56Z</time>
      </trkpt>
      <trkpt lat="49.42732" lon="6.62851">
        <ele>168</ele>
        <time>2020-09-24T17:55:57Z</time>
      </trkpt>
      <trkpt lat="49.42721" lon="6.62816">
        <ele>168.2</ele>
        <time>2020-09-24T17:56:03Z</time>
      </trkpt>
      <trkpt lat="49.42712" lon="6.62785">
        <ele>168.2</ele>
        <time>2020-09-24T17:56:08Z</time>
      </trkpt>
      <trkpt lat="49.42707" lon="6.62767">
        <ele>168</ele>
        <time>2020-09-24T17:56:11Z</time>
      </trkpt>
      <trkpt lat="49.42693" lon="6.62721">
        <ele>167.4</ele>
        <time>2020-09-24T17:56:19Z</time>
      </trkpt>
      <trkpt lat="49.42688" lon="6.62705">
        <ele>167</ele>
        <time>2020-09-24T17:56:24Z</time>
      </trkpt>
      <trkpt lat="49.42688" lon="6.62705">
        <ele>166.6</ele>
        <time>2020-09-24T17:56:32Z</time>
      </trkpt>
      <trkpt lat="49.42688" lon="6.62705">
        <ele>166</ele>
        <time>2020-09-24T17:56:55Z</time>
      </trkpt>
      <trkpt lat="49.42688" lon="6.62705">
        <ele>165.4</ele>
        <time>2020-09-24T17:57:11Z</time>
      </trkpt>
      <trkpt lat="49.42688" lon="6.62705">
        <ele>165</ele>
        <time>2020-09-24T17:57:31Z</time>
      </trkpt>
      <trkpt lat="49.42688" lon="6.62705">
        <ele>164.8</ele>
        <time>2020-09-24T17:57:52Z</time>
      </trkpt>
      <trkpt lat="49.42688" lon="6.62705">
        <ele>164.6</ele>
        <time>2020-09-24T17:58:11Z</time>
      </trkpt>
      <trkpt lat="49.42688" lon="6.62705">
        <ele>164.8</ele>
        <time>2020-09-24T17:58:29Z</time>
      </trkpt>
      <trkpt lat="49.42688" lon="6.62705">
        <ele>164.8</ele>
        <time>2020-09-24T17:58:52Z</time>
      </trkpt>
      <trkpt lat="49.42688" lon="6.62705">
        <ele>165</ele>
        <time>2020-09-24T17:59:07Z</time>
      </trkpt>
      <trkpt lat="49.42688" lon="6.62705">
        <ele>165</ele>
        <time>2020-09-24T17:59:22Z</time>
      </trkpt>
      <trkpt lat="49.42688" lon="6.62705">
        <ele>165</ele>
        <time>2020-09-24T17:59:41Z</time>
      </trkpt>
      <trkpt lat="49.42688" lon="6.62705">
        <ele>165</ele>
        <time>2020-09-24T18:00:00Z</time>
      </trkpt>
      <trkpt lat="49.42688" lon="6.62705">
        <ele>165</ele>
        <time>2020-09-24T18:00:20Z</time>
      </trkpt>
      <trkpt lat="49.42688" lon="6.62705">
        <ele>165.2</ele>
        <time>2020-09-24T18:00:36Z</time>
      </trkpt>
      <trkpt lat="49.42688" lon="6.62705">
        <ele>165.2</ele>
        <time>2020-09-24T18:00:58Z</time>
      </trkpt>
      <trkpt lat="49.42688" lon="6.62705">
        <ele>165.6</ele>
        <time>2020-09-24T18:01:16Z</time>
      </trkpt>
      <trkpt lat="49.42688" lon="6.62705">
        <ele>165.8</ele>
        <time>2020-09-24T18:01:35Z</time>
      </trkpt>
      <trkpt lat="49.42688" lon="6.62705">
        <ele>166.2</ele>
        <time>2020-09-24T18:01:54Z</time>
      </trkpt>
      <trkpt lat="49.42688" lon="6.62705">
        <ele>166.4</ele>
        <time>2020-09-24T18:02:15Z</time>
      </trkpt>
      <trkpt lat="49.42688" lon="6.62705">
        <ele>166.6</ele>
        <time>2020-09-24T18:02:40Z</time>
      </trkpt>
      <trkpt lat="49.42688" lon="6.62705">
        <ele>166.8</ele>
        <time>2020-09-24T18:03:01Z</time>
      </trkpt>
      <trkpt lat="49.42688" lon="6.62705">
        <ele>166.4</ele>
        <time>2020-09-24T18:03:15Z</time>
      </trkpt>
      <trkpt lat="49.42688" lon="6.62705">
        <ele>166.4</ele>
        <time>2020-09-24T18:03:37Z</time>
      </trkpt>
      <trkpt lat="49.42688" lon="6.62705">
        <ele>166.6</ele>
        <time>2020-09-24T18:03:45Z</time>
      </trkpt>
      <trkpt lat="49.42688" lon="6.62705">
        <ele>166.6</ele>
        <time>2020-09-24T18:03:46Z</time>
      </trkpt>
      <trkpt lat="49.42686" lon="6.62696">
        <ele>166.6</ele>
        <time>2020-09-24T18:03:49Z</time>
      </trkpt>
      <trkpt lat="49.42681" lon="6.6268">
        <ele>166.8</ele>
        <time>2020-09-24T18:03:54Z</time>
      </trkpt>
      <trkpt lat="49.42671" lon="6.62647">
        <ele>167.8</ele>
        <time>2020-09-24T18:04:01Z</time>
      </trkpt>
      <trkpt lat="49.42657" lon="6.62603">
        <ele>168.8</ele>
        <time>2020-09-24T18:04:09Z</time>
      </trkpt>
      <trkpt lat="49.42638" lon="6.62548">
        <ele>169.2</ele>
        <time>2020-09-24T18:04:18Z</time>
      </trkpt>
      <trkpt lat="49.42619" lon="6.62489">
        <ele>170</ele>
        <time>2020-09-24T18:04:27Z</time>
      </trkpt>
      <trkpt lat="49.42595" lon="6.62416">
        <ele>170.8</ele>
        <time>2020-09-24T18:04:38Z</time>
      </trkpt>
      <trkpt lat="49.42579" lon="6.6237">
        <ele>171.4</ele>
        <time>2020-09-24T18:04:45Z</time>
      </trkpt>
      <trkpt lat="49.4257" lon="6.62336">
        <ele>171.8</ele>
        <time>2020-09-24T18:04:50Z</time>
      </trkpt>
      <trkpt lat="49.42568" lon="6.62329">
        <ele>172</ele>
        <time>2020-09-24T18:04:51Z</time>
      </trkpt>
      <trkpt lat="49.42556" lon="6.62286">
        <ele>172.6</ele>
        <time>2020-09-24T18:04:58Z</time>
      </trkpt>
      <trkpt lat="49.42552" lon="6.62273">
        <ele>172.8</ele>
        <time>2020-09-24T18:05:00Z</time>
      </trkpt>
      <trkpt lat="49.42544" lon="6.62242">
        <ele>173.2</ele>
        <time>2020-09-24T18:05:05Z</time>
      </trkpt>
      <trkpt lat="49.42538" lon="6.62223">
        <ele>173.4</ele>
        <time>2020-09-24T18:05:08Z</time>
      </trkpt>
      <trkpt lat="49.42534" lon="6.62197">
        <ele>173.8</ele>
        <time>2020-09-24T18:05:12Z</time>
      </trkpt>
      <trkpt lat="49.42525" lon="6.62145">
        <ele>174.6</ele>
        <time>2020-09-24T18:05:20Z</time>
      </trkpt>
      <trkpt lat="49.42518" lon="6.62106">
        <ele>175.4</ele>
        <time>2020-09-24T18:05:26Z</time>
      </trkpt>
      <trkpt lat="49.42516" lon="6.62099">
        <ele>175.4</ele>
        <time>2020-09-24T18:05:27Z</time>
      </trkpt>
      <trkpt lat="49.42508" lon="6.62051">
        <ele>176</ele>
        <time>2020-09-24T18:05:34Z</time>
      </trkpt>
      <trkpt lat="49.42499" lon="6.62">
        <ele>176.6</ele>
        <time>2020-09-24T18:05:42Z</time>
      </trkpt>
      <trkpt lat="49.42489" lon="6.61947">
        <ele>177.4</ele>
        <time>2020-09-24T18:05:50Z</time>
      </trkpt>
      <trkpt lat="49.42487" lon="6.61941">
        <ele>177.6</ele>
        <time>2020-09-24T18:05:51Z</time>
      </trkpt>
      <trkpt lat="49.42484" lon="6.61928">
        <ele>177.8</ele>
        <time>2020-09-24T18:05:53Z</time>
      </trkpt>
      <trkpt lat="49.42468" lon="6.61876">
        <ele>178.6</ele>
        <time>2020-09-24T18:06:01Z</time>
      </trkpt>
      <trkpt lat="49.42442" lon="6.61825">
        <ele>179.6</ele>
        <time>2020-09-24T18:06:10Z</time>
      </trkpt>
      <trkpt lat="49.42414" lon="6.61773">
        <ele>180.2</ele>
        <time>2020-09-24T18:06:19Z</time>
      </trkpt>
      <trkpt lat="49.42384" lon="6.61725">
        <ele>180.6</ele>
        <time>2020-09-24T18:06:28Z</time>
      </trkpt>
      <trkpt lat="49.42375" lon="6.6171">
        <ele>180.8</ele>
        <time>2020-09-24T18:06:31Z</time>
      </trkpt>
      <trkpt lat="49.42365" lon="6.61695">
        <ele>180.8</ele>
        <time>2020-09-24T18:06:34Z</time>
      </trkpt>
      <trkpt lat="49.42349" lon="6.61668">
        <ele>181</ele>
        <time>2020-09-24T18:06:40Z</time>
      </trkpt>
      <trkpt lat="49.42334" lon="6.61646">
        <ele>181.4</ele>
        <time>2020-09-24T18:06:45Z</time>
      </trkpt>
      <trkpt lat="49.42321" lon="6.61625">
        <ele>181.8</ele>
        <time>2020-09-24T18:06:50Z</time>
      </trkpt>
      <trkpt lat="49.42305" lon="6.61599">
        <ele>182.6</ele>
        <time>2020-09-24T18:06:56Z</time>
      </trkpt>
      <trkpt lat="49.42285" lon="6.61568">
        <ele>183</ele>
        <time>2020-09-24T18:07:04Z</time>
      </trkpt>
      <trkpt lat="49.42267" lon="6.61537">
        <ele>183.6</ele>
        <time>2020-09-24T18:07:12Z</time>
      </trkpt>
      <trkpt lat="49.42253" lon="6.61512">
        <ele>184.4</ele>
        <time>2020-09-24T18:07:18Z</time>
      </trkpt>
      <trkpt lat="49.42243" lon="6.61493">
        <ele>185</ele>
        <time>2020-09-24T18:07:23Z</time>
      </trkpt>
      <trkpt lat="49.42234" lon="6.61471">
        <ele>185.6</ele>
        <time>2020-09-24T18:07:28Z</time>
      </trkpt>
      <trkpt lat="49.42226" lon="6.61447">
        <ele>186.4</ele>
        <time>2020-09-24T18:07:33Z</time>
      </trkpt>
      <trkpt lat="49.42215" lon="6.61414">
        <ele>187.8</ele>
        <time>2020-09-24T18:07:40Z</time>
      </trkpt>
      <trkpt lat="49.42205" lon="6.61385">
        <ele>188.8</ele>
        <time>2020-09-24T18:07:46Z</time>
      </trkpt>
      <trkpt lat="49.42197" lon="6.61363">
        <ele>190</ele>
        <time>2020-09-24T18:07:51Z</time>
      </trkpt>
      <trkpt lat="49.4219" lon="6.6134">
        <ele>191.2</ele>
        <time>2020-09-24T18:07:56Z</time>
      </trkpt>
      <trkpt lat="49.42178" lon="6.61306">
        <ele>193</ele>
        <time>2020-09-24T18:08:03Z</time>
      </trkpt>
      <trkpt lat="49.42171" lon="6.61282">
        <ele>194.4</ele>
        <time>2020-09-24T18:08:08Z</time>
      </trkpt>
      <trkpt lat="49.42167" lon="6.61267">
        <ele>195</ele>
        <time>2020-09-24T18:08:11Z</time>
      </trkpt>
      <trkpt lat="49.42166" lon="6.61263">
        <ele>195.2</ele>
        <time>2020-09-24T18:08:12Z</time>
      </trkpt>
      <trkpt lat="49.4216" lon="6.6124">
        <ele>196.6</ele>
        <time>2020-09-24T18:08:17Z</time>
      </trkpt>
      <trkpt lat="49.42154" lon="6.61217">
        <ele>197.8</ele>
        <time>2020-09-24T18:08:22Z</time>
      </trkpt>
      <trkpt lat="49.42147" lon="6.6119">
        <ele>199.4</ele>
        <time>2020-09-24T18:08:27Z</time>
      </trkpt>
      <trkpt lat="49.4214" lon="6.61165">
        <ele>201</ele>
        <time>2020-09-24T18:08:32Z</time>
      </trkpt>
      <trkpt lat="49.42133" lon="6.61138">
        <ele>202.4</ele>
        <time>2020-09-24T18:08:38Z</time>
      </trkpt>
      <trkpt lat="49.42126" lon="6.61113">
        <ele>203.8</ele>
        <time>2020-09-24T18:08:43Z</time>
      </trkpt>
      <trkpt lat="49.42121" lon="6.61094">
        <ele>204.8</ele>
        <time>2020-09-24T18:08:47Z</time>
      </trkpt>
      <trkpt lat="49.42113" lon="6.61063">
        <ele>206.4</ele>
        <time>2020-09-24T18:08:53Z</time>
      </trkpt>
      <trkpt lat="49.42103" lon="6.61036">
        <ele>207.2</ele>
        <time>2020-09-24T18:08:58Z</time>
      </trkpt>
      <trkpt lat="49.4209" lon="6.61007">
        <ele>208.4</ele>
        <time>2020-09-24T18:09:04Z</time>
      </trkpt>
      <trkpt lat="49.42075" lon="6.60985">
        <ele>209</ele>
        <time>2020-09-24T18:09:09Z</time>
      </trkpt>
      <trkpt lat="49.42059" lon="6.60962">
        <ele>209.2</ele>
        <time>2020-09-24T18:09:15Z</time>
      </trkpt>
      <trkpt lat="49.42042" lon="6.60938">
        <ele>209.6</ele>
        <time>2020-09-24T18:09:21Z</time>
      </trkpt>
      <trkpt lat="49.42022" lon="6.60911">
        <ele>210.4</ele>
        <time>2020-09-24T18:09:28Z</time>
      </trkpt>
      <trkpt lat="49.42006" lon="6.60887">
        <ele>210.6</ele>
        <time>2020-09-24T18:09:34Z</time>
      </trkpt>
      <trkpt lat="49.41982" lon="6.60853">
        <ele>211</ele>
        <time>2020-09-24T18:09:43Z</time>
      </trkpt>
      <trkpt lat="49.41957" lon="6.60818">
        <ele>211.4</ele>
        <time>2020-09-24T18:09:52Z</time>
      </trkpt>
      <trkpt lat="49.41937" lon="6.60785">
        <ele>211.8</ele>
        <time>2020-09-24T18:10:00Z</time>
      </trkpt>
      <trkpt lat="49.41916" lon="6.60748">
        <ele>212.2</ele>
        <time>2020-09-24T18:10:09Z</time>
      </trkpt>
      <trkpt lat="49.41899" lon="6.6072">
        <ele>212.6</ele>
        <time>2020-09-24T18:10:16Z</time>
      </trkpt>
      <trkpt lat="49.41883" lon="6.6069">
        <ele>212.8</ele>
        <time>2020-09-24T18:10:23Z</time>
      </trkpt>
      <trkpt lat="49.41863" lon="6.60656">
        <ele>213.4</ele>
        <time>2020-09-24T18:10:31Z</time>
      </trkpt>
      <trkpt lat="49.4184" lon="6.60611">
        <ele>214</ele>
        <time>2020-09-24T18:10:41Z</time>
      </trkpt>
      <trkpt lat="49.4182" lon="6.60571">
        <ele>214.6</ele>
        <time>2020-09-24T18:10:50Z</time>
      </trkpt>
      <trkpt lat="49.41805" lon="6.60542">
        <ele>215.2</ele>
        <time>2020-09-24T18:10:57Z</time>
      </trkpt>
      <trkpt lat="49.4179" lon="6.60512">
        <ele>215.6</ele>
        <time>2020-09-24T18:11:04Z</time>
      </trkpt>
      <trkpt lat="49.4177" lon="6.60465">
        <ele>216.2</ele>
        <time>2020-09-24T18:11:14Z</time>
      </trkpt>
      <trkpt lat="49.41755" lon="6.60429">
        <ele>216.4</ele>
        <time>2020-09-24T18:11:22Z</time>
      </trkpt>
      <trkpt lat="49.41741" lon="6.60392">
        <ele>217</ele>
        <time>2020-09-24T18:11:30Z</time>
      </trkpt>
      <trkpt lat="49.41729" lon="6.60349">
        <ele>217.4</ele>
        <time>2020-09-24T18:11:39Z</time>
      </trkpt>
      <trkpt lat="49.41717" lon="6.60302">
        <ele>218.4</ele>
        <time>2020-09-24T18:11:49Z</time>
      </trkpt>
      <trkpt lat="49.41709" lon="6.6027">
        <ele>218.8</ele>
        <time>2020-09-24T18:11:56Z</time>
      </trkpt>
      <trkpt lat="49.417" lon="6.60236">
        <ele>219.4</ele>
        <time>2020-09-24T18:12:03Z</time>
      </trkpt>
      <trkpt lat="49.4169" lon="6.60187">
        <ele>219.8</ele>
        <time>2020-09-24T18:12:13Z</time>
      </trkpt>
      <trkpt lat="49.41681" lon="6.60146">
        <ele>220.6</ele>
        <time>2020-09-24T18:12:21Z</time>
      </trkpt>
      <trkpt lat="49.41675" lon="6.60117">
        <ele>221.2</ele>
        <time>2020-09-24T18:12:27Z</time>
      </trkpt>
      <trkpt lat="49.41666" lon="6.60065">
        <ele>222</ele>
        <time>2020-09-24T18:12:37Z</time>
      </trkpt>
      <trkpt lat="49.4166" lon="6.60023">
        <ele>222.8</ele>
        <time>2020-09-24T18:12:45Z</time>
      </trkpt>
      <trkpt lat="49.41654" lon="6.59972">
        <ele>223.4</ele>
        <time>2020-09-24T18:12:54Z</time>
      </trkpt>
      <trkpt lat="49.41649" lon="6.59915">
        <ele>223.8</ele>
        <time>2020-09-24T18:13:03Z</time>
      </trkpt>
      <trkpt lat="49.41647" lon="6.59901">
        <ele>223.8</ele>
        <time>2020-09-24T18:13:05Z</time>
      </trkpt>
      <trkpt lat="49.41645" lon="6.59879">
        <ele>224</ele>
        <time>2020-09-24T18:13:08Z</time>
      </trkpt>
      <trkpt lat="49.41641" lon="6.59827">
        <ele>224.2</ele>
        <time>2020-09-24T18:13:15Z</time>
      </trkpt>
      <trkpt lat="49.4164" lon="6.59794">
        <ele>224.6</ele>
        <time>2020-09-24T18:13:21Z</time>
      </trkpt>
      <trkpt lat="49.41638" lon="6.59753">
        <ele>225.2</ele>
        <time>2020-09-24T18:13:29Z</time>
      </trkpt>
      <trkpt lat="49.41636" lon="6.59703">
        <ele>226.2</ele>
        <time>2020-09-24T18:13:38Z</time>
      </trkpt>
      <trkpt lat="49.41636" lon="6.59685">
        <ele>226.6</ele>
        <time>2020-09-24T18:13:41Z</time>
      </trkpt>
      <trkpt lat="49.41636" lon="6.59659">
        <ele>226.8</ele>
        <time>2020-09-24T18:13:45Z</time>
      </trkpt>
      <trkpt lat="49.4164" lon="6.59607">
        <ele>227.4</ele>
        <time>2020-09-24T18:13:52Z</time>
      </trkpt>
      <trkpt lat="49.41645" lon="6.59537">
        <ele>227.6</ele>
        <time>2020-09-24T18:14:01Z</time>
      </trkpt>
      <trkpt lat="49.4165" lon="6.59491">
        <ele>228.2</ele>
        <time>2020-09-24T18:14:08Z</time>
      </trkpt>
      <trkpt lat="49.41654" lon="6.59453">
        <ele>228.6</ele>
        <time>2020-09-24T18:14:15Z</time>
      </trkpt>
      <trkpt lat="49.41659" lon="6.59408">
        <ele>229.6</ele>
        <time>2020-09-24T18:14:23Z</time>
      </trkpt>
      <trkpt lat="49.41669" lon="6.59355">
        <ele>230.6</ele>
        <time>2020-09-24T18:14:32Z</time>
      </trkpt>
      <trkpt lat="49.41679" lon="6.59313">
        <ele>231.2</ele>
        <time>2020-09-24T18:14:39Z</time>
      </trkpt>
      <trkpt lat="49.41685" lon="6.59284">
        <ele>231.8</ele>
        <time>2020-09-24T18:14:44Z</time>
      </trkpt>
      <trkpt lat="49.41686" lon="6.59272">
        <ele>231.8</ele>
        <time>2020-09-24T18:14:46Z</time>
      </trkpt>
      <trkpt lat="49.41689" lon="6.59254">
        <ele>232.2</ele>
        <time>2020-09-24T18:14:49Z</time>
      </trkpt>
      <trkpt lat="49.4169" lon="6.59242">
        <ele>232.2</ele>
        <time>2020-09-24T18:14:51Z</time>
      </trkpt>
      <trkpt lat="49.41695" lon="6.59205">
        <ele>232.8</ele>
        <time>2020-09-24T18:14:57Z</time>
      </trkpt>
      <trkpt lat="49.41697" lon="6.59193">
        <ele>233</ele>
        <time>2020-09-24T18:14:59Z</time>
      </trkpt>
      <trkpt lat="49.41709" lon="6.59137">
        <ele>233.8</ele>
        <time>2020-09-24T18:15:09Z</time>
      </trkpt>
      <trkpt lat="49.4172" lon="6.59097">
        <ele>234.2</ele>
        <time>2020-09-24T18:15:17Z</time>
      </trkpt>
      <trkpt lat="49.4173" lon="6.59071">
        <ele>234.8</ele>
        <time>2020-09-24T18:15:23Z</time>
      </trkpt>
      <trkpt lat="49.41743" lon="6.5904">
        <ele>235.4</ele>
        <time>2020-09-24T18:15:31Z</time>
      </trkpt>
      <trkpt lat="49.41755" lon="6.59013">
        <ele>236.2</ele>
        <time>2020-09-24T18:15:39Z</time>
      </trkpt>
      <trkpt lat="49.41766" lon="6.5899">
        <ele>236.6</ele>
        <time>2020-09-24T18:15:45Z</time>
      </trkpt>
      <trkpt lat="49.41781" lon="6.58961">
        <ele>237.4</ele>
        <time>2020-09-24T18:15:53Z</time>
      </trkpt>
      <trkpt lat="49.41794" lon="6.58935">
        <ele>238.2</ele>
        <time>2020-09-24T18:16:00Z</time>
      </trkpt>
      <trkpt lat="49.41807" lon="6.58908">
        <ele>239</ele>
        <time>2020-09-24T18:16:07Z</time>
      </trkpt>
      <trkpt lat="49.4182" lon="6.58882">
        <ele>239.8</ele>
        <time>2020-09-24T18:16:14Z</time>
      </trkpt>
      <trkpt lat="49.41832" lon="6.58856">
        <ele>240.6</ele>
        <time>2020-09-24T18:16:21Z</time>
      </trkpt>
      <trkpt lat="49.41841" lon="6.58832">
        <ele>241.4</ele>
        <time>2020-09-24T18:16:27Z</time>
      </trkpt>
      <trkpt lat="49.4185" lon="6.58807">
        <ele>242.2</ele>
        <time>2020-09-24T18:16:33Z</time>
      </trkpt>
      <trkpt lat="49.41859" lon="6.58783">
        <ele>243</ele>
        <time>2020-09-24T18:16:39Z</time>
      </trkpt>
      <trkpt lat="49.41868" lon="6.5875">
        <ele>243.8</ele>
        <time>2020-09-24T18:16:47Z</time>
      </trkpt>
      <trkpt lat="49.41875" lon="6.58728">
        <ele>244.4</ele>
        <time>2020-09-24T18:16:52Z</time>
      </trkpt>
      <trkpt lat="49.41886" lon="6.58687">
        <ele>245.4</ele>
        <time>2020-09-24T18:17:02Z</time>
      </trkpt>
      <trkpt lat="49.41898" lon="6.58645">
        <ele>246.2</ele>
        <time>2020-09-24T18:17:12Z</time>
      </trkpt>
      <trkpt lat="49.41906" lon="6.58616">
        <ele>246.8</ele>
        <time>2020-09-24T18:17:19Z</time>
      </trkpt>
      <trkpt lat="49.41912" lon="6.58595">
        <ele>247.2</ele>
        <time>2020-09-24T18:17:24Z</time>
      </trkpt>
      <trkpt lat="49.41921" lon="6.58563">
        <ele>248</ele>
        <time>2020-09-24T18:17:32Z</time>
      </trkpt>
      <trkpt lat="49.41929" lon="6.58532">
        <ele>248.6</ele>
        <time>2020-09-24T18:17:39Z</time>
      </trkpt>
      <trkpt lat="49.41936" lon="6.58506">
        <ele>249.4</ele>
        <time>2020-09-24T18:17:45Z</time>
      </trkpt>
      <trkpt lat="49.4194" lon="6.58492">
        <ele>249.8</ele>
        <time>2020-09-24T18:17:50Z</time>
      </trkpt>
      <trkpt lat="49.41941" lon="6.58489">
        <ele>250</ele>
        <time>2020-09-24T18:17:52Z</time>
      </trkpt>
      <trkpt lat="49.41942" lon="6.58487">
        <ele>250.4</ele>
        <time>2020-09-24T18:17:55Z</time>
      </trkpt>
      <trkpt lat="49.41942" lon="6.58486">
        <ele>250.6</ele>
        <time>2020-09-24T18:17:56Z</time>
      </trkpt>
      <trkpt lat="49.41943" lon="6.58488">
        <ele>250.8</ele>
        <time>2020-09-24T18:17:59Z</time>
      </trkpt>
      <trkpt lat="49.41938" lon="6.585">
        <ele>251</ele>
        <time>2020-09-24T18:18:05Z</time>
      </trkpt>
      <trkpt lat="49.41935" lon="6.58511">
        <ele>251.6</ele>
        <time>2020-09-24T18:18:11Z</time>
      </trkpt>
      <trkpt lat="49.41935" lon="6.58511">
        <ele>252.4</ele>
        <time>2020-09-24T18:18:22Z</time>
      </trkpt>
      <trkpt lat="49.41935" lon="6.58511">
        <ele>253.4</ele>
        <time>2020-09-24T18:18:39Z</time>
      </trkpt>
      <trkpt lat="49.41935" lon="6.58511">
        <ele>254.4</ele>
        <time>2020-09-24T18:19:03Z</time>
      </trkpt>
      <trkpt lat="49.41935" lon="6.58511">
        <ele>255</ele>
        <time>2020-09-24T18:19:19Z</time>
      </trkpt>
      <trkpt lat="49.41935" lon="6.58511">
        <ele>255.6</ele>
        <time>2020-09-24T18:19:46Z</time>
      </trkpt>
      <trkpt lat="49.41935" lon="6.58511">
        <ele>256.2</ele>
        <time>2020-09-24T18:20:10Z</time>
      </trkpt>
      <trkpt lat="49.41935" lon="6.58511">
        <ele>256.6</ele>
        <time>2020-09-24T18:20:30Z</time>
      </trkpt>
      <trkpt lat="49.41935" lon="6.58511">
        <ele>256.8</ele>
        <time>2020-09-24T18:20:42Z</time>
      </trkpt>
      <trkpt lat="49.41935" lon="6.58511">
        <ele>257.2</ele>
        <time>2020-09-24T18:21:07Z</time>
      </trkpt>
      <trkpt lat="49.41935" lon="6.58511">
        <ele>257.6</ele>
        <time>2020-09-24T18:21:37Z</time>
      </trkpt>
      <trkpt lat="49.41935" lon="6.58511">
        <ele>257.6</ele>
        <time>2020-09-24T18:22:06Z</time>
      </trkpt>
      <trkpt lat="49.41935" lon="6.58511">
        <ele>257.4</ele>
        <time>2020-09-24T18:22:34Z</time>
      </trkpt>
      <trkpt lat="49.41935" lon="6.58511">
        <ele>257.2</ele>
        <time>2020-09-24T18:22:56Z</time>
      </trkpt>
      <trkpt lat="49.41935" lon="6.58511">
        <ele>257.2</ele>
        <time>2020-09-24T18:23:12Z</time>
      </trkpt>
      <trkpt lat="49.4194" lon="6.5851">
        <ele>257.2</ele>
        <time>2020-09-24T18:23:20Z</time>
      </trkpt>
      <trkpt lat="49.41941" lon="6.58509">
        <ele>257</ele>
        <time>2020-09-24T18:23:28Z</time>
      </trkpt>
      <trkpt lat="49.41941" lon="6.58509">
        <ele>257</ele>
        <time>2020-09-24T18:23:37Z</time>
      </trkpt>
      <trkpt lat="49.41941" lon="6.58509">
        <ele>257</ele>
        <time>2020-09-24T18:23:50Z</time>
      </trkpt>
      <trkpt lat="49.41937" lon="6.58503">
        <ele>257.2</ele>
        <time>2020-09-24T18:23:54Z</time>
      </trkpt>
      <trkpt lat="49.41938" lon="6.58499">
        <ele>257.2</ele>
        <time>2020-09-24T18:23:56Z</time>
      </trkpt>
      <trkpt lat="49.41943" lon="6.58484">
        <ele>257</ele>
        <time>2020-09-24T18:24:02Z</time>
      </trkpt>
      <trkpt lat="49.41952" lon="6.58449">
        <ele>256.8</ele>
        <time>2020-09-24T18:24:12Z</time>
      </trkpt>
      <trkpt lat="49.4196" lon="6.58423">
        <ele>256.8</ele>
        <time>2020-09-24T18:24:19Z</time>
      </trkpt>
      <trkpt lat="49.41966" lon="6.58402">
        <ele>257</ele>
        <time>2020-09-24T18:24:26Z</time>
      </trkpt>
      <trkpt lat="49.41966" lon="6.58401">
        <ele>257</ele>
        <time>2020-09-24T18:24:31Z</time>
      </trkpt>
      <trkpt lat="49.41966" lon="6.58401">
        <ele>257.2</ele>
        <time>2020-09-24T18:24:44Z</time>
      </trkpt>
      <trkpt lat="49.41966" lon="6.584">
        <ele>257.4</ele>
        <time>2020-09-24T18:25:05Z</time>
      </trkpt>
      <trkpt lat="49.41969" lon="6.58389">
        <ele>257.4</ele>
        <time>2020-09-24T18:25:09Z</time>
      </trkpt>
      <trkpt lat="49.41974" lon="6.58371">
        <ele>257.4</ele>
        <time>2020-09-24T18:25:14Z</time>
      </trkpt>
      <trkpt lat="49.41986" lon="6.5833">
        <ele>257.8</ele>
        <time>2020-09-24T18:25:24Z</time>
      </trkpt>
      <trkpt lat="49.42001" lon="6.58274">
        <ele>258.2</ele>
        <time>2020-09-24T18:25:36Z</time>
      </trkpt>
      <trkpt lat="49.42013" lon="6.58232">
        <ele>258.6</ele>
        <time>2020-09-24T18:25:45Z</time>
      </trkpt>
      <trkpt lat="49.42024" lon="6.58193">
        <ele>259</ele>
        <time>2020-09-24T18:25:53Z</time>
      </trkpt>
      <trkpt lat="49.42038" lon="6.58144">
        <ele>259.4</ele>
        <time>2020-09-24T18:26:03Z</time>
      </trkpt>
      <trkpt lat="49.4205" lon="6.581">
        <ele>260.2</ele>
        <time>2020-09-24T18:26:12Z</time>
      </trkpt>
      <trkpt lat="49.42064" lon="6.58051">
        <ele>260.8</ele>
        <time>2020-09-24T18:26:22Z</time>
      </trkpt>
      <trkpt lat="49.42077" lon="6.58004">
        <ele>261.8</ele>
        <time>2020-09-24T18:26:32Z</time>
      </trkpt>
      <trkpt lat="49.42089" lon="6.5796">
        <ele>262.6</ele>
        <time>2020-09-24T18:26:41Z</time>
      </trkpt>
      <trkpt lat="49.42101" lon="6.57917">
        <ele>263.2</ele>
        <time>2020-09-24T18:26:50Z</time>
      </trkpt>
      <trkpt lat="49.42113" lon="6.57877">
        <ele>264</ele>
        <time>2020-09-24T18:26:58Z</time>
      </trkpt>
      <trkpt lat="49.42125" lon="6.57831">
        <ele>265</ele>
        <time>2020-09-24T18:27:07Z</time>
      </trkpt>
      <trkpt lat="49.42139" lon="6.57781">
        <ele>265.8</ele>
        <time>2020-09-24T18:27:17Z</time>
      </trkpt>
      <trkpt lat="49.4215" lon="6.57744">
        <ele>266.4</ele>
        <time>2020-09-24T18:27:24Z</time>
      </trkpt>
      <trkpt lat="49.42163" lon="6.57695">
        <ele>267.4</ele>
        <time>2020-09-24T18:27:33Z</time>
      </trkpt>
      <trkpt lat="49.42174" lon="6.57656">
        <ele>268.2</ele>
        <time>2020-09-24T18:27:40Z</time>
      </trkpt>
      <trkpt lat="49.42187" lon="6.57605">
        <ele>269</ele>
        <time>2020-09-24T18:27:49Z</time>
      </trkpt>
      <trkpt lat="49.422" lon="6.5755">
        <ele>269.8</ele>
        <time>2020-09-24T18:27:59Z</time>
      </trkpt>
      <trkpt lat="49.42211" lon="6.57505">
        <ele>270.4</ele>
        <time>2020-09-24T18:28:07Z</time>
      </trkpt>
      <trkpt lat="49.42219" lon="6.5746">
        <ele>271.4</ele>
        <time>2020-09-24T18:28:16Z</time>
      </trkpt>
      <trkpt lat="49.42235" lon="6.57433">
        <ele>271.8</ele>
        <time>2020-09-24T18:28:22Z</time>
      </trkpt>
      <trkpt lat="49.42248" lon="6.57424">
        <ele>272.4</ele>
        <time>2020-09-24T18:28:27Z</time>
      </trkpt>
      <trkpt lat="49.4226" lon="6.57415">
        <ele>273</ele>
        <time>2020-09-24T18:28:32Z</time>
      </trkpt>
      <trkpt lat="49.42266" lon="6.5739">
        <ele>273.6</ele>
        <time>2020-09-24T18:28:37Z</time>
      </trkpt>
      <trkpt lat="49.42273" lon="6.57341">
        <ele>274</ele>
        <time>2020-09-24T18:28:45Z</time>
      </trkpt>
      <trkpt lat="49.42279" lon="6.57313">
        <ele>274</ele>
        <time>2020-09-24T18:28:49Z</time>
      </trkpt>
      <trkpt lat="49.42283" lon="6.57295">
        <ele>274.2</ele>
        <time>2020-09-24T18:28:52Z</time>
      </trkpt>
      <trkpt lat="49.42292" lon="6.57254">
        <ele>274.6</ele>
        <time>2020-09-24T18:28:59Z</time>
      </trkpt>
      <trkpt lat="49.42298" lon="6.57228">
        <ele>274.8</ele>
        <time>2020-09-24T18:29:04Z</time>
      </trkpt>
      <trkpt lat="49.42304" lon="6.57208">
        <ele>275.2</ele>
        <time>2020-09-24T18:29:08Z</time>
      </trkpt>
      <trkpt lat="49.42317" lon="6.57175">
        <ele>275.6</ele>
        <time>2020-09-24T18:29:15Z</time>
      </trkpt>
      <trkpt lat="49.42331" lon="6.57151">
        <ele>276</ele>
        <time>2020-09-24T18:29:21Z</time>
      </trkpt>
      <trkpt lat="49.42348" lon="6.57119">
        <ele>276.8</ele>
        <time>2020-09-24T18:29:29Z</time>
      </trkpt>
      <trkpt lat="49.42361" lon="6.57097">
        <ele>277.4</ele>
        <time>2020-09-24T18:29:35Z</time>
      </trkpt>
      <trkpt lat="49.42377" lon="6.57065">
        <ele>277.8</ele>
        <time>2020-09-24T18:29:42Z</time>
      </trkpt>
      <trkpt lat="49.42384" lon="6.57041">
        <ele>278</ele>
        <time>2020-09-24T18:29:47Z</time>
      </trkpt>
      <trkpt lat="49.42391" lon="6.57019">
        <ele>278.2</ele>
        <time>2020-09-24T18:29:52Z</time>
      </trkpt>
      <trkpt lat="49.42395" lon="6.56995">
        <ele>279</ele>
        <time>2020-09-24T18:29:59Z</time>
      </trkpt>
      <trkpt lat="49.42397" lon="6.56978">
        <ele>279.8</ele>
        <time>2020-09-24T18:30:05Z</time>
      </trkpt>
      <trkpt lat="49.42399" lon="6.56963">
        <ele>280.2</ele>
        <time>2020-09-24T18:30:10Z</time>
      </trkpt>
      <trkpt lat="49.42401" lon="6.56942">
        <ele>281.2</ele>
        <time>2020-09-24T18:30:18Z</time>
      </trkpt>
      <trkpt lat="49.42406" lon="6.56918">
        <ele>282.4</ele>
        <time>2020-09-24T18:30:27Z</time>
      </trkpt>
      <trkpt lat="49.4241" lon="6.56908">
        <ele>283</ele>
        <time>2020-09-24T18:30:31Z</time>
      </trkpt>
      <trkpt lat="49.42412" lon="6.56902">
        <ele>283.2</ele>
        <time>2020-09-24T18:30:33Z</time>
      </trkpt>
      <trkpt lat="49.4242" lon="6.56882">
        <ele>284.2</ele>
        <time>2020-09-24T18:30:40Z</time>
      </trkpt>
      <trkpt lat="49.42425" lon="6.56867">
        <ele>285</ele>
        <time>2020-09-24T18:30:46Z</time>
      </trkpt>
      <trkpt lat="49.4243" lon="6.56853">
        <ele>285.8</ele>
        <time>2020-09-24T18:30:51Z</time>
      </trkpt>
      <trkpt lat="49.42434" lon="6.56836">
        <ele>286.6</ele>
        <time>2020-09-24T18:30:57Z</time>
      </trkpt>
      <trkpt lat="49.42438" lon="6.56821">
        <ele>287.2</ele>
        <time>2020-09-24T18:31:02Z</time>
      </trkpt>
      <trkpt lat="49.42443" lon="6.56802">
        <ele>288.2</ele>
        <time>2020-09-24T18:31:08Z</time>
      </trkpt>
      <trkpt lat="49.42449" lon="6.5678">
        <ele>289.2</ele>
        <time>2020-09-24T18:31:15Z</time>
      </trkpt>
      <trkpt lat="49.42454" lon="6.56764">
        <ele>289.6</ele>
        <time>2020-09-24T18:31:20Z</time>
      </trkpt>
      <trkpt lat="49.42455" lon="6.56762">
        <ele>289.8</ele>
        <time>2020-09-24T18:31:21Z</time>
      </trkpt>
      <trkpt lat="49.4246" lon="6.56755">
        <ele>290.2</ele>
        <time>2020-09-24T18:31:24Z</time>
      </trkpt>
      <trkpt lat="49.42468" lon="6.56741">
        <ele>291.2</ele>
        <time>2020-09-24T18:31:30Z</time>
      </trkpt>
      <trkpt lat="49.4248" lon="6.56722">
        <ele>292.2</ele>
        <time>2020-09-24T18:31:37Z</time>
      </trkpt>
      <trkpt lat="49.42491" lon="6.56704">
        <ele>293.2</ele>
        <time>2020-09-24T18:31:44Z</time>
      </trkpt>
      <trkpt lat="49.42505" lon="6.56684">
        <ele>294.2</ele>
        <time>2020-09-24T18:31:52Z</time>
      </trkpt>
      <trkpt lat="49.42522" lon="6.56662">
        <ele>295.4</ele>
        <time>2020-09-24T18:32:01Z</time>
      </trkpt>
      <trkpt lat="49.42532" lon="6.56644">
        <ele>296.2</ele>
        <time>2020-09-24T18:32:08Z</time>
      </trkpt>
      <trkpt lat="49.42538" lon="6.56613">
        <ele>297.4</ele>
        <time>2020-09-24T18:32:17Z</time>
      </trkpt>
      <trkpt lat="49.42543" lon="6.56588">
        <ele>298.2</ele>
        <time>2020-09-24T18:32:24Z</time>
      </trkpt>
      <trkpt lat="49.42548" lon="6.56562">
        <ele>298.8</ele>
        <time>2020-09-24T18:32:31Z</time>
      </trkpt>
      <trkpt lat="49.42553" lon="6.56536">
        <ele>299.8</ele>
        <time>2020-09-24T18:32:38Z</time>
      </trkpt>
      <trkpt lat="49.42559" lon="6.56506">
        <ele>301</ele>
        <time>2020-09-24T18:32:46Z</time>
      </trkpt>
      <trkpt lat="49.42564" lon="6.56475">
        <ele>301.8</ele>
        <time>2020-09-24T18:32:54Z</time>
      </trkpt>
      <trkpt lat="49.4257" lon="6.56447">
        <ele>302.8</ele>
        <time>2020-09-24T18:33:01Z</time>
      </trkpt>
      <trkpt lat="49.42575" lon="6.56418">
        <ele>303.6</ele>
        <time>2020-09-24T18:33:08Z</time>
      </trkpt>
      <trkpt lat="49.42582" lon="6.56381">
        <ele>304.6</ele>
        <time>2020-09-24T18:33:17Z</time>
      </trkpt>
      <trkpt lat="49.42588" lon="6.56347">
        <ele>305.6</ele>
        <time>2020-09-24T18:33:25Z</time>
      </trkpt>
      <trkpt lat="49.42595" lon="6.5631">
        <ele>306.6</ele>
        <time>2020-09-24T18:33:34Z</time>
      </trkpt>
      <trkpt lat="49.42604" lon="6.56277">
        <ele>307.6</ele>
        <time>2020-09-24T18:33:42Z</time>
      </trkpt>
      <trkpt lat="49.42615" lon="6.56255">
        <ele>308.6</ele>
        <time>2020-09-24T18:33:49Z</time>
      </trkpt>
      <trkpt lat="49.42628" lon="6.56229">
        <ele>309.8</ele>
        <time>2020-09-24T18:33:57Z</time>
      </trkpt>
      <trkpt lat="49.42651" lon="6.562">
        <ele>311.4</ele>
        <time>2020-09-24T18:34:08Z</time>
      </trkpt>
      <trkpt lat="49.42676" lon="6.56169">
        <ele>312.6</ele>
        <time>2020-09-24T18:34:19Z</time>
      </trkpt>
      <trkpt lat="49.42691" lon="6.56149">
        <ele>313.4</ele>
        <time>2020-09-24T18:34:26Z</time>
      </trkpt>
      <trkpt lat="49.42706" lon="6.56131">
        <ele>314</ele>
        <time>2020-09-24T18:34:31Z</time>
      </trkpt>
      <trkpt lat="49.42727" lon="6.56104">
        <ele>314.2</ele>
        <time>2020-09-24T18:34:36Z</time>
      </trkpt>
      <trkpt lat="49.42755" lon="6.56069">
        <ele>314.4</ele>
        <time>2020-09-24T18:34:41Z</time>
      </trkpt>
      <trkpt lat="49.42773" lon="6.56047">
        <ele>314.6</ele>
        <time>2020-09-24T18:34:45Z</time>
      </trkpt>
      <trkpt lat="49.42786" lon="6.5603">
        <ele>314.8</ele>
        <time>2020-09-24T18:34:50Z</time>
      </trkpt>
      <trkpt lat="49.42799" lon="6.56013">
        <ele>315.4</ele>
        <time>2020-09-24T18:34:57Z</time>
      </trkpt>
      <trkpt lat="49.42813" lon="6.55988">
        <ele>316.2</ele>
        <time>2020-09-24T18:35:06Z</time>
      </trkpt>
      <trkpt lat="49.42827" lon="6.55962">
        <ele>317.4</ele>
        <time>2020-09-24T18:35:15Z</time>
      </trkpt>
      <trkpt lat="49.42841" lon="6.55936">
        <ele>318.6</ele>
        <time>2020-09-24T18:35:24Z</time>
      </trkpt>
      <trkpt lat="49.42854" lon="6.55911">
        <ele>319.6</ele>
        <time>2020-09-24T18:35:32Z</time>
      </trkpt>
      <trkpt lat="49.42867" lon="6.55876">
        <ele>321</ele>
        <time>2020-09-24T18:35:42Z</time>
      </trkpt>
      <trkpt lat="49.42876" lon="6.55852">
        <ele>322</ele>
        <time>2020-09-24T18:35:49Z</time>
      </trkpt>
      <trkpt lat="49.42886" lon="6.55826">
        <ele>323.2</ele>
        <time>2020-09-24T18:35:56Z</time>
      </trkpt>
      <trkpt lat="49.42895" lon="6.558">
        <ele>324</ele>
        <time>2020-09-24T18:36:02Z</time>
      </trkpt>
      <trkpt lat="49.42906" lon="6.55763">
        <ele>325.2</ele>
        <time>2020-09-24T18:36:12Z</time>
      </trkpt>
      <trkpt lat="49.42916" lon="6.55732">
        <ele>326.2</ele>
        <time>2020-09-24T18:36:20Z</time>
      </trkpt>
      <trkpt lat="49.42923" lon="6.55704">
        <ele>327.2</ele>
        <time>2020-09-24T18:36:27Z</time>
      </trkpt>
      <trkpt lat="49.42932" lon="6.55671">
        <ele>328.2</ele>
        <time>2020-09-24T18:36:35Z</time>
      </trkpt>
      <trkpt lat="49.42942" lon="6.55633">
        <ele>329</ele>
        <time>2020-09-24T18:36:43Z</time>
      </trkpt>
      <trkpt lat="49.42953" lon="6.55593">
        <ele>329.4</ele>
        <time>2020-09-24T18:36:49Z</time>
      </trkpt>
      <trkpt lat="49.42965" lon="6.55545">
        <ele>329.8</ele>
        <time>2020-09-24T18:36:56Z</time>
      </trkpt>
      <trkpt lat="49.42976" lon="6.55505">
        <ele>330.2</ele>
        <time>2020-09-24T18:37:03Z</time>
      </trkpt>
      <trkpt lat="49.42989" lon="6.55466">
        <ele>330.8</ele>
        <time>2020-09-24T18:37:11Z</time>
      </trkpt>
      <trkpt lat="49.43006" lon="6.55422">
        <ele>331.6</ele>
        <time>2020-09-24T18:37:20Z</time>
      </trkpt>
      <trkpt lat="49.43025" lon="6.55378">
        <ele>332.8</ele>
        <time>2020-09-24T18:37:31Z</time>
      </trkpt>
      <trkpt lat="49.4304" lon="6.55346">
        <ele>333.8</ele>
        <time>2020-09-24T18:37:39Z</time>
      </trkpt>
      <trkpt lat="49.43057" lon="6.5531">
        <ele>334.8</ele>
        <time>2020-09-24T18:37:48Z</time>
      </trkpt>
      <trkpt lat="49.43074" lon="6.55275">
        <ele>335.8</ele>
        <time>2020-09-24T18:37:56Z</time>
      </trkpt>
      <trkpt lat="49.43098" lon="6.55224">
        <ele>337</ele>
        <time>2020-09-24T18:38:07Z</time>
      </trkpt>
      <trkpt lat="49.43118" lon="6.55181">
        <ele>338</ele>
        <time>2020-09-24T18:38:16Z</time>
      </trkpt>
      <trkpt lat="49.43137" lon="6.55139">
        <ele>338.6</ele>
        <time>2020-09-24T18:38:24Z</time>
      </trkpt>
      <trkpt lat="49.43163" lon="6.55082">
        <ele>339.8</ele>
        <time>2020-09-24T18:38:34Z</time>
      </trkpt>
      <trkpt lat="49.43181" lon="6.55035">
        <ele>340.6</ele>
        <time>2020-09-24T18:38:43Z</time>
      </trkpt>
      <trkpt lat="49.43191" lon="6.55002">
        <ele>341.6</ele>
        <time>2020-09-24T18:38:50Z</time>
      </trkpt>
      <trkpt lat="49.43205" lon="6.5496">
        <ele>342.8</ele>
        <time>2020-09-24T18:38:59Z</time>
      </trkpt>
      <trkpt lat="49.43219" lon="6.54918">
        <ele>344.4</ele>
        <time>2020-09-24T18:39:09Z</time>
      </trkpt>
      <trkpt lat="49.4323" lon="6.54887">
        <ele>345.4</ele>
        <time>2020-09-24T18:39:16Z</time>
      </trkpt>
      <trkpt lat="49.43242" lon="6.54852">
        <ele>346.4</ele>
        <time>2020-09-24T18:39:24Z</time>
      </trkpt>
      <trkpt lat="49.43255" lon="6.54817">
        <ele>347.4</ele>
        <time>2020-09-24T18:39:32Z</time>
      </trkpt>
      <trkpt lat="49.43268" lon="6.54778">
        <ele>349</ele>
        <time>2020-09-24T18:39:41Z</time>
      </trkpt>
      <trkpt lat="49.4328" lon="6.54744">
        <ele>350.2</ele>
        <time>2020-09-24T18:39:49Z</time>
      </trkpt>
      <trkpt lat="49.4329" lon="6.54707">
        <ele>351.4</ele>
        <time>2020-09-24T18:39:57Z</time>
      </trkpt>
      <trkpt lat="49.43295" lon="6.54664">
        <ele>352.6</ele>
        <time>2020-09-24T18:40:05Z</time>
      </trkpt>
      <trkpt lat="49.43301" lon="6.54616">
        <ele>353.6</ele>
        <time>2020-09-24T18:40:14Z</time>
      </trkpt>
      <trkpt lat="49.43306" lon="6.54599">
        <ele>354</ele>
        <time>2020-09-24T18:40:18Z</time>
      </trkpt>
      <trkpt lat="49.43313" lon="6.54572">
        <ele>354.6</ele>
        <time>2020-09-24T18:40:24Z</time>
      </trkpt>
      <trkpt lat="49.43321" lon="6.54542">
        <ele>355</ele>
        <time>2020-09-24T18:40:30Z</time>
      </trkpt>
      <trkpt lat="49.43329" lon="6.54511">
        <ele>355.8</ele>
        <time>2020-09-24T18:40:37Z</time>
      </trkpt>
      <trkpt lat="49.43341" lon="6.54468">
        <ele>357.2</ele>
        <time>2020-09-24T18:40:46Z</time>
      </trkpt>
      <trkpt lat="49.43351" lon="6.54428">
        <ele>358.8</ele>
        <time>2020-09-24T18:40:55Z</time>
      </trkpt>
      <trkpt lat="49.43359" lon="6.54402">
        <ele>359.6</ele>
        <time>2020-09-24T18:41:01Z</time>
      </trkpt>
      <trkpt lat="49.43367" lon="6.54378">
        <ele>360.4</ele>
        <time>2020-09-24T18:41:07Z</time>
      </trkpt>
      <trkpt lat="49.43377" lon="6.54362">
        <ele>361</ele>
        <time>2020-09-24T18:41:12Z</time>
      </trkpt>
      <trkpt lat="49.43382" lon="6.54353">
        <ele>361.6</ele>
        <time>2020-09-24T18:41:16Z</time>
      </trkpt>
      <trkpt lat="49.43384" lon="6.54352">
        <ele>361.8</ele>
        <time>2020-09-24T18:41:17Z</time>
      </trkpt>
      <trkpt lat="49.43393" lon="6.54342">
        <ele>362.6</ele>
        <time>2020-09-24T18:41:24Z</time>
      </trkpt>
      <trkpt lat="49.43397" lon="6.54338">
        <ele>362.8</ele>
        <time>2020-09-24T18:41:26Z</time>
      </trkpt>
      <trkpt lat="49.43401" lon="6.54333">
        <ele>363</ele>
        <time>2020-09-24T18:41:29Z</time>
      </trkpt>
      <trkpt lat="49.43405" lon="6.54329">
        <ele>363.2</ele>
        <time>2020-09-24T18:41:33Z</time>
      </trkpt>
      <trkpt lat="49.43406" lon="6.54328">
        <ele>363.2</ele>
        <time>2020-09-24T18:41:34Z</time>
      </trkpt>
      <trkpt lat="49.43411" lon="6.54323">
        <ele>363.6</ele>
        <time>2020-09-24T18:41:39Z</time>
      </trkpt>
      <trkpt lat="49.43412" lon="6.54322">
        <ele>363.6</ele>
        <time>2020-09-24T18:41:40Z</time>
      </trkpt>
      <trkpt lat="49.43419" lon="6.54314">
        <ele>364</ele>
        <time>2020-09-24T18:41:44Z</time>
      </trkpt>
      <trkpt lat="49.43433" lon="6.54296">
        <ele>364.4</ele>
        <time>2020-09-24T18:41:49Z</time>
      </trkpt>
      <trkpt lat="49.43453" lon="6.54272">
        <ele>364.8</ele>
        <time>2020-09-24T18:41:54Z</time>
      </trkpt>
      <trkpt lat="49.4348" lon="6.54238">
        <ele>364.8</ele>
        <time>2020-09-24T18:41:59Z</time>
      </trkpt>
      <trkpt lat="49.43522" lon="6.54184">
        <ele>364.6</ele>
        <time>2020-09-24T18:42:06Z</time>
      </trkpt>
      <trkpt lat="49.43528" lon="6.54177">
        <ele>364.6</ele>
        <time>2020-09-24T18:42:07Z</time>
      </trkpt>
      <trkpt lat="49.4357" lon="6.54124">
        <ele>364.6</ele>
        <time>2020-09-24T18:42:14Z</time>
      </trkpt>
      <trkpt lat="49.43576" lon="6.54115">
        <ele>364.4</ele>
        <time>2020-09-24T18:42:15Z</time>
      </trkpt>
      <trkpt lat="49.43577" lon="6.54104">
        <ele>364.2</ele>
        <time>2020-09-24T18:42:16Z</time>
      </trkpt>
      <trkpt lat="49.43579" lon="6.54083">
        <ele>364.4</ele>
        <time>2020-09-24T18:42:18Z</time>
      </trkpt>
      <trkpt lat="49.43575" lon="6.54013">
        <ele>364.2</ele>
        <time>2020-09-24T18:42:25Z</time>
      </trkpt>
      <trkpt lat="49.43573" lon="6.53921">
        <ele>364</ele>
        <time>2020-09-24T18:42:35Z</time>
      </trkpt>
      <trkpt lat="49.43573" lon="6.5383">
        <ele>363.8</ele>
        <time>2020-09-24T18:42:45Z</time>
      </trkpt>
      <trkpt lat="49.43573" lon="6.53752">
        <ele>363.8</ele>
        <time>2020-09-24T18:42:53Z</time>
      </trkpt>
      <trkpt lat="49.43573" lon="6.53679">
        <ele>363.8</ele>
        <time>2020-09-24T18:43:01Z</time>
      </trkpt>
      <trkpt lat="49.43573" lon="6.53608">
        <ele>363.6</ele>
        <time>2020-09-24T18:43:09Z</time>
      </trkpt>
      <trkpt lat="49.43569" lon="6.53537">
        <ele>363.8</ele>
        <time>2020-09-24T18:43:18Z</time>
      </trkpt>
      <trkpt lat="49.43564" lon="6.53478">
        <ele>363.6</ele>
        <time>2020-09-24T18:43:25Z</time>
      </trkpt>
      <trkpt lat="49.43558" lon="6.53419">
        <ele>363.6</ele>
        <time>2020-09-24T18:43:32Z</time>
      </trkpt>
      <trkpt lat="49.43555" lon="6.53377">
        <ele>363.8</ele>
        <time>2020-09-24T18:43:38Z</time>
      </trkpt>
      <trkpt lat="49.43551" lon="6.53331">
        <ele>363.8</ele>
        <time>2020-09-24T18:43:46Z</time>
      </trkpt>
      <trkpt lat="49.43547" lon="6.53289">
        <ele>364.2</ele>
        <time>2020-09-24T18:43:54Z</time>
      </trkpt>
      <trkpt lat="49.43545" lon="6.53247">
        <ele>364.6</ele>
        <time>2020-09-24T18:44:02Z</time>
      </trkpt>
      <trkpt lat="49.43544" lon="6.53205">
        <ele>365.2</ele>
        <time>2020-09-24T18:44:10Z</time>
      </trkpt>
      <trkpt lat="49.43543" lon="6.53161">
        <ele>365.8</ele>
        <time>2020-09-24T18:44:18Z</time>
      </trkpt>
      <trkpt lat="49.43541" lon="6.53118">
        <ele>366.4</ele>
        <time>2020-09-24T18:44:26Z</time>
      </trkpt>
      <trkpt lat="49.4354" lon="6.53061">
        <ele>367</ele>
        <time>2020-09-24T18:44:36Z</time>
      </trkpt>
      <trkpt lat="49.43539" lon="6.53012">
        <ele>367.4</ele>
        <time>2020-09-24T18:44:44Z</time>
      </trkpt>
      <trkpt lat="49.43538" lon="6.52961">
        <ele>367.8</ele>
        <time>2020-09-24T18:44:52Z</time>
      </trkpt>
      <trkpt lat="49.43536" lon="6.52902">
        <ele>368.4</ele>
        <time>2020-09-24T18:45:01Z</time>
      </trkpt>
      <trkpt lat="49.43535" lon="6.52848">
        <ele>369</ele>
        <time>2020-09-24T18:45:09Z</time>
      </trkpt>
      <trkpt lat="49.43534" lon="6.52785">
        <ele>369.4</ele>
        <time>2020-09-24T18:45:18Z</time>
      </trkpt>
      <trkpt lat="49.43533" lon="6.5272">
        <ele>370</ele>
        <time>2020-09-24T18:45:27Z</time>
      </trkpt>
      <trkpt lat="49.43532" lon="6.52682">
        <ele>370.2</ele>
        <time>2020-09-24T18:45:34Z</time>
      </trkpt>
      <trkpt lat="49.43534" lon="6.5266">
        <ele>370.2</ele>
        <time>2020-09-24T18:45:35Z</time>
      </trkpt>
      <trkpt lat="49.43537" lon="6.52633">
        <ele>370.2</ele>
        <time>2020-09-24T18:45:39Z</time>
      </trkpt>
      <trkpt lat="49.43541" lon="6.52582">
        <ele>370.4</ele>
        <time>2020-09-24T18:45:46Z</time>
      </trkpt>
      <trkpt lat="49.43544" lon="6.52551">
        <ele>370.4</ele>
        <time>2020-09-24T18:45:50Z</time>
      </trkpt>
      <trkpt lat="49.43545" lon="6.52542">
        <ele>370.4</ele>
        <time>2020-09-24T18:45:51Z</time>
      </trkpt>
      <trkpt lat="49.43551" lon="6.52498">
        <ele>370.2</ele>
        <time>2020-09-24T18:45:56Z</time>
      </trkpt>
      <trkpt lat="49.43554" lon="6.52491">
        <ele>370</ele>
        <time>2020-09-24T18:45:57Z</time>
      </trkpt>
      <trkpt lat="49.43561" lon="6.52478">
        <ele>370</ele>
        <time>2020-09-24T18:45:59Z</time>
      </trkpt>
      <trkpt lat="49.43567" lon="6.52466">
        <ele>370</ele>
        <time>2020-09-24T18:46:01Z</time>
      </trkpt>
      <trkpt lat="49.4357" lon="6.5246">
        <ele>370</ele>
        <time>2020-09-24T18:46:02Z</time>
      </trkpt>
      <trkpt lat="49.43573" lon="6.52415">
        <ele>369.8</ele>
        <time>2020-09-24T18:46:08Z</time>
      </trkpt>
      <trkpt lat="49.43578" lon="6.52358">
        <ele>369.2</ele>
        <time>2020-09-24T18:46:14Z</time>
      </trkpt>
      <trkpt lat="49.43584" lon="6.52292">
        <ele>368.4</ele>
        <time>2020-09-24T18:46:20Z</time>
      </trkpt>
      <trkpt lat="49.43592" lon="6.52202">
        <ele>367.2</ele>
        <time>2020-09-24T18:46:27Z</time>
      </trkpt>
      <trkpt lat="49.43601" lon="6.52106">
        <ele>365.8</ele>
        <time>2020-09-24T18:46:34Z</time>
      </trkpt>
      <trkpt lat="49.43604" lon="6.52079">
        <ele>365.6</ele>
        <time>2020-09-24T18:46:36Z</time>
      </trkpt>
      <trkpt lat="49.43615" lon="6.51986">
        <ele>364.2</ele>
        <time>2020-09-24T18:46:43Z</time>
      </trkpt>
      <trkpt lat="49.43627" lon="6.51894">
        <ele>362.8</ele>
        <time>2020-09-24T18:46:51Z</time>
      </trkpt>
      <trkpt lat="49.43629" lon="6.51871">
        <ele>362.6</ele>
        <time>2020-09-24T18:46:53Z</time>
      </trkpt>
      <trkpt lat="49.43635" lon="6.51821">
        <ele>362.2</ele>
        <time>2020-09-24T18:46:58Z</time>
      </trkpt>
      <trkpt lat="49.43638" lon="6.51782">
        <ele>362</ele>
        <time>2020-09-24T18:47:03Z</time>
      </trkpt>
      <trkpt lat="49.43639" lon="6.51775">
        <ele>362</ele>
        <time>2020-09-24T18:47:04Z</time>
      </trkpt>
      <trkpt lat="49.43643" lon="6.51731">
        <ele>361.6</ele>
        <time>2020-09-24T18:47:11Z</time>
      </trkpt>
      <trkpt lat="49.43643" lon="6.51701">
        <ele>361.4</ele>
        <time>2020-09-24T18:47:16Z</time>
      </trkpt>
      <trkpt lat="49.4364" lon="6.51648">
        <ele>361</ele>
        <time>2020-09-24T18:47:24Z</time>
      </trkpt>
      <trkpt lat="49.43636" lon="6.51595">
        <ele>361</ele>
        <time>2020-09-24T18:47:32Z</time>
      </trkpt>
      <trkpt lat="49.43634" lon="6.51557">
        <ele>361</ele>
        <time>2020-09-24T18:47:38Z</time>
      </trkpt>
      <trkpt lat="49.4363" lon="6.51503">
        <ele>361</ele>
        <time>2020-09-24T18:47:46Z</time>
      </trkpt>
      <trkpt lat="49.43624" lon="6.51456">
        <ele>361.2</ele>
        <time>2020-09-24T18:47:53Z</time>
      </trkpt>
      <trkpt lat="49.43617" lon="6.51399">
        <ele>361.2</ele>
        <time>2020-09-24T18:48:01Z</time>
      </trkpt>
      <trkpt lat="49.43611" lon="6.51345">
        <ele>360.8</ele>
        <time>2020-09-24T18:48:08Z</time>
      </trkpt>
      <trkpt lat="49.43606" lon="6.51303">
        <ele>360.6</ele>
        <time>2020-09-24T18:48:13Z</time>
      </trkpt>
      <trkpt lat="49.43605" lon="6.51293">
        <ele>360.4</ele>
        <time>2020-09-24T18:48:14Z</time>
      </trkpt>
      <trkpt lat="49.43597" lon="6.51228">
        <ele>359.6</ele>
        <time>2020-09-24T18:48:20Z</time>
      </trkpt>
      <trkpt lat="49.43597" lon="6.51156">
        <ele>358.8</ele>
        <time>2020-09-24T18:48:25Z</time>
      </trkpt>
      <trkpt lat="49.43599" lon="6.51118">
        <ele>358</ele>
        <time>2020-09-24T18:48:28Z</time>
      </trkpt>
      <trkpt lat="49.43604" lon="6.51106">
        <ele>357.8</ele>
        <time>2020-09-24T18:48:29Z</time>
      </trkpt>
      <trkpt lat="49.43619" lon="6.51075">
        <ele>356.8</ele>
        <time>2020-09-24T18:48:32Z</time>
      </trkpt>
      <trkpt lat="49.43628" lon="6.5105">
        <ele>356</ele>
        <time>2020-09-24T18:48:34Z</time>
      </trkpt>
      <trkpt lat="49.43651" lon="6.50987">
        <ele>354.4</ele>
        <time>2020-09-24T18:48:39Z</time>
      </trkpt>
      <trkpt lat="49.43665" lon="6.50948">
        <ele>353.2</ele>
        <time>2020-09-24T18:48:42Z</time>
      </trkpt>
      <trkpt lat="49.43666" lon="6.50936">
        <ele>352.8</ele>
        <time>2020-09-24T18:48:43Z</time>
      </trkpt>
      <trkpt lat="49.43666" lon="6.5092">
        <ele>352.4</ele>
        <time>2020-09-24T18:48:44Z</time>
      </trkpt>
      <trkpt lat="49.43668" lon="6.50888">
        <ele>351.4</ele>
        <time>2020-09-24T18:48:46Z</time>
      </trkpt>
      <trkpt lat="49.43666" lon="6.50819">
        <ele>349.6</ele>
        <time>2020-09-24T18:48:50Z</time>
      </trkpt>
      <trkpt lat="49.43663" lon="6.50802">
        <ele>349.2</ele>
        <time>2020-09-24T18:48:51Z</time>
      </trkpt>
      <trkpt lat="49.4366" lon="6.50786">
        <ele>348.8</ele>
        <time>2020-09-24T18:48:52Z</time>
      </trkpt>
      <trkpt lat="49.43655" lon="6.5077">
        <ele>348</ele>
        <time>2020-09-24T18:48:54Z</time>
      </trkpt>
      <trkpt lat="49.43626" lon="6.50733">
        <ele>347.2</ele>
        <time>2020-09-24T18:48:57Z</time>
      </trkpt>
      <trkpt lat="49.43612" lon="6.5072">
        <ele>346.6</ele>
        <time>2020-09-24T18:48:59Z</time>
      </trkpt>
      <trkpt lat="49.43602" lon="6.50708">
        <ele>346.2</ele>
        <time>2020-09-24T18:49:01Z</time>
      </trkpt>
      <trkpt lat="49.43599" lon="6.50697">
        <ele>345.8</ele>
        <time>2020-09-24T18:49:03Z</time>
      </trkpt>
      <trkpt lat="49.43599" lon="6.50681">
        <ele>345.4</ele>
        <time>2020-09-24T18:49:05Z</time>
      </trkpt>
      <trkpt lat="49.43602" lon="6.50657">
        <ele>344.6</ele>
        <time>2020-09-24T18:49:10Z</time>
      </trkpt>
      <trkpt lat="49.43608" lon="6.50635">
        <ele>343.8</ele>
        <time>2020-09-24T18:49:16Z</time>
      </trkpt>
      <trkpt lat="49.43617" lon="6.50603">
        <ele>343</ele>
        <time>2020-09-24T18:49:24Z</time>
      </trkpt>
      <trkpt lat="49.43626" lon="6.50577">
        <ele>342.2</ele>
        <time>2020-09-24T18:49:30Z</time>
      </trkpt>
      <trkpt lat="49.43636" lon="6.5055">
        <ele>342</ele>
        <time>2020-09-24T18:49:38Z</time>
      </trkpt>
      <trkpt lat="49.43645" lon="6.50519">
        <ele>341.8</ele>
        <time>2020-09-24T18:49:45Z</time>
      </trkpt>
      <trkpt lat="49.43655" lon="6.50482">
        <ele>341.8</ele>
        <time>2020-09-24T18:49:54Z</time>
      </trkpt>
      <trkpt lat="49.43664" lon="6.50447">
        <ele>341.6</ele>
        <time>2020-09-24T18:50:02Z</time>
      </trkpt>
      <trkpt lat="49.43676" lon="6.50403">
        <ele>341.6</ele>
        <time>2020-09-24T18:50:11Z</time>
      </trkpt>
      <trkpt lat="49.43683" lon="6.50377">
        <ele>341.8</ele>
        <time>2020-09-24T18:50:16Z</time>
      </trkpt>
      <trkpt lat="49.4369" lon="6.5035">
        <ele>341.8</ele>
        <time>2020-09-24T18:50:22Z</time>
      </trkpt>
      <trkpt lat="49.437" lon="6.50312">
        <ele>341.8</ele>
        <time>2020-09-24T18:50:29Z</time>
      </trkpt>
      <trkpt lat="49.43712" lon="6.50266">
        <ele>342</ele>
        <time>2020-09-24T18:50:37Z</time>
      </trkpt>
      <trkpt lat="49.43726" lon="6.50213">
        <ele>342.2</ele>
        <time>2020-09-24T18:50:46Z</time>
      </trkpt>
      <trkpt lat="49.4374" lon="6.50161">
        <ele>342.4</ele>
        <time>2020-09-24T18:50:55Z</time>
      </trkpt>
      <trkpt lat="49.43751" lon="6.5012">
        <ele>342.4</ele>
        <time>2020-09-24T18:51:02Z</time>
      </trkpt>
      <trkpt lat="49.43764" lon="6.50069">
        <ele>342.6</ele>
        <time>2020-09-24T18:51:10Z</time>
      </trkpt>
      <trkpt lat="49.43784" lon="6.50026">
        <ele>342.2</ele>
        <time>2020-09-24T18:51:17Z</time>
      </trkpt>
      <trkpt lat="49.43791" lon="6.50014">
        <ele>342.2</ele>
        <time>2020-09-24T18:51:19Z</time>
      </trkpt>
      <trkpt lat="49.43803" lon="6.49999">
        <ele>342.2</ele>
        <time>2020-09-24T18:51:22Z</time>
      </trkpt>
      <trkpt lat="49.43831" lon="6.49972">
        <ele>342.2</ele>
        <time>2020-09-24T18:51:28Z</time>
      </trkpt>
      <trkpt lat="49.43835" lon="6.49968">
        <ele>342</ele>
        <time>2020-09-24T18:51:29Z</time>
      </trkpt>
      <trkpt lat="49.43849" lon="6.49958">
        <ele>342</ele>
        <time>2020-09-24T18:51:32Z</time>
      </trkpt>
      <trkpt lat="49.43849" lon="6.49958">
        <ele>342</ele>
        <time>2020-09-24T18:51:33Z</time>
      </trkpt>
      <trkpt lat="49.43877" lon="6.4995">
        <ele>341.8</ele>
        <time>2020-09-24T18:51:38Z</time>
      </trkpt>
      <trkpt lat="49.43877" lon="6.4995">
        <ele>341.8</ele>
        <time>2020-09-24T18:51:39Z</time>
      </trkpt>
      <trkpt lat="49.43883" lon="6.49938">
        <ele>341.8</ele>
        <time>2020-09-24T18:51:40Z</time>
      </trkpt>
      <trkpt lat="49.43883" lon="6.49932">
        <ele>341.8</ele>
        <time>2020-09-24T18:51:42Z</time>
      </trkpt>
      <trkpt lat="49.43885" lon="6.49893">
        <ele>341.6</ele>
        <time>2020-09-24T18:51:48Z</time>
      </trkpt>
      <trkpt lat="49.43882" lon="6.49879">
        <ele>341.6</ele>
        <time>2020-09-24T18:51:49Z</time>
      </trkpt>
      <trkpt lat="49.43878" lon="6.49854">
        <ele>341.6</ele>
        <time>2020-09-24T18:51:53Z</time>
      </trkpt>
      <trkpt lat="49.43878" lon="6.49854">
        <ele>341.6</ele>
        <time>2020-09-24T18:51:54Z</time>
      </trkpt>
      <trkpt lat="49.43873" lon="6.49845">
        <ele>341.8</ele>
        <time>2020-09-24T18:51:57Z</time>
      </trkpt>
      <trkpt lat="49.43843" lon="6.49819">
        <ele>341.6</ele>
        <time>2020-09-24T18:52:05Z</time>
      </trkpt>
      <trkpt lat="49.43823" lon="6.49806">
        <ele>341.8</ele>
        <time>2020-09-24T18:52:12Z</time>
      </trkpt>
      <trkpt lat="49.43815" lon="6.49799">
        <ele>341.8</ele>
        <time>2020-09-24T18:52:15Z</time>
      </trkpt>
      <trkpt lat="49.43815" lon="6.49796">
        <ele>341.8</ele>
        <time>2020-09-24T18:52:16Z</time>
      </trkpt>
      <trkpt lat="49.43815" lon="6.49783">
        <ele>341.8</ele>
        <time>2020-09-24T18:52:21Z</time>
      </trkpt>
      <trkpt lat="49.43816" lon="6.49757">
        <ele>341.8</ele>
        <time>2020-09-24T18:52:26Z</time>
      </trkpt>
      <trkpt lat="49.43817" lon="6.49738">
        <ele>342</ele>
        <time>2020-09-24T18:52:31Z</time>
      </trkpt>
      <trkpt lat="49.43811" lon="6.49712">
        <ele>342.2</ele>
        <time>2020-09-24T18:52:36Z</time>
      </trkpt>
      <trkpt lat="49.4381" lon="6.49688">
        <ele>342.4</ele>
        <time>2020-09-24T18:52:41Z</time>
      </trkpt>
      <trkpt lat="49.43821" lon="6.49666">
        <ele>342.6</ele>
        <time>2020-09-24T18:52:47Z</time>
      </trkpt>
      <trkpt lat="49.43829" lon="6.49651">
        <ele>343</ele>
        <time>2020-09-24T18:52:54Z</time>
      </trkpt>
      <trkpt lat="49.43836" lon="6.49632">
        <ele>343.2</ele>
        <time>2020-09-24T18:52:59Z</time>
      </trkpt>
      <trkpt lat="49.43846" lon="6.49607">
        <ele>343.8</ele>
        <time>2020-09-24T18:53:06Z</time>
      </trkpt>
      <trkpt lat="49.43852" lon="6.49589">
        <ele>344.2</ele>
        <time>2020-09-24T18:53:11Z</time>
      </trkpt>
      <trkpt lat="49.43853" lon="6.4957">
        <ele>344.8</ele>
        <time>2020-09-24T18:53:17Z</time>
      </trkpt>
      <trkpt lat="49.43852" lon="6.49567">
        <ele>345</ele>
        <time>2020-09-24T18:53:21Z</time>
      </trkpt>
      <trkpt lat="49.43848" lon="6.49557">
        <ele>345.4</ele>
        <time>2020-09-24T18:53:25Z</time>
      </trkpt>
      <trkpt lat="49.43841" lon="6.4954">
        <ele>345.8</ele>
        <time>2020-09-24T18:53:31Z</time>
      </trkpt>
      <trkpt lat="49.43838" lon="6.49529">
        <ele>346</ele>
        <time>2020-09-24T18:53:36Z</time>
      </trkpt>
      <trkpt lat="49.43835" lon="6.49522">
        <ele>346.4</ele>
        <time>2020-09-24T18:53:40Z</time>
      </trkpt>
      <trkpt lat="49.43833" lon="6.49511">
        <ele>346.6</ele>
        <time>2020-09-24T18:53:45Z</time>
      </trkpt>
      <trkpt lat="49.43833" lon="6.49507">
        <ele>346.8</ele>
        <time>2020-09-24T18:53:47Z</time>
      </trkpt>
      <trkpt lat="49.43833" lon="6.49503">
        <ele>347</ele>
        <time>2020-09-24T18:53:49Z</time>
      </trkpt>
      <trkpt lat="49.43833" lon="6.495">
        <ele>347</ele>
        <time>2020-09-24T18:53:50Z</time>
      </trkpt>
      <trkpt lat="49.43831" lon="6.49505">
        <ele>347.2</ele>
        <time>2020-09-24T18:53:51Z</time>
      </trkpt>
      <trkpt lat="49.43831" lon="6.49505">
        <ele>347.2</ele>
        <time>2020-09-24T18:53:53Z</time>
      </trkpt>
      <trkpt lat="49.43834" lon="6.49518">
        <ele>347.2</ele>
        <time>2020-09-24T18:53:56Z</time>
      </trkpt>
      <trkpt lat="49.43835" lon="6.49521">
        <ele>347.2</ele>
        <time>2020-09-24T18:53:57Z</time>
      </trkpt>
      <trkpt lat="49.43826" lon="6.49538">
        <ele>347.4</ele>
        <time>2020-09-24T18:54:02Z</time>
      </trkpt>
      <trkpt lat="49.43818" lon="6.49551">
        <ele>347.4</ele>
        <time>2020-09-24T18:54:07Z</time>
      </trkpt>
      <trkpt lat="49.43812" lon="6.49566">
        <ele>347.2</ele>
        <time>2020-09-24T18:54:13Z</time>
      </trkpt>
      <trkpt lat="49.43811" lon="6.49568">
        <ele>347.2</ele>
        <time>2020-09-24T18:54:14Z</time>
      </trkpt>
    </trkseg>
  </trk>
</gpx>